<?xml version='1.0' encoding='UTF-8'?><gpx version="1.1" creator="JPX - https://github.com/jenetics/jpx" xmlns="http://www.topografix.com/GPX/1/1"><trk><trkseg><trkpt lat="44.7310917" lon="9.8872417"><ele>499.99999999999994</ele><time>2026-04-19T06:01:43.056Z</time></trkpt><trkpt lat="44.73114" lon="9.8871317"><ele>500.0</ele><time>2026-04-19T06:02:20.056Z</time></trkpt><trkpt lat="44.7311817" lon="9.8872317"><ele>500.0</ele><time>2026-04-19T06:03:22.055Z</time></trkpt><trkpt lat="44.73117" lon="9.8873217"><ele>500.0</ele><time>2026-04-19T06:03:24.056Z</time></trkpt><trkpt lat="44.7311717" lon="9.887435"><ele>499.99999999999994</ele><time>2026-04-19T06:03:26.055Z</time></trkpt><trkpt lat="44.7311633" lon="9.8875467"><ele>500.0</ele><time>2026-04-19T06:03:28.056Z</time></trkpt><trkpt lat="44.7311267" lon="9.8876517"><ele>499.8333333333333</ele><time>2026-04-19T06:03:30.057Z</time></trkpt><trkpt lat="44.7310783" lon="9.8877317"><ele>499.66666666666663</ele><time>2026-04-19T06:03:32.055Z</time></trkpt><trkpt lat="44.73101" lon="9.8877967"><ele>499.5</ele><time>2026-04-19T06:03:35.055Z</time></trkpt><trkpt lat="44.730975" lon="9.8878767"><ele>499.33333333333337</ele><time>2026-04-19T06:03:37.055Z</time></trkpt><trkpt lat="44.73095" lon="9.88802"><ele>499.1666666666667</ele><time>2026-04-19T06:03:39.057Z</time></trkpt><trkpt lat="44.7309467" lon="9.888175"><ele>499.0</ele><time>2026-04-19T06:03:41.055Z</time></trkpt><trkpt lat="44.7309667" lon="9.8883717"><ele>499.79999999999995</ele><time>2026-04-19T06:03:43.055Z</time></trkpt><trkpt lat="44.7309833" lon="9.888485"><ele>500.59999999999997</ele><time>2026-04-19T06:03:44.056Z</time></trkpt><trkpt lat="44.7310033" lon="9.888605"><ele>501.4</ele><time>2026-04-19T06:03:45.056Z</time></trkpt><trkpt lat="44.7310267" lon="9.888735"><ele>502.2</ele><time>2026-04-19T06:03:46.054Z</time></trkpt><trkpt lat="44.7310583" lon="9.8888683"><ele>503.0</ele><time>2026-04-19T06:03:47.057Z</time></trkpt><trkpt lat="44.7310967" lon="9.8890067"><ele>503.0</ele><time>2026-04-19T06:03:48.057Z</time></trkpt><trkpt lat="44.73114" lon="9.8891417"><ele>502.99999999999994</ele><time>2026-04-19T06:03:49.055Z</time></trkpt><trkpt lat="44.7311917" lon="9.8892767"><ele>502.99999999999994</ele><time>2026-04-19T06:03:50.057Z</time></trkpt><trkpt lat="44.731245" lon="9.88942"><ele>503.0</ele><time>2026-04-19T06:03:51.056Z</time></trkpt><trkpt lat="44.7313033" lon="9.8895633"><ele>503.0</ele><time>2026-04-19T06:03:52.055Z</time></trkpt><trkpt lat="44.73136" lon="9.889705"><ele>505.59999999999997</ele><time>2026-04-19T06:03:53.058Z</time></trkpt><trkpt lat="44.7314233" lon="9.8898283"><ele>508.19999999999993</ele><time>2026-04-19T06:03:54.055Z</time></trkpt><trkpt lat="44.731485" lon="9.8899367"><ele>510.8</ele><time>2026-04-19T06:03:55.055Z</time></trkpt><trkpt lat="44.7315433" lon="9.8900383"><ele>513.4</ele><time>2026-04-19T06:03:56.056Z</time></trkpt><trkpt lat="44.7315933" lon="9.8901517"><ele>516.0</ele><time>2026-04-19T06:03:57.055Z</time></trkpt><trkpt lat="44.73164" lon="9.8902717"><ele>517.6</ele><time>2026-04-19T06:03:58.056Z</time></trkpt><trkpt lat="44.7316883" lon="9.89041"><ele>519.2</ele><time>2026-04-19T06:03:59.054Z</time></trkpt><trkpt lat="44.7317333" lon="9.890555"><ele>520.8</ele><time>2026-04-19T06:04:00.055Z</time></trkpt><trkpt lat="44.7317733" lon="9.890685"><ele>522.4</ele><time>2026-04-19T06:04:01.055Z</time></trkpt><trkpt lat="44.7318117" lon="9.8908117"><ele>524.0</ele><time>2026-04-19T06:04:02.054Z</time></trkpt><trkpt lat="44.73185" lon="9.8909317"><ele>524.6</ele><time>2026-04-19T06:04:03.055Z</time></trkpt><trkpt lat="44.7318833" lon="9.891055"><ele>525.2</ele><time>2026-04-19T06:04:04.056Z</time></trkpt><trkpt lat="44.7319083" lon="9.8911783"><ele>525.8000000000001</ele><time>2026-04-19T06:04:05.056Z</time></trkpt><trkpt lat="44.7319217" lon="9.89131"><ele>526.4</ele><time>2026-04-19T06:04:06.055Z</time></trkpt><trkpt lat="44.73193" lon="9.8914467"><ele>527.0</ele><time>2026-04-19T06:04:07.056Z</time></trkpt><trkpt lat="44.7319233" lon="9.891585"><ele>526.6</ele><time>2026-04-19T06:04:08.057Z</time></trkpt><trkpt lat="44.731925" lon="9.891725"><ele>526.2</ele><time>2026-04-19T06:04:09.055Z</time></trkpt><trkpt lat="44.7319367" lon="9.8918567"><ele>525.8</ele><time>2026-04-19T06:04:10.055Z</time></trkpt><trkpt lat="44.73195" lon="9.891995"><ele>525.4</ele><time>2026-04-19T06:04:11.054Z</time></trkpt><trkpt lat="44.731975" lon="9.8921467"><ele>525.0</ele><time>2026-04-19T06:04:12.055Z</time></trkpt><trkpt lat="44.73201" lon="9.892305"><ele>525.0</ele><time>2026-04-19T06:04:13.055Z</time></trkpt><trkpt lat="44.73205" lon="9.8924517"><ele>525.0</ele><time>2026-04-19T06:04:14.055Z</time></trkpt><trkpt lat="44.73209" lon="9.892585"><ele>525.0</ele><time>2026-04-19T06:04:15.056Z</time></trkpt><trkpt lat="44.7321283" lon="9.8927217"><ele>525.0</ele><time>2026-04-19T06:04:16.055Z</time></trkpt><trkpt lat="44.7321683" lon="9.8928617"><ele>525.0</ele><time>2026-04-19T06:04:17.055Z</time></trkpt><trkpt lat="44.7322133" lon="9.8930017"><ele>527.0</ele><time>2026-04-19T06:04:18.054Z</time></trkpt><trkpt lat="44.732265" lon="9.8931467"><ele>529.0</ele><time>2026-04-19T06:04:19.056Z</time></trkpt><trkpt lat="44.732325" lon="9.893285"><ele>531.0</ele><time>2026-04-19T06:04:20.056Z</time></trkpt><trkpt lat="44.7323917" lon="9.893425"><ele>533.0</ele><time>2026-04-19T06:04:21.055Z</time></trkpt><trkpt lat="44.73246" lon="9.8935533"><ele>535.5</ele><time>2026-04-19T06:04:22.054Z</time></trkpt><trkpt lat="44.7325267" lon="9.893685"><ele>538.0</ele><time>2026-04-19T06:04:23.055Z</time></trkpt><trkpt lat="44.7325917" lon="9.8938233"><ele>540.5</ele><time>2026-04-19T06:04:24.055Z</time></trkpt><trkpt lat="44.7326567" lon="9.8939733"><ele>543.0</ele><time>2026-04-19T06:04:25.054Z</time></trkpt><trkpt lat="44.7327167" lon="9.8941133"><ele>543.6</ele><time>2026-04-19T06:04:26.055Z</time></trkpt><trkpt lat="44.7327817" lon="9.8942383"><ele>544.1999999999999</ele><time>2026-04-19T06:04:27.057Z</time></trkpt><trkpt lat="44.732845" lon="9.8943683"><ele>544.8</ele><time>2026-04-19T06:04:28.055Z</time></trkpt><trkpt lat="44.7328983" lon="9.8945017"><ele>545.4</ele><time>2026-04-19T06:04:29.056Z</time></trkpt><trkpt lat="44.7329433" lon="9.894635"><ele>546.0</ele><time>2026-04-19T06:04:30.056Z</time></trkpt><trkpt lat="44.7329883" lon="9.8947733"><ele>546.0</ele><time>2026-04-19T06:04:31.055Z</time></trkpt><trkpt lat="44.7330367" lon="9.89491"><ele>546.0</ele><time>2026-04-19T06:04:32.055Z</time></trkpt><trkpt lat="44.73309" lon="9.8950467"><ele>546.0</ele><time>2026-04-19T06:04:33.055Z</time></trkpt><trkpt lat="44.73315" lon="9.8951817"><ele>546.0</ele><time>2026-04-19T06:04:34.056Z</time></trkpt><trkpt lat="44.733215" lon="9.8953267"><ele>548.0</ele><time>2026-04-19T06:04:35.056Z</time></trkpt><trkpt lat="44.7332783" lon="9.895475"><ele>550.0</ele><time>2026-04-19T06:04:36.056Z</time></trkpt><trkpt lat="44.7333367" lon="9.8956167"><ele>552.0</ele><time>2026-04-19T06:04:37.056Z</time></trkpt><trkpt lat="44.7333867" lon="9.8957433"><ele>554.0</ele><time>2026-04-19T06:04:38.055Z</time></trkpt><trkpt lat="44.7334333" lon="9.8958633"><ele>556.0</ele><time>2026-04-19T06:04:39.055Z</time></trkpt><trkpt lat="44.73347" lon="9.8959817"><ele>556.8333333333334</ele><time>2026-04-19T06:04:40.055Z</time></trkpt><trkpt lat="44.73349" lon="9.8961067"><ele>557.6666666666667</ele><time>2026-04-19T06:04:41.055Z</time></trkpt><trkpt lat="44.7334833" lon="9.8962333"><ele>558.5</ele><time>2026-04-19T06:04:42.056Z</time></trkpt><trkpt lat="44.73346" lon="9.89634"><ele>559.3333333333334</ele><time>2026-04-19T06:04:43.056Z</time></trkpt><trkpt lat="44.733415" lon="9.8964783"><ele>560.1666666666666</ele><time>2026-04-19T06:04:45.054Z</time></trkpt><trkpt lat="44.7334033" lon="9.8965783"><ele>561.0</ele><time>2026-04-19T06:04:48.055Z</time></trkpt><trkpt lat="44.7334683" lon="9.8966183"><ele>561.2</ele><time>2026-04-19T06:04:50.055Z</time></trkpt><trkpt lat="44.7336" lon="9.8966417"><ele>561.4000000000001</ele><time>2026-04-19T06:04:52.054Z</time></trkpt><trkpt lat="44.7336883" lon="9.8966433"><ele>561.6</ele><time>2026-04-19T06:04:53.055Z</time></trkpt><trkpt lat="44.7337933" lon="9.8966317"><ele>561.8000000000001</ele><time>2026-04-19T06:04:54.056Z</time></trkpt><trkpt lat="44.7339033" lon="9.896615"><ele>562.0</ele><time>2026-04-19T06:04:55.055Z</time></trkpt><trkpt lat="44.7340083" lon="9.8966017"><ele>562.0</ele><time>2026-04-19T06:04:56.056Z</time></trkpt><trkpt lat="44.7341083" lon="9.8965817"><ele>562.0</ele><time>2026-04-19T06:04:57.055Z</time></trkpt><trkpt lat="44.734205" lon="9.89655"><ele>562.0</ele><time>2026-04-19T06:04:58.056Z</time></trkpt><trkpt lat="44.7343017" lon="9.8965067"><ele>562.0</ele><time>2026-04-19T06:04:59.054Z</time></trkpt><trkpt lat="44.7343933" lon="9.89646"><ele>562.0</ele><time>2026-04-19T06:05:00.056Z</time></trkpt><trkpt lat="44.73448" lon="9.8964167"><ele>561.8333333333334</ele><time>2026-04-19T06:05:01.056Z</time></trkpt><trkpt lat="44.7345633" lon="9.8963683"><ele>561.6666666666667</ele><time>2026-04-19T06:05:02.056Z</time></trkpt><trkpt lat="44.7346367" lon="9.8963183"><ele>561.5</ele><time>2026-04-19T06:05:03.057Z</time></trkpt><trkpt lat="44.7347083" lon="9.8962767"><ele>561.3333333333334</ele><time>2026-04-19T06:05:04.056Z</time></trkpt><trkpt lat="44.7347833" lon="9.8962517"><ele>561.1666666666666</ele><time>2026-04-19T06:05:05.054Z</time></trkpt><trkpt lat="44.734855" lon="9.896235"><ele>561.0</ele><time>2026-04-19T06:05:06.054Z</time></trkpt><trkpt lat="44.7349283" lon="9.8962283"><ele>561.0</ele><time>2026-04-19T06:05:07.055Z</time></trkpt><trkpt lat="44.735005" lon="9.8962283"><ele>561.0</ele><time>2026-04-19T06:05:08.055Z</time></trkpt><trkpt lat="44.735085" lon="9.8962367"><ele>561.0</ele><time>2026-04-19T06:05:09.054Z</time></trkpt><trkpt lat="44.7351667" lon="9.8962333"><ele>561.0</ele><time>2026-04-19T06:05:10.053Z</time></trkpt><trkpt lat="44.735255" lon="9.8962117"><ele>561.0</ele><time>2026-04-19T06:05:11.053Z</time></trkpt><trkpt lat="44.7353517" lon="9.8961883"><ele>561.0</ele><time>2026-04-19T06:05:12.056Z</time></trkpt><trkpt lat="44.7354533" lon="9.8961883"><ele>559.4</ele><time>2026-04-19T06:05:13.054Z</time></trkpt><trkpt lat="44.7355533" lon="9.8962"><ele>557.8</ele><time>2026-04-19T06:05:14.057Z</time></trkpt><trkpt lat="44.7356533" lon="9.896225"><ele>556.1999999999999</ele><time>2026-04-19T06:05:15.055Z</time></trkpt><trkpt lat="44.7357517" lon="9.8962617"><ele>554.6</ele><time>2026-04-19T06:05:16.055Z</time></trkpt><trkpt lat="44.7358467" lon="9.89632"><ele>553.0</ele><time>2026-04-19T06:05:17.055Z</time></trkpt><trkpt lat="44.73594" lon="9.8963983"><ele>553.0</ele><time>2026-04-19T06:05:18.055Z</time></trkpt><trkpt lat="44.736035" lon="9.896485"><ele>553.0</ele><time>2026-04-19T06:05:19.055Z</time></trkpt><trkpt lat="44.7361317" lon="9.8965717"><ele>553.0</ele><time>2026-04-19T06:05:20.056Z</time></trkpt><trkpt lat="44.7362317" lon="9.8966517"><ele>553.0</ele><time>2026-04-19T06:05:21.054Z</time></trkpt><trkpt lat="44.7363367" lon="9.8967233"><ele>553.4</ele><time>2026-04-19T06:05:22.055Z</time></trkpt><trkpt lat="44.736445" lon="9.8967833"><ele>553.8</ele><time>2026-04-19T06:05:23.056Z</time></trkpt><trkpt lat="44.7365517" lon="9.896825"><ele>554.2</ele><time>2026-04-19T06:05:24.055Z</time></trkpt><trkpt lat="44.73666" lon="9.896845"><ele>554.6</ele><time>2026-04-19T06:05:25.056Z</time></trkpt><trkpt lat="44.7367633" lon="9.8968567"><ele>555.0</ele><time>2026-04-19T06:05:26.056Z</time></trkpt><trkpt lat="44.736855" lon="9.8968567"><ele>558.6</ele><time>2026-04-19T06:05:27.055Z</time></trkpt><trkpt lat="44.7369467" lon="9.8968467"><ele>562.2</ele><time>2026-04-19T06:05:28.056Z</time></trkpt><trkpt lat="44.7370383" lon="9.896835"><ele>565.8</ele><time>2026-04-19T06:05:29.056Z</time></trkpt><trkpt lat="44.737135" lon="9.8968267"><ele>569.4</ele><time>2026-04-19T06:05:30.053Z</time></trkpt><trkpt lat="44.73724" lon="9.8968167"><ele>573.0</ele><time>2026-04-19T06:05:31.055Z</time></trkpt><trkpt lat="44.7373317" lon="9.8968117"><ele>573.0</ele><time>2026-04-19T06:05:32.055Z</time></trkpt><trkpt lat="44.73741" lon="9.896815"><ele>573.0</ele><time>2026-04-19T06:05:33.055Z</time></trkpt><trkpt lat="44.737475" lon="9.8968367"><ele>573.0</ele><time>2026-04-19T06:05:34.055Z</time></trkpt><trkpt lat="44.7375383" lon="9.89692"><ele>573.0</ele><time>2026-04-19T06:05:36.056Z</time></trkpt><trkpt lat="44.7375417" lon="9.8971183"><ele>573.0</ele><time>2026-04-19T06:05:38.056Z</time></trkpt><trkpt lat="44.7375517" lon="9.89724"><ele>573.0</ele><time>2026-04-19T06:05:39.055Z</time></trkpt><trkpt lat="44.7375667" lon="9.8973767"><ele>573.0</ele><time>2026-04-19T06:05:40.054Z</time></trkpt><trkpt lat="44.73758" lon="9.8974933"><ele>573.0</ele><time>2026-04-19T06:05:41.055Z</time></trkpt><trkpt lat="44.73757" lon="9.8975883"><ele>573.0</ele><time>2026-04-19T06:05:43.053Z</time></trkpt><trkpt lat="44.7375217" lon="9.8976617"><ele>573.0</ele><time>2026-04-19T06:05:47.053Z</time></trkpt><trkpt lat="44.7375283" lon="9.8975517"><ele>573.0</ele><time>2026-04-19T06:05:54.055Z</time></trkpt><trkpt lat="44.7375967" lon="9.89751"><ele>573.0</ele><time>2026-04-19T06:05:58.054Z</time></trkpt><trkpt lat="44.73769" lon="9.8975783"><ele>573.0</ele><time>2026-04-19T06:06:01.055Z</time></trkpt><trkpt lat="44.7377867" lon="9.8976167"><ele>573.0</ele><time>2026-04-19T06:06:03.054Z</time></trkpt><trkpt lat="44.7378983" lon="9.8976167"><ele>573.0</ele><time>2026-04-19T06:06:05.054Z</time></trkpt><trkpt lat="44.7379667" lon="9.8975983"><ele>573.0</ele><time>2026-04-19T06:06:06.055Z</time></trkpt><trkpt lat="44.738075" lon="9.897575"><ele>569.1666666666666</ele><time>2026-04-19T06:06:08.056Z</time></trkpt><trkpt lat="44.7381467" lon="9.8976117"><ele>565.3333333333334</ele><time>2026-04-19T06:06:10.055Z</time></trkpt><trkpt lat="44.738215" lon="9.8976617"><ele>561.5</ele><time>2026-04-19T06:06:12.054Z</time></trkpt><trkpt lat="44.7383217" lon="9.8976483"><ele>557.6666666666667</ele><time>2026-04-19T06:06:14.056Z</time></trkpt><trkpt lat="44.7383883" lon="9.8976283"><ele>553.8333333333334</ele><time>2026-04-19T06:06:15.054Z</time></trkpt><trkpt lat="44.738455" lon="9.8976067"><ele>550.0</ele><time>2026-04-19T06:06:16.054Z</time></trkpt><trkpt lat="44.738525" lon="9.897585"><ele>545.8333333333334</ele><time>2026-04-19T06:06:17.054Z</time></trkpt><trkpt lat="44.738595" lon="9.8975617"><ele>541.6666666666667</ele><time>2026-04-19T06:06:18.055Z</time></trkpt><trkpt lat="44.7386583" lon="9.8975467"><ele>537.5</ele><time>2026-04-19T06:06:19.054Z</time></trkpt><trkpt lat="44.7387283" lon="9.89755"><ele>533.3333333333334</ele><time>2026-04-19T06:06:20.054Z</time></trkpt><trkpt lat="44.7387983" lon="9.8975633"><ele>529.1666666666666</ele><time>2026-04-19T06:06:21.055Z</time></trkpt><trkpt lat="44.7389117" lon="9.8975867"><ele>525.0</ele><time>2026-04-19T06:06:23.054Z</time></trkpt><trkpt lat="44.7390083" lon="9.8975767"><ele>525.0</ele><time>2026-04-19T06:06:25.053Z</time></trkpt><trkpt lat="44.7391133" lon="9.8975233"><ele>525.0</ele><time>2026-04-19T06:06:27.055Z</time></trkpt><trkpt lat="44.7392317" lon="9.8974983"><ele>525.0</ele><time>2026-04-19T06:06:29.054Z</time></trkpt><trkpt lat="44.739295" lon="9.8975067"><ele>525.0</ele><time>2026-04-19T06:06:30.054Z</time></trkpt><trkpt lat="44.7393917" lon="9.897515"><ele>525.0</ele><time>2026-04-19T06:06:32.056Z</time></trkpt><trkpt lat="44.7394433" lon="9.8974633"><ele>525.0</ele><time>2026-04-19T06:06:34.054Z</time></trkpt><trkpt lat="44.7394267" lon="9.897355"><ele>525.0</ele><time>2026-04-19T06:06:36.055Z</time></trkpt><trkpt lat="44.7393683" lon="9.8972217"><ele>525.0</ele><time>2026-04-19T06:06:38.055Z</time></trkpt><trkpt lat="44.7393317" lon="9.8971117"><ele>525.0</ele><time>2026-04-19T06:06:40.054Z</time></trkpt><trkpt lat="44.73936" lon="9.8969617"><ele>525.0</ele><time>2026-04-19T06:06:42.054Z</time></trkpt><trkpt lat="44.739395" lon="9.8968683"><ele>521.3333333333334</ele><time>2026-04-19T06:06:43.055Z</time></trkpt><trkpt lat="44.7394367" lon="9.8967783"><ele>517.6666666666666</ele><time>2026-04-19T06:06:44.055Z</time></trkpt><trkpt lat="44.73948" lon="9.8966983"><ele>514.0</ele><time>2026-04-19T06:06:45.055Z</time></trkpt><trkpt lat="44.7395483" lon="9.89657"><ele>510.3333333333333</ele><time>2026-04-19T06:06:47.055Z</time></trkpt><trkpt lat="44.739575" lon="9.8964017"><ele>506.66666666666663</ele><time>2026-04-19T06:06:49.054Z</time></trkpt><trkpt lat="44.7395717" lon="9.89631"><ele>503.0</ele><time>2026-04-19T06:06:50.055Z</time></trkpt><trkpt lat="44.7395717" lon="9.8961517"><ele>501.3333333333333</ele><time>2026-04-19T06:06:52.054Z</time></trkpt><trkpt lat="44.7395517" lon="9.8960283"><ele>499.66666666666663</ele><time>2026-04-19T06:06:54.054Z</time></trkpt><trkpt lat="44.7395217" lon="9.8959317"><ele>498.0</ele><time>2026-04-19T06:06:56.055Z</time></trkpt><trkpt lat="44.7395017" lon="9.8958233"><ele>496.33333333333337</ele><time>2026-04-19T06:06:58.054Z</time></trkpt><trkpt lat="44.7395167" lon="9.8956967"><ele>494.6666666666667</ele><time>2026-04-19T06:07:00.054Z</time></trkpt><trkpt lat="44.7395567" lon="9.895595"><ele>493.0</ele><time>2026-04-19T06:07:02.054Z</time></trkpt><trkpt lat="44.7396083" lon="9.89552"><ele>489.2</ele><time>2026-04-19T06:07:04.054Z</time></trkpt><trkpt lat="44.7396667" lon="9.89546"><ele>485.4</ele><time>2026-04-19T06:07:06.054Z</time></trkpt><trkpt lat="44.739745" lon="9.8954167"><ele>481.59999999999997</ele><time>2026-04-19T06:07:08.054Z</time></trkpt><trkpt lat="44.7398183" lon="9.8953633"><ele>477.79999999999995</ele><time>2026-04-19T06:07:10.054Z</time></trkpt><trkpt lat="44.739895" lon="9.8952567"><ele>474.0</ele><time>2026-04-19T06:07:12.054Z</time></trkpt><trkpt lat="44.7399717" lon="9.895155"><ele>471.4</ele><time>2026-04-19T06:07:14.055Z</time></trkpt><trkpt lat="44.7400367" lon="9.8950617"><ele>468.79999999999995</ele><time>2026-04-19T06:07:16.053Z</time></trkpt><trkpt lat="44.7400883" lon="9.8949367"><ele>466.20000000000005</ele><time>2026-04-19T06:07:18.055Z</time></trkpt><trkpt lat="44.7400783" lon="9.89478"><ele>463.6</ele><time>2026-04-19T06:07:20.054Z</time></trkpt><trkpt lat="44.7400467" lon="9.8946933"><ele>461.0</ele><time>2026-04-19T06:07:21.055Z</time></trkpt><trkpt lat="44.7399717" lon="9.8945733"><ele>460.99999999999994</ele><time>2026-04-19T06:07:23.054Z</time></trkpt><trkpt lat="44.73991" lon="9.8944767"><ele>461.0</ele><time>2026-04-19T06:07:25.054Z</time></trkpt><trkpt lat="44.7398833" lon="9.8943767"><ele>461.0</ele><time>2026-04-19T06:07:27.054Z</time></trkpt><trkpt lat="44.73992" lon="9.89428"><ele>461.0</ele><time>2026-04-19T06:07:30.054Z</time></trkpt><trkpt lat="44.7399733" lon="9.8941933"><ele>460.99999999999994</ele><time>2026-04-19T06:07:32.055Z</time></trkpt><trkpt lat="44.7400383" lon="9.89409"><ele>461.0</ele><time>2026-04-19T06:07:34.054Z</time></trkpt><trkpt lat="44.74011" lon="9.8940033"><ele>461.0</ele><time>2026-04-19T06:07:36.054Z</time></trkpt><trkpt lat="44.7401933" lon="9.8939283"><ele>461.0</ele><time>2026-04-19T06:07:38.054Z</time></trkpt><trkpt lat="44.7402767" lon="9.893855"><ele>461.0</ele><time>2026-04-19T06:07:40.056Z</time></trkpt><trkpt lat="44.7403517" lon="9.8937583"><ele>461.0</ele><time>2026-04-19T06:07:42.053Z</time></trkpt><trkpt lat="44.7404317" lon="9.8936483"><ele>461.0</ele><time>2026-04-19T06:07:44.054Z</time></trkpt><trkpt lat="44.7405167" lon="9.8935533"><ele>456.3333333333333</ele><time>2026-04-19T06:07:46.054Z</time></trkpt><trkpt lat="44.740615" lon="9.893485"><ele>451.66666666666663</ele><time>2026-04-19T06:07:48.054Z</time></trkpt><trkpt lat="44.7406983" lon="9.8934467"><ele>447.0</ele><time>2026-04-19T06:07:50.055Z</time></trkpt><trkpt lat="44.7407833" lon="9.8934583"><ele>442.33333333333337</ele><time>2026-04-19T06:07:52.055Z</time></trkpt><trkpt lat="44.74084" lon="9.8935117"><ele>437.6666666666667</ele><time>2026-04-19T06:07:54.053Z</time></trkpt><trkpt lat="44.7408883" lon="9.8935883"><ele>433.0</ele><time>2026-04-19T06:07:56.053Z</time></trkpt><trkpt lat="44.74095" lon="9.8937283"><ele>433.0</ele><time>2026-04-19T06:07:58.053Z</time></trkpt><trkpt lat="44.740985" lon="9.8938733"><ele>432.99999999999994</ele><time>2026-04-19T06:08:00.054Z</time></trkpt><trkpt lat="44.7410317" lon="9.8939917"><ele>432.99999999999994</ele><time>2026-04-19T06:08:02.055Z</time></trkpt><trkpt lat="44.7411067" lon="9.89408"><ele>433.0</ele><time>2026-04-19T06:08:04.054Z</time></trkpt><trkpt lat="44.7412367" lon="9.8941283"><ele>433.0</ele><time>2026-04-19T06:08:06.055Z</time></trkpt><trkpt lat="44.7413217" lon="9.894145"><ele>430.50000000000006</ele><time>2026-04-19T06:08:07.054Z</time></trkpt><trkpt lat="44.7414117" lon="9.89416"><ele>428.0</ele><time>2026-04-19T06:08:08.054Z</time></trkpt><trkpt lat="44.7415033" lon="9.8941767"><ele>425.5</ele><time>2026-04-19T06:08:09.055Z</time></trkpt><trkpt lat="44.741595" lon="9.894195"><ele>423.0</ele><time>2026-04-19T06:08:10.053Z</time></trkpt><trkpt lat="44.7416817" lon="9.8942183"><ele>420.50000000000006</ele><time>2026-04-19T06:08:11.056Z</time></trkpt><trkpt lat="44.7417567" lon="9.8942383"><ele>418.0</ele><time>2026-04-19T06:08:12.055Z</time></trkpt><trkpt lat="44.741825" lon="9.8942633"><ele>415.33333333333337</ele><time>2026-04-19T06:08:13.054Z</time></trkpt><trkpt lat="44.7418917" lon="9.8942967"><ele>412.6666666666667</ele><time>2026-04-19T06:08:14.054Z</time></trkpt><trkpt lat="44.7419567" lon="9.8943333"><ele>410.0</ele><time>2026-04-19T06:08:15.055Z</time></trkpt><trkpt lat="44.742015" lon="9.89438"><ele>407.33333333333337</ele><time>2026-04-19T06:08:16.055Z</time></trkpt><trkpt lat="44.74207" lon="9.8944317"><ele>404.6666666666667</ele><time>2026-04-19T06:08:17.054Z</time></trkpt><trkpt lat="44.7421183" lon="9.8944933"><ele>402.0</ele><time>2026-04-19T06:08:18.055Z</time></trkpt><trkpt lat="44.742185" lon="9.8946417"><ele>402.0</ele><time>2026-04-19T06:08:20.054Z</time></trkpt><trkpt lat="44.742245" lon="9.8947933"><ele>402.0</ele><time>2026-04-19T06:08:22.054Z</time></trkpt><trkpt lat="44.7422983" lon="9.8949417"><ele>402.0</ele><time>2026-04-19T06:08:24.055Z</time></trkpt><trkpt lat="44.7423333" lon="9.8951133"><ele>402.0</ele><time>2026-04-19T06:08:26.053Z</time></trkpt><trkpt lat="44.7423483" lon="9.8952017"><ele>402.0</ele><time>2026-04-19T06:08:27.053Z</time></trkpt><trkpt lat="44.742385" lon="9.8953683"><ele>402.8333333333333</ele><time>2026-04-19T06:08:29.056Z</time></trkpt><trkpt lat="44.7424683" lon="9.8955"><ele>403.66666666666663</ele><time>2026-04-19T06:08:31.055Z</time></trkpt><trkpt lat="44.74254" lon="9.8955483"><ele>404.5</ele><time>2026-04-19T06:08:32.054Z</time></trkpt><trkpt lat="44.7426067" lon="9.89561"><ele>405.3333333333333</ele><time>2026-04-19T06:08:33.055Z</time></trkpt><trkpt lat="44.7426633" lon="9.895665"><ele>406.16666666666663</ele><time>2026-04-19T06:08:34.056Z</time></trkpt><trkpt lat="44.7427217" lon="9.8957633"><ele>407.0</ele><time>2026-04-19T06:08:36.054Z</time></trkpt><trkpt lat="44.74274" lon="9.8958983"><ele>406.8</ele><time>2026-04-19T06:08:38.054Z</time></trkpt><trkpt lat="44.7427" lon="9.8960783"><ele>406.6</ele><time>2026-04-19T06:08:40.055Z</time></trkpt><trkpt lat="44.74267" lon="9.8961867"><ele>406.40000000000003</ele><time>2026-04-19T06:08:41.055Z</time></trkpt><trkpt lat="44.74264" lon="9.896285"><ele>406.20000000000005</ele><time>2026-04-19T06:08:42.057Z</time></trkpt><trkpt lat="44.7426033" lon="9.8964417"><ele>406.0</ele><time>2026-04-19T06:08:44.055Z</time></trkpt><trkpt lat="44.7426083" lon="9.8965483"><ele>406.00000000000006</ele><time>2026-04-19T06:08:46.056Z</time></trkpt><trkpt lat="44.742675" lon="9.8965083"><ele>406.0</ele><time>2026-04-19T06:08:47.055Z</time></trkpt><trkpt lat="44.74274" lon="9.8964533"><ele>406.0</ele><time>2026-04-19T06:08:48.055Z</time></trkpt><trkpt lat="44.7428183" lon="9.8964"><ele>406.0</ele><time>2026-04-19T06:08:49.054Z</time></trkpt><trkpt lat="44.7428883" lon="9.8963533"><ele>406.00000000000006</ele><time>2026-04-19T06:08:50.055Z</time></trkpt><trkpt lat="44.74295" lon="9.8963167"><ele>406.0</ele><time>2026-04-19T06:08:51.055Z</time></trkpt><trkpt lat="44.7430133" lon="9.89623"><ele>402.42857142857144</ele><time>2026-04-19T06:08:52.055Z</time></trkpt><trkpt lat="44.7430617" lon="9.8961583"><ele>398.8571428571429</ele><time>2026-04-19T06:08:53.055Z</time></trkpt><trkpt lat="44.7431017" lon="9.896075"><ele>395.2857142857143</ele><time>2026-04-19T06:08:54.055Z</time></trkpt><trkpt lat="44.7431367" lon="9.895985"><ele>391.7142857142857</ele><time>2026-04-19T06:08:55.055Z</time></trkpt><trkpt lat="44.7431667" lon="9.89589"><ele>388.14285714285717</ele><time>2026-04-19T06:08:56.053Z</time></trkpt><trkpt lat="44.7431983" lon="9.895795"><ele>384.57142857142856</ele><time>2026-04-19T06:08:57.055Z</time></trkpt><trkpt lat="44.7432283" lon="9.8957083"><ele>381.0</ele><time>2026-04-19T06:08:58.055Z</time></trkpt><trkpt lat="44.7432517" lon="9.8956167"><ele>380.0</ele><time>2026-04-19T06:08:59.055Z</time></trkpt><trkpt lat="44.7432767" lon="9.8955317"><ele>379.0</ele><time>2026-04-19T06:09:00.054Z</time></trkpt><trkpt lat="44.7433183" lon="9.8953717"><ele>378.0</ele><time>2026-04-19T06:09:02.055Z</time></trkpt><trkpt lat="44.743355" lon="9.8952267"><ele>377.0</ele><time>2026-04-19T06:09:04.056Z</time></trkpt><trkpt lat="44.743385" lon="9.8951183"><ele>376.0</ele><time>2026-04-19T06:09:06.054Z</time></trkpt><trkpt lat="44.7434167" lon="9.895015"><ele>373.4</ele><time>2026-04-19T06:09:08.054Z</time></trkpt><trkpt lat="44.7434983" lon="9.89488"><ele>370.8</ele><time>2026-04-19T06:09:10.056Z</time></trkpt><trkpt lat="44.7435617" lon="9.8948033"><ele>368.2</ele><time>2026-04-19T06:09:11.054Z</time></trkpt><trkpt lat="44.7436417" lon="9.89473"><ele>365.59999999999997</ele><time>2026-04-19T06:09:12.055Z</time></trkpt><trkpt lat="44.7437333" lon="9.8946533"><ele>363.0</ele><time>2026-04-19T06:09:13.054Z</time></trkpt><trkpt lat="44.743825" lon="9.894575"><ele>362.3333333333333</ele><time>2026-04-19T06:09:14.054Z</time></trkpt><trkpt lat="44.74391" lon="9.894505"><ele>361.6666666666667</ele><time>2026-04-19T06:09:15.054Z</time></trkpt><trkpt lat="44.7439933" lon="9.8944417"><ele>361.0</ele><time>2026-04-19T06:09:16.054Z</time></trkpt><trkpt lat="44.7440683" lon="9.8943867"><ele>360.33333333333337</ele><time>2026-04-19T06:09:17.056Z</time></trkpt><trkpt lat="44.744145" lon="9.8943533"><ele>359.6666666666667</ele><time>2026-04-19T06:09:18.055Z</time></trkpt><trkpt lat="44.7442233" lon="9.8943517"><ele>359.0</ele><time>2026-04-19T06:09:19.054Z</time></trkpt><trkpt lat="44.7443017" lon="9.89442"><ele>359.5</ele><time>2026-04-19T06:09:20.054Z</time></trkpt><trkpt lat="44.7443817" lon="9.894525"><ele>360.0</ele><time>2026-04-19T06:09:21.054Z</time></trkpt><trkpt lat="44.7444617" lon="9.894655"><ele>360.5</ele><time>2026-04-19T06:09:22.055Z</time></trkpt><trkpt lat="44.744535" lon="9.8947933"><ele>361.0</ele><time>2026-04-19T06:09:23.054Z</time></trkpt><trkpt lat="44.7446117" lon="9.8949217"><ele>361.0</ele><time>2026-04-19T06:09:24.055Z</time></trkpt><trkpt lat="44.7446983" lon="9.8950233"><ele>361.0</ele><time>2026-04-19T06:09:25.056Z</time></trkpt><trkpt lat="44.7447967" lon="9.8950917"><ele>361.0</ele><time>2026-04-19T06:09:26.056Z</time></trkpt><trkpt lat="44.744905" lon="9.8951383"><ele>361.0</ele><time>2026-04-19T06:09:27.055Z</time></trkpt><trkpt lat="44.7450217" lon="9.8951517"><ele>359.6</ele><time>2026-04-19T06:09:28.054Z</time></trkpt><trkpt lat="44.7451333" lon="9.8951417"><ele>358.20000000000005</ele><time>2026-04-19T06:09:29.055Z</time></trkpt><trkpt lat="44.74524" lon="9.8951017"><ele>356.79999999999995</ele><time>2026-04-19T06:09:30.054Z</time></trkpt><trkpt lat="44.7453283" lon="9.89503"><ele>355.4</ele><time>2026-04-19T06:09:31.055Z</time></trkpt><trkpt lat="44.745395" lon="9.894935"><ele>354.0</ele><time>2026-04-19T06:09:32.057Z</time></trkpt><trkpt lat="44.7454433" lon="9.8948167"><ele>353.6</ele><time>2026-04-19T06:09:33.054Z</time></trkpt><trkpt lat="44.745465" lon="9.8946883"><ele>353.2</ele><time>2026-04-19T06:09:34.055Z</time></trkpt><trkpt lat="44.74545" lon="9.89454"><ele>352.8</ele><time>2026-04-19T06:09:35.056Z</time></trkpt><trkpt lat="44.7454267" lon="9.89439"><ele>352.40000000000003</ele><time>2026-04-19T06:09:36.054Z</time></trkpt><trkpt lat="44.74541" lon="9.8942567"><ele>352.0</ele><time>2026-04-19T06:09:37.056Z</time></trkpt><trkpt lat="44.7454067" lon="9.894145"><ele>353.8</ele><time>2026-04-19T06:09:38.057Z</time></trkpt><trkpt lat="44.7454183" lon="9.89405"><ele>355.6</ele><time>2026-04-19T06:09:39.055Z</time></trkpt><trkpt lat="44.7455133" lon="9.8939133"><ele>357.40000000000003</ele><time>2026-04-19T06:09:41.054Z</time></trkpt><trkpt lat="44.7456267" lon="9.8938783"><ele>359.20000000000005</ele><time>2026-04-19T06:09:42.057Z</time></trkpt><trkpt lat="44.7457483" lon="9.89384"><ele>361.0</ele><time>2026-04-19T06:09:43.056Z</time></trkpt><trkpt lat="44.745865" lon="9.8938"><ele>361.0</ele><time>2026-04-19T06:09:44.055Z</time></trkpt><trkpt lat="44.7459817" lon="9.8937533"><ele>361.0</ele><time>2026-04-19T06:09:45.057Z</time></trkpt><trkpt lat="44.7460883" lon="9.89368"><ele>361.0</ele><time>2026-04-19T06:09:46.053Z</time></trkpt><trkpt lat="44.7461867" lon="9.893575"><ele>361.0</ele><time>2026-04-19T06:09:47.055Z</time></trkpt><trkpt lat="44.7462683" lon="9.8934533"><ele>359.66666666666663</ele><time>2026-04-19T06:09:48.056Z</time></trkpt><trkpt lat="44.7463417" lon="9.8933483"><ele>358.3333333333333</ele><time>2026-04-19T06:09:49.054Z</time></trkpt><trkpt lat="44.7464083" lon="9.8932667"><ele>357.0</ele><time>2026-04-19T06:09:50.055Z</time></trkpt><trkpt lat="44.7464767" lon="9.893215"><ele>355.6666666666667</ele><time>2026-04-19T06:09:51.054Z</time></trkpt><trkpt lat="44.7465517" lon="9.893215"><ele>354.33333333333337</ele><time>2026-04-19T06:09:52.053Z</time></trkpt><trkpt lat="44.7466267" lon="9.893255"><ele>353.0</ele><time>2026-04-19T06:09:53.056Z</time></trkpt><trkpt lat="44.746695" lon="9.8933383"><ele>352.0</ele><time>2026-04-19T06:09:54.055Z</time></trkpt><trkpt lat="44.7467683" lon="9.8934767"><ele>351.0</ele><time>2026-04-19T06:09:55.053Z</time></trkpt><trkpt lat="44.7468333" lon="9.89363"><ele>350.0</ele><time>2026-04-19T06:09:56.054Z</time></trkpt><trkpt lat="44.7469" lon="9.8937733"><ele>349.0</ele><time>2026-04-19T06:09:57.055Z</time></trkpt><trkpt lat="44.7469533" lon="9.8939083"><ele>349.0</ele><time>2026-04-19T06:09:58.054Z</time></trkpt><trkpt lat="44.7469967" lon="9.8940367"><ele>349.0</ele><time>2026-04-19T06:09:59.053Z</time></trkpt><trkpt lat="44.7470233" lon="9.8941617"><ele>349.0</ele><time>2026-04-19T06:10:00.054Z</time></trkpt><trkpt lat="44.7470183" lon="9.8942833"><ele>349.0</ele><time>2026-04-19T06:10:01.054Z</time></trkpt><trkpt lat="44.746995" lon="9.894395"><ele>349.0</ele><time>2026-04-19T06:10:02.054Z</time></trkpt><trkpt lat="44.7469783" lon="9.8945033"><ele>349.0</ele><time>2026-04-19T06:10:03.054Z</time></trkpt><trkpt lat="44.746985" lon="9.894605"><ele>352.6</ele><time>2026-04-19T06:10:04.054Z</time></trkpt><trkpt lat="44.7470467" lon="9.8946667"><ele>356.2</ele><time>2026-04-19T06:10:05.054Z</time></trkpt><trkpt lat="44.74712" lon="9.8947367"><ele>359.8</ele><time>2026-04-19T06:10:06.055Z</time></trkpt><trkpt lat="44.7472" lon="9.89481"><ele>363.40000000000003</ele><time>2026-04-19T06:10:07.054Z</time></trkpt><trkpt lat="44.7473" lon="9.8949067"><ele>367.0</ele><time>2026-04-19T06:10:08.055Z</time></trkpt><trkpt lat="44.7474033" lon="9.8950233"><ele>372.25</ele><time>2026-04-19T06:10:09.054Z</time></trkpt><trkpt lat="44.7475083" lon="9.8951417"><ele>377.5</ele><time>2026-04-19T06:10:10.053Z</time></trkpt><trkpt lat="44.7476267" lon="9.8952183"><ele>382.75</ele><time>2026-04-19T06:10:11.055Z</time></trkpt><trkpt lat="44.747755" lon="9.8952817"><ele>388.0</ele><time>2026-04-19T06:10:12.056Z</time></trkpt><trkpt lat="44.7478933" lon="9.89531"><ele>390.0</ele><time>2026-04-19T06:10:13.054Z</time></trkpt><trkpt lat="44.7480267" lon="9.8953133"><ele>392.0</ele><time>2026-04-19T06:10:14.054Z</time></trkpt><trkpt lat="44.7481617" lon="9.8953217"><ele>394.0</ele><time>2026-04-19T06:10:15.056Z</time></trkpt><trkpt lat="44.7482933" lon="9.8953033"><ele>396.0</ele><time>2026-04-19T06:10:16.055Z</time></trkpt><trkpt lat="44.7484217" lon="9.89527"><ele>396.0</ele><time>2026-04-19T06:10:17.056Z</time></trkpt><trkpt lat="44.7485417" lon="9.8952383"><ele>396.0</ele><time>2026-04-19T06:10:18.055Z</time></trkpt><trkpt lat="44.7486517" lon="9.8952333"><ele>396.0</ele><time>2026-04-19T06:10:19.055Z</time></trkpt><trkpt lat="44.74875" lon="9.8952483"><ele>396.0</ele><time>2026-04-19T06:10:20.054Z</time></trkpt><trkpt lat="44.7488383" lon="9.89523"><ele>396.0</ele><time>2026-04-19T06:10:21.054Z</time></trkpt><trkpt lat="44.7489117" lon="9.8951833"><ele>393.5</ele><time>2026-04-19T06:10:22.055Z</time></trkpt><trkpt lat="44.74896" lon="9.8950617"><ele>391.0</ele><time>2026-04-19T06:10:23.054Z</time></trkpt><trkpt lat="44.7490067" lon="9.89492"><ele>388.5</ele><time>2026-04-19T06:10:24.054Z</time></trkpt><trkpt lat="44.7490567" lon="9.8947567"><ele>386.0</ele><time>2026-04-19T06:10:25.054Z</time></trkpt><trkpt lat="44.7491133" lon="9.8946067"><ele>386.0</ele><time>2026-04-19T06:10:26.054Z</time></trkpt><trkpt lat="44.7491867" lon="9.8944667"><ele>386.0</ele><time>2026-04-19T06:10:27.055Z</time></trkpt><trkpt lat="44.7492783" lon="9.89435"><ele>386.0</ele><time>2026-04-19T06:10:28.056Z</time></trkpt><trkpt lat="44.749375" lon="9.8942517"><ele>386.0</ele><time>2026-04-19T06:10:29.055Z</time></trkpt><trkpt lat="44.7494833" lon="9.8941533"><ele>389.5</ele><time>2026-04-19T06:10:30.056Z</time></trkpt><trkpt lat="44.74959" lon="9.8940483"><ele>393.0</ele><time>2026-04-19T06:10:31.055Z</time></trkpt><trkpt lat="44.7496933" lon="9.8939383"><ele>396.5</ele><time>2026-04-19T06:10:32.054Z</time></trkpt><trkpt lat="44.7498083" lon="9.8938433"><ele>400.0</ele><time>2026-04-19T06:10:33.057Z</time></trkpt><trkpt lat="44.74993" lon="9.8937633"><ele>400.0</ele><time>2026-04-19T06:10:34.054Z</time></trkpt><trkpt lat="44.7500517" lon="9.893695"><ele>400.0</ele><time>2026-04-19T06:10:35.054Z</time></trkpt><trkpt lat="44.750175" lon="9.8936433"><ele>400.0</ele><time>2026-04-19T06:10:36.055Z</time></trkpt><trkpt lat="44.7502967" lon="9.8936117"><ele>400.0</ele><time>2026-04-19T06:10:37.055Z</time></trkpt><trkpt lat="44.750415" lon="9.89359"><ele>398.4</ele><time>2026-04-19T06:10:38.054Z</time></trkpt><trkpt lat="44.750525" lon="9.89355"><ele>396.8</ele><time>2026-04-19T06:10:39.055Z</time></trkpt><trkpt lat="44.750625" lon="9.8934833"><ele>395.20000000000005</ele><time>2026-04-19T06:10:40.054Z</time></trkpt><trkpt lat="44.7507117" lon="9.8933917"><ele>393.6</ele><time>2026-04-19T06:10:41.055Z</time></trkpt><trkpt lat="44.7507867" lon="9.8932967"><ele>392.0</ele><time>2026-04-19T06:10:42.054Z</time></trkpt><trkpt lat="44.7508617" lon="9.8932267"><ele>392.0</ele><time>2026-04-19T06:10:43.054Z</time></trkpt><trkpt lat="44.75094" lon="9.8931867"><ele>392.0</ele><time>2026-04-19T06:10:44.054Z</time></trkpt><trkpt lat="44.751025" lon="9.893175"><ele>392.0</ele><time>2026-04-19T06:10:45.054Z</time></trkpt><trkpt lat="44.7511133" lon="9.893205"><ele>392.0</ele><time>2026-04-19T06:10:46.055Z</time></trkpt><trkpt lat="44.75121" lon="9.89327"><ele>392.0</ele><time>2026-04-19T06:10:47.055Z</time></trkpt><trkpt lat="44.7513033" lon="9.8933167"><ele>395.40000000000003</ele><time>2026-04-19T06:10:48.054Z</time></trkpt><trkpt lat="44.7513967" lon="9.8933383"><ele>398.8</ele><time>2026-04-19T06:10:49.055Z</time></trkpt><trkpt lat="44.7514917" lon="9.8933367"><ele>402.2</ele><time>2026-04-19T06:10:50.054Z</time></trkpt><trkpt lat="44.7515817" lon="9.89326"><ele>405.6</ele><time>2026-04-19T06:10:51.054Z</time></trkpt><trkpt lat="44.75166" lon="9.8931583"><ele>409.0</ele><time>2026-04-19T06:10:52.053Z</time></trkpt><trkpt lat="44.7517367" lon="9.89306"><ele>409.0</ele><time>2026-04-19T06:10:53.055Z</time></trkpt><trkpt lat="44.7518217" lon="9.892995"><ele>409.0</ele><time>2026-04-19T06:10:54.054Z</time></trkpt><trkpt lat="44.7519233" lon="9.8929583"><ele>409.0</ele><time>2026-04-19T06:10:55.055Z</time></trkpt><trkpt lat="44.7520283" lon="9.8929067"><ele>409.0</ele><time>2026-04-19T06:10:56.056Z</time></trkpt><trkpt lat="44.752135" lon="9.8928233"><ele>409.0</ele><time>2026-04-19T06:10:57.056Z</time></trkpt><trkpt lat="44.7522383" lon="9.8927033"><ele>408.75</ele><time>2026-04-19T06:10:58.054Z</time></trkpt><trkpt lat="44.7523283" lon="9.8925717"><ele>408.5</ele><time>2026-04-19T06:10:59.054Z</time></trkpt><trkpt lat="44.7524083" lon="9.892455"><ele>408.25</ele><time>2026-04-19T06:11:00.056Z</time></trkpt><trkpt lat="44.7524933" lon="9.8923683"><ele>408.0</ele><time>2026-04-19T06:11:01.054Z</time></trkpt><trkpt lat="44.75259" lon="9.8923167"><ele>408.0</ele><time>2026-04-19T06:11:02.054Z</time></trkpt><trkpt lat="44.7526967" lon="9.8923133"><ele>408.0</ele><time>2026-04-19T06:11:03.054Z</time></trkpt><trkpt lat="44.7528117" lon="9.8923383"><ele>408.0</ele><time>2026-04-19T06:11:04.054Z</time></trkpt><trkpt lat="44.7529367" lon="9.8923783"><ele>408.0</ele><time>2026-04-19T06:11:05.054Z</time></trkpt><trkpt lat="44.7530667" lon="9.8924233"><ele>408.75</ele><time>2026-04-19T06:11:06.053Z</time></trkpt><trkpt lat="44.7531867" lon="9.8924733"><ele>409.5</ele><time>2026-04-19T06:11:07.054Z</time></trkpt><trkpt lat="44.7532967" lon="9.892545"><ele>410.25</ele><time>2026-04-19T06:11:08.056Z</time></trkpt><trkpt lat="44.753395" lon="9.892635"><ele>411.0</ele><time>2026-04-19T06:11:09.057Z</time></trkpt><trkpt lat="44.7534717" lon="9.8927283"><ele>413.3333333333333</ele><time>2026-04-19T06:11:10.054Z</time></trkpt><trkpt lat="44.75353" lon="9.8928067"><ele>415.66666666666663</ele><time>2026-04-19T06:11:11.054Z</time></trkpt><trkpt lat="44.753595" lon="9.8929067"><ele>418.0</ele><time>2026-04-19T06:11:13.055Z</time></trkpt><trkpt lat="44.7535133" lon="9.8929"><ele>420.3333333333333</ele><time>2026-04-19T06:11:17.054Z</time></trkpt><trkpt lat="44.7534467" lon="9.8928333"><ele>422.66666666666663</ele><time>2026-04-19T06:11:18.056Z</time></trkpt><trkpt lat="44.7533667" lon="9.8927533"><ele>425.0</ele><time>2026-04-19T06:11:19.055Z</time></trkpt><trkpt lat="44.753275" lon="9.8926867"><ele>427.2</ele><time>2026-04-19T06:11:20.055Z</time></trkpt><trkpt lat="44.753175" lon="9.8926317"><ele>429.4</ele><time>2026-04-19T06:11:21.055Z</time></trkpt><trkpt lat="44.7530717" lon="9.8925917"><ele>431.6</ele><time>2026-04-19T06:11:22.054Z</time></trkpt><trkpt lat="44.752975" lon="9.8925683"><ele>433.8</ele><time>2026-04-19T06:11:23.056Z</time></trkpt><trkpt lat="44.75289" lon="9.8925517"><ele>436.0</ele><time>2026-04-19T06:11:24.056Z</time></trkpt><trkpt lat="44.7528117" lon="9.8925433"><ele>435.6666666666667</ele><time>2026-04-19T06:11:25.056Z</time></trkpt><trkpt lat="44.7527433" lon="9.8925417"><ele>435.33333333333337</ele><time>2026-04-19T06:11:26.055Z</time></trkpt><trkpt lat="44.7526783" lon="9.8925683"><ele>435.0</ele><time>2026-04-19T06:11:27.055Z</time></trkpt><trkpt lat="44.7526167" lon="9.892625"><ele>434.66666666666663</ele><time>2026-04-19T06:11:28.055Z</time></trkpt><trkpt lat="44.7525617" lon="9.892715"><ele>434.3333333333333</ele><time>2026-04-19T06:11:29.055Z</time></trkpt><trkpt lat="44.75251" lon="9.89283"><ele>434.0</ele><time>2026-04-19T06:11:30.056Z</time></trkpt><trkpt lat="44.7524517" lon="9.89295"><ele>434.0</ele><time>2026-04-19T06:11:31.053Z</time></trkpt><trkpt lat="44.7524" lon="9.89307"><ele>434.0</ele><time>2026-04-19T06:11:32.054Z</time></trkpt><trkpt lat="44.7523583" lon="9.8932083"><ele>434.0</ele><time>2026-04-19T06:11:33.054Z</time></trkpt><trkpt lat="44.7523233" lon="9.8933417"><ele>434.0</ele><time>2026-04-19T06:11:34.055Z</time></trkpt><trkpt lat="44.752285" lon="9.8934583"><ele>434.0</ele><time>2026-04-19T06:11:35.056Z</time></trkpt><trkpt lat="44.7522417" lon="9.8935617"><ele>434.8333333333333</ele><time>2026-04-19T06:11:36.055Z</time></trkpt><trkpt lat="44.75219" lon="9.893655"><ele>435.66666666666663</ele><time>2026-04-19T06:11:37.054Z</time></trkpt><trkpt lat="44.75214" lon="9.8937233"><ele>436.5</ele><time>2026-04-19T06:11:38.054Z</time></trkpt><trkpt lat="44.7520217" lon="9.8937817"><ele>437.33333333333337</ele><time>2026-04-19T06:11:40.054Z</time></trkpt><trkpt lat="44.75195" lon="9.8937817"><ele>438.1666666666667</ele><time>2026-04-19T06:11:41.055Z</time></trkpt><trkpt lat="44.7518733" lon="9.8937967"><ele>439.0</ele><time>2026-04-19T06:11:42.055Z</time></trkpt><trkpt lat="44.75179" lon="9.893805"><ele>439.00000000000006</ele><time>2026-04-19T06:11:43.055Z</time></trkpt><trkpt lat="44.7517083" lon="9.8938367"><ele>439.0</ele><time>2026-04-19T06:11:44.054Z</time></trkpt><trkpt lat="44.751625" lon="9.8938817"><ele>439.0</ele><time>2026-04-19T06:11:45.054Z</time></trkpt><trkpt lat="44.7515433" lon="9.893925"><ele>439.0</ele><time>2026-04-19T06:11:46.054Z</time></trkpt><trkpt lat="44.7514667" lon="9.89396"><ele>439.00000000000006</ele><time>2026-04-19T06:11:47.054Z</time></trkpt><trkpt lat="44.7513833" lon="9.8939667"><ele>439.0</ele><time>2026-04-19T06:11:48.056Z</time></trkpt><trkpt lat="44.7512917" lon="9.8939383"><ele>439.00000000000006</ele><time>2026-04-19T06:11:49.055Z</time></trkpt><trkpt lat="44.7512067" lon="9.893895"><ele>439.0</ele><time>2026-04-19T06:11:50.054Z</time></trkpt><trkpt lat="44.75113" lon="9.89387"><ele>439.0</ele><time>2026-04-19T06:11:51.054Z</time></trkpt><trkpt lat="44.751065" lon="9.8938567"><ele>439.0</ele><time>2026-04-19T06:11:52.054Z</time></trkpt><trkpt lat="44.7509433" lon="9.8939217"><ele>439.00000000000006</ele><time>2026-04-19T06:11:54.054Z</time></trkpt><trkpt lat="44.750895" lon="9.8940183"><ele>439.0</ele><time>2026-04-19T06:11:55.054Z</time></trkpt><trkpt lat="44.7508417" lon="9.8941"><ele>437.00000000000006</ele><time>2026-04-19T06:11:56.055Z</time></trkpt><trkpt lat="44.750775" lon="9.8941517"><ele>435.0</ele><time>2026-04-19T06:11:57.055Z</time></trkpt><trkpt lat="44.7507" lon="9.89419"><ele>433.0</ele><time>2026-04-19T06:11:58.055Z</time></trkpt><trkpt lat="44.7506167" lon="9.8942217"><ele>431.0</ele><time>2026-04-19T06:11:59.057Z</time></trkpt><trkpt lat="44.7505367" lon="9.89427"><ele>429.00000000000006</ele><time>2026-04-19T06:12:00.055Z</time></trkpt><trkpt lat="44.7504533" lon="9.8943317"><ele>427.0</ele><time>2026-04-19T06:12:01.055Z</time></trkpt><trkpt lat="44.7503817" lon="9.8944217"><ele>426.6</ele><time>2026-04-19T06:12:02.054Z</time></trkpt><trkpt lat="44.7502983" lon="9.8945133"><ele>426.20000000000005</ele><time>2026-04-19T06:12:03.055Z</time></trkpt><trkpt lat="44.75022" lon="9.894605"><ele>425.8</ele><time>2026-04-19T06:12:04.054Z</time></trkpt><trkpt lat="44.7501483" lon="9.8947083"><ele>425.4</ele><time>2026-04-19T06:12:05.056Z</time></trkpt><trkpt lat="44.7500783" lon="9.8948117"><ele>425.0</ele><time>2026-04-19T06:12:06.055Z</time></trkpt><trkpt lat="44.750005" lon="9.8949167"><ele>425.0</ele><time>2026-04-19T06:12:07.055Z</time></trkpt><trkpt lat="44.7499383" lon="9.89503"><ele>425.0</ele><time>2026-04-19T06:12:08.055Z</time></trkpt><trkpt lat="44.74988" lon="9.8951483"><ele>425.0</ele><time>2026-04-19T06:12:09.055Z</time></trkpt><trkpt lat="44.7498317" lon="9.8952667"><ele>425.0</ele><time>2026-04-19T06:12:10.054Z</time></trkpt><trkpt lat="44.749795" lon="9.895395"><ele>425.0</ele><time>2026-04-19T06:12:11.054Z</time></trkpt><trkpt lat="44.749755" lon="9.8955417"><ele>428.25</ele><time>2026-04-19T06:12:12.054Z</time></trkpt><trkpt lat="44.74973" lon="9.8957283"><ele>431.5</ele><time>2026-04-19T06:12:13.055Z</time></trkpt><trkpt lat="44.7497083" lon="9.8959383"><ele>434.75</ele><time>2026-04-19T06:12:14.056Z</time></trkpt><trkpt lat="44.7496867" lon="9.89614"><ele>438.0</ele><time>2026-04-19T06:12:15.054Z</time></trkpt><trkpt lat="44.749675" lon="9.8963067"><ele>438.6666666666667</ele><time>2026-04-19T06:12:16.054Z</time></trkpt><trkpt lat="44.7496683" lon="9.8964433"><ele>439.33333333333337</ele><time>2026-04-19T06:12:17.055Z</time></trkpt><trkpt lat="44.7496617" lon="9.8965633"><ele>440.0</ele><time>2026-04-19T06:12:18.055Z</time></trkpt><trkpt lat="44.7496367" lon="9.8966783"><ele>440.6666666666667</ele><time>2026-04-19T06:12:19.054Z</time></trkpt><trkpt lat="44.749605" lon="9.8967817"><ele>441.33333333333337</ele><time>2026-04-19T06:12:20.054Z</time></trkpt><trkpt lat="44.7495667" lon="9.8968767"><ele>442.0</ele><time>2026-04-19T06:12:21.055Z</time></trkpt><trkpt lat="44.74952" lon="9.896955"><ele>443.00000000000006</ele><time>2026-04-19T06:12:22.054Z</time></trkpt><trkpt lat="44.7494683" lon="9.8970117"><ele>444.0</ele><time>2026-04-19T06:12:23.054Z</time></trkpt><trkpt lat="44.7494033" lon="9.897055"><ele>445.0</ele><time>2026-04-19T06:12:24.054Z</time></trkpt><trkpt lat="44.7493433" lon="9.8970933"><ele>446.0</ele><time>2026-04-19T06:12:25.054Z</time></trkpt><trkpt lat="44.74924" lon="9.89708"><ele>447.00000000000006</ele><time>2026-04-19T06:12:26.055Z</time></trkpt><trkpt lat="44.7491233" lon="9.8970433"><ele>448.0</ele><time>2026-04-19T06:12:27.056Z</time></trkpt><trkpt lat="44.74899" lon="9.8969733"><ele>448.75</ele><time>2026-04-19T06:12:28.053Z</time></trkpt><trkpt lat="44.7488717" lon="9.8969017"><ele>449.5</ele><time>2026-04-19T06:12:29.055Z</time></trkpt><trkpt lat="44.7487517" lon="9.8968"><ele>450.25</ele><time>2026-04-19T06:12:30.055Z</time></trkpt><trkpt lat="44.7486233" lon="9.8966783"><ele>451.0</ele><time>2026-04-19T06:12:31.054Z</time></trkpt><trkpt lat="44.748505" lon="9.896545"><ele>446.0</ele><time>2026-04-19T06:12:32.055Z</time></trkpt><trkpt lat="44.74842" lon="9.8964433"><ele>441.0</ele><time>2026-04-19T06:12:33.055Z</time></trkpt><trkpt lat="44.7483383" lon="9.8963517"><ele>436.0</ele><time>2026-04-19T06:12:34.054Z</time></trkpt><trkpt lat="44.7482533" lon="9.8962767"><ele>431.0</ele><time>2026-04-19T06:12:35.055Z</time></trkpt><trkpt lat="44.7481767" lon="9.8962383"><ele>426.0</ele><time>2026-04-19T06:12:36.054Z</time></trkpt><trkpt lat="44.7481017" lon="9.8962217"><ele>426.0</ele><time>2026-04-19T06:12:37.053Z</time></trkpt><trkpt lat="44.7480067" lon="9.8963317"><ele>426.0</ele><time>2026-04-19T06:12:39.056Z</time></trkpt><trkpt lat="44.748015" lon="9.8966"><ele>426.0</ele><time>2026-04-19T06:12:41.054Z</time></trkpt><trkpt lat="44.74803" lon="9.8967683"><ele>426.0</ele><time>2026-04-19T06:12:42.055Z</time></trkpt><trkpt lat="44.7480333" lon="9.896915"><ele>430.5</ele><time>2026-04-19T06:12:43.056Z</time></trkpt><trkpt lat="44.7480267" lon="9.89708"><ele>435.0</ele><time>2026-04-19T06:12:44.056Z</time></trkpt><trkpt lat="44.7480217" lon="9.8972433"><ele>439.5</ele><time>2026-04-19T06:12:45.054Z</time></trkpt><trkpt lat="44.7480233" lon="9.8973967"><ele>444.0</ele><time>2026-04-19T06:12:46.053Z</time></trkpt><trkpt lat="44.7480383" lon="9.8975483"><ele>444.6</ele><time>2026-04-19T06:12:47.055Z</time></trkpt><trkpt lat="44.7480567" lon="9.897695"><ele>445.2</ele><time>2026-04-19T06:12:48.055Z</time></trkpt><trkpt lat="44.7480667" lon="9.897835"><ele>445.80000000000007</ele><time>2026-04-19T06:12:49.055Z</time></trkpt><trkpt lat="44.7480717" lon="9.8979733"><ele>446.40000000000003</ele><time>2026-04-19T06:12:50.056Z</time></trkpt><trkpt lat="44.7480617" lon="9.898115"><ele>447.0</ele><time>2026-04-19T06:12:51.057Z</time></trkpt><trkpt lat="44.7480433" lon="9.8982617"><ele>446.25</ele><time>2026-04-19T06:12:52.056Z</time></trkpt><trkpt lat="44.748005" lon="9.8984233"><ele>445.5</ele><time>2026-04-19T06:12:53.055Z</time></trkpt><trkpt lat="44.7479667" lon="9.8985767"><ele>444.75</ele><time>2026-04-19T06:12:54.055Z</time></trkpt><trkpt lat="44.74793" lon="9.89872"><ele>444.0</ele><time>2026-04-19T06:12:55.053Z</time></trkpt><trkpt lat="44.7478917" lon="9.8988633"><ele>444.0</ele><time>2026-04-19T06:12:56.054Z</time></trkpt><trkpt lat="44.7478467" lon="9.8989917"><ele>444.0</ele><time>2026-04-19T06:12:57.054Z</time></trkpt><trkpt lat="44.7478117" lon="9.8990933"><ele>444.0</ele><time>2026-04-19T06:12:58.053Z</time></trkpt><trkpt lat="44.74777" lon="9.899205"><ele>444.0</ele><time>2026-04-19T06:13:00.055Z</time></trkpt><trkpt lat="44.747705" lon="9.8992033"><ele>444.0</ele><time>2026-04-19T06:13:02.055Z</time></trkpt><trkpt lat="44.7476483" lon="9.8990983"><ele>444.0</ele><time>2026-04-19T06:13:04.054Z</time></trkpt><trkpt lat="44.7475867" lon="9.8989983"><ele>443.6666666666667</ele><time>2026-04-19T06:13:06.055Z</time></trkpt><trkpt lat="44.7475167" lon="9.8989533"><ele>443.33333333333337</ele><time>2026-04-19T06:13:08.054Z</time></trkpt><trkpt lat="44.7474267" lon="9.8989233"><ele>443.0</ele><time>2026-04-19T06:13:10.053Z</time></trkpt><trkpt lat="44.74735" lon="9.898885"><ele>442.6666666666667</ele><time>2026-04-19T06:13:12.053Z</time></trkpt><trkpt lat="44.7472433" lon="9.8988233"><ele>442.33333333333337</ele><time>2026-04-19T06:13:14.053Z</time></trkpt><trkpt lat="44.7471883" lon="9.8987683"><ele>442.0</ele><time>2026-04-19T06:13:15.054Z</time></trkpt><trkpt lat="44.7471367" lon="9.898685"><ele>442.0</ele><time>2026-04-19T06:13:16.055Z</time></trkpt><trkpt lat="44.74708" lon="9.8985917"><ele>442.00000000000006</ele><time>2026-04-19T06:13:17.055Z</time></trkpt><trkpt lat="44.7470267" lon="9.8984733"><ele>442.00000000000006</ele><time>2026-04-19T06:13:18.055Z</time></trkpt><trkpt lat="44.7469767" lon="9.8983633"><ele>442.0</ele><time>2026-04-19T06:13:19.055Z</time></trkpt><trkpt lat="44.7469267" lon="9.8982617"><ele>442.0</ele><time>2026-04-19T06:13:20.054Z</time></trkpt><trkpt lat="44.7468867" lon="9.898155"><ele>440.6</ele><time>2026-04-19T06:13:21.056Z</time></trkpt><trkpt lat="44.746855" lon="9.898065"><ele>439.20000000000005</ele><time>2026-04-19T06:13:22.054Z</time></trkpt><trkpt lat="44.7468183" lon="9.8979867"><ele>437.8</ele><time>2026-04-19T06:13:23.053Z</time></trkpt><trkpt lat="44.746725" lon="9.8979533"><ele>436.4</ele><time>2026-04-19T06:13:25.054Z</time></trkpt><trkpt lat="44.7466067" lon="9.89795"><ele>435.0</ele><time>2026-04-19T06:13:27.057Z</time></trkpt><trkpt lat="44.746515" lon="9.8979983"><ele>435.0</ele><time>2026-04-19T06:13:28.054Z</time></trkpt><trkpt lat="44.74644" lon="9.8980533"><ele>435.0</ele><time>2026-04-19T06:13:29.054Z</time></trkpt><trkpt lat="44.746365" lon="9.8981217"><ele>435.0</ele><time>2026-04-19T06:13:30.055Z</time></trkpt><trkpt lat="44.74629" lon="9.8982033"><ele>435.0</ele><time>2026-04-19T06:13:31.056Z</time></trkpt><trkpt lat="44.7462267" lon="9.898275"><ele>435.0</ele><time>2026-04-19T06:13:32.054Z</time></trkpt><trkpt lat="44.7461683" lon="9.89833"><ele>435.0</ele><time>2026-04-19T06:13:33.053Z</time></trkpt><trkpt lat="44.7461117" lon="9.89838"><ele>435.0</ele><time>2026-04-19T06:13:34.054Z</time></trkpt><trkpt lat="44.7459967" lon="9.8984417"><ele>435.0</ele><time>2026-04-19T06:13:36.054Z</time></trkpt><trkpt lat="44.7459383" lon="9.8984783"><ele>435.0</ele><time>2026-04-19T06:13:37.053Z</time></trkpt><trkpt lat="44.7458667" lon="9.8985233"><ele>435.0</ele><time>2026-04-19T06:13:38.054Z</time></trkpt><trkpt lat="44.7458" lon="9.8985933"><ele>435.0</ele><time>2026-04-19T06:13:39.054Z</time></trkpt><trkpt lat="44.74574" lon="9.898655"><ele>435.0</ele><time>2026-04-19T06:13:40.054Z</time></trkpt><trkpt lat="44.7456983" lon="9.898735"><ele>435.0</ele><time>2026-04-19T06:13:41.054Z</time></trkpt><trkpt lat="44.7456417" lon="9.8988567"><ele>435.0</ele><time>2026-04-19T06:13:43.054Z</time></trkpt><trkpt lat="44.74564" lon="9.898995"><ele>435.0</ele><time>2026-04-19T06:13:45.053Z</time></trkpt><trkpt lat="44.745685" lon="9.8991767"><ele>435.0</ele><time>2026-04-19T06:13:47.054Z</time></trkpt><trkpt lat="44.7457167" lon="9.899285"><ele>435.0</ele><time>2026-04-19T06:13:48.055Z</time></trkpt><trkpt lat="44.7457617" lon="9.8994183"><ele>435.2</ele><time>2026-04-19T06:13:49.055Z</time></trkpt><trkpt lat="44.7458083" lon="9.89955"><ele>435.4</ele><time>2026-04-19T06:13:50.056Z</time></trkpt><trkpt lat="44.7458467" lon="9.8996733"><ele>435.6</ele><time>2026-04-19T06:13:51.054Z</time></trkpt><trkpt lat="44.745885" lon="9.899795"><ele>435.8</ele><time>2026-04-19T06:13:52.056Z</time></trkpt><trkpt lat="44.7459083" lon="9.8999183"><ele>436.0</ele><time>2026-04-19T06:13:53.055Z</time></trkpt><trkpt lat="44.7459183" lon="9.9000267"><ele>438.50000000000006</ele><time>2026-04-19T06:13:54.055Z</time></trkpt><trkpt lat="44.7459233" lon="9.9001217"><ele>441.0</ele><time>2026-04-19T06:13:55.056Z</time></trkpt><trkpt lat="44.7459333" lon="9.9002567"><ele>443.5</ele><time>2026-04-19T06:13:57.055Z</time></trkpt><trkpt lat="44.7459033" lon="9.9003433"><ele>446.0</ele><time>2026-04-19T06:14:00.056Z</time></trkpt><trkpt lat="44.745845" lon="9.9004367"><ele>448.50000000000006</ele><time>2026-04-19T06:14:03.056Z</time></trkpt><trkpt lat="44.745785" lon="9.90052"><ele>451.0</ele><time>2026-04-19T06:14:07.055Z</time></trkpt><trkpt lat="44.7457033" lon="9.9005933"><ele>451.0</ele><time>2026-04-19T06:14:10.053Z</time></trkpt><trkpt lat="44.7456183" lon="9.9006267"><ele>451.0</ele><time>2026-04-19T06:14:12.055Z</time></trkpt><trkpt lat="44.7454933" lon="9.900605"><ele>451.0</ele><time>2026-04-19T06:14:14.054Z</time></trkpt><trkpt lat="44.7454217" lon="9.9005767"><ele>451.0</ele><time>2026-04-19T06:14:15.055Z</time></trkpt><trkpt lat="44.745335" lon="9.900535"><ele>451.0</ele><time>2026-04-19T06:14:16.054Z</time></trkpt><trkpt lat="44.7452467" lon="9.900495"><ele>450.6666666666667</ele><time>2026-04-19T06:14:17.053Z</time></trkpt><trkpt lat="44.745165" lon="9.900455"><ele>450.33333333333337</ele><time>2026-04-19T06:14:18.056Z</time></trkpt><trkpt lat="44.74508" lon="9.90043"><ele>450.0</ele><time>2026-04-19T06:14:19.053Z</time></trkpt><trkpt lat="44.7449983" lon="9.9004117"><ele>449.66666666666663</ele><time>2026-04-19T06:14:20.054Z</time></trkpt><trkpt lat="44.7449167" lon="9.9004233"><ele>449.3333333333333</ele><time>2026-04-19T06:14:21.054Z</time></trkpt><trkpt lat="44.7448517" lon="9.9004333"><ele>449.0</ele><time>2026-04-19T06:14:22.054Z</time></trkpt><trkpt lat="44.74479" lon="9.90046"><ele>449.0</ele><time>2026-04-19T06:14:23.053Z</time></trkpt><trkpt lat="44.74471" lon="9.9005883"><ele>449.0</ele><time>2026-04-19T06:14:25.054Z</time></trkpt><trkpt lat="44.7446633" lon="9.9006783"><ele>449.0</ele><time>2026-04-19T06:14:26.054Z</time></trkpt><trkpt lat="44.7446133" lon="9.9008"><ele>449.0</ele><time>2026-04-19T06:14:27.055Z</time></trkpt><trkpt lat="44.74456" lon="9.9009133"><ele>449.0</ele><time>2026-04-19T06:14:28.054Z</time></trkpt><trkpt lat="44.7445133" lon="9.9010233"><ele>451.79999999999995</ele><time>2026-04-19T06:14:29.055Z</time></trkpt><trkpt lat="44.7444767" lon="9.90112"><ele>454.59999999999997</ele><time>2026-04-19T06:14:30.053Z</time></trkpt><trkpt lat="44.7444533" lon="9.9012117"><ele>457.4</ele><time>2026-04-19T06:14:31.055Z</time></trkpt><trkpt lat="44.74444" lon="9.9013683"><ele>460.2</ele><time>2026-04-19T06:14:33.055Z</time></trkpt><trkpt lat="44.744465" lon="9.901555"><ele>463.0</ele><time>2026-04-19T06:14:35.055Z</time></trkpt><trkpt lat="44.744505" lon="9.9016833"><ele>464.0</ele><time>2026-04-19T06:14:36.055Z</time></trkpt><trkpt lat="44.7445433" lon="9.901795"><ele>464.99999999999994</ele><time>2026-04-19T06:14:37.056Z</time></trkpt><trkpt lat="44.7445933" lon="9.9019117"><ele>465.99999999999994</ele><time>2026-04-19T06:14:38.055Z</time></trkpt><trkpt lat="44.7446383" lon="9.9020417"><ele>467.0</ele><time>2026-04-19T06:14:39.055Z</time></trkpt><trkpt lat="44.7446667" lon="9.9021483"><ele>468.0</ele><time>2026-04-19T06:14:40.055Z</time></trkpt><trkpt lat="44.74469" lon="9.9022583"><ele>468.0</ele><time>2026-04-19T06:14:41.055Z</time></trkpt><trkpt lat="44.7447033" lon="9.9023783"><ele>468.0</ele><time>2026-04-19T06:14:42.054Z</time></trkpt><trkpt lat="44.7446867" lon="9.9024917"><ele>468.0</ele><time>2026-04-19T06:14:43.055Z</time></trkpt><trkpt lat="44.7446717" lon="9.9025983"><ele>468.0</ele><time>2026-04-19T06:14:44.055Z</time></trkpt><trkpt lat="44.7446383" lon="9.902695"><ele>468.0</ele><time>2026-04-19T06:14:45.055Z</time></trkpt><trkpt lat="44.7445667" lon="9.9028233"><ele>468.0</ele><time>2026-04-19T06:14:47.056Z</time></trkpt><trkpt lat="44.7445067" lon="9.9028867"><ele>470.1666666666667</ele><time>2026-04-19T06:14:48.057Z</time></trkpt><trkpt lat="44.744445" lon="9.9029633"><ele>472.33333333333337</ele><time>2026-04-19T06:14:49.054Z</time></trkpt><trkpt lat="44.7443933" lon="9.9030383"><ele>474.5</ele><time>2026-04-19T06:14:50.054Z</time></trkpt><trkpt lat="44.7443533" lon="9.903125"><ele>476.6666666666667</ele><time>2026-04-19T06:14:51.054Z</time></trkpt><trkpt lat="44.74432" lon="9.9032233"><ele>478.83333333333337</ele><time>2026-04-19T06:14:52.054Z</time></trkpt><trkpt lat="44.7442967" lon="9.90333"><ele>481.0</ele><time>2026-04-19T06:14:53.055Z</time></trkpt><trkpt lat="44.7442767" lon="9.9034333"><ele>476.1666666666667</ele><time>2026-04-19T06:14:54.053Z</time></trkpt><trkpt lat="44.7442617" lon="9.9035567"><ele>471.33333333333337</ele><time>2026-04-19T06:14:55.055Z</time></trkpt><trkpt lat="44.7442483" lon="9.90368"><ele>466.5</ele><time>2026-04-19T06:14:56.054Z</time></trkpt><trkpt lat="44.7442333" lon="9.9038"><ele>461.66666666666663</ele><time>2026-04-19T06:14:57.054Z</time></trkpt><trkpt lat="44.7442183" lon="9.9039233"><ele>456.8333333333333</ele><time>2026-04-19T06:14:58.054Z</time></trkpt><trkpt lat="44.744205" lon="9.9040417"><ele>452.0</ele><time>2026-04-19T06:14:59.055Z</time></trkpt><trkpt lat="44.7441933" lon="9.90413"><ele>455.0</ele><time>2026-04-19T06:15:00.054Z</time></trkpt><trkpt lat="44.7441783" lon="9.9042783"><ele>458.00000000000006</ele><time>2026-04-19T06:15:02.053Z</time></trkpt><trkpt lat="44.7441283" lon="9.9044233"><ele>461.00000000000006</ele><time>2026-04-19T06:15:04.054Z</time></trkpt><trkpt lat="44.7440533" lon="9.9045767"><ele>464.0</ele><time>2026-04-19T06:15:06.056Z</time></trkpt><trkpt lat="44.74401" lon="9.904665"><ele>467.0</ele><time>2026-04-19T06:15:07.054Z</time></trkpt><trkpt lat="44.743965" lon="9.904755"><ele>466.99999999999994</ele><time>2026-04-19T06:15:08.054Z</time></trkpt><trkpt lat="44.74392" lon="9.9048433"><ele>467.0</ele><time>2026-04-19T06:15:09.053Z</time></trkpt><trkpt lat="44.74387" lon="9.90494"><ele>467.0</ele><time>2026-04-19T06:15:10.053Z</time></trkpt><trkpt lat="44.7438183" lon="9.9050283"><ele>467.0</ele><time>2026-04-19T06:15:11.054Z</time></trkpt><trkpt lat="44.743765" lon="9.9051033"><ele>466.99999999999994</ele><time>2026-04-19T06:15:12.056Z</time></trkpt><trkpt lat="44.7436917" lon="9.9051683"><ele>467.0</ele><time>2026-04-19T06:15:13.053Z</time></trkpt><trkpt lat="44.743615" lon="9.9052033"><ele>464.66666666666663</ele><time>2026-04-19T06:15:14.054Z</time></trkpt><trkpt lat="44.74355" lon="9.9052283"><ele>462.3333333333333</ele><time>2026-04-19T06:15:15.054Z</time></trkpt><trkpt lat="44.7434867" lon="9.905255"><ele>460.0</ele><time>2026-04-19T06:15:16.055Z</time></trkpt><trkpt lat="44.7433783" lon="9.9053133"><ele>457.66666666666663</ele><time>2026-04-19T06:15:18.053Z</time></trkpt><trkpt lat="44.7433317" lon="9.9054533"><ele>455.3333333333333</ele><time>2026-04-19T06:15:20.055Z</time></trkpt><trkpt lat="44.743325" lon="9.9055483"><ele>453.0</ele><time>2026-04-19T06:15:21.053Z</time></trkpt><trkpt lat="44.7433183" lon="9.9056483"><ele>452.99999999999994</ele><time>2026-04-19T06:15:22.054Z</time></trkpt><trkpt lat="44.743305" lon="9.9057433"><ele>453.0</ele><time>2026-04-19T06:15:23.053Z</time></trkpt><trkpt lat="44.7432833" lon="9.9058333"><ele>452.99999999999994</ele><time>2026-04-19T06:15:24.055Z</time></trkpt><trkpt lat="44.743245" lon="9.9059283"><ele>452.99999999999994</ele><time>2026-04-19T06:15:25.056Z</time></trkpt><trkpt lat="44.7432117" lon="9.9060283"><ele>453.0</ele><time>2026-04-19T06:15:26.056Z</time></trkpt><trkpt lat="44.7431833" lon="9.9061167"><ele>452.99999999999994</ele><time>2026-04-19T06:15:27.055Z</time></trkpt><trkpt lat="44.7431717" lon="9.9062067"><ele>452.99999999999994</ele><time>2026-04-19T06:15:28.055Z</time></trkpt><trkpt lat="44.7431533" lon="9.9063033"><ele>454.6666666666667</ele><time>2026-04-19T06:15:29.056Z</time></trkpt><trkpt lat="44.743125" lon="9.9064017"><ele>456.33333333333337</ele><time>2026-04-19T06:15:30.056Z</time></trkpt><trkpt lat="44.743095" lon="9.9064917"><ele>458.0</ele><time>2026-04-19T06:15:31.056Z</time></trkpt><trkpt lat="44.7430667" lon="9.906585"><ele>459.6666666666667</ele><time>2026-04-19T06:15:32.055Z</time></trkpt><trkpt lat="44.7430383" lon="9.9066667"><ele>461.33333333333337</ele><time>2026-04-19T06:15:33.056Z</time></trkpt><trkpt lat="44.7429833" lon="9.9068233"><ele>463.0</ele><time>2026-04-19T06:15:35.057Z</time></trkpt><trkpt lat="44.7429083" lon="9.9069633"><ele>462.4</ele><time>2026-04-19T06:15:37.054Z</time></trkpt><trkpt lat="44.7428217" lon="9.9070067"><ele>461.79999999999995</ele><time>2026-04-19T06:15:38.056Z</time></trkpt><trkpt lat="44.74273" lon="9.907025"><ele>461.2</ele><time>2026-04-19T06:15:39.056Z</time></trkpt><trkpt lat="44.7426417" lon="9.9070617"><ele>460.6</ele><time>2026-04-19T06:15:40.055Z</time></trkpt><trkpt lat="44.7425433" lon="9.9070333"><ele>460.0</ele><time>2026-04-19T06:15:41.056Z</time></trkpt><trkpt lat="44.7424317" lon="9.90705"><ele>460.00000000000006</ele><time>2026-04-19T06:15:43.057Z</time></trkpt><trkpt lat="44.74234" lon="9.9071633"><ele>460.0</ele><time>2026-04-19T06:15:45.057Z</time></trkpt><trkpt lat="44.7423167" lon="9.90729"><ele>460.0</ele><time>2026-04-19T06:15:46.057Z</time></trkpt><trkpt lat="44.7422967" lon="9.9073983"><ele>460.0</ele><time>2026-04-19T06:15:47.056Z</time></trkpt><trkpt lat="44.74229" lon="9.9075067"><ele>460.00000000000006</ele><time>2026-04-19T06:15:48.056Z</time></trkpt><trkpt lat="44.7422767" lon="9.9076117"><ele>460.0</ele><time>2026-04-19T06:15:49.055Z</time></trkpt><trkpt lat="44.74226" lon="9.90772"><ele>463.1666666666667</ele><time>2026-04-19T06:15:50.056Z</time></trkpt><trkpt lat="44.742235" lon="9.9078183"><ele>466.33333333333337</ele><time>2026-04-19T06:15:51.057Z</time></trkpt><trkpt lat="44.742205" lon="9.90792"><ele>469.5</ele><time>2026-04-19T06:15:52.055Z</time></trkpt><trkpt lat="44.74217" lon="9.9080233"><ele>472.66666666666663</ele><time>2026-04-19T06:15:53.056Z</time></trkpt><trkpt lat="44.7421283" lon="9.908135"><ele>475.8333333333333</ele><time>2026-04-19T06:15:54.057Z</time></trkpt><trkpt lat="44.74208" lon="9.908235"><ele>479.0</ele><time>2026-04-19T06:15:55.057Z</time></trkpt><trkpt lat="44.742025" lon="9.9083233"><ele>478.99999999999994</ele><time>2026-04-19T06:15:56.054Z</time></trkpt><trkpt lat="44.741965" lon="9.9084083"><ele>479.0</ele><time>2026-04-19T06:15:57.057Z</time></trkpt><trkpt lat="44.741895" lon="9.9084833"><ele>479.0</ele><time>2026-04-19T06:15:58.056Z</time></trkpt><trkpt lat="44.7418267" lon="9.9085483"><ele>479.0</ele><time>2026-04-19T06:15:59.056Z</time></trkpt><trkpt lat="44.7417733" lon="9.908635"><ele>478.99999999999994</ele><time>2026-04-19T06:16:00.055Z</time></trkpt><trkpt lat="44.7417233" lon="9.908735"><ele>479.0</ele><time>2026-04-19T06:16:01.058Z</time></trkpt><trkpt lat="44.7416933" lon="9.9088383"><ele>478.57142857142856</ele><time>2026-04-19T06:16:02.056Z</time></trkpt><trkpt lat="44.7416567" lon="9.90892"><ele>478.14285714285717</ele><time>2026-04-19T06:16:03.055Z</time></trkpt><trkpt lat="44.7416117" lon="9.9089833"><ele>477.7142857142857</ele><time>2026-04-19T06:16:04.055Z</time></trkpt><trkpt lat="44.741555" lon="9.9090333"><ele>477.2857142857143</ele><time>2026-04-19T06:16:05.057Z</time></trkpt><trkpt lat="44.7414983" lon="9.9090917"><ele>476.8571428571429</ele><time>2026-04-19T06:16:06.056Z</time></trkpt><trkpt lat="44.7414417" lon="9.9091533"><ele>476.42857142857144</ele><time>2026-04-19T06:16:07.057Z</time></trkpt><trkpt lat="44.7413967" lon="9.9092367"><ele>476.0</ele><time>2026-04-19T06:16:08.055Z</time></trkpt><trkpt lat="44.7413533" lon="9.9093317"><ele>475.99999999999994</ele><time>2026-04-19T06:16:09.056Z</time></trkpt><trkpt lat="44.7413083" lon="9.9094283"><ele>476.0</ele><time>2026-04-19T06:16:10.055Z</time></trkpt><trkpt lat="44.7412467" lon="9.9095133"><ele>476.0</ele><time>2026-04-19T06:16:11.057Z</time></trkpt><trkpt lat="44.74118" lon="9.9095867"><ele>476.0</ele><time>2026-04-19T06:16:12.056Z</time></trkpt><trkpt lat="44.7411133" lon="9.9096517"><ele>475.99999999999994</ele><time>2026-04-19T06:16:13.056Z</time></trkpt><trkpt lat="44.7410583" lon="9.909715"><ele>476.0</ele><time>2026-04-19T06:16:14.055Z</time></trkpt><trkpt lat="44.7409883" lon="9.9098467"><ele>474.3333333333333</ele><time>2026-04-19T06:16:16.054Z</time></trkpt><trkpt lat="44.7409717" lon="9.9100133"><ele>472.66666666666663</ele><time>2026-04-19T06:16:18.056Z</time></trkpt><trkpt lat="44.741" lon="9.9101017"><ele>471.0</ele><time>2026-04-19T06:16:19.056Z</time></trkpt><trkpt lat="44.7410433" lon="9.9101933"><ele>469.33333333333337</ele><time>2026-04-19T06:16:20.056Z</time></trkpt><trkpt lat="44.7410917" lon="9.91029"><ele>467.6666666666667</ele><time>2026-04-19T06:16:21.056Z</time></trkpt><trkpt lat="44.741145" lon="9.91038"><ele>466.0</ele><time>2026-04-19T06:16:22.057Z</time></trkpt><trkpt lat="44.7411933" lon="9.9104667"><ele>466.00000000000006</ele><time>2026-04-19T06:16:23.056Z</time></trkpt><trkpt lat="44.74124" lon="9.9105467"><ele>466.0</ele><time>2026-04-19T06:16:24.057Z</time></trkpt><trkpt lat="44.7412867" lon="9.9106083"><ele>466.0</ele><time>2026-04-19T06:16:25.057Z</time></trkpt><trkpt lat="44.7413667" lon="9.9107067"><ele>466.0</ele><time>2026-04-19T06:16:27.054Z</time></trkpt><trkpt lat="44.7414833" lon="9.91072"><ele>466.00000000000006</ele><time>2026-04-19T06:16:29.056Z</time></trkpt><trkpt lat="44.741555" lon="9.9107183"><ele>466.0</ele><time>2026-04-19T06:16:31.055Z</time></trkpt><trkpt lat="44.741535" lon="9.9105633"><ele>466.0</ele><time>2026-04-19T06:16:37.057Z</time></trkpt><trkpt lat="44.741475" lon="9.9104033"><ele>466.0</ele><time>2026-04-19T06:16:39.055Z</time></trkpt><trkpt lat="44.741435" lon="9.9103183"><ele>466.0</ele><time>2026-04-19T06:16:40.057Z</time></trkpt><trkpt lat="44.7413917" lon="9.91024"><ele>466.0</ele><time>2026-04-19T06:16:41.054Z</time></trkpt><trkpt lat="44.741345" lon="9.9101683"><ele>466.0</ele><time>2026-04-19T06:16:42.055Z</time></trkpt><trkpt lat="44.7412767" lon="9.91004"><ele>468.0</ele><time>2026-04-19T06:16:44.055Z</time></trkpt><trkpt lat="44.741285" lon="9.9099283"><ele>470.0</ele><time>2026-04-19T06:16:46.056Z</time></trkpt><trkpt lat="44.7413683" lon="9.9098783"><ele>472.0</ele><time>2026-04-19T06:16:48.056Z</time></trkpt><trkpt lat="44.7414783" lon="9.9098767"><ele>474.0</ele><time>2026-04-19T06:16:50.057Z</time></trkpt><trkpt lat="44.741575" lon="9.9098883"><ele>476.0</ele><time>2026-04-19T06:16:52.054Z</time></trkpt><trkpt lat="44.741685" lon="9.9099"><ele>475.99999999999994</ele><time>2026-04-19T06:16:54.057Z</time></trkpt><trkpt lat="44.7417717" lon="9.909865"><ele>476.0</ele><time>2026-04-19T06:16:56.056Z</time></trkpt><trkpt lat="44.74183" lon="9.9097783"><ele>476.0</ele><time>2026-04-19T06:16:58.055Z</time></trkpt><trkpt lat="44.7418917" lon="9.9097233"><ele>476.0</ele><time>2026-04-19T06:17:00.056Z</time></trkpt><trkpt lat="44.7419567" lon="9.90969"><ele>475.99999999999994</ele><time>2026-04-19T06:17:02.055Z</time></trkpt><trkpt lat="44.7420333" lon="9.909705"><ele>476.0</ele><time>2026-04-19T06:17:04.053Z</time></trkpt><trkpt lat="44.742115" lon="9.9097467"><ele>479.99999999999994</ele><time>2026-04-19T06:17:06.055Z</time></trkpt><trkpt lat="44.74221" lon="9.9097883"><ele>484.0</ele><time>2026-04-19T06:17:08.054Z</time></trkpt><trkpt lat="44.7422767" lon="9.9098533"><ele>488.0</ele><time>2026-04-19T06:17:10.053Z</time></trkpt><trkpt lat="44.742345" lon="9.9099"><ele>492.0</ele><time>2026-04-19T06:17:12.056Z</time></trkpt><trkpt lat="44.7424167" lon="9.90993"><ele>495.99999999999994</ele><time>2026-04-19T06:17:15.055Z</time></trkpt><trkpt lat="44.742455" lon="9.9098417"><ele>500.0</ele><time>2026-04-19T06:17:18.055Z</time></trkpt><trkpt lat="44.74252" lon="9.9097583"><ele>499.99999999999994</ele><time>2026-04-19T06:17:21.055Z</time></trkpt><trkpt lat="44.7426" lon="9.9097683"><ele>500.0</ele><time>2026-04-19T06:17:23.056Z</time></trkpt><trkpt lat="44.7426817" lon="9.9097217"><ele>500.0</ele><time>2026-04-19T06:17:26.055Z</time></trkpt><trkpt lat="44.7427083" lon="9.90961"><ele>500.0</ele><time>2026-04-19T06:17:29.055Z</time></trkpt><trkpt lat="44.7427567" lon="9.9095017"><ele>499.99999999999994</ele><time>2026-04-19T06:17:31.055Z</time></trkpt><trkpt lat="44.742825" lon="9.9094317"><ele>500.0</ele><time>2026-04-19T06:17:33.054Z</time></trkpt><trkpt lat="44.742895" lon="9.909345"><ele>503.16666666666663</ele><time>2026-04-19T06:17:35.055Z</time></trkpt><trkpt lat="44.74297" lon="9.9092533"><ele>506.3333333333333</ele><time>2026-04-19T06:17:37.053Z</time></trkpt><trkpt lat="44.7430117" lon="9.9091617"><ele>509.5</ele><time>2026-04-19T06:17:39.053Z</time></trkpt><trkpt lat="44.74305" lon="9.9090533"><ele>512.6666666666666</ele><time>2026-04-19T06:17:41.056Z</time></trkpt><trkpt lat="44.7430917" lon="9.9089717"><ele>515.8333333333334</ele><time>2026-04-19T06:17:43.055Z</time></trkpt><trkpt lat="44.7431433" lon="9.908875"><ele>519.0</ele><time>2026-04-19T06:17:45.054Z</time></trkpt><trkpt lat="44.7432117" lon="9.9087717"><ele>520.3333333333334</ele><time>2026-04-19T06:17:47.056Z</time></trkpt><trkpt lat="44.74329" lon="9.9086933"><ele>521.6666666666666</ele><time>2026-04-19T06:17:50.057Z</time></trkpt><trkpt lat="44.74335" lon="9.90864"><ele>523.0</ele><time>2026-04-19T06:17:52.055Z</time></trkpt><trkpt lat="44.7434167" lon="9.9086233"><ele>524.3333333333333</ele><time>2026-04-19T06:17:54.054Z</time></trkpt><trkpt lat="44.7434883" lon="9.908615"><ele>525.6666666666666</ele><time>2026-04-19T06:17:56.055Z</time></trkpt><trkpt lat="44.743575" lon="9.9085617"><ele>527.0</ele><time>2026-04-19T06:17:58.054Z</time></trkpt><trkpt lat="44.74367" lon="9.9085117"><ele>527.1666666666666</ele><time>2026-04-19T06:18:00.057Z</time></trkpt><trkpt lat="44.7437717" lon="9.908475"><ele>527.3333333333333</ele><time>2026-04-19T06:18:02.056Z</time></trkpt><trkpt lat="44.743855" lon="9.9084583"><ele>527.5</ele><time>2026-04-19T06:18:04.054Z</time></trkpt><trkpt lat="44.7439333" lon="9.9084467"><ele>527.6666666666666</ele><time>2026-04-19T06:18:06.055Z</time></trkpt><trkpt lat="44.7440033" lon="9.9084383"><ele>527.8333333333334</ele><time>2026-04-19T06:18:08.054Z</time></trkpt><trkpt lat="44.7440883" lon="9.9083933"><ele>528.0</ele><time>2026-04-19T06:18:11.054Z</time></trkpt><trkpt lat="44.7441467" lon="9.9083433"><ele>528.0</ele><time>2026-04-19T06:18:13.054Z</time></trkpt><trkpt lat="44.7441933" lon="9.908265"><ele>528.0</ele><time>2026-04-19T06:18:15.056Z</time></trkpt><trkpt lat="44.74427" lon="9.908175"><ele>528.0</ele><time>2026-04-19T06:18:17.056Z</time></trkpt><trkpt lat="44.7443217" lon="9.9081217"><ele>528.0</ele><time>2026-04-19T06:18:18.054Z</time></trkpt><trkpt lat="44.7444233" lon="9.9080183"><ele>528.0</ele><time>2026-04-19T06:18:20.057Z</time></trkpt><trkpt lat="44.744485" lon="9.9079617"><ele>528.0</ele><time>2026-04-19T06:18:21.055Z</time></trkpt><trkpt lat="44.744545" lon="9.9079183"><ele>531.1999999999999</ele><time>2026-04-19T06:18:22.054Z</time></trkpt><trkpt lat="44.744655" lon="9.9078567"><ele>534.4</ele><time>2026-04-19T06:18:24.055Z</time></trkpt><trkpt lat="44.7447567" lon="9.9077983"><ele>537.5999999999999</ele><time>2026-04-19T06:18:26.056Z</time></trkpt><trkpt lat="44.7448467" lon="9.9076967"><ele>540.8</ele><time>2026-04-19T06:18:28.053Z</time></trkpt><trkpt lat="44.7448833" lon="9.9076217"><ele>544.0</ele><time>2026-04-19T06:18:29.055Z</time></trkpt><trkpt lat="44.7449367" lon="9.907475"><ele>544.0</ele><time>2026-04-19T06:18:31.055Z</time></trkpt><trkpt lat="44.74499" lon="9.9073383"><ele>544.0</ele><time>2026-04-19T06:18:33.055Z</time></trkpt><trkpt lat="44.745055" lon="9.9072133"><ele>544.0</ele><time>2026-04-19T06:18:35.054Z</time></trkpt><trkpt lat="44.7451033" lon="9.9070617"><ele>544.0</ele><time>2026-04-19T06:18:37.055Z</time></trkpt><trkpt lat="44.74514" lon="9.9069083"><ele>544.0</ele><time>2026-04-19T06:18:39.055Z</time></trkpt><trkpt lat="44.7451883" lon="9.9068083"><ele>544.0</ele><time>2026-04-19T06:18:41.056Z</time></trkpt><trkpt lat="44.74524" lon="9.9067283"><ele>544.0</ele><time>2026-04-19T06:18:43.055Z</time></trkpt><trkpt lat="44.7452733" lon="9.9066517"><ele>544.0</ele><time>2026-04-19T06:18:45.056Z</time></trkpt><trkpt lat="44.7453083" lon="9.9065617"><ele>544.0</ele><time>2026-04-19T06:18:47.055Z</time></trkpt><trkpt lat="44.7453583" lon="9.9064717"><ele>544.0</ele><time>2026-04-19T06:18:49.056Z</time></trkpt><trkpt lat="44.745375" lon="9.9063717"><ele>550.0</ele><time>2026-04-19T06:18:51.054Z</time></trkpt><trkpt lat="44.7453583" lon="9.9062767"><ele>556.0</ele><time>2026-04-19T06:18:53.055Z</time></trkpt><trkpt lat="44.7453617" lon="9.906165"><ele>562.0</ele><time>2026-04-19T06:18:55.055Z</time></trkpt><trkpt lat="44.7453767" lon="9.90607"><ele>568.0</ele><time>2026-04-19T06:18:57.055Z</time></trkpt><trkpt lat="44.7453967" lon="9.9059683"><ele>574.0</ele><time>2026-04-19T06:19:00.054Z</time></trkpt><trkpt lat="44.7454317" lon="9.9058617"><ele>580.0</ele><time>2026-04-19T06:19:02.056Z</time></trkpt><trkpt lat="44.7454683" lon="9.9057383"><ele>580.0</ele><time>2026-04-19T06:19:04.055Z</time></trkpt><trkpt lat="44.7455083" lon="9.9055967"><ele>580.0</ele><time>2026-04-19T06:19:06.055Z</time></trkpt><trkpt lat="44.7455583" lon="9.905475"><ele>580.0</ele><time>2026-04-19T06:19:08.054Z</time></trkpt><trkpt lat="44.7456417" lon="9.905365"><ele>580.0</ele><time>2026-04-19T06:19:10.055Z</time></trkpt><trkpt lat="44.7457217" lon="9.905245"><ele>580.0</ele><time>2026-04-19T06:19:12.054Z</time></trkpt><trkpt lat="44.7457833" lon="9.905085"><ele>577.1666666666667</ele><time>2026-04-19T06:19:14.054Z</time></trkpt><trkpt lat="44.74582" lon="9.905005"><ele>574.3333333333334</ele><time>2026-04-19T06:19:15.053Z</time></trkpt><trkpt lat="44.74586" lon="9.904935"><ele>571.5</ele><time>2026-04-19T06:19:16.057Z</time></trkpt><trkpt lat="44.745915" lon="9.904815"><ele>568.6666666666666</ele><time>2026-04-19T06:19:18.055Z</time></trkpt><trkpt lat="44.745935" lon="9.9046767"><ele>565.8333333333333</ele><time>2026-04-19T06:19:20.055Z</time></trkpt><trkpt lat="44.7459583" lon="9.9045333"><ele>563.0</ele><time>2026-04-19T06:19:22.055Z</time></trkpt><trkpt lat="44.7459817" lon="9.9043717"><ele>564.0</ele><time>2026-04-19T06:19:24.057Z</time></trkpt><trkpt lat="44.7459983" lon="9.9042167"><ele>565.0</ele><time>2026-04-19T06:19:26.055Z</time></trkpt><trkpt lat="44.7460267" lon="9.9041233"><ele>566.0</ele><time>2026-04-19T06:19:28.056Z</time></trkpt><trkpt lat="44.74609" lon="9.9040967"><ele>567.0</ele><time>2026-04-19T06:19:30.055Z</time></trkpt><trkpt lat="44.746165" lon="9.9040983"><ele>568.0</ele><time>2026-04-19T06:19:32.053Z</time></trkpt><trkpt lat="44.7462383" lon="9.9040933"><ele>569.0</ele><time>2026-04-19T06:19:34.056Z</time></trkpt><trkpt lat="44.7463183" lon="9.9041017"><ele>569.0</ele><time>2026-04-19T06:19:36.056Z</time></trkpt><trkpt lat="44.74641" lon="9.90413"><ele>569.0</ele><time>2026-04-19T06:19:38.056Z</time></trkpt><trkpt lat="44.7464917" lon="9.90411"><ele>569.0</ele><time>2026-04-19T06:19:40.053Z</time></trkpt><trkpt lat="44.7466" lon="9.9039917"><ele>569.0</ele><time>2026-04-19T06:19:42.055Z</time></trkpt><trkpt lat="44.7466567" lon="9.903915"><ele>569.0</ele><time>2026-04-19T06:19:43.055Z</time></trkpt><trkpt lat="44.7467017" lon="9.903825"><ele>569.0</ele><time>2026-04-19T06:19:44.055Z</time></trkpt><trkpt lat="44.7467417" lon="9.9037283"><ele>569.0</ele><time>2026-04-19T06:19:45.056Z</time></trkpt><trkpt lat="44.7467867" lon="9.903615"><ele>569.0</ele><time>2026-04-19T06:19:46.055Z</time></trkpt><trkpt lat="44.7468283" lon="9.903515"><ele>569.0</ele><time>2026-04-19T06:19:47.056Z</time></trkpt><trkpt lat="44.74687" lon="9.90343"><ele>569.0</ele><time>2026-04-19T06:19:48.055Z</time></trkpt><trkpt lat="44.7469267" lon="9.90332"><ele>569.0</ele><time>2026-04-19T06:19:50.055Z</time></trkpt><trkpt lat="44.746985" lon="9.903255"><ele>568.0</ele><time>2026-04-19T06:19:52.056Z</time></trkpt><trkpt lat="44.7470683" lon="9.9032183"><ele>567.0</ele><time>2026-04-19T06:19:54.054Z</time></trkpt><trkpt lat="44.7472" lon="9.9032217"><ele>566.0</ele><time>2026-04-19T06:19:56.053Z</time></trkpt><trkpt lat="44.74727" lon="9.9032333"><ele>565.0</ele><time>2026-04-19T06:19:57.054Z</time></trkpt><trkpt lat="44.7473317" lon="9.9032517"><ele>564.0</ele><time>2026-04-19T06:19:58.057Z</time></trkpt><trkpt lat="44.7474517" lon="9.9032817"><ele>564.0</ele><time>2026-04-19T06:20:00.054Z</time></trkpt><trkpt lat="44.74752" lon="9.9032767"><ele>564.0</ele><time>2026-04-19T06:20:01.055Z</time></trkpt><trkpt lat="44.7475933" lon="9.9032617"><ele>564.0</ele><time>2026-04-19T06:20:02.054Z</time></trkpt><trkpt lat="44.747675" lon="9.9032317"><ele>564.0</ele><time>2026-04-19T06:20:03.054Z</time></trkpt><trkpt lat="44.7477517" lon="9.9031933"><ele>564.0</ele><time>2026-04-19T06:20:04.054Z</time></trkpt><trkpt lat="44.7478233" lon="9.9031483"><ele>564.0</ele><time>2026-04-19T06:20:05.053Z</time></trkpt><trkpt lat="44.7479117" lon="9.9030617"><ele>562.8333333333334</ele><time>2026-04-19T06:20:07.054Z</time></trkpt><trkpt lat="44.7479967" lon="9.903035"><ele>561.6666666666666</ele><time>2026-04-19T06:20:09.055Z</time></trkpt><trkpt lat="44.74807" lon="9.9030483"><ele>560.5</ele><time>2026-04-19T06:20:11.054Z</time></trkpt><trkpt lat="44.74815" lon="9.90307"><ele>559.3333333333333</ele><time>2026-04-19T06:20:13.056Z</time></trkpt><trkpt lat="44.748205" lon="9.9031183"><ele>558.1666666666666</ele><time>2026-04-19T06:20:15.055Z</time></trkpt><trkpt lat="44.7482583" lon="9.9031983"><ele>557.0</ele><time>2026-04-19T06:20:17.054Z</time></trkpt><trkpt lat="44.7483017" lon="9.9033017"><ele>557.0</ele><time>2026-04-19T06:20:19.053Z</time></trkpt><trkpt lat="44.7483633" lon="9.9033767"><ele>557.0</ele><time>2026-04-19T06:20:21.054Z</time></trkpt><trkpt lat="44.748445" lon="9.9034"><ele>557.0</ele><time>2026-04-19T06:20:23.053Z</time></trkpt><trkpt lat="44.7485217" lon="9.903435"><ele>557.0</ele><time>2026-04-19T06:20:25.055Z</time></trkpt><trkpt lat="44.7486" lon="9.9034517"><ele>557.0</ele><time>2026-04-19T06:20:27.054Z</time></trkpt><trkpt lat="44.7486617" lon="9.9034717"><ele>557.0</ele><time>2026-04-19T06:20:28.053Z</time></trkpt><trkpt lat="44.7487717" lon="9.9035183"><ele>557.0</ele><time>2026-04-19T06:20:30.053Z</time></trkpt><trkpt lat="44.7488633" lon="9.90354"><ele>557.0</ele><time>2026-04-19T06:20:32.054Z</time></trkpt><trkpt lat="44.7489667" lon="9.9035467"><ele>557.0</ele><time>2026-04-19T06:20:34.056Z</time></trkpt><trkpt lat="44.7490783" lon="9.9035383"><ele>557.0</ele><time>2026-04-19T06:20:36.056Z</time></trkpt><trkpt lat="44.7492117" lon="9.903525"><ele>557.0</ele><time>2026-04-19T06:20:38.056Z</time></trkpt><trkpt lat="44.749275" lon="9.90351"><ele>557.0</ele><time>2026-04-19T06:20:39.057Z</time></trkpt><trkpt lat="44.7493383" lon="9.9034883"><ele>557.0</ele><time>2026-04-19T06:20:40.055Z</time></trkpt><trkpt lat="44.7494" lon="9.9034633"><ele>557.0</ele><time>2026-04-19T06:20:41.056Z</time></trkpt><trkpt lat="44.7495283" lon="9.9034233"><ele>557.0</ele><time>2026-04-19T06:20:43.055Z</time></trkpt><trkpt lat="44.7496" lon="9.9034117"><ele>557.0</ele><time>2026-04-19T06:20:44.055Z</time></trkpt><trkpt lat="44.7496817" lon="9.903405"><ele>557.0</ele><time>2026-04-19T06:20:45.055Z</time></trkpt><trkpt lat="44.7497567" lon="9.9033933"><ele>553.2</ele><time>2026-04-19T06:20:46.055Z</time></trkpt><trkpt lat="44.74982" lon="9.9033917"><ele>549.4000000000001</ele><time>2026-04-19T06:20:47.056Z</time></trkpt><trkpt lat="44.7499233" lon="9.9033417"><ele>545.5999999999999</ele><time>2026-04-19T06:20:49.056Z</time></trkpt><trkpt lat="44.7500217" lon="9.9032683"><ele>541.8</ele><time>2026-04-19T06:20:51.054Z</time></trkpt><trkpt lat="44.7501017" lon="9.9031483"><ele>538.0</ele><time>2026-04-19T06:20:53.053Z</time></trkpt><trkpt lat="44.7501383" lon="9.9030683"><ele>538.0</ele><time>2026-04-19T06:20:54.053Z</time></trkpt><trkpt lat="44.7501733" lon="9.9029833"><ele>538.0</ele><time>2026-04-19T06:20:55.055Z</time></trkpt><trkpt lat="44.7502067" lon="9.9029067"><ele>538.0</ele><time>2026-04-19T06:20:56.054Z</time></trkpt><trkpt lat="44.7502717" lon="9.9027967"><ele>538.0</ele><time>2026-04-19T06:20:58.054Z</time></trkpt><trkpt lat="44.7503183" lon="9.9026983"><ele>538.0</ele><time>2026-04-19T06:21:00.054Z</time></trkpt><trkpt lat="44.750345" lon="9.90255"><ele>538.0</ele><time>2026-04-19T06:21:02.053Z</time></trkpt><trkpt lat="44.7503633" lon="9.9023983"><ele>540.5</ele><time>2026-04-19T06:21:04.053Z</time></trkpt><trkpt lat="44.7504033" lon="9.9022283"><ele>543.0</ele><time>2026-04-19T06:21:06.054Z</time></trkpt><trkpt lat="44.7504217" lon="9.9021317"><ele>545.5</ele><time>2026-04-19T06:21:07.054Z</time></trkpt><trkpt lat="44.750435" lon="9.9020217"><ele>548.0</ele><time>2026-04-19T06:21:08.054Z</time></trkpt><trkpt lat="44.7504433" lon="9.9019283"><ele>550.5</ele><time>2026-04-19T06:21:09.052Z</time></trkpt><trkpt lat="44.7504567" lon="9.90184"><ele>553.0</ele><time>2026-04-19T06:21:10.053Z</time></trkpt><trkpt lat="44.7504717" lon="9.9017533"><ele>552.1999999999999</ele><time>2026-04-19T06:21:11.053Z</time></trkpt><trkpt lat="44.7504967" lon="9.9016267"><ele>551.4</ele><time>2026-04-19T06:21:13.054Z</time></trkpt><trkpt lat="44.7505417" lon="9.9014967"><ele>550.5999999999999</ele><time>2026-04-19T06:21:15.054Z</time></trkpt><trkpt lat="44.7506183" lon="9.9014017"><ele>549.8</ele><time>2026-04-19T06:21:17.054Z</time></trkpt><trkpt lat="44.7506783" lon="9.90132"><ele>549.0</ele><time>2026-04-19T06:21:19.053Z</time></trkpt><trkpt lat="44.7507609" lon="9.9012261"><ele>549.0</ele><time>2026-04-19T06:21:22.053Z</time></trkpt><trkpt lat="44.7508331" lon="9.9011094"><ele>549.0</ele><time>2026-04-19T06:21:24.054Z</time></trkpt><trkpt lat="44.7509132" lon="9.9009832"><ele>549.0</ele><time>2026-04-19T06:21:26.055Z</time></trkpt><trkpt lat="44.7509603" lon="9.900922"><ele>549.0</ele><time>2026-04-19T06:21:27.054Z</time></trkpt><trkpt lat="44.7510165" lon="9.9008649"><ele>549.0</ele><time>2026-04-19T06:21:28.054Z</time></trkpt><trkpt lat="44.751075" lon="9.900811"><ele>549.0</ele><time>2026-04-19T06:21:29.054Z</time></trkpt><trkpt lat="44.7511395" lon="9.9007528"><ele>552.1666666666666</ele><time>2026-04-19T06:21:30.054Z</time></trkpt><trkpt lat="44.7512039" lon="9.900692"><ele>555.3333333333334</ele><time>2026-04-19T06:21:31.055Z</time></trkpt><trkpt lat="44.7512632" lon="9.9006216"><ele>558.5</ele><time>2026-04-19T06:21:32.054Z</time></trkpt><trkpt lat="44.751322" lon="9.9005385"><ele>561.6666666666667</ele><time>2026-04-19T06:21:33.053Z</time></trkpt><trkpt lat="44.751382" lon="9.9004523"><ele>564.8333333333334</ele><time>2026-04-19T06:21:34.054Z</time></trkpt><trkpt lat="44.751445" lon="9.9003617"><ele>568.0</ele><time>2026-04-19T06:21:35.055Z</time></trkpt><trkpt lat="44.751507" lon="9.900286"><ele>568.0</ele><time>2026-04-19T06:21:36.055Z</time></trkpt><trkpt lat="44.7515576" lon="9.9002322"><ele>568.0</ele><time>2026-04-19T06:21:37.055Z</time></trkpt><trkpt lat="44.7515088" lon="9.9003199"><ele>568.0</ele><time>2026-04-19T06:21:46.055Z</time></trkpt><trkpt lat="44.7514535" lon="9.9005188"><ele>568.0</ele><time>2026-04-19T06:21:48.055Z</time></trkpt><trkpt lat="44.7514268" lon="9.9006305"><ele>568.0</ele><time>2026-04-19T06:21:49.055Z</time></trkpt><trkpt lat="44.751407" lon="9.9007292"><ele>568.0</ele><time>2026-04-19T06:21:50.055Z</time></trkpt><trkpt lat="44.7513989" lon="9.9008808"><ele>568.0</ele><time>2026-04-19T06:21:52.053Z</time></trkpt><trkpt lat="44.7514338" lon="9.9009832"><ele>568.0</ele><time>2026-04-19T06:21:54.053Z</time></trkpt><trkpt lat="44.7515135" lon="9.9010561"><ele>568.0</ele><time>2026-04-19T06:21:56.053Z</time></trkpt><trkpt lat="44.7516148" lon="9.9011035"><ele>568.0</ele><time>2026-04-19T06:21:58.053Z</time></trkpt><trkpt lat="44.751686" lon="9.9011728"><ele>569.8</ele><time>2026-04-19T06:22:00.054Z</time></trkpt><trkpt lat="44.7517276" lon="9.9012471"><ele>571.5999999999999</ele><time>2026-04-19T06:22:02.053Z</time></trkpt><trkpt lat="44.7518022" lon="9.9012379"><ele>573.4000000000001</ele><time>2026-04-19T06:22:05.054Z</time></trkpt><trkpt lat="44.7518453" lon="9.9011046"><ele>575.2</ele><time>2026-04-19T06:22:07.054Z</time></trkpt><trkpt lat="44.7519073" lon="9.9009771"><ele>577.0</ele><time>2026-04-19T06:22:09.056Z</time></trkpt><trkpt lat="44.7519863" lon="9.9008721"><ele>578.8333333333334</ele><time>2026-04-19T06:22:11.055Z</time></trkpt><trkpt lat="44.7520693" lon="9.9008324"><ele>580.6666666666667</ele><time>2026-04-19T06:22:13.053Z</time></trkpt><trkpt lat="44.7521336" lon="9.9008853"><ele>582.5</ele><time>2026-04-19T06:22:15.053Z</time></trkpt><trkpt lat="44.7521779" lon="9.9010518"><ele>584.3333333333334</ele><time>2026-04-19T06:22:17.054Z</time></trkpt><trkpt lat="44.7522103" lon="9.9011391"><ele>586.1666666666666</ele><time>2026-04-19T06:22:18.055Z</time></trkpt><trkpt lat="44.7522487" lon="9.9012181"><ele>588.0</ele><time>2026-04-19T06:22:19.056Z</time></trkpt><trkpt lat="44.7523212" lon="9.9013259"><ele>590.1666666666666</ele><time>2026-04-19T06:22:21.056Z</time></trkpt><trkpt lat="44.7523872" lon="9.9013745"><ele>592.3333333333334</ele><time>2026-04-19T06:22:23.055Z</time></trkpt><trkpt lat="44.7524717" lon="9.9014312"><ele>594.5</ele><time>2026-04-19T06:22:25.056Z</time></trkpt><trkpt lat="44.7525552" lon="9.9014689"><ele>596.6666666666667</ele><time>2026-04-19T06:22:27.055Z</time></trkpt><trkpt lat="44.7526167" lon="9.9015633"><ele>598.8333333333334</ele><time>2026-04-19T06:22:39.054Z</time></trkpt><trkpt lat="44.7526617" lon="9.9016917"><ele>601.0</ele><time>2026-04-19T06:22:41.056Z</time></trkpt><trkpt lat="44.75272" lon="9.9018233"><ele>605.2</ele><time>2026-04-19T06:22:43.055Z</time></trkpt><trkpt lat="44.7527733" lon="9.9019517"><ele>609.4000000000001</ele><time>2026-04-19T06:22:45.056Z</time></trkpt><trkpt lat="44.75279" lon="9.9020633"><ele>613.6</ele><time>2026-04-19T06:22:47.054Z</time></trkpt><trkpt lat="44.7528183" lon="9.9022"><ele>617.8000000000001</ele><time>2026-04-19T06:22:49.055Z</time></trkpt><trkpt lat="44.752895" lon="9.9023083"><ele>622.0</ele><time>2026-04-19T06:22:51.054Z</time></trkpt><trkpt lat="44.7529417" lon="9.9023717"><ele>622.0</ele><time>2026-04-19T06:22:52.054Z</time></trkpt><trkpt lat="44.7530133" lon="9.9025083"><ele>622.0</ele><time>2026-04-19T06:22:54.055Z</time></trkpt><trkpt lat="44.7530617" lon="9.902595"><ele>622.0</ele><time>2026-04-19T06:22:55.055Z</time></trkpt><trkpt lat="44.7531067" lon="9.9026733"><ele>622.0</ele><time>2026-04-19T06:22:56.055Z</time></trkpt><trkpt lat="44.7531483" lon="9.9027533"><ele>622.0</ele><time>2026-04-19T06:22:57.056Z</time></trkpt><trkpt lat="44.75319" lon="9.9028367"><ele>622.0</ele><time>2026-04-19T06:22:58.054Z</time></trkpt><trkpt lat="44.7532383" lon="9.9029017"><ele>623.7142857142857</ele><time>2026-04-19T06:22:59.054Z</time></trkpt><trkpt lat="44.7532833" lon="9.9029733"><ele>625.4285714285714</ele><time>2026-04-19T06:23:00.056Z</time></trkpt><trkpt lat="44.75333" lon="9.9030383"><ele>627.1428571428571</ele><time>2026-04-19T06:23:01.055Z</time></trkpt><trkpt lat="44.753375" lon="9.9031117"><ele>628.8571428571429</ele><time>2026-04-19T06:23:02.057Z</time></trkpt><trkpt lat="44.753415" lon="9.903195"><ele>630.5714285714286</ele><time>2026-04-19T06:23:03.055Z</time></trkpt><trkpt lat="44.7534517" lon="9.9032717"><ele>632.2857142857143</ele><time>2026-04-19T06:23:04.054Z</time></trkpt><trkpt lat="44.7534817" lon="9.90335"><ele>634.0</ele><time>2026-04-19T06:23:05.055Z</time></trkpt><trkpt lat="44.75354" lon="9.9034867"><ele>634.8333333333334</ele><time>2026-04-19T06:23:07.055Z</time></trkpt><trkpt lat="44.7536" lon="9.9036183"><ele>635.6666666666667</ele><time>2026-04-19T06:23:09.057Z</time></trkpt><trkpt lat="44.7536233" lon="9.9037033"><ele>636.5</ele><time>2026-04-19T06:23:10.055Z</time></trkpt><trkpt lat="44.7536483" lon="9.9037867"><ele>637.3333333333334</ele><time>2026-04-19T06:23:11.055Z</time></trkpt><trkpt lat="44.7536467" lon="9.903895"><ele>638.1666666666666</ele><time>2026-04-19T06:23:12.055Z</time></trkpt><trkpt lat="44.7536217" lon="9.904025"><ele>639.0</ele><time>2026-04-19T06:23:13.054Z</time></trkpt><trkpt lat="44.7536283" lon="9.9041333"><ele>639.0</ele><time>2026-04-19T06:23:14.054Z</time></trkpt><trkpt lat="44.75364" lon="9.90423"><ele>639.0</ele><time>2026-04-19T06:23:15.055Z</time></trkpt><trkpt lat="44.7536567" lon="9.904325"><ele>639.0</ele><time>2026-04-19T06:23:16.054Z</time></trkpt><trkpt lat="44.7537133" lon="9.9044667"><ele>639.0</ele><time>2026-04-19T06:23:18.054Z</time></trkpt><trkpt lat="44.7538033" lon="9.9045967"><ele>639.0</ele><time>2026-04-19T06:23:20.056Z</time></trkpt><trkpt lat="44.753855" lon="9.9046617"><ele>640.1428571428572</ele><time>2026-04-19T06:23:21.055Z</time></trkpt><trkpt lat="44.7538983" lon="9.9047367"><ele>641.2857142857143</ele><time>2026-04-19T06:23:22.054Z</time></trkpt><trkpt lat="44.753945" lon="9.9048167"><ele>642.4285714285714</ele><time>2026-04-19T06:23:23.055Z</time></trkpt><trkpt lat="44.7539917" lon="9.9049033"><ele>643.5714285714287</ele><time>2026-04-19T06:23:24.056Z</time></trkpt><trkpt lat="44.7540317" lon="9.9049883"><ele>644.7142857142858</ele><time>2026-04-19T06:23:25.054Z</time></trkpt><trkpt lat="44.754065" lon="9.9050717"><ele>645.8571428571429</ele><time>2026-04-19T06:23:26.056Z</time></trkpt><trkpt lat="44.7540867" lon="9.90516"><ele>647.0</ele><time>2026-04-19T06:23:27.055Z</time></trkpt><trkpt lat="44.7541017" lon="9.9053317"><ele>647.8333333333333</ele><time>2026-04-19T06:23:29.055Z</time></trkpt><trkpt lat="44.7541117" lon="9.9055167"><ele>648.6666666666666</ele><time>2026-04-19T06:23:31.055Z</time></trkpt><trkpt lat="44.7541367" lon="9.9056083"><ele>649.5</ele><time>2026-04-19T06:23:32.055Z</time></trkpt><trkpt lat="44.7541667" lon="9.9057033"><ele>650.3333333333334</ele><time>2026-04-19T06:23:33.054Z</time></trkpt><trkpt lat="44.7542083" lon="9.9057933"><ele>651.1666666666667</ele><time>2026-04-19T06:23:34.055Z</time></trkpt><trkpt lat="44.754245" lon="9.9058817"><ele>652.0</ele><time>2026-04-19T06:23:35.056Z</time></trkpt><trkpt lat="44.754285" lon="9.9059767"><ele>653.3333333333334</ele><time>2026-04-19T06:23:36.054Z</time></trkpt><trkpt lat="44.7543233" lon="9.9060733"><ele>654.6666666666667</ele><time>2026-04-19T06:23:37.055Z</time></trkpt><trkpt lat="44.75436" lon="9.9061683"><ele>656.0</ele><time>2026-04-19T06:23:38.055Z</time></trkpt><trkpt lat="44.7543983" lon="9.906265"><ele>657.3333333333334</ele><time>2026-04-19T06:23:39.055Z</time></trkpt><trkpt lat="44.7544417" lon="9.9063583"><ele>658.6666666666666</ele><time>2026-04-19T06:23:40.054Z</time></trkpt><trkpt lat="44.754485" lon="9.90645"><ele>660.0</ele><time>2026-04-19T06:23:41.055Z</time></trkpt><trkpt lat="44.75453" lon="9.9065417"><ele>660.0</ele><time>2026-04-19T06:23:42.055Z</time></trkpt><trkpt lat="44.7545767" lon="9.9066367"><ele>660.0</ele><time>2026-04-19T06:23:43.056Z</time></trkpt><trkpt lat="44.7546217" lon="9.9067383"><ele>660.0</ele><time>2026-04-19T06:23:44.055Z</time></trkpt><trkpt lat="44.7546633" lon="9.9068383"><ele>660.0</ele><time>2026-04-19T06:23:45.054Z</time></trkpt><trkpt lat="44.7547033" lon="9.9069383"><ele>660.0</ele><time>2026-04-19T06:23:46.055Z</time></trkpt><trkpt lat="44.7547367" lon="9.9070383"><ele>660.0</ele><time>2026-04-19T06:23:47.055Z</time></trkpt><trkpt lat="44.7547617" lon="9.9071267"><ele>662.5</ele><time>2026-04-19T06:23:48.054Z</time></trkpt><trkpt lat="44.75478" lon="9.90722"><ele>665.0</ele><time>2026-04-19T06:23:50.056Z</time></trkpt><trkpt lat="44.754875" lon="9.907215"><ele>667.5</ele><time>2026-04-19T06:23:53.055Z</time></trkpt><trkpt lat="44.7549933" lon="9.9071583"><ele>670.0</ele><time>2026-04-19T06:23:55.054Z</time></trkpt><trkpt lat="44.7550617" lon="9.90713"><ele>672.5</ele><time>2026-04-19T06:23:56.055Z</time></trkpt><trkpt lat="44.7551267" lon="9.9071083"><ele>675.0</ele><time>2026-04-19T06:23:57.054Z</time></trkpt><trkpt lat="44.7551933" lon="9.9070983"><ele>673.0</ele><time>2026-04-19T06:23:58.055Z</time></trkpt><trkpt lat="44.7552667" lon="9.90707"><ele>671.0</ele><time>2026-04-19T06:23:59.055Z</time></trkpt><trkpt lat="44.75533" lon="9.90706"><ele>669.0</ele><time>2026-04-19T06:24:00.055Z</time></trkpt><trkpt lat="44.7554317" lon="9.90709"><ele>667.0</ele><time>2026-04-19T06:24:02.055Z</time></trkpt><trkpt lat="44.75553" lon="9.907135"><ele>665.0</ele><time>2026-04-19T06:24:04.054Z</time></trkpt><trkpt lat="44.7555967" lon="9.9071717"><ele>663.0</ele><time>2026-04-19T06:24:05.056Z</time></trkpt><trkpt lat="44.75567" lon="9.9072183"><ele>663.0</ele><time>2026-04-19T06:24:06.054Z</time></trkpt><trkpt lat="44.755735" lon="9.9072617"><ele>663.0</ele><time>2026-04-19T06:24:07.055Z</time></trkpt><trkpt lat="44.7558033" lon="9.9073"><ele>663.0</ele><time>2026-04-19T06:24:08.054Z</time></trkpt><trkpt lat="44.7558867" lon="9.907355"><ele>663.0</ele><time>2026-04-19T06:24:09.055Z</time></trkpt><trkpt lat="44.75597" lon="9.9074217"><ele>663.0</ele><time>2026-04-19T06:24:10.055Z</time></trkpt><trkpt lat="44.7560617" lon="9.907465"><ele>663.0</ele><time>2026-04-19T06:24:11.054Z</time></trkpt><trkpt lat="44.75612" lon="9.90752"><ele>663.1666666666666</ele><time>2026-04-19T06:24:12.054Z</time></trkpt><trkpt lat="44.7561733" lon="9.9075717"><ele>663.3333333333334</ele><time>2026-04-19T06:24:13.056Z</time></trkpt><trkpt lat="44.75624" lon="9.9076233"><ele>663.5</ele><time>2026-04-19T06:24:14.055Z</time></trkpt><trkpt lat="44.7562983" lon="9.9076733"><ele>663.6666666666667</ele><time>2026-04-19T06:24:15.054Z</time></trkpt><trkpt lat="44.75637" lon="9.9077117"><ele>663.8333333333334</ele><time>2026-04-19T06:24:16.054Z</time></trkpt><trkpt lat="44.7565217" lon="9.9077333"><ele>664.0</ele><time>2026-04-19T06:24:18.054Z</time></trkpt><trkpt lat="44.7565933" lon="9.9077933"><ele>664.0</ele><time>2026-04-19T06:24:19.055Z</time></trkpt><trkpt lat="44.7566983" lon="9.907765"><ele>664.0</ele><time>2026-04-19T06:24:22.054Z</time></trkpt><trkpt lat="44.7567767" lon="9.9077167"><ele>664.0</ele><time>2026-04-19T06:24:24.054Z</time></trkpt><trkpt lat="44.7568833" lon="9.9076733"><ele>664.0</ele><time>2026-04-19T06:24:26.055Z</time></trkpt><trkpt lat="44.756945" lon="9.9076517"><ele>664.0</ele><time>2026-04-19T06:24:27.055Z</time></trkpt><trkpt lat="44.7570133" lon="9.9076367"><ele>664.0</ele><time>2026-04-19T06:24:28.055Z</time></trkpt><trkpt lat="44.7570933" lon="9.90763"><ele>663.1666666666667</ele><time>2026-04-19T06:24:29.057Z</time></trkpt><trkpt lat="44.757185" lon="9.9076233"><ele>662.3333333333334</ele><time>2026-04-19T06:24:30.056Z</time></trkpt><trkpt lat="44.7572633" lon="9.9076083"><ele>661.5</ele><time>2026-04-19T06:24:31.055Z</time></trkpt><trkpt lat="44.7573333" lon="9.907595"><ele>660.6666666666666</ele><time>2026-04-19T06:24:32.055Z</time></trkpt><trkpt lat="44.7574267" lon="9.9075917"><ele>659.8333333333333</ele><time>2026-04-19T06:24:34.055Z</time></trkpt><trkpt lat="44.7575333" lon="9.90763"><ele>659.0</ele><time>2026-04-19T06:24:36.056Z</time></trkpt><trkpt lat="44.7576033" lon="9.9076533"><ele>659.0</ele><time>2026-04-19T06:24:37.057Z</time></trkpt><trkpt lat="44.7576667" lon="9.907665"><ele>659.0</ele><time>2026-04-19T06:24:38.056Z</time></trkpt><trkpt lat="44.7577567" lon="9.907705"><ele>659.0</ele><time>2026-04-19T06:24:40.055Z</time></trkpt><trkpt lat="44.7578267" lon="9.9077717"><ele>659.0</ele><time>2026-04-19T06:24:42.054Z</time></trkpt><trkpt lat="44.7578983" lon="9.9078283"><ele>659.0</ele><time>2026-04-19T06:24:45.055Z</time></trkpt><trkpt lat="44.757965" lon="9.907925"><ele>659.0</ele><time>2026-04-19T06:24:48.056Z</time></trkpt><trkpt lat="44.7580167" lon="9.9079983"><ele>659.1666666666666</ele><time>2026-04-19T06:24:50.056Z</time></trkpt><trkpt lat="44.7580683" lon="9.9080883"><ele>659.3333333333333</ele><time>2026-04-19T06:24:52.053Z</time></trkpt><trkpt lat="44.7581217" lon="9.9081633"><ele>659.5</ele><time>2026-04-19T06:24:54.055Z</time></trkpt><trkpt lat="44.758195" lon="9.9082683"><ele>659.6666666666666</ele><time>2026-04-19T06:24:56.055Z</time></trkpt><trkpt lat="44.7582317" lon="9.9083433"><ele>659.8333333333334</ele><time>2026-04-19T06:24:57.055Z</time></trkpt><trkpt lat="44.758265" lon="9.908435"><ele>660.0</ele><time>2026-04-19T06:24:58.054Z</time></trkpt><trkpt lat="44.7583117" lon="9.90856"><ele>660.0</ele><time>2026-04-19T06:24:59.055Z</time></trkpt><trkpt lat="44.7583567" lon="9.9087283"><ele>660.0</ele><time>2026-04-19T06:25:00.056Z</time></trkpt><trkpt lat="44.7583617" lon="9.90884"><ele>660.0</ele><time>2026-04-19T06:25:01.054Z</time></trkpt><trkpt lat="44.7583467" lon="9.9089717"><ele>660.0</ele><time>2026-04-19T06:25:02.054Z</time></trkpt><trkpt lat="44.7583267" lon="9.9091183"><ele>660.0</ele><time>2026-04-19T06:25:03.055Z</time></trkpt><trkpt lat="44.7582817" lon="9.9092217"><ele>663.4</ele><time>2026-04-19T06:25:04.055Z</time></trkpt><trkpt lat="44.7582467" lon="9.9093117"><ele>666.8</ele><time>2026-04-19T06:25:05.053Z</time></trkpt><trkpt lat="44.75822" lon="9.9094617"><ele>670.2</ele><time>2026-04-19T06:25:07.055Z</time></trkpt><trkpt lat="44.75822" lon="9.9096067"><ele>673.6</ele><time>2026-04-19T06:25:09.055Z</time></trkpt><trkpt lat="44.758235" lon="9.90976"><ele>677.0</ele><time>2026-04-19T06:25:11.054Z</time></trkpt><trkpt lat="44.75824" lon="9.9098533"><ele>677.0</ele><time>2026-04-19T06:25:13.055Z</time></trkpt><trkpt lat="44.7582533" lon="9.9099567"><ele>677.0</ele><time>2026-04-19T06:25:15.056Z</time></trkpt><trkpt lat="44.75832" lon="9.9100683"><ele>677.0</ele><time>2026-04-19T06:25:17.055Z</time></trkpt><trkpt lat="44.7584067" lon="9.9101583"><ele>677.0</ele><time>2026-04-19T06:25:19.055Z</time></trkpt><trkpt lat="44.7584833" lon="9.9102733"><ele>677.0</ele><time>2026-04-19T06:25:21.055Z</time></trkpt><trkpt lat="44.75857" lon="9.9103183"><ele>676.1666666666666</ele><time>2026-04-19T06:25:23.054Z</time></trkpt><trkpt lat="44.75865" lon="9.910345"><ele>675.3333333333333</ele><time>2026-04-19T06:25:26.056Z</time></trkpt><trkpt lat="44.758675" lon="9.9104333"><ele>674.5</ele><time>2026-04-19T06:25:32.055Z</time></trkpt><trkpt lat="44.75873" lon="9.9105117"><ele>673.6666666666666</ele><time>2026-04-19T06:25:37.053Z</time></trkpt><trkpt lat="44.7587867" lon="9.9105583"><ele>672.8333333333334</ele><time>2026-04-19T06:25:41.054Z</time></trkpt><trkpt lat="44.7588733" lon="9.910595"><ele>672.0</ele><time>2026-04-19T06:25:44.054Z</time></trkpt><trkpt lat="44.7589467" lon="9.9106617"><ele>672.0</ele><time>2026-04-19T06:25:47.056Z</time></trkpt><trkpt lat="44.7589917" lon="9.910725"><ele>672.0</ele><time>2026-04-19T06:25:50.056Z</time></trkpt><trkpt lat="44.7590617" lon="9.9107867"><ele>672.0</ele><time>2026-04-19T06:25:53.056Z</time></trkpt><trkpt lat="44.7591183" lon="9.9108483"><ele>672.0</ele><time>2026-04-19T06:25:55.056Z</time></trkpt><trkpt lat="44.7592083" lon="9.9108683"><ele>672.0</ele><time>2026-04-19T06:25:57.055Z</time></trkpt><trkpt lat="44.759295" lon="9.9108717"><ele>672.0</ele><time>2026-04-19T06:25:59.055Z</time></trkpt><trkpt lat="44.7593633" lon="9.9108917"><ele>675.8333333333334</ele><time>2026-04-19T06:26:01.054Z</time></trkpt><trkpt lat="44.7594433" lon="9.910955"><ele>679.6666666666666</ele><time>2026-04-19T06:26:03.055Z</time></trkpt><trkpt lat="44.7595217" lon="9.9110233"><ele>683.5</ele><time>2026-04-19T06:26:05.055Z</time></trkpt><trkpt lat="44.75961" lon="9.9110667"><ele>687.3333333333333</ele><time>2026-04-19T06:26:07.055Z</time></trkpt><trkpt lat="44.7597133" lon="9.9110367"><ele>691.1666666666666</ele><time>2026-04-19T06:26:09.055Z</time></trkpt><trkpt lat="44.7597683" lon="9.9109867"><ele>695.0</ele><time>2026-04-19T06:26:10.054Z</time></trkpt><trkpt lat="44.75982" lon="9.910935"><ele>695.0</ele><time>2026-04-19T06:26:11.055Z</time></trkpt><trkpt lat="44.759925" lon="9.9108883"><ele>695.0</ele><time>2026-04-19T06:26:13.055Z</time></trkpt><trkpt lat="44.76001" lon="9.9109467"><ele>695.0</ele><time>2026-04-19T06:26:15.056Z</time></trkpt><trkpt lat="44.760105" lon="9.9110067"><ele>695.0</ele><time>2026-04-19T06:26:17.056Z</time></trkpt><trkpt lat="44.76017" lon="9.911045"><ele>695.0</ele><time>2026-04-19T06:26:18.055Z</time></trkpt><trkpt lat="44.7602567" lon="9.9110283"><ele>698.4</ele><time>2026-04-19T06:26:20.056Z</time></trkpt><trkpt lat="44.7603367" lon="9.9110267"><ele>701.8</ele><time>2026-04-19T06:26:22.055Z</time></trkpt><trkpt lat="44.76043" lon="9.9110933"><ele>705.2</ele><time>2026-04-19T06:26:24.054Z</time></trkpt><trkpt lat="44.7605567" lon="9.9111883"><ele>708.6</ele><time>2026-04-19T06:26:26.056Z</time></trkpt><trkpt lat="44.7606217" lon="9.91124"><ele>712.0</ele><time>2026-04-19T06:26:27.054Z</time></trkpt><trkpt lat="44.7606783" lon="9.9112883"><ele>712.0</ele><time>2026-04-19T06:26:28.055Z</time></trkpt><trkpt lat="44.7607583" lon="9.9113583"><ele>712.0</ele><time>2026-04-19T06:26:30.056Z</time></trkpt><trkpt lat="44.7608183" lon="9.9114783"><ele>712.0</ele><time>2026-04-19T06:26:32.056Z</time></trkpt><trkpt lat="44.760885" lon="9.9115767"><ele>712.0</ele><time>2026-04-19T06:26:34.056Z</time></trkpt><trkpt lat="44.760965" lon="9.9116833"><ele>712.0</ele><time>2026-04-19T06:26:36.056Z</time></trkpt><trkpt lat="44.76105" lon="9.9117917"><ele>716.6666666666667</ele><time>2026-04-19T06:26:38.055Z</time></trkpt><trkpt lat="44.761125" lon="9.9118817"><ele>721.3333333333334</ele><time>2026-04-19T06:26:40.056Z</time></trkpt><trkpt lat="44.7612167" lon="9.9119533"><ele>726.0</ele><time>2026-04-19T06:26:42.055Z</time></trkpt><trkpt lat="44.7613017" lon="9.9120067"><ele>730.6666666666666</ele><time>2026-04-19T06:26:44.053Z</time></trkpt><trkpt lat="44.761385" lon="9.9120467"><ele>735.3333333333333</ele><time>2026-04-19T06:26:46.054Z</time></trkpt><trkpt lat="44.7614367" lon="9.9119917"><ele>740.0</ele><time>2026-04-19T06:26:49.054Z</time></trkpt><trkpt lat="44.761435" lon="9.9118633"><ele>740.0</ele><time>2026-04-19T06:26:52.054Z</time></trkpt><trkpt lat="44.76142" lon="9.9117733"><ele>740.0</ele><time>2026-04-19T06:26:54.054Z</time></trkpt><trkpt lat="44.76141" lon="9.91167"><ele>740.0</ele><time>2026-04-19T06:26:56.053Z</time></trkpt><trkpt lat="44.7614117" lon="9.9115467"><ele>740.0</ele><time>2026-04-19T06:26:58.053Z</time></trkpt><trkpt lat="44.761415" lon="9.911375"><ele>740.0</ele><time>2026-04-19T06:27:00.055Z</time></trkpt><trkpt lat="44.7614267" lon="9.9112683"><ele>740.0</ele><time>2026-04-19T06:27:01.056Z</time></trkpt><trkpt lat="44.7614217" lon="9.9111767"><ele>739.0</ele><time>2026-04-19T06:27:02.055Z</time></trkpt><trkpt lat="44.7614367" lon="9.91102"><ele>738.0</ele><time>2026-04-19T06:27:04.055Z</time></trkpt><trkpt lat="44.7614917" lon="9.9108983"><ele>737.0</ele><time>2026-04-19T06:27:06.055Z</time></trkpt><trkpt lat="44.76159" lon="9.91081"><ele>736.0</ele><time>2026-04-19T06:27:08.055Z</time></trkpt><trkpt lat="44.7616483" lon="9.9107583"><ele>735.0</ele><time>2026-04-19T06:27:09.054Z</time></trkpt><trkpt lat="44.7617183" lon="9.9106967"><ele>734.5</ele><time>2026-04-19T06:27:10.055Z</time></trkpt><trkpt lat="44.7618017" lon="9.9106433"><ele>734.0</ele><time>2026-04-19T06:27:11.055Z</time></trkpt><trkpt lat="44.7618633" lon="9.9105833"><ele>733.5</ele><time>2026-04-19T06:27:12.056Z</time></trkpt><trkpt lat="44.7619183" lon="9.9105233"><ele>733.0</ele><time>2026-04-19T06:27:13.055Z</time></trkpt><trkpt lat="44.7619617" lon="9.9104533"><ele>732.5</ele><time>2026-04-19T06:27:14.055Z</time></trkpt><trkpt lat="44.762025" lon="9.9103217"><ele>732.0</ele><time>2026-04-19T06:27:16.054Z</time></trkpt><trkpt lat="44.76206" lon="9.9101717"><ele>732.8</ele><time>2026-04-19T06:27:18.054Z</time></trkpt><trkpt lat="44.7621267" lon="9.9100333"><ele>733.6</ele><time>2026-04-19T06:27:20.055Z</time></trkpt><trkpt lat="44.7621717" lon="9.9099633"><ele>734.4</ele><time>2026-04-19T06:27:21.056Z</time></trkpt><trkpt lat="44.7622333" lon="9.9098367"><ele>735.1999999999999</ele><time>2026-04-19T06:27:23.053Z</time></trkpt><trkpt lat="44.76228" lon="9.9097367"><ele>736.0</ele><time>2026-04-19T06:27:25.054Z</time></trkpt><trkpt lat="44.7623317" lon="9.9096433"><ele>736.0</ele><time>2026-04-19T06:27:27.055Z</time></trkpt><trkpt lat="44.7623767" lon="9.90954"><ele>736.0</ele><time>2026-04-19T06:27:29.055Z</time></trkpt><trkpt lat="44.7624367" lon="9.909395"><ele>736.0</ele><time>2026-04-19T06:27:31.055Z</time></trkpt><trkpt lat="44.762475" lon="9.9093183"><ele>736.0</ele><time>2026-04-19T06:27:32.054Z</time></trkpt><trkpt lat="44.76252" lon="9.909235"><ele>736.0</ele><time>2026-04-19T06:27:33.054Z</time></trkpt><trkpt lat="44.7625633" lon="9.9091483"><ele>736.0</ele><time>2026-04-19T06:27:34.054Z</time></trkpt><trkpt lat="44.7626167" lon="9.9090583"><ele>733.1999999999999</ele><time>2026-04-19T06:27:35.054Z</time></trkpt><trkpt lat="44.7626717" lon="9.90897"><ele>730.4</ele><time>2026-04-19T06:27:36.055Z</time></trkpt><trkpt lat="44.7627067" lon="9.9088383"><ele>727.6</ele><time>2026-04-19T06:27:38.054Z</time></trkpt><trkpt lat="44.7627367" lon="9.908725"><ele>724.8</ele><time>2026-04-19T06:27:40.055Z</time></trkpt><trkpt lat="44.762795" lon="9.9086033"><ele>722.0</ele><time>2026-04-19T06:27:42.055Z</time></trkpt><trkpt lat="44.7628267" lon="9.908505"><ele>717.6666666666666</ele><time>2026-04-19T06:27:44.054Z</time></trkpt><trkpt lat="44.7628333" lon="9.9084033"><ele>713.3333333333333</ele><time>2026-04-19T06:27:46.052Z</time></trkpt><trkpt lat="44.7628767" lon="9.9083033"><ele>709.0</ele><time>2026-04-19T06:27:48.053Z</time></trkpt><trkpt lat="44.7629167" lon="9.9081883"><ele>704.6666666666666</ele><time>2026-04-19T06:27:51.054Z</time></trkpt><trkpt lat="44.7629167" lon="9.908065"><ele>700.3333333333334</ele><time>2026-04-19T06:27:54.054Z</time></trkpt><trkpt lat="44.7628667" lon="9.9079967"><ele>696.0</ele><time>2026-04-19T06:27:56.054Z</time></trkpt><trkpt lat="44.762795" lon="9.9079633"><ele>696.0</ele><time>2026-04-19T06:27:58.055Z</time></trkpt><trkpt lat="44.7627583" lon="9.90789"><ele>696.0</ele><time>2026-04-19T06:28:01.054Z</time></trkpt><trkpt lat="44.762745" lon="9.907755"><ele>696.0</ele><time>2026-04-19T06:28:04.053Z</time></trkpt><trkpt lat="44.7627433" lon="9.9076183"><ele>696.0</ele><time>2026-04-19T06:28:06.053Z</time></trkpt><trkpt lat="44.76275" lon="9.9074833"><ele>696.0</ele><time>2026-04-19T06:28:08.054Z</time></trkpt><trkpt lat="44.7627817" lon="9.9073433"><ele>691.6666666666666</ele><time>2026-04-19T06:28:10.052Z</time></trkpt><trkpt lat="44.7628017" lon="9.907215"><ele>687.3333333333334</ele><time>2026-04-19T06:28:12.055Z</time></trkpt><trkpt lat="44.762815" lon="9.9070917"><ele>683.0</ele><time>2026-04-19T06:28:14.054Z</time></trkpt><trkpt lat="44.7628317" lon="9.90697"><ele>678.6666666666667</ele><time>2026-04-19T06:28:16.055Z</time></trkpt><trkpt lat="44.7628383" lon="9.9068617"><ele>674.3333333333334</ele><time>2026-04-19T06:28:18.056Z</time></trkpt><trkpt lat="44.76285" lon="9.90676"><ele>670.0</ele><time>2026-04-19T06:28:20.056Z</time></trkpt><trkpt lat="44.7628683" lon="9.906645"><ele>666.8333333333334</ele><time>2026-04-19T06:28:22.056Z</time></trkpt><trkpt lat="44.7628733" lon="9.9065367"><ele>663.6666666666667</ele><time>2026-04-19T06:28:24.055Z</time></trkpt><trkpt lat="44.7628917" lon="9.9064183"><ele>660.5</ele><time>2026-04-19T06:28:26.056Z</time></trkpt><trkpt lat="44.76291" lon="9.9063083"><ele>657.3333333333334</ele><time>2026-04-19T06:28:28.054Z</time></trkpt><trkpt lat="44.7629183" lon="9.90619"><ele>654.1666666666666</ele><time>2026-04-19T06:28:30.054Z</time></trkpt><trkpt lat="44.762925" lon="9.9060483"><ele>651.0</ele><time>2026-04-19T06:28:32.055Z</time></trkpt><trkpt lat="44.7629433" lon="9.9059133"><ele>648.6666666666666</ele><time>2026-04-19T06:28:34.055Z</time></trkpt><trkpt lat="44.7629767" lon="9.9057833"><ele>646.3333333333334</ele><time>2026-04-19T06:28:36.055Z</time></trkpt><trkpt lat="44.76299" lon="9.9056733"><ele>644.0</ele><time>2026-04-19T06:28:38.055Z</time></trkpt><trkpt lat="44.763" lon="9.9055633"><ele>641.6666666666667</ele><time>2026-04-19T06:28:40.055Z</time></trkpt><trkpt lat="44.7630233" lon="9.9054283"><ele>639.3333333333334</ele><time>2026-04-19T06:28:42.054Z</time></trkpt><trkpt lat="44.7630367" lon="9.9053067"><ele>637.0</ele><time>2026-04-19T06:28:44.055Z</time></trkpt><trkpt lat="44.7630183" lon="9.9052083"><ele>637.0</ele><time>2026-04-19T06:28:46.055Z</time></trkpt><trkpt lat="44.7629967" lon="9.9050817"><ele>637.0</ele><time>2026-04-19T06:28:48.054Z</time></trkpt><trkpt lat="44.7629767" lon="9.9049617"><ele>637.0</ele><time>2026-04-19T06:28:50.056Z</time></trkpt><trkpt lat="44.7629717" lon="9.904835"><ele>637.0</ele><time>2026-04-19T06:28:52.054Z</time></trkpt><trkpt lat="44.762955" lon="9.9047267"><ele>637.0</ele><time>2026-04-19T06:28:54.055Z</time></trkpt><trkpt lat="44.762945" lon="9.9045983"><ele>637.0</ele><time>2026-04-19T06:28:56.054Z</time></trkpt><trkpt lat="44.7629317" lon="9.9045033"><ele>635.1666666666667</ele><time>2026-04-19T06:28:58.055Z</time></trkpt><trkpt lat="44.7629167" lon="9.9044033"><ele>633.3333333333334</ele><time>2026-04-19T06:29:00.055Z</time></trkpt><trkpt lat="44.762905" lon="9.9042817"><ele>631.5</ele><time>2026-04-19T06:29:03.054Z</time></trkpt><trkpt lat="44.7628817" lon="9.9041967"><ele>629.6666666666666</ele><time>2026-04-19T06:29:06.056Z</time></trkpt><trkpt lat="44.7628667" lon="9.9040933"><ele>627.8333333333333</ele><time>2026-04-19T06:29:08.054Z</time></trkpt><trkpt lat="44.7628383" lon="9.90399"><ele>626.0</ele><time>2026-04-19T06:29:10.052Z</time></trkpt><trkpt lat="44.7627833" lon="9.9038917"><ele>624.1666666666666</ele><time>2026-04-19T06:29:12.053Z</time></trkpt><trkpt lat="44.7627317" lon="9.9038183"><ele>622.3333333333333</ele><time>2026-04-19T06:29:14.054Z</time></trkpt><trkpt lat="44.7626783" lon="9.903765"><ele>620.5</ele><time>2026-04-19T06:29:16.055Z</time></trkpt><trkpt lat="44.7626267" lon="9.9036917"><ele>618.6666666666666</ele><time>2026-04-19T06:29:37.055Z</time></trkpt><trkpt lat="44.7626933" lon="9.90364"><ele>616.8333333333334</ele><time>2026-04-19T06:29:40.055Z</time></trkpt><trkpt lat="44.76279" lon="9.9036117"><ele>615.0</ele><time>2026-04-19T06:29:42.055Z</time></trkpt><trkpt lat="44.7628967" lon="9.9036017"><ele>614.5</ele><time>2026-04-19T06:29:44.055Z</time></trkpt><trkpt lat="44.7629583" lon="9.9035833"><ele>614.0</ele><time>2026-04-19T06:29:45.055Z</time></trkpt><trkpt lat="44.76303" lon="9.9035683"><ele>613.5</ele><time>2026-04-19T06:29:46.054Z</time></trkpt><trkpt lat="44.7631467" lon="9.90354"><ele>613.0</ele><time>2026-04-19T06:29:48.055Z</time></trkpt><trkpt lat="44.7632267" lon="9.90349"><ele>612.5</ele><time>2026-04-19T06:29:50.054Z</time></trkpt><trkpt lat="44.76331" lon="9.9034783"><ele>612.0</ele><time>2026-04-19T06:29:54.056Z</time></trkpt><trkpt lat="44.7633933" lon="9.9034983"><ele>612.0</ele><time>2026-04-19T06:29:57.055Z</time></trkpt><trkpt lat="44.7634483" lon="9.9035467"><ele>612.0</ele><time>2026-04-19T06:29:59.056Z</time></trkpt><trkpt lat="44.7635133" lon="9.9036383"><ele>612.0</ele><time>2026-04-19T06:30:01.054Z</time></trkpt><trkpt lat="44.7635733" lon="9.9037883"><ele>612.0</ele><time>2026-04-19T06:30:03.054Z</time></trkpt><trkpt lat="44.7636167" lon="9.9039317"><ele>612.0</ele><time>2026-04-19T06:30:05.054Z</time></trkpt><trkpt lat="44.7636767" lon="9.904075"><ele>612.8333333333334</ele><time>2026-04-19T06:30:07.055Z</time></trkpt><trkpt lat="44.763705" lon="9.9041583"><ele>613.6666666666666</ele><time>2026-04-19T06:30:08.055Z</time></trkpt><trkpt lat="44.7637433" lon="9.9042567"><ele>614.5</ele><time>2026-04-19T06:30:10.055Z</time></trkpt><trkpt lat="44.76381" lon="9.90426"><ele>615.3333333333333</ele><time>2026-04-19T06:30:17.055Z</time></trkpt><trkpt lat="44.7638483" lon="9.9041633"><ele>616.1666666666666</ele><time>2026-04-19T06:30:19.052Z</time></trkpt><trkpt lat="44.7639067" lon="9.9040083"><ele>617.0</ele><time>2026-04-19T06:30:21.054Z</time></trkpt><trkpt lat="44.7639617" lon="9.903915"><ele>613.8333333333333</ele><time>2026-04-19T06:30:22.056Z</time></trkpt><trkpt lat="44.764005" lon="9.9038167"><ele>610.6666666666666</ele><time>2026-04-19T06:30:23.055Z</time></trkpt><trkpt lat="44.7640467" lon="9.9037167"><ele>607.5</ele><time>2026-04-19T06:30:24.055Z</time></trkpt><trkpt lat="44.7640983" lon="9.9036167"><ele>604.3333333333334</ele><time>2026-04-19T06:30:25.055Z</time></trkpt><trkpt lat="44.7641633" lon="9.9035133"><ele>601.1666666666667</ele><time>2026-04-19T06:30:26.055Z</time></trkpt><trkpt lat="44.7642083" lon="9.903405"><ele>598.0</ele><time>2026-04-19T06:30:27.054Z</time></trkpt><trkpt lat="44.7642583" lon="9.9033367"><ele>598.8</ele><time>2026-04-19T06:30:28.054Z</time></trkpt><trkpt lat="44.7643067" lon="9.9032733"><ele>599.5999999999999</ele><time>2026-04-19T06:30:29.054Z</time></trkpt><trkpt lat="44.7643883" lon="9.903165"><ele>600.4000000000001</ele><time>2026-04-19T06:30:31.055Z</time></trkpt><trkpt lat="44.764485" lon="9.9031067"><ele>601.2</ele><time>2026-04-19T06:30:33.055Z</time></trkpt><trkpt lat="44.7646033" lon="9.90303"><ele>602.0</ele><time>2026-04-19T06:30:35.056Z</time></trkpt><trkpt lat="44.76466" lon="9.902985"><ele>602.0</ele><time>2026-04-19T06:30:36.055Z</time></trkpt><trkpt lat="44.7647567" lon="9.9028867"><ele>602.0</ele><time>2026-04-19T06:30:38.055Z</time></trkpt><trkpt lat="44.7648433" lon="9.90276"><ele>602.0</ele><time>2026-04-19T06:30:40.055Z</time></trkpt><trkpt lat="44.76488" lon="9.9026833"><ele>602.0</ele><time>2026-04-19T06:30:41.055Z</time></trkpt><trkpt lat="44.7649217" lon="9.9025983"><ele>602.0</ele><time>2026-04-19T06:30:42.054Z</time></trkpt><trkpt lat="44.7649633" lon="9.902525"><ele>597.8000000000001</ele><time>2026-04-19T06:30:43.054Z</time></trkpt><trkpt lat="44.7650417" lon="9.902405"><ele>593.6</ele><time>2026-04-19T06:30:45.053Z</time></trkpt><trkpt lat="44.7651733" lon="9.9023583"><ele>589.4000000000001</ele><time>2026-04-19T06:30:47.054Z</time></trkpt><trkpt lat="44.7652533" lon="9.9023483"><ele>585.2</ele><time>2026-04-19T06:30:48.056Z</time></trkpt><trkpt lat="44.7653283" lon="9.9023567"><ele>581.0</ele><time>2026-04-19T06:30:49.055Z</time></trkpt><trkpt lat="44.7654" lon="9.9023667"><ele>581.0</ele><time>2026-04-19T06:30:50.054Z</time></trkpt><trkpt lat="44.7654733" lon="9.9023883"><ele>581.0</ele><time>2026-04-19T06:30:51.054Z</time></trkpt><trkpt lat="44.7655433" lon="9.9024133"><ele>581.0</ele><time>2026-04-19T06:30:52.054Z</time></trkpt><trkpt lat="44.76566" lon="9.902455"><ele>581.0</ele><time>2026-04-19T06:30:54.054Z</time></trkpt><trkpt lat="44.7657617" lon="9.902495"><ele>581.0</ele><time>2026-04-19T06:30:56.055Z</time></trkpt><trkpt lat="44.76587" lon="9.902565"><ele>582.4285714285714</ele><time>2026-04-19T06:30:58.054Z</time></trkpt><trkpt lat="44.76593" lon="9.902605"><ele>583.8571428571429</ele><time>2026-04-19T06:30:59.054Z</time></trkpt><trkpt lat="44.765995" lon="9.902655"><ele>585.2857142857142</ele><time>2026-04-19T06:31:00.056Z</time></trkpt><trkpt lat="44.766065" lon="9.9027083"><ele>586.7142857142858</ele><time>2026-04-19T06:31:01.054Z</time></trkpt><trkpt lat="44.7661283" lon="9.9027783"><ele>588.1428571428571</ele><time>2026-04-19T06:31:02.056Z</time></trkpt><trkpt lat="44.766185" lon="9.9028433"><ele>589.5714285714286</ele><time>2026-04-19T06:31:03.055Z</time></trkpt><trkpt lat="44.7662417" lon="9.9028933"><ele>591.0</ele><time>2026-04-19T06:31:04.055Z</time></trkpt><trkpt lat="44.7663483" lon="9.9029683"><ele>591.0</ele><time>2026-04-19T06:31:06.054Z</time></trkpt><trkpt lat="44.7664417" lon="9.90301"><ele>591.0</ele><time>2026-04-19T06:31:08.055Z</time></trkpt><trkpt lat="44.766535" lon="9.90301"><ele>591.0</ele><time>2026-04-19T06:31:10.054Z</time></trkpt><trkpt lat="44.766615" lon="9.9029867"><ele>591.0</ele><time>2026-04-19T06:31:11.055Z</time></trkpt><trkpt lat="44.7666767" lon="9.9029433"><ele>591.0</ele><time>2026-04-19T06:31:12.054Z</time></trkpt><trkpt lat="44.766745" lon="9.9029"><ele>591.0</ele><time>2026-04-19T06:31:13.054Z</time></trkpt><trkpt lat="44.766805" lon="9.9028567"><ele>591.1666666666666</ele><time>2026-04-19T06:31:14.054Z</time></trkpt><trkpt lat="44.7668667" lon="9.902805"><ele>591.3333333333334</ele><time>2026-04-19T06:31:15.054Z</time></trkpt><trkpt lat="44.7669317" lon="9.9027567"><ele>591.5</ele><time>2026-04-19T06:31:16.053Z</time></trkpt><trkpt lat="44.7670283" lon="9.9026733"><ele>591.6666666666667</ele><time>2026-04-19T06:31:18.054Z</time></trkpt><trkpt lat="44.76707" lon="9.9025883"><ele>591.8333333333334</ele><time>2026-04-19T06:31:20.054Z</time></trkpt><trkpt lat="44.767085" lon="9.9024633"><ele>592.0</ele><time>2026-04-19T06:31:22.054Z</time></trkpt><trkpt lat="44.76709" lon="9.9022983"><ele>588.8000000000001</ele><time>2026-04-19T06:31:24.056Z</time></trkpt><trkpt lat="44.767115" lon="9.9021317"><ele>585.6</ele><time>2026-04-19T06:31:26.056Z</time></trkpt><trkpt lat="44.76716" lon="9.90201"><ele>582.4000000000001</ele><time>2026-04-19T06:31:28.056Z</time></trkpt><trkpt lat="44.7672183" lon="9.9019133"><ele>579.2</ele><time>2026-04-19T06:31:30.056Z</time></trkpt><trkpt lat="44.7672867" lon="9.901795"><ele>576.0</ele><time>2026-04-19T06:31:32.055Z</time></trkpt><trkpt lat="44.7673317" lon="9.9016483"><ele>573.1666666666666</ele><time>2026-04-19T06:31:34.055Z</time></trkpt><trkpt lat="44.767415" lon="9.90152"><ele>570.3333333333334</ele><time>2026-04-19T06:31:36.056Z</time></trkpt><trkpt lat="44.7674667" lon="9.9014617"><ele>567.5</ele><time>2026-04-19T06:31:37.056Z</time></trkpt><trkpt lat="44.76753" lon="9.9013933"><ele>564.6666666666667</ele><time>2026-04-19T06:31:38.056Z</time></trkpt><trkpt lat="44.767595" lon="9.9013217"><ele>561.8333333333334</ele><time>2026-04-19T06:31:39.055Z</time></trkpt><trkpt lat="44.7676533" lon="9.9012517"><ele>559.0</ele><time>2026-04-19T06:31:40.056Z</time></trkpt><trkpt lat="44.7677133" lon="9.901185"><ele>557.5</ele><time>2026-04-19T06:31:41.055Z</time></trkpt><trkpt lat="44.7677617" lon="9.901115"><ele>556.0</ele><time>2026-04-19T06:31:42.056Z</time></trkpt><trkpt lat="44.7678567" lon="9.9010267"><ele>554.5</ele><time>2026-04-19T06:31:44.057Z</time></trkpt><trkpt lat="44.7679583" lon="9.9009567"><ele>553.0</ele><time>2026-04-19T06:31:46.054Z</time></trkpt><trkpt lat="44.7680133" lon="9.900895"><ele>551.5</ele><time>2026-04-19T06:31:47.054Z</time></trkpt><trkpt lat="44.7680567" lon="9.90082"><ele>550.0</ele><time>2026-04-19T06:31:48.056Z</time></trkpt><trkpt lat="44.7680983" lon="9.9007317"><ele>549.0</ele><time>2026-04-19T06:31:49.055Z</time></trkpt><trkpt lat="44.7681417" lon="9.9006467"><ele>548.0</ele><time>2026-04-19T06:31:50.056Z</time></trkpt><trkpt lat="44.7681767" lon="9.900555"><ele>547.0</ele><time>2026-04-19T06:31:51.054Z</time></trkpt><trkpt lat="44.7682217" lon="9.9004017"><ele>546.0</ele><time>2026-04-19T06:31:53.055Z</time></trkpt><trkpt lat="44.7682367" lon="9.9003067"><ele>545.0</ele><time>2026-04-19T06:31:56.056Z</time></trkpt><trkpt lat="44.7682833" lon="9.9002367"><ele>544.0</ele><time>2026-04-19T06:31:59.054Z</time></trkpt><trkpt lat="44.768305" lon="9.9003467"><ele>544.0</ele><time>2026-04-19T06:32:33.055Z</time></trkpt><trkpt lat="44.7683133" lon="9.9005183"><ele>544.0</ele><time>2026-04-19T06:32:35.055Z</time></trkpt><trkpt lat="44.7683117" lon="9.9006483"><ele>544.0</ele><time>2026-04-19T06:32:36.056Z</time></trkpt><trkpt lat="44.7683033" lon="9.9008017"><ele>544.0</ele><time>2026-04-19T06:32:37.055Z</time></trkpt><trkpt lat="44.76828" lon="9.9009683"><ele>544.0</ele><time>2026-04-19T06:32:38.054Z</time></trkpt><trkpt lat="44.7682667" lon="9.90114"><ele>545.5</ele><time>2026-04-19T06:32:39.056Z</time></trkpt><trkpt lat="44.7682633" lon="9.9013117"><ele>547.0</ele><time>2026-04-19T06:32:40.056Z</time></trkpt><trkpt lat="44.768285" lon="9.90149"><ele>548.5</ele><time>2026-04-19T06:32:41.055Z</time></trkpt><trkpt lat="44.7683467" lon="9.9016717"><ele>550.0</ele><time>2026-04-19T06:32:42.053Z</time></trkpt><trkpt lat="44.7683983" lon="9.9018633"><ele>553.75</ele><time>2026-04-19T06:32:43.054Z</time></trkpt><trkpt lat="44.768445" lon="9.9020517"><ele>557.5</ele><time>2026-04-19T06:32:44.056Z</time></trkpt><trkpt lat="44.7684833" lon="9.9022267"><ele>561.25</ele><time>2026-04-19T06:32:45.054Z</time></trkpt><trkpt lat="44.7685183" lon="9.902385"><ele>565.0</ele><time>2026-04-19T06:32:46.053Z</time></trkpt><trkpt lat="44.7685433" lon="9.9025317"><ele>566.2</ele><time>2026-04-19T06:32:47.055Z</time></trkpt><trkpt lat="44.7685583" lon="9.9026717"><ele>567.4</ele><time>2026-04-19T06:32:48.054Z</time></trkpt><trkpt lat="44.7685583" lon="9.9028183"><ele>568.6</ele><time>2026-04-19T06:32:49.053Z</time></trkpt><trkpt lat="44.7685367" lon="9.90297"><ele>569.8</ele><time>2026-04-19T06:32:50.054Z</time></trkpt><trkpt lat="44.7685083" lon="9.9031233"><ele>571.0</ele><time>2026-04-19T06:32:51.054Z</time></trkpt><trkpt lat="44.7684683" lon="9.90328"><ele>570.6</ele><time>2026-04-19T06:32:52.054Z</time></trkpt><trkpt lat="44.7684317" lon="9.9034317"><ele>570.2</ele><time>2026-04-19T06:32:53.055Z</time></trkpt><trkpt lat="44.7684033" lon="9.9035867"><ele>569.8</ele><time>2026-04-19T06:32:54.054Z</time></trkpt><trkpt lat="44.7683933" lon="9.9037433"><ele>569.4</ele><time>2026-04-19T06:32:55.053Z</time></trkpt><trkpt lat="44.7683917" lon="9.903895"><ele>569.0</ele><time>2026-04-19T06:32:56.054Z</time></trkpt><trkpt lat="44.76843" lon="9.9040433"><ele>569.0</ele><time>2026-04-19T06:32:57.055Z</time></trkpt><trkpt lat="44.7684817" lon="9.904195"><ele>569.0</ele><time>2026-04-19T06:32:58.055Z</time></trkpt><trkpt lat="44.76854" lon="9.904335"><ele>569.0</ele><time>2026-04-19T06:32:59.054Z</time></trkpt><trkpt lat="44.7686" lon="9.9044817"><ele>569.0</ele><time>2026-04-19T06:33:00.056Z</time></trkpt><trkpt lat="44.7686517" lon="9.90463"><ele>565.5</ele><time>2026-04-19T06:33:01.055Z</time></trkpt><trkpt lat="44.76868" lon="9.90478"><ele>562.0</ele><time>2026-04-19T06:33:02.056Z</time></trkpt><trkpt lat="44.7686917" lon="9.904935"><ele>558.5</ele><time>2026-04-19T06:33:03.053Z</time></trkpt><trkpt lat="44.7686967" lon="9.9050983"><ele>555.0</ele><time>2026-04-19T06:33:04.053Z</time></trkpt><trkpt lat="44.7687033" lon="9.9052717"><ele>555.0</ele><time>2026-04-19T06:33:05.056Z</time></trkpt><trkpt lat="44.7687067" lon="9.9054417"><ele>555.0</ele><time>2026-04-19T06:33:06.055Z</time></trkpt><trkpt lat="44.7687117" lon="9.9056117"><ele>555.0</ele><time>2026-04-19T06:33:07.054Z</time></trkpt><trkpt lat="44.768715" lon="9.905785"><ele>555.0</ele><time>2026-04-19T06:33:08.056Z</time></trkpt><trkpt lat="44.7687183" lon="9.905965"><ele>555.75</ele><time>2026-04-19T06:33:09.055Z</time></trkpt><trkpt lat="44.768725" lon="9.9061383"><ele>556.5</ele><time>2026-04-19T06:33:10.054Z</time></trkpt><trkpt lat="44.7687483" lon="9.9062983"><ele>557.25</ele><time>2026-04-19T06:33:11.054Z</time></trkpt><trkpt lat="44.7687983" lon="9.9064467"><ele>558.0</ele><time>2026-04-19T06:33:12.054Z</time></trkpt><trkpt lat="44.7688717" lon="9.906585"><ele>558.0</ele><time>2026-04-19T06:33:13.053Z</time></trkpt><trkpt lat="44.7689683" lon="9.9067183"><ele>558.0</ele><time>2026-04-19T06:33:14.055Z</time></trkpt><trkpt lat="44.7690783" lon="9.90685"><ele>558.0</ele><time>2026-04-19T06:33:15.057Z</time></trkpt><trkpt lat="44.769185" lon="9.9069683"><ele>558.0</ele><time>2026-04-19T06:33:16.053Z</time></trkpt><trkpt lat="44.769275" lon="9.9070667"><ele>556.0</ele><time>2026-04-19T06:33:17.053Z</time></trkpt><trkpt lat="44.7693467" lon="9.90715"><ele>554.0</ele><time>2026-04-19T06:33:18.053Z</time></trkpt><trkpt lat="44.7694017" lon="9.907215"><ele>552.0</ele><time>2026-04-19T06:33:19.055Z</time></trkpt><trkpt lat="44.7694483" lon="9.9072967"><ele>550.0</ele><time>2026-04-19T06:33:21.055Z</time></trkpt><trkpt lat="44.7693783" lon="9.90733"><ele>548.0</ele><time>2026-04-19T06:33:25.055Z</time></trkpt><trkpt lat="44.7693" lon="9.907335"><ele>546.0</ele><time>2026-04-19T06:33:28.053Z</time></trkpt><trkpt lat="44.7692217" lon="9.9073917"><ele>552.25</ele><time>2026-04-19T06:33:30.053Z</time></trkpt><trkpt lat="44.7691367" lon="9.90748"><ele>558.5</ele><time>2026-04-19T06:33:32.055Z</time></trkpt><trkpt lat="44.7690467" lon="9.907595"><ele>564.75</ele><time>2026-04-19T06:33:34.055Z</time></trkpt><trkpt lat="44.76897" lon="9.90771"><ele>571.0</ele><time>2026-04-19T06:33:36.054Z</time></trkpt><trkpt lat="44.768915" lon="9.90785"><ele>571.6</ele><time>2026-04-19T06:33:38.055Z</time></trkpt><trkpt lat="44.7688833" lon="9.90802"><ele>572.2</ele><time>2026-04-19T06:33:40.053Z</time></trkpt><trkpt lat="44.7688583" lon="9.9081667"><ele>572.8</ele><time>2026-04-19T06:33:42.056Z</time></trkpt><trkpt lat="44.7688383" lon="9.9083083"><ele>573.4</ele><time>2026-04-19T06:33:44.056Z</time></trkpt><trkpt lat="44.76882" lon="9.9084433"><ele>574.0</ele><time>2026-04-19T06:33:46.053Z</time></trkpt><trkpt lat="44.7688033" lon="9.9085683"><ele>574.0</ele><time>2026-04-19T06:33:48.055Z</time></trkpt><trkpt lat="44.7687467" lon="9.9086467"><ele>574.0</ele><time>2026-04-19T06:33:50.055Z</time></trkpt><trkpt lat="44.7686433" lon="9.9086"><ele>574.0</ele><time>2026-04-19T06:33:53.055Z</time></trkpt><trkpt lat="44.7685617" lon="9.9085033"><ele>574.0</ele><time>2026-04-19T06:33:55.055Z</time></trkpt><trkpt lat="44.7685033" lon="9.9084533"><ele>574.0</ele><time>2026-04-19T06:33:56.057Z</time></trkpt><trkpt lat="44.7684017" lon="9.9083983"><ele>581.6</ele><time>2026-04-19T06:33:58.055Z</time></trkpt><trkpt lat="44.7682867" lon="9.9083583"><ele>589.2</ele><time>2026-04-19T06:34:00.055Z</time></trkpt><trkpt lat="44.7682217" lon="9.9083483"><ele>596.8000000000001</ele><time>2026-04-19T06:34:01.055Z</time></trkpt><trkpt lat="44.7681117" lon="9.908345"><ele>604.4</ele><time>2026-04-19T06:34:03.055Z</time></trkpt><trkpt lat="44.7680317" lon="9.9083183"><ele>612.0</ele><time>2026-04-19T06:34:05.053Z</time></trkpt><trkpt lat="44.7681" lon="9.9082783"><ele>612.0</ele><time>2026-04-19T06:38:18.055Z</time></trkpt><trkpt lat="44.768175" lon="9.90825"><ele>612.0</ele><time>2026-04-19T06:38:21.054Z</time></trkpt><trkpt lat="44.7682617" lon="9.9082283"><ele>612.0</ele><time>2026-04-19T06:38:24.053Z</time></trkpt><trkpt lat="44.7683417" lon="9.9082233"><ele>612.0</ele><time>2026-04-19T06:38:26.055Z</time></trkpt><trkpt lat="44.7684167" lon="9.908235"><ele>612.0</ele><time>2026-04-19T06:38:28.054Z</time></trkpt><trkpt lat="44.7684783" lon="9.908295"><ele>612.0</ele><time>2026-04-19T06:38:30.054Z</time></trkpt><trkpt lat="44.7685433" lon="9.9083567"><ele>606.6666666666666</ele><time>2026-04-19T06:38:32.056Z</time></trkpt><trkpt lat="44.7686183" lon="9.9084133"><ele>601.3333333333334</ele><time>2026-04-19T06:38:34.054Z</time></trkpt><trkpt lat="44.7686783" lon="9.9084483"><ele>596.0</ele><time>2026-04-19T06:38:36.056Z</time></trkpt><trkpt lat="44.7687783" lon="9.9084117"><ele>590.6666666666667</ele><time>2026-04-19T06:38:39.054Z</time></trkpt><trkpt lat="44.768825" lon="9.9083267"><ele>585.3333333333334</ele><time>2026-04-19T06:38:41.054Z</time></trkpt><trkpt lat="44.7688683" lon="9.9082367"><ele>580.0</ele><time>2026-04-19T06:38:45.054Z</time></trkpt><trkpt lat="44.7689083" lon="9.9081367"><ele>580.0</ele><time>2026-04-19T06:38:49.055Z</time></trkpt><trkpt lat="44.7689433" lon="9.9080017"><ele>580.0</ele><time>2026-04-19T06:39:45.055Z</time></trkpt><trkpt lat="44.7689617" lon="9.9079117"><ele>580.0</ele><time>2026-04-19T06:39:48.054Z</time></trkpt><trkpt lat="44.7689867" lon="9.9078217"><ele>580.0</ele><time>2026-04-19T06:39:50.056Z</time></trkpt><trkpt lat="44.7690117" lon="9.9077267"><ele>580.0</ele><time>2026-04-19T06:39:52.054Z</time></trkpt><trkpt lat="44.7690617" lon="9.907575"><ele>580.0</ele><time>2026-04-19T06:39:54.056Z</time></trkpt><trkpt lat="44.76911" lon="9.9074867"><ele>578.5</ele><time>2026-04-19T06:39:55.055Z</time></trkpt><trkpt lat="44.7691583" lon="9.9074267"><ele>577.0</ele><time>2026-04-19T06:39:56.054Z</time></trkpt><trkpt lat="44.7692317" lon="9.9073483"><ele>575.5</ele><time>2026-04-19T06:39:58.055Z</time></trkpt><trkpt lat="44.7693033" lon="9.9073033"><ele>574.0</ele><time>2026-04-19T06:40:00.055Z</time></trkpt><trkpt lat="44.7693683" lon="9.9072767"><ele>572.5</ele><time>2026-04-19T06:40:03.054Z</time></trkpt><trkpt lat="44.7694317" lon="9.9073167"><ele>571.0</ele><time>2026-04-19T06:40:06.053Z</time></trkpt><trkpt lat="44.769465" lon="9.9074767"><ele>566.8</ele><time>2026-04-19T06:40:08.053Z</time></trkpt><trkpt lat="44.76949" lon="9.9076117"><ele>562.6</ele><time>2026-04-19T06:40:09.052Z</time></trkpt><trkpt lat="44.7695017" lon="9.9077483"><ele>558.4</ele><time>2026-04-19T06:40:10.054Z</time></trkpt><trkpt lat="44.7694983" lon="9.907905"><ele>554.2</ele><time>2026-04-19T06:40:11.054Z</time></trkpt><trkpt lat="44.7694883" lon="9.9080717"><ele>550.0</ele><time>2026-04-19T06:40:12.053Z</time></trkpt><trkpt lat="44.7694617" lon="9.908235"><ele>550.0</ele><time>2026-04-19T06:40:13.054Z</time></trkpt><trkpt lat="44.7694283" lon="9.9083883"><ele>550.0</ele><time>2026-04-19T06:40:14.054Z</time></trkpt><trkpt lat="44.769415" lon="9.9085433"><ele>550.0</ele><time>2026-04-19T06:40:15.053Z</time></trkpt><trkpt lat="44.769415" lon="9.908705"><ele>550.0</ele><time>2026-04-19T06:40:16.054Z</time></trkpt><trkpt lat="44.7694267" lon="9.9088583"><ele>550.0</ele><time>2026-04-19T06:40:17.053Z</time></trkpt><trkpt lat="44.7694483" lon="9.9090133"><ele>551.25</ele><time>2026-04-19T06:40:18.056Z</time></trkpt><trkpt lat="44.7694867" lon="9.9091683"><ele>552.5</ele><time>2026-04-19T06:40:19.055Z</time></trkpt><trkpt lat="44.7695017" lon="9.9093317"><ele>553.75</ele><time>2026-04-19T06:40:20.054Z</time></trkpt><trkpt lat="44.76951" lon="9.909495"><ele>555.0</ele><time>2026-04-19T06:40:21.055Z</time></trkpt><trkpt lat="44.7695167" lon="9.9096533"><ele>556.8</ele><time>2026-04-19T06:40:22.056Z</time></trkpt><trkpt lat="44.769515" lon="9.90981"><ele>558.6</ele><time>2026-04-19T06:40:23.054Z</time></trkpt><trkpt lat="44.7695083" lon="9.9099533"><ele>560.4</ele><time>2026-04-19T06:40:24.056Z</time></trkpt><trkpt lat="44.76952" lon="9.9100833"><ele>562.2</ele><time>2026-04-19T06:40:25.055Z</time></trkpt><trkpt lat="44.7695517" lon="9.9101967"><ele>564.0</ele><time>2026-04-19T06:40:26.056Z</time></trkpt><trkpt lat="44.76963" lon="9.910255"><ele>566.2</ele><time>2026-04-19T06:40:27.054Z</time></trkpt><trkpt lat="44.769715" lon="9.9102833"><ele>568.4</ele><time>2026-04-19T06:40:28.055Z</time></trkpt><trkpt lat="44.7698233" lon="9.9102733"><ele>570.6</ele><time>2026-04-19T06:40:29.053Z</time></trkpt><trkpt lat="44.7699317" lon="9.9102567"><ele>572.8</ele><time>2026-04-19T06:40:30.056Z</time></trkpt><trkpt lat="44.7700433" lon="9.910235"><ele>575.0</ele><time>2026-04-19T06:40:31.056Z</time></trkpt><trkpt lat="44.77014" lon="9.9102183"><ele>577.5</ele><time>2026-04-19T06:40:32.053Z</time></trkpt><trkpt lat="44.770235" lon="9.9102033"><ele>580.0</ele><time>2026-04-19T06:40:33.055Z</time></trkpt><trkpt lat="44.7703283" lon="9.9101917"><ele>582.5</ele><time>2026-04-19T06:40:34.056Z</time></trkpt><trkpt lat="44.7704117" lon="9.910185"><ele>585.0</ele><time>2026-04-19T06:40:35.054Z</time></trkpt><trkpt lat="44.7704817" lon="9.9101833"><ele>587.5</ele><time>2026-04-19T06:40:36.055Z</time></trkpt><trkpt lat="44.7705833" lon="9.9101933"><ele>590.0</ele><time>2026-04-19T06:40:38.055Z</time></trkpt><trkpt lat="44.7706767" lon="9.9101917"><ele>590.0</ele><time>2026-04-19T06:41:41.052Z</time></trkpt><trkpt lat="44.770755" lon="9.9101933"><ele>590.0</ele><time>2026-04-19T06:41:43.054Z</time></trkpt><trkpt lat="44.7707667" lon="9.9103217"><ele>590.0</ele><time>2026-04-19T06:41:46.053Z</time></trkpt><trkpt lat="44.77068" lon="9.910445"><ele>590.0</ele><time>2026-04-19T06:41:48.054Z</time></trkpt><trkpt lat="44.7706233" lon="9.9104883"><ele>590.0</ele><time>2026-04-19T06:41:49.054Z</time></trkpt><trkpt lat="44.770555" lon="9.9105117"><ele>590.0</ele><time>2026-04-19T06:41:50.053Z</time></trkpt><trkpt lat="44.7704883" lon="9.9105433"><ele>590.0</ele><time>2026-04-19T06:41:51.053Z</time></trkpt><trkpt lat="44.7704267" lon="9.910585"><ele>590.0</ele><time>2026-04-19T06:41:52.054Z</time></trkpt><trkpt lat="44.770335" lon="9.9107083"><ele>590.0</ele><time>2026-04-19T06:41:54.055Z</time></trkpt><trkpt lat="44.7702917" lon="9.9108"><ele>590.0</ele><time>2026-04-19T06:41:55.055Z</time></trkpt><trkpt lat="44.770245" lon="9.9109067"><ele>590.0</ele><time>2026-04-19T06:41:56.056Z</time></trkpt><trkpt lat="44.7701933" lon="9.911015"><ele>590.0</ele><time>2026-04-19T06:41:57.056Z</time></trkpt><trkpt lat="44.77014" lon="9.91112"><ele>590.0</ele><time>2026-04-19T06:41:58.056Z</time></trkpt><trkpt lat="44.7700817" lon="9.9112183"><ele>590.0</ele><time>2026-04-19T06:41:59.055Z</time></trkpt><trkpt lat="44.7700233" lon="9.91131"><ele>590.0</ele><time>2026-04-19T06:42:00.055Z</time></trkpt><trkpt lat="44.7699733" lon="9.91139"><ele>590.0</ele><time>2026-04-19T06:42:01.055Z</time></trkpt><trkpt lat="44.7699217" lon="9.9114567"><ele>590.0</ele><time>2026-04-19T06:42:02.054Z</time></trkpt><trkpt lat="44.7698517" lon="9.91157"><ele>590.0</ele><time>2026-04-19T06:42:04.055Z</time></trkpt><trkpt lat="44.769825" lon="9.9117167"><ele>590.0</ele><time>2026-04-19T06:42:06.055Z</time></trkpt><trkpt lat="44.7698133" lon="9.9118183"><ele>590.0</ele><time>2026-04-19T06:42:07.056Z</time></trkpt><trkpt lat="44.7697983" lon="9.911915"><ele>590.0</ele><time>2026-04-19T06:42:08.055Z</time></trkpt><trkpt lat="44.7697783" lon="9.9120033"><ele>590.0</ele><time>2026-04-19T06:42:09.055Z</time></trkpt><trkpt lat="44.7697317" lon="9.9121633"><ele>590.0</ele><time>2026-04-19T06:42:11.054Z</time></trkpt><trkpt lat="44.76971" lon="9.9123017"><ele>593.6</ele><time>2026-04-19T06:42:13.054Z</time></trkpt><trkpt lat="44.7696733" lon="9.9124117"><ele>597.2</ele><time>2026-04-19T06:42:15.053Z</time></trkpt><trkpt lat="44.7696333" lon="9.91253"><ele>600.8</ele><time>2026-04-19T06:42:17.053Z</time></trkpt><trkpt lat="44.7695933" lon="9.912645"><ele>604.4</ele><time>2026-04-19T06:42:19.053Z</time></trkpt><trkpt lat="44.769525" lon="9.9127967"><ele>608.0</ele><time>2026-04-19T06:42:21.053Z</time></trkpt><trkpt lat="44.7694517" lon="9.9129117"><ele>608.6</ele><time>2026-04-19T06:42:23.054Z</time></trkpt><trkpt lat="44.769365" lon="9.9129933"><ele>609.1999999999999</ele><time>2026-04-19T06:42:25.054Z</time></trkpt><trkpt lat="44.7692733" lon="9.9131133"><ele>609.8</ele><time>2026-04-19T06:42:27.053Z</time></trkpt><trkpt lat="44.7692267" lon="9.9131883"><ele>610.4</ele><time>2026-04-19T06:42:28.054Z</time></trkpt><trkpt lat="44.7691833" lon="9.9132583"><ele>611.0</ele><time>2026-04-19T06:42:29.055Z</time></trkpt><trkpt lat="44.76911" lon="9.9133783"><ele>611.0</ele><time>2026-04-19T06:42:31.053Z</time></trkpt><trkpt lat="44.769035" lon="9.9134417"><ele>611.0</ele><time>2026-04-19T06:42:33.053Z</time></trkpt><trkpt lat="44.76894" lon="9.9134383"><ele>611.0</ele><time>2026-04-19T06:42:35.054Z</time></trkpt><trkpt lat="44.7688417" lon="9.9133783"><ele>611.0</ele><time>2026-04-19T06:42:37.053Z</time></trkpt><trkpt lat="44.7687783" lon="9.9133533"><ele>611.0</ele><time>2026-04-19T06:42:38.057Z</time></trkpt><trkpt lat="44.768715" lon="9.9133283"><ele>611.0</ele><time>2026-04-19T06:42:39.053Z</time></trkpt><trkpt lat="44.768615" lon="9.91329"><ele>612.0</ele><time>2026-04-19T06:42:41.053Z</time></trkpt><trkpt lat="44.7685233" lon="9.9132833"><ele>613.0</ele><time>2026-04-19T06:42:43.054Z</time></trkpt><trkpt lat="44.7684167" lon="9.9133133"><ele>614.0</ele><time>2026-04-19T06:42:45.054Z</time></trkpt><trkpt lat="44.7683133" lon="9.913325"><ele>615.0</ele><time>2026-04-19T06:42:47.054Z</time></trkpt><trkpt lat="44.7682167" lon="9.9133333"><ele>616.0</ele><time>2026-04-19T06:42:49.056Z</time></trkpt><trkpt lat="44.768115" lon="9.91333"><ele>616.0</ele><time>2026-04-19T06:42:51.054Z</time></trkpt><trkpt lat="44.768035" lon="9.9133083"><ele>616.0</ele><time>2026-04-19T06:42:53.055Z</time></trkpt><trkpt lat="44.7679583" lon="9.9132733"><ele>616.0</ele><time>2026-04-19T06:42:55.054Z</time></trkpt><trkpt lat="44.767895" lon="9.9132267"><ele>616.0</ele><time>2026-04-19T06:42:57.055Z</time></trkpt><trkpt lat="44.76784" lon="9.9131767"><ele>616.0</ele><time>2026-04-19T06:42:59.056Z</time></trkpt><trkpt lat="44.7677833" lon="9.9131233"><ele>616.0</ele><time>2026-04-19T06:43:01.055Z</time></trkpt><trkpt lat="44.767695" lon="9.9130233"><ele>621.75</ele><time>2026-04-19T06:43:07.055Z</time></trkpt><trkpt lat="44.767585" lon="9.9129717"><ele>627.5</ele><time>2026-04-19T06:43:15.054Z</time></trkpt><trkpt lat="44.7674367" lon="9.9128767"><ele>633.25</ele><time>2026-04-19T06:44:07.055Z</time></trkpt><trkpt lat="44.767375" lon="9.91282"><ele>639.0</ele><time>2026-04-19T06:44:11.055Z</time></trkpt><trkpt lat="44.7672533" lon="9.91273"><ele>639.0</ele><time>2026-04-19T06:45:59.055Z</time></trkpt><trkpt lat="44.7672756" lon="9.9125938"><ele>639.0</ele><time>2026-04-19T06:46:35.055Z</time></trkpt><trkpt lat="44.7673593" lon="9.9124559"><ele>639.0</ele><time>2026-04-19T06:46:41.063Z</time></trkpt><trkpt lat="44.7674011" lon="9.9123881"><ele>639.0</ele><time>2026-04-19T06:46:43.021Z</time></trkpt><trkpt lat="44.7674265" lon="9.9122274"><ele>639.0</ele><time>2026-04-19T06:46:45.965Z</time></trkpt><trkpt lat="44.767418" lon="9.9121148"><ele>640.6</ele><time>2026-04-19T06:46:48.042Z</time></trkpt><trkpt lat="44.7673576" lon="9.9120264"><ele>642.2</ele><time>2026-04-19T06:46:50.144Z</time></trkpt><trkpt lat="44.7673644" lon="9.9119067"><ele>643.8000000000001</ele><time>2026-04-19T06:46:52.055Z</time></trkpt><trkpt lat="44.767365" lon="9.9117417"><ele>645.4</ele><time>2026-04-19T06:46:55.054Z</time></trkpt><trkpt lat="44.767345" lon="9.9116367"><ele>647.0</ele><time>2026-04-19T06:46:57.054Z</time></trkpt><trkpt lat="44.7673017" lon="9.9115167"><ele>648.5</ele><time>2026-04-19T06:46:59.055Z</time></trkpt><trkpt lat="44.7672617" lon="9.9114233"><ele>650.0</ele><time>2026-04-19T06:47:01.054Z</time></trkpt><trkpt lat="44.7672133" lon="9.9113167"><ele>651.5</ele><time>2026-04-19T06:47:32.054Z</time></trkpt><trkpt lat="44.7671133" lon="9.9113417"><ele>653.0</ele><time>2026-04-19T06:47:35.055Z</time></trkpt><trkpt lat="44.7670283" lon="9.911345"><ele>654.5</ele><time>2026-04-19T06:47:37.054Z</time></trkpt><trkpt lat="44.76696" lon="9.9113417"><ele>656.0</ele><time>2026-04-19T06:48:14.054Z</time></trkpt><trkpt lat="44.7668983" lon="9.91132"><ele>656.0</ele><time>2026-04-19T06:48:18.055Z</time></trkpt><trkpt lat="44.76682" lon="9.9113917"><ele>656.0</ele><time>2026-04-19T06:50:19.053Z</time></trkpt><trkpt lat="44.7667183" lon="9.91146"><ele>656.0</ele><time>2026-04-19T06:50:34.054Z</time></trkpt><trkpt lat="44.7667717" lon="9.9113933"><ele>656.0</ele><time>2026-04-19T06:54:36.056Z</time></trkpt><trkpt lat="44.766835" lon="9.9113383"><ele>656.0</ele><time>2026-04-19T06:54:40.054Z</time></trkpt><trkpt lat="44.76698" lon="9.9113267"><ele>656.0</ele><time>2026-04-19T06:57:02.055Z</time></trkpt><trkpt lat="44.7670467" lon="9.9113417"><ele>656.0</ele><time>2026-04-19T06:57:05.053Z</time></trkpt><trkpt lat="44.7671167" lon="9.9113067"><ele>656.0</ele><time>2026-04-19T06:57:08.054Z</time></trkpt><trkpt lat="44.7671783" lon="9.9112867"><ele>656.0</ele><time>2026-04-19T06:57:11.054Z</time></trkpt><trkpt lat="44.7672683" lon="9.9113383"><ele>656.0</ele><time>2026-04-19T06:59:07.055Z</time></trkpt><trkpt lat="44.7673383" lon="9.9115533"><ele>656.0</ele><time>2026-04-19T06:59:23.056Z</time></trkpt><trkpt lat="44.7673917" lon="9.9117333"><ele>656.0</ele><time>2026-04-19T07:00:38.055Z</time></trkpt><trkpt lat="44.7674217" lon="9.911835"><ele>656.0</ele><time>2026-04-19T07:00:43.054Z</time></trkpt><trkpt lat="44.76745" lon="9.9119317"><ele>656.0</ele><time>2026-04-19T07:00:46.054Z</time></trkpt><trkpt lat="44.7674867" lon="9.912025"><ele>656.0</ele><time>2026-04-19T07:00:49.054Z</time></trkpt><trkpt lat="44.767495" lon="9.9121133"><ele>656.0</ele><time>2026-04-19T07:00:51.053Z</time></trkpt><trkpt lat="44.7674967" lon="9.9122233"><ele>654.1999999999999</ele><time>2026-04-19T07:00:54.054Z</time></trkpt><trkpt lat="44.767475" lon="9.9123133"><ele>652.4</ele><time>2026-04-19T07:00:56.054Z</time></trkpt><trkpt lat="44.7674217" lon="9.912405"><ele>650.6</ele><time>2026-04-19T07:00:59.055Z</time></trkpt><trkpt lat="44.7673733" lon="9.91247"><ele>648.8</ele><time>2026-04-19T07:01:04.054Z</time></trkpt><trkpt lat="44.76731" lon="9.9126483"><ele>647.0</ele><time>2026-04-19T07:01:18.056Z</time></trkpt><trkpt lat="44.7674067" lon="9.9128033"><ele>645.0</ele><time>2026-04-19T07:01:38.055Z</time></trkpt><trkpt lat="44.7674683" lon="9.9128233"><ele>643.0</ele><time>2026-04-19T07:01:42.056Z</time></trkpt><trkpt lat="44.76754" lon="9.912855"><ele>641.0</ele><time>2026-04-19T07:01:48.055Z</time></trkpt><trkpt lat="44.7676817" lon="9.9129733"><ele>639.0</ele><time>2026-04-19T07:02:02.056Z</time></trkpt><trkpt lat="44.7678017" lon="9.9130917"><ele>634.4</ele><time>2026-04-19T07:02:13.054Z</time></trkpt><trkpt lat="44.7679267" lon="9.91319"><ele>629.8</ele><time>2026-04-19T07:02:22.055Z</time></trkpt><trkpt lat="44.7679933" lon="9.91323"><ele>625.2</ele><time>2026-04-19T07:02:25.054Z</time></trkpt><trkpt lat="44.76807" lon="9.9132633"><ele>620.6</ele><time>2026-04-19T07:02:28.056Z</time></trkpt><trkpt lat="44.768145" lon="9.9132817"><ele>616.0</ele><time>2026-04-19T07:02:30.054Z</time></trkpt><trkpt lat="44.768225" lon="9.9132783"><ele>616.0</ele><time>2026-04-19T07:02:32.054Z</time></trkpt><trkpt lat="44.7682967" lon="9.9132667"><ele>616.0</ele><time>2026-04-19T07:02:34.054Z</time></trkpt><trkpt lat="44.768365" lon="9.913265"><ele>616.0</ele><time>2026-04-19T07:02:36.054Z</time></trkpt><trkpt lat="44.7684283" lon="9.913255"><ele>616.0</ele><time>2026-04-19T07:02:38.054Z</time></trkpt><trkpt lat="44.7685033" lon="9.9132383"><ele>616.0</ele><time>2026-04-19T07:02:40.054Z</time></trkpt><trkpt lat="44.7685917" lon="9.91327"><ele>616.0</ele><time>2026-04-19T07:02:42.056Z</time></trkpt><trkpt lat="44.76869" lon="9.9132983"><ele>615.1666666666667</ele><time>2026-04-19T07:02:44.054Z</time></trkpt><trkpt lat="44.7687767" lon="9.913335"><ele>614.3333333333334</ele><time>2026-04-19T07:02:46.054Z</time></trkpt><trkpt lat="44.7688583" lon="9.91337"><ele>613.5</ele><time>2026-04-19T07:02:48.053Z</time></trkpt><trkpt lat="44.7689433" lon="9.9134267"><ele>612.6666666666666</ele><time>2026-04-19T07:02:50.054Z</time></trkpt><trkpt lat="44.769025" lon="9.9134117"><ele>611.8333333333333</ele><time>2026-04-19T07:02:52.055Z</time></trkpt><trkpt lat="44.7691" lon="9.913335"><ele>611.0</ele><time>2026-04-19T07:02:54.055Z</time></trkpt><trkpt lat="44.769165" lon="9.9132333"><ele>611.0</ele><time>2026-04-19T07:02:56.055Z</time></trkpt><trkpt lat="44.76925" lon="9.9131083"><ele>611.0</ele><time>2026-04-19T07:02:58.055Z</time></trkpt><trkpt lat="44.769295" lon="9.9130433"><ele>611.0</ele><time>2026-04-19T07:02:59.055Z</time></trkpt><trkpt lat="44.7693467" lon="9.9129783"><ele>611.0</ele><time>2026-04-19T07:03:00.055Z</time></trkpt><trkpt lat="44.7694433" lon="9.9128917"><ele>611.0</ele><time>2026-04-19T07:03:02.055Z</time></trkpt><trkpt lat="44.7695183" lon="9.9127917"><ele>610.4</ele><time>2026-04-19T07:03:04.054Z</time></trkpt><trkpt lat="44.7695733" lon="9.9126617"><ele>609.8</ele><time>2026-04-19T07:03:06.054Z</time></trkpt><trkpt lat="44.7696117" lon="9.9125183"><ele>609.1999999999999</ele><time>2026-04-19T07:03:08.057Z</time></trkpt><trkpt lat="44.769655" lon="9.912375"><ele>608.6</ele><time>2026-04-19T07:03:10.055Z</time></trkpt><trkpt lat="44.7697033" lon="9.9122383"><ele>608.0</ele><time>2026-04-19T07:03:12.054Z</time></trkpt><trkpt lat="44.7697383" lon="9.91209"><ele>608.0</ele><time>2026-04-19T07:03:14.055Z</time></trkpt><trkpt lat="44.769775" lon="9.9119367"><ele>608.0</ele><time>2026-04-19T07:03:16.054Z</time></trkpt><trkpt lat="44.7697917" lon="9.9118433"><ele>608.0</ele><time>2026-04-19T07:03:17.055Z</time></trkpt><trkpt lat="44.7698067" lon="9.9117517"><ele>608.0</ele><time>2026-04-19T07:03:18.055Z</time></trkpt><trkpt lat="44.7698217" lon="9.9116633"><ele>608.0</ele><time>2026-04-19T07:03:19.055Z</time></trkpt><trkpt lat="44.7698533" lon="9.9115333"><ele>608.0</ele><time>2026-04-19T07:03:21.056Z</time></trkpt><trkpt lat="44.7699183" lon="9.9114367"><ele>608.3333333333333</ele><time>2026-04-19T07:03:23.056Z</time></trkpt><trkpt lat="44.7699667" lon="9.9113783"><ele>608.6666666666666</ele><time>2026-04-19T07:03:24.055Z</time></trkpt><trkpt lat="44.7700167" lon="9.9113017"><ele>609.0</ele><time>2026-04-19T07:03:25.055Z</time></trkpt><trkpt lat="44.7700733" lon="9.9112083"><ele>609.3333333333334</ele><time>2026-04-19T07:03:26.056Z</time></trkpt><trkpt lat="44.7701283" lon="9.9111117"><ele>609.6666666666667</ele><time>2026-04-19T07:03:27.054Z</time></trkpt><trkpt lat="44.770185" lon="9.911015"><ele>610.0</ele><time>2026-04-19T07:03:28.054Z</time></trkpt><trkpt lat="44.7702333" lon="9.91092"><ele>606.0</ele><time>2026-04-19T07:03:29.056Z</time></trkpt><trkpt lat="44.7702767" lon="9.9108283"><ele>602.0</ele><time>2026-04-19T07:03:30.056Z</time></trkpt><trkpt lat="44.7703133" lon="9.9107433"><ele>598.0</ele><time>2026-04-19T07:03:31.056Z</time></trkpt><trkpt lat="44.7703767" lon="9.9106217"><ele>594.0</ele><time>2026-04-19T07:03:33.055Z</time></trkpt><trkpt lat="44.77045" lon="9.91054"><ele>590.0</ele><time>2026-04-19T07:03:35.055Z</time></trkpt><trkpt lat="44.7705517" lon="9.9104817"><ele>590.0</ele><time>2026-04-19T07:03:37.056Z</time></trkpt><trkpt lat="44.7706533" lon="9.9104333"><ele>590.0</ele><time>2026-04-19T07:03:39.055Z</time></trkpt><trkpt lat="44.7707383" lon="9.9103633"><ele>590.0</ele><time>2026-04-19T07:03:41.055Z</time></trkpt><trkpt lat="44.7707783" lon="9.9102733"><ele>590.0</ele><time>2026-04-19T07:03:43.053Z</time></trkpt><trkpt lat="44.7708017" lon="9.9101783"><ele>590.0</ele><time>2026-04-19T07:03:47.054Z</time></trkpt><trkpt lat="44.770855" lon="9.91011"><ele>590.0</ele><time>2026-04-19T07:03:49.055Z</time></trkpt><trkpt lat="44.7709383" lon="9.9099883"><ele>589.8333333333333</ele><time>2026-04-19T07:03:51.055Z</time></trkpt><trkpt lat="44.770985" lon="9.9098867"><ele>589.6666666666666</ele><time>2026-04-19T07:03:52.054Z</time></trkpt><trkpt lat="44.7710283" lon="9.9097683"><ele>589.5</ele><time>2026-04-19T07:03:53.055Z</time></trkpt><trkpt lat="44.7710683" lon="9.9096483"><ele>589.3333333333334</ele><time>2026-04-19T07:03:54.055Z</time></trkpt><trkpt lat="44.7711067" lon="9.909535"><ele>589.1666666666667</ele><time>2026-04-19T07:03:55.055Z</time></trkpt><trkpt lat="44.771155" lon="9.9094367"><ele>589.0</ele><time>2026-04-19T07:03:56.056Z</time></trkpt><trkpt lat="44.7712067" lon="9.9093467"><ele>589.0</ele><time>2026-04-19T07:03:57.055Z</time></trkpt><trkpt lat="44.7712667" lon="9.909265"><ele>589.0</ele><time>2026-04-19T07:03:58.055Z</time></trkpt><trkpt lat="44.77133" lon="9.9091883"><ele>589.0</ele><time>2026-04-19T07:03:59.056Z</time></trkpt><trkpt lat="44.771405" lon="9.9091183"><ele>589.0</ele><time>2026-04-19T07:04:00.056Z</time></trkpt><trkpt lat="44.7714967" lon="9.909075"><ele>589.0</ele><time>2026-04-19T07:04:01.055Z</time></trkpt><trkpt lat="44.7715917" lon="9.9090483"><ele>586.8</ele><time>2026-04-19T07:04:02.056Z</time></trkpt><trkpt lat="44.771685" lon="9.9090217"><ele>584.5999999999999</ele><time>2026-04-19T07:04:03.055Z</time></trkpt><trkpt lat="44.7717683" lon="9.9089767"><ele>582.4</ele><time>2026-04-19T07:04:04.055Z</time></trkpt><trkpt lat="44.7718417" lon="9.9089067"><ele>580.1999999999999</ele><time>2026-04-19T07:04:05.054Z</time></trkpt><trkpt lat="44.77191" lon="9.9088083"><ele>578.0</ele><time>2026-04-19T07:04:06.055Z</time></trkpt><trkpt lat="44.7719767" lon="9.9087083"><ele>576.1666666666666</ele><time>2026-04-19T07:04:07.056Z</time></trkpt><trkpt lat="44.7720417" lon="9.90862"><ele>574.3333333333333</ele><time>2026-04-19T07:04:08.054Z</time></trkpt><trkpt lat="44.7721067" lon="9.90855"><ele>572.5</ele><time>2026-04-19T07:04:09.056Z</time></trkpt><trkpt lat="44.7721967" lon="9.9084933"><ele>570.6666666666666</ele><time>2026-04-19T07:04:11.056Z</time></trkpt><trkpt lat="44.7722783" lon="9.908495"><ele>568.8333333333334</ele><time>2026-04-19T07:04:49.054Z</time></trkpt><trkpt lat="44.7723633" lon="9.9085233"><ele>567.0</ele><time>2026-04-19T07:04:52.056Z</time></trkpt><trkpt lat="44.7724017" lon="9.9086017"><ele>567.0</ele><time>2026-04-19T07:04:54.055Z</time></trkpt><trkpt lat="44.77241" lon="9.90873"><ele>567.0</ele><time>2026-04-19T07:04:56.054Z</time></trkpt><trkpt lat="44.7724267" lon="9.9088233"><ele>567.0</ele><time>2026-04-19T07:04:58.054Z</time></trkpt><trkpt lat="44.7724817" lon="9.9088867"><ele>567.0</ele><time>2026-04-19T07:05:01.053Z</time></trkpt><trkpt lat="44.77255" lon="9.9089667"><ele>567.0</ele><time>2026-04-19T07:05:06.056Z</time></trkpt><trkpt lat="44.7725933" lon="9.9090367"><ele>567.0</ele><time>2026-04-19T07:05:08.054Z</time></trkpt><trkpt lat="44.7726467" lon="9.9090967"><ele>567.0</ele><time>2026-04-19T07:05:10.055Z</time></trkpt><trkpt lat="44.7727167" lon="9.9091217"><ele>567.0</ele><time>2026-04-19T07:05:12.055Z</time></trkpt><trkpt lat="44.7728117" lon="9.909135"><ele>567.0</ele><time>2026-04-19T07:05:14.055Z</time></trkpt><trkpt lat="44.7728983" lon="9.9091367"><ele>567.0</ele><time>2026-04-19T07:05:16.053Z</time></trkpt><trkpt lat="44.7729833" lon="9.9091633"><ele>567.0</ele><time>2026-04-19T07:05:18.056Z</time></trkpt><trkpt lat="44.77304" lon="9.9092217"><ele>567.0</ele><time>2026-04-19T07:05:20.055Z</time></trkpt><trkpt lat="44.7723633" lon="9.9085233"><ele>567.0</ele><time>2026-04-19T07:04:52.056Z</time></trkpt><trkpt lat="44.7724017" lon="9.9086017"><ele>567.0</ele><time>2026-04-19T07:04:54.055Z</time></trkpt><trkpt lat="44.77241" lon="9.90873"><ele>567.0</ele><time>2026-04-19T07:04:56.054Z</time></trkpt><trkpt lat="44.7724267" lon="9.9088233"><ele>567.0</ele><time>2026-04-19T07:04:58.054Z</time></trkpt><trkpt lat="44.7724817" lon="9.9088867"><ele>567.0</ele><time>2026-04-19T07:05:01.053Z</time></trkpt><trkpt lat="44.77255" lon="9.9089667"><ele>567.0</ele><time>2026-04-19T07:05:06.056Z</time></trkpt><trkpt lat="44.7725933" lon="9.9090367"><ele>567.0</ele><time>2026-04-19T07:05:08.054Z</time></trkpt><trkpt lat="44.7726467" lon="9.9090967"><ele>567.0</ele><time>2026-04-19T07:05:10.055Z</time></trkpt><trkpt lat="44.7727167" lon="9.9091217"><ele>567.0</ele><time>2026-04-19T07:05:12.055Z</time></trkpt><trkpt lat="44.7728117" lon="9.909135"><ele>567.0</ele><time>2026-04-19T07:05:14.055Z</time></trkpt><trkpt lat="44.7728983" lon="9.9091367"><ele>567.0</ele><time>2026-04-19T07:05:16.053Z</time></trkpt><trkpt lat="44.7729833" lon="9.9091633"><ele>567.0</ele><time>2026-04-19T07:05:18.056Z</time></trkpt><trkpt lat="44.77304" lon="9.9092217"><ele>564.3333333333334</ele><time>2026-04-19T07:05:20.055Z</time></trkpt><trkpt lat="44.7730867" lon="9.9092867"><ele>561.6666666666666</ele><time>2026-04-19T07:05:22.055Z</time></trkpt><trkpt lat="44.7731483" lon="9.9093617"><ele>559.0</ele><time>2026-04-19T07:05:24.056Z</time></trkpt><trkpt lat="44.7732517" lon="9.9093933"><ele>556.3333333333333</ele><time>2026-04-19T07:05:26.054Z</time></trkpt><trkpt lat="44.7733217" lon="9.909415"><ele>553.6666666666666</ele><time>2026-04-19T07:05:27.055Z</time></trkpt><trkpt lat="44.7733983" lon="9.909435"><ele>551.0</ele><time>2026-04-19T07:05:28.055Z</time></trkpt><trkpt lat="44.7734867" lon="9.909445"><ele>549.5</ele><time>2026-04-19T07:05:29.055Z</time></trkpt><trkpt lat="44.773585" lon="9.9094383"><ele>548.0</ele><time>2026-04-19T07:05:30.056Z</time></trkpt><trkpt lat="44.7736783" lon="9.9094083"><ele>546.5</ele><time>2026-04-19T07:05:31.053Z</time></trkpt><trkpt lat="44.7737617" lon="9.9093583"><ele>545.0</ele><time>2026-04-19T07:05:32.055Z</time></trkpt><trkpt lat="44.7738333" lon="9.9092983"><ele>543.5</ele><time>2026-04-19T07:05:33.054Z</time></trkpt><trkpt lat="44.7738983" lon="9.9092317"><ele>542.0</ele><time>2026-04-19T07:05:34.054Z</time></trkpt><trkpt lat="44.773955" lon="9.9091533"><ele>542.0</ele><time>2026-04-19T07:05:35.056Z</time></trkpt><trkpt lat="44.7740167" lon="9.9090633"><ele>542.0</ele><time>2026-04-19T07:05:36.055Z</time></trkpt><trkpt lat="44.7740783" lon="9.9089683"><ele>542.0</ele><time>2026-04-19T07:05:37.053Z</time></trkpt><trkpt lat="44.7741417" lon="9.9088767"><ele>542.0</ele><time>2026-04-19T07:05:38.054Z</time></trkpt><trkpt lat="44.7742033" lon="9.9087883"><ele>542.0</ele><time>2026-04-19T07:05:39.055Z</time></trkpt><trkpt lat="44.7742683" lon="9.9087017"><ele>542.0</ele><time>2026-04-19T07:05:40.054Z</time></trkpt><trkpt lat="44.7743333" lon="9.9086117"><ele>539.6</ele><time>2026-04-19T07:05:41.053Z</time></trkpt><trkpt lat="44.774395" lon="9.9085167"><ele>537.2</ele><time>2026-04-19T07:05:42.053Z</time></trkpt><trkpt lat="44.7744483" lon="9.9084133"><ele>534.8</ele><time>2026-04-19T07:05:43.053Z</time></trkpt><trkpt lat="44.7744917" lon="9.9083"><ele>532.4</ele><time>2026-04-19T07:05:44.054Z</time></trkpt><trkpt lat="44.7745267" lon="9.9081767"><ele>530.0</ele><time>2026-04-19T07:05:45.056Z</time></trkpt><trkpt lat="44.77456" lon="9.90805"><ele>530.0</ele><time>2026-04-19T07:05:46.054Z</time></trkpt><trkpt lat="44.7746" lon="9.9079283"><ele>530.0</ele><time>2026-04-19T07:05:47.055Z</time></trkpt><trkpt lat="44.7746517" lon="9.9078133"><ele>530.0</ele><time>2026-04-19T07:05:48.055Z</time></trkpt><trkpt lat="44.774705" lon="9.9076967"><ele>530.0</ele><time>2026-04-19T07:05:49.054Z</time></trkpt><trkpt lat="44.774765" lon="9.9075783"><ele>530.0</ele><time>2026-04-19T07:05:50.055Z</time></trkpt><trkpt lat="44.7748283" lon="9.90746"><ele>530.8</ele><time>2026-04-19T07:05:51.056Z</time></trkpt><trkpt lat="44.7748933" lon="9.9073383"><ele>531.6</ele><time>2026-04-19T07:05:52.054Z</time></trkpt><trkpt lat="44.7749583" lon="9.9072183"><ele>532.4</ele><time>2026-04-19T07:05:53.055Z</time></trkpt><trkpt lat="44.7750267" lon="9.9071"><ele>533.2</ele><time>2026-04-19T07:05:54.053Z</time></trkpt><trkpt lat="44.7750983" lon="9.9069867"><ele>534.0</ele><time>2026-04-19T07:05:55.053Z</time></trkpt><trkpt lat="44.7751683" lon="9.9068733"><ele>531.8</ele><time>2026-04-19T07:05:56.054Z</time></trkpt><trkpt lat="44.7752383" lon="9.90676"><ele>529.5999999999999</ele><time>2026-04-19T07:05:57.053Z</time></trkpt><trkpt lat="44.7753083" lon="9.9066533"><ele>527.4</ele><time>2026-04-19T07:05:58.053Z</time></trkpt><trkpt lat="44.7753833" lon="9.9065567"><ele>525.1999999999999</ele><time>2026-04-19T07:05:59.055Z</time></trkpt><trkpt lat="44.7754617" lon="9.9064667"><ele>523.0</ele><time>2026-04-19T07:06:00.055Z</time></trkpt><trkpt lat="44.775545" lon="9.9063833"><ele>523.0</ele><time>2026-04-19T07:06:01.056Z</time></trkpt><trkpt lat="44.7756333" lon="9.9063"><ele>523.0</ele><time>2026-04-19T07:06:02.053Z</time></trkpt><trkpt lat="44.77572" lon="9.90621"><ele>523.0</ele><time>2026-04-19T07:06:03.054Z</time></trkpt><trkpt lat="44.7758033" lon="9.9061083"><ele>523.0</ele><time>2026-04-19T07:06:04.053Z</time></trkpt><trkpt lat="44.77588" lon="9.905995"><ele>523.0</ele><time>2026-04-19T07:06:05.055Z</time></trkpt><trkpt lat="44.7759533" lon="9.90588"><ele>522.6</ele><time>2026-04-19T07:06:06.056Z</time></trkpt><trkpt lat="44.7760267" lon="9.9057667"><ele>522.1999999999999</ele><time>2026-04-19T07:06:07.055Z</time></trkpt><trkpt lat="44.7760983" lon="9.90566"><ele>521.8</ele><time>2026-04-19T07:06:08.054Z</time></trkpt><trkpt lat="44.7761733" lon="9.90556"><ele>521.4</ele><time>2026-04-19T07:06:09.056Z</time></trkpt><trkpt lat="44.77625" lon="9.9054733"><ele>521.0</ele><time>2026-04-19T07:06:10.054Z</time></trkpt><trkpt lat="44.7763333" lon="9.9054033"><ele>521.0</ele><time>2026-04-19T07:06:11.055Z</time></trkpt><trkpt lat="44.7764233" lon="9.9053483"><ele>521.0</ele><time>2026-04-19T07:06:12.053Z</time></trkpt><trkpt lat="44.7765183" lon="9.9053"><ele>521.0</ele><time>2026-04-19T07:06:13.053Z</time></trkpt><trkpt lat="44.77662" lon="9.905255"><ele>521.0</ele><time>2026-04-19T07:06:14.054Z</time></trkpt><trkpt lat="44.77672" lon="9.9052083"><ele>521.0</ele><time>2026-04-19T07:06:15.055Z</time></trkpt><trkpt lat="44.7768117" lon="9.9051617"><ele>521.6</ele><time>2026-04-19T07:06:16.053Z</time></trkpt><trkpt lat="44.7769" lon="9.9051067"><ele>522.2</ele><time>2026-04-19T07:06:17.054Z</time></trkpt><trkpt lat="44.77699" lon="9.9050417"><ele>522.8</ele><time>2026-04-19T07:06:18.054Z</time></trkpt><trkpt lat="44.7770767" lon="9.9049667"><ele>523.4</ele><time>2026-04-19T07:06:19.053Z</time></trkpt><trkpt lat="44.7771567" lon="9.9048783"><ele>524.0</ele><time>2026-04-19T07:06:20.054Z</time></trkpt><trkpt lat="44.7772283" lon="9.904775"><ele>524.0</ele><time>2026-04-19T07:06:21.053Z</time></trkpt><trkpt lat="44.7772983" lon="9.90466"><ele>524.0</ele><time>2026-04-19T07:06:22.053Z</time></trkpt><trkpt lat="44.7773667" lon="9.90454"><ele>524.0</ele><time>2026-04-19T07:06:23.053Z</time></trkpt><trkpt lat="44.777435" lon="9.9044217"><ele>524.0</ele><time>2026-04-19T07:06:24.053Z</time></trkpt><trkpt lat="44.7775017" lon="9.9043067"><ele>524.0</ele><time>2026-04-19T07:06:25.053Z</time></trkpt><trkpt lat="44.777575" lon="9.90419"><ele>523.75</ele><time>2026-04-19T07:06:26.054Z</time></trkpt><trkpt lat="44.777655" lon="9.90407"><ele>523.5</ele><time>2026-04-19T07:06:27.054Z</time></trkpt><trkpt lat="44.7777433" lon="9.90395"><ele>523.25</ele><time>2026-04-19T07:06:28.055Z</time></trkpt><trkpt lat="44.777825" lon="9.903835"><ele>523.0</ele><time>2026-04-19T07:06:29.055Z</time></trkpt><trkpt lat="44.7779017" lon="9.9037233"><ele>522.1999999999999</ele><time>2026-04-19T07:06:30.056Z</time></trkpt><trkpt lat="44.7779717" lon="9.9036117"><ele>521.4</ele><time>2026-04-19T07:06:31.055Z</time></trkpt><trkpt lat="44.7780333" lon="9.9034983"><ele>520.5999999999999</ele><time>2026-04-19T07:06:32.056Z</time></trkpt><trkpt lat="44.7780867" lon="9.90338"><ele>519.8</ele><time>2026-04-19T07:06:33.056Z</time></trkpt><trkpt lat="44.7781317" lon="9.9032567"><ele>519.0</ele><time>2026-04-19T07:06:34.055Z</time></trkpt><trkpt lat="44.77817" lon="9.90313"><ele>519.0</ele><time>2026-04-19T07:06:35.055Z</time></trkpt><trkpt lat="44.7781967" lon="9.9029933"><ele>519.0</ele><time>2026-04-19T07:06:36.055Z</time></trkpt><trkpt lat="44.7782117" lon="9.90285"><ele>519.0</ele><time>2026-04-19T07:06:37.055Z</time></trkpt><trkpt lat="44.7782233" lon="9.9027117"><ele>519.0</ele><time>2026-04-19T07:06:38.056Z</time></trkpt><trkpt lat="44.7782383" lon="9.9025767"><ele>519.0</ele><time>2026-04-19T07:06:39.057Z</time></trkpt><trkpt lat="44.7782583" lon="9.9024417"><ele>518.6</ele><time>2026-04-19T07:06:40.056Z</time></trkpt><trkpt lat="44.778285" lon="9.90231"><ele>518.2</ele><time>2026-04-19T07:06:41.055Z</time></trkpt><trkpt lat="44.7783167" lon="9.902185"><ele>517.8000000000001</ele><time>2026-04-19T07:06:42.055Z</time></trkpt><trkpt lat="44.77836" lon="9.9020667"><ele>517.4</ele><time>2026-04-19T07:06:43.055Z</time></trkpt><trkpt lat="44.77842" lon="9.9019567"><ele>517.0</ele><time>2026-04-19T07:06:44.055Z</time></trkpt><trkpt lat="44.7784983" lon="9.90185"><ele>514.25</ele><time>2026-04-19T07:06:45.057Z</time></trkpt><trkpt lat="44.77859" lon="9.901735"><ele>511.5</ele><time>2026-04-19T07:06:46.055Z</time></trkpt><trkpt lat="44.778695" lon="9.9015967"><ele>508.75</ele><time>2026-04-19T07:06:47.055Z</time></trkpt><trkpt lat="44.77882" lon="9.901425"><ele>506.0</ele><time>2026-04-19T07:06:48.055Z</time></trkpt><trkpt lat="44.7789533" lon="9.9012367"><ele>506.0</ele><time>2026-04-19T07:06:49.054Z</time></trkpt><trkpt lat="44.7790717" lon="9.9010583"><ele>506.0</ele><time>2026-04-19T07:06:50.054Z</time></trkpt><trkpt lat="44.7791833" lon="9.90087"><ele>506.0</ele><time>2026-04-19T07:06:51.054Z</time></trkpt><trkpt lat="44.7792983" lon="9.9006533"><ele>506.3333333333333</ele><time>2026-04-19T07:06:52.053Z</time></trkpt><trkpt lat="44.7794133" lon="9.9004283"><ele>506.66666666666663</ele><time>2026-04-19T07:06:53.055Z</time></trkpt><trkpt lat="44.7795067" lon="9.900235"><ele>507.0</ele><time>2026-04-19T07:06:54.054Z</time></trkpt><trkpt lat="44.7795767" lon="9.9000817"><ele>507.0</ele><time>2026-04-19T07:06:55.055Z</time></trkpt><trkpt lat="44.779625" lon="9.8999667"><ele>507.0</ele><time>2026-04-19T07:06:56.054Z</time></trkpt><trkpt lat="44.77966" lon="9.89988"><ele>507.0</ele><time>2026-04-19T07:06:57.054Z</time></trkpt><trkpt lat="44.7796983" lon="9.8997833"><ele>507.0</ele><time>2026-04-19T07:06:59.055Z</time></trkpt><trkpt lat="44.7797217" lon="9.8996883"><ele>507.0</ele><time>2026-04-19T07:07:01.057Z</time></trkpt><trkpt lat="44.7797233" lon="9.8995483"><ele>507.0</ele><time>2026-04-19T07:07:03.056Z</time></trkpt><trkpt lat="44.779725" lon="9.8993717"><ele>507.0</ele><time>2026-04-19T07:07:05.055Z</time></trkpt><trkpt lat="44.7797433" lon="9.8992667"><ele>507.0</ele><time>2026-04-19T07:07:06.055Z</time></trkpt><trkpt lat="44.7797667" lon="9.89914"><ele>507.0</ele><time>2026-04-19T07:07:07.055Z</time></trkpt><trkpt lat="44.7797917" lon="9.899005"><ele>507.0</ele><time>2026-04-19T07:07:08.056Z</time></trkpt><trkpt lat="44.77982" lon="9.8988733"><ele>507.0</ele><time>2026-04-19T07:07:09.055Z</time></trkpt><trkpt lat="44.779845" lon="9.8987633"><ele>507.0</ele><time>2026-04-19T07:07:10.054Z</time></trkpt><trkpt lat="44.779885" lon="9.898625"><ele>507.20000000000005</ele><time>2026-04-19T07:07:12.055Z</time></trkpt><trkpt lat="44.7798767" lon="9.8985133"><ele>507.40000000000003</ele><time>2026-04-19T07:07:15.054Z</time></trkpt><trkpt lat="44.7798117" lon="9.8984417"><ele>507.59999999999997</ele><time>2026-04-19T07:07:18.054Z</time></trkpt><trkpt lat="44.77975" lon="9.898375"><ele>507.79999999999995</ele><time>2026-04-19T07:07:20.055Z</time></trkpt><trkpt lat="44.7796717" lon="9.898275"><ele>508.0</ele><time>2026-04-19T07:07:22.055Z</time></trkpt><trkpt lat="44.7795917" lon="9.8981683"><ele>508.00000000000006</ele><time>2026-04-19T07:07:24.056Z</time></trkpt><trkpt lat="44.779525" lon="9.8980617"><ele>508.0</ele><time>2026-04-19T07:07:26.056Z</time></trkpt><trkpt lat="44.7794717" lon="9.8979783"><ele>508.0</ele><time>2026-04-19T07:07:28.054Z</time></trkpt><trkpt lat="44.779415" lon="9.8979067"><ele>508.0</ele><time>2026-04-19T07:07:32.055Z</time></trkpt><trkpt lat="44.779335" lon="9.8979"><ele>508.00000000000006</ele><time>2026-04-19T07:07:35.055Z</time></trkpt><trkpt lat="44.779275" lon="9.8978533"><ele>508.0</ele><time>2026-04-19T07:07:37.055Z</time></trkpt><trkpt lat="44.7792133" lon="9.8977717"><ele>506.0</ele><time>2026-04-19T07:07:39.056Z</time></trkpt><trkpt lat="44.7791417" lon="9.897695"><ele>503.99999999999994</ele><time>2026-04-19T07:07:41.056Z</time></trkpt><trkpt lat="44.7790667" lon="9.8976117"><ele>501.99999999999994</ele><time>2026-04-19T07:07:43.054Z</time></trkpt><trkpt lat="44.778995" lon="9.8975283"><ele>500.0</ele><time>2026-04-19T07:07:45.054Z</time></trkpt><trkpt lat="44.778925" lon="9.8974483"><ele>498.0</ele><time>2026-04-19T07:07:47.054Z</time></trkpt><trkpt lat="44.7788567" lon="9.8973867"><ele>497.0</ele><time>2026-04-19T07:07:49.054Z</time></trkpt><trkpt lat="44.7787983" lon="9.897345"><ele>496.0</ele><time>2026-04-19T07:07:51.057Z</time></trkpt><trkpt lat="44.7787283" lon="9.8972733"><ele>495.0</ele><time>2026-04-19T07:07:54.055Z</time></trkpt><trkpt lat="44.77866" lon="9.897195"><ele>494.0</ele><time>2026-04-19T07:07:57.056Z</time></trkpt><trkpt lat="44.7785983" lon="9.8971417"><ele>493.0</ele><time>2026-04-19T07:08:00.054Z</time></trkpt><trkpt lat="44.77853" lon="9.897065"><ele>492.0</ele><time>2026-04-19T07:08:03.056Z</time></trkpt><trkpt lat="44.7784833" lon="9.8970033"><ele>489.8571428571429</ele><time>2026-04-19T07:08:05.056Z</time></trkpt><trkpt lat="44.7784267" lon="9.8969333"><ele>487.7142857142857</ele><time>2026-04-19T07:08:08.055Z</time></trkpt><trkpt lat="44.778375" lon="9.8968733"><ele>485.57142857142856</ele><time>2026-04-19T07:08:10.055Z</time></trkpt><trkpt lat="44.7783083" lon="9.896785"><ele>483.42857142857144</ele><time>2026-04-19T07:08:12.055Z</time></trkpt><trkpt lat="44.7782533" lon="9.896715"><ele>481.2857142857142</ele><time>2026-04-19T07:08:14.054Z</time></trkpt><trkpt lat="44.7782" lon="9.8966617"><ele>479.1428571428571</ele><time>2026-04-19T07:08:16.055Z</time></trkpt><trkpt lat="44.7781383" lon="9.8966067"><ele>477.0</ele><time>2026-04-19T07:08:19.054Z</time></trkpt><trkpt lat="44.7780817" lon="9.8965417"><ele>475.6</ele><time>2026-04-19T07:08:23.055Z</time></trkpt><trkpt lat="44.7780367" lon="9.8963933"><ele>474.20000000000005</ele><time>2026-04-19T07:08:57.054Z</time></trkpt><trkpt lat="44.7780417" lon="9.8962867"><ele>472.8</ele><time>2026-04-19T07:09:03.056Z</time></trkpt><trkpt lat="44.7780433" lon="9.8961883"><ele>471.4</ele><time>2026-04-19T07:09:08.055Z</time></trkpt><trkpt lat="44.77803" lon="9.8960733"><ele>470.0</ele><time>2026-04-19T07:09:12.055Z</time></trkpt><trkpt lat="44.7780133" lon="9.895865"><ele>467.8333333333333</ele><time>2026-04-19T07:09:35.054Z</time></trkpt><trkpt lat="44.777955" lon="9.8957967"><ele>465.66666666666663</ele><time>2026-04-19T07:09:41.055Z</time></trkpt><trkpt lat="44.7778783" lon="9.895785"><ele>463.5</ele><time>2026-04-19T07:09:48.054Z</time></trkpt><trkpt lat="44.7778183" lon="9.8957383"><ele>461.33333333333337</ele><time>2026-04-19T07:09:53.056Z</time></trkpt><trkpt lat="44.7777383" lon="9.8956383"><ele>459.1666666666667</ele><time>2026-04-19T07:10:16.054Z</time></trkpt><trkpt lat="44.777675" lon="9.895565"><ele>457.0</ele><time>2026-04-19T07:10:23.055Z</time></trkpt><trkpt lat="44.7776083" lon="9.895505"><ele>454.6666666666667</ele><time>2026-04-19T07:10:28.054Z</time></trkpt><trkpt lat="44.7775383" lon="9.89544"><ele>452.33333333333337</ele><time>2026-04-19T07:10:32.055Z</time></trkpt><trkpt lat="44.7774767" lon="9.8953817"><ele>450.0</ele><time>2026-04-19T07:10:35.055Z</time></trkpt><trkpt lat="44.777425" lon="9.8953183"><ele>447.66666666666663</ele><time>2026-04-19T07:10:38.055Z</time></trkpt><trkpt lat="44.7773933" lon="9.8952033"><ele>445.3333333333333</ele><time>2026-04-19T07:10:41.056Z</time></trkpt><trkpt lat="44.7773583" lon="9.8951"><ele>443.0</ele><time>2026-04-19T07:10:44.055Z</time></trkpt><trkpt lat="44.7773267" lon="9.89502"><ele>441.14285714285717</ele><time>2026-04-19T07:10:47.055Z</time></trkpt><trkpt lat="44.7772883" lon="9.894935"><ele>439.28571428571433</ele><time>2026-04-19T07:10:51.055Z</time></trkpt><trkpt lat="44.77721" lon="9.8949167"><ele>437.42857142857144</ele><time>2026-04-19T07:10:56.053Z</time></trkpt><trkpt lat="44.777155" lon="9.8949617"><ele>435.57142857142856</ele><time>2026-04-19T07:10:59.053Z</time></trkpt><trkpt lat="44.77709" lon="9.8950183"><ele>433.7142857142857</ele><time>2026-04-19T07:11:02.053Z</time></trkpt><trkpt lat="44.777025" lon="9.8950483"><ele>431.85714285714283</ele><time>2026-04-19T07:11:05.054Z</time></trkpt><trkpt lat="44.7769817" lon="9.89498"><ele>430.0</ele><time>2026-04-19T07:11:09.055Z</time></trkpt><trkpt lat="44.776985" lon="9.8947833"><ele>430.0</ele><time>2026-04-19T07:11:30.055Z</time></trkpt><trkpt lat="44.77695" lon="9.8947"><ele>430.0</ele><time>2026-04-19T07:11:35.055Z</time></trkpt><trkpt lat="44.7769333" lon="9.8945967"><ele>430.0</ele><time>2026-04-19T07:11:45.054Z</time></trkpt><trkpt lat="44.7769267" lon="9.894495"><ele>430.0</ele><time>2026-04-19T07:11:49.056Z</time></trkpt><trkpt lat="44.7769317" lon="9.89437"><ele>430.0</ele><time>2026-04-19T07:12:21.055Z</time></trkpt><trkpt lat="44.7769267" lon="9.8942667"><ele>430.0</ele><time>2026-04-19T07:12:25.053Z</time></trkpt><trkpt lat="44.7768617" lon="9.8942383"><ele>430.0</ele><time>2026-04-19T07:12:32.053Z</time></trkpt><trkpt lat="44.7767817" lon="9.894255"><ele>427.0</ele><time>2026-04-19T07:12:39.053Z</time></trkpt><trkpt lat="44.7767167" lon="9.8943183"><ele>424.0</ele><time>2026-04-19T07:12:42.053Z</time></trkpt><trkpt lat="44.7766433" lon="9.894315"><ele>421.0</ele><time>2026-04-19T07:12:46.052Z</time></trkpt><trkpt lat="44.7765783" lon="9.8943167"><ele>418.0</ele><time>2026-04-19T07:12:49.055Z</time></trkpt><trkpt lat="44.77651" lon="9.8943783"><ele>415.0</ele><time>2026-04-19T07:12:52.055Z</time></trkpt><trkpt lat="44.7764483" lon="9.8944383"><ele>412.0</ele><time>2026-04-19T07:13:10.053Z</time></trkpt><trkpt lat="44.7763967" lon="9.89451"><ele>409.0</ele><time>2026-04-19T07:13:14.053Z</time></trkpt><trkpt lat="44.7763317" lon="9.8945417"><ele>409.0</ele><time>2026-04-19T07:13:17.055Z</time></trkpt><trkpt lat="44.776315" lon="9.894455"><ele>409.0</ele><time>2026-04-19T07:13:20.056Z</time></trkpt><trkpt lat="44.7763267" lon="9.894355"><ele>409.0</ele><time>2026-04-19T07:13:22.054Z</time></trkpt><trkpt lat="44.7763283" lon="9.894245"><ele>409.0</ele><time>2026-04-19T07:13:25.054Z</time></trkpt><trkpt lat="44.7763133" lon="9.894125"><ele>409.0</ele><time>2026-04-19T07:13:28.053Z</time></trkpt><trkpt lat="44.7763233" lon="9.8940233"><ele>409.0</ele><time>2026-04-19T07:13:31.053Z</time></trkpt><trkpt lat="44.776345" lon="9.8939333"><ele>409.0</ele><time>2026-04-19T07:13:34.054Z</time></trkpt><trkpt lat="44.7762767" lon="9.8939283"><ele>406.57142857142856</ele><time>2026-04-19T07:13:39.053Z</time></trkpt><trkpt lat="44.77622" lon="9.8939933"><ele>404.14285714285717</ele><time>2026-04-19T07:13:42.053Z</time></trkpt><trkpt lat="44.7761633" lon="9.8940383"><ele>401.7142857142857</ele><time>2026-04-19T07:13:44.053Z</time></trkpt><trkpt lat="44.776095" lon="9.8940783"><ele>399.2857142857143</ele><time>2026-04-19T07:13:47.052Z</time></trkpt><trkpt lat="44.7760267" lon="9.8940383"><ele>396.8571428571429</ele><time>2026-04-19T07:13:50.053Z</time></trkpt><trkpt lat="44.7759983" lon="9.8939583"><ele>394.42857142857144</ele><time>2026-04-19T07:13:52.054Z</time></trkpt><trkpt lat="44.7759833" lon="9.8938717"><ele>392.0</ele><time>2026-04-19T07:13:54.053Z</time></trkpt><trkpt lat="44.7759833" lon="9.893775"><ele>389.16666666666663</ele><time>2026-04-19T07:13:56.053Z</time></trkpt><trkpt lat="44.7759867" lon="9.8936833"><ele>386.3333333333333</ele><time>2026-04-19T07:13:58.054Z</time></trkpt><trkpt lat="44.7759983" lon="9.8935217"><ele>383.5</ele><time>2026-04-19T07:14:19.053Z</time></trkpt><trkpt lat="44.776005" lon="9.893425"><ele>380.66666666666663</ele><time>2026-04-19T07:14:23.052Z</time></trkpt><trkpt lat="44.776" lon="9.8933067"><ele>377.8333333333333</ele><time>2026-04-19T07:14:30.052Z</time></trkpt><trkpt lat="44.77602" lon="9.8931867"><ele>375.0</ele><time>2026-04-19T07:14:42.053Z</time></trkpt><trkpt lat="44.776055" lon="9.8931017"><ele>375.0</ele><time>2026-04-19T07:14:45.053Z</time></trkpt><trkpt lat="44.77605" lon="9.8929967"><ele>375.0</ele><time>2026-04-19T07:14:48.053Z</time></trkpt><trkpt lat="44.776005" lon="9.8928833"><ele>375.0</ele><time>2026-04-19T07:14:51.053Z</time></trkpt><trkpt lat="44.7759433" lon="9.89278"><ele>375.0</ele><time>2026-04-19T07:14:53.053Z</time></trkpt><trkpt lat="44.77586" lon="9.8926817"><ele>375.0</ele><time>2026-04-19T07:14:55.053Z</time></trkpt><trkpt lat="44.7757717" lon="9.8925883"><ele>369.8</ele><time>2026-04-19T07:14:57.054Z</time></trkpt><trkpt lat="44.7756833" lon="9.8924783"><ele>364.6</ele><time>2026-04-19T07:14:59.054Z</time></trkpt><trkpt lat="44.7755983" lon="9.8923817"><ele>359.4</ele><time>2026-04-19T07:15:01.055Z</time></trkpt><trkpt lat="44.7755333" lon="9.8923017"><ele>354.2</ele><time>2026-04-19T07:15:03.054Z</time></trkpt><trkpt lat="44.7755133" lon="9.892185"><ele>349.0</ele><time>2026-04-19T07:15:05.055Z</time></trkpt><trkpt lat="44.7755033" lon="9.8920533"><ele>349.0</ele><time>2026-04-19T07:15:07.054Z</time></trkpt><trkpt lat="44.77548" lon="9.8919383"><ele>349.0</ele><time>2026-04-19T07:15:09.052Z</time></trkpt><trkpt lat="44.7755" lon="9.8917867"><ele>349.0</ele><time>2026-04-19T07:15:11.054Z</time></trkpt><trkpt lat="44.7755467" lon="9.89167"><ele>349.0</ele><time>2026-04-19T07:15:13.054Z</time></trkpt><trkpt lat="44.77557" lon="9.89158"><ele>349.0</ele><time>2026-04-19T07:15:15.055Z</time></trkpt><trkpt lat="44.7755483" lon="9.8914933"><ele>349.0</ele><time>2026-04-19T07:15:17.053Z</time></trkpt><trkpt lat="44.7754967" lon="9.8913967"><ele>348.6</ele><time>2026-04-19T07:15:19.055Z</time></trkpt><trkpt lat="44.77542" lon="9.89134"><ele>348.2</ele><time>2026-04-19T07:15:21.057Z</time></trkpt><trkpt lat="44.7753433" lon="9.8912967"><ele>347.8</ele><time>2026-04-19T07:15:23.054Z</time></trkpt><trkpt lat="44.7753067" lon="9.8912233"><ele>347.40000000000003</ele><time>2026-04-19T07:15:25.055Z</time></trkpt><trkpt lat="44.7752867" lon="9.8910933"><ele>347.0</ele><time>2026-04-19T07:15:27.054Z</time></trkpt><trkpt lat="44.77527" lon="9.89092"><ele>346.6666666666667</ele><time>2026-04-19T07:15:29.054Z</time></trkpt><trkpt lat="44.7752267" lon="9.8907717"><ele>346.33333333333337</ele><time>2026-04-19T07:15:31.055Z</time></trkpt><trkpt lat="44.7751967" lon="9.8906917"><ele>346.0</ele><time>2026-04-19T07:15:32.055Z</time></trkpt><trkpt lat="44.7751717" lon="9.890605"><ele>345.6666666666667</ele><time>2026-04-19T07:15:33.053Z</time></trkpt><trkpt lat="44.775155" lon="9.8905133"><ele>345.3333333333333</ele><time>2026-04-19T07:15:34.053Z</time></trkpt><trkpt lat="44.7751567" lon="9.8903483"><ele>345.0</ele><time>2026-04-19T07:15:36.054Z</time></trkpt><trkpt lat="44.7751883" lon="9.8901933"><ele>345.8333333333333</ele><time>2026-04-19T07:15:38.053Z</time></trkpt><trkpt lat="44.7752183" lon="9.8900417"><ele>346.6666666666667</ele><time>2026-04-19T07:15:40.053Z</time></trkpt><trkpt lat="44.775215" lon="9.889895"><ele>347.5</ele><time>2026-04-19T07:15:42.053Z</time></trkpt><trkpt lat="44.7751867" lon="9.8898083"><ele>348.33333333333337</ele><time>2026-04-19T07:15:43.054Z</time></trkpt><trkpt lat="44.77515" lon="9.8897133"><ele>349.1666666666667</ele><time>2026-04-19T07:15:44.055Z</time></trkpt><trkpt lat="44.77511" lon="9.889625"><ele>350.0</ele><time>2026-04-19T07:15:45.054Z</time></trkpt><trkpt lat="44.775075" lon="9.889545"><ele>348.5</ele><time>2026-04-19T07:15:46.054Z</time></trkpt><trkpt lat="44.7750417" lon="9.8894583"><ele>347.0</ele><time>2026-04-19T07:15:47.056Z</time></trkpt><trkpt lat="44.7750117" lon="9.88936"><ele>345.5</ele><time>2026-04-19T07:15:48.053Z</time></trkpt><trkpt lat="44.7749917" lon="9.8892683"><ele>344.0</ele><time>2026-04-19T07:15:49.054Z</time></trkpt><trkpt lat="44.7749783" lon="9.88918"><ele>342.5</ele><time>2026-04-19T07:15:50.054Z</time></trkpt><trkpt lat="44.7749717" lon="9.88901"><ele>341.0</ele><time>2026-04-19T07:15:52.053Z</time></trkpt><trkpt lat="44.774965" lon="9.8889183"><ele>341.0</ele><time>2026-04-19T07:15:53.054Z</time></trkpt><trkpt lat="44.7749533" lon="9.8888183"><ele>341.0</ele><time>2026-04-19T07:15:54.054Z</time></trkpt><trkpt lat="44.774925" lon="9.8887233"><ele>341.0</ele><time>2026-04-19T07:15:55.054Z</time></trkpt><trkpt lat="44.774895" lon="9.888635"><ele>341.0</ele><time>2026-04-19T07:15:56.055Z</time></trkpt><trkpt lat="44.77487" lon="9.88854"><ele>341.0</ele><time>2026-04-19T07:15:57.055Z</time></trkpt><trkpt lat="44.7748533" lon="9.8884367"><ele>341.0</ele><time>2026-04-19T07:15:58.054Z</time></trkpt><trkpt lat="44.7748367" lon="9.8883317"><ele>341.0</ele><time>2026-04-19T07:15:59.055Z</time></trkpt><trkpt lat="44.774815" lon="9.8882333"><ele>342.57142857142856</ele><time>2026-04-19T07:16:00.055Z</time></trkpt><trkpt lat="44.7747933" lon="9.8881417"><ele>344.14285714285717</ele><time>2026-04-19T07:16:01.055Z</time></trkpt><trkpt lat="44.7747783" lon="9.88805"><ele>345.7142857142857</ele><time>2026-04-19T07:16:02.053Z</time></trkpt><trkpt lat="44.7747717" lon="9.8879583"><ele>347.2857142857143</ele><time>2026-04-19T07:16:03.053Z</time></trkpt><trkpt lat="44.7747733" lon="9.8878583"><ele>348.85714285714283</ele><time>2026-04-19T07:16:04.054Z</time></trkpt><trkpt lat="44.774785" lon="9.887745"><ele>350.42857142857144</ele><time>2026-04-19T07:16:05.053Z</time></trkpt><trkpt lat="44.774795" lon="9.8876383"><ele>352.0</ele><time>2026-04-19T07:16:06.053Z</time></trkpt><trkpt lat="44.7747933" lon="9.8875383"><ele>353.5</ele><time>2026-04-19T07:16:07.055Z</time></trkpt><trkpt lat="44.7747933" lon="9.887445"><ele>355.0</ele><time>2026-04-19T07:16:08.054Z</time></trkpt><trkpt lat="44.7748017" lon="9.8872583"><ele>356.5</ele><time>2026-04-19T07:16:10.056Z</time></trkpt><trkpt lat="44.7748167" lon="9.887165"><ele>358.0</ele><time>2026-04-19T07:16:11.054Z</time></trkpt><trkpt lat="44.7748467" lon="9.8870683"><ele>359.5</ele><time>2026-04-19T07:16:12.054Z</time></trkpt><trkpt lat="44.7748783" lon="9.8869733"><ele>361.0</ele><time>2026-04-19T07:16:13.053Z</time></trkpt><trkpt lat="44.7749083" lon="9.8868817"><ele>361.0</ele><time>2026-04-19T07:16:14.054Z</time></trkpt><trkpt lat="44.7749317" lon="9.8867967"><ele>361.0</ele><time>2026-04-19T07:16:15.052Z</time></trkpt><trkpt lat="44.7749617" lon="9.8867083"><ele>361.0</ele><time>2026-04-19T07:16:16.054Z</time></trkpt><trkpt lat="44.7749983" lon="9.8866133"><ele>361.0</ele><time>2026-04-19T07:16:17.054Z</time></trkpt><trkpt lat="44.7750317" lon="9.8865083"><ele>361.0</ele><time>2026-04-19T07:16:18.055Z</time></trkpt><trkpt lat="44.77507" lon="9.886395"><ele>361.0</ele><time>2026-04-19T07:16:19.055Z</time></trkpt><trkpt lat="44.77511" lon="9.8862817"><ele>360.6</ele><time>2026-04-19T07:16:20.055Z</time></trkpt><trkpt lat="44.7751517" lon="9.886175"><ele>360.20000000000005</ele><time>2026-04-19T07:16:21.056Z</time></trkpt><trkpt lat="44.7751783" lon="9.88608"><ele>359.79999999999995</ele><time>2026-04-19T07:16:22.056Z</time></trkpt><trkpt lat="44.775215" lon="9.8859717"><ele>359.4</ele><time>2026-04-19T07:16:24.055Z</time></trkpt><trkpt lat="44.77525" lon="9.8861183"><ele>359.0</ele><time>2026-04-19T07:16:28.055Z</time></trkpt><trkpt lat="44.775285" lon="9.8862633"><ele>363.1666666666667</ele><time>2026-04-19T07:16:30.055Z</time></trkpt><trkpt lat="44.7753567" lon="9.88642"><ele>367.33333333333337</ele><time>2026-04-19T07:16:32.054Z</time></trkpt><trkpt lat="44.7753883" lon="9.8865033"><ele>371.5</ele><time>2026-04-19T07:16:33.055Z</time></trkpt><trkpt lat="44.7754217" lon="9.8865817"><ele>375.6666666666667</ele><time>2026-04-19T07:16:34.055Z</time></trkpt><trkpt lat="44.7754767" lon="9.8866367"><ele>379.8333333333333</ele><time>2026-04-19T07:16:36.056Z</time></trkpt><trkpt lat="44.7754617" lon="9.8865317"><ele>384.0</ele><time>2026-04-19T07:16:38.055Z</time></trkpt><trkpt lat="44.77542" lon="9.88643"><ele>384.0</ele><time>2026-04-19T07:16:39.054Z</time></trkpt><trkpt lat="44.775375" lon="9.88633"><ele>384.0</ele><time>2026-04-19T07:16:40.054Z</time></trkpt><trkpt lat="44.7753383" lon="9.88622"><ele>384.0</ele><time>2026-04-19T07:16:41.054Z</time></trkpt><trkpt lat="44.7753217" lon="9.8861117"><ele>384.0</ele><time>2026-04-19T07:16:42.055Z</time></trkpt><trkpt lat="44.7753317" lon="9.8859933"><ele>384.0</ele><time>2026-04-19T07:16:43.055Z</time></trkpt><trkpt lat="44.7753583" lon="9.88587"><ele>384.0</ele><time>2026-04-19T07:16:44.054Z</time></trkpt><trkpt lat="44.775385" lon="9.885745"><ele>383.2</ele><time>2026-04-19T07:16:45.056Z</time></trkpt><trkpt lat="44.77541" lon="9.88561"><ele>382.4</ele><time>2026-04-19T07:16:46.055Z</time></trkpt><trkpt lat="44.775425" lon="9.885475"><ele>381.6</ele><time>2026-04-19T07:16:47.055Z</time></trkpt><trkpt lat="44.7754317" lon="9.8853467"><ele>380.8</ele><time>2026-04-19T07:16:48.055Z</time></trkpt><trkpt lat="44.775425" lon="9.8852233"><ele>380.0</ele><time>2026-04-19T07:16:49.055Z</time></trkpt><trkpt lat="44.775415" lon="9.8851033"><ele>379.6666666666667</ele><time>2026-04-19T07:16:50.055Z</time></trkpt><trkpt lat="44.7754" lon="9.8849883"><ele>379.33333333333337</ele><time>2026-04-19T07:16:51.054Z</time></trkpt><trkpt lat="44.7753867" lon="9.8848733"><ele>379.0</ele><time>2026-04-19T07:16:52.055Z</time></trkpt><trkpt lat="44.7753633" lon="9.884765"><ele>378.6666666666667</ele><time>2026-04-19T07:16:53.055Z</time></trkpt><trkpt lat="44.7753283" lon="9.8846583"><ele>378.3333333333333</ele><time>2026-04-19T07:16:54.054Z</time></trkpt><trkpt lat="44.7752783" lon="9.88457"><ele>378.0</ele><time>2026-04-19T07:16:55.054Z</time></trkpt><trkpt lat="44.775215" lon="9.8844983"><ele>374.5</ele><time>2026-04-19T07:16:56.055Z</time></trkpt><trkpt lat="44.7751483" lon="9.88444"><ele>371.0</ele><time>2026-04-19T07:16:57.055Z</time></trkpt><trkpt lat="44.7750717" lon="9.8844"><ele>367.5</ele><time>2026-04-19T07:16:58.055Z</time></trkpt><trkpt lat="44.7749883" lon="9.8843817"><ele>364.0</ele><time>2026-04-19T07:16:59.055Z</time></trkpt><trkpt lat="44.7749" lon="9.884375"><ele>360.5</ele><time>2026-04-19T07:17:00.055Z</time></trkpt><trkpt lat="44.7748167" lon="9.884365"><ele>357.0</ele><time>2026-04-19T07:17:01.055Z</time></trkpt><trkpt lat="44.774745" lon="9.8843517"><ele>357.0</ele><time>2026-04-19T07:17:02.055Z</time></trkpt><trkpt lat="44.77468" lon="9.884325"><ele>357.0</ele><time>2026-04-19T07:17:03.056Z</time></trkpt><trkpt lat="44.7746217" lon="9.8842733"><ele>357.0</ele><time>2026-04-19T07:17:04.055Z</time></trkpt><trkpt lat="44.77458" lon="9.8841883"><ele>357.0</ele><time>2026-04-19T07:17:05.055Z</time></trkpt><trkpt lat="44.7745583" lon="9.8840767"><ele>357.0</ele><time>2026-04-19T07:17:06.056Z</time></trkpt><trkpt lat="44.7745433" lon="9.8839567"><ele>357.0</ele><time>2026-04-19T07:17:07.056Z</time></trkpt><trkpt lat="44.77453" lon="9.8838317"><ele>357.3333333333333</ele><time>2026-04-19T07:17:08.055Z</time></trkpt><trkpt lat="44.7745133" lon="9.883715"><ele>357.6666666666667</ele><time>2026-04-19T07:17:09.056Z</time></trkpt><trkpt lat="44.7744883" lon="9.8836133"><ele>358.0</ele><time>2026-04-19T07:17:10.055Z</time></trkpt><trkpt lat="44.7744433" lon="9.88355"><ele>358.33333333333337</ele><time>2026-04-19T07:17:11.055Z</time></trkpt><trkpt lat="44.7743567" lon="9.8835283"><ele>358.6666666666667</ele><time>2026-04-19T07:17:12.055Z</time></trkpt><trkpt lat="44.7742533" lon="9.8835517"><ele>359.0</ele><time>2026-04-19T07:17:13.055Z</time></trkpt><trkpt lat="44.77415" lon="9.8835833"><ele>356.1666666666667</ele><time>2026-04-19T07:17:14.054Z</time></trkpt><trkpt lat="44.77405" lon="9.883605"><ele>353.33333333333337</ele><time>2026-04-19T07:17:15.056Z</time></trkpt><trkpt lat="44.7739633" lon="9.8836067"><ele>350.5</ele><time>2026-04-19T07:17:16.057Z</time></trkpt><trkpt lat="44.7738783" lon="9.883575"><ele>347.6666666666667</ele><time>2026-04-19T07:17:17.056Z</time></trkpt><trkpt lat="44.773815" lon="9.8835117"><ele>344.8333333333333</ele><time>2026-04-19T07:17:18.055Z</time></trkpt><trkpt lat="44.773765" lon="9.8834233"><ele>342.0</ele><time>2026-04-19T07:17:19.057Z</time></trkpt><trkpt lat="44.7737433" lon="9.8833233"><ele>341.6666666666667</ele><time>2026-04-19T07:17:20.056Z</time></trkpt><trkpt lat="44.7737517" lon="9.8832233"><ele>341.3333333333333</ele><time>2026-04-19T07:17:21.055Z</time></trkpt><trkpt lat="44.7738067" lon="9.883125"><ele>341.0</ele><time>2026-04-19T07:17:22.055Z</time></trkpt><trkpt lat="44.7738883" lon="9.8830333"><ele>340.66666666666663</ele><time>2026-04-19T07:17:23.055Z</time></trkpt><trkpt lat="44.7739583" lon="9.88295"><ele>340.3333333333333</ele><time>2026-04-19T07:17:24.056Z</time></trkpt><trkpt lat="44.7740083" lon="9.8828683"><ele>340.0</ele><time>2026-04-19T07:17:25.054Z</time></trkpt><trkpt lat="44.7740133" lon="9.8827167"><ele>340.0</ele><time>2026-04-19T07:17:27.054Z</time></trkpt><trkpt lat="44.7738883" lon="9.882695"><ele>340.0</ele><time>2026-04-19T07:17:29.054Z</time></trkpt><trkpt lat="44.773815" lon="9.8827367"><ele>340.0</ele><time>2026-04-19T07:17:30.055Z</time></trkpt><trkpt lat="44.7737267" lon="9.88282"><ele>340.0</ele><time>2026-04-19T07:17:31.054Z</time></trkpt><trkpt lat="44.7736367" lon="9.8828967"><ele>340.0</ele><time>2026-04-19T07:17:32.054Z</time></trkpt><trkpt lat="44.7735517" lon="9.8829717"><ele>336.3333333333333</ele><time>2026-04-19T07:17:33.054Z</time></trkpt><trkpt lat="44.77347" lon="9.8830333"><ele>332.66666666666663</ele><time>2026-04-19T07:17:34.053Z</time></trkpt><trkpt lat="44.773395" lon="9.8830733"><ele>329.0</ele><time>2026-04-19T07:17:35.055Z</time></trkpt><trkpt lat="44.7733283" lon="9.8830867"><ele>325.3333333333333</ele><time>2026-04-19T07:17:36.054Z</time></trkpt><trkpt lat="44.7732717" lon="9.8830333"><ele>321.6666666666667</ele><time>2026-04-19T07:17:37.055Z</time></trkpt><trkpt lat="44.7732317" lon="9.882945"><ele>318.0</ele><time>2026-04-19T07:17:38.056Z</time></trkpt><trkpt lat="44.7732167" lon="9.8828333"><ele>318.0</ele><time>2026-04-19T07:17:39.053Z</time></trkpt><trkpt lat="44.7732317" lon="9.882725"><ele>318.0</ele><time>2026-04-19T07:17:40.053Z</time></trkpt><trkpt lat="44.7732717" lon="9.8826333"><ele>318.0</ele><time>2026-04-19T07:17:41.053Z</time></trkpt><trkpt lat="44.7733317" lon="9.8825483"><ele>318.0</ele><time>2026-04-19T07:17:42.053Z</time></trkpt><trkpt lat="44.77341" lon="9.8824617"><ele>318.0</ele><time>2026-04-19T07:17:43.053Z</time></trkpt><trkpt lat="44.7734867" lon="9.8823717"><ele>318.0</ele><time>2026-04-19T07:17:44.054Z</time></trkpt><trkpt lat="44.7735633" lon="9.8822783"><ele>321.0</ele><time>2026-04-19T07:17:45.053Z</time></trkpt><trkpt lat="44.773645" lon="9.8821767"><ele>324.0</ele><time>2026-04-19T07:17:46.055Z</time></trkpt><trkpt lat="44.773725" lon="9.88207"><ele>327.0</ele><time>2026-04-19T07:17:47.054Z</time></trkpt><trkpt lat="44.7738067" lon="9.8819567"><ele>330.0</ele><time>2026-04-19T07:17:48.054Z</time></trkpt><trkpt lat="44.773885" lon="9.8818333"><ele>326.3333333333333</ele><time>2026-04-19T07:17:49.054Z</time></trkpt><trkpt lat="44.77396" lon="9.8817117"><ele>322.6666666666667</ele><time>2026-04-19T07:17:50.054Z</time></trkpt><trkpt lat="44.77402" lon="9.8816"><ele>319.0</ele><time>2026-04-19T07:17:51.055Z</time></trkpt><trkpt lat="44.7740783" lon="9.88151"><ele>315.33333333333337</ele><time>2026-04-19T07:17:52.053Z</time></trkpt><trkpt lat="44.7741317" lon="9.8814383"><ele>311.6666666666667</ele><time>2026-04-19T07:17:53.055Z</time></trkpt><trkpt lat="44.7741817" lon="9.8813767"><ele>308.0</ele><time>2026-04-19T07:17:54.056Z</time></trkpt><trkpt lat="44.7742533" lon="9.8812817"><ele>308.0</ele><time>2026-04-19T07:17:56.054Z</time></trkpt><trkpt lat="44.7743117" lon="9.88121"><ele>308.0</ele><time>2026-04-19T07:17:59.055Z</time></trkpt><trkpt lat="44.7742533" lon="9.8811383"><ele>308.0</ele><time>2026-04-19T07:18:22.055Z</time></trkpt><trkpt lat="44.7741717" lon="9.88118"><ele>308.0</ele><time>2026-04-19T07:18:24.053Z</time></trkpt><trkpt lat="44.7740767" lon="9.88124"><ele>308.0</ele><time>2026-04-19T07:18:26.054Z</time></trkpt><trkpt lat="44.773975" lon="9.8813217"><ele>308.0</ele><time>2026-04-19T07:18:28.054Z</time></trkpt><trkpt lat="44.773865" lon="9.8814217"><ele>308.0</ele><time>2026-04-19T07:18:30.054Z</time></trkpt><trkpt lat="44.7737833" lon="9.881485"><ele>308.0</ele><time>2026-04-19T07:18:31.053Z</time></trkpt><trkpt lat="44.7736733" lon="9.8815733"><ele>308.0</ele><time>2026-04-19T07:18:32.055Z</time></trkpt><trkpt lat="44.7735617" lon="9.8816533"><ele>308.6</ele><time>2026-04-19T07:18:33.055Z</time></trkpt><trkpt lat="44.7734567" lon="9.8817233"><ele>309.20000000000005</ele><time>2026-04-19T07:18:34.055Z</time></trkpt><trkpt lat="44.7733617" lon="9.8817867"><ele>309.8</ele><time>2026-04-19T07:18:35.054Z</time></trkpt><trkpt lat="44.7732717" lon="9.881845"><ele>310.40000000000003</ele><time>2026-04-19T07:18:36.054Z</time></trkpt><trkpt lat="44.7731767" lon="9.8819083"><ele>311.0</ele><time>2026-04-19T07:18:37.056Z</time></trkpt><trkpt lat="44.7730817" lon="9.8819767"><ele>311.0</ele><time>2026-04-19T07:18:38.054Z</time></trkpt><trkpt lat="44.7729717" lon="9.8820567"><ele>311.0</ele><time>2026-04-19T07:18:39.054Z</time></trkpt><trkpt lat="44.772835" lon="9.88215"><ele>311.0</ele><time>2026-04-19T07:18:40.055Z</time></trkpt><trkpt lat="44.77268" lon="9.8822567"><ele>311.0</ele><time>2026-04-19T07:18:41.055Z</time></trkpt><trkpt lat="44.772525" lon="9.8823617"><ele>308.0</ele><time>2026-04-19T07:18:42.055Z</time></trkpt><trkpt lat="44.772385" lon="9.882455"><ele>305.0</ele><time>2026-04-19T07:18:43.055Z</time></trkpt><trkpt lat="44.77225" lon="9.8825417"><ele>302.0</ele><time>2026-04-19T07:18:44.054Z</time></trkpt><trkpt lat="44.7721167" lon="9.8826233"><ele>299.0</ele><time>2026-04-19T07:18:45.055Z</time></trkpt><trkpt lat="44.7719833" lon="9.88269"><ele>299.0</ele><time>2026-04-19T07:18:46.054Z</time></trkpt><trkpt lat="44.77186" lon="9.88274"><ele>299.0</ele><time>2026-04-19T07:18:47.055Z</time></trkpt><trkpt lat="44.7717383" lon="9.8827617"><ele>299.0</ele><time>2026-04-19T07:18:48.053Z</time></trkpt><trkpt lat="44.771625" lon="9.88275"><ele>299.0</ele><time>2026-04-19T07:18:49.053Z</time></trkpt><trkpt lat="44.7715317" lon="9.8827217"><ele>298.4</ele><time>2026-04-19T07:18:50.055Z</time></trkpt><trkpt lat="44.77145" lon="9.8826717"><ele>297.79999999999995</ele><time>2026-04-19T07:18:52.054Z</time></trkpt><trkpt lat="44.7715283" lon="9.88261"><ele>297.20000000000005</ele><time>2026-04-19T07:18:55.053Z</time></trkpt><trkpt lat="44.7716367" lon="9.8825633"><ele>296.6</ele><time>2026-04-19T07:18:57.054Z</time></trkpt><trkpt lat="44.771695" lon="9.8825217"><ele>296.0</ele><time>2026-04-19T07:18:58.053Z</time></trkpt><trkpt lat="44.771785" lon="9.88243"><ele>296.0</ele><time>2026-04-19T07:19:00.055Z</time></trkpt><trkpt lat="44.7718267" lon="9.8823433"><ele>296.0</ele><time>2026-04-19T07:19:03.054Z</time></trkpt><trkpt lat="44.7717733" lon="9.8822683"><ele>296.0</ele><time>2026-04-19T07:19:06.054Z</time></trkpt><trkpt lat="44.7716733" lon="9.8822367"><ele>296.0</ele><time>2026-04-19T07:19:08.055Z</time></trkpt><trkpt lat="44.7715617" lon="9.8821883"><ele>296.0</ele><time>2026-04-19T07:19:10.055Z</time></trkpt><trkpt lat="44.77147" lon="9.8820767"><ele>296.0</ele><time>2026-04-19T07:19:12.054Z</time></trkpt><trkpt lat="44.7714317" lon="9.882005"><ele>296.0</ele><time>2026-04-19T07:19:13.056Z</time></trkpt><trkpt lat="44.7713967" lon="9.8819183"><ele>296.0</ele><time>2026-04-19T07:19:14.054Z</time></trkpt><trkpt lat="44.7713733" lon="9.88182"><ele>296.0</ele><time>2026-04-19T07:19:15.054Z</time></trkpt><trkpt lat="44.7713633" lon="9.8817267"><ele>296.0</ele><time>2026-04-19T07:19:16.055Z</time></trkpt><trkpt lat="44.7713383" lon="9.8816267"><ele>296.0</ele><time>2026-04-19T07:19:18.055Z</time></trkpt><trkpt lat="44.771265" lon="9.8815667"><ele>296.0</ele><time>2026-04-19T07:19:20.055Z</time></trkpt><trkpt lat="44.7711467" lon="9.8815467"><ele>294.83333333333337</ele><time>2026-04-19T07:19:22.054Z</time></trkpt><trkpt lat="44.77102" lon="9.8815683"><ele>293.6666666666667</ele><time>2026-04-19T07:19:24.056Z</time></trkpt><trkpt lat="44.7709567" lon="9.8816"><ele>292.5</ele><time>2026-04-19T07:19:25.053Z</time></trkpt><trkpt lat="44.770895" lon="9.8816467"><ele>291.3333333333333</ele><time>2026-04-19T07:19:26.054Z</time></trkpt><trkpt lat="44.7708333" lon="9.8816767"><ele>290.16666666666663</ele><time>2026-04-19T07:19:27.055Z</time></trkpt><trkpt lat="44.7707667" lon="9.8817"><ele>289.0</ele><time>2026-04-19T07:19:28.056Z</time></trkpt><trkpt lat="44.7707017" lon="9.88171"><ele>289.0</ele><time>2026-04-19T07:19:29.054Z</time></trkpt><trkpt lat="44.77058" lon="9.8816867"><ele>289.0</ele><time>2026-04-19T07:19:31.053Z</time></trkpt><trkpt lat="44.7704833" lon="9.8816533"><ele>289.0</ele><time>2026-04-19T07:19:33.055Z</time></trkpt><trkpt lat="44.7703983" lon="9.8816183"><ele>289.0</ele><time>2026-04-19T07:19:35.055Z</time></trkpt><trkpt lat="44.770335" lon="9.8815467"><ele>289.0</ele><time>2026-04-19T07:19:37.055Z</time></trkpt><trkpt lat="44.7702833" lon="9.88149"><ele>289.0</ele><time>2026-04-19T07:19:39.056Z</time></trkpt><trkpt lat="44.770215" lon="9.8814717"><ele>289.0</ele><time>2026-04-19T07:19:41.054Z</time></trkpt><trkpt lat="44.770115" lon="9.8814033"><ele>289.0</ele><time>2026-04-19T07:19:43.055Z</time></trkpt><trkpt lat="44.770055" lon="9.8813583"><ele>289.0</ele><time>2026-04-19T07:19:44.054Z</time></trkpt><trkpt lat="44.7699883" lon="9.8813133"><ele>289.0</ele><time>2026-04-19T07:19:45.055Z</time></trkpt><trkpt lat="44.7699233" lon="9.881265"><ele>289.0</ele><time>2026-04-19T07:19:46.055Z</time></trkpt><trkpt lat="44.7698533" lon="9.8812167"><ele>289.3333333333333</ele><time>2026-04-19T07:19:47.055Z</time></trkpt><trkpt lat="44.7697817" lon="9.88117"><ele>289.66666666666663</ele><time>2026-04-19T07:19:48.055Z</time></trkpt><trkpt lat="44.7697133" lon="9.88112"><ele>290.0</ele><time>2026-04-19T07:19:49.055Z</time></trkpt><trkpt lat="44.7696483" lon="9.88108"><ele>290.3333333333333</ele><time>2026-04-19T07:19:50.054Z</time></trkpt><trkpt lat="44.7695467" lon="9.8810333"><ele>290.6666666666667</ele><time>2026-04-19T07:19:52.054Z</time></trkpt><trkpt lat="44.7694567" lon="9.8810567"><ele>291.0</ele><time>2026-04-19T07:19:54.053Z</time></trkpt><trkpt lat="44.76936" lon="9.8810983"><ele>292.2</ele><time>2026-04-19T07:19:56.055Z</time></trkpt><trkpt lat="44.7692483" lon="9.8810833"><ele>293.40000000000003</ele><time>2026-04-19T07:19:58.056Z</time></trkpt><trkpt lat="44.7691217" lon="9.8810333"><ele>294.6</ele><time>2026-04-19T07:20:00.056Z</time></trkpt><trkpt lat="44.769035" lon="9.881025"><ele>295.8</ele><time>2026-04-19T07:20:01.055Z</time></trkpt><trkpt lat="44.76895" lon="9.8810183"><ele>297.0</ele><time>2026-04-19T07:20:02.055Z</time></trkpt><trkpt lat="44.7688633" lon="9.88101"><ele>297.0</ele><time>2026-04-19T07:20:03.054Z</time></trkpt><trkpt lat="44.7687833" lon="9.8809933"><ele>297.0</ele><time>2026-04-19T07:20:04.053Z</time></trkpt><trkpt lat="44.768715" lon="9.8809783"><ele>297.0</ele><time>2026-04-19T07:20:05.056Z</time></trkpt><trkpt lat="44.7686333" lon="9.880935"><ele>297.0</ele><time>2026-04-19T07:20:07.056Z</time></trkpt><trkpt lat="44.768525" lon="9.8809132"><ele>297.0</ele><time>2026-04-19T07:21:50.14Z</time></trkpt><trkpt lat="44.7685119" lon="9.8810183"><ele>297.0</ele><time>2026-04-19T07:24:05.12Z</time></trkpt><trkpt lat="44.7684152" lon="9.8811558"><ele>296.3333333333333</ele><time>2026-04-19T07:24:07.153Z</time></trkpt><trkpt lat="44.768284" lon="9.8813726"><ele>295.66666666666663</ele><time>2026-04-19T07:24:10.054Z</time></trkpt><trkpt lat="44.7681683" lon="9.88162"><ele>295.0</ele><time>2026-04-19T07:24:14.055Z</time></trkpt><trkpt lat="44.7681083" lon="9.881525"><ele>295.0</ele><time>2026-04-19T07:24:20.054Z</time></trkpt><trkpt lat="44.76805" lon="9.881415"><ele>295.0</ele><time>2026-04-19T07:24:22.055Z</time></trkpt><trkpt lat="44.7680317" lon="9.881315"><ele>295.0</ele><time>2026-04-19T07:24:24.055Z</time></trkpt><trkpt lat="44.7680333" lon="9.881175"><ele>295.0</ele><time>2026-04-19T07:24:26.054Z</time></trkpt><trkpt lat="44.7680517" lon="9.8810017"><ele>295.0</ele><time>2026-04-19T07:24:28.054Z</time></trkpt><trkpt lat="44.76807" lon="9.8808467"><ele>294.66666666666663</ele><time>2026-04-19T07:24:30.056Z</time></trkpt><trkpt lat="44.7680717" lon="9.8807233"><ele>294.3333333333333</ele><time>2026-04-19T07:24:32.055Z</time></trkpt><trkpt lat="44.7680733" lon="9.8806"><ele>294.0</ele><time>2026-04-19T07:24:34.054Z</time></trkpt><trkpt lat="44.768075" lon="9.8804783"><ele>293.6666666666667</ele><time>2026-04-19T07:24:36.054Z</time></trkpt><trkpt lat="44.7680667" lon="9.88032"><ele>293.33333333333337</ele><time>2026-04-19T07:24:38.055Z</time></trkpt><trkpt lat="44.7680533" lon="9.8802233"><ele>293.0</ele><time>2026-04-19T07:24:39.056Z</time></trkpt><trkpt lat="44.768045" lon="9.88013"><ele>292.83333333333337</ele><time>2026-04-19T07:24:40.055Z</time></trkpt><trkpt lat="44.7680467" lon="9.8799717"><ele>292.6666666666667</ele><time>2026-04-19T07:24:42.056Z</time></trkpt><trkpt lat="44.7680867" lon="9.87981"><ele>292.5</ele><time>2026-04-19T07:24:44.055Z</time></trkpt><trkpt lat="44.768125" lon="9.8797183"><ele>292.3333333333333</ele><time>2026-04-19T07:24:45.055Z</time></trkpt><trkpt lat="44.768165" lon="9.8796367"><ele>292.16666666666663</ele><time>2026-04-19T07:24:46.055Z</time></trkpt><trkpt lat="44.768205" lon="9.8795583"><ele>292.0</ele><time>2026-04-19T07:24:47.055Z</time></trkpt><trkpt lat="44.7682383" lon="9.87947"><ele>292.0</ele><time>2026-04-19T07:24:48.056Z</time></trkpt><trkpt lat="44.7682717" lon="9.87938"><ele>292.0</ele><time>2026-04-19T07:24:49.054Z</time></trkpt><trkpt lat="44.7683083" lon="9.87929"><ele>292.0</ele><time>2026-04-19T07:24:50.056Z</time></trkpt><trkpt lat="44.7683417" lon="9.8791933"><ele>292.0</ele><time>2026-04-19T07:24:51.056Z</time></trkpt><trkpt lat="44.7683683" lon="9.8790983"><ele>292.0</ele><time>2026-04-19T07:24:52.055Z</time></trkpt><trkpt lat="44.76839" lon="9.8789983"><ele>292.0</ele><time>2026-04-19T07:24:53.055Z</time></trkpt><trkpt lat="44.7684067" lon="9.878895"><ele>292.0</ele><time>2026-04-19T07:24:54.055Z</time></trkpt><trkpt lat="44.7684183" lon="9.8787883"><ele>292.8333333333333</ele><time>2026-04-19T07:24:55.055Z</time></trkpt><trkpt lat="44.7684367" lon="9.8786867"><ele>293.66666666666663</ele><time>2026-04-19T07:24:56.055Z</time></trkpt><trkpt lat="44.7684567" lon="9.878585"><ele>294.5</ele><time>2026-04-19T07:24:57.056Z</time></trkpt><trkpt lat="44.7684683" lon="9.8784933"><ele>295.3333333333333</ele><time>2026-04-19T07:24:58.055Z</time></trkpt><trkpt lat="44.76849" lon="9.8783683"><ele>296.1666666666667</ele><time>2026-04-19T07:25:00.055Z</time></trkpt><trkpt lat="44.7684317" lon="9.8784633"><ele>297.0</ele><time>2026-04-19T07:25:08.055Z</time></trkpt><trkpt lat="44.7683667" lon="9.878595"><ele>297.0</ele><time>2026-04-19T07:25:10.055Z</time></trkpt><trkpt lat="44.768285" lon="9.8787017"><ele>297.0</ele><time>2026-04-19T07:25:12.055Z</time></trkpt><trkpt lat="44.7682233" lon="9.8787883"><ele>297.0</ele><time>2026-04-19T07:25:14.055Z</time></trkpt><trkpt lat="44.7681467" lon="9.8788483"><ele>297.0</ele><time>2026-04-19T07:25:16.054Z</time></trkpt><trkpt lat="44.7680767" lon="9.8789567"><ele>297.0</ele><time>2026-04-19T07:25:18.055Z</time></trkpt><trkpt lat="44.7680067" lon="9.8790633"><ele>297.0</ele><time>2026-04-19T07:25:20.055Z</time></trkpt><trkpt lat="44.767935" lon="9.8791583"><ele>297.0</ele><time>2026-04-19T07:25:22.055Z</time></trkpt><trkpt lat="44.76788" lon="9.8792633"><ele>297.0</ele><time>2026-04-19T07:25:24.055Z</time></trkpt><trkpt lat="44.767835" lon="9.8793617"><ele>297.0</ele><time>2026-04-19T07:25:26.055Z</time></trkpt><trkpt lat="44.767795" lon="9.8794383"><ele>297.0</ele><time>2026-04-19T07:25:31.055Z</time></trkpt><trkpt lat="44.7677417" lon="9.87949"><ele>297.0</ele><time>2026-04-19T07:25:35.054Z</time></trkpt><trkpt lat="44.767675" lon="9.8795283"><ele>300.2</ele><time>2026-04-19T07:25:37.054Z</time></trkpt><trkpt lat="44.7675817" lon="9.8795917"><ele>303.4</ele><time>2026-04-19T07:25:39.054Z</time></trkpt><trkpt lat="44.7674733" lon="9.87966"><ele>306.6</ele><time>2026-04-19T07:25:41.055Z</time></trkpt><trkpt lat="44.7673883" lon="9.8797417"><ele>309.8</ele><time>2026-04-19T07:25:43.055Z</time></trkpt><trkpt lat="44.7673433" lon="9.8798733"><ele>313.0</ele><time>2026-04-19T07:25:45.055Z</time></trkpt><trkpt lat="44.7672983" lon="9.8800117"><ele>313.0</ele><time>2026-04-19T07:25:47.055Z</time></trkpt><trkpt lat="44.7672417" lon="9.8801017"><ele>313.0</ele><time>2026-04-19T07:25:49.055Z</time></trkpt><trkpt lat="44.7671717" lon="9.8801017"><ele>313.0</ele><time>2026-04-19T07:25:52.056Z</time></trkpt><trkpt lat="44.7671183" lon="9.880045"><ele>313.0</ele><time>2026-04-19T07:25:55.054Z</time></trkpt><trkpt lat="44.767045" lon="9.87996"><ele>313.0</ele><time>2026-04-19T07:25:58.055Z</time></trkpt><trkpt lat="44.767035" lon="9.8798717"><ele>313.0</ele><time>2026-04-19T07:26:00.056Z</time></trkpt><trkpt lat="44.76704" lon="9.8797817"><ele>313.0</ele><time>2026-04-19T07:26:02.054Z</time></trkpt><trkpt lat="44.7670483" lon="9.8796817"><ele>313.0</ele><time>2026-04-19T07:26:05.054Z</time></trkpt><trkpt lat="44.7670067" lon="9.87952"><ele>313.0</ele><time>2026-04-19T07:26:35.056Z</time></trkpt><trkpt lat="44.7669867" lon="9.8794217"><ele>313.0</ele><time>2026-04-19T07:27:05.056Z</time></trkpt><trkpt lat="44.7669533" lon="9.87934"><ele>313.0</ele><time>2026-04-19T07:27:08.054Z</time></trkpt><trkpt lat="44.7669283" lon="9.8792567"><ele>313.0</ele><time>2026-04-19T07:27:10.055Z</time></trkpt><trkpt lat="44.7668783" lon="9.8791967"><ele>313.0</ele><time>2026-04-19T07:27:12.056Z</time></trkpt><trkpt lat="44.7668167" lon="9.8792367"><ele>317.3333333333333</ele><time>2026-04-19T07:27:15.056Z</time></trkpt><trkpt lat="44.7667867" lon="9.8793617"><ele>321.66666666666663</ele><time>2026-04-19T07:27:18.057Z</time></trkpt><trkpt lat="44.76675" lon="9.8794683"><ele>326.0</ele><time>2026-04-19T07:27:20.057Z</time></trkpt><trkpt lat="44.7666867" lon="9.8795367"><ele>330.3333333333333</ele><time>2026-04-19T07:27:22.056Z</time></trkpt><trkpt lat="44.7666033" lon="9.8794633"><ele>334.6666666666667</ele><time>2026-04-19T07:27:25.057Z</time></trkpt><trkpt lat="44.7665383" lon="9.8793717"><ele>339.0</ele><time>2026-04-19T07:27:27.055Z</time></trkpt><trkpt lat="44.7664867" lon="9.8792433"><ele>340.2</ele><time>2026-04-19T07:27:29.056Z</time></trkpt><trkpt lat="44.7664483" lon="9.8791117"><ele>341.4</ele><time>2026-04-19T07:27:31.056Z</time></trkpt><trkpt lat="44.766405" lon="9.87896"><ele>342.6</ele><time>2026-04-19T07:27:33.055Z</time></trkpt><trkpt lat="44.7663317" lon="9.87884"><ele>343.8</ele><time>2026-04-19T07:27:35.056Z</time></trkpt><trkpt lat="44.7662533" lon="9.878765"><ele>345.0</ele><time>2026-04-19T07:27:37.055Z</time></trkpt><trkpt lat="44.7661817" lon="9.8786767"><ele>345.0</ele><time>2026-04-19T07:27:39.055Z</time></trkpt><trkpt lat="44.76615" lon="9.8785667"><ele>345.0</ele><time>2026-04-19T07:27:41.055Z</time></trkpt><trkpt lat="44.7661283" lon="9.8784833"><ele>345.0</ele><time>2026-04-19T07:27:43.054Z</time></trkpt><trkpt lat="44.766085" lon="9.8783883"><ele>345.0</ele><time>2026-04-19T07:27:45.056Z</time></trkpt><trkpt lat="44.766025" lon="9.8782733"><ele>345.0</ele><time>2026-04-19T07:27:47.056Z</time></trkpt><trkpt lat="44.765965" lon="9.8781183"><ele>348.2857142857143</ele><time>2026-04-19T07:27:49.056Z</time></trkpt><trkpt lat="44.7659333" lon="9.878035"><ele>351.57142857142856</ele><time>2026-04-19T07:27:50.056Z</time></trkpt><trkpt lat="44.765905" lon="9.877955"><ele>354.8571428571429</ele><time>2026-04-19T07:27:51.057Z</time></trkpt><trkpt lat="44.765875" lon="9.8778767"><ele>358.1428571428571</ele><time>2026-04-19T07:27:52.057Z</time></trkpt><trkpt lat="44.76584" lon="9.877795"><ele>361.4285714285714</ele><time>2026-04-19T07:27:53.055Z</time></trkpt><trkpt lat="44.7657967" lon="9.8777217"><ele>364.7142857142857</ele><time>2026-04-19T07:27:54.057Z</time></trkpt><trkpt lat="44.76575" lon="9.8776433"><ele>368.0</ele><time>2026-04-19T07:27:55.056Z</time></trkpt><trkpt lat="44.765665" lon="9.877535"><ele>369.0</ele><time>2026-04-19T07:27:57.055Z</time></trkpt><trkpt lat="44.765595" lon="9.8774183"><ele>370.0</ele><time>2026-04-19T07:27:59.055Z</time></trkpt><trkpt lat="44.7655517" lon="9.8772833"><ele>371.0</ele><time>2026-04-19T07:28:01.056Z</time></trkpt><trkpt lat="44.7655117" lon="9.8771317"><ele>372.0</ele><time>2026-04-19T07:28:03.056Z</time></trkpt><trkpt lat="44.7654817" lon="9.87697"><ele>373.0</ele><time>2026-04-19T07:28:05.058Z</time></trkpt><trkpt lat="44.7654567" lon="9.8768067"><ele>374.3333333333333</ele><time>2026-04-19T07:28:07.055Z</time></trkpt><trkpt lat="44.76543" lon="9.876715"><ele>375.66666666666663</ele><time>2026-04-19T07:28:08.058Z</time></trkpt><trkpt lat="44.7653983" lon="9.8766267"><ele>377.0</ele><time>2026-04-19T07:28:09.056Z</time></trkpt><trkpt lat="44.7653683" lon="9.8765383"><ele>378.3333333333333</ele><time>2026-04-19T07:28:10.055Z</time></trkpt><trkpt lat="44.765315" lon="9.87639"><ele>379.6666666666667</ele><time>2026-04-19T07:28:12.055Z</time></trkpt><trkpt lat="44.7652717" lon="9.8762983"><ele>381.0</ele><time>2026-04-19T07:28:14.055Z</time></trkpt><trkpt lat="44.7652017" lon="9.8763317"><ele>384.3333333333333</ele><time>2026-04-19T07:28:16.057Z</time></trkpt><trkpt lat="44.7650917" lon="9.8764"><ele>387.66666666666663</ele><time>2026-04-19T07:28:18.057Z</time></trkpt><trkpt lat="44.7650317" lon="9.8764433"><ele>391.0</ele><time>2026-04-19T07:28:19.055Z</time></trkpt><trkpt lat="44.7649717" lon="9.8764933"><ele>394.3333333333333</ele><time>2026-04-19T07:28:20.056Z</time></trkpt><trkpt lat="44.7649083" lon="9.8765433"><ele>397.66666666666663</ele><time>2026-04-19T07:28:21.055Z</time></trkpt><trkpt lat="44.76484" lon="9.87659"><ele>401.0</ele><time>2026-04-19T07:28:22.056Z</time></trkpt><trkpt lat="44.76478" lon="9.8766333"><ele>400.99999999999994</ele><time>2026-04-19T07:28:23.057Z</time></trkpt><trkpt lat="44.76471" lon="9.8766817"><ele>401.0</ele><time>2026-04-19T07:28:24.056Z</time></trkpt><trkpt lat="44.7646383" lon="9.8767467"><ele>401.0</ele><time>2026-04-19T07:28:25.058Z</time></trkpt><trkpt lat="44.7645833" lon="9.8767933"><ele>401.0</ele><time>2026-04-19T07:28:26.056Z</time></trkpt><trkpt lat="44.764495" lon="9.8768733"><ele>400.99999999999994</ele><time>2026-04-19T07:28:28.056Z</time></trkpt><trkpt lat="44.76443" lon="9.8769083"><ele>401.0</ele><time>2026-04-19T07:28:30.055Z</time></trkpt><trkpt lat="44.7643633" lon="9.8768317"><ele>406.0</ele><time>2026-04-19T07:28:33.056Z</time></trkpt><trkpt lat="44.7643267" lon="9.8767083"><ele>411.0</ele><time>2026-04-19T07:28:35.055Z</time></trkpt><trkpt lat="44.7642833" lon="9.8765633"><ele>416.0</ele><time>2026-04-19T07:28:37.056Z</time></trkpt><trkpt lat="44.76422" lon="9.8764333"><ele>421.0</ele><time>2026-04-19T07:28:39.054Z</time></trkpt><trkpt lat="44.76417" lon="9.8763433"><ele>426.0</ele><time>2026-04-19T07:28:41.054Z</time></trkpt><trkpt lat="44.7641617" lon="9.8764633"><ele>426.0</ele><time>2026-04-19T07:28:45.054Z</time></trkpt><trkpt lat="44.7641733" lon="9.876635"><ele>426.0</ele><time>2026-04-19T07:28:47.056Z</time></trkpt><trkpt lat="44.7641567" lon="9.8767383"><ele>426.0</ele><time>2026-04-19T07:28:48.056Z</time></trkpt><trkpt lat="44.764145" lon="9.87689"><ele>426.0</ele><time>2026-04-19T07:28:50.054Z</time></trkpt><trkpt lat="44.764125" lon="9.8769783"><ele>426.0</ele><time>2026-04-19T07:28:51.056Z</time></trkpt><trkpt lat="44.76405" lon="9.877105"><ele>426.0</ele><time>2026-04-19T07:28:53.056Z</time></trkpt><trkpt lat="44.76399" lon="9.8771333"><ele>426.0</ele><time>2026-04-19T07:28:54.055Z</time></trkpt><trkpt lat="44.7639283" lon="9.8771017"><ele>426.0</ele><time>2026-04-19T07:28:55.057Z</time></trkpt><trkpt lat="44.7638283" lon="9.8769883"><ele>426.0</ele><time>2026-04-19T07:28:57.056Z</time></trkpt><trkpt lat="44.7637983" lon="9.876885"><ele>426.0</ele><time>2026-04-19T07:28:58.056Z</time></trkpt><trkpt lat="44.76378" lon="9.8767617"><ele>426.0</ele><time>2026-04-19T07:28:59.056Z</time></trkpt><trkpt lat="44.763755" lon="9.876635"><ele>426.0</ele><time>2026-04-19T07:29:00.055Z</time></trkpt><trkpt lat="44.7637267" lon="9.876525"><ele>426.0</ele><time>2026-04-19T07:29:01.058Z</time></trkpt><trkpt lat="44.7636883" lon="9.876425"><ele>426.0</ele><time>2026-04-19T07:29:02.057Z</time></trkpt><trkpt lat="44.7636483" lon="9.8763333"><ele>426.0</ele><time>2026-04-19T07:29:03.056Z</time></trkpt><trkpt lat="44.7636017" lon="9.8762367"><ele>426.0</ele><time>2026-04-19T07:29:04.056Z</time></trkpt><trkpt lat="44.7635583" lon="9.8761433"><ele>426.0</ele><time>2026-04-19T07:29:05.055Z</time></trkpt><trkpt lat="44.7635183" lon="9.8760617"><ele>428.0</ele><time>2026-04-19T07:29:06.056Z</time></trkpt><trkpt lat="44.76343" lon="9.8759633"><ele>430.0</ele><time>2026-04-19T07:29:08.057Z</time></trkpt><trkpt lat="44.7633133" lon="9.8759483"><ele>432.0</ele><time>2026-04-19T07:29:10.057Z</time></trkpt><trkpt lat="44.7632417" lon="9.875965"><ele>434.0</ele><time>2026-04-19T07:29:11.055Z</time></trkpt><trkpt lat="44.7631667" lon="9.875995"><ele>436.0</ele><time>2026-04-19T07:29:12.054Z</time></trkpt><trkpt lat="44.7631" lon="9.87602"><ele>438.0</ele><time>2026-04-19T07:29:13.055Z</time></trkpt><trkpt lat="44.7630367" lon="9.8760117"><ele>439.8333333333333</ele><time>2026-04-19T07:29:14.054Z</time></trkpt><trkpt lat="44.7629283" lon="9.8759367"><ele>441.66666666666663</ele><time>2026-04-19T07:29:16.054Z</time></trkpt><trkpt lat="44.76286" lon="9.8758933"><ele>443.5</ele><time>2026-04-19T07:29:17.054Z</time></trkpt><trkpt lat="44.7627833" lon="9.875865"><ele>445.3333333333333</ele><time>2026-04-19T07:29:18.055Z</time></trkpt><trkpt lat="44.76271" lon="9.8758533"><ele>447.16666666666663</ele><time>2026-04-19T07:29:19.054Z</time></trkpt><trkpt lat="44.7626433" lon="9.875835"><ele>449.0</ele><time>2026-04-19T07:29:20.054Z</time></trkpt><trkpt lat="44.7625767" lon="9.875805"><ele>449.49999999999994</ele><time>2026-04-19T07:29:21.054Z</time></trkpt><trkpt lat="44.7625217" lon="9.8757533"><ele>450.0</ele><time>2026-04-19T07:29:22.055Z</time></trkpt><trkpt lat="44.7624733" lon="9.8756767"><ele>450.5</ele><time>2026-04-19T07:29:23.055Z</time></trkpt><trkpt lat="44.7624333" lon="9.8755717"><ele>451.0</ele><time>2026-04-19T07:29:24.054Z</time></trkpt><trkpt lat="44.7623983" lon="9.875445"><ele>451.49999999999994</ele><time>2026-04-19T07:29:25.054Z</time></trkpt><trkpt lat="44.7623533" lon="9.8753417"><ele>452.0</ele><time>2026-04-19T07:29:26.055Z</time></trkpt><trkpt lat="44.7623117" lon="9.8752483"><ele>451.99999999999994</ele><time>2026-04-19T07:29:27.056Z</time></trkpt><trkpt lat="44.7622533" lon="9.87517"><ele>452.0</ele><time>2026-04-19T07:29:28.056Z</time></trkpt><trkpt lat="44.7621933" lon="9.8751017"><ele>452.0</ele><time>2026-04-19T07:29:29.055Z</time></trkpt><trkpt lat="44.7621267" lon="9.875045"><ele>452.0</ele><time>2026-04-19T07:29:30.055Z</time></trkpt><trkpt lat="44.76205" lon="9.87501"><ele>451.99999999999994</ele><time>2026-04-19T07:29:31.057Z</time></trkpt><trkpt lat="44.7619717" lon="9.8749983"><ele>452.0</ele><time>2026-04-19T07:29:32.054Z</time></trkpt><trkpt lat="44.7619083" lon="9.874985"><ele>453.8</ele><time>2026-04-19T07:29:33.055Z</time></trkpt><trkpt lat="44.7618483" lon="9.874945"><ele>455.6</ele><time>2026-04-19T07:29:35.055Z</time></trkpt><trkpt lat="44.76191" lon="9.8748467"><ele>457.40000000000003</ele><time>2026-04-19T07:29:38.055Z</time></trkpt><trkpt lat="44.7619833" lon="9.8746933"><ele>459.20000000000005</ele><time>2026-04-19T07:29:40.055Z</time></trkpt><trkpt lat="44.761995" lon="9.8745817"><ele>461.0</ele><time>2026-04-19T07:29:41.057Z</time></trkpt><trkpt lat="44.762005" lon="9.8744533"><ele>461.0</ele><time>2026-04-19T07:29:42.055Z</time></trkpt><trkpt lat="44.7620133" lon="9.8743133"><ele>461.0</ele><time>2026-04-19T07:29:43.057Z</time></trkpt><trkpt lat="44.76201" lon="9.8741717"><ele>461.0</ele><time>2026-04-19T07:29:44.056Z</time></trkpt><trkpt lat="44.76199" lon="9.8740317"><ele>461.0</ele><time>2026-04-19T07:29:45.056Z</time></trkpt><trkpt lat="44.7619533" lon="9.8739033"><ele>461.0</ele><time>2026-04-19T07:29:46.056Z</time></trkpt><trkpt lat="44.7619" lon="9.873785"><ele>463.16666666666663</ele><time>2026-04-19T07:29:47.057Z</time></trkpt><trkpt lat="44.76185" lon="9.8736683"><ele>465.3333333333333</ele><time>2026-04-19T07:29:48.056Z</time></trkpt><trkpt lat="44.7618167" lon="9.873555"><ele>467.5</ele><time>2026-04-19T07:29:49.055Z</time></trkpt><trkpt lat="44.7617967" lon="9.8734433"><ele>469.66666666666663</ele><time>2026-04-19T07:29:50.056Z</time></trkpt><trkpt lat="44.76179" lon="9.8733333"><ele>471.8333333333333</ele><time>2026-04-19T07:29:51.055Z</time></trkpt><trkpt lat="44.7617967" lon="9.87323"><ele>474.0</ele><time>2026-04-19T07:29:52.055Z</time></trkpt><trkpt lat="44.76181" lon="9.8731317"><ele>474.1666666666667</ele><time>2026-04-19T07:29:53.055Z</time></trkpt><trkpt lat="44.7618117" lon="9.873035"><ele>474.33333333333337</ele><time>2026-04-19T07:29:54.056Z</time></trkpt><trkpt lat="44.7617917" lon="9.872935"><ele>474.5</ele><time>2026-04-19T07:29:55.055Z</time></trkpt><trkpt lat="44.7617633" lon="9.87282"><ele>474.6666666666667</ele><time>2026-04-19T07:29:56.055Z</time></trkpt><trkpt lat="44.7617217" lon="9.8727083"><ele>474.83333333333337</ele><time>2026-04-19T07:29:57.056Z</time></trkpt><trkpt lat="44.76167" lon="9.8726133"><ele>475.0</ele><time>2026-04-19T07:29:58.054Z</time></trkpt><trkpt lat="44.761605" lon="9.87253"><ele>474.0</ele><time>2026-04-19T07:29:59.055Z</time></trkpt><trkpt lat="44.7615183" lon="9.8724667"><ele>473.0</ele><time>2026-04-19T07:30:00.057Z</time></trkpt><trkpt lat="44.7614233" lon="9.8724217"><ele>472.0</ele><time>2026-04-19T07:30:01.055Z</time></trkpt><trkpt lat="44.7613133" lon="9.8724033"><ele>471.0</ele><time>2026-04-19T07:30:02.056Z</time></trkpt><trkpt lat="44.76118" lon="9.8723933"><ele>470.0</ele><time>2026-04-19T07:30:03.056Z</time></trkpt><trkpt lat="44.761045" lon="9.872395"><ele>475.5</ele><time>2026-04-19T07:30:04.056Z</time></trkpt><trkpt lat="44.7609217" lon="9.8723983"><ele>481.0</ele><time>2026-04-19T07:30:05.055Z</time></trkpt><trkpt lat="44.7608017" lon="9.8723817"><ele>486.5</ele><time>2026-04-19T07:30:06.055Z</time></trkpt><trkpt lat="44.7606867" lon="9.8723533"><ele>492.0</ele><time>2026-04-19T07:30:07.054Z</time></trkpt><trkpt lat="44.76058" lon="9.8723183"><ele>492.0</ele><time>2026-04-19T07:30:08.055Z</time></trkpt><trkpt lat="44.7604717" lon="9.8722867"><ele>492.00000000000006</ele><time>2026-04-19T07:30:09.054Z</time></trkpt><trkpt lat="44.7603667" lon="9.8722567"><ele>492.00000000000006</ele><time>2026-04-19T07:30:10.056Z</time></trkpt><trkpt lat="44.760265" lon="9.8722267"><ele>492.0</ele><time>2026-04-19T07:30:11.053Z</time></trkpt><trkpt lat="44.7601633" lon="9.8721967"><ele>492.0</ele><time>2026-04-19T07:30:12.054Z</time></trkpt><trkpt lat="44.76007" lon="9.8721417"><ele>495.20000000000005</ele><time>2026-04-19T07:30:13.054Z</time></trkpt><trkpt lat="44.7599783" lon="9.8720917"><ele>498.40000000000003</ele><time>2026-04-19T07:30:14.054Z</time></trkpt><trkpt lat="44.7598917" lon="9.87206"><ele>501.59999999999997</ele><time>2026-04-19T07:30:15.054Z</time></trkpt><trkpt lat="44.7598083" lon="9.8720467"><ele>504.79999999999995</ele><time>2026-04-19T07:30:16.054Z</time></trkpt><trkpt lat="44.7597217" lon="9.8720417"><ele>508.0</ele><time>2026-04-19T07:30:17.053Z</time></trkpt><trkpt lat="44.7596233" lon="9.872045"><ele>508.0</ele><time>2026-04-19T07:30:18.053Z</time></trkpt><trkpt lat="44.7595183" lon="9.8720617"><ele>507.99999999999994</ele><time>2026-04-19T07:30:19.056Z</time></trkpt><trkpt lat="44.7594183" lon="9.872095"><ele>507.99999999999994</ele><time>2026-04-19T07:30:20.054Z</time></trkpt><trkpt lat="44.759325" lon="9.8721367"><ele>508.0</ele><time>2026-04-19T07:30:21.055Z</time></trkpt><trkpt lat="44.75924" lon="9.8721817"><ele>508.0</ele><time>2026-04-19T07:30:22.054Z</time></trkpt><trkpt lat="44.7591483" lon="9.872215"><ele>508.33333333333337</ele><time>2026-04-19T07:30:23.054Z</time></trkpt><trkpt lat="44.75905" lon="9.8722433"><ele>508.6666666666667</ele><time>2026-04-19T07:30:24.053Z</time></trkpt><trkpt lat="44.7589583" lon="9.8722633"><ele>509.0</ele><time>2026-04-19T07:30:25.053Z</time></trkpt><trkpt lat="44.758875" lon="9.872275"><ele>509.33333333333337</ele><time>2026-04-19T07:30:26.056Z</time></trkpt><trkpt lat="44.75879" lon="9.8722867"><ele>509.6666666666667</ele><time>2026-04-19T07:30:27.054Z</time></trkpt><trkpt lat="44.758705" lon="9.8723"><ele>510.0</ele><time>2026-04-19T07:30:28.055Z</time></trkpt><trkpt lat="44.758625" lon="9.8723183"><ele>510.0</ele><time>2026-04-19T07:30:29.055Z</time></trkpt><trkpt lat="44.75856" lon="9.8723333"><ele>510.0</ele><time>2026-04-19T07:30:30.056Z</time></trkpt><trkpt lat="44.7584683" lon="9.8723567"><ele>510.0</ele><time>2026-04-19T07:30:32.055Z</time></trkpt><trkpt lat="44.7584083" lon="9.872385"><ele>510.0</ele><time>2026-04-19T07:30:35.056Z</time></trkpt><trkpt lat="44.7583" lon="9.8724333"><ele>510.0</ele><time>2026-04-19T07:32:43.054Z</time></trkpt><trkpt lat="44.75821" lon="9.8724717"><ele>510.0</ele><time>2026-04-19T07:32:44.054Z</time></trkpt><trkpt lat="44.7581117" lon="9.8725317"><ele>510.0</ele><time>2026-04-19T07:32:45.053Z</time></trkpt><trkpt lat="44.758015" lon="9.8726083"><ele>510.0</ele><time>2026-04-19T07:32:46.054Z</time></trkpt><trkpt lat="44.7579183" lon="9.8726817"><ele>510.0</ele><time>2026-04-19T07:32:47.053Z</time></trkpt><trkpt lat="44.7578133" lon="9.8727483"><ele>510.0</ele><time>2026-04-19T07:32:48.054Z</time></trkpt><trkpt lat="44.7577017" lon="9.8728167"><ele>513.0</ele><time>2026-04-19T07:32:49.054Z</time></trkpt><trkpt lat="44.75759" lon="9.87289"><ele>516.0</ele><time>2026-04-19T07:32:50.056Z</time></trkpt><trkpt lat="44.7574767" lon="9.8729617"><ele>519.0</ele><time>2026-04-19T07:32:51.054Z</time></trkpt><trkpt lat="44.7573667" lon="9.87303"><ele>522.0</ele><time>2026-04-19T07:32:52.054Z</time></trkpt><trkpt lat="44.757265" lon="9.8730967"><ele>522.0</ele><time>2026-04-19T07:32:53.055Z</time></trkpt><trkpt lat="44.75717" lon="9.87316"><ele>522.0</ele><time>2026-04-19T07:32:54.054Z</time></trkpt><trkpt lat="44.7570883" lon="9.8732117"><ele>522.0</ele><time>2026-04-19T07:32:55.054Z</time></trkpt><trkpt lat="44.75701" lon="9.8732417"><ele>522.0</ele><time>2026-04-19T07:32:56.055Z</time></trkpt><trkpt lat="44.7569317" lon="9.873245"><ele>522.0</ele><time>2026-04-19T07:32:57.054Z</time></trkpt><trkpt lat="44.75686" lon="9.8732383"><ele>522.0</ele><time>2026-04-19T07:32:58.055Z</time></trkpt><trkpt lat="44.7567983" lon="9.87322"><ele>522.2</ele><time>2026-04-19T07:32:59.054Z</time></trkpt><trkpt lat="44.7566667" lon="9.8731633"><ele>522.4000000000001</ele><time>2026-04-19T07:33:01.055Z</time></trkpt><trkpt lat="44.75659" lon="9.8731167"><ele>522.5999999999999</ele><time>2026-04-19T07:33:02.055Z</time></trkpt><trkpt lat="44.7565117" lon="9.8730567"><ele>522.8</ele><time>2026-04-19T07:33:03.055Z</time></trkpt><trkpt lat="44.7564283" lon="9.87299"><ele>523.0</ele><time>2026-04-19T07:33:04.055Z</time></trkpt><trkpt lat="44.7563433" lon="9.8729267"><ele>523.0</ele><time>2026-04-19T07:33:05.054Z</time></trkpt><trkpt lat="44.7562533" lon="9.8728633"><ele>523.0</ele><time>2026-04-19T07:33:06.054Z</time></trkpt><trkpt lat="44.7561583" lon="9.8728083"><ele>523.0</ele><time>2026-04-19T07:33:07.055Z</time></trkpt><trkpt lat="44.756065" lon="9.8727517"><ele>523.0</ele><time>2026-04-19T07:33:08.056Z</time></trkpt><trkpt lat="44.75597" lon="9.8726967"><ele>523.0</ele><time>2026-04-19T07:33:09.056Z</time></trkpt><trkpt lat="44.7558767" lon="9.8726483"><ele>522.8333333333334</ele><time>2026-04-19T07:33:10.054Z</time></trkpt><trkpt lat="44.7557833" lon="9.8726083"><ele>522.6666666666667</ele><time>2026-04-19T07:33:11.054Z</time></trkpt><trkpt lat="44.7556933" lon="9.872565"><ele>522.5</ele><time>2026-04-19T07:33:12.055Z</time></trkpt><trkpt lat="44.75561" lon="9.8725333"><ele>522.3333333333334</ele><time>2026-04-19T07:33:13.054Z</time></trkpt><trkpt lat="44.7555283" lon="9.87251"><ele>522.1666666666666</ele><time>2026-04-19T07:33:14.054Z</time></trkpt><trkpt lat="44.75546" lon="9.87251"><ele>522.0</ele><time>2026-04-19T07:33:15.055Z</time></trkpt><trkpt lat="44.755395" lon="9.8725083"><ele>522.0</ele><time>2026-04-19T07:33:16.053Z</time></trkpt><trkpt lat="44.7553" lon="9.87247"><ele>522.0</ele><time>2026-04-19T07:33:18.055Z</time></trkpt><trkpt lat="44.7552333" lon="9.8723817"><ele>522.0</ele><time>2026-04-19T07:33:20.054Z</time></trkpt><trkpt lat="44.755155" lon="9.872245"><ele>522.0</ele><time>2026-04-19T07:33:22.056Z</time></trkpt><trkpt lat="44.75509" lon="9.8721333"><ele>522.0</ele><time>2026-04-19T07:33:24.055Z</time></trkpt><trkpt lat="44.755005" lon="9.8720317"><ele>523.4</ele><time>2026-04-19T07:33:26.056Z</time></trkpt><trkpt lat="44.7549083" lon="9.8719367"><ele>524.8000000000001</ele><time>2026-04-19T07:33:28.054Z</time></trkpt><trkpt lat="44.7548517" lon="9.87187"><ele>526.2</ele><time>2026-04-19T07:33:29.054Z</time></trkpt><trkpt lat="44.7547933" lon="9.8717683"><ele>527.6</ele><time>2026-04-19T07:33:30.055Z</time></trkpt><trkpt lat="44.75474" lon="9.871645"><ele>529.0</ele><time>2026-04-19T07:33:31.056Z</time></trkpt><trkpt lat="44.7546967" lon="9.871515"><ele>529.0</ele><time>2026-04-19T07:33:32.056Z</time></trkpt><trkpt lat="44.754675" lon="9.8713767"><ele>529.0</ele><time>2026-04-19T07:33:33.057Z</time></trkpt><trkpt lat="44.75465" lon="9.8712467"><ele>529.0</ele><time>2026-04-19T07:33:34.056Z</time></trkpt><trkpt lat="44.7546183" lon="9.8711233"><ele>529.0</ele><time>2026-04-19T07:33:35.057Z</time></trkpt><trkpt lat="44.7545767" lon="9.8710033"><ele>529.0</ele><time>2026-04-19T07:33:36.057Z</time></trkpt><trkpt lat="44.75454" lon="9.8708983"><ele>528.0</ele><time>2026-04-19T07:33:37.057Z</time></trkpt><trkpt lat="44.7545017" lon="9.8708067"><ele>527.0</ele><time>2026-04-19T07:33:38.057Z</time></trkpt><trkpt lat="44.7544533" lon="9.8707333"><ele>526.0</ele><time>2026-04-19T07:33:39.054Z</time></trkpt><trkpt lat="44.7543767" lon="9.870645"><ele>525.0</ele><time>2026-04-19T07:33:41.054Z</time></trkpt><trkpt lat="44.7542933" lon="9.870555"><ele>524.0</ele><time>2026-04-19T07:33:43.055Z</time></trkpt><trkpt lat="44.754265" lon="9.8704017"><ele>522.4</ele><time>2026-04-19T07:33:45.055Z</time></trkpt><trkpt lat="44.754275" lon="9.8702367"><ele>520.8</ele><time>2026-04-19T07:33:47.055Z</time></trkpt><trkpt lat="44.7542833" lon="9.8701133"><ele>519.2</ele><time>2026-04-19T07:33:49.056Z</time></trkpt><trkpt lat="44.75434" lon="9.8700133"><ele>517.6</ele><time>2026-04-19T07:34:01.056Z</time></trkpt><trkpt lat="44.754375" lon="9.8699117"><ele>516.0</ele><time>2026-04-19T07:34:05.056Z</time></trkpt><trkpt lat="44.7544033" lon="9.8697933"><ele>516.0</ele><time>2026-04-19T07:34:08.057Z</time></trkpt><trkpt lat="44.7544017" lon="9.8696717"><ele>516.0</ele><time>2026-04-19T07:34:11.054Z</time></trkpt><trkpt lat="44.75437" lon="9.8695517"><ele>516.0</ele><time>2026-04-19T07:34:14.054Z</time></trkpt><trkpt lat="44.7543633" lon="9.86946"><ele>516.0</ele><time>2026-04-19T07:34:16.055Z</time></trkpt><trkpt lat="44.7543833" lon="9.8693583"><ele>516.0</ele><time>2026-04-19T07:34:18.056Z</time></trkpt><trkpt lat="44.7543983" lon="9.8692433"><ele>516.0</ele><time>2026-04-19T07:34:20.057Z</time></trkpt><trkpt lat="44.7543767" lon="9.8691467"><ele>521.8333333333334</ele><time>2026-04-19T07:34:22.055Z</time></trkpt><trkpt lat="44.7543033" lon="9.86906"><ele>527.6666666666666</ele><time>2026-04-19T07:34:24.057Z</time></trkpt><trkpt lat="44.75422" lon="9.868945"><ele>533.5</ele><time>2026-04-19T07:34:26.054Z</time></trkpt><trkpt lat="44.7541783" lon="9.8688533"><ele>539.3333333333333</ele><time>2026-04-19T07:34:27.056Z</time></trkpt><trkpt lat="44.75415" lon="9.86876"><ele>545.1666666666666</ele><time>2026-04-19T07:34:28.053Z</time></trkpt><trkpt lat="44.7541233" lon="9.8686517"><ele>551.0</ele><time>2026-04-19T07:34:29.056Z</time></trkpt><trkpt lat="44.7541067" lon="9.868545"><ele>551.0</ele><time>2026-04-19T07:34:30.054Z</time></trkpt><trkpt lat="44.754085" lon="9.8684433"><ele>551.0</ele><time>2026-04-19T07:34:31.054Z</time></trkpt><trkpt lat="44.75407" lon="9.8683483"><ele>551.0</ele><time>2026-04-19T07:34:32.056Z</time></trkpt><trkpt lat="44.7540633" lon="9.8681817"><ele>551.0</ele><time>2026-04-19T07:34:34.054Z</time></trkpt><trkpt lat="44.7540933" lon="9.8680033"><ele>551.0</ele><time>2026-04-19T07:34:36.054Z</time></trkpt><trkpt lat="44.75413" lon="9.867895"><ele>550.6666666666666</ele><time>2026-04-19T07:34:38.055Z</time></trkpt><trkpt lat="44.754135" lon="9.8677867"><ele>550.3333333333333</ele><time>2026-04-19T07:34:42.053Z</time></trkpt><trkpt lat="44.7541217" lon="9.8676983"><ele>550.0</ele><time>2026-04-19T07:34:44.057Z</time></trkpt><trkpt lat="44.7540733" lon="9.8675933"><ele>549.6666666666666</ele><time>2026-04-19T07:34:46.056Z</time></trkpt><trkpt lat="44.7540383" lon="9.86746"><ele>549.3333333333334</ele><time>2026-04-19T07:34:48.056Z</time></trkpt><trkpt lat="44.7540133" lon="9.86734"><ele>549.0</ele><time>2026-04-19T07:34:50.056Z</time></trkpt><trkpt lat="44.7539517" lon="9.867275"><ele>549.0</ele><time>2026-04-19T07:34:52.054Z</time></trkpt><trkpt lat="44.7538833" lon="9.8672117"><ele>549.0</ele><time>2026-04-19T07:34:54.055Z</time></trkpt><trkpt lat="44.7538133" lon="9.8672233"><ele>549.0</ele><time>2026-04-19T07:34:56.055Z</time></trkpt><trkpt lat="44.7537467" lon="9.8672683"><ele>549.0</ele><time>2026-04-19T07:34:58.054Z</time></trkpt><trkpt lat="44.7536633" lon="9.8672833"><ele>549.0</ele><time>2026-04-19T07:35:01.055Z</time></trkpt><trkpt lat="44.7535783" lon="9.8672867"><ele>549.0</ele><time>2026-04-19T07:35:03.057Z</time></trkpt><trkpt lat="44.7534733" lon="9.8673433"><ele>551.3333333333334</ele><time>2026-04-19T07:35:05.056Z</time></trkpt><trkpt lat="44.75336" lon="9.8673733"><ele>553.6666666666666</ele><time>2026-04-19T07:35:07.056Z</time></trkpt><trkpt lat="44.75329" lon="9.8673783"><ele>556.0</ele><time>2026-04-19T07:35:08.056Z</time></trkpt><trkpt lat="44.7532167" lon="9.86738"><ele>558.3333333333333</ele><time>2026-04-19T07:35:09.056Z</time></trkpt><trkpt lat="44.753145" lon="9.8673867"><ele>560.6666666666666</ele><time>2026-04-19T07:35:10.055Z</time></trkpt><trkpt lat="44.7530767" lon="9.8673783"><ele>563.0</ele><time>2026-04-19T07:35:11.054Z</time></trkpt><trkpt lat="44.753005" lon="9.8673717"><ele>563.0</ele><time>2026-04-19T07:35:12.054Z</time></trkpt><trkpt lat="44.75294" lon="9.8673517"><ele>563.0</ele><time>2026-04-19T07:35:13.055Z</time></trkpt><trkpt lat="44.7528783" lon="9.8673167"><ele>563.0</ele><time>2026-04-19T07:35:14.055Z</time></trkpt><trkpt lat="44.7528217" lon="9.8672567"><ele>563.0</ele><time>2026-04-19T07:35:15.056Z</time></trkpt><trkpt lat="44.7527717" lon="9.867175"><ele>563.0</ele><time>2026-04-19T07:35:16.056Z</time></trkpt><trkpt lat="44.7527217" lon="9.8670833"><ele>563.0</ele><time>2026-04-19T07:35:17.056Z</time></trkpt><trkpt lat="44.75267" lon="9.8669833"><ele>563.3333333333333</ele><time>2026-04-19T07:35:18.055Z</time></trkpt><trkpt lat="44.75262" lon="9.866875"><ele>563.6666666666666</ele><time>2026-04-19T07:35:19.056Z</time></trkpt><trkpt lat="44.7525633" lon="9.8667667"><ele>564.0</ele><time>2026-04-19T07:35:20.056Z</time></trkpt><trkpt lat="44.7525083" lon="9.8666617"><ele>564.3333333333334</ele><time>2026-04-19T07:35:21.056Z</time></trkpt><trkpt lat="44.7524683" lon="9.86656"><ele>564.6666666666667</ele><time>2026-04-19T07:35:22.056Z</time></trkpt><trkpt lat="44.75243" lon="9.866455"><ele>565.0</ele><time>2026-04-19T07:35:23.056Z</time></trkpt><trkpt lat="44.7523783" lon="9.8663333"><ele>561.0</ele><time>2026-04-19T07:35:24.055Z</time></trkpt><trkpt lat="44.7523083" lon="9.866205"><ele>557.0</ele><time>2026-04-19T07:35:25.055Z</time></trkpt><trkpt lat="44.7522283" lon="9.8660817"><ele>553.0</ele><time>2026-04-19T07:35:26.055Z</time></trkpt><trkpt lat="44.7521517" lon="9.86596"><ele>549.0</ele><time>2026-04-19T07:35:27.055Z</time></trkpt><trkpt lat="44.7520833" lon="9.8658483"><ele>547.8333333333334</ele><time>2026-04-19T07:35:28.055Z</time></trkpt><trkpt lat="44.7520217" lon="9.86576"><ele>546.6666666666666</ele><time>2026-04-19T07:35:29.054Z</time></trkpt><trkpt lat="44.7519583" lon="9.865695"><ele>545.5</ele><time>2026-04-19T07:35:30.055Z</time></trkpt><trkpt lat="44.7518967" lon="9.8656667"><ele>544.3333333333333</ele><time>2026-04-19T07:35:31.055Z</time></trkpt><trkpt lat="44.7518333" lon="9.8656533"><ele>543.1666666666666</ele><time>2026-04-19T07:35:32.056Z</time></trkpt><trkpt lat="44.7517167" lon="9.8656383"><ele>542.0</ele><time>2026-04-19T07:35:34.056Z</time></trkpt><trkpt lat="44.7516167" lon="9.8655883"><ele>542.0</ele><time>2026-04-19T07:35:36.056Z</time></trkpt><trkpt lat="44.7515183" lon="9.8655233"><ele>542.0</ele><time>2026-04-19T07:35:38.055Z</time></trkpt><trkpt lat="44.7514117" lon="9.865445"><ele>542.0</ele><time>2026-04-19T07:35:40.054Z</time></trkpt><trkpt lat="44.7513483" lon="9.8653783"><ele>542.0</ele><time>2026-04-19T07:35:42.055Z</time></trkpt><trkpt lat="44.7513383" lon="9.865275"><ele>542.0</ele><time>2026-04-19T07:35:44.056Z</time></trkpt><trkpt lat="44.7513983" lon="9.8651517"><ele>540.6</ele><time>2026-04-19T07:35:46.055Z</time></trkpt><trkpt lat="44.7514583" lon="9.8650667"><ele>539.2</ele><time>2026-04-19T07:35:48.056Z</time></trkpt><trkpt lat="44.7515267" lon="9.8649667"><ele>537.8</ele><time>2026-04-19T07:35:50.057Z</time></trkpt><trkpt lat="44.7515717" lon="9.8648083"><ele>536.4</ele><time>2026-04-19T07:35:52.054Z</time></trkpt><trkpt lat="44.751575" lon="9.8647133"><ele>535.0</ele><time>2026-04-19T07:35:53.055Z</time></trkpt><trkpt lat="44.7515667" lon="9.8646017"><ele>535.0</ele><time>2026-04-19T07:35:54.054Z</time></trkpt><trkpt lat="44.7515483" lon="9.86449"><ele>535.0</ele><time>2026-04-19T07:35:55.054Z</time></trkpt><trkpt lat="44.75154" lon="9.8643917"><ele>535.0</ele><time>2026-04-19T07:35:56.054Z</time></trkpt><trkpt lat="44.75155" lon="9.8642417"><ele>535.0</ele><time>2026-04-19T07:35:58.053Z</time></trkpt><trkpt lat="44.7516083" lon="9.86411"><ele>535.0</ele><time>2026-04-19T07:36:00.053Z</time></trkpt><trkpt lat="44.7516517" lon="9.864045"><ele>535.0</ele><time>2026-04-19T07:36:01.053Z</time></trkpt><trkpt lat="44.7517083" lon="9.8639917"><ele>534.1666666666667</ele><time>2026-04-19T07:36:02.054Z</time></trkpt><trkpt lat="44.751795" lon="9.8638567"><ele>533.3333333333334</ele><time>2026-04-19T07:36:04.053Z</time></trkpt><trkpt lat="44.7518283" lon="9.8637667"><ele>532.5</ele><time>2026-04-19T07:36:05.055Z</time></trkpt><trkpt lat="44.751855" lon="9.8636717"><ele>531.6666666666666</ele><time>2026-04-19T07:36:06.054Z</time></trkpt><trkpt lat="44.7518717" lon="9.86357"><ele>530.8333333333333</ele><time>2026-04-19T07:36:07.054Z</time></trkpt><trkpt lat="44.7518867" lon="9.86347"><ele>530.0</ele><time>2026-04-19T07:36:08.054Z</time></trkpt><trkpt lat="44.7519417" lon="9.863325"><ele>523.8</ele><time>2026-04-19T07:36:10.054Z</time></trkpt><trkpt lat="44.7520033" lon="9.8632133"><ele>517.6</ele><time>2026-04-19T07:36:12.054Z</time></trkpt><trkpt lat="44.752025" lon="9.8630483"><ele>511.4</ele><time>2026-04-19T07:36:14.055Z</time></trkpt><trkpt lat="44.752015" lon="9.8629383"><ele>505.2</ele><time>2026-04-19T07:36:15.056Z</time></trkpt><trkpt lat="44.751995" lon="9.8628133"><ele>499.0</ele><time>2026-04-19T07:36:16.056Z</time></trkpt><trkpt lat="44.7519717" lon="9.862695"><ele>498.0</ele><time>2026-04-19T07:36:17.056Z</time></trkpt><trkpt lat="44.7519483" lon="9.8625983"><ele>497.0</ele><time>2026-04-19T07:36:18.057Z</time></trkpt><trkpt lat="44.7519233" lon="9.8625133"><ele>496.0</ele><time>2026-04-19T07:36:19.058Z</time></trkpt><trkpt lat="44.751885" lon="9.8623567"><ele>495.0</ele><time>2026-04-19T07:36:21.056Z</time></trkpt><trkpt lat="44.7518633" lon="9.8622033"><ele>494.0</ele><time>2026-04-19T07:36:23.057Z</time></trkpt><trkpt lat="44.7519083" lon="9.862055"><ele>493.99999999999994</ele><time>2026-04-19T07:36:25.055Z</time></trkpt><trkpt lat="44.75195" lon="9.8619767"><ele>494.0</ele><time>2026-04-19T07:36:26.054Z</time></trkpt><trkpt lat="44.7519967" lon="9.8619067"><ele>494.0</ele><time>2026-04-19T07:36:27.053Z</time></trkpt><trkpt lat="44.75205" lon="9.8618467"><ele>494.0</ele><time>2026-04-19T07:36:28.055Z</time></trkpt><trkpt lat="44.7521067" lon="9.8617917"><ele>493.99999999999994</ele><time>2026-04-19T07:36:29.055Z</time></trkpt><trkpt lat="44.7521933" lon="9.8617"><ele>494.0</ele><time>2026-04-19T07:36:31.055Z</time></trkpt><trkpt lat="44.7522883" lon="9.861625"><ele>492.0</ele><time>2026-04-19T07:36:33.056Z</time></trkpt><trkpt lat="44.7523967" lon="9.8615483"><ele>490.0</ele><time>2026-04-19T07:36:35.056Z</time></trkpt><trkpt lat="44.7524983" lon="9.8614583"><ele>488.0</ele><time>2026-04-19T07:36:37.055Z</time></trkpt><trkpt lat="44.7525717" lon="9.8613967"><ele>486.0</ele><time>2026-04-19T07:36:39.056Z</time></trkpt><trkpt lat="44.7524967" lon="9.8614133"><ele>484.0</ele><time>2026-04-19T07:36:48.055Z</time></trkpt><trkpt lat="44.75241" lon="9.8614933"><ele>484.00000000000006</ele><time>2026-04-19T07:36:50.056Z</time></trkpt><trkpt lat="44.75235" lon="9.8615267"><ele>484.0</ele><time>2026-04-19T07:36:51.054Z</time></trkpt><trkpt lat="44.7522817" lon="9.86155"><ele>484.0</ele><time>2026-04-19T07:36:52.054Z</time></trkpt><trkpt lat="44.7522017" lon="9.861555"><ele>484.0</ele><time>2026-04-19T07:36:53.055Z</time></trkpt><trkpt lat="44.75212" lon="9.861555"><ele>484.00000000000006</ele><time>2026-04-19T07:36:54.055Z</time></trkpt><trkpt lat="44.75203" lon="9.8615533"><ele>484.0</ele><time>2026-04-19T07:36:55.054Z</time></trkpt><trkpt lat="44.75195" lon="9.8615517"><ele>484.0</ele><time>2026-04-19T07:36:56.054Z</time></trkpt><trkpt lat="44.7518767" lon="9.86154"><ele>484.0</ele><time>2026-04-19T07:36:57.056Z</time></trkpt><trkpt lat="44.751765" lon="9.8615233"><ele>484.0</ele><time>2026-04-19T07:36:59.056Z</time></trkpt><trkpt lat="44.7516583" lon="9.861445"><ele>484.0</ele><time>2026-04-19T07:37:01.056Z</time></trkpt><trkpt lat="44.751635" lon="9.8613567"><ele>484.0</ele><time>2026-04-19T07:37:02.055Z</time></trkpt><trkpt lat="44.7516283" lon="9.8612467"><ele>484.33333333333337</ele><time>2026-04-19T07:37:03.056Z</time></trkpt><trkpt lat="44.7516417" lon="9.8611183"><ele>484.6666666666667</ele><time>2026-04-19T07:37:04.052Z</time></trkpt><trkpt lat="44.751675" lon="9.8609967"><ele>485.0</ele><time>2026-04-19T07:37:05.054Z</time></trkpt><trkpt lat="44.7517217" lon="9.86088"><ele>485.33333333333337</ele><time>2026-04-19T07:37:06.055Z</time></trkpt><trkpt lat="44.7517667" lon="9.8607767"><ele>485.6666666666667</ele><time>2026-04-19T07:37:07.055Z</time></trkpt><trkpt lat="44.7518" lon="9.860685"><ele>486.0</ele><time>2026-04-19T07:37:08.055Z</time></trkpt><trkpt lat="44.7518217" lon="9.8606017"><ele>486.0</ele><time>2026-04-19T07:37:09.056Z</time></trkpt><trkpt lat="44.7518183" lon="9.8604367"><ele>486.0</ele><time>2026-04-19T07:37:11.056Z</time></trkpt><trkpt lat="44.7518017" lon="9.8603367"><ele>486.0</ele><time>2026-04-19T07:37:12.054Z</time></trkpt><trkpt lat="44.7517717" lon="9.86024"><ele>486.0</ele><time>2026-04-19T07:37:13.053Z</time></trkpt><trkpt lat="44.7517317" lon="9.8601317"><ele>486.0</ele><time>2026-04-19T07:37:14.055Z</time></trkpt><trkpt lat="44.7516867" lon="9.8600167"><ele>486.0</ele><time>2026-04-19T07:37:15.054Z</time></trkpt><trkpt lat="44.7516467" lon="9.8598983"><ele>483.4</ele><time>2026-04-19T07:37:16.053Z</time></trkpt><trkpt lat="44.7516083" lon="9.859785"><ele>480.8</ele><time>2026-04-19T07:37:17.055Z</time></trkpt><trkpt lat="44.7515467" lon="9.8596717"><ele>478.19999999999993</ele><time>2026-04-19T07:37:18.054Z</time></trkpt><trkpt lat="44.7514933" lon="9.8595683"><ele>475.59999999999997</ele><time>2026-04-19T07:37:19.054Z</time></trkpt><trkpt lat="44.75144" lon="9.859445"><ele>473.0</ele><time>2026-04-19T07:37:20.055Z</time></trkpt><trkpt lat="44.7513933" lon="9.859335"><ele>469.99999999999994</ele><time>2026-04-19T07:37:21.055Z</time></trkpt><trkpt lat="44.7513483" lon="9.8592233"><ele>467.0</ele><time>2026-04-19T07:37:22.055Z</time></trkpt><trkpt lat="44.7513167" lon="9.859135"><ele>464.0</ele><time>2026-04-19T07:37:23.055Z</time></trkpt><trkpt lat="44.7512967" lon="9.8590467"><ele>461.0</ele><time>2026-04-19T07:37:24.054Z</time></trkpt><trkpt lat="44.7512883" lon="9.8589533"><ele>457.99999999999994</ele><time>2026-04-19T07:37:25.056Z</time></trkpt><trkpt lat="44.7513017" lon="9.8588417"><ele>455.0</ele><time>2026-04-19T07:37:26.055Z</time></trkpt><trkpt lat="44.7513367" lon="9.8587417"><ele>455.0</ele><time>2026-04-19T07:37:27.054Z</time></trkpt><trkpt lat="44.7513717" lon="9.8586233"><ele>455.0</ele><time>2026-04-19T07:37:28.054Z</time></trkpt><trkpt lat="44.7514083" lon="9.8584967"><ele>455.0</ele><time>2026-04-19T07:37:29.054Z</time></trkpt><trkpt lat="44.75145" lon="9.8583767"><ele>455.0</ele><time>2026-04-19T07:37:30.056Z</time></trkpt><trkpt lat="44.751505" lon="9.8582733"><ele>455.0</ele><time>2026-04-19T07:37:31.053Z</time></trkpt><trkpt lat="44.7515583" lon="9.8581833"><ele>455.49999999999994</ele><time>2026-04-19T07:37:32.054Z</time></trkpt><trkpt lat="44.7516117" lon="9.8581"><ele>456.0</ele><time>2026-04-19T07:37:33.055Z</time></trkpt><trkpt lat="44.7516667" lon="9.8580083"><ele>456.5</ele><time>2026-04-19T07:37:34.053Z</time></trkpt><trkpt lat="44.751715" lon="9.8579233"><ele>457.0</ele><time>2026-04-19T07:37:35.054Z</time></trkpt><trkpt lat="44.7517733" lon="9.8578433"><ele>457.49999999999994</ele><time>2026-04-19T07:37:36.054Z</time></trkpt><trkpt lat="44.7518417" lon="9.8577733"><ele>458.0</ele><time>2026-04-19T07:37:37.056Z</time></trkpt><trkpt lat="44.7519083" lon="9.8576933"><ele>453.7142857142857</ele><time>2026-04-19T07:37:38.054Z</time></trkpt><trkpt lat="44.75197" lon="9.8576083"><ele>449.42857142857144</ele><time>2026-04-19T07:37:39.056Z</time></trkpt><trkpt lat="44.75201" lon="9.85752"><ele>445.14285714285717</ele><time>2026-04-19T07:37:40.053Z</time></trkpt><trkpt lat="44.7520333" lon="9.8574367"><ele>440.8571428571429</ele><time>2026-04-19T07:37:41.054Z</time></trkpt><trkpt lat="44.7520383" lon="9.8573467"><ele>436.57142857142856</ele><time>2026-04-19T07:37:42.054Z</time></trkpt><trkpt lat="44.7520233" lon="9.85725"><ele>432.28571428571433</ele><time>2026-04-19T07:37:43.055Z</time></trkpt><trkpt lat="44.7519983" lon="9.8571433"><ele>428.0</ele><time>2026-04-19T07:37:44.054Z</time></trkpt><trkpt lat="44.751975" lon="9.8570317"><ele>427.99999999999994</ele><time>2026-04-19T07:37:45.055Z</time></trkpt><trkpt lat="44.7519483" lon="9.856925"><ele>428.0</ele><time>2026-04-19T07:37:46.054Z</time></trkpt><trkpt lat="44.7519017" lon="9.8568133"><ele>428.0</ele><time>2026-04-19T07:37:47.055Z</time></trkpt><trkpt lat="44.751855" lon="9.8567217"><ele>428.0</ele><time>2026-04-19T07:37:48.056Z</time></trkpt><trkpt lat="44.751795" lon="9.8566233"><ele>427.99999999999994</ele><time>2026-04-19T07:37:49.053Z</time></trkpt><trkpt lat="44.751735" lon="9.85654"><ele>428.0</ele><time>2026-04-19T07:37:50.055Z</time></trkpt><trkpt lat="44.75167" lon="9.8564783"><ele>427.3333333333333</ele><time>2026-04-19T07:37:51.053Z</time></trkpt><trkpt lat="44.7516117" lon="9.8564133"><ele>426.66666666666663</ele><time>2026-04-19T07:37:52.053Z</time></trkpt><trkpt lat="44.75157" lon="9.8563133"><ele>426.0</ele><time>2026-04-19T07:37:53.053Z</time></trkpt><trkpt lat="44.7515133" lon="9.8562267"><ele>425.33333333333337</ele><time>2026-04-19T07:37:54.054Z</time></trkpt><trkpt lat="44.7514683" lon="9.8561267"><ele>424.6666666666667</ele><time>2026-04-19T07:37:55.055Z</time></trkpt><trkpt lat="44.75143" lon="9.8560283"><ele>424.0</ele><time>2026-04-19T07:37:56.055Z</time></trkpt><trkpt lat="44.7513817" lon="9.8559333"><ele>424.00000000000006</ele><time>2026-04-19T07:37:57.053Z</time></trkpt><trkpt lat="44.7513333" lon="9.8558317"><ele>424.0</ele><time>2026-04-19T07:37:58.055Z</time></trkpt><trkpt lat="44.7512717" lon="9.85575"><ele>424.0</ele><time>2026-04-19T07:37:59.055Z</time></trkpt><trkpt lat="44.7512117" lon="9.8556833"><ele>424.0</ele><time>2026-04-19T07:38:00.055Z</time></trkpt><trkpt lat="44.75115" lon="9.85563"><ele>424.00000000000006</ele><time>2026-04-19T07:38:01.057Z</time></trkpt><trkpt lat="44.751095" lon="9.8555617"><ele>424.0</ele><time>2026-04-19T07:38:02.056Z</time></trkpt><trkpt lat="44.75104" lon="9.8554967"><ele>428.4</ele><time>2026-04-19T07:38:03.054Z</time></trkpt><trkpt lat="44.7509933" lon="9.85543"><ele>432.79999999999995</ele><time>2026-04-19T07:38:04.055Z</time></trkpt><trkpt lat="44.7509317" lon="9.8553"><ele>437.20000000000005</ele><time>2026-04-19T07:38:06.055Z</time></trkpt><trkpt lat="44.75092" lon="9.8551417"><ele>441.6</ele><time>2026-04-19T07:38:08.053Z</time></trkpt><trkpt lat="44.750935" lon="9.85503"><ele>446.0</ele><time>2026-04-19T07:38:09.055Z</time></trkpt><trkpt lat="44.7509683" lon="9.8549017"><ele>445.99999999999994</ele><time>2026-04-19T07:38:10.053Z</time></trkpt><trkpt lat="44.7510083" lon="9.8547683"><ele>446.0</ele><time>2026-04-19T07:38:11.054Z</time></trkpt><trkpt lat="44.7510233" lon="9.85465"><ele>446.0</ele><time>2026-04-19T07:38:12.054Z</time></trkpt><trkpt lat="44.75104" lon="9.8545267"><ele>446.0</ele><time>2026-04-19T07:38:13.056Z</time></trkpt><trkpt lat="44.75105" lon="9.8544183"><ele>445.99999999999994</ele><time>2026-04-19T07:38:14.053Z</time></trkpt><trkpt lat="44.7510633" lon="9.8543267"><ele>446.0</ele><time>2026-04-19T07:38:15.053Z</time></trkpt><trkpt lat="44.7510633" lon="9.85413"><ele>443.99999999999994</ele><time>2026-04-19T07:38:17.053Z</time></trkpt><trkpt lat="44.7510433" lon="9.8540117"><ele>442.0</ele><time>2026-04-19T07:38:18.054Z</time></trkpt><trkpt lat="44.75102" lon="9.8538883"><ele>440.0</ele><time>2026-04-19T07:38:19.053Z</time></trkpt><trkpt lat="44.7509983" lon="9.8537617"><ele>438.0</ele><time>2026-04-19T07:38:20.053Z</time></trkpt><trkpt lat="44.75098" lon="9.8536417"><ele>435.99999999999994</ele><time>2026-04-19T07:38:21.055Z</time></trkpt><trkpt lat="44.7509517" lon="9.8535267"><ele>434.0</ele><time>2026-04-19T07:38:22.056Z</time></trkpt><trkpt lat="44.7509217" lon="9.8534217"><ele>430.99999999999994</ele><time>2026-04-19T07:38:23.054Z</time></trkpt><trkpt lat="44.7508883" lon="9.8533267"><ele>428.0</ele><time>2026-04-19T07:38:24.055Z</time></trkpt><trkpt lat="44.7508483" lon="9.8532567"><ele>425.0</ele><time>2026-04-19T07:38:25.053Z</time></trkpt><trkpt lat="44.7507967" lon="9.8531383"><ele>422.0</ele><time>2026-04-19T07:38:27.055Z</time></trkpt><trkpt lat="44.75079" lon="9.8530317"><ele>418.99999999999994</ele><time>2026-04-19T07:38:29.055Z</time></trkpt><trkpt lat="44.7508483" lon="9.8529617"><ele>416.0</ele><time>2026-04-19T07:38:31.054Z</time></trkpt><trkpt lat="44.75094" lon="9.8529433"><ele>415.99999999999994</ele><time>2026-04-19T07:38:33.054Z</time></trkpt><trkpt lat="44.75101" lon="9.8529117"><ele>416.0</ele><time>2026-04-19T07:38:34.054Z</time></trkpt><trkpt lat="44.751085" lon="9.85286"><ele>416.0</ele><time>2026-04-19T07:38:35.054Z</time></trkpt><trkpt lat="44.7511533" lon="9.852795"><ele>416.0</ele><time>2026-04-19T07:38:36.053Z</time></trkpt><trkpt lat="44.75122" lon="9.8527283"><ele>415.99999999999994</ele><time>2026-04-19T07:38:37.054Z</time></trkpt><trkpt lat="44.7512767" lon="9.8526483"><ele>416.0</ele><time>2026-04-19T07:38:38.054Z</time></trkpt><trkpt lat="44.7513117" lon="9.852555"><ele>412.66666666666663</ele><time>2026-04-19T07:38:39.054Z</time></trkpt><trkpt lat="44.751335" lon="9.852455"><ele>409.3333333333333</ele><time>2026-04-19T07:38:40.053Z</time></trkpt><trkpt lat="44.751355" lon="9.852365"><ele>406.0</ele><time>2026-04-19T07:38:41.056Z</time></trkpt><trkpt lat="44.7514017" lon="9.85227"><ele>402.66666666666663</ele><time>2026-04-19T07:38:43.054Z</time></trkpt><trkpt lat="44.7514567" lon="9.852365"><ele>399.3333333333333</ele><time>2026-04-19T07:38:46.054Z</time></trkpt><trkpt lat="44.7514633" lon="9.8525167"><ele>396.0</ele><time>2026-04-19T07:38:48.053Z</time></trkpt><trkpt lat="44.751455" lon="9.85265"><ele>396.0</ele><time>2026-04-19T07:38:49.055Z</time></trkpt><trkpt lat="44.75145" lon="9.8527933"><ele>396.0</ele><time>2026-04-19T07:38:50.053Z</time></trkpt><trkpt lat="44.7514483" lon="9.8529417"><ele>396.0</ele><time>2026-04-19T07:38:51.053Z</time></trkpt><trkpt lat="44.75146" lon="9.8530733"><ele>396.0</ele><time>2026-04-19T07:38:52.053Z</time></trkpt><trkpt lat="44.7514867" lon="9.853195"><ele>396.0</ele><time>2026-04-19T07:38:53.053Z</time></trkpt><trkpt lat="44.7515383" lon="9.8533117"><ele>396.0</ele><time>2026-04-19T07:38:54.054Z</time></trkpt><trkpt lat="44.7516033" lon="9.8534417"><ele>396.0</ele><time>2026-04-19T07:38:55.054Z</time></trkpt><trkpt lat="44.751675" lon="9.853565"><ele>396.0</ele><time>2026-04-19T07:38:56.053Z</time></trkpt><trkpt lat="44.7517383" lon="9.85367"><ele>396.0</ele><time>2026-04-19T07:38:57.054Z</time></trkpt><trkpt lat="44.7517933" lon="9.853745"><ele>396.0</ele><time>2026-04-19T07:38:58.054Z</time></trkpt><trkpt lat="44.75188" lon="9.85379"><ele>391.4</ele><time>2026-04-19T07:39:00.054Z</time></trkpt><trkpt lat="44.75195" lon="9.85367"><ele>386.8</ele><time>2026-04-19T07:39:02.054Z</time></trkpt><trkpt lat="44.75202" lon="9.8535933"><ele>382.2</ele><time>2026-04-19T07:39:04.054Z</time></trkpt><trkpt lat="44.752095" lon="9.853635"><ele>377.59999999999997</ele><time>2026-04-19T07:39:06.053Z</time></trkpt><trkpt lat="44.7521367" lon="9.853815"><ele>373.0</ele><time>2026-04-19T07:39:08.055Z</time></trkpt><trkpt lat="44.75215" lon="9.853935"><ele>373.0</ele><time>2026-04-19T07:39:09.054Z</time></trkpt><trkpt lat="44.7521617" lon="9.854075"><ele>373.0</ele><time>2026-04-19T07:39:10.054Z</time></trkpt><trkpt lat="44.75217" lon="9.85424"><ele>373.0</ele><time>2026-04-19T07:39:11.055Z</time></trkpt><trkpt lat="44.7521817" lon="9.8544083"><ele>373.0</ele><time>2026-04-19T07:39:12.055Z</time></trkpt><trkpt lat="44.7521983" lon="9.85458"><ele>372.5</ele><time>2026-04-19T07:39:13.053Z</time></trkpt><trkpt lat="44.7522233" lon="9.8547467"><ele>372.0</ele><time>2026-04-19T07:39:14.054Z</time></trkpt><trkpt lat="44.7522533" lon="9.8549133"><ele>371.5</ele><time>2026-04-19T07:39:15.055Z</time></trkpt><trkpt lat="44.7522833" lon="9.8550817"><ele>371.0</ele><time>2026-04-19T07:39:16.053Z</time></trkpt><trkpt lat="44.75231" lon="9.855245"><ele>374.25</ele><time>2026-04-19T07:39:17.056Z</time></trkpt><trkpt lat="44.7523383" lon="9.8554017"><ele>377.5</ele><time>2026-04-19T07:39:18.056Z</time></trkpt><trkpt lat="44.75239" lon="9.8555517"><ele>380.75</ele><time>2026-04-19T07:39:19.055Z</time></trkpt><trkpt lat="44.7524517" lon="9.8556917"><ele>384.0</ele><time>2026-04-19T07:39:20.056Z</time></trkpt><trkpt lat="44.7525433" lon="9.85581"><ele>384.0</ele><time>2026-04-19T07:39:21.055Z</time></trkpt><trkpt lat="44.752645" lon="9.85591"><ele>384.0</ele><time>2026-04-19T07:39:22.056Z</time></trkpt><trkpt lat="44.7527633" lon="9.8559883"><ele>384.0</ele><time>2026-04-19T07:39:23.055Z</time></trkpt><trkpt lat="44.7528933" lon="9.8560633"><ele>384.0</ele><time>2026-04-19T07:39:24.055Z</time></trkpt><trkpt lat="44.7530217" lon="9.856145"><ele>381.79999999999995</ele><time>2026-04-19T07:39:25.055Z</time></trkpt><trkpt lat="44.7531417" lon="9.8562267"><ele>379.59999999999997</ele><time>2026-04-19T07:39:26.054Z</time></trkpt><trkpt lat="44.75325" lon="9.8563067"><ele>377.4</ele><time>2026-04-19T07:39:27.055Z</time></trkpt><trkpt lat="44.7533333" lon="9.8563767"><ele>375.2</ele><time>2026-04-19T07:39:28.055Z</time></trkpt><trkpt lat="44.7534033" lon="9.8564267"><ele>373.0</ele><time>2026-04-19T07:39:29.055Z</time></trkpt><trkpt lat="44.7534933" lon="9.85641"><ele>373.0</ele><time>2026-04-19T07:39:31.055Z</time></trkpt><trkpt lat="44.7535483" lon="9.8563017"><ele>373.0</ele><time>2026-04-19T07:39:33.054Z</time></trkpt><trkpt lat="44.7535883" lon="9.8562317"><ele>373.0</ele><time>2026-04-19T07:39:35.054Z</time></trkpt><trkpt lat="44.7535633" lon="9.85609"><ele>373.0</ele><time>2026-04-19T07:39:38.054Z</time></trkpt><trkpt lat="44.7535217" lon="9.8560183"><ele>373.0</ele><time>2026-04-19T07:39:39.053Z</time></trkpt><trkpt lat="44.7534733" lon="9.855935"><ele>373.0</ele><time>2026-04-19T07:39:40.055Z</time></trkpt><trkpt lat="44.7534133" lon="9.8558283"><ele>371.2</ele><time>2026-04-19T07:39:41.055Z</time></trkpt><trkpt lat="44.75335" lon="9.855715"><ele>369.4</ele><time>2026-04-19T07:39:42.053Z</time></trkpt><trkpt lat="44.7532833" lon="9.8555883"><ele>367.59999999999997</ele><time>2026-04-19T07:39:43.053Z</time></trkpt><trkpt lat="44.7532067" lon="9.85546"><ele>365.79999999999995</ele><time>2026-04-19T07:39:44.053Z</time></trkpt><trkpt lat="44.753135" lon="9.85535"><ele>364.0</ele><time>2026-04-19T07:39:45.053Z</time></trkpt><trkpt lat="44.7530783" lon="9.855265"><ele>364.0</ele><time>2026-04-19T07:39:46.056Z</time></trkpt><trkpt lat="44.7530267" lon="9.8551383"><ele>364.0</ele><time>2026-04-19T07:39:48.055Z</time></trkpt><trkpt lat="44.7531233" lon="9.8550833"><ele>364.0</ele><time>2026-04-19T07:39:50.056Z</time></trkpt><trkpt lat="44.75322" lon="9.8550917"><ele>364.0</ele><time>2026-04-19T07:39:51.055Z</time></trkpt><trkpt lat="44.7533217" lon="9.85511"><ele>364.0</ele><time>2026-04-19T07:39:52.055Z</time></trkpt><trkpt lat="44.7534267" lon="9.8551517"><ele>364.0</ele><time>2026-04-19T07:39:53.056Z</time></trkpt><trkpt lat="44.7535167" lon="9.8552283"><ele>364.0</ele><time>2026-04-19T07:39:54.055Z</time></trkpt><trkpt lat="44.7536033" lon="9.855335"><ele>364.0</ele><time>2026-04-19T07:39:55.055Z</time></trkpt><trkpt lat="44.7536883" lon="9.8554367"><ele>364.0</ele><time>2026-04-19T07:39:56.056Z</time></trkpt><trkpt lat="44.75378" lon="9.85551"><ele>364.0</ele><time>2026-04-19T07:39:57.055Z</time></trkpt><trkpt lat="44.7538733" lon="9.8555533"><ele>367.4</ele><time>2026-04-19T07:39:58.055Z</time></trkpt><trkpt lat="44.75397" lon="9.8555717"><ele>370.79999999999995</ele><time>2026-04-19T07:39:59.053Z</time></trkpt><trkpt lat="44.754065" lon="9.85559"><ele>374.20000000000005</ele><time>2026-04-19T07:40:00.053Z</time></trkpt><trkpt lat="44.7541567" lon="9.855625"><ele>377.6</ele><time>2026-04-19T07:40:01.053Z</time></trkpt><trkpt lat="44.7542383" lon="9.855665"><ele>381.0</ele><time>2026-04-19T07:40:02.054Z</time></trkpt><trkpt lat="44.75432" lon="9.855695"><ele>382.2857142857143</ele><time>2026-04-19T07:40:03.053Z</time></trkpt><trkpt lat="44.7543967" lon="9.8557217"><ele>383.5714285714286</ele><time>2026-04-19T07:40:04.053Z</time></trkpt><trkpt lat="44.75447" lon="9.855735"><ele>384.8571428571429</ele><time>2026-04-19T07:40:05.056Z</time></trkpt><trkpt lat="44.7545383" lon="9.855745"><ele>386.1428571428571</ele><time>2026-04-19T07:40:06.055Z</time></trkpt><trkpt lat="44.7546033" lon="9.8557317"><ele>387.42857142857144</ele><time>2026-04-19T07:40:07.054Z</time></trkpt><trkpt lat="44.75467" lon="9.8556983"><ele>388.7142857142857</ele><time>2026-04-19T07:40:08.054Z</time></trkpt><trkpt lat="44.75474" lon="9.8556483"><ele>390.0</ele><time>2026-04-19T07:40:09.054Z</time></trkpt><trkpt lat="44.754825" lon="9.8555917"><ele>390.0</ele><time>2026-04-19T07:40:10.055Z</time></trkpt><trkpt lat="44.75492" lon="9.8555417"><ele>390.0</ele><time>2026-04-19T07:40:11.056Z</time></trkpt><trkpt lat="44.7550083" lon="9.8554783"><ele>390.0</ele><time>2026-04-19T07:40:12.055Z</time></trkpt><trkpt lat="44.755095" lon="9.8553833"><ele>390.0</ele><time>2026-04-19T07:40:13.054Z</time></trkpt><trkpt lat="44.75518" lon="9.8552683"><ele>390.0</ele><time>2026-04-19T07:40:14.053Z</time></trkpt><trkpt lat="44.75528" lon="9.855145"><ele>394.0</ele><time>2026-04-19T07:40:15.053Z</time></trkpt><trkpt lat="44.755375" lon="9.8550367"><ele>398.0</ele><time>2026-04-19T07:40:16.054Z</time></trkpt><trkpt lat="44.755465" lon="9.8549517"><ele>402.0</ele><time>2026-04-19T07:40:17.053Z</time></trkpt><trkpt lat="44.7555483" lon="9.8548917"><ele>406.0</ele><time>2026-04-19T07:40:18.056Z</time></trkpt><trkpt lat="44.755635" lon="9.854865"><ele>410.0</ele><time>2026-04-19T07:40:19.055Z</time></trkpt><trkpt lat="44.7557233" lon="9.8548783"><ele>410.0</ele><time>2026-04-19T07:40:20.054Z</time></trkpt><trkpt lat="44.7558067" lon="9.8549333"><ele>410.0</ele><time>2026-04-19T07:40:21.057Z</time></trkpt><trkpt lat="44.75589" lon="9.855025"><ele>410.0</ele><time>2026-04-19T07:40:22.056Z</time></trkpt><trkpt lat="44.7559667" lon="9.8551317"><ele>410.0</ele><time>2026-04-19T07:40:23.056Z</time></trkpt><trkpt lat="44.7560333" lon="9.8552483"><ele>410.0</ele><time>2026-04-19T07:40:24.056Z</time></trkpt><trkpt lat="44.7560967" lon="9.8553783"><ele>411.2</ele><time>2026-04-19T07:40:25.055Z</time></trkpt><trkpt lat="44.7561533" lon="9.85551"><ele>412.4</ele><time>2026-04-19T07:40:26.055Z</time></trkpt><trkpt lat="44.7562017" lon="9.8556367"><ele>413.6</ele><time>2026-04-19T07:40:27.055Z</time></trkpt><trkpt lat="44.756245" lon="9.855755"><ele>414.8</ele><time>2026-04-19T07:40:28.055Z</time></trkpt><trkpt lat="44.756285" lon="9.8558683"><ele>416.0</ele><time>2026-04-19T07:40:29.055Z</time></trkpt><trkpt lat="44.75632" lon="9.8559583"><ele>413.0</ele><time>2026-04-19T07:40:30.053Z</time></trkpt><trkpt lat="44.756385" lon="9.8560667"><ele>410.0</ele><time>2026-04-19T07:40:32.054Z</time></trkpt><trkpt lat="44.7564417" lon="9.8561417"><ele>407.0</ele><time>2026-04-19T07:40:35.053Z</time></trkpt><trkpt lat="44.7564983" lon="9.8561883"><ele>404.0</ele><time>2026-04-19T07:40:37.054Z</time></trkpt><trkpt lat="44.7565767" lon="9.8562617"><ele>401.0</ele><time>2026-04-19T07:40:39.053Z</time></trkpt><trkpt lat="44.7566883" lon="9.8563583"><ele>401.0</ele><time>2026-04-19T07:40:41.053Z</time></trkpt><trkpt lat="44.756755" lon="9.85639"><ele>401.0</ele><time>2026-04-19T07:40:42.054Z</time></trkpt><trkpt lat="44.7568233" lon="9.8564033"><ele>401.0</ele><time>2026-04-19T07:40:43.054Z</time></trkpt><trkpt lat="44.75689" lon="9.85639"><ele>401.0</ele><time>2026-04-19T07:40:44.053Z</time></trkpt><trkpt lat="44.7569583" lon="9.8563583"><ele>401.0</ele><time>2026-04-19T07:40:45.054Z</time></trkpt><trkpt lat="44.7570233" lon="9.856305"><ele>401.0</ele><time>2026-04-19T07:40:46.054Z</time></trkpt><trkpt lat="44.7570833" lon="9.856245"><ele>401.0</ele><time>2026-04-19T07:40:47.055Z</time></trkpt><trkpt lat="44.75714" lon="9.8561833"><ele>400.7142857142857</ele><time>2026-04-19T07:40:48.055Z</time></trkpt><trkpt lat="44.7571933" lon="9.8561167"><ele>400.42857142857144</ele><time>2026-04-19T07:40:49.055Z</time></trkpt><trkpt lat="44.7572467" lon="9.856045"><ele>400.1428571428571</ele><time>2026-04-19T07:40:50.056Z</time></trkpt><trkpt lat="44.7572983" lon="9.8559717"><ele>399.8571428571429</ele><time>2026-04-19T07:40:51.056Z</time></trkpt><trkpt lat="44.7573517" lon="9.8558967"><ele>399.57142857142856</ele><time>2026-04-19T07:40:52.056Z</time></trkpt><trkpt lat="44.75741" lon="9.855825"><ele>399.2857142857143</ele><time>2026-04-19T07:40:53.056Z</time></trkpt><trkpt lat="44.75747" lon="9.85576"><ele>399.0</ele><time>2026-04-19T07:40:54.056Z</time></trkpt><trkpt lat="44.7575267" lon="9.8556933"><ele>400.6666666666667</ele><time>2026-04-19T07:40:55.055Z</time></trkpt><trkpt lat="44.7575767" lon="9.8556183"><ele>402.33333333333337</ele><time>2026-04-19T07:40:56.055Z</time></trkpt><trkpt lat="44.7576267" lon="9.85553"><ele>404.0</ele><time>2026-04-19T07:40:57.056Z</time></trkpt><trkpt lat="44.757675" lon="9.8554233"><ele>405.6666666666667</ele><time>2026-04-19T07:40:58.055Z</time></trkpt><trkpt lat="44.7577217" lon="9.8553067"><ele>407.33333333333337</ele><time>2026-04-19T07:40:59.054Z</time></trkpt><trkpt lat="44.757765" lon="9.8551733"><ele>409.0</ele><time>2026-04-19T07:41:00.056Z</time></trkpt><trkpt lat="44.7578083" lon="9.85503"><ele>414.0</ele><time>2026-04-19T07:41:01.053Z</time></trkpt><trkpt lat="44.757845" lon="9.8548933"><ele>419.0</ele><time>2026-04-19T07:41:02.053Z</time></trkpt><trkpt lat="44.75788" lon="9.8547733"><ele>424.0</ele><time>2026-04-19T07:41:03.054Z</time></trkpt><trkpt lat="44.7579117" lon="9.8546633"><ele>429.0</ele><time>2026-04-19T07:41:04.053Z</time></trkpt><trkpt lat="44.757945" lon="9.8545817"><ele>434.0</ele><time>2026-04-19T07:41:05.053Z</time></trkpt><trkpt lat="44.7580383" lon="9.8545033"><ele>434.0</ele><time>2026-04-19T07:41:07.054Z</time></trkpt><trkpt lat="44.7581183" lon="9.8546"><ele>434.0</ele><time>2026-04-19T07:41:09.057Z</time></trkpt><trkpt lat="44.7581383" lon="9.8547417"><ele>434.0</ele><time>2026-04-19T07:41:10.053Z</time></trkpt><trkpt lat="44.7581467" lon="9.854925"><ele>434.0</ele><time>2026-04-19T07:41:11.053Z</time></trkpt><trkpt lat="44.7581583" lon="9.85515"><ele>431.0</ele><time>2026-04-19T07:41:12.054Z</time></trkpt><trkpt lat="44.75817" lon="9.85538"><ele>428.0</ele><time>2026-04-19T07:41:13.054Z</time></trkpt><trkpt lat="44.7581833" lon="9.8555817"><ele>425.0</ele><time>2026-04-19T07:41:14.055Z</time></trkpt><trkpt lat="44.7581983" lon="9.8557433"><ele>422.0</ele><time>2026-04-19T07:41:15.055Z</time></trkpt><trkpt lat="44.7582217" lon="9.8558767"><ele>421.16666666666663</ele><time>2026-04-19T07:41:16.054Z</time></trkpt><trkpt lat="44.7582567" lon="9.855985"><ele>420.3333333333333</ele><time>2026-04-19T07:41:17.056Z</time></trkpt><trkpt lat="44.7583217" lon="9.85607"><ele>419.5</ele><time>2026-04-19T07:41:18.054Z</time></trkpt><trkpt lat="44.7584117" lon="9.8561333"><ele>418.66666666666663</ele><time>2026-04-19T07:41:19.055Z</time></trkpt><trkpt lat="44.758485" lon="9.85619"><ele>417.8333333333333</ele><time>2026-04-19T07:41:20.055Z</time></trkpt><trkpt lat="44.7585367" lon="9.8562583"><ele>417.0</ele><time>2026-04-19T07:41:21.056Z</time></trkpt><trkpt lat="44.7585667" lon="9.856425"><ele>417.0</ele><time>2026-04-19T07:41:23.056Z</time></trkpt><trkpt lat="44.758535" lon="9.856505"><ele>417.0</ele><time>2026-04-19T07:41:24.055Z</time></trkpt><trkpt lat="44.7584783" lon="9.8565867"><ele>417.0</ele><time>2026-04-19T07:41:25.055Z</time></trkpt><trkpt lat="44.7584117" lon="9.8566817"><ele>417.0</ele><time>2026-04-19T07:41:26.056Z</time></trkpt><trkpt lat="44.7583617" lon="9.8568067"><ele>417.0</ele><time>2026-04-19T07:41:27.053Z</time></trkpt><trkpt lat="44.7583183" lon="9.8569433"><ele>417.0</ele><time>2026-04-19T07:41:28.054Z</time></trkpt><trkpt lat="44.7582833" lon="9.8570867"><ele>417.8</ele><time>2026-04-19T07:41:29.053Z</time></trkpt><trkpt lat="44.75825" lon="9.8572317"><ele>418.6</ele><time>2026-04-19T07:41:30.054Z</time></trkpt><trkpt lat="44.7582233" lon="9.8573733"><ele>419.40000000000003</ele><time>2026-04-19T07:41:31.053Z</time></trkpt><trkpt lat="44.7582017" lon="9.8575117"><ele>420.20000000000005</ele><time>2026-04-19T07:41:32.054Z</time></trkpt><trkpt lat="44.7581833" lon="9.85765"><ele>421.0</ele><time>2026-04-19T07:41:33.056Z</time></trkpt><trkpt lat="44.758175" lon="9.8577833"><ele>421.00000000000006</ele><time>2026-04-19T07:41:34.054Z</time></trkpt><trkpt lat="44.7581683" lon="9.857915"><ele>421.0</ele><time>2026-04-19T07:41:35.054Z</time></trkpt><trkpt lat="44.7581683" lon="9.8580367"><ele>421.0</ele><time>2026-04-19T07:41:36.055Z</time></trkpt><trkpt lat="44.7581767" lon="9.8581467"><ele>421.0</ele><time>2026-04-19T07:41:37.053Z</time></trkpt><trkpt lat="44.758195" lon="9.85824"><ele>421.00000000000006</ele><time>2026-04-19T07:41:38.053Z</time></trkpt><trkpt lat="44.7582333" lon="9.8583133"><ele>421.0</ele><time>2026-04-19T07:41:39.053Z</time></trkpt><trkpt lat="44.7583283" lon="9.858405"><ele>421.00000000000006</ele><time>2026-04-19T07:41:41.053Z</time></trkpt><trkpt lat="44.758385" lon="9.8584483"><ele>421.0</ele><time>2026-04-19T07:41:43.054Z</time></trkpt><trkpt lat="44.7584017" lon="9.8583367"><ele>421.0</ele><time>2026-04-19T07:42:30.052Z</time></trkpt><trkpt lat="44.7583817" lon="9.8582033"><ele>421.0</ele><time>2026-04-19T07:42:32.054Z</time></trkpt><trkpt lat="44.758415" lon="9.858105"><ele>421.00000000000006</ele><time>2026-04-19T07:42:34.053Z</time></trkpt><trkpt lat="44.75847" lon="9.85806"><ele>421.0</ele><time>2026-04-19T07:42:36.054Z</time></trkpt><trkpt lat="44.7585417" lon="9.8580817"><ele>424.6666666666667</ele><time>2026-04-19T07:42:40.052Z</time></trkpt><trkpt lat="44.7586067" lon="9.858135"><ele>428.33333333333337</ele><time>2026-04-19T07:42:42.053Z</time></trkpt><trkpt lat="44.75873" lon="9.8581517"><ele>432.0</ele><time>2026-04-19T07:42:44.054Z</time></trkpt><trkpt lat="44.7588017" lon="9.8581633"><ele>435.66666666666663</ele><time>2026-04-19T07:42:45.054Z</time></trkpt><trkpt lat="44.758865" lon="9.858185"><ele>439.3333333333333</ele><time>2026-04-19T07:42:46.053Z</time></trkpt><trkpt lat="44.7589267" lon="9.8582083"><ele>443.0</ele><time>2026-04-19T07:42:47.056Z</time></trkpt><trkpt lat="44.7590233" lon="9.858245"><ele>443.0</ele><time>2026-04-19T07:42:49.053Z</time></trkpt><trkpt lat="44.759115" lon="9.8582233"><ele>442.99999999999994</ele><time>2026-04-19T07:42:51.054Z</time></trkpt><trkpt lat="44.7592017" lon="9.8581533"><ele>442.99999999999994</ele><time>2026-04-19T07:42:53.054Z</time></trkpt><trkpt lat="44.7592983" lon="9.8580733"><ele>443.0</ele><time>2026-04-19T07:42:55.053Z</time></trkpt><trkpt lat="44.7594133" lon="9.858045"><ele>443.0</ele><time>2026-04-19T07:42:57.053Z</time></trkpt><trkpt lat="44.7595183" lon="9.8580217"><ele>446.2</ele><time>2026-04-19T07:42:59.054Z</time></trkpt><trkpt lat="44.7596283" lon="9.8579417"><ele>449.4</ele><time>2026-04-19T07:43:01.054Z</time></trkpt><trkpt lat="44.759705" lon="9.8578833"><ele>452.59999999999997</ele><time>2026-04-19T07:43:02.053Z</time></trkpt><trkpt lat="44.7597817" lon="9.8578267"><ele>455.79999999999995</ele><time>2026-04-19T07:43:03.054Z</time></trkpt><trkpt lat="44.7598567" lon="9.857775"><ele>459.0</ele><time>2026-04-19T07:43:04.054Z</time></trkpt><trkpt lat="44.7599233" lon="9.857725"><ele>459.0</ele><time>2026-04-19T07:43:05.053Z</time></trkpt><trkpt lat="44.7600283" lon="9.8576667"><ele>459.0</ele><time>2026-04-19T07:43:07.053Z</time></trkpt><trkpt lat="44.7601317" lon="9.857635"><ele>459.0</ele><time>2026-04-19T07:43:09.054Z</time></trkpt><trkpt lat="44.7602267" lon="9.8576"><ele>459.0</ele><time>2026-04-19T07:43:11.053Z</time></trkpt><trkpt lat="44.7603383" lon="9.857555"><ele>459.0</ele><time>2026-04-19T07:43:13.053Z</time></trkpt><trkpt lat="44.7604083" lon="9.8575333"><ele>465.4</ele><time>2026-04-19T07:43:14.055Z</time></trkpt><trkpt lat="44.7605217" lon="9.8574783"><ele>471.79999999999995</ele><time>2026-04-19T07:43:16.054Z</time></trkpt><trkpt lat="44.7605817" lon="9.8574283"><ele>478.20000000000005</ele><time>2026-04-19T07:43:17.054Z</time></trkpt><trkpt lat="44.7606333" lon="9.8573767"><ele>484.6</ele><time>2026-04-19T07:43:18.055Z</time></trkpt><trkpt lat="44.7607133" lon="9.85727"><ele>491.0</ele><time>2026-04-19T07:43:20.054Z</time></trkpt><trkpt lat="44.76079" lon="9.85717"><ele>490.99999999999994</ele><time>2026-04-19T07:43:22.054Z</time></trkpt><trkpt lat="44.760865" lon="9.8570867"><ele>491.0</ele><time>2026-04-19T07:43:24.056Z</time></trkpt><trkpt lat="44.7609383" lon="9.8570033"><ele>491.0</ele><time>2026-04-19T07:43:26.054Z</time></trkpt><trkpt lat="44.7609717" lon="9.856925"><ele>491.0</ele><time>2026-04-19T07:43:28.055Z</time></trkpt><trkpt lat="44.7610467" lon="9.8568183"><ele>490.99999999999994</ele><time>2026-04-19T07:43:38.054Z</time></trkpt><trkpt lat="44.7611067" lon="9.8567533"><ele>491.0</ele><time>2026-04-19T07:43:39.053Z</time></trkpt><trkpt lat="44.7611667" lon="9.8566733"><ele>494.49999999999994</ele><time>2026-04-19T07:43:40.053Z</time></trkpt><trkpt lat="44.7612283" lon="9.8565817"><ele>498.0</ele><time>2026-04-19T07:43:41.054Z</time></trkpt><trkpt lat="44.76128" lon="9.856495"><ele>501.5</ele><time>2026-04-19T07:43:42.054Z</time></trkpt><trkpt lat="44.76132" lon="9.856425"><ele>505.0</ele><time>2026-04-19T07:43:43.055Z</time></trkpt><trkpt lat="44.7613733" lon="9.85632"><ele>508.49999999999994</ele><time>2026-04-19T07:43:45.055Z</time></trkpt><trkpt lat="44.7614267" lon="9.8562467"><ele>512.0</ele><time>2026-04-19T07:43:47.054Z</time></trkpt><trkpt lat="44.76151" lon="9.8562117"><ele>512.0</ele><time>2026-04-19T07:43:50.054Z</time></trkpt><trkpt lat="44.7616033" lon="9.856215"><ele>512.0</ele><time>2026-04-19T07:43:52.054Z</time></trkpt><trkpt lat="44.761695" lon="9.85621"><ele>512.0</ele><time>2026-04-19T07:43:54.056Z</time></trkpt><trkpt lat="44.7617617" lon="9.8561633"><ele>512.0</ele><time>2026-04-19T07:43:56.054Z</time></trkpt><trkpt lat="44.7618567" lon="9.8560517"><ele>512.0</ele><time>2026-04-19T07:43:58.055Z</time></trkpt><trkpt lat="44.7619133" lon="9.855995"><ele>516.1428571428571</ele><time>2026-04-19T07:43:59.055Z</time></trkpt><trkpt lat="44.76197" lon="9.8559383"><ele>520.2857142857142</ele><time>2026-04-19T07:44:00.054Z</time></trkpt><trkpt lat="44.762025" lon="9.8558867"><ele>524.4285714285714</ele><time>2026-04-19T07:44:01.054Z</time></trkpt><trkpt lat="44.7620833" lon="9.8558233"><ele>528.5714285714286</ele><time>2026-04-19T07:44:02.056Z</time></trkpt><trkpt lat="44.7621317" lon="9.8557583"><ele>532.7142857142858</ele><time>2026-04-19T07:44:03.054Z</time></trkpt><trkpt lat="44.76218" lon="9.8557"><ele>536.8571428571429</ele><time>2026-04-19T07:44:04.054Z</time></trkpt><trkpt lat="44.7622317" lon="9.8556483"><ele>541.0</ele><time>2026-04-19T07:44:05.053Z</time></trkpt><trkpt lat="44.7622883" lon="9.8556017"><ele>541.0000000000001</ele><time>2026-04-19T07:44:06.053Z</time></trkpt><trkpt lat="44.7623467" lon="9.85556"><ele>541.0</ele><time>2026-04-19T07:44:07.055Z</time></trkpt><trkpt lat="44.7624083" lon="9.8555167"><ele>541.0</ele><time>2026-04-19T07:44:08.056Z</time></trkpt><trkpt lat="44.7624733" lon="9.8554967"><ele>541.0</ele><time>2026-04-19T07:44:09.054Z</time></trkpt><trkpt lat="44.7625383" lon="9.8555067"><ele>541.0</ele><time>2026-04-19T07:44:10.055Z</time></trkpt><trkpt lat="44.7625983" lon="9.8555433"><ele>541.0000000000001</ele><time>2026-04-19T07:44:11.056Z</time></trkpt><trkpt lat="44.762655" lon="9.8555833"><ele>541.0</ele><time>2026-04-19T07:44:12.054Z</time></trkpt><trkpt lat="44.762725" lon="9.8556067"><ele>541.2857142857143</ele><time>2026-04-19T07:44:13.054Z</time></trkpt><trkpt lat="44.762795" lon="9.85561"><ele>541.5714285714286</ele><time>2026-04-19T07:44:14.055Z</time></trkpt><trkpt lat="44.76287" lon="9.855615"><ele>541.8571428571429</ele><time>2026-04-19T07:44:15.056Z</time></trkpt><trkpt lat="44.7629483" lon="9.85562"><ele>542.1428571428571</ele><time>2026-04-19T07:44:16.055Z</time></trkpt><trkpt lat="44.763025" lon="9.85562"><ele>542.4285714285714</ele><time>2026-04-19T07:44:17.055Z</time></trkpt><trkpt lat="44.7630917" lon="9.855615"><ele>542.7142857142858</ele><time>2026-04-19T07:44:18.056Z</time></trkpt><trkpt lat="44.7631533" lon="9.8555533"><ele>543.0</ele><time>2026-04-19T07:44:31.055Z</time></trkpt><trkpt lat="44.763185" lon="9.8554367"><ele>543.0</ele><time>2026-04-19T07:44:33.054Z</time></trkpt><trkpt lat="44.763205" lon="9.8553267"><ele>543.0</ele><time>2026-04-19T07:44:35.055Z</time></trkpt><trkpt lat="44.7631883" lon="9.8551867"><ele>543.0</ele><time>2026-04-19T07:44:38.054Z</time></trkpt><trkpt lat="44.7631667" lon="9.8550767"><ele>543.0</ele><time>2026-04-19T07:44:40.054Z</time></trkpt><trkpt lat="44.7631533" lon="9.854965"><ele>543.0</ele><time>2026-04-19T07:44:42.054Z</time></trkpt><trkpt lat="44.7631817" lon="9.8548467"><ele>543.0</ele><time>2026-04-19T07:44:44.055Z</time></trkpt><trkpt lat="44.7632317" lon="9.854745"><ele>546.3333333333334</ele><time>2026-04-19T07:44:46.055Z</time></trkpt><trkpt lat="44.7632983" lon="9.8546383"><ele>549.6666666666666</ele><time>2026-04-19T07:45:13.054Z</time></trkpt><trkpt lat="44.7633317" lon="9.8545533"><ele>553.0</ele><time>2026-04-19T07:45:16.055Z</time></trkpt><trkpt lat="44.7633667" lon="9.8544567"><ele>556.3333333333333</ele><time>2026-04-19T07:45:19.054Z</time></trkpt><trkpt lat="44.7633417" lon="9.854355"><ele>559.6666666666666</ele><time>2026-04-19T07:45:22.054Z</time></trkpt><trkpt lat="44.76329" lon="9.8542517"><ele>563.0</ele><time>2026-04-19T07:45:25.054Z</time></trkpt><trkpt lat="44.7632433" lon="9.854155"><ele>566.5714285714286</ele><time>2026-04-19T07:45:28.053Z</time></trkpt><trkpt lat="44.7632033" lon="9.85407"><ele>570.1428571428571</ele><time>2026-04-19T07:45:31.055Z</time></trkpt><trkpt lat="44.763175" lon="9.853985"><ele>573.7142857142858</ele><time>2026-04-19T07:45:34.055Z</time></trkpt><trkpt lat="44.7631617" lon="9.8538967"><ele>577.2857142857142</ele><time>2026-04-19T07:45:41.054Z</time></trkpt><trkpt lat="44.76315" lon="9.8538083"><ele>580.8571428571429</ele><time>2026-04-19T07:45:45.054Z</time></trkpt><trkpt lat="44.7631533" lon="9.8537083"><ele>584.4285714285714</ele><time>2026-04-19T07:45:54.054Z</time></trkpt><trkpt lat="44.7631667" lon="9.8536033"><ele>588.0</ele><time>2026-04-19T07:45:56.055Z</time></trkpt><trkpt lat="44.7631783" lon="9.8535067"><ele>592.3333333333334</ele><time>2026-04-19T07:45:59.053Z</time></trkpt><trkpt lat="44.763205" lon="9.8534167"><ele>596.6666666666666</ele><time>2026-04-19T07:46:02.054Z</time></trkpt><trkpt lat="44.763245" lon="9.853325"><ele>601.0</ele><time>2026-04-19T07:46:05.054Z</time></trkpt><trkpt lat="44.7632967" lon="9.85323"><ele>605.3333333333333</ele><time>2026-04-19T07:46:08.054Z</time></trkpt><trkpt lat="44.7633383" lon="9.8531583"><ele>609.6666666666666</ele><time>2026-04-19T07:46:10.054Z</time></trkpt><trkpt lat="44.763395" lon="9.853075"><ele>614.0</ele><time>2026-04-19T07:46:12.055Z</time></trkpt><trkpt lat="44.7634283" lon="9.8529783"><ele>614.0</ele><time>2026-04-19T07:46:14.054Z</time></trkpt><trkpt lat="44.76345" lon="9.8528533"><ele>614.0</ele><time>2026-04-19T07:46:17.054Z</time></trkpt><trkpt lat="44.7635067" lon="9.8528133"><ele>614.0</ele><time>2026-04-19T07:46:19.055Z</time></trkpt><trkpt lat="44.7635717" lon="9.8527533"><ele>614.0</ele><time>2026-04-19T07:46:21.055Z</time></trkpt><trkpt lat="44.7636317" lon="9.8526733"><ele>614.0</ele><time>2026-04-19T07:46:23.054Z</time></trkpt><trkpt lat="44.7636917" lon="9.8526017"><ele>614.0</ele><time>2026-04-19T07:46:25.053Z</time></trkpt><trkpt lat="44.7637617" lon="9.8525433"><ele>617.3333333333333</ele><time>2026-04-19T07:46:27.054Z</time></trkpt><trkpt lat="44.763865" lon="9.8525117"><ele>620.6666666666666</ele><time>2026-04-19T07:46:29.054Z</time></trkpt><trkpt lat="44.7639617" lon="9.8525"><ele>624.0</ele><time>2026-04-19T07:46:31.054Z</time></trkpt><trkpt lat="44.7640083" lon="9.8524333"><ele>627.3333333333334</ele><time>2026-04-19T07:46:33.054Z</time></trkpt><trkpt lat="44.7640183" lon="9.8523367"><ele>630.6666666666667</ele><time>2026-04-19T07:46:35.053Z</time></trkpt><trkpt lat="44.7640117" lon="9.8522217"><ele>634.0</ele><time>2026-04-19T07:46:37.053Z</time></trkpt><trkpt lat="44.763965" lon="9.8521383"><ele>634.0</ele><time>2026-04-19T07:46:39.053Z</time></trkpt><trkpt lat="44.7639233" lon="9.85207"><ele>634.0</ele><time>2026-04-19T07:46:41.054Z</time></trkpt><trkpt lat="44.76391" lon="9.851935"><ele>634.0</ele><time>2026-04-19T07:46:43.053Z</time></trkpt><trkpt lat="44.7639233" lon="9.8517833"><ele>634.0</ele><time>2026-04-19T07:46:45.054Z</time></trkpt><trkpt lat="44.763935" lon="9.851645"><ele>634.0</ele><time>2026-04-19T07:46:47.054Z</time></trkpt><trkpt lat="44.7639083" lon="9.8515583"><ele>634.0</ele><time>2026-04-19T07:46:49.055Z</time></trkpt><trkpt lat="44.7638417" lon="9.8515367"><ele>638.3333333333334</ele><time>2026-04-19T07:46:51.055Z</time></trkpt><trkpt lat="44.7637833" lon="9.85147"><ele>642.6666666666667</ele><time>2026-04-19T07:47:03.054Z</time></trkpt><trkpt lat="44.763745" lon="9.8513817"><ele>647.0</ele><time>2026-04-19T07:47:05.054Z</time></trkpt><trkpt lat="44.7636683" lon="9.8513417"><ele>651.3333333333334</ele><time>2026-04-19T07:47:07.053Z</time></trkpt><trkpt lat="44.7635667" lon="9.8513567"><ele>655.6666666666666</ele><time>2026-04-19T07:47:09.053Z</time></trkpt><trkpt lat="44.763505" lon="9.8514317"><ele>660.0</ele><time>2026-04-19T07:47:11.053Z</time></trkpt><trkpt lat="44.7634167" lon="9.8514683"><ele>660.6</ele><time>2026-04-19T07:47:13.056Z</time></trkpt><trkpt lat="44.7633283" lon="9.851505"><ele>661.2</ele><time>2026-04-19T07:47:15.054Z</time></trkpt><trkpt lat="44.7632667" lon="9.8516433"><ele>661.8</ele><time>2026-04-19T07:47:17.055Z</time></trkpt><trkpt lat="44.76317" lon="9.8517517"><ele>662.4</ele><time>2026-04-19T07:47:19.055Z</time></trkpt><trkpt lat="44.763075" lon="9.851815"><ele>663.0</ele><time>2026-04-19T07:47:21.055Z</time></trkpt><trkpt lat="44.76301" lon="9.8518067"><ele>662.9999999999999</ele><time>2026-04-19T07:47:23.056Z</time></trkpt><trkpt lat="44.7629767" lon="9.85173"><ele>663.0</ele><time>2026-04-19T07:47:25.053Z</time></trkpt><trkpt lat="44.7629333" lon="9.8516167"><ele>663.0</ele><time>2026-04-19T07:47:27.053Z</time></trkpt><trkpt lat="44.7629033" lon="9.8515317"><ele>663.0</ele><time>2026-04-19T07:47:28.054Z</time></trkpt><trkpt lat="44.7628767" lon="9.85144"><ele>663.0</ele><time>2026-04-19T07:47:29.054Z</time></trkpt><trkpt lat="44.7628533" lon="9.8513367"><ele>662.9999999999999</ele><time>2026-04-19T07:47:30.054Z</time></trkpt><trkpt lat="44.7628333" lon="9.8512483"><ele>663.0</ele><time>2026-04-19T07:47:31.056Z</time></trkpt><trkpt lat="44.7628017" lon="9.8511267"><ele>663.0</ele><time>2026-04-19T07:47:33.054Z</time></trkpt><trkpt lat="44.7627583" lon="9.851015"><ele>663.0</ele><time>2026-04-19T07:47:35.053Z</time></trkpt><trkpt lat="44.762745" lon="9.8508933"><ele>663.0</ele><time>2026-04-19T07:47:37.053Z</time></trkpt><trkpt lat="44.7627233" lon="9.85078"><ele>663.0</ele><time>2026-04-19T07:47:40.054Z</time></trkpt><trkpt lat="44.7626633" lon="9.850685"><ele>663.0</ele><time>2026-04-19T07:47:43.054Z</time></trkpt><trkpt lat="44.7626017" lon="9.8506283"><ele>663.0</ele><time>2026-04-19T07:47:45.054Z</time></trkpt><trkpt lat="44.7625367" lon="9.8505317"><ele>666.3333333333334</ele><time>2026-04-19T07:47:47.054Z</time></trkpt><trkpt lat="44.7624617" lon="9.8504833"><ele>669.6666666666666</ele><time>2026-04-19T07:47:49.055Z</time></trkpt><trkpt lat="44.76243" lon="9.8503833"><ele>673.0</ele><time>2026-04-19T07:47:56.053Z</time></trkpt><trkpt lat="44.762385" lon="9.850265"><ele>676.3333333333333</ele><time>2026-04-19T07:48:16.053Z</time></trkpt><trkpt lat="44.762305" lon="9.8502433"><ele>679.6666666666666</ele><time>2026-04-19T07:48:19.055Z</time></trkpt><trkpt lat="44.7622333" lon="9.8502233"><ele>683.0</ele><time>2026-04-19T07:48:21.055Z</time></trkpt><trkpt lat="44.7621517" lon="9.8502133"><ele>683.0</ele><time>2026-04-19T07:48:23.055Z</time></trkpt><trkpt lat="44.762065" lon="9.850165"><ele>683.0</ele><time>2026-04-19T07:48:25.057Z</time></trkpt><trkpt lat="44.7619983" lon="9.8500367"><ele>683.0</ele><time>2026-04-19T07:48:27.054Z</time></trkpt><trkpt lat="44.7619783" lon="9.8499317"><ele>683.0</ele><time>2026-04-19T07:48:28.053Z</time></trkpt><trkpt lat="44.7619667" lon="9.8498217"><ele>683.0</ele><time>2026-04-19T07:48:29.053Z</time></trkpt><trkpt lat="44.76196" lon="9.8496683"><ele>688.4</ele><time>2026-04-19T07:48:31.056Z</time></trkpt><trkpt lat="44.7620017" lon="9.8495267"><ele>693.8</ele><time>2026-04-19T07:48:33.053Z</time></trkpt><trkpt lat="44.762035" lon="9.8493983"><ele>699.2</ele><time>2026-04-19T07:48:35.054Z</time></trkpt><trkpt lat="44.762025" lon="9.849255"><ele>704.6</ele><time>2026-04-19T07:48:37.054Z</time></trkpt><trkpt lat="44.7620317" lon="9.849075"><ele>710.0</ele><time>2026-04-19T07:48:39.055Z</time></trkpt><trkpt lat="44.7620433" lon="9.848985"><ele>713.0</ele><time>2026-04-19T07:48:40.054Z</time></trkpt><trkpt lat="44.762015" lon="9.84884"><ele>716.0</ele><time>2026-04-19T07:48:42.054Z</time></trkpt><trkpt lat="44.7619783" lon="9.848705"><ele>719.0</ele><time>2026-04-19T07:48:44.057Z</time></trkpt><trkpt lat="44.7619" lon="9.8485767"><ele>722.0</ele><time>2026-04-19T07:48:46.054Z</time></trkpt><trkpt lat="44.7618533" lon="9.84851"><ele>725.0</ele><time>2026-04-19T07:48:47.054Z</time></trkpt><trkpt lat="44.7618067" lon="9.8484417"><ele>727.6666666666666</ele><time>2026-04-19T07:48:48.055Z</time></trkpt><trkpt lat="44.76175" lon="9.8483367"><ele>730.3333333333333</ele><time>2026-04-19T07:48:50.055Z</time></trkpt><trkpt lat="44.7617083" lon="9.848255"><ele>733.0</ele><time>2026-04-19T07:48:53.054Z</time></trkpt><trkpt lat="44.7616233" lon="9.8482233"><ele>735.6666666666666</ele><time>2026-04-19T07:49:00.054Z</time></trkpt><trkpt lat="44.7615617" lon="9.8481583"><ele>738.3333333333334</ele><time>2026-04-19T07:49:05.053Z</time></trkpt><trkpt lat="44.76155" lon="9.8480317"><ele>741.0</ele><time>2026-04-19T07:49:08.054Z</time></trkpt><trkpt lat="44.7616183" lon="9.8479933"><ele>741.0</ele><time>2026-04-19T07:49:11.054Z</time></trkpt><trkpt lat="44.7616717" lon="9.8479133"><ele>741.0</ele><time>2026-04-19T07:49:13.053Z</time></trkpt><trkpt lat="44.7616983" lon="9.847825"><ele>741.0</ele><time>2026-04-19T07:49:14.054Z</time></trkpt><trkpt lat="44.7617267" lon="9.847745"><ele>741.0</ele><time>2026-04-19T07:49:15.053Z</time></trkpt><trkpt lat="44.7617617" lon="9.8476167"><ele>741.0</ele><time>2026-04-19T07:49:17.054Z</time></trkpt><trkpt lat="44.761815" lon="9.847555"><ele>741.0</ele><time>2026-04-19T07:49:19.053Z</time></trkpt><trkpt lat="44.7618733" lon="9.8474767"><ele>746.8333333333334</ele><time>2026-04-19T07:49:21.054Z</time></trkpt><trkpt lat="44.7619467" lon="9.8473833"><ele>752.6666666666667</ele><time>2026-04-19T07:49:23.055Z</time></trkpt><trkpt lat="44.7620283" lon="9.8473033"><ele>758.5</ele><time>2026-04-19T07:49:25.055Z</time></trkpt><trkpt lat="44.76208" lon="9.84737"><ele>764.3333333333334</ele><time>2026-04-19T07:49:28.053Z</time></trkpt><trkpt lat="44.7620683" lon="9.847485"><ele>770.1666666666667</ele><time>2026-04-19T07:49:30.053Z</time></trkpt><trkpt lat="44.762135" lon="9.847505"><ele>776.0</ele><time>2026-04-19T07:49:33.053Z</time></trkpt><trkpt lat="44.7622433" lon="9.847465"><ele>776.0</ele><time>2026-04-19T07:49:35.054Z</time></trkpt><trkpt lat="44.7623583" lon="9.8474433"><ele>776.0</ele><time>2026-04-19T07:49:37.054Z</time></trkpt><trkpt lat="44.762425" lon="9.8474317"><ele>776.0</ele><time>2026-04-19T07:49:38.055Z</time></trkpt><trkpt lat="44.76249" lon="9.8474233"><ele>776.0</ele><time>2026-04-19T07:49:39.055Z</time></trkpt><trkpt lat="44.7626067" lon="9.84744"><ele>776.0</ele><time>2026-04-19T07:49:41.054Z</time></trkpt><trkpt lat="44.7626967" lon="9.8474917"><ele>774.8</ele><time>2026-04-19T07:49:43.054Z</time></trkpt><trkpt lat="44.76274" lon="9.8474017"><ele>773.5999999999999</ele><time>2026-04-19T07:50:59.053Z</time></trkpt><trkpt lat="44.7627983" lon="9.84722"><ele>772.4</ele><time>2026-04-19T07:51:01.052Z</time></trkpt><trkpt lat="44.7628283" lon="9.8471083"><ele>771.2</ele><time>2026-04-19T07:51:02.053Z</time></trkpt><trkpt lat="44.7628517" lon="9.8469867"><ele>770.0</ele><time>2026-04-19T07:51:03.054Z</time></trkpt><trkpt lat="44.7628717" lon="9.8468583"><ele>770.2</ele><time>2026-04-19T07:51:04.054Z</time></trkpt><trkpt lat="44.76289" lon="9.8467283"><ele>770.4</ele><time>2026-04-19T07:51:05.056Z</time></trkpt><trkpt lat="44.7628983" lon="9.846595"><ele>770.5999999999999</ele><time>2026-04-19T07:51:06.055Z</time></trkpt><trkpt lat="44.7628983" lon="9.846455"><ele>770.8</ele><time>2026-04-19T07:51:07.054Z</time></trkpt><trkpt lat="44.762895" lon="9.8463167"><ele>771.0</ele><time>2026-04-19T07:51:08.056Z</time></trkpt><trkpt lat="44.76288" lon="9.8461917"><ele>771.0</ele><time>2026-04-19T07:51:09.053Z</time></trkpt><trkpt lat="44.7628617" lon="9.8460933"><ele>771.0</ele><time>2026-04-19T07:51:10.054Z</time></trkpt><trkpt lat="44.76283" lon="9.8459467"><ele>771.0</ele><time>2026-04-19T07:51:12.054Z</time></trkpt><trkpt lat="44.76278" lon="9.845825"><ele>771.0</ele><time>2026-04-19T07:51:14.055Z</time></trkpt><trkpt lat="44.76275" lon="9.845745"><ele>771.0</ele><time>2026-04-19T07:51:15.055Z</time></trkpt><trkpt lat="44.762705" lon="9.8456667"><ele>771.0</ele><time>2026-04-19T07:51:16.055Z</time></trkpt><trkpt lat="44.7626633" lon="9.8455717"><ele>771.0</ele><time>2026-04-19T07:51:17.053Z</time></trkpt><trkpt lat="44.76262" lon="9.845475"><ele>771.0</ele><time>2026-04-19T07:51:18.055Z</time></trkpt><trkpt lat="44.76258" lon="9.8453783"><ele>771.0</ele><time>2026-04-19T07:51:19.055Z</time></trkpt><trkpt lat="44.76254" lon="9.8452833"><ele>771.0</ele><time>2026-04-19T07:51:20.055Z</time></trkpt><trkpt lat="44.7625017" lon="9.84519"><ele>771.0</ele><time>2026-04-19T07:51:21.055Z</time></trkpt><trkpt lat="44.7624667" lon="9.8451117"><ele>771.0</ele><time>2026-04-19T07:51:22.055Z</time></trkpt><trkpt lat="44.7624217" lon="9.8449883"><ele>773.0</ele><time>2026-04-19T07:51:24.055Z</time></trkpt><trkpt lat="44.7624" lon="9.8448667"><ele>775.0</ele><time>2026-04-19T07:51:26.055Z</time></trkpt><trkpt lat="44.7623983" lon="9.8447017"><ele>777.0</ele><time>2026-04-19T07:51:28.056Z</time></trkpt><trkpt lat="44.7624067" lon="9.8445833"><ele>779.0</ele><time>2026-04-19T07:51:30.053Z</time></trkpt><trkpt lat="44.76241" lon="9.8444683"><ele>781.0</ele><time>2026-04-19T07:51:33.054Z</time></trkpt><trkpt lat="44.7623733" lon="9.84437"><ele>781.3333333333333</ele><time>2026-04-19T07:51:36.055Z</time></trkpt><trkpt lat="44.762335" lon="9.8442733"><ele>781.6666666666666</ele><time>2026-04-19T07:51:39.054Z</time></trkpt><trkpt lat="44.7622933" lon="9.8441917"><ele>782.0</ele><time>2026-04-19T07:51:41.053Z</time></trkpt><trkpt lat="44.7622183" lon="9.8440733"><ele>782.3333333333333</ele><time>2026-04-19T07:51:43.053Z</time></trkpt><trkpt lat="44.7621733" lon="9.8439983"><ele>782.6666666666666</ele><time>2026-04-19T07:51:44.054Z</time></trkpt><trkpt lat="44.7621" lon="9.84387"><ele>783.0</ele><time>2026-04-19T07:51:46.054Z</time></trkpt><trkpt lat="44.762035" lon="9.8437767"><ele>783.0</ele><time>2026-04-19T07:51:48.054Z</time></trkpt><trkpt lat="44.7619333" lon="9.843675"><ele>783.0</ele><time>2026-04-19T07:51:50.055Z</time></trkpt><trkpt lat="44.7618517" lon="9.8436317"><ele>783.0</ele><time>2026-04-19T07:51:51.055Z</time></trkpt><trkpt lat="44.7617717" lon="9.8435917"><ele>783.0</ele><time>2026-04-19T07:51:52.056Z</time></trkpt><trkpt lat="44.7617" lon="9.8435467"><ele>783.0</ele><time>2026-04-19T07:51:53.055Z</time></trkpt><trkpt lat="44.761595" lon="9.843485"><ele>785.0</ele><time>2026-04-19T07:51:55.055Z</time></trkpt><trkpt lat="44.7615167" lon="9.8433967"><ele>787.0</ele><time>2026-04-19T07:51:57.055Z</time></trkpt><trkpt lat="44.76148" lon="9.8432733"><ele>789.0</ele><time>2026-04-19T07:51:59.056Z</time></trkpt><trkpt lat="44.761455" lon="9.8431633"><ele>791.0</ele><time>2026-04-19T07:52:01.053Z</time></trkpt><trkpt lat="44.7614267" lon="9.8430367"><ele>793.0</ele><time>2026-04-19T07:52:03.054Z</time></trkpt><trkpt lat="44.7613983" lon="9.842885"><ele>793.0</ele><time>2026-04-19T07:52:05.055Z</time></trkpt><trkpt lat="44.761385" lon="9.8427983"><ele>793.0</ele><time>2026-04-19T07:52:06.054Z</time></trkpt><trkpt lat="44.761365" lon="9.8426333"><ele>793.0</ele><time>2026-04-19T07:52:08.055Z</time></trkpt><trkpt lat="44.76136" lon="9.842485"><ele>793.0</ele><time>2026-04-19T07:52:10.055Z</time></trkpt><trkpt lat="44.7613083" lon="9.8423283"><ele>793.0</ele><time>2026-04-19T07:52:12.054Z</time></trkpt><trkpt lat="44.761255" lon="9.8421767"><ele>793.4</ele><time>2026-04-19T07:52:14.056Z</time></trkpt><trkpt lat="44.76118" lon="9.84204"><ele>793.8</ele><time>2026-04-19T07:52:16.056Z</time></trkpt><trkpt lat="44.7611017" lon="9.841935"><ele>794.2</ele><time>2026-04-19T07:52:18.055Z</time></trkpt><trkpt lat="44.7609833" lon="9.8418683"><ele>794.6</ele><time>2026-04-19T07:52:20.055Z</time></trkpt><trkpt lat="44.76092" lon="9.8418267"><ele>795.0</ele><time>2026-04-19T07:52:21.056Z</time></trkpt><trkpt lat="44.7608583" lon="9.8417883"><ele>793.8333333333334</ele><time>2026-04-19T07:52:22.055Z</time></trkpt><trkpt lat="44.7607817" lon="9.8417117"><ele>792.6666666666667</ele><time>2026-04-19T07:52:24.055Z</time></trkpt><trkpt lat="44.760785" lon="9.841585"><ele>791.5</ele><time>2026-04-19T07:52:26.055Z</time></trkpt><trkpt lat="44.7607917" lon="9.8414833"><ele>790.3333333333334</ele><time>2026-04-19T07:52:27.055Z</time></trkpt><trkpt lat="44.7608083" lon="9.841355"><ele>789.1666666666667</ele><time>2026-04-19T07:52:28.055Z</time></trkpt><trkpt lat="44.7608167" lon="9.841235"><ele>788.0</ele><time>2026-04-19T07:52:29.055Z</time></trkpt><trkpt lat="44.760825" lon="9.8411367"><ele>788.0</ele><time>2026-04-19T07:52:30.053Z</time></trkpt><trkpt lat="44.7608333" lon="9.8409783"><ele>788.0</ele><time>2026-04-19T07:52:32.055Z</time></trkpt><trkpt lat="44.7607633" lon="9.8408867"><ele>788.0</ele><time>2026-04-19T07:52:35.055Z</time></trkpt><trkpt lat="44.7606683" lon="9.8408417"><ele>788.0</ele><time>2026-04-19T07:52:37.056Z</time></trkpt><trkpt lat="44.7605933" lon="9.840855"><ele>788.0</ele><time>2026-04-19T07:52:38.054Z</time></trkpt><trkpt lat="44.7605233" lon="9.8408617"><ele>786.1666666666667</ele><time>2026-04-19T07:52:39.056Z</time></trkpt><trkpt lat="44.76045" lon="9.8408617"><ele>784.3333333333334</ele><time>2026-04-19T07:52:40.054Z</time></trkpt><trkpt lat="44.7603817" lon="9.84085"><ele>782.5</ele><time>2026-04-19T07:52:41.053Z</time></trkpt><trkpt lat="44.76032" lon="9.8408233"><ele>780.6666666666667</ele><time>2026-04-19T07:52:42.055Z</time></trkpt><trkpt lat="44.760245" lon="9.840745"><ele>778.8333333333334</ele><time>2026-04-19T07:52:44.054Z</time></trkpt><trkpt lat="44.7601817" lon="9.8406583"><ele>777.0</ele><time>2026-04-19T07:52:46.055Z</time></trkpt><trkpt lat="44.7600733" lon="9.840625"><ele>777.4000000000001</ele><time>2026-04-19T07:52:48.054Z</time></trkpt><trkpt lat="44.759975" lon="9.840575"><ele>777.8000000000001</ele><time>2026-04-19T07:52:50.055Z</time></trkpt><trkpt lat="44.7598783" lon="9.8404317"><ele>778.2</ele><time>2026-04-19T07:52:52.053Z</time></trkpt><trkpt lat="44.7598267" lon="9.8403283"><ele>778.6</ele><time>2026-04-19T07:52:53.055Z</time></trkpt><trkpt lat="44.7597783" lon="9.840225"><ele>779.0</ele><time>2026-04-19T07:52:54.055Z</time></trkpt><trkpt lat="44.759725" lon="9.8401233"><ele>779.0000000000001</ele><time>2026-04-19T07:52:55.055Z</time></trkpt><trkpt lat="44.75967" lon="9.8400183"><ele>779.0</ele><time>2026-04-19T07:52:56.056Z</time></trkpt><trkpt lat="44.7596133" lon="9.8399033"><ele>779.0</ele><time>2026-04-19T07:52:57.054Z</time></trkpt><trkpt lat="44.7595583" lon="9.8398"><ele>779.0</ele><time>2026-04-19T07:52:58.054Z</time></trkpt><trkpt lat="44.7595083" lon="9.8397067"><ele>779.0000000000001</ele><time>2026-04-19T07:52:59.053Z</time></trkpt><trkpt lat="44.759465" lon="9.8396133"><ele>779.0</ele><time>2026-04-19T07:53:00.054Z</time></trkpt><trkpt lat="44.75942" lon="9.839535"><ele>779.0000000000001</ele><time>2026-04-19T07:53:01.053Z</time></trkpt><trkpt lat="44.75937" lon="9.8394683"><ele>779.0</ele><time>2026-04-19T07:53:02.054Z</time></trkpt><trkpt lat="44.759315" lon="9.83941"><ele>779.0</ele><time>2026-04-19T07:53:03.053Z</time></trkpt><trkpt lat="44.7592583" lon="9.8393667"><ele>779.0</ele><time>2026-04-19T07:53:04.054Z</time></trkpt><trkpt lat="44.7591533" lon="9.8392717"><ele>779.0000000000001</ele><time>2026-04-19T07:53:06.053Z</time></trkpt><trkpt lat="44.7591017" lon="9.8391917"><ele>779.0</ele><time>2026-04-19T07:53:07.054Z</time></trkpt><trkpt lat="44.75905" lon="9.8391067"><ele>778.6666666666667</ele><time>2026-04-19T07:53:08.056Z</time></trkpt><trkpt lat="44.759" lon="9.83902"><ele>778.3333333333334</ele><time>2026-04-19T07:53:09.055Z</time></trkpt><trkpt lat="44.7589583" lon="9.83893"><ele>778.0</ele><time>2026-04-19T07:53:10.054Z</time></trkpt><trkpt lat="44.7589217" lon="9.838835"><ele>777.6666666666667</ele><time>2026-04-19T07:53:11.056Z</time></trkpt><trkpt lat="44.7588817" lon="9.838745"><ele>777.3333333333334</ele><time>2026-04-19T07:53:12.055Z</time></trkpt><trkpt lat="44.7588433" lon="9.8386467"><ele>777.0</ele><time>2026-04-19T07:53:13.055Z</time></trkpt><trkpt lat="44.758805" lon="9.8385517"><ele>776.1666666666666</ele><time>2026-04-19T07:53:14.054Z</time></trkpt><trkpt lat="44.7587683" lon="9.8384617"><ele>775.3333333333333</ele><time>2026-04-19T07:53:15.054Z</time></trkpt><trkpt lat="44.75871" lon="9.8383433"><ele>774.5</ele><time>2026-04-19T07:53:17.055Z</time></trkpt><trkpt lat="44.758655" lon="9.838205"><ele>773.6666666666666</ele><time>2026-04-19T07:53:19.054Z</time></trkpt><trkpt lat="44.758615" lon="9.8381267"><ele>772.8333333333333</ele><time>2026-04-19T07:53:20.057Z</time></trkpt><trkpt lat="44.7585633" lon="9.838055"><ele>772.0</ele><time>2026-04-19T07:53:21.056Z</time></trkpt><trkpt lat="44.7585033" lon="9.838"><ele>771.9999999999999</ele><time>2026-04-19T07:53:22.055Z</time></trkpt><trkpt lat="44.75843" lon="9.8379483"><ele>772.0</ele><time>2026-04-19T07:53:23.054Z</time></trkpt><trkpt lat="44.75836" lon="9.8378783"><ele>772.0</ele><time>2026-04-19T07:53:24.055Z</time></trkpt><trkpt lat="44.75829" lon="9.8378183"><ele>772.0</ele><time>2026-04-19T07:53:25.054Z</time></trkpt><trkpt lat="44.75823" lon="9.8377617"><ele>771.9999999999999</ele><time>2026-04-19T07:53:26.056Z</time></trkpt><trkpt lat="44.7581883" lon="9.8376883"><ele>772.0</ele><time>2026-04-19T07:53:27.054Z</time></trkpt><trkpt lat="44.7581467" lon="9.8376083"><ele>771.9999999999999</ele><time>2026-04-19T07:53:28.056Z</time></trkpt><trkpt lat="44.7581067" lon="9.8375233"><ele>772.0</ele><time>2026-04-19T07:53:29.055Z</time></trkpt><trkpt lat="44.75806" lon="9.837425"><ele>772.0</ele><time>2026-04-19T07:53:30.055Z</time></trkpt><trkpt lat="44.758005" lon="9.837335"><ele>772.0</ele><time>2026-04-19T07:53:31.054Z</time></trkpt><trkpt lat="44.7579433" lon="9.8372483"><ele>771.9999999999999</ele><time>2026-04-19T07:53:32.055Z</time></trkpt><trkpt lat="44.7578783" lon="9.8371783"><ele>772.0</ele><time>2026-04-19T07:53:33.054Z</time></trkpt><trkpt lat="44.757815" lon="9.8371183"><ele>771.9999999999999</ele><time>2026-04-19T07:53:34.054Z</time></trkpt><trkpt lat="44.7577483" lon="9.8370667"><ele>772.0</ele><time>2026-04-19T07:53:35.054Z</time></trkpt><trkpt lat="44.75768" lon="9.8370233"><ele>772.0</ele><time>2026-04-19T07:53:36.056Z</time></trkpt><trkpt lat="44.7576033" lon="9.836985"><ele>772.0</ele><time>2026-04-19T07:53:37.055Z</time></trkpt><trkpt lat="44.7575333" lon="9.8369383"><ele>771.9999999999999</ele><time>2026-04-19T07:53:38.055Z</time></trkpt><trkpt lat="44.7574717" lon="9.836875"><ele>772.0</ele><time>2026-04-19T07:53:39.054Z</time></trkpt><trkpt lat="44.7574083" lon="9.8368117"><ele>771.4999999999999</ele><time>2026-04-19T07:53:40.056Z</time></trkpt><trkpt lat="44.7573433" lon="9.8367467"><ele>771.0</ele><time>2026-04-19T07:53:41.056Z</time></trkpt><trkpt lat="44.7572683" lon="9.8366917"><ele>770.5</ele><time>2026-04-19T07:53:42.054Z</time></trkpt><trkpt lat="44.75718" lon="9.8366567"><ele>770.0</ele><time>2026-04-19T07:53:43.055Z</time></trkpt><trkpt lat="44.7570983" lon="9.8366483"><ele>769.4999999999999</ele><time>2026-04-19T07:53:44.055Z</time></trkpt><trkpt lat="44.75702" lon="9.836645"><ele>769.0</ele><time>2026-04-19T07:53:45.054Z</time></trkpt><trkpt lat="44.7569467" lon="9.836635"><ele>769.0</ele><time>2026-04-19T07:53:46.054Z</time></trkpt><trkpt lat="44.756885" lon="9.8366083"><ele>769.0</ele><time>2026-04-19T07:53:47.055Z</time></trkpt><trkpt lat="44.75683" lon="9.836565"><ele>769.0</ele><time>2026-04-19T07:53:48.055Z</time></trkpt><trkpt lat="44.75678" lon="9.8365"><ele>769.0</ele><time>2026-04-19T07:53:49.056Z</time></trkpt><trkpt lat="44.7567367" lon="9.8364233"><ele>769.0</ele><time>2026-04-19T07:53:50.055Z</time></trkpt><trkpt lat="44.756695" lon="9.8363417"><ele>769.0</ele><time>2026-04-19T07:53:51.056Z</time></trkpt><trkpt lat="44.7566517" lon="9.83625"><ele>769.0</ele><time>2026-04-19T07:53:52.055Z</time></trkpt><trkpt lat="44.7565933" lon="9.8361533"><ele>767.6666666666666</ele><time>2026-04-19T07:53:53.057Z</time></trkpt><trkpt lat="44.7565317" lon="9.836065"><ele>766.3333333333333</ele><time>2026-04-19T07:53:54.055Z</time></trkpt><trkpt lat="44.7564633" lon="9.835995"><ele>765.0</ele><time>2026-04-19T07:53:55.056Z</time></trkpt><trkpt lat="44.7564" lon="9.8359483"><ele>763.6666666666666</ele><time>2026-04-19T07:53:56.056Z</time></trkpt><trkpt lat="44.756305" lon="9.835865"><ele>762.3333333333333</ele><time>2026-04-19T07:53:58.056Z</time></trkpt><trkpt lat="44.75626" lon="9.8358017"><ele>761.0</ele><time>2026-04-19T07:53:59.055Z</time></trkpt><trkpt lat="44.7562133" lon="9.8357283"><ele>761.0</ele><time>2026-04-19T07:54:00.054Z</time></trkpt><trkpt lat="44.7561617" lon="9.8356467"><ele>761.0</ele><time>2026-04-19T07:54:01.054Z</time></trkpt><trkpt lat="44.7561" lon="9.8355617"><ele>761.0</ele><time>2026-04-19T07:54:02.056Z</time></trkpt><trkpt lat="44.75603" lon="9.8354883"><ele>761.0</ele><time>2026-04-19T07:54:03.054Z</time></trkpt><trkpt lat="44.755955" lon="9.83542"><ele>761.0</ele><time>2026-04-19T07:54:04.055Z</time></trkpt><trkpt lat="44.7558717" lon="9.8353683"><ele>761.0</ele><time>2026-04-19T07:54:05.056Z</time></trkpt><trkpt lat="44.7557783" lon="9.835335"><ele>760.0</ele><time>2026-04-19T07:54:06.055Z</time></trkpt><trkpt lat="44.7556967" lon="9.8353"><ele>759.0</ele><time>2026-04-19T07:54:07.054Z</time></trkpt><trkpt lat="44.755625" lon="9.83526"><ele>758.0</ele><time>2026-04-19T07:54:08.055Z</time></trkpt><trkpt lat="44.7555683" lon="9.835195"><ele>757.0</ele><time>2026-04-19T07:54:09.055Z</time></trkpt><trkpt lat="44.755515" lon="9.8350983"><ele>756.0</ele><time>2026-04-19T07:54:10.054Z</time></trkpt><trkpt lat="44.7554533" lon="9.8349633"><ele>755.0</ele><time>2026-04-19T07:54:11.056Z</time></trkpt><trkpt lat="44.7553783" lon="9.8348283"><ele>755.0</ele><time>2026-04-19T07:54:12.056Z</time></trkpt><trkpt lat="44.75531" lon="9.8347067"><ele>755.0</ele><time>2026-04-19T07:54:13.054Z</time></trkpt><trkpt lat="44.7552533" lon="9.8346017"><ele>755.0</ele><time>2026-04-19T07:54:14.056Z</time></trkpt><trkpt lat="44.7551933" lon="9.8345117"><ele>755.0</ele><time>2026-04-19T07:54:15.055Z</time></trkpt><trkpt lat="44.755135" lon="9.8344117"><ele>755.0</ele><time>2026-04-19T07:54:16.055Z</time></trkpt><trkpt lat="44.7550617" lon="9.8343083"><ele>754.6666666666666</ele><time>2026-04-19T07:54:17.055Z</time></trkpt><trkpt lat="44.7549817" lon="9.8342067"><ele>754.3333333333333</ele><time>2026-04-19T07:54:18.055Z</time></trkpt><trkpt lat="44.75491" lon="9.8341117"><ele>754.0</ele><time>2026-04-19T07:54:19.054Z</time></trkpt><trkpt lat="44.754845" lon="9.83403"><ele>753.6666666666666</ele><time>2026-04-19T07:54:20.055Z</time></trkpt><trkpt lat="44.7547883" lon="9.8339533"><ele>753.3333333333334</ele><time>2026-04-19T07:54:21.055Z</time></trkpt><trkpt lat="44.754745" lon="9.83388"><ele>753.0</ele><time>2026-04-19T07:54:22.054Z</time></trkpt><trkpt lat="44.754705" lon="9.8338083"><ele>753.0</ele><time>2026-04-19T07:54:23.056Z</time></trkpt><trkpt lat="44.7546717" lon="9.8337317"><ele>753.0</ele><time>2026-04-19T07:54:24.055Z</time></trkpt><trkpt lat="44.754615" lon="9.83358"><ele>753.0</ele><time>2026-04-19T07:54:26.055Z</time></trkpt><trkpt lat="44.7545667" lon="9.8334683"><ele>753.0</ele><time>2026-04-19T07:54:28.055Z</time></trkpt><trkpt lat="44.7545083" lon="9.8333733"><ele>753.0</ele><time>2026-04-19T07:54:30.056Z</time></trkpt><trkpt lat="44.7544033" lon="9.8332717"><ele>755.5</ele><time>2026-04-19T07:54:32.056Z</time></trkpt><trkpt lat="44.75435" lon="9.8332217"><ele>758.0</ele><time>2026-04-19T07:54:33.056Z</time></trkpt><trkpt lat="44.75425" lon="9.83314"><ele>760.5</ele><time>2026-04-19T07:54:35.056Z</time></trkpt><trkpt lat="44.7541833" lon="9.833125"><ele>763.0</ele><time>2026-04-19T07:54:36.056Z</time></trkpt><trkpt lat="44.7541" lon="9.8331317"><ele>765.5</ele><time>2026-04-19T07:54:37.056Z</time></trkpt><trkpt lat="44.7540083" lon="9.8331417"><ele>768.0</ele><time>2026-04-19T07:54:38.056Z</time></trkpt><trkpt lat="44.7539233" lon="9.8331433"><ele>768.0</ele><time>2026-04-19T07:54:39.054Z</time></trkpt><trkpt lat="44.75383" lon="9.8331617"><ele>768.0</ele><time>2026-04-19T07:54:40.054Z</time></trkpt><trkpt lat="44.7537333" lon="9.8331833"><ele>768.0</ele><time>2026-04-19T07:54:41.056Z</time></trkpt><trkpt lat="44.75364" lon="9.8332083"><ele>768.0</ele><time>2026-04-19T07:54:42.055Z</time></trkpt><trkpt lat="44.753545" lon="9.8332267"><ele>768.0</ele><time>2026-04-19T07:54:43.054Z</time></trkpt><trkpt lat="44.7534467" lon="9.833235"><ele>769.5999999999999</ele><time>2026-04-19T07:54:44.055Z</time></trkpt><trkpt lat="44.753345" lon="9.8332283"><ele>771.1999999999999</ele><time>2026-04-19T07:54:45.054Z</time></trkpt><trkpt lat="44.7532383" lon="9.8332133"><ele>772.8</ele><time>2026-04-19T07:54:46.054Z</time></trkpt><trkpt lat="44.753145" lon="9.8331917"><ele>774.4</ele><time>2026-04-19T07:54:47.055Z</time></trkpt><trkpt lat="44.75306" lon="9.833195"><ele>776.0</ele><time>2026-04-19T07:54:48.055Z</time></trkpt><trkpt lat="44.7529883" lon="9.8332033"><ele>776.0000000000001</ele><time>2026-04-19T07:54:49.056Z</time></trkpt><trkpt lat="44.7528833" lon="9.8332467"><ele>776.0</ele><time>2026-04-19T07:54:51.054Z</time></trkpt><trkpt lat="44.7528067" lon="9.83332"><ele>776.0</ele><time>2026-04-19T07:54:53.054Z</time></trkpt><trkpt lat="44.7527267" lon="9.833385"><ele>776.0</ele><time>2026-04-19T07:54:55.054Z</time></trkpt><trkpt lat="44.7526733" lon="9.8334567"><ele>776.0000000000001</ele><time>2026-04-19T07:54:56.055Z</time></trkpt><trkpt lat="44.7526067" lon="9.8334833"><ele>776.0</ele><time>2026-04-19T07:54:57.054Z</time></trkpt><trkpt lat="44.75254" lon="9.833505"><ele>775.8333333333334</ele><time>2026-04-19T07:54:58.054Z</time></trkpt><trkpt lat="44.7524717" lon="9.83354"><ele>775.6666666666667</ele><time>2026-04-19T07:54:59.055Z</time></trkpt><trkpt lat="44.7523883" lon="9.8335567"><ele>775.5</ele><time>2026-04-19T07:55:01.054Z</time></trkpt><trkpt lat="44.7523483" lon="9.8334017"><ele>775.3333333333333</ele><time>2026-04-19T07:55:03.054Z</time></trkpt><trkpt lat="44.7523217" lon="9.8333067"><ele>775.1666666666666</ele><time>2026-04-19T07:55:04.056Z</time></trkpt><trkpt lat="44.7522967" lon="9.833215"><ele>775.0</ele><time>2026-04-19T07:55:05.055Z</time></trkpt><trkpt lat="44.7522733" lon="9.83312"><ele>774.9999999999999</ele><time>2026-04-19T07:55:06.054Z</time></trkpt><trkpt lat="44.752255" lon="9.8330233"><ele>775.0</ele><time>2026-04-19T07:55:07.055Z</time></trkpt><trkpt lat="44.75224" lon="9.8329083"><ele>775.0</ele><time>2026-04-19T07:55:08.056Z</time></trkpt><trkpt lat="44.7522333" lon="9.832795"><ele>775.0</ele><time>2026-04-19T07:55:09.055Z</time></trkpt><trkpt lat="44.7522333" lon="9.83269"><ele>774.9999999999999</ele><time>2026-04-19T07:55:10.055Z</time></trkpt><trkpt lat="44.7522267" lon="9.8326017"><ele>775.0</ele><time>2026-04-19T07:55:11.056Z</time></trkpt><trkpt lat="44.75216" lon="9.8324383"><ele>774.9999999999999</ele><time>2026-04-19T07:55:13.055Z</time></trkpt><trkpt lat="44.7521167" lon="9.8323483"><ele>775.0</ele><time>2026-04-19T07:55:14.056Z</time></trkpt><trkpt lat="44.7520817" lon="9.83225"><ele>775.0</ele><time>2026-04-19T07:55:15.055Z</time></trkpt><trkpt lat="44.7520483" lon="9.832145"><ele>775.0</ele><time>2026-04-19T07:55:16.054Z</time></trkpt><trkpt lat="44.7520067" lon="9.8320533"><ele>774.9999999999999</ele><time>2026-04-19T07:55:17.056Z</time></trkpt><trkpt lat="44.7519567" lon="9.8319783"><ele>775.0</ele><time>2026-04-19T07:55:18.054Z</time></trkpt><trkpt lat="44.7518333" lon="9.8319267"><ele>774.9999999999999</ele><time>2026-04-19T07:55:20.057Z</time></trkpt><trkpt lat="44.7517633" lon="9.83194"><ele>775.0</ele><time>2026-04-19T07:55:21.054Z</time></trkpt><trkpt lat="44.7516933" lon="9.8319717"><ele>775.0</ele><time>2026-04-19T07:55:22.054Z</time></trkpt><trkpt lat="44.7516217" lon="9.8319833"><ele>775.0</ele><time>2026-04-19T07:55:23.055Z</time></trkpt><trkpt lat="44.7515617" lon="9.83194"><ele>775.0</ele><time>2026-04-19T07:55:24.054Z</time></trkpt><trkpt lat="44.75151" lon="9.8318767"><ele>774.9999999999999</ele><time>2026-04-19T07:55:25.053Z</time></trkpt><trkpt lat="44.751455" lon="9.83181"><ele>775.0</ele><time>2026-04-19T07:55:26.054Z</time></trkpt><trkpt lat="44.751395" lon="9.8317533"><ele>776.7142857142857</ele><time>2026-04-19T07:55:27.055Z</time></trkpt><trkpt lat="44.7513283" lon="9.831715"><ele>778.4285714285714</ele><time>2026-04-19T07:55:28.054Z</time></trkpt><trkpt lat="44.75126" lon="9.8316867"><ele>780.1428571428571</ele><time>2026-04-19T07:55:29.056Z</time></trkpt><trkpt lat="44.7511883" lon="9.83169"><ele>781.8571428571429</ele><time>2026-04-19T07:55:30.056Z</time></trkpt><trkpt lat="44.7511233" lon="9.8317183"><ele>783.5714285714286</ele><time>2026-04-19T07:55:31.055Z</time></trkpt><trkpt lat="44.7510617" lon="9.8317767"><ele>785.2857142857142</ele><time>2026-04-19T07:55:32.055Z</time></trkpt><trkpt lat="44.7510033" lon="9.8318517"><ele>787.0</ele><time>2026-04-19T07:55:33.055Z</time></trkpt><trkpt lat="44.7509533" lon="9.8319233"><ele>787.0</ele><time>2026-04-19T07:55:34.054Z</time></trkpt><trkpt lat="44.7508933" lon="9.8320067"><ele>787.0</ele><time>2026-04-19T07:55:36.053Z</time></trkpt><trkpt lat="44.7507983" lon="9.8320833"><ele>787.0</ele><time>2026-04-19T07:55:38.053Z</time></trkpt><trkpt lat="44.7507433" lon="9.832145"><ele>787.0</ele><time>2026-04-19T07:55:39.054Z</time></trkpt><trkpt lat="44.7506617" lon="9.8322483"><ele>787.0</ele><time>2026-04-19T07:55:41.056Z</time></trkpt><trkpt lat="44.75058" lon="9.83235"><ele>786.9999999999999</ele><time>2026-04-19T07:55:43.054Z</time></trkpt><trkpt lat="44.7505367" lon="9.8324183"><ele>787.0</ele><time>2026-04-19T07:55:44.054Z</time></trkpt><trkpt lat="44.7504917" lon="9.8325033"><ele>787.0</ele><time>2026-04-19T07:55:45.055Z</time></trkpt><trkpt lat="44.7504483" lon="9.8325967"><ele>787.0</ele><time>2026-04-19T07:55:46.055Z</time></trkpt><trkpt lat="44.7504033" lon="9.832685"><ele>786.9999999999999</ele><time>2026-04-19T07:55:47.055Z</time></trkpt><trkpt lat="44.75036" lon="9.83276"><ele>787.0</ele><time>2026-04-19T07:55:48.056Z</time></trkpt><trkpt lat="44.7502983" lon="9.8328533"><ele>787.0</ele><time>2026-04-19T07:55:50.055Z</time></trkpt><trkpt lat="44.7502333" lon="9.8328333"><ele>787.0</ele><time>2026-04-19T07:56:08.054Z</time></trkpt><trkpt lat="44.75024" lon="9.8327267"><ele>787.0</ele><time>2026-04-19T07:56:12.055Z</time></trkpt><trkpt lat="44.7502533" lon="9.832615"><ele>787.0</ele><time>2026-04-19T07:56:15.057Z</time></trkpt><trkpt lat="44.7502783" lon="9.83251"><ele>787.0</ele><time>2026-04-19T07:56:17.054Z</time></trkpt><trkpt lat="44.75031" lon="9.8324233"><ele>787.0</ele><time>2026-04-19T07:56:18.053Z</time></trkpt><trkpt lat="44.7503367" lon="9.8323283"><ele>787.0</ele><time>2026-04-19T07:56:19.054Z</time></trkpt><trkpt lat="44.7503533" lon="9.8322333"><ele>786.9999999999999</ele><time>2026-04-19T07:56:20.053Z</time></trkpt><trkpt lat="44.750375" lon="9.8321417"><ele>787.0</ele><time>2026-04-19T07:56:21.055Z</time></trkpt><trkpt lat="44.7504367" lon="9.8320083"><ele>787.0</ele><time>2026-04-19T07:56:23.054Z</time></trkpt><trkpt lat="44.7504833" lon="9.8319267"><ele>787.0</ele><time>2026-04-19T07:56:24.054Z</time></trkpt><trkpt lat="44.7505367" lon="9.8318267"><ele>786.9999999999999</ele><time>2026-04-19T07:56:25.054Z</time></trkpt><trkpt lat="44.750585" lon="9.8317083"><ele>787.0</ele><time>2026-04-19T07:56:26.055Z</time></trkpt><trkpt lat="44.7506217" lon="9.8315833"><ele>793.8</ele><time>2026-04-19T07:56:27.054Z</time></trkpt><trkpt lat="44.7506517" lon="9.831475"><ele>800.6</ele><time>2026-04-19T07:56:28.054Z</time></trkpt><trkpt lat="44.7506833" lon="9.83138"><ele>807.4</ele><time>2026-04-19T07:56:29.053Z</time></trkpt><trkpt lat="44.7507083" lon="9.831285"><ele>814.1999999999999</ele><time>2026-04-19T07:56:30.054Z</time></trkpt><trkpt lat="44.75075" lon="9.8311233"><ele>821.0</ele><time>2026-04-19T07:56:32.055Z</time></trkpt><trkpt lat="44.7507917" lon="9.8309783"><ele>827.4</ele><time>2026-04-19T07:56:34.054Z</time></trkpt><trkpt lat="44.7508633" lon="9.830855"><ele>833.8</ele><time>2026-04-19T07:56:36.055Z</time></trkpt><trkpt lat="44.7509033" lon="9.8307817"><ele>840.1999999999999</ele><time>2026-04-19T07:56:37.054Z</time></trkpt><trkpt lat="44.75098" lon="9.8306533"><ele>846.5999999999999</ele><time>2026-04-19T07:56:39.054Z</time></trkpt><trkpt lat="44.7510167" lon="9.830575"><ele>853.0</ele><time>2026-04-19T07:56:41.053Z</time></trkpt><trkpt lat="44.7509183" lon="9.8305317"><ele>853.0</ele><time>2026-04-19T07:56:44.055Z</time></trkpt><trkpt lat="44.7507883" lon="9.8305567"><ele>853.0</ele><time>2026-04-19T07:56:46.056Z</time></trkpt><trkpt lat="44.7507117" lon="9.8306367"><ele>853.0</ele><time>2026-04-19T07:56:47.055Z</time></trkpt><trkpt lat="44.7506417" lon="9.8307567"><ele>853.0</ele><time>2026-04-19T07:56:48.054Z</time></trkpt><trkpt lat="44.7505867" lon="9.8308417"><ele>853.0</ele><time>2026-04-19T07:56:49.055Z</time></trkpt><trkpt lat="44.750535" lon="9.8309183"><ele>853.0</ele><time>2026-04-19T07:56:50.054Z</time></trkpt><trkpt lat="44.750475" lon="9.8309733"><ele>853.0</ele><time>2026-04-19T07:56:51.054Z</time></trkpt><trkpt lat="44.750405" lon="9.83102"><ele>853.0</ele><time>2026-04-19T07:56:52.058Z</time></trkpt><trkpt lat="44.7503317" lon="9.8310433"><ele>853.0</ele><time>2026-04-19T07:56:53.054Z</time></trkpt><trkpt lat="44.75026" lon="9.8310583"><ele>853.0</ele><time>2026-04-19T07:56:54.054Z</time></trkpt><trkpt lat="44.7501883" lon="9.8310817"><ele>853.0</ele><time>2026-04-19T07:56:55.054Z</time></trkpt><trkpt lat="44.7501217" lon="9.8311233"><ele>853.0</ele><time>2026-04-19T07:56:56.054Z</time></trkpt><trkpt lat="44.75003" lon="9.8311583"><ele>852.3333333333333</ele><time>2026-04-19T07:56:58.055Z</time></trkpt><trkpt lat="44.7500017" lon="9.831065"><ele>851.6666666666666</ele><time>2026-04-19T07:57:00.054Z</time></trkpt><trkpt lat="44.75003" lon="9.8309717"><ele>851.0</ele><time>2026-04-19T07:57:01.054Z</time></trkpt><trkpt lat="44.7500583" lon="9.8308617"><ele>850.3333333333333</ele><time>2026-04-19T07:57:02.054Z</time></trkpt><trkpt lat="44.7500783" lon="9.8307417"><ele>849.6666666666666</ele><time>2026-04-19T07:57:03.055Z</time></trkpt><trkpt lat="44.7500967" lon="9.8306233"><ele>849.0</ele><time>2026-04-19T07:57:04.056Z</time></trkpt><trkpt lat="44.75011" lon="9.8305117"><ele>849.0</ele><time>2026-04-19T07:57:05.055Z</time></trkpt><trkpt lat="44.750115" lon="9.8304133"><ele>849.0</ele><time>2026-04-19T07:57:06.055Z</time></trkpt><trkpt lat="44.7501133" lon="9.8303233"><ele>849.0</ele><time>2026-04-19T07:57:07.055Z</time></trkpt><trkpt lat="44.750085" lon="9.8301483"><ele>849.0</ele><time>2026-04-19T07:57:09.055Z</time></trkpt><trkpt lat="44.75007" lon="9.8300583"><ele>849.0</ele><time>2026-04-19T07:57:10.054Z</time></trkpt><trkpt lat="44.7500583" lon="9.8299667"><ele>849.0</ele><time>2026-04-19T07:57:11.054Z</time></trkpt><trkpt lat="44.7500483" lon="9.8298717"><ele>849.4285714285714</ele><time>2026-04-19T07:57:12.055Z</time></trkpt><trkpt lat="44.7500367" lon="9.8297783"><ele>849.8571428571429</ele><time>2026-04-19T07:57:13.055Z</time></trkpt><trkpt lat="44.7500217" lon="9.8296833"><ele>850.2857142857142</ele><time>2026-04-19T07:57:14.055Z</time></trkpt><trkpt lat="44.7500033" lon="9.8295817"><ele>850.7142857142858</ele><time>2026-04-19T07:57:15.055Z</time></trkpt><trkpt lat="44.7499867" lon="9.8294717"><ele>851.1428571428571</ele><time>2026-04-19T07:57:16.054Z</time></trkpt><trkpt lat="44.749965" lon="9.8293683"><ele>851.5714285714286</ele><time>2026-04-19T07:57:17.053Z</time></trkpt><trkpt lat="44.7499417" lon="9.8292733"><ele>852.0</ele><time>2026-04-19T07:57:18.055Z</time></trkpt><trkpt lat="44.7499233" lon="9.8291833"><ele>853.1666666666666</ele><time>2026-04-19T07:57:19.053Z</time></trkpt><trkpt lat="44.749915" lon="9.8290867"><ele>854.3333333333333</ele><time>2026-04-19T07:57:20.055Z</time></trkpt><trkpt lat="44.7499283" lon="9.8289767"><ele>855.5</ele><time>2026-04-19T07:57:21.054Z</time></trkpt><trkpt lat="44.74994" lon="9.8288683"><ele>856.6666666666666</ele><time>2026-04-19T07:57:22.054Z</time></trkpt><trkpt lat="44.7499583" lon="9.8287617"><ele>857.8333333333333</ele><time>2026-04-19T07:57:23.057Z</time></trkpt><trkpt lat="44.749975" lon="9.828655"><ele>859.0</ele><time>2026-04-19T07:57:24.054Z</time></trkpt><trkpt lat="44.7499883" lon="9.82855"><ele>857.9999999999999</ele><time>2026-04-19T07:57:25.054Z</time></trkpt><trkpt lat="44.75" lon="9.8284583"><ele>857.0</ele><time>2026-04-19T07:57:26.054Z</time></trkpt><trkpt lat="44.7500517" lon="9.8283083"><ele>856.0</ele><time>2026-04-19T07:57:28.054Z</time></trkpt><trkpt lat="44.750095" lon="9.8282367"><ele>855.0</ele><time>2026-04-19T07:57:29.055Z</time></trkpt><trkpt lat="44.75013" lon="9.8281583"><ele>854.0</ele><time>2026-04-19T07:57:30.053Z</time></trkpt><trkpt lat="44.7501517" lon="9.8280733"><ele>852.9999999999999</ele><time>2026-04-19T07:57:31.054Z</time></trkpt><trkpt lat="44.7501683" lon="9.827985"><ele>852.0</ele><time>2026-04-19T07:57:32.056Z</time></trkpt><trkpt lat="44.750165" lon="9.8278033"><ele>851.9999999999999</ele><time>2026-04-19T07:57:34.055Z</time></trkpt><trkpt lat="44.7501433" lon="9.8277117"><ele>852.0</ele><time>2026-04-19T07:57:35.055Z</time></trkpt><trkpt lat="44.7501033" lon="9.8276383"><ele>852.0</ele><time>2026-04-19T07:57:36.056Z</time></trkpt><trkpt lat="44.75006" lon="9.8275717"><ele>852.0</ele><time>2026-04-19T07:57:37.055Z</time></trkpt><trkpt lat="44.750015" lon="9.8274967"><ele>852.0</ele><time>2026-04-19T07:57:38.056Z</time></trkpt><trkpt lat="44.7499667" lon="9.8274283"><ele>851.9999999999999</ele><time>2026-04-19T07:57:39.055Z</time></trkpt><trkpt lat="44.7499133" lon="9.8273783"><ele>852.0</ele><time>2026-04-19T07:57:40.055Z</time></trkpt><trkpt lat="44.7498567" lon="9.8273267"><ele>851.8333333333334</ele><time>2026-04-19T07:57:41.054Z</time></trkpt><trkpt lat="44.749765" lon="9.8272133"><ele>851.6666666666667</ele><time>2026-04-19T07:57:43.055Z</time></trkpt><trkpt lat="44.7496817" lon="9.827085"><ele>851.5</ele><time>2026-04-19T07:57:45.053Z</time></trkpt><trkpt lat="44.7496383" lon="9.82702"><ele>851.3333333333334</ele><time>2026-04-19T07:57:46.055Z</time></trkpt><trkpt lat="44.749585" lon="9.8269717"><ele>851.1666666666667</ele><time>2026-04-19T07:57:47.054Z</time></trkpt><trkpt lat="44.7495167" lon="9.8269317"><ele>851.0</ele><time>2026-04-19T07:57:48.053Z</time></trkpt><trkpt lat="44.74945" lon="9.8268867"><ele>851.0000000000001</ele><time>2026-04-19T07:57:49.055Z</time></trkpt><trkpt lat="44.7493783" lon="9.82686"><ele>851.0</ele><time>2026-04-19T07:57:50.054Z</time></trkpt><trkpt lat="44.7493033" lon="9.8268417"><ele>851.0</ele><time>2026-04-19T07:57:51.054Z</time></trkpt><trkpt lat="44.749225" lon="9.8268183"><ele>851.0</ele><time>2026-04-19T07:57:52.056Z</time></trkpt><trkpt lat="44.7491467" lon="9.8267917"><ele>851.0000000000001</ele><time>2026-04-19T07:57:53.053Z</time></trkpt><trkpt lat="44.7490733" lon="9.8267717"><ele>851.0</ele><time>2026-04-19T07:57:54.054Z</time></trkpt><trkpt lat="44.749" lon="9.82676"><ele>850.8571428571429</ele><time>2026-04-19T07:57:55.054Z</time></trkpt><trkpt lat="44.7489233" lon="9.8267517"><ele>850.7142857142858</ele><time>2026-04-19T07:57:56.055Z</time></trkpt><trkpt lat="44.7488583" lon="9.8267233"><ele>850.5714285714286</ele><time>2026-04-19T07:57:57.054Z</time></trkpt><trkpt lat="44.7487967" lon="9.8267033"><ele>850.4285714285714</ele><time>2026-04-19T07:57:58.054Z</time></trkpt><trkpt lat="44.7487283" lon="9.826665"><ele>850.2857142857142</ele><time>2026-04-19T07:57:59.054Z</time></trkpt><trkpt lat="44.7486633" lon="9.826625"><ele>850.1428571428571</ele><time>2026-04-19T07:58:00.054Z</time></trkpt><trkpt lat="44.7486" lon="9.8266033"><ele>850.0</ele><time>2026-04-19T07:58:01.056Z</time></trkpt><trkpt lat="44.7485133" lon="9.826545"><ele>843.2</ele><time>2026-04-19T07:58:03.055Z</time></trkpt><trkpt lat="44.7484783" lon="9.826445"><ele>836.4</ele><time>2026-04-19T07:58:05.055Z</time></trkpt><trkpt lat="44.7484833" lon="9.8263133"><ele>829.5999999999999</ele><time>2026-04-19T07:58:07.053Z</time></trkpt><trkpt lat="44.74847" lon="9.8261783"><ele>822.8</ele><time>2026-04-19T07:58:09.056Z</time></trkpt><trkpt lat="44.748455" lon="9.8260167"><ele>816.0</ele><time>2026-04-19T07:58:11.053Z</time></trkpt><trkpt lat="44.7484467" lon="9.8258433"><ele>816.0</ele><time>2026-04-19T07:58:13.055Z</time></trkpt><trkpt lat="44.748435" lon="9.825705"><ele>816.0</ele><time>2026-04-19T07:58:15.055Z</time></trkpt><trkpt lat="44.748455" lon="9.8256117"><ele>816.0</ele><time>2026-04-19T07:58:17.054Z</time></trkpt><trkpt lat="44.748515" lon="9.8255"><ele>816.0</ele><time>2026-04-19T07:58:19.055Z</time></trkpt><trkpt lat="44.748535" lon="9.8253583"><ele>816.0</ele><time>2026-04-19T07:58:21.055Z</time></trkpt><trkpt lat="44.7484867" lon="9.825215"><ele>815.4</ele><time>2026-04-19T07:58:23.055Z</time></trkpt><trkpt lat="44.7484733" lon="9.8250783"><ele>814.8</ele><time>2026-04-19T07:58:25.054Z</time></trkpt><trkpt lat="44.7484983" lon="9.8249383"><ele>814.1999999999999</ele><time>2026-04-19T07:58:27.054Z</time></trkpt><trkpt lat="44.74856" lon="9.82481"><ele>813.5999999999999</ele><time>2026-04-19T07:58:29.055Z</time></trkpt><trkpt lat="44.74863" lon="9.8246733"><ele>813.0</ele><time>2026-04-19T07:58:31.054Z</time></trkpt><trkpt lat="44.7486483" lon="9.8245833"><ele>819.7142857142858</ele><time>2026-04-19T07:58:32.055Z</time></trkpt><trkpt lat="44.7486533" lon="9.824485"><ele>826.4285714285713</ele><time>2026-04-19T07:58:33.054Z</time></trkpt><trkpt lat="44.748655" lon="9.824385"><ele>833.1428571428571</ele><time>2026-04-19T07:58:34.054Z</time></trkpt><trkpt lat="44.7486533" lon="9.8242783"><ele>839.8571428571429</ele><time>2026-04-19T07:58:35.056Z</time></trkpt><trkpt lat="44.748645" lon="9.82417"><ele>846.5714285714287</ele><time>2026-04-19T07:58:36.056Z</time></trkpt><trkpt lat="44.7486283" lon="9.82407"><ele>853.2857142857142</ele><time>2026-04-19T07:58:37.055Z</time></trkpt><trkpt lat="44.7486" lon="9.82398"><ele>860.0</ele><time>2026-04-19T07:58:38.056Z</time></trkpt><trkpt lat="44.7485917" lon="9.823885"><ele>860.0000000000001</ele><time>2026-04-19T07:58:39.055Z</time></trkpt><trkpt lat="44.74859" lon="9.82379"><ele>860.0</ele><time>2026-04-19T07:58:40.054Z</time></trkpt><trkpt lat="44.7485783" lon="9.8237017"><ele>860.0</ele><time>2026-04-19T07:58:41.054Z</time></trkpt><trkpt lat="44.748555" lon="9.8236083"><ele>860.0</ele><time>2026-04-19T07:58:42.053Z</time></trkpt><trkpt lat="44.748525" lon="9.8235"><ele>860.0000000000001</ele><time>2026-04-19T07:58:43.054Z</time></trkpt><trkpt lat="44.748495" lon="9.8233867"><ele>860.0</ele><time>2026-04-19T07:58:44.054Z</time></trkpt><trkpt lat="44.74847" lon="9.8232783"><ele>850.2</ele><time>2026-04-19T07:58:45.054Z</time></trkpt><trkpt lat="44.74844" lon="9.8231967"><ele>840.4</ele><time>2026-04-19T07:58:46.053Z</time></trkpt><trkpt lat="44.7483883" lon="9.8230533"><ele>830.5999999999999</ele><time>2026-04-19T07:58:48.057Z</time></trkpt><trkpt lat="44.7483867" lon="9.8229"><ele>820.8</ele><time>2026-04-19T07:58:50.056Z</time></trkpt><trkpt lat="44.74841" lon="9.8228167"><ele>811.0</ele><time>2026-04-19T07:58:51.055Z</time></trkpt><trkpt lat="44.7484683" lon="9.82265"><ele>810.8333333333333</ele><time>2026-04-19T07:58:53.055Z</time></trkpt><trkpt lat="44.7484983" lon="9.8225617"><ele>810.6666666666666</ele><time>2026-04-19T07:58:54.054Z</time></trkpt><trkpt lat="44.748525" lon="9.8224767"><ele>810.5</ele><time>2026-04-19T07:58:55.056Z</time></trkpt><trkpt lat="44.74853" lon="9.8223883"><ele>810.3333333333333</ele><time>2026-04-19T07:58:56.054Z</time></trkpt><trkpt lat="44.7485283" lon="9.8222467"><ele>810.1666666666666</ele><time>2026-04-19T07:58:58.054Z</time></trkpt><trkpt lat="44.7485667" lon="9.8221433"><ele>810.0</ele><time>2026-04-19T07:59:00.053Z</time></trkpt><trkpt lat="44.7486067" lon="9.8220233"><ele>815.2</ele><time>2026-04-19T07:59:02.054Z</time></trkpt><trkpt lat="44.748645" lon="9.8218567"><ele>820.4</ele><time>2026-04-19T07:59:04.054Z</time></trkpt><trkpt lat="44.7486933" lon="9.8217083"><ele>825.5999999999999</ele><time>2026-04-19T07:59:06.055Z</time></trkpt><trkpt lat="44.748725" lon="9.8216267"><ele>830.8</ele><time>2026-04-19T07:59:07.053Z</time></trkpt><trkpt lat="44.7487417" lon="9.8215317"><ele>836.0</ele><time>2026-04-19T07:59:08.056Z</time></trkpt><trkpt lat="44.7487433" lon="9.8214233"><ele>836.0000000000001</ele><time>2026-04-19T07:59:09.054Z</time></trkpt><trkpt lat="44.7487383" lon="9.8213133"><ele>836.0</ele><time>2026-04-19T07:59:10.055Z</time></trkpt><trkpt lat="44.7487217" lon="9.8212167"><ele>836.0</ele><time>2026-04-19T07:59:11.053Z</time></trkpt><trkpt lat="44.7486933" lon="9.8211233"><ele>836.0</ele><time>2026-04-19T07:59:12.055Z</time></trkpt><trkpt lat="44.7486433" lon="9.821045"><ele>836.0000000000001</ele><time>2026-04-19T07:59:13.054Z</time></trkpt><trkpt lat="44.7485867" lon="9.8209817"><ele>836.0</ele><time>2026-04-19T07:59:14.054Z</time></trkpt><trkpt lat="44.7485217" lon="9.8208983"><ele>831.1999999999999</ele><time>2026-04-19T07:59:16.054Z</time></trkpt><trkpt lat="44.7485133" lon="9.8207517"><ele>826.4</ele><time>2026-04-19T07:59:18.055Z</time></trkpt><trkpt lat="44.7485083" lon="9.8206633"><ele>821.6</ele><time>2026-04-19T07:59:19.055Z</time></trkpt><trkpt lat="44.7484867" lon="9.820515"><ele>816.8</ele><time>2026-04-19T07:59:21.056Z</time></trkpt><trkpt lat="44.7484483" lon="9.8204083"><ele>812.0</ele><time>2026-04-19T07:59:23.055Z</time></trkpt><trkpt lat="44.7483817" lon="9.82032"><ele>812.0</ele><time>2026-04-19T07:59:25.056Z</time></trkpt><trkpt lat="44.74834" lon="9.8201667"><ele>812.0</ele><time>2026-04-19T07:59:27.054Z</time></trkpt><trkpt lat="44.74834" lon="9.8200183"><ele>812.0</ele><time>2026-04-19T07:59:29.054Z</time></trkpt><trkpt lat="44.74834" lon="9.8199183"><ele>812.0</ele><time>2026-04-19T07:59:37.053Z</time></trkpt><trkpt lat="44.748335" lon="9.8198117"><ele>812.0</ele><time>2026-04-19T07:59:40.052Z</time></trkpt><trkpt lat="44.7483517" lon="9.8196933"><ele>813.8</ele><time>2026-04-19T07:59:42.053Z</time></trkpt><trkpt lat="44.7484167" lon="9.8195833"><ele>815.6</ele><time>2026-04-19T07:59:44.054Z</time></trkpt><trkpt lat="44.7484933" lon="9.8194917"><ele>817.4</ele><time>2026-04-19T07:59:46.054Z</time></trkpt><trkpt lat="44.7485583" lon="9.819435"><ele>819.1999999999999</ele><time>2026-04-19T07:59:48.054Z</time></trkpt><trkpt lat="44.7486417" lon="9.81934"><ele>821.0</ele><time>2026-04-19T07:59:50.055Z</time></trkpt><trkpt lat="44.7487333" lon="9.8192533"><ele>821.0000000000001</ele><time>2026-04-19T07:59:52.054Z</time></trkpt><trkpt lat="44.748835" lon="9.8191883"><ele>821.0</ele><time>2026-04-19T07:59:54.055Z</time></trkpt><trkpt lat="44.7489167" lon="9.8191317"><ele>821.0</ele><time>2026-04-19T07:59:56.053Z</time></trkpt><trkpt lat="44.7489683" lon="9.81907"><ele>821.0</ele><time>2026-04-19T07:59:59.056Z</time></trkpt><trkpt lat="44.7489683" lon="9.818955"><ele>821.0000000000001</ele><time>2026-04-19T08:00:02.054Z</time></trkpt><trkpt lat="44.7489517" lon="9.8188567"><ele>821.0</ele><time>2026-04-19T08:00:04.055Z</time></trkpt><trkpt lat="44.7489317" lon="9.8187433"><ele>821.0000000000001</ele><time>2026-04-19T08:00:06.055Z</time></trkpt><trkpt lat="44.7488883" lon="9.8186183"><ele>821.0</ele><time>2026-04-19T08:00:08.057Z</time></trkpt><trkpt lat="44.748855" lon="9.8184833"><ele>821.0</ele><time>2026-04-19T08:00:10.054Z</time></trkpt><trkpt lat="44.7488333" lon="9.8183567"><ele>821.0</ele><time>2026-04-19T08:00:12.055Z</time></trkpt><trkpt lat="44.7488283" lon="9.8182567"><ele>821.0000000000001</ele><time>2026-04-19T08:00:14.054Z</time></trkpt><trkpt lat="44.74886" lon="9.8181583"><ele>821.0</ele><time>2026-04-19T08:00:17.054Z</time></trkpt><trkpt lat="44.7488883" lon="9.81806"><ele>819.3333333333334</ele><time>2026-04-19T08:00:41.054Z</time></trkpt><trkpt lat="44.748935" lon="9.8179533"><ele>817.6666666666667</ele><time>2026-04-19T08:00:44.053Z</time></trkpt><trkpt lat="44.7489533" lon="9.8178367"><ele>816.0</ele><time>2026-04-19T08:00:47.055Z</time></trkpt><trkpt lat="44.7489817" lon="9.8177533"><ele>814.3333333333333</ele><time>2026-04-19T08:00:49.055Z</time></trkpt><trkpt lat="44.74903" lon="9.81769"><ele>812.6666666666666</ele><time>2026-04-19T08:00:51.055Z</time></trkpt><trkpt lat="44.7490967" lon="9.8176283"><ele>811.0</ele><time>2026-04-19T08:00:53.054Z</time></trkpt><trkpt lat="44.7491683" lon="9.8175767"><ele>809.9999999999999</ele><time>2026-04-19T08:00:55.055Z</time></trkpt><trkpt lat="44.7492283" lon="9.8175267"><ele>809.0</ele><time>2026-04-19T08:00:57.055Z</time></trkpt><trkpt lat="44.74925" lon="9.8174067"><ele>808.0</ele><time>2026-04-19T08:01:00.054Z</time></trkpt><trkpt lat="44.7492217" lon="9.8173033"><ele>807.0</ele><time>2026-04-19T08:01:03.056Z</time></trkpt><trkpt lat="44.749205" lon="9.8171783"><ele>805.9999999999999</ele><time>2026-04-19T08:01:06.053Z</time></trkpt><trkpt lat="44.7492167" lon="9.8170583"><ele>805.0</ele><time>2026-04-19T08:01:08.055Z</time></trkpt><trkpt lat="44.7492433" lon="9.8169583"><ele>804.9999999999999</ele><time>2026-04-19T08:01:10.055Z</time></trkpt><trkpt lat="44.7492783" lon="9.8168517"><ele>805.0</ele><time>2026-04-19T08:01:12.055Z</time></trkpt><trkpt lat="44.7492933" lon="9.8167383"><ele>805.0</ele><time>2026-04-19T08:01:14.053Z</time></trkpt><trkpt lat="44.7493" lon="9.8166267"><ele>805.0</ele><time>2026-04-19T08:01:16.053Z</time></trkpt><trkpt lat="44.74931" lon="9.8165283"><ele>804.9999999999999</ele><time>2026-04-19T08:01:18.056Z</time></trkpt><trkpt lat="44.7493017" lon="9.816425"><ele>805.0</ele><time>2026-04-19T08:01:21.055Z</time></trkpt><trkpt lat="44.7492917" lon="9.81621"><ele>803.1666666666666</ele><time>2026-04-19T08:01:33.055Z</time></trkpt><trkpt lat="44.74928" lon="9.8160983"><ele>801.3333333333333</ele><time>2026-04-19T08:01:36.055Z</time></trkpt><trkpt lat="44.7492883" lon="9.8159967"><ele>799.5</ele><time>2026-04-19T08:01:39.054Z</time></trkpt><trkpt lat="44.74931" lon="9.8158983"><ele>797.6666666666667</ele><time>2026-04-19T08:01:42.054Z</time></trkpt><trkpt lat="44.7493333" lon="9.8157717"><ele>795.8333333333334</ele><time>2026-04-19T08:01:45.054Z</time></trkpt><trkpt lat="44.74934" lon="9.8156617"><ele>794.0</ele><time>2026-04-19T08:01:48.053Z</time></trkpt><trkpt lat="44.74937" lon="9.8155833"><ele>791.6666666666667</ele><time>2026-04-19T08:02:19.055Z</time></trkpt><trkpt lat="44.7494133" lon="9.815485"><ele>789.3333333333334</ele><time>2026-04-19T08:02:22.052Z</time></trkpt><trkpt lat="44.7494583" lon="9.8154067"><ele>787.0</ele><time>2026-04-19T08:02:25.053Z</time></trkpt><trkpt lat="44.7495183" lon="9.8153483"><ele>784.6666666666667</ele><time>2026-04-19T08:02:29.056Z</time></trkpt><trkpt lat="44.7495767" lon="9.8152333"><ele>782.3333333333334</ele><time>2026-04-19T08:02:37.056Z</time></trkpt><trkpt lat="44.7496033" lon="9.81514"><ele>780.0</ele><time>2026-04-19T08:02:39.055Z</time></trkpt><trkpt lat="44.749655" lon="9.8150767"><ele>778.8333333333334</ele><time>2026-04-19T08:02:42.055Z</time></trkpt><trkpt lat="44.7497233" lon="9.8150883"><ele>777.6666666666667</ele><time>2026-04-19T08:02:44.054Z</time></trkpt><trkpt lat="44.749795" lon="9.8150983"><ele>776.5</ele><time>2026-04-19T08:02:46.054Z</time></trkpt><trkpt lat="44.7498717" lon="9.8150633"><ele>775.3333333333334</ele><time>2026-04-19T08:02:48.054Z</time></trkpt><trkpt lat="44.7499417" lon="9.8149717"><ele>774.1666666666667</ele><time>2026-04-19T08:02:50.055Z</time></trkpt><trkpt lat="44.7500183" lon="9.8148583"><ele>773.0</ele><time>2026-04-19T08:02:52.055Z</time></trkpt><trkpt lat="44.7500767" lon="9.81481"><ele>773.0</ele><time>2026-04-19T08:02:53.055Z</time></trkpt><trkpt lat="44.750135" lon="9.8147717"><ele>773.0</ele><time>2026-04-19T08:02:54.054Z</time></trkpt><trkpt lat="44.750205" lon="9.81476"><ele>773.0</ele><time>2026-04-19T08:02:55.055Z</time></trkpt><trkpt lat="44.7503" lon="9.8147033"><ele>773.0</ele><time>2026-04-19T08:02:57.054Z</time></trkpt><trkpt lat="44.7503333" lon="9.81458"><ele>773.0</ele><time>2026-04-19T08:02:59.054Z</time></trkpt><trkpt lat="44.75032" lon="9.8144033"><ele>768.0</ele><time>2026-04-19T08:03:01.056Z</time></trkpt><trkpt lat="44.7502967" lon="9.8142283"><ele>763.0</ele><time>2026-04-19T08:03:03.055Z</time></trkpt><trkpt lat="44.7502833" lon="9.81406"><ele>758.0</ele><time>2026-04-19T08:03:05.055Z</time></trkpt><trkpt lat="44.75034" lon="9.8139233"><ele>753.0</ele><time>2026-04-19T08:03:07.056Z</time></trkpt><trkpt lat="44.7504483" lon="9.8138433"><ele>753.0</ele><time>2026-04-19T08:03:09.054Z</time></trkpt><trkpt lat="44.750535" lon="9.8137233"><ele>753.0</ele><time>2026-04-19T08:03:11.054Z</time></trkpt><trkpt lat="44.7505783" lon="9.81358"><ele>753.0</ele><time>2026-04-19T08:03:13.053Z</time></trkpt><trkpt lat="44.7506767" lon="9.8134717"><ele>753.0</ele><time>2026-04-19T08:03:15.055Z</time></trkpt><trkpt lat="44.7507383" lon="9.813425"><ele>753.0</ele><time>2026-04-19T08:03:16.054Z</time></trkpt><trkpt lat="44.7508" lon="9.813375"><ele>751.5</ele><time>2026-04-19T08:03:17.056Z</time></trkpt><trkpt lat="44.7508967" lon="9.8133"><ele>750.0</ele><time>2026-04-19T08:03:19.057Z</time></trkpt><trkpt lat="44.75095" lon="9.8132417"><ele>748.5</ele><time>2026-04-19T08:03:21.054Z</time></trkpt><trkpt lat="44.7509383" lon="9.8131533"><ele>747.0</ele><time>2026-04-19T08:03:24.058Z</time></trkpt><trkpt lat="44.7508483" lon="9.8131467"><ele>745.5</ele><time>2026-04-19T08:03:27.055Z</time></trkpt><trkpt lat="44.7508367" lon="9.8130417"><ele>744.0</ele><time>2026-04-19T08:03:31.055Z</time></trkpt><trkpt lat="44.7508967" lon="9.8129717"><ele>744.0</ele><time>2026-04-19T08:03:33.055Z</time></trkpt><trkpt lat="44.7509783" lon="9.8128767"><ele>744.0</ele><time>2026-04-19T08:03:35.055Z</time></trkpt><trkpt lat="44.7510367" lon="9.8128317"><ele>744.0</ele><time>2026-04-19T08:03:36.056Z</time></trkpt><trkpt lat="44.751145" lon="9.8128033"><ele>744.0</ele><time>2026-04-19T08:03:38.054Z</time></trkpt><trkpt lat="44.75126" lon="9.8128383"><ele>744.0</ele><time>2026-04-19T08:03:40.055Z</time></trkpt><trkpt lat="44.7513683" lon="9.8128067"><ele>742.8000000000001</ele><time>2026-04-19T08:03:42.054Z</time></trkpt><trkpt lat="44.7514733" lon="9.81271"><ele>741.6</ele><time>2026-04-19T08:03:44.054Z</time></trkpt><trkpt lat="44.751525" lon="9.8126317"><ele>740.4</ele><time>2026-04-19T08:03:45.054Z</time></trkpt><trkpt lat="44.7515717" lon="9.812565"><ele>739.2</ele><time>2026-04-19T08:03:46.055Z</time></trkpt><trkpt lat="44.7516733" lon="9.812495"><ele>738.0</ele><time>2026-04-19T08:03:48.056Z</time></trkpt><trkpt lat="44.75174" lon="9.8124"><ele>738.0</ele><time>2026-04-19T08:03:50.056Z</time></trkpt><trkpt lat="44.751815" lon="9.8122817"><ele>738.0</ele><time>2026-04-19T08:03:52.058Z</time></trkpt><trkpt lat="44.7518467" lon="9.8122017"><ele>738.0</ele><time>2026-04-19T08:03:53.057Z</time></trkpt><trkpt lat="44.7519017" lon="9.812065"><ele>738.0</ele><time>2026-04-19T08:03:55.056Z</time></trkpt><trkpt lat="44.7519367" lon="9.8119317"><ele>738.0</ele><time>2026-04-19T08:03:57.057Z</time></trkpt><trkpt lat="44.7519717" lon="9.811815"><ele>735.5</ele><time>2026-04-19T08:03:59.057Z</time></trkpt><trkpt lat="44.752" lon="9.8117017"><ele>733.0</ele><time>2026-04-19T08:04:01.057Z</time></trkpt><trkpt lat="44.7520267" lon="9.8116183"><ele>730.5</ele><time>2026-04-19T08:04:03.057Z</time></trkpt><trkpt lat="44.752095" lon="9.8115467"><ele>728.0</ele><time>2026-04-19T08:04:06.056Z</time></trkpt><trkpt lat="44.75216" lon="9.8115167"><ele>725.5</ele><time>2026-04-19T08:04:09.055Z</time></trkpt><trkpt lat="44.7522883" lon="9.8114517"><ele>723.0</ele><time>2026-04-19T08:04:43.057Z</time></trkpt><trkpt lat="44.7523833" lon="9.811395"><ele>723.0</ele><time>2026-04-19T08:04:52.056Z</time></trkpt><trkpt lat="44.7524217" lon="9.8113167"><ele>723.0</ele><time>2026-04-19T08:04:54.055Z</time></trkpt><trkpt lat="44.7524733" lon="9.81123"><ele>723.0</ele><time>2026-04-19T08:04:57.055Z</time></trkpt><trkpt lat="44.7525117" lon="9.8111367"><ele>723.0</ele><time>2026-04-19T08:05:00.054Z</time></trkpt><trkpt lat="44.7525533" lon="9.8110283"><ele>723.0</ele><time>2026-04-19T08:05:08.054Z</time></trkpt><trkpt lat="44.7525983" lon="9.8109517"><ele>723.0</ele><time>2026-04-19T08:05:11.053Z</time></trkpt><trkpt lat="44.752655" lon="9.8108733"><ele>721.3333333333334</ele><time>2026-04-19T08:05:14.055Z</time></trkpt><trkpt lat="44.75269" lon="9.8107683"><ele>719.6666666666666</ele><time>2026-04-19T08:05:18.055Z</time></trkpt><trkpt lat="44.752725" lon="9.81067"><ele>718.0</ele><time>2026-04-19T08:05:21.055Z</time></trkpt><trkpt lat="44.7527683" lon="9.8105867"><ele>716.3333333333333</ele><time>2026-04-19T08:05:23.055Z</time></trkpt><trkpt lat="44.7527883" lon="9.8104817"><ele>714.6666666666666</ele><time>2026-04-19T08:05:25.057Z</time></trkpt><trkpt lat="44.75282" lon="9.8103683"><ele>713.0</ele><time>2026-04-19T08:05:28.054Z</time></trkpt><trkpt lat="44.7528483" lon="9.810265"><ele>708.8333333333333</ele><time>2026-04-19T08:05:31.056Z</time></trkpt><trkpt lat="44.7528883" lon="9.810155"><ele>704.6666666666666</ele><time>2026-04-19T08:05:34.054Z</time></trkpt><trkpt lat="44.7529433" lon="9.8100667"><ele>700.5</ele><time>2026-04-19T08:05:36.053Z</time></trkpt><trkpt lat="44.7530083" lon="9.8099983"><ele>696.3333333333334</ele><time>2026-04-19T08:05:38.054Z</time></trkpt><trkpt lat="44.7530633" lon="9.80991"><ele>692.1666666666667</ele><time>2026-04-19T08:05:41.054Z</time></trkpt><trkpt lat="44.7531217" lon="9.80982"><ele>688.0</ele><time>2026-04-19T08:05:44.055Z</time></trkpt><trkpt lat="44.7531817" lon="9.80976"><ele>688.0000000000001</ele><time>2026-04-19T08:05:47.056Z</time></trkpt><trkpt lat="44.7532233" lon="9.80969"><ele>688.0</ele><time>2026-04-19T08:05:50.056Z</time></trkpt><trkpt lat="44.7532533" lon="9.8095983"><ele>688.0</ele><time>2026-04-19T08:05:54.055Z</time></trkpt><trkpt lat="44.753245" lon="9.80951"><ele>688.0</ele><time>2026-04-19T08:05:57.055Z</time></trkpt><trkpt lat="44.7532567" lon="9.8093967"><ele>688.0</ele><time>2026-04-19T08:06:01.055Z</time></trkpt><trkpt lat="44.7533017" lon="9.8093233"><ele>688.0000000000001</ele><time>2026-04-19T08:06:05.054Z</time></trkpt><trkpt lat="44.7533283" lon="9.8092383"><ele>688.0</ele><time>2026-04-19T08:06:09.055Z</time></trkpt><trkpt lat="44.753355" lon="9.8091167"><ele>686.1666666666667</ele><time>2026-04-19T08:06:12.055Z</time></trkpt><trkpt lat="44.75338" lon="9.808995"><ele>684.3333333333334</ele><time>2026-04-19T08:06:15.055Z</time></trkpt><trkpt lat="44.7534017" lon="9.8088817"><ele>682.5</ele><time>2026-04-19T08:06:18.054Z</time></trkpt><trkpt lat="44.75343" lon="9.8087917"><ele>680.6666666666666</ele><time>2026-04-19T08:06:21.053Z</time></trkpt><trkpt lat="44.753455" lon="9.8086967"><ele>678.8333333333333</ele><time>2026-04-19T08:06:24.054Z</time></trkpt><trkpt lat="44.7535017" lon="9.8085933"><ele>677.0</ele><time>2026-04-19T08:06:27.054Z</time></trkpt><trkpt lat="44.7535217" lon="9.8084983"><ele>673.6666666666666</ele><time>2026-04-19T08:06:30.054Z</time></trkpt><trkpt lat="44.7535217" lon="9.8083917"><ele>670.3333333333333</ele><time>2026-04-19T08:06:33.054Z</time></trkpt><trkpt lat="44.7535617" lon="9.8082983"><ele>667.0</ele><time>2026-04-19T08:06:36.056Z</time></trkpt><trkpt lat="44.7535667" lon="9.808185"><ele>663.6666666666666</ele><time>2026-04-19T08:06:40.055Z</time></trkpt><trkpt lat="44.7535433" lon="9.8080883"><ele>660.3333333333334</ele><time>2026-04-19T08:06:43.054Z</time></trkpt><trkpt lat="44.7535533" lon="9.8079683"><ele>657.0</ele><time>2026-04-19T08:06:46.053Z</time></trkpt><trkpt lat="44.7535533" lon="9.8078717"><ele>654.3333333333334</ele><time>2026-04-19T08:06:48.053Z</time></trkpt><trkpt lat="44.7535433" lon="9.807755"><ele>651.6666666666666</ele><time>2026-04-19T08:06:51.053Z</time></trkpt><trkpt lat="44.753515" lon="9.8076367"><ele>649.0</ele><time>2026-04-19T08:07:03.055Z</time></trkpt><trkpt lat="44.7534817" lon="9.807535"><ele>646.3333333333333</ele><time>2026-04-19T08:07:06.055Z</time></trkpt><trkpt lat="44.7534783" lon="9.807415"><ele>643.6666666666666</ele><time>2026-04-19T08:07:10.054Z</time></trkpt><trkpt lat="44.7535067" lon="9.8073267"><ele>641.0</ele><time>2026-04-19T08:07:13.055Z</time></trkpt><trkpt lat="44.753415" lon="9.80727"><ele>640.5</ele><time>2026-04-19T08:07:17.054Z</time></trkpt><trkpt lat="44.75332" lon="9.8073183"><ele>640.0</ele><time>2026-04-19T08:07:19.053Z</time></trkpt><trkpt lat="44.753265" lon="9.8073767"><ele>639.5</ele><time>2026-04-19T08:07:20.055Z</time></trkpt><trkpt lat="44.7532117" lon="9.8074417"><ele>639.0</ele><time>2026-04-19T08:07:21.053Z</time></trkpt><trkpt lat="44.75315" lon="9.8075133"><ele>638.5</ele><time>2026-04-19T08:07:22.054Z</time></trkpt><trkpt lat="44.7530817" lon="9.8075883"><ele>638.0</ele><time>2026-04-19T08:07:23.055Z</time></trkpt><trkpt lat="44.7530067" lon="9.8076533"><ele>638.3333333333333</ele><time>2026-04-19T08:07:24.054Z</time></trkpt><trkpt lat="44.7529333" lon="9.8077083"><ele>638.6666666666666</ele><time>2026-04-19T08:07:25.054Z</time></trkpt><trkpt lat="44.75286" lon="9.80777"><ele>639.0</ele><time>2026-04-19T08:07:26.054Z</time></trkpt><trkpt lat="44.7527933" lon="9.8078383"><ele>639.3333333333334</ele><time>2026-04-19T08:07:27.055Z</time></trkpt><trkpt lat="44.7527233" lon="9.8079067"><ele>639.6666666666667</ele><time>2026-04-19T08:07:28.054Z</time></trkpt><trkpt lat="44.7526533" lon="9.8079817"><ele>640.0</ele><time>2026-04-19T08:07:29.054Z</time></trkpt><trkpt lat="44.7525783" lon="9.808045"><ele>640.0</ele><time>2026-04-19T08:07:30.054Z</time></trkpt><trkpt lat="44.7525067" lon="9.8080967"><ele>640.0</ele><time>2026-04-19T08:07:31.053Z</time></trkpt><trkpt lat="44.752445" lon="9.80814"><ele>640.0</ele><time>2026-04-19T08:07:32.054Z</time></trkpt><trkpt lat="44.7523833" lon="9.8081633"><ele>640.0</ele><time>2026-04-19T08:07:33.053Z</time></trkpt><trkpt lat="44.75232" lon="9.80819"><ele>640.0</ele><time>2026-04-19T08:07:34.055Z</time></trkpt><trkpt lat="44.75226" lon="9.808225"><ele>640.0</ele><time>2026-04-19T08:07:35.054Z</time></trkpt><trkpt lat="44.752185" lon="9.8082733"><ele>640.0</ele><time>2026-04-19T08:07:36.054Z</time></trkpt><trkpt lat="44.752115" lon="9.8083233"><ele>640.0</ele><time>2026-04-19T08:07:37.054Z</time></trkpt><trkpt lat="44.7520333" lon="9.8083583"><ele>640.0</ele><time>2026-04-19T08:07:38.054Z</time></trkpt><trkpt lat="44.7519367" lon="9.8083933"><ele>640.0</ele><time>2026-04-19T08:07:39.053Z</time></trkpt><trkpt lat="44.75183" lon="9.8084267"><ele>640.0</ele><time>2026-04-19T08:07:40.055Z</time></trkpt><trkpt lat="44.7517267" lon="9.808455"><ele>640.0</ele><time>2026-04-19T08:07:41.055Z</time></trkpt><trkpt lat="44.7516283" lon="9.8084783"><ele>642.4</ele><time>2026-04-19T08:07:42.054Z</time></trkpt><trkpt lat="44.75153" lon="9.80851"><ele>644.8</ele><time>2026-04-19T08:07:43.056Z</time></trkpt><trkpt lat="44.7514333" lon="9.8085483"><ele>647.2</ele><time>2026-04-19T08:07:44.054Z</time></trkpt><trkpt lat="44.7513467" lon="9.8085933"><ele>649.6</ele><time>2026-04-19T08:07:45.054Z</time></trkpt><trkpt lat="44.751265" lon="9.8086267"><ele>652.0</ele><time>2026-04-19T08:07:46.054Z</time></trkpt><trkpt lat="44.751195" lon="9.8086567"><ele>652.0</ele><time>2026-04-19T08:07:47.053Z</time></trkpt><trkpt lat="44.751085" lon="9.8086917"><ele>652.0</ele><time>2026-04-19T08:07:49.053Z</time></trkpt><trkpt lat="44.7509833" lon="9.80867"><ele>652.0</ele><time>2026-04-19T08:07:51.053Z</time></trkpt><trkpt lat="44.7508617" lon="9.8086017"><ele>652.0</ele><time>2026-04-19T08:07:53.055Z</time></trkpt><trkpt lat="44.75076" lon="9.808525"><ele>647.8000000000001</ele><time>2026-04-19T08:07:55.054Z</time></trkpt><trkpt lat="44.7507017" lon="9.8083717"><ele>643.6</ele><time>2026-04-19T08:07:57.053Z</time></trkpt><trkpt lat="44.7506317" lon="9.8082217"><ele>639.4000000000001</ele><time>2026-04-19T08:07:59.055Z</time></trkpt><trkpt lat="44.7505933" lon="9.80813"><ele>635.2</ele><time>2026-04-19T08:08:00.054Z</time></trkpt><trkpt lat="44.7505567" lon="9.8080383"><ele>631.0</ele><time>2026-04-19T08:08:01.054Z</time></trkpt><trkpt lat="44.7505117" lon="9.8079667"><ele>631.0</ele><time>2026-04-19T08:08:02.055Z</time></trkpt><trkpt lat="44.7504583" lon="9.80791"><ele>631.0</ele><time>2026-04-19T08:08:03.054Z</time></trkpt><trkpt lat="44.7504" lon="9.8078583"><ele>631.0</ele><time>2026-04-19T08:08:04.055Z</time></trkpt><trkpt lat="44.7503317" lon="9.8078067"><ele>631.0</ele><time>2026-04-19T08:08:05.054Z</time></trkpt><trkpt lat="44.750275" lon="9.8077583"><ele>631.0</ele><time>2026-04-19T08:08:06.055Z</time></trkpt><trkpt lat="44.7501617" lon="9.8076917"><ele>631.0</ele><time>2026-04-19T08:08:08.054Z</time></trkpt><trkpt lat="44.7500433" lon="9.8076383"><ele>627.6</ele><time>2026-04-19T08:08:10.056Z</time></trkpt><trkpt lat="44.7499317" lon="9.8076283"><ele>624.2</ele><time>2026-04-19T08:08:12.055Z</time></trkpt><trkpt lat="44.7498183" lon="9.8075983"><ele>620.8</ele><time>2026-04-19T08:08:14.055Z</time></trkpt><trkpt lat="44.7496967" lon="9.80755"><ele>617.4</ele><time>2026-04-19T08:08:16.055Z</time></trkpt><trkpt lat="44.7496367" lon="9.8075117"><ele>614.0</ele><time>2026-04-19T08:08:17.055Z</time></trkpt><trkpt lat="44.7495483" lon="9.807425"><ele>614.0</ele><time>2026-04-19T08:08:19.054Z</time></trkpt><trkpt lat="44.7494967" lon="9.8073"><ele>614.0</ele><time>2026-04-19T08:08:21.056Z</time></trkpt><trkpt lat="44.7494533" lon="9.807175"><ele>614.0</ele><time>2026-04-19T08:08:23.055Z</time></trkpt><trkpt lat="44.749415" lon="9.8070717"><ele>614.0</ele><time>2026-04-19T08:08:25.055Z</time></trkpt><trkpt lat="44.749375" lon="9.806985"><ele>614.0</ele><time>2026-04-19T08:08:27.053Z</time></trkpt><trkpt lat="44.7493417" lon="9.80688"><ele>614.0</ele><time>2026-04-19T08:08:30.053Z</time></trkpt><trkpt lat="44.7493133" lon="9.806795"><ele>610.8333333333333</ele><time>2026-04-19T08:08:34.055Z</time></trkpt><trkpt lat="44.7492783" lon="9.8067"><ele>607.6666666666666</ele><time>2026-04-19T08:08:38.054Z</time></trkpt><trkpt lat="44.7492483" lon="9.80661"><ele>604.5</ele><time>2026-04-19T08:08:41.054Z</time></trkpt><trkpt lat="44.7492117" lon="9.80652"><ele>601.3333333333334</ele><time>2026-04-19T08:08:43.054Z</time></trkpt><trkpt lat="44.7491483" lon="9.806425"><ele>598.1666666666667</ele><time>2026-04-19T08:08:45.053Z</time></trkpt><trkpt lat="44.7491017" lon="9.8063367"><ele>595.0</ele><time>2026-04-19T08:08:47.053Z</time></trkpt><trkpt lat="44.74909" lon="9.8062133"><ele>595.0</ele><time>2026-04-19T08:08:50.054Z</time></trkpt><trkpt lat="44.749125" lon="9.80612"><ele>595.0</ele><time>2026-04-19T08:08:52.052Z</time></trkpt><trkpt lat="44.7491683" lon="9.8060167"><ele>595.0</ele><time>2026-04-19T08:08:54.053Z</time></trkpt><trkpt lat="44.7491817" lon="9.8059"><ele>595.0</ele><time>2026-04-19T08:08:56.055Z</time></trkpt><trkpt lat="44.7491717" lon="9.8057583"><ele>595.0</ele><time>2026-04-19T08:08:58.055Z</time></trkpt><trkpt lat="44.7491517" lon="9.805615"><ele>595.0</ele><time>2026-04-19T08:09:00.055Z</time></trkpt><trkpt lat="44.74912" lon="9.8054983"><ele>592.6</ele><time>2026-04-19T08:09:02.053Z</time></trkpt><trkpt lat="44.74909" lon="9.8054"><ele>590.2</ele><time>2026-04-19T08:09:04.054Z</time></trkpt><trkpt lat="44.7490617" lon="9.8052917"><ele>587.8</ele><time>2026-04-19T08:09:07.054Z</time></trkpt><trkpt lat="44.7489933" lon="9.8052017"><ele>585.4</ele><time>2026-04-19T08:09:11.053Z</time></trkpt><trkpt lat="44.7488883" lon="9.8051433"><ele>583.0</ele><time>2026-04-19T08:09:13.055Z</time></trkpt><trkpt lat="44.7487867" lon="9.8050867"><ele>581.0</ele><time>2026-04-19T08:09:15.053Z</time></trkpt><trkpt lat="44.74872" lon="9.805025"><ele>579.0</ele><time>2026-04-19T08:09:17.054Z</time></trkpt><trkpt lat="44.7486783" lon="9.8049233"><ele>577.0</ele><time>2026-04-19T08:09:19.054Z</time></trkpt><trkpt lat="44.7486933" lon="9.8047917"><ele>575.0</ele><time>2026-04-19T08:09:21.054Z</time></trkpt><trkpt lat="44.74872" lon="9.8047067"><ele>573.0</ele><time>2026-04-19T08:09:23.053Z</time></trkpt><trkpt lat="44.7487383" lon="9.8046117"><ele>571.0</ele><time>2026-04-19T08:09:26.054Z</time></trkpt><trkpt lat="44.74868" lon="9.8045717"><ele>571.0</ele><time>2026-04-19T08:09:29.055Z</time></trkpt><trkpt lat="44.7485983" lon="9.8045533"><ele>571.0</ele><time>2026-04-19T08:09:32.053Z</time></trkpt><trkpt lat="44.7485483" lon="9.804475"><ele>571.0</ele><time>2026-04-19T08:09:35.053Z</time></trkpt><trkpt lat="44.7485517" lon="9.8043667"><ele>571.0</ele><time>2026-04-19T08:09:37.053Z</time></trkpt><trkpt lat="44.748605" lon="9.804245"><ele>571.0</ele><time>2026-04-19T08:09:39.054Z</time></trkpt><trkpt lat="44.7486533" lon="9.8041067"><ele>571.0</ele><time>2026-04-19T08:09:41.053Z</time></trkpt><trkpt lat="44.7486733" lon="9.8039517"><ele>569.8</ele><time>2026-04-19T08:09:43.053Z</time></trkpt><trkpt lat="44.7486483" lon="9.8037717"><ele>568.6</ele><time>2026-04-19T08:09:45.053Z</time></trkpt><trkpt lat="44.748615" lon="9.8036683"><ele>567.4</ele><time>2026-04-19T08:09:46.053Z</time></trkpt><trkpt lat="44.7485767" lon="9.80357"><ele>566.2</ele><time>2026-04-19T08:09:47.055Z</time></trkpt><trkpt lat="44.7485533" lon="9.80347"><ele>565.0</ele><time>2026-04-19T08:09:48.055Z</time></trkpt><trkpt lat="44.7485417" lon="9.8033267"><ele>562.1666666666667</ele><time>2026-04-19T08:09:50.054Z</time></trkpt><trkpt lat="44.74858" lon="9.8031633"><ele>559.3333333333334</ele><time>2026-04-19T08:09:52.054Z</time></trkpt><trkpt lat="44.748605" lon="9.8030667"><ele>556.5</ele><time>2026-04-19T08:09:53.055Z</time></trkpt><trkpt lat="44.7486417" lon="9.8029467"><ele>553.6666666666666</ele><time>2026-04-19T08:09:55.053Z</time></trkpt><trkpt lat="44.74865" lon="9.8028533"><ele>550.8333333333333</ele><time>2026-04-19T08:09:58.053Z</time></trkpt><trkpt lat="44.7486583" lon="9.8027617"><ele>548.0</ele><time>2026-04-19T08:10:01.055Z</time></trkpt><trkpt lat="44.7486717" lon="9.8026467"><ele>547.4</ele><time>2026-04-19T08:10:04.053Z</time></trkpt><trkpt lat="44.7486883" lon="9.8025483"><ele>546.8</ele><time>2026-04-19T08:10:06.053Z</time></trkpt><trkpt lat="44.7487067" lon="9.8024217"><ele>546.2</ele><time>2026-04-19T08:10:08.053Z</time></trkpt><trkpt lat="44.748745" lon="9.802265"><ele>545.6</ele><time>2026-04-19T08:10:10.056Z</time></trkpt><trkpt lat="44.748765" lon="9.8021217"><ele>545.0</ele><time>2026-04-19T08:10:12.053Z</time></trkpt><trkpt lat="44.7487833" lon="9.801985"><ele>545.0</ele><time>2026-04-19T08:10:14.054Z</time></trkpt><trkpt lat="44.7488083" lon="9.8018567"><ele>545.0</ele><time>2026-04-19T08:10:16.055Z</time></trkpt><trkpt lat="44.7488517" lon="9.8017317"><ele>545.0</ele><time>2026-04-19T08:10:18.054Z</time></trkpt><trkpt lat="44.7488733" lon="9.8015967"><ele>545.0</ele><time>2026-04-19T08:10:20.054Z</time></trkpt><trkpt lat="44.7488933" lon="9.8014883"><ele>545.0</ele><time>2026-04-19T08:10:22.053Z</time></trkpt><trkpt lat="44.7489267" lon="9.8014117"><ele>545.0</ele><time>2026-04-19T08:10:24.055Z</time></trkpt><trkpt lat="44.7489567" lon="9.80131"><ele>544.6</ele><time>2026-04-19T08:10:26.053Z</time></trkpt><trkpt lat="44.7490083" lon="9.801205"><ele>544.2</ele><time>2026-04-19T08:10:28.052Z</time></trkpt><trkpt lat="44.7490533" lon="9.8011033"><ele>543.8</ele><time>2026-04-19T08:10:30.054Z</time></trkpt><trkpt lat="44.74913" lon="9.801"><ele>543.4</ele><time>2026-04-19T08:10:32.055Z</time></trkpt><trkpt lat="44.74921" lon="9.8008567"><ele>543.0</ele><time>2026-04-19T08:10:34.056Z</time></trkpt><trkpt lat="44.7492533" lon="9.8007783"><ele>543.0</ele><time>2026-04-19T08:10:35.055Z</time></trkpt><trkpt lat="44.7492883" lon="9.8007017"><ele>543.0</ele><time>2026-04-19T08:10:36.056Z</time></trkpt><trkpt lat="44.749325" lon="9.8006283"><ele>543.0</ele><time>2026-04-19T08:10:37.054Z</time></trkpt><trkpt lat="44.7493567" lon="9.8005483"><ele>543.0</ele><time>2026-04-19T08:10:38.054Z</time></trkpt><trkpt lat="44.7493883" lon="9.8003917"><ele>543.0</ele><time>2026-04-19T08:10:40.056Z</time></trkpt><trkpt lat="44.7493767" lon="9.8002567"><ele>543.0</ele><time>2026-04-19T08:10:42.054Z</time></trkpt><trkpt lat="44.7493233" lon="9.800105"><ele>542.8</ele><time>2026-04-19T08:10:44.054Z</time></trkpt><trkpt lat="44.7492917" lon="9.79994"><ele>542.5999999999999</ele><time>2026-04-19T08:10:46.053Z</time></trkpt><trkpt lat="44.7492983" lon="9.7998383"><ele>542.4000000000001</ele><time>2026-04-19T08:10:47.054Z</time></trkpt><trkpt lat="44.7493217" lon="9.7997217"><ele>542.2</ele><time>2026-04-19T08:10:48.054Z</time></trkpt><trkpt lat="44.74936" lon="9.7995967"><ele>542.0</ele><time>2026-04-19T08:10:49.054Z</time></trkpt><trkpt lat="44.749395" lon="9.799485"><ele>539.1666666666666</ele><time>2026-04-19T08:10:50.055Z</time></trkpt><trkpt lat="44.7494183" lon="9.799395"><ele>536.3333333333333</ele><time>2026-04-19T08:10:51.054Z</time></trkpt><trkpt lat="44.7494433" lon="9.7992717"><ele>533.5</ele><time>2026-04-19T08:10:53.054Z</time></trkpt><trkpt lat="44.7494633" lon="9.7991033"><ele>530.6666666666666</ele><time>2026-04-19T08:10:55.054Z</time></trkpt><trkpt lat="44.7494817" lon="9.7989967"><ele>527.8333333333334</ele><time>2026-04-19T08:10:56.055Z</time></trkpt><trkpt lat="44.7495" lon="9.7989033"><ele>525.0</ele><time>2026-04-19T08:10:57.053Z</time></trkpt><trkpt lat="44.749535" lon="9.7987783"><ele>524.6</ele><time>2026-04-19T08:10:59.056Z</time></trkpt><trkpt lat="44.7495867" lon="9.7987183"><ele>524.2</ele><time>2026-04-19T08:11:01.053Z</time></trkpt><trkpt lat="44.749705" lon="9.7986817"><ele>523.8</ele><time>2026-04-19T08:11:03.054Z</time></trkpt><trkpt lat="44.74982" lon="9.7986417"><ele>523.4</ele><time>2026-04-19T08:11:05.054Z</time></trkpt><trkpt lat="44.7499133" lon="9.7985567"><ele>523.0</ele><time>2026-04-19T08:11:07.054Z</time></trkpt><trkpt lat="44.7499417" lon="9.7984733"><ele>523.6666666666667</ele><time>2026-04-19T08:11:08.054Z</time></trkpt><trkpt lat="44.7499617" lon="9.79834"><ele>524.3333333333334</ele><time>2026-04-19T08:11:09.053Z</time></trkpt><trkpt lat="44.74998" lon="9.7982183"><ele>525.0</ele><time>2026-04-19T08:11:10.053Z</time></trkpt><trkpt lat="44.750005" lon="9.7981033"><ele>525.6666666666666</ele><time>2026-04-19T08:11:11.053Z</time></trkpt><trkpt lat="44.7500383" lon="9.797995"><ele>526.3333333333333</ele><time>2026-04-19T08:11:12.055Z</time></trkpt><trkpt lat="44.7500817" lon="9.7978867"><ele>527.0</ele><time>2026-04-19T08:11:13.053Z</time></trkpt><trkpt lat="44.7501317" lon="9.7977717"><ele>528.2</ele><time>2026-04-19T08:11:14.053Z</time></trkpt><trkpt lat="44.75017" lon="9.797655"><ele>529.4000000000001</ele><time>2026-04-19T08:11:15.053Z</time></trkpt><trkpt lat="44.7501983" lon="9.7975333"><ele>530.5999999999999</ele><time>2026-04-19T08:11:16.054Z</time></trkpt><trkpt lat="44.7502067" lon="9.7973983"><ele>531.8</ele><time>2026-04-19T08:11:17.055Z</time></trkpt><trkpt lat="44.7502083" lon="9.797275"><ele>533.0</ele><time>2026-04-19T08:11:18.057Z</time></trkpt><trkpt lat="44.7502133" lon="9.797155"><ele>529.0</ele><time>2026-04-19T08:11:19.054Z</time></trkpt><trkpt lat="44.7502283" lon="9.797035"><ele>525.0</ele><time>2026-04-19T08:11:20.053Z</time></trkpt><trkpt lat="44.7502617" lon="9.7969067"><ele>521.0</ele><time>2026-04-19T08:11:21.053Z</time></trkpt><trkpt lat="44.7503083" lon="9.7967633"><ele>517.0</ele><time>2026-04-19T08:11:22.053Z</time></trkpt><trkpt lat="44.750345" lon="9.796615"><ele>513.0</ele><time>2026-04-19T08:11:23.054Z</time></trkpt><trkpt lat="44.7503717" lon="9.7964717"><ele>513.0</ele><time>2026-04-19T08:11:24.054Z</time></trkpt><trkpt lat="44.750405" lon="9.79633"><ele>513.0</ele><time>2026-04-19T08:11:25.054Z</time></trkpt><trkpt lat="44.75044" lon="9.79619"><ele>513.0</ele><time>2026-04-19T08:11:26.053Z</time></trkpt><trkpt lat="44.75048" lon="9.7960567"><ele>513.0</ele><time>2026-04-19T08:11:27.053Z</time></trkpt><trkpt lat="44.750525" lon="9.795925"><ele>513.0</ele><time>2026-04-19T08:11:28.053Z</time></trkpt><trkpt lat="44.7505717" lon="9.7958033"><ele>513.0</ele><time>2026-04-19T08:11:29.053Z</time></trkpt><trkpt lat="44.7506233" lon="9.79569"><ele>513.0</ele><time>2026-04-19T08:11:30.053Z</time></trkpt><trkpt lat="44.7506683" lon="9.7955683"><ele>513.0</ele><time>2026-04-19T08:11:31.053Z</time></trkpt><trkpt lat="44.7507" lon="9.7954517"><ele>513.0</ele><time>2026-04-19T08:11:32.053Z</time></trkpt><trkpt lat="44.7507317" lon="9.7953433"><ele>513.0</ele><time>2026-04-19T08:11:33.053Z</time></trkpt><trkpt lat="44.7507683" lon="9.795245"><ele>513.0</ele><time>2026-04-19T08:11:34.054Z</time></trkpt><trkpt lat="44.7508133" lon="9.79516"><ele>513.6666666666666</ele><time>2026-04-19T08:11:35.053Z</time></trkpt><trkpt lat="44.7508633" lon="9.7950883"><ele>514.3333333333334</ele><time>2026-04-19T08:11:36.054Z</time></trkpt><trkpt lat="44.7509267" lon="9.7950117"><ele>515.0</ele><time>2026-04-19T08:11:37.056Z</time></trkpt><trkpt lat="44.7509783" lon="9.79494"><ele>515.6666666666667</ele><time>2026-04-19T08:11:38.053Z</time></trkpt><trkpt lat="44.7510567" lon="9.7948433"><ele>516.3333333333334</ele><time>2026-04-19T08:11:40.053Z</time></trkpt><trkpt lat="44.7511017" lon="9.79476"><ele>517.0</ele><time>2026-04-19T08:11:43.053Z</time></trkpt><trkpt lat="44.7510817" lon="9.7946567"><ele>514.0</ele><time>2026-04-19T08:11:45.053Z</time></trkpt><trkpt lat="44.7510567" lon="9.79452"><ele>511.0</ele><time>2026-04-19T08:11:47.054Z</time></trkpt><trkpt lat="44.7510467" lon="9.7944267"><ele>508.0</ele><time>2026-04-19T08:11:48.053Z</time></trkpt><trkpt lat="44.751045" lon="9.7943217"><ele>505.0</ele><time>2026-04-19T08:11:49.053Z</time></trkpt><trkpt lat="44.75106" lon="9.794195"><ele>502.00000000000006</ele><time>2026-04-19T08:11:50.055Z</time></trkpt><trkpt lat="44.7510733" lon="9.7940717"><ele>499.0</ele><time>2026-04-19T08:11:51.055Z</time></trkpt><trkpt lat="44.75108" lon="9.7939433"><ele>499.00000000000006</ele><time>2026-04-19T08:11:52.055Z</time></trkpt><trkpt lat="44.7510733" lon="9.7938233"><ele>499.0</ele><time>2026-04-19T08:11:53.055Z</time></trkpt><trkpt lat="44.7510583" lon="9.7937333"><ele>499.0</ele><time>2026-04-19T08:11:54.053Z</time></trkpt><trkpt lat="44.7510583" lon="9.793615"><ele>499.0</ele><time>2026-04-19T08:11:56.054Z</time></trkpt><trkpt lat="44.7511017" lon="9.7934967"><ele>499.00000000000006</ele><time>2026-04-19T08:11:58.054Z</time></trkpt><trkpt lat="44.7511617" lon="9.793355"><ele>499.0</ele><time>2026-04-19T08:12:00.054Z</time></trkpt><trkpt lat="44.7512067" lon="9.7932217"><ele>499.25</ele><time>2026-04-19T08:12:02.053Z</time></trkpt><trkpt lat="44.75121" lon="9.7930967"><ele>499.5</ele><time>2026-04-19T08:12:04.053Z</time></trkpt><trkpt lat="44.751155" lon="9.7929467"><ele>499.75</ele><time>2026-04-19T08:12:06.051Z</time></trkpt><trkpt lat="44.7511433" lon="9.7927783"><ele>500.0</ele><time>2026-04-19T08:12:08.054Z</time></trkpt><trkpt lat="44.7511633" lon="9.7926083"><ele>499.99999999999994</ele><time>2026-04-19T08:12:10.053Z</time></trkpt><trkpt lat="44.751175" lon="9.79251"><ele>500.0</ele><time>2026-04-19T08:12:11.054Z</time></trkpt><trkpt lat="44.75119" lon="9.7924033"><ele>500.0</ele><time>2026-04-19T08:12:12.056Z</time></trkpt><trkpt lat="44.7512117" lon="9.7922983"><ele>500.0</ele><time>2026-04-19T08:12:13.055Z</time></trkpt><trkpt lat="44.7512417" lon="9.7922017"><ele>499.99999999999994</ele><time>2026-04-19T08:12:14.056Z</time></trkpt><trkpt lat="44.7512733" lon="9.7921017"><ele>500.0</ele><time>2026-04-19T08:12:15.054Z</time></trkpt><trkpt lat="44.75131" lon="9.792"><ele>499.99999999999994</ele><time>2026-04-19T08:12:16.056Z</time></trkpt><trkpt lat="44.7513567" lon="9.791895"><ele>500.0</ele><time>2026-04-19T08:12:17.055Z</time></trkpt><trkpt lat="44.751405" lon="9.7917933"><ele>500.0</ele><time>2026-04-19T08:12:18.054Z</time></trkpt><trkpt lat="44.7514433" lon="9.7916933"><ele>500.0</ele><time>2026-04-19T08:12:19.056Z</time></trkpt><trkpt lat="44.751485" lon="9.7915867"><ele>499.99999999999994</ele><time>2026-04-19T08:12:20.055Z</time></trkpt><trkpt lat="44.7515233" lon="9.7914767"><ele>500.0</ele><time>2026-04-19T08:12:21.056Z</time></trkpt><trkpt lat="44.751555" lon="9.7913683"><ele>500.16666666666663</ele><time>2026-04-19T08:12:22.056Z</time></trkpt><trkpt lat="44.7515833" lon="9.7912717"><ele>500.3333333333333</ele><time>2026-04-19T08:12:23.056Z</time></trkpt><trkpt lat="44.7516133" lon="9.7911383"><ele>500.5</ele><time>2026-04-19T08:12:25.055Z</time></trkpt><trkpt lat="44.7516083" lon="9.7910433"><ele>500.66666666666663</ele><time>2026-04-19T08:12:28.055Z</time></trkpt><trkpt lat="44.7516983" lon="9.79102"><ele>500.8333333333333</ele><time>2026-04-19T08:12:34.054Z</time></trkpt><trkpt lat="44.7517667" lon="9.7910767"><ele>501.0</ele><time>2026-04-19T08:12:36.054Z</time></trkpt><trkpt lat="44.751835" lon="9.7911267"><ele>496.8</ele><time>2026-04-19T08:12:39.054Z</time></trkpt><trkpt lat="44.7518967" lon="9.7912067"><ele>492.6</ele><time>2026-04-19T08:12:42.055Z</time></trkpt><trkpt lat="44.7519733" lon="9.791235"><ele>488.4</ele><time>2026-04-19T08:12:45.054Z</time></trkpt><trkpt lat="44.7520667" lon="9.791115"><ele>484.2</ele><time>2026-04-19T08:12:47.055Z</time></trkpt><trkpt lat="44.752115" lon="9.7910467"><ele>480.0</ele><time>2026-04-19T08:12:48.056Z</time></trkpt><trkpt lat="44.7522133" lon="9.79095"><ele>480.0</ele><time>2026-04-19T08:12:50.056Z</time></trkpt><trkpt lat="44.7523183" lon="9.79087"><ele>480.0</ele><time>2026-04-19T08:12:52.055Z</time></trkpt><trkpt lat="44.752395" lon="9.7907883"><ele>480.0</ele><time>2026-04-19T08:12:54.054Z</time></trkpt><trkpt lat="44.752435" lon="9.7906667"><ele>480.0</ele><time>2026-04-19T08:12:56.055Z</time></trkpt><trkpt lat="44.7524433" lon="9.7905783"><ele>480.0</ele><time>2026-04-19T08:12:57.054Z</time></trkpt><trkpt lat="44.752445" lon="9.7904767"><ele>480.0</ele><time>2026-04-19T08:12:58.056Z</time></trkpt><trkpt lat="44.7524533" lon="9.7903683"><ele>480.0</ele><time>2026-04-19T08:12:59.056Z</time></trkpt><trkpt lat="44.752465" lon="9.7902533"><ele>480.0</ele><time>2026-04-19T08:13:00.056Z</time></trkpt><trkpt lat="44.7524783" lon="9.7901317"><ele>480.0</ele><time>2026-04-19T08:13:01.055Z</time></trkpt><trkpt lat="44.7524817" lon="9.7900267"><ele>480.0</ele><time>2026-04-19T08:13:02.054Z</time></trkpt><trkpt lat="44.7524867" lon="9.78993"><ele>480.0</ele><time>2026-04-19T08:13:03.055Z</time></trkpt><trkpt lat="44.7525033" lon="9.7898367"><ele>480.0</ele><time>2026-04-19T08:13:04.054Z</time></trkpt><trkpt lat="44.7525433" lon="9.7896733"><ele>479.0</ele><time>2026-04-19T08:13:06.055Z</time></trkpt><trkpt lat="44.752575" lon="9.7895883"><ele>478.0</ele><time>2026-04-19T08:13:07.054Z</time></trkpt><trkpt lat="44.75262" lon="9.7895067"><ele>477.0</ele><time>2026-04-19T08:13:08.055Z</time></trkpt><trkpt lat="44.75267" lon="9.7894367"><ele>476.0</ele><time>2026-04-19T08:13:09.056Z</time></trkpt><trkpt lat="44.7527517" lon="9.7893233"><ele>475.0</ele><time>2026-04-19T08:13:11.055Z</time></trkpt><trkpt lat="44.7527817" lon="9.78915"><ele>470.1666666666667</ele><time>2026-04-19T08:13:13.054Z</time></trkpt><trkpt lat="44.75278" lon="9.7890317"><ele>465.33333333333337</ele><time>2026-04-19T08:13:14.054Z</time></trkpt><trkpt lat="44.75277" lon="9.788905"><ele>460.5</ele><time>2026-04-19T08:13:15.055Z</time></trkpt><trkpt lat="44.7527583" lon="9.7887883"><ele>455.66666666666663</ele><time>2026-04-19T08:13:16.054Z</time></trkpt><trkpt lat="44.752755" lon="9.788675"><ele>450.8333333333333</ele><time>2026-04-19T08:13:17.054Z</time></trkpt><trkpt lat="44.752765" lon="9.788565"><ele>446.0</ele><time>2026-04-19T08:13:18.055Z</time></trkpt><trkpt lat="44.75278" lon="9.7884533"><ele>445.3333333333333</ele><time>2026-04-19T08:13:19.055Z</time></trkpt><trkpt lat="44.7528033" lon="9.7883533"><ele>444.66666666666663</ele><time>2026-04-19T08:13:20.054Z</time></trkpt><trkpt lat="44.75284" lon="9.7882533"><ele>444.0</ele><time>2026-04-19T08:13:21.055Z</time></trkpt><trkpt lat="44.7528733" lon="9.7881483"><ele>443.33333333333337</ele><time>2026-04-19T08:13:22.056Z</time></trkpt><trkpt lat="44.7529083" lon="9.7880367"><ele>442.6666666666667</ele><time>2026-04-19T08:13:23.055Z</time></trkpt><trkpt lat="44.752945" lon="9.78793"><ele>442.0</ele><time>2026-04-19T08:13:24.056Z</time></trkpt><trkpt lat="44.7529717" lon="9.7878333"><ele>442.00000000000006</ele><time>2026-04-19T08:13:25.055Z</time></trkpt><trkpt lat="44.7529817" lon="9.7877333"><ele>442.0</ele><time>2026-04-19T08:13:26.054Z</time></trkpt><trkpt lat="44.7529833" lon="9.787575"><ele>442.0</ele><time>2026-04-19T08:13:28.053Z</time></trkpt><trkpt lat="44.752965" lon="9.7874683"><ele>442.0</ele><time>2026-04-19T08:13:30.054Z</time></trkpt><trkpt lat="44.7529617" lon="9.787365"><ele>442.00000000000006</ele><time>2026-04-19T08:13:33.055Z</time></trkpt><trkpt lat="44.7529817" lon="9.787255"><ele>442.0</ele><time>2026-04-19T08:13:35.054Z</time></trkpt><trkpt lat="44.7529933" lon="9.7871667"><ele>440.40000000000003</ele><time>2026-04-19T08:13:36.055Z</time></trkpt><trkpt lat="44.7530233" lon="9.786995"><ele>438.80000000000007</ele><time>2026-04-19T08:13:38.054Z</time></trkpt><trkpt lat="44.7530333" lon="9.786905"><ele>437.2</ele><time>2026-04-19T08:13:39.054Z</time></trkpt><trkpt lat="44.7530783" lon="9.7867383"><ele>435.6</ele><time>2026-04-19T08:13:41.055Z</time></trkpt><trkpt lat="44.7531167" lon="9.786655"><ele>434.0</ele><time>2026-04-19T08:13:42.054Z</time></trkpt><trkpt lat="44.7531517" lon="9.7865733"><ele>432.2</ele><time>2026-04-19T08:13:43.053Z</time></trkpt><trkpt lat="44.7531967" lon="9.786435"><ele>430.4</ele><time>2026-04-19T08:13:45.055Z</time></trkpt><trkpt lat="44.753215" lon="9.786265"><ele>428.6</ele><time>2026-04-19T08:13:47.054Z</time></trkpt><trkpt lat="44.7532283" lon="9.786085"><ele>426.8</ele><time>2026-04-19T08:13:49.055Z</time></trkpt><trkpt lat="44.7532467" lon="9.7859933"><ele>425.0</ele><time>2026-04-19T08:13:50.054Z</time></trkpt><trkpt lat="44.7532783" lon="9.7858283"><ele>423.2</ele><time>2026-04-19T08:13:52.055Z</time></trkpt><trkpt lat="44.7533267" lon="9.785705"><ele>421.4</ele><time>2026-04-19T08:13:54.054Z</time></trkpt><trkpt lat="44.7533467" lon="9.7855783"><ele>419.6</ele><time>2026-04-19T08:13:56.055Z</time></trkpt><trkpt lat="44.7533517" lon="9.7854367"><ele>417.8</ele><time>2026-04-19T08:13:58.055Z</time></trkpt><trkpt lat="44.753395" lon="9.785315"><ele>416.0</ele><time>2026-04-19T08:14:00.055Z</time></trkpt><trkpt lat="44.7534217" lon="9.785165"><ele>414.16666666666663</ele><time>2026-04-19T08:14:02.054Z</time></trkpt><trkpt lat="44.75342" lon="9.7850217"><ele>412.3333333333333</ele><time>2026-04-19T08:14:04.056Z</time></trkpt><trkpt lat="44.7534317" lon="9.7849067"><ele>410.5</ele><time>2026-04-19T08:14:06.055Z</time></trkpt><trkpt lat="44.753445" lon="9.7848133"><ele>408.66666666666663</ele><time>2026-04-19T08:14:08.056Z</time></trkpt><trkpt lat="44.75345" lon="9.78469"><ele>406.8333333333333</ele><time>2026-04-19T08:14:10.054Z</time></trkpt><trkpt lat="44.753485" lon="9.7845467"><ele>405.0</ele><time>2026-04-19T08:14:12.054Z</time></trkpt><trkpt lat="44.75354" lon="9.78441"><ele>400.5</ele><time>2026-04-19T08:14:14.055Z</time></trkpt><trkpt lat="44.75358" lon="9.784295"><ele>396.0</ele><time>2026-04-19T08:14:16.055Z</time></trkpt><trkpt lat="44.7536467" lon="9.7842217"><ele>391.5</ele><time>2026-04-19T08:14:19.054Z</time></trkpt><trkpt lat="44.75368" lon="9.7841233"><ele>387.0</ele><time>2026-04-19T08:14:22.054Z</time></trkpt><trkpt lat="44.7536967" lon="9.78402"><ele>382.5</ele><time>2026-04-19T08:14:25.053Z</time></trkpt><trkpt lat="44.7537267" lon="9.78392"><ele>378.0</ele><time>2026-04-19T08:14:28.054Z</time></trkpt><trkpt lat="44.7537667" lon="9.783835"><ele>378.0</ele><time>2026-04-19T08:14:31.054Z</time></trkpt><trkpt lat="44.7538183" lon="9.783775"><ele>378.0</ele><time>2026-04-19T08:14:34.054Z</time></trkpt><trkpt lat="44.7539583" lon="9.7837467"><ele>378.0</ele><time>2026-04-19T08:15:04.054Z</time></trkpt><trkpt lat="44.7539817" lon="9.7836317"><ele>378.0</ele><time>2026-04-19T08:15:07.053Z</time></trkpt><trkpt lat="44.7539517" lon="9.783545"><ele>378.0</ele><time>2026-04-19T08:15:09.054Z</time></trkpt><trkpt lat="44.7538717" lon="9.78347"><ele>379.0</ele><time>2026-04-19T08:15:11.055Z</time></trkpt><trkpt lat="44.7537833" lon="9.7834083"><ele>380.0</ele><time>2026-04-19T08:15:13.053Z</time></trkpt><trkpt lat="44.753665" lon="9.7833133"><ele>381.0</ele><time>2026-04-19T08:15:15.054Z</time></trkpt><trkpt lat="44.7535933" lon="9.7832583"><ele>382.0</ele><time>2026-04-19T08:15:16.054Z</time></trkpt><trkpt lat="44.7535367" lon="9.78321"><ele>383.0</ele><time>2026-04-19T08:15:17.053Z</time></trkpt><trkpt lat="44.753445" lon="9.7831333"><ele>383.0</ele><time>2026-04-19T08:15:19.055Z</time></trkpt><trkpt lat="44.7533933" lon="9.78307"><ele>383.0</ele><time>2026-04-19T08:15:21.056Z</time></trkpt><trkpt lat="44.75342" lon="9.7829317"><ele>383.0</ele><time>2026-04-19T08:15:24.055Z</time></trkpt><trkpt lat="44.7535067" lon="9.7828117"><ele>383.0</ele><time>2026-04-19T08:15:26.055Z</time></trkpt><trkpt lat="44.7535617" lon="9.7827617"><ele>383.0</ele><time>2026-04-19T08:15:27.055Z</time></trkpt><trkpt lat="44.7536183" lon="9.78272"><ele>383.0</ele><time>2026-04-19T08:15:28.055Z</time></trkpt><trkpt lat="44.7536817" lon="9.7826867"><ele>380.6666666666667</ele><time>2026-04-19T08:15:29.055Z</time></trkpt><trkpt lat="44.753755" lon="9.78265"><ele>378.33333333333337</ele><time>2026-04-19T08:15:30.055Z</time></trkpt><trkpt lat="44.7538317" lon="9.782615"><ele>376.0</ele><time>2026-04-19T08:15:31.055Z</time></trkpt><trkpt lat="44.7539083" lon="9.7825817"><ele>373.6666666666667</ele><time>2026-04-19T08:15:32.056Z</time></trkpt><trkpt lat="44.7539783" lon="9.782545"><ele>371.3333333333333</ele><time>2026-04-19T08:15:33.054Z</time></trkpt><trkpt lat="44.754035" lon="9.7825033"><ele>369.0</ele><time>2026-04-19T08:15:34.054Z</time></trkpt><trkpt lat="44.75411" lon="9.78237"><ele>369.0</ele><time>2026-04-19T08:15:36.054Z</time></trkpt><trkpt lat="44.7541417" lon="9.78227"><ele>369.0</ele><time>2026-04-19T08:15:37.056Z</time></trkpt><trkpt lat="44.754185" lon="9.78217"><ele>369.0</ele><time>2026-04-19T08:15:38.055Z</time></trkpt><trkpt lat="44.7542417" lon="9.782075"><ele>369.0</ele><time>2026-04-19T08:15:39.055Z</time></trkpt><trkpt lat="44.7542917" lon="9.781985"><ele>369.0</ele><time>2026-04-19T08:15:40.055Z</time></trkpt><trkpt lat="44.7543317" lon="9.781895"><ele>369.0</ele><time>2026-04-19T08:15:41.055Z</time></trkpt><trkpt lat="44.7543567" lon="9.7817967"><ele>369.8333333333333</ele><time>2026-04-19T08:15:42.054Z</time></trkpt><trkpt lat="44.754365" lon="9.7816817"><ele>370.6666666666667</ele><time>2026-04-19T08:15:43.054Z</time></trkpt><trkpt lat="44.7543667" lon="9.781575"><ele>371.5</ele><time>2026-04-19T08:15:44.054Z</time></trkpt><trkpt lat="44.7543083" lon="9.78144"><ele>372.33333333333337</ele><time>2026-04-19T08:15:46.054Z</time></trkpt><trkpt lat="44.7542483" lon="9.7813917"><ele>373.1666666666667</ele><time>2026-04-19T08:15:47.054Z</time></trkpt><trkpt lat="44.754165" lon="9.781355"><ele>374.0</ele><time>2026-04-19T08:15:48.053Z</time></trkpt><trkpt lat="44.7540917" lon="9.78131"><ele>374.0</ele><time>2026-04-19T08:15:49.054Z</time></trkpt><trkpt lat="44.7540283" lon="9.7812483"><ele>374.0</ele><time>2026-04-19T08:15:50.056Z</time></trkpt><trkpt lat="44.7539783" lon="9.781155"><ele>374.0</ele><time>2026-04-19T08:15:51.054Z</time></trkpt><trkpt lat="44.753925" lon="9.781045"><ele>374.0</ele><time>2026-04-19T08:15:52.054Z</time></trkpt><trkpt lat="44.7538667" lon="9.7809033"><ele>374.0</ele><time>2026-04-19T08:15:53.054Z</time></trkpt><trkpt lat="44.7538117" lon="9.7807483"><ele>373.4</ele><time>2026-04-19T08:15:54.056Z</time></trkpt><trkpt lat="44.7537583" lon="9.7806017"><ele>372.79999999999995</ele><time>2026-04-19T08:15:55.055Z</time></trkpt><trkpt lat="44.753705" lon="9.7804717"><ele>372.20000000000005</ele><time>2026-04-19T08:15:56.055Z</time></trkpt><trkpt lat="44.753655" lon="9.780355"><ele>371.6</ele><time>2026-04-19T08:15:57.054Z</time></trkpt><trkpt lat="44.75361" lon="9.7802367"><ele>371.0</ele><time>2026-04-19T08:15:58.054Z</time></trkpt><trkpt lat="44.7535617" lon="9.7801283"><ele>373.20000000000005</ele><time>2026-04-19T08:15:59.055Z</time></trkpt><trkpt lat="44.7534933" lon="9.7800383"><ele>375.40000000000003</ele><time>2026-04-19T08:16:00.055Z</time></trkpt><trkpt lat="44.7534167" lon="9.7799567"><ele>377.6</ele><time>2026-04-19T08:16:01.054Z</time></trkpt><trkpt lat="44.75333" lon="9.7798883"><ele>379.8</ele><time>2026-04-19T08:16:02.055Z</time></trkpt><trkpt lat="44.7532417" lon="9.7798117"><ele>382.0</ele><time>2026-04-19T08:16:03.054Z</time></trkpt><trkpt lat="44.7531583" lon="9.779725"><ele>382.0</ele><time>2026-04-19T08:16:04.056Z</time></trkpt><trkpt lat="44.7530733" lon="9.7796467"><ele>382.0</ele><time>2026-04-19T08:16:05.055Z</time></trkpt><trkpt lat="44.7529867" lon="9.7795783"><ele>382.0</ele><time>2026-04-19T08:16:06.054Z</time></trkpt><trkpt lat="44.7528933" lon="9.779525"><ele>382.0</ele><time>2026-04-19T08:16:07.054Z</time></trkpt><trkpt lat="44.7528033" lon="9.77948"><ele>382.0</ele><time>2026-04-19T08:16:08.055Z</time></trkpt><trkpt lat="44.752705" lon="9.77944"><ele>381.20000000000005</ele><time>2026-04-19T08:16:09.053Z</time></trkpt><trkpt lat="44.7525983" lon="9.77941"><ele>380.4</ele><time>2026-04-19T08:16:10.055Z</time></trkpt><trkpt lat="44.7524917" lon="9.779375"><ele>379.6</ele><time>2026-04-19T08:16:11.054Z</time></trkpt><trkpt lat="44.7524067" lon="9.7793167"><ele>378.79999999999995</ele><time>2026-04-19T08:16:12.055Z</time></trkpt><trkpt lat="44.7523467" lon="9.7792333"><ele>378.0</ele><time>2026-04-19T08:16:13.054Z</time></trkpt><trkpt lat="44.7522983" lon="9.7791367"><ele>378.0</ele><time>2026-04-19T08:16:14.054Z</time></trkpt><trkpt lat="44.7522633" lon="9.7790183"><ele>378.0</ele><time>2026-04-19T08:16:15.055Z</time></trkpt><trkpt lat="44.7522283" lon="9.778885"><ele>378.0</ele><time>2026-04-19T08:16:16.054Z</time></trkpt><trkpt lat="44.7521733" lon="9.77874"><ele>378.0</ele><time>2026-04-19T08:16:17.054Z</time></trkpt><trkpt lat="44.7521083" lon="9.778585"><ele>378.0</ele><time>2026-04-19T08:16:18.053Z</time></trkpt><trkpt lat="44.752045" lon="9.77845"><ele>379.2</ele><time>2026-04-19T08:16:19.055Z</time></trkpt><trkpt lat="44.7519767" lon="9.7783317"><ele>380.4</ele><time>2026-04-19T08:16:20.057Z</time></trkpt><trkpt lat="44.75191" lon="9.7782167"><ele>381.59999999999997</ele><time>2026-04-19T08:16:21.055Z</time></trkpt><trkpt lat="44.7518333" lon="9.7781333"><ele>382.79999999999995</ele><time>2026-04-19T08:16:22.055Z</time></trkpt><trkpt lat="44.7517417" lon="9.77809"><ele>384.0</ele><time>2026-04-19T08:16:23.056Z</time></trkpt><trkpt lat="44.75164" lon="9.778075"><ele>384.0</ele><time>2026-04-19T08:16:24.055Z</time></trkpt><trkpt lat="44.751545" lon="9.7780667"><ele>384.0</ele><time>2026-04-19T08:16:25.053Z</time></trkpt><trkpt lat="44.7514583" lon="9.7780483"><ele>384.0</ele><time>2026-04-19T08:16:26.055Z</time></trkpt><trkpt lat="44.7513767" lon="9.7780083"><ele>384.0</ele><time>2026-04-19T08:16:27.055Z</time></trkpt><trkpt lat="44.7513283" lon="9.777935"><ele>384.0</ele><time>2026-04-19T08:16:28.054Z</time></trkpt><trkpt lat="44.7512933" lon="9.777845"><ele>384.0</ele><time>2026-04-19T08:16:29.056Z</time></trkpt><trkpt lat="44.7512683" lon="9.7777183"><ele>381.6</ele><time>2026-04-19T08:16:30.055Z</time></trkpt><trkpt lat="44.75126" lon="9.7775633"><ele>379.2</ele><time>2026-04-19T08:16:31.056Z</time></trkpt><trkpt lat="44.7512333" lon="9.7774183"><ele>376.8</ele><time>2026-04-19T08:16:32.054Z</time></trkpt><trkpt lat="44.751215" lon="9.7772717"><ele>374.40000000000003</ele><time>2026-04-19T08:16:33.055Z</time></trkpt><trkpt lat="44.7511767" lon="9.777155"><ele>372.0</ele><time>2026-04-19T08:16:34.053Z</time></trkpt><trkpt lat="44.7511317" lon="9.7770617"><ele>372.0</ele><time>2026-04-19T08:16:35.054Z</time></trkpt><trkpt lat="44.7510733" lon="9.7769917"><ele>372.0</ele><time>2026-04-19T08:16:36.055Z</time></trkpt><trkpt lat="44.75098" lon="9.7769667"><ele>372.0</ele><time>2026-04-19T08:16:37.056Z</time></trkpt><trkpt lat="44.750885" lon="9.7769717"><ele>372.0</ele><time>2026-04-19T08:16:38.054Z</time></trkpt><trkpt lat="44.7507917" lon="9.7770033"><ele>372.0</ele><time>2026-04-19T08:16:39.055Z</time></trkpt><trkpt lat="44.750705" lon="9.777055"><ele>373.3333333333333</ele><time>2026-04-19T08:16:40.054Z</time></trkpt><trkpt lat="44.7506217" lon="9.77712"><ele>374.6666666666667</ele><time>2026-04-19T08:16:41.054Z</time></trkpt><trkpt lat="44.75054" lon="9.7771733"><ele>376.0</ele><time>2026-04-19T08:16:42.055Z</time></trkpt><trkpt lat="44.75046" lon="9.7771967"><ele>377.33333333333337</ele><time>2026-04-19T08:16:43.053Z</time></trkpt><trkpt lat="44.7503767" lon="9.7771917"><ele>378.6666666666667</ele><time>2026-04-19T08:16:44.054Z</time></trkpt><trkpt lat="44.7503017" lon="9.777155"><ele>380.0</ele><time>2026-04-19T08:16:45.054Z</time></trkpt><trkpt lat="44.7502483" lon="9.7770767"><ele>380.0</ele><time>2026-04-19T08:16:46.054Z</time></trkpt><trkpt lat="44.7502083" lon="9.77697"><ele>380.0</ele><time>2026-04-19T08:16:47.055Z</time></trkpt><trkpt lat="44.75017" lon="9.7768717"><ele>380.0</ele><time>2026-04-19T08:16:48.053Z</time></trkpt><trkpt lat="44.750195" lon="9.7767117"><ele>380.0</ele><time>2026-04-19T08:16:49.055Z</time></trkpt><trkpt lat="44.7502167" lon="9.7765667"><ele>380.0</ele><time>2026-04-19T08:16:50.053Z</time></trkpt><trkpt lat="44.7502167" lon="9.7764233"><ele>379.6</ele><time>2026-04-19T08:16:51.053Z</time></trkpt><trkpt lat="44.7502017" lon="9.7762717"><ele>379.2</ele><time>2026-04-19T08:16:52.055Z</time></trkpt><trkpt lat="44.75018" lon="9.776125"><ele>378.79999999999995</ele><time>2026-04-19T08:16:53.056Z</time></trkpt><trkpt lat="44.750165" lon="9.7760117"><ele>378.4</ele><time>2026-04-19T08:16:54.054Z</time></trkpt><trkpt lat="44.7501533" lon="9.77589"><ele>378.0</ele><time>2026-04-19T08:16:56.054Z</time></trkpt><trkpt lat="44.7501383" lon="9.7757833"><ele>378.0</ele><time>2026-04-19T08:16:59.053Z</time></trkpt><trkpt lat="44.7500717" lon="9.7756867"><ele>378.0</ele><time>2026-04-19T08:17:01.054Z</time></trkpt><trkpt lat="44.7500067" lon="9.7756217"><ele>378.0</ele><time>2026-04-19T08:17:02.055Z</time></trkpt><trkpt lat="44.749935" lon="9.7755317"><ele>378.0</ele><time>2026-04-19T08:17:03.055Z</time></trkpt><trkpt lat="44.74987" lon="9.775435"><ele>378.0</ele><time>2026-04-19T08:17:04.056Z</time></trkpt><trkpt lat="44.7498183" lon="9.7753167"><ele>376.2</ele><time>2026-04-19T08:17:05.055Z</time></trkpt><trkpt lat="44.74978" lon="9.775165"><ele>374.4</ele><time>2026-04-19T08:17:06.054Z</time></trkpt><trkpt lat="44.7497483" lon="9.7750283"><ele>372.59999999999997</ele><time>2026-04-19T08:17:07.054Z</time></trkpt><trkpt lat="44.749705" lon="9.7749183"><ele>370.79999999999995</ele><time>2026-04-19T08:17:08.054Z</time></trkpt><trkpt lat="44.749645" lon="9.7748067"><ele>369.0</ele><time>2026-04-19T08:17:09.054Z</time></trkpt><trkpt lat="44.7495933" lon="9.774705"><ele>369.0</ele><time>2026-04-19T08:17:10.054Z</time></trkpt><trkpt lat="44.749555" lon="9.7745983"><ele>369.0</ele><time>2026-04-19T08:17:11.053Z</time></trkpt><trkpt lat="44.7495417" lon="9.7745"><ele>369.0</ele><time>2026-04-19T08:17:12.053Z</time></trkpt><trkpt lat="44.7495583" lon="9.7744017"><ele>369.0</ele><time>2026-04-19T08:17:13.054Z</time></trkpt><trkpt lat="44.7495983" lon="9.7742933"><ele>369.0</ele><time>2026-04-19T08:17:14.054Z</time></trkpt><trkpt lat="44.7496583" lon="9.77416"><ele>369.0</ele><time>2026-04-19T08:17:15.054Z</time></trkpt><trkpt lat="44.7497067" lon="9.7740317"><ele>369.1666666666667</ele><time>2026-04-19T08:17:16.053Z</time></trkpt><trkpt lat="44.7497467" lon="9.7739067"><ele>369.3333333333333</ele><time>2026-04-19T08:17:17.054Z</time></trkpt><trkpt lat="44.7497667" lon="9.7737783"><ele>369.5</ele><time>2026-04-19T08:17:18.053Z</time></trkpt><trkpt lat="44.74977" lon="9.77365"><ele>369.66666666666663</ele><time>2026-04-19T08:17:19.055Z</time></trkpt><trkpt lat="44.7497583" lon="9.7735567"><ele>369.8333333333333</ele><time>2026-04-19T08:17:20.054Z</time></trkpt><trkpt lat="44.74973" lon="9.7734767"><ele>370.0</ele><time>2026-04-19T08:17:22.055Z</time></trkpt><trkpt lat="44.74967" lon="9.7735233"><ele>370.2</ele><time>2026-04-19T08:17:54.055Z</time></trkpt><trkpt lat="44.7495717" lon="9.7735767"><ele>370.4</ele><time>2026-04-19T08:17:56.053Z</time></trkpt><trkpt lat="44.749495" lon="9.77362"><ele>370.6</ele><time>2026-04-19T08:17:57.054Z</time></trkpt><trkpt lat="44.74941" lon="9.7736667"><ele>370.8</ele><time>2026-04-19T08:17:58.054Z</time></trkpt><trkpt lat="44.7493233" lon="9.773715"><ele>371.0</ele><time>2026-04-19T08:17:59.054Z</time></trkpt><trkpt lat="44.7492317" lon="9.7737733"><ele>374.8</ele><time>2026-04-19T08:18:00.054Z</time></trkpt><trkpt lat="44.749135" lon="9.77385"><ele>378.6</ele><time>2026-04-19T08:18:01.055Z</time></trkpt><trkpt lat="44.7490383" lon="9.7739333"><ele>382.4</ele><time>2026-04-19T08:18:02.054Z</time></trkpt><trkpt lat="44.7489433" lon="9.774005"><ele>386.2</ele><time>2026-04-19T08:18:03.053Z</time></trkpt><trkpt lat="44.7488467" lon="9.774065"><ele>390.0</ele><time>2026-04-19T08:18:04.053Z</time></trkpt><trkpt lat="44.748755" lon="9.7741233"><ele>390.0</ele><time>2026-04-19T08:18:05.056Z</time></trkpt><trkpt lat="44.7486683" lon="9.77418"><ele>390.0</ele><time>2026-04-19T08:18:06.053Z</time></trkpt><trkpt lat="44.7485917" lon="9.7742367"><ele>390.0</ele><time>2026-04-19T08:18:07.053Z</time></trkpt><trkpt lat="44.74852" lon="9.774295"><ele>390.0</ele><time>2026-04-19T08:18:08.054Z</time></trkpt><trkpt lat="44.7484633" lon="9.77437"><ele>390.0</ele><time>2026-04-19T08:18:09.053Z</time></trkpt><trkpt lat="44.74841" lon="9.7744417"><ele>390.0</ele><time>2026-04-19T08:18:10.053Z</time></trkpt><trkpt lat="44.7483583" lon="9.7745017"><ele>395.2</ele><time>2026-04-19T08:18:11.054Z</time></trkpt><trkpt lat="44.7483083" lon="9.77456"><ele>400.4</ele><time>2026-04-19T08:18:12.055Z</time></trkpt><trkpt lat="44.7482383" lon="9.774645"><ele>405.6</ele><time>2026-04-19T08:18:14.053Z</time></trkpt><trkpt lat="44.7481733" lon="9.77476"><ele>410.8</ele><time>2026-04-19T08:18:16.055Z</time></trkpt><trkpt lat="44.7481117" lon="9.77489"><ele>416.0</ele><time>2026-04-19T08:18:18.055Z</time></trkpt><trkpt lat="44.7480433" lon="9.7749867"><ele>415.99999999999994</ele><time>2026-04-19T08:18:20.055Z</time></trkpt><trkpt lat="44.747975" lon="9.77503"><ele>416.0</ele><time>2026-04-19T08:18:22.052Z</time></trkpt><trkpt lat="44.7479067" lon="9.775015"><ele>416.0</ele><time>2026-04-19T08:18:37.054Z</time></trkpt><trkpt lat="44.7478383" lon="9.775065"><ele>416.0</ele><time>2026-04-19T08:18:40.054Z</time></trkpt><trkpt lat="44.7478117" lon="9.7751733"><ele>415.99999999999994</ele><time>2026-04-19T08:18:42.053Z</time></trkpt><trkpt lat="44.7477683" lon="9.7753117"><ele>416.0</ele><time>2026-04-19T08:18:44.054Z</time></trkpt><trkpt lat="44.7476967" lon="9.7754517"><ele>422.6</ele><time>2026-04-19T08:18:46.055Z</time></trkpt><trkpt lat="44.7476283" lon="9.775585"><ele>429.20000000000005</ele><time>2026-04-19T08:18:48.053Z</time></trkpt><trkpt lat="44.7475617" lon="9.775705"><ele>435.79999999999995</ele><time>2026-04-19T08:18:50.053Z</time></trkpt><trkpt lat="44.7475183" lon="9.775775"><ele>442.4</ele><time>2026-04-19T08:18:52.054Z</time></trkpt><trkpt lat="44.7474983" lon="9.7758733"><ele>449.0</ele><time>2026-04-19T08:19:03.053Z</time></trkpt><trkpt lat="44.7474733" lon="9.7760417"><ele>451.49999999999994</ele><time>2026-04-19T08:19:05.053Z</time></trkpt><trkpt lat="44.7474583" lon="9.7761467"><ele>454.0</ele><time>2026-04-19T08:19:06.052Z</time></trkpt><trkpt lat="44.7474333" lon="9.7762633"><ele>456.5</ele><time>2026-04-19T08:19:07.054Z</time></trkpt><trkpt lat="44.7473983" lon="9.77639"><ele>459.0</ele><time>2026-04-19T08:19:08.053Z</time></trkpt><trkpt lat="44.747375" lon="9.7764883"><ele>461.49999999999994</ele><time>2026-04-19T08:19:09.052Z</time></trkpt><trkpt lat="44.74737" lon="9.7765883"><ele>464.0</ele><time>2026-04-19T08:19:10.055Z</time></trkpt><trkpt lat="44.7473817" lon="9.7766833"><ele>463.99999999999994</ele><time>2026-04-19T08:19:11.055Z</time></trkpt><trkpt lat="44.7474067" lon="9.7767783"><ele>464.0</ele><time>2026-04-19T08:19:12.053Z</time></trkpt><trkpt lat="44.74745" lon="9.7768617"><ele>464.0</ele><time>2026-04-19T08:19:13.053Z</time></trkpt><trkpt lat="44.7475033" lon="9.7769467"><ele>464.0</ele><time>2026-04-19T08:19:14.053Z</time></trkpt><trkpt lat="44.7475683" lon="9.7770317"><ele>463.99999999999994</ele><time>2026-04-19T08:19:15.055Z</time></trkpt><trkpt lat="44.747645" lon="9.77711"><ele>464.0</ele><time>2026-04-19T08:19:16.053Z</time></trkpt><trkpt lat="44.74772" lon="9.7771883"><ele>464.3333333333333</ele><time>2026-04-19T08:19:17.054Z</time></trkpt><trkpt lat="44.7477833" lon="9.777265"><ele>464.66666666666663</ele><time>2026-04-19T08:19:18.053Z</time></trkpt><trkpt lat="44.7478433" lon="9.777345"><ele>465.0</ele><time>2026-04-19T08:19:19.053Z</time></trkpt><trkpt lat="44.747885" lon="9.777425"><ele>465.33333333333337</ele><time>2026-04-19T08:19:20.053Z</time></trkpt><trkpt lat="44.7478883" lon="9.77759"><ele>465.6666666666667</ele><time>2026-04-19T08:19:22.054Z</time></trkpt><trkpt lat="44.7478433" lon="9.777685"><ele>466.0</ele><time>2026-04-19T08:19:23.054Z</time></trkpt><trkpt lat="44.7477967" lon="9.7777733"><ele>467.6666666666667</ele><time>2026-04-19T08:19:24.053Z</time></trkpt><trkpt lat="44.7477283" lon="9.777865"><ele>469.33333333333337</ele><time>2026-04-19T08:19:25.053Z</time></trkpt><trkpt lat="44.74765" lon="9.7779517"><ele>471.0</ele><time>2026-04-19T08:19:26.053Z</time></trkpt><trkpt lat="44.7475833" lon="9.7780217"><ele>472.66666666666663</ele><time>2026-04-19T08:19:27.053Z</time></trkpt><trkpt lat="44.7475233" lon="9.778095"><ele>474.3333333333333</ele><time>2026-04-19T08:19:28.053Z</time></trkpt><trkpt lat="44.7474733" lon="9.7781733"><ele>476.0</ele><time>2026-04-19T08:19:29.055Z</time></trkpt><trkpt lat="44.74743" lon="9.7782517"><ele>476.99999999999994</ele><time>2026-04-19T08:19:30.053Z</time></trkpt><trkpt lat="44.7473917" lon="9.77833"><ele>478.0</ele><time>2026-04-19T08:19:31.054Z</time></trkpt><trkpt lat="44.747355" lon="9.77841"><ele>479.0</ele><time>2026-04-19T08:19:32.054Z</time></trkpt><trkpt lat="44.7473167" lon="9.7784967"><ele>480.0</ele><time>2026-04-19T08:19:33.054Z</time></trkpt><trkpt lat="44.7472733" lon="9.7785983"><ele>480.99999999999994</ele><time>2026-04-19T08:19:34.053Z</time></trkpt><trkpt lat="44.7472233" lon="9.778725"><ele>482.0</ele><time>2026-04-19T08:19:35.055Z</time></trkpt><trkpt lat="44.7471683" lon="9.7788633"><ele>483.0</ele><time>2026-04-19T08:19:36.054Z</time></trkpt><trkpt lat="44.7471117" lon="9.7789883"><ele>484.00000000000006</ele><time>2026-04-19T08:19:37.055Z</time></trkpt><trkpt lat="44.7470517" lon="9.7791033"><ele>485.00000000000006</ele><time>2026-04-19T08:19:38.055Z</time></trkpt><trkpt lat="44.7469917" lon="9.7792017"><ele>486.0</ele><time>2026-04-19T08:19:39.055Z</time></trkpt><trkpt lat="44.746925" lon="9.7792833"><ele>487.0</ele><time>2026-04-19T08:19:40.054Z</time></trkpt><trkpt lat="44.74686" lon="9.7793483"><ele>491.40000000000003</ele><time>2026-04-19T08:19:41.055Z</time></trkpt><trkpt lat="44.7467933" lon="9.7794"><ele>495.80000000000007</ele><time>2026-04-19T08:19:42.056Z</time></trkpt><trkpt lat="44.7467317" lon="9.7794367"><ele>500.2</ele><time>2026-04-19T08:19:43.054Z</time></trkpt><trkpt lat="44.74662" lon="9.7794517"><ele>504.6</ele><time>2026-04-19T08:19:45.054Z</time></trkpt><trkpt lat="44.7464967" lon="9.779435"><ele>509.0</ele><time>2026-04-19T08:19:47.053Z</time></trkpt><trkpt lat="44.7464067" lon="9.779445"><ele>508.99999999999994</ele><time>2026-04-19T08:19:49.053Z</time></trkpt><trkpt lat="44.7462867" lon="9.7794383"><ele>509.0</ele><time>2026-04-19T08:20:02.053Z</time></trkpt><trkpt lat="44.7462117" lon="9.7794333"><ele>509.0</ele><time>2026-04-19T08:20:03.053Z</time></trkpt><trkpt lat="44.74613" lon="9.7794367"><ele>509.0</ele><time>2026-04-19T08:20:04.055Z</time></trkpt><trkpt lat="44.7460467" lon="9.7794517"><ele>508.99999999999994</ele><time>2026-04-19T08:20:05.052Z</time></trkpt><trkpt lat="44.7459717" lon="9.7794733"><ele>509.0</ele><time>2026-04-19T08:20:06.053Z</time></trkpt><trkpt lat="44.7458533" lon="9.7795017"><ele>511.0</ele><time>2026-04-19T08:20:08.054Z</time></trkpt><trkpt lat="44.7457467" lon="9.7795467"><ele>513.0</ele><time>2026-04-19T08:20:10.053Z</time></trkpt><trkpt lat="44.7456383" lon="9.7796483"><ele>515.0</ele><time>2026-04-19T08:20:12.054Z</time></trkpt><trkpt lat="44.7455867" lon="9.7797333"><ele>517.0</ele><time>2026-04-19T08:20:13.053Z</time></trkpt><trkpt lat="44.745535" lon="9.7798383"><ele>519.0</ele><time>2026-04-19T08:20:14.055Z</time></trkpt><trkpt lat="44.745485" lon="9.779925"><ele>519.0</ele><time>2026-04-19T08:20:15.054Z</time></trkpt><trkpt lat="44.7454217" lon="9.7799917"><ele>519.0</ele><time>2026-04-19T08:20:16.053Z</time></trkpt><trkpt lat="44.7453483" lon="9.780055"><ele>519.0</ele><time>2026-04-19T08:20:17.054Z</time></trkpt><trkpt lat="44.74528" lon="9.780115"><ele>519.0</ele><time>2026-04-19T08:20:18.053Z</time></trkpt><trkpt lat="44.7452133" lon="9.7801933"><ele>519.0</ele><time>2026-04-19T08:20:19.053Z</time></trkpt><trkpt lat="44.74515" lon="9.780275"><ele>519.0</ele><time>2026-04-19T08:20:20.053Z</time></trkpt><trkpt lat="44.74509" lon="9.7803617"><ele>522.6666666666666</ele><time>2026-04-19T08:20:21.053Z</time></trkpt><trkpt lat="44.7450383" lon="9.780445"><ele>526.3333333333334</ele><time>2026-04-19T08:20:22.053Z</time></trkpt><trkpt lat="44.7449867" lon="9.7805333"><ele>530.0</ele><time>2026-04-19T08:20:23.054Z</time></trkpt><trkpt lat="44.7449317" lon="9.7806183"><ele>533.6666666666667</ele><time>2026-04-19T08:20:24.053Z</time></trkpt><trkpt lat="44.7448817" lon="9.7807033"><ele>537.3333333333334</ele><time>2026-04-19T08:20:25.056Z</time></trkpt><trkpt lat="44.74484" lon="9.7807883"><ele>541.0</ele><time>2026-04-19T08:20:26.055Z</time></trkpt><trkpt lat="44.7448083" lon="9.7808817"><ele>541.0</ele><time>2026-04-19T08:20:27.053Z</time></trkpt><trkpt lat="44.74479" lon="9.78098"><ele>541.0</ele><time>2026-04-19T08:20:28.054Z</time></trkpt><trkpt lat="44.74478" lon="9.7810717"><ele>541.0</ele><time>2026-04-19T08:20:29.054Z</time></trkpt><trkpt lat="44.7447617" lon="9.7811733"><ele>541.0</ele><time>2026-04-19T08:20:31.054Z</time></trkpt><trkpt lat="44.7447133" lon="9.7811067"><ele>541.0</ele><time>2026-04-19T08:20:47.052Z</time></trkpt><trkpt lat="44.74465" lon="9.7809617"><ele>541.0</ele><time>2026-04-19T08:20:49.052Z</time></trkpt><trkpt lat="44.7446083" lon="9.7808917"><ele>541.0</ele><time>2026-04-19T08:20:50.053Z</time></trkpt><trkpt lat="44.7445417" lon="9.7808333"><ele>541.0</ele><time>2026-04-19T08:20:51.053Z</time></trkpt><trkpt lat="44.7444367" lon="9.7807883"><ele>541.0</ele><time>2026-04-19T08:20:52.053Z</time></trkpt><trkpt lat="44.7443283" lon="9.7807517"><ele>541.0</ele><time>2026-04-19T08:20:53.053Z</time></trkpt><trkpt lat="44.744235" lon="9.7807167"><ele>541.0</ele><time>2026-04-19T08:20:54.054Z</time></trkpt><trkpt lat="44.7441583" lon="9.7806833"><ele>544.4</ele><time>2026-04-19T08:20:55.053Z</time></trkpt><trkpt lat="44.7440783" lon="9.7806"><ele>547.8</ele><time>2026-04-19T08:20:57.054Z</time></trkpt><trkpt lat="44.7441017" lon="9.78047"><ele>551.1999999999999</ele><time>2026-04-19T08:20:59.055Z</time></trkpt><trkpt lat="44.74417" lon="9.7802883"><ele>554.6</ele><time>2026-04-19T08:21:01.054Z</time></trkpt><trkpt lat="44.744215" lon="9.78017"><ele>558.0</ele><time>2026-04-19T08:21:02.053Z</time></trkpt><trkpt lat="44.7442483" lon="9.7800317"><ele>559.0</ele><time>2026-04-19T08:21:03.053Z</time></trkpt><trkpt lat="44.7442917" lon="9.7798767"><ele>560.0</ele><time>2026-04-19T08:21:04.054Z</time></trkpt><trkpt lat="44.7443283" lon="9.7797217"><ele>561.0</ele><time>2026-04-19T08:21:05.054Z</time></trkpt><trkpt lat="44.744345" lon="9.7795717"><ele>562.0</ele><time>2026-04-19T08:21:06.053Z</time></trkpt><trkpt lat="44.744365" lon="9.779415"><ele>557.0</ele><time>2026-04-19T08:21:07.053Z</time></trkpt><trkpt lat="44.74438" lon="9.7792683"><ele>552.0</ele><time>2026-04-19T08:21:08.055Z</time></trkpt><trkpt lat="44.7443967" lon="9.77911"><ele>547.0</ele><time>2026-04-19T08:21:09.054Z</time></trkpt><trkpt lat="44.744425" lon="9.7789583"><ele>542.0</ele><time>2026-04-19T08:21:10.053Z</time></trkpt><trkpt lat="44.7444433" lon="9.7788233"><ele>537.0</ele><time>2026-04-19T08:21:11.053Z</time></trkpt><trkpt lat="44.744455" lon="9.7786967"><ele>537.0</ele><time>2026-04-19T08:21:12.053Z</time></trkpt><trkpt lat="44.7444467" lon="9.7785733"><ele>537.0</ele><time>2026-04-19T08:21:13.055Z</time></trkpt><trkpt lat="44.7444317" lon="9.77846"><ele>537.0</ele><time>2026-04-19T08:21:14.054Z</time></trkpt><trkpt lat="44.7444317" lon="9.7783567"><ele>537.0</ele><time>2026-04-19T08:21:15.053Z</time></trkpt><trkpt lat="44.7444367" lon="9.7782517"><ele>537.0</ele><time>2026-04-19T08:21:16.053Z</time></trkpt><trkpt lat="44.7444533" lon="9.7781417"><ele>537.0</ele><time>2026-04-19T08:21:17.054Z</time></trkpt><trkpt lat="44.7444817" lon="9.7780367"><ele>536.8000000000001</ele><time>2026-04-19T08:21:18.053Z</time></trkpt><trkpt lat="44.744515" lon="9.777935"><ele>536.6</ele><time>2026-04-19T08:21:19.053Z</time></trkpt><trkpt lat="44.7445517" lon="9.77782"><ele>536.4000000000001</ele><time>2026-04-19T08:21:20.053Z</time></trkpt><trkpt lat="44.7446067" lon="9.77769"><ele>536.2</ele><time>2026-04-19T08:21:21.053Z</time></trkpt><trkpt lat="44.7446567" lon="9.7775683"><ele>536.0</ele><time>2026-04-19T08:21:22.052Z</time></trkpt><trkpt lat="44.7447017" lon="9.7774533"><ele>538.0</ele><time>2026-04-19T08:21:23.054Z</time></trkpt><trkpt lat="44.7447383" lon="9.77735"><ele>540.0</ele><time>2026-04-19T08:21:24.054Z</time></trkpt><trkpt lat="44.7447683" lon="9.7772583"><ele>542.0</ele><time>2026-04-19T08:21:25.054Z</time></trkpt><trkpt lat="44.7447817" lon="9.7771683"><ele>544.0</ele><time>2026-04-19T08:21:26.054Z</time></trkpt><trkpt lat="44.7447883" lon="9.77707"><ele>546.0</ele><time>2026-04-19T08:21:27.055Z</time></trkpt><trkpt lat="44.7447767" lon="9.77696"><ele>548.0</ele><time>2026-04-19T08:21:28.054Z</time></trkpt><trkpt lat="44.7447633" lon="9.7768383"><ele>549.1999999999999</ele><time>2026-04-19T08:21:29.055Z</time></trkpt><trkpt lat="44.7447417" lon="9.7767133"><ele>550.4</ele><time>2026-04-19T08:21:30.055Z</time></trkpt><trkpt lat="44.7447183" lon="9.7765967"><ele>551.5999999999999</ele><time>2026-04-19T08:21:31.054Z</time></trkpt><trkpt lat="44.7446817" lon="9.776475"><ele>552.8</ele><time>2026-04-19T08:21:32.056Z</time></trkpt><trkpt lat="44.744635" lon="9.7763483"><ele>554.0</ele><time>2026-04-19T08:21:33.054Z</time></trkpt><trkpt lat="44.7445783" lon="9.77623"><ele>554.0</ele><time>2026-04-19T08:21:34.054Z</time></trkpt><trkpt lat="44.7445217" lon="9.77613"><ele>554.0</ele><time>2026-04-19T08:21:35.056Z</time></trkpt><trkpt lat="44.7444583" lon="9.7760483"><ele>554.0</ele><time>2026-04-19T08:21:36.054Z</time></trkpt><trkpt lat="44.7443767" lon="9.775975"><ele>554.0</ele><time>2026-04-19T08:21:37.054Z</time></trkpt><trkpt lat="44.744265" lon="9.7759333"><ele>554.0</ele><time>2026-04-19T08:21:38.054Z</time></trkpt><trkpt lat="44.74416" lon="9.775885"><ele>558.0</ele><time>2026-04-19T08:21:39.055Z</time></trkpt><trkpt lat="44.7440667" lon="9.775835"><ele>562.0</ele><time>2026-04-19T08:21:40.055Z</time></trkpt><trkpt lat="44.7439767" lon="9.7757983"><ele>566.0</ele><time>2026-04-19T08:21:41.055Z</time></trkpt><trkpt lat="44.74389" lon="9.77578"><ele>570.0</ele><time>2026-04-19T08:21:42.054Z</time></trkpt><trkpt lat="44.7438" lon="9.77576"><ele>574.0</ele><time>2026-04-19T08:21:43.055Z</time></trkpt><trkpt lat="44.7437167" lon="9.7757383"><ele>574.0</ele><time>2026-04-19T08:21:44.054Z</time></trkpt><trkpt lat="44.7436383" lon="9.7757067"><ele>574.0</ele><time>2026-04-19T08:21:45.056Z</time></trkpt><trkpt lat="44.7435683" lon="9.7756883"><ele>574.0</ele><time>2026-04-19T08:21:46.055Z</time></trkpt><trkpt lat="44.7435" lon="9.7756867"><ele>574.0</ele><time>2026-04-19T08:21:47.056Z</time></trkpt><trkpt lat="44.743425" lon="9.775705"><ele>574.0</ele><time>2026-04-19T08:21:48.057Z</time></trkpt><trkpt lat="44.74334" lon="9.77574"><ele>574.0</ele><time>2026-04-19T08:21:49.056Z</time></trkpt><trkpt lat="44.7432433" lon="9.7757817"><ele>575.2</ele><time>2026-04-19T08:21:50.056Z</time></trkpt><trkpt lat="44.7431433" lon="9.77582"><ele>576.4</ele><time>2026-04-19T08:21:51.054Z</time></trkpt><trkpt lat="44.74305" lon="9.7758633"><ele>577.6</ele><time>2026-04-19T08:21:52.056Z</time></trkpt><trkpt lat="44.74296" lon="9.7759033"><ele>578.8</ele><time>2026-04-19T08:21:53.056Z</time></trkpt><trkpt lat="44.7428683" lon="9.7759317"><ele>580.0</ele><time>2026-04-19T08:21:54.056Z</time></trkpt><trkpt lat="44.7427767" lon="9.77596"><ele>577.8</ele><time>2026-04-19T08:21:55.055Z</time></trkpt><trkpt lat="44.7426733" lon="9.77597"><ele>575.6</ele><time>2026-04-19T08:21:56.055Z</time></trkpt><trkpt lat="44.7425667" lon="9.7759667"><ele>573.4</ele><time>2026-04-19T08:21:57.054Z</time></trkpt><trkpt lat="44.7424683" lon="9.7759583"><ele>571.2</ele><time>2026-04-19T08:21:58.055Z</time></trkpt><trkpt lat="44.7423717" lon="9.7759333"><ele>569.0</ele><time>2026-04-19T08:21:59.054Z</time></trkpt><trkpt lat="44.742275" lon="9.7758983"><ele>569.0</ele><time>2026-04-19T08:22:00.053Z</time></trkpt><trkpt lat="44.742175" lon="9.775865"><ele>569.0</ele><time>2026-04-19T08:22:01.055Z</time></trkpt><trkpt lat="44.742075" lon="9.7758383"><ele>569.0</ele><time>2026-04-19T08:22:02.054Z</time></trkpt><trkpt lat="44.7419733" lon="9.775815"><ele>569.0</ele><time>2026-04-19T08:22:03.055Z</time></trkpt><trkpt lat="44.7418667" lon="9.7757967"><ele>569.0</ele><time>2026-04-19T08:22:04.054Z</time></trkpt><trkpt lat="44.7417583" lon="9.7757833"><ele>569.0</ele><time>2026-04-19T08:22:05.053Z</time></trkpt><trkpt lat="44.7416517" lon="9.775775"><ele>569.0</ele><time>2026-04-19T08:22:06.055Z</time></trkpt><trkpt lat="44.7415617" lon="9.77577"><ele>569.0</ele><time>2026-04-19T08:22:07.055Z</time></trkpt><trkpt lat="44.741485" lon="9.7757583"><ele>569.0</ele><time>2026-04-19T08:22:08.054Z</time></trkpt><trkpt lat="44.7414217" lon="9.7757283"><ele>569.0</ele><time>2026-04-19T08:22:09.054Z</time></trkpt><trkpt lat="44.7413367" lon="9.7756283"><ele>569.0</ele><time>2026-04-19T08:22:11.054Z</time></trkpt><trkpt lat="44.741315" lon="9.7754583"><ele>569.0</ele><time>2026-04-19T08:22:13.054Z</time></trkpt><trkpt lat="44.74132" lon="9.7753667"><ele>569.0</ele><time>2026-04-19T08:22:14.055Z</time></trkpt><trkpt lat="44.7413417" lon="9.7751967"><ele>569.0</ele><time>2026-04-19T08:22:16.055Z</time></trkpt><trkpt lat="44.74137" lon="9.7750333"><ele>569.0</ele><time>2026-04-19T08:22:18.055Z</time></trkpt><trkpt lat="44.7413967" lon="9.7748683"><ele>567.4</ele><time>2026-04-19T08:22:20.055Z</time></trkpt><trkpt lat="44.7413983" lon="9.7747083"><ele>565.8</ele><time>2026-04-19T08:22:22.055Z</time></trkpt><trkpt lat="44.7413783" lon="9.7745433"><ele>564.2</ele><time>2026-04-19T08:22:24.053Z</time></trkpt><trkpt lat="44.7413817" lon="9.7744533"><ele>562.6</ele><time>2026-04-19T08:22:25.054Z</time></trkpt><trkpt lat="44.741395" lon="9.7743417"><ele>561.0</ele><time>2026-04-19T08:22:26.056Z</time></trkpt><trkpt lat="44.7414117" lon="9.7742317"><ele>560.2</ele><time>2026-04-19T08:22:27.054Z</time></trkpt><trkpt lat="44.74143" lon="9.7740983"><ele>559.4000000000001</ele><time>2026-04-19T08:22:28.055Z</time></trkpt><trkpt lat="44.7414367" lon="9.7739567"><ele>558.6</ele><time>2026-04-19T08:22:29.054Z</time></trkpt><trkpt lat="44.7414267" lon="9.7738083"><ele>557.8000000000001</ele><time>2026-04-19T08:22:30.054Z</time></trkpt><trkpt lat="44.741405" lon="9.7736583"><ele>557.0</ele><time>2026-04-19T08:22:31.055Z</time></trkpt><trkpt lat="44.741375" lon="9.77349"><ele>556.6</ele><time>2026-04-19T08:22:32.054Z</time></trkpt><trkpt lat="44.74135" lon="9.7733267"><ele>556.2</ele><time>2026-04-19T08:22:33.053Z</time></trkpt><trkpt lat="44.7413317" lon="9.7731833"><ele>555.8</ele><time>2026-04-19T08:22:34.055Z</time></trkpt><trkpt lat="44.74133" lon="9.7730583"><ele>555.4</ele><time>2026-04-19T08:22:35.053Z</time></trkpt><trkpt lat="44.74133" lon="9.7729383"><ele>555.0</ele><time>2026-04-19T08:22:36.055Z</time></trkpt><trkpt lat="44.741335" lon="9.7727967"><ele>555.4</ele><time>2026-04-19T08:22:37.054Z</time></trkpt><trkpt lat="44.74133" lon="9.772655"><ele>555.8</ele><time>2026-04-19T08:22:38.054Z</time></trkpt><trkpt lat="44.74133" lon="9.7725183"><ele>556.2</ele><time>2026-04-19T08:22:39.053Z</time></trkpt><trkpt lat="44.74133" lon="9.7723867"><ele>556.6</ele><time>2026-04-19T08:22:40.055Z</time></trkpt><trkpt lat="44.74133" lon="9.772245"><ele>557.0</ele><time>2026-04-19T08:22:41.054Z</time></trkpt><trkpt lat="44.7413217" lon="9.7721033"><ele>557.0</ele><time>2026-04-19T08:22:42.056Z</time></trkpt><trkpt lat="44.7413117" lon="9.77197"><ele>557.0</ele><time>2026-04-19T08:22:43.053Z</time></trkpt><trkpt lat="44.7413017" lon="9.7718517"><ele>557.0</ele><time>2026-04-19T08:22:44.054Z</time></trkpt><trkpt lat="44.7412883" lon="9.7717483"><ele>557.0</ele><time>2026-04-19T08:22:45.055Z</time></trkpt><trkpt lat="44.7412633" lon="9.7716383"><ele>557.0</ele><time>2026-04-19T08:22:46.054Z</time></trkpt><trkpt lat="44.7412117" lon="9.7715467"><ele>557.0</ele><time>2026-04-19T08:22:47.054Z</time></trkpt><trkpt lat="44.741165" lon="9.771465"><ele>556.8000000000001</ele><time>2026-04-19T08:22:48.054Z</time></trkpt><trkpt lat="44.7411117" lon="9.7713833"><ele>556.6</ele><time>2026-04-19T08:22:49.054Z</time></trkpt><trkpt lat="44.7410117" lon="9.7713483"><ele>556.4000000000001</ele><time>2026-04-19T08:22:50.057Z</time></trkpt><trkpt lat="44.7408933" lon="9.7713133"><ele>556.2</ele><time>2026-04-19T08:22:51.055Z</time></trkpt><trkpt lat="44.7407833" lon="9.77126"><ele>556.0</ele><time>2026-04-19T08:22:52.055Z</time></trkpt><trkpt lat="44.7406783" lon="9.7712133"><ele>561.3333333333334</ele><time>2026-04-19T08:22:53.055Z</time></trkpt><trkpt lat="44.7405667" lon="9.7711767"><ele>566.6666666666667</ele><time>2026-04-19T08:22:54.056Z</time></trkpt><trkpt lat="44.74047" lon="9.7711267"><ele>572.0</ele><time>2026-04-19T08:22:55.055Z</time></trkpt><trkpt lat="44.7403883" lon="9.7710983"><ele>577.3333333333334</ele><time>2026-04-19T08:22:56.054Z</time></trkpt><trkpt lat="44.7403183" lon="9.771105"><ele>582.6666666666666</ele><time>2026-04-19T08:22:57.054Z</time></trkpt><trkpt lat="44.740255" lon="9.77111"><ele>588.0</ele><time>2026-04-19T08:22:58.054Z</time></trkpt><trkpt lat="44.740195" lon="9.7711417"><ele>588.0</ele><time>2026-04-19T08:22:59.054Z</time></trkpt><trkpt lat="44.740105" lon="9.7711717"><ele>588.0</ele><time>2026-04-19T08:23:01.055Z</time></trkpt><trkpt lat="44.740045" lon="9.7711333"><ele>588.0</ele><time>2026-04-19T08:23:03.056Z</time></trkpt><trkpt lat="44.7399667" lon="9.771055"><ele>588.0</ele><time>2026-04-19T08:23:05.056Z</time></trkpt><trkpt lat="44.7398567" lon="9.771015"><ele>588.0</ele><time>2026-04-19T08:23:07.055Z</time></trkpt><trkpt lat="44.7397933" lon="9.771025"><ele>588.0</ele><time>2026-04-19T08:23:08.056Z</time></trkpt><trkpt lat="44.7396683" lon="9.7710033"><ele>586.3333333333334</ele><time>2026-04-19T08:23:10.055Z</time></trkpt><trkpt lat="44.7396" lon="9.7709817"><ele>584.6666666666666</ele><time>2026-04-19T08:23:11.055Z</time></trkpt><trkpt lat="44.7394833" lon="9.77095"><ele>583.0</ele><time>2026-04-19T08:23:13.054Z</time></trkpt><trkpt lat="44.73942" lon="9.770955"><ele>581.3333333333333</ele><time>2026-04-19T08:23:14.055Z</time></trkpt><trkpt lat="44.7393467" lon="9.7709867"><ele>579.6666666666666</ele><time>2026-04-19T08:23:15.054Z</time></trkpt><trkpt lat="44.73927" lon="9.7710333"><ele>578.0</ele><time>2026-04-19T08:23:16.055Z</time></trkpt><trkpt lat="44.7391733" lon="9.7710833"><ele>578.0</ele><time>2026-04-19T08:23:17.054Z</time></trkpt><trkpt lat="44.739095" lon="9.7711433"><ele>578.0</ele><time>2026-04-19T08:23:18.054Z</time></trkpt><trkpt lat="44.7390033" lon="9.77117"><ele>578.0</ele><time>2026-04-19T08:23:19.054Z</time></trkpt><trkpt lat="44.738915" lon="9.7712033"><ele>578.0</ele><time>2026-04-19T08:23:20.055Z</time></trkpt><trkpt lat="44.7388467" lon="9.77124"><ele>578.0</ele><time>2026-04-19T08:23:21.055Z</time></trkpt><trkpt lat="44.7387817" lon="9.7712883"><ele>578.0</ele><time>2026-04-19T08:23:22.054Z</time></trkpt><trkpt lat="44.7387167" lon="9.7713517"><ele>578.0</ele><time>2026-04-19T08:23:23.054Z</time></trkpt><trkpt lat="44.7386633" lon="9.7714183"><ele>578.0</ele><time>2026-04-19T08:23:24.054Z</time></trkpt><trkpt lat="44.7386183" lon="9.7715"><ele>578.0</ele><time>2026-04-19T08:23:25.055Z</time></trkpt><trkpt lat="44.7385733" lon="9.77158"><ele>578.0</ele><time>2026-04-19T08:23:26.053Z</time></trkpt><trkpt lat="44.73852" lon="9.7716467"><ele>578.0</ele><time>2026-04-19T08:23:27.055Z</time></trkpt><trkpt lat="44.7384567" lon="9.7716867"><ele>578.0</ele><time>2026-04-19T08:23:28.055Z</time></trkpt><trkpt lat="44.7383467" lon="9.7717133"><ele>576.8333333333333</ele><time>2026-04-19T08:23:30.055Z</time></trkpt><trkpt lat="44.73828" lon="9.7716417"><ele>575.6666666666666</ele><time>2026-04-19T08:23:32.055Z</time></trkpt><trkpt lat="44.7383067" lon="9.7715017"><ele>574.5</ele><time>2026-04-19T08:23:37.056Z</time></trkpt><trkpt lat="44.7383483" lon="9.7713517"><ele>573.3333333333334</ele><time>2026-04-19T08:23:39.055Z</time></trkpt><trkpt lat="44.7383683" lon="9.771265"><ele>572.1666666666667</ele><time>2026-04-19T08:23:40.055Z</time></trkpt><trkpt lat="44.7383917" lon="9.7711783"><ele>571.0</ele><time>2026-04-19T08:23:41.055Z</time></trkpt><trkpt lat="44.7384183" lon="9.7710883"><ele>568.4</ele><time>2026-04-19T08:23:42.055Z</time></trkpt><trkpt lat="44.738445" lon="9.771"><ele>565.8</ele><time>2026-04-19T08:23:43.054Z</time></trkpt><trkpt lat="44.73847" lon="9.7709067"><ele>563.1999999999999</ele><time>2026-04-19T08:23:44.057Z</time></trkpt><trkpt lat="44.7385083" lon="9.770745"><ele>560.6</ele><time>2026-04-19T08:23:46.055Z</time></trkpt><trkpt lat="44.7385317" lon="9.77057"><ele>558.0</ele><time>2026-04-19T08:23:48.056Z</time></trkpt><trkpt lat="44.7385333" lon="9.770475"><ele>558.0</ele><time>2026-04-19T08:23:49.054Z</time></trkpt><trkpt lat="44.7385233" lon="9.7703783"><ele>558.0</ele><time>2026-04-19T08:23:50.056Z</time></trkpt><trkpt lat="44.7385017" lon="9.7702933"><ele>558.0</ele><time>2026-04-19T08:23:51.055Z</time></trkpt><trkpt lat="44.7384733" lon="9.77013"><ele>558.0</ele><time>2026-04-19T08:23:53.056Z</time></trkpt><trkpt lat="44.7384617" lon="9.76998"><ele>558.0</ele><time>2026-04-19T08:23:55.056Z</time></trkpt><trkpt lat="44.738475" lon="9.7698433"><ele>554.6</ele><time>2026-04-19T08:23:57.056Z</time></trkpt><trkpt lat="44.7385017" lon="9.76969"><ele>551.1999999999999</ele><time>2026-04-19T08:23:59.054Z</time></trkpt><trkpt lat="44.7385433" lon="9.7695283"><ele>547.8</ele><time>2026-04-19T08:24:01.055Z</time></trkpt><trkpt lat="44.7385817" lon="9.7693967"><ele>544.4</ele><time>2026-04-19T08:24:03.054Z</time></trkpt><trkpt lat="44.7386" lon="9.7692767"><ele>541.0</ele><time>2026-04-19T08:24:05.053Z</time></trkpt><trkpt lat="44.7385333" lon="9.7692083"><ele>537.3333333333334</ele><time>2026-04-19T08:24:08.054Z</time></trkpt><trkpt lat="44.7384583" lon="9.7691733"><ele>533.6666666666667</ele><time>2026-04-19T08:24:11.052Z</time></trkpt><trkpt lat="44.7383983" lon="9.7691417"><ele>530.0</ele><time>2026-04-19T08:24:14.053Z</time></trkpt><trkpt lat="44.73833" lon="9.7690733"><ele>526.3333333333334</ele><time>2026-04-19T08:24:29.054Z</time></trkpt><trkpt lat="44.7382633" lon="9.7690117"><ele>522.6666666666666</ele><time>2026-04-19T08:24:33.055Z</time></trkpt><trkpt lat="44.7382217" lon="9.768935"><ele>519.0</ele><time>2026-04-19T08:24:35.055Z</time></trkpt><trkpt lat="44.73818" lon="9.7688433"><ele>519.0</ele><time>2026-04-19T08:24:38.056Z</time></trkpt><trkpt lat="44.7382483" lon="9.76876"><ele>519.0</ele><time>2026-04-19T08:24:42.055Z</time></trkpt><trkpt lat="44.7383283" lon="9.7687533"><ele>519.0</ele><time>2026-04-19T08:24:44.055Z</time></trkpt><trkpt lat="44.7383983" lon="9.76875"><ele>519.0</ele><time>2026-04-19T08:24:46.054Z</time></trkpt><trkpt lat="44.7384633" lon="9.7687467"><ele>519.0</ele><time>2026-04-19T08:24:48.055Z</time></trkpt><trkpt lat="44.7385317" lon="9.7687533"><ele>519.0</ele><time>2026-04-19T08:24:50.055Z</time></trkpt><trkpt lat="44.7386067" lon="9.7687483"><ele>519.0</ele><time>2026-04-19T08:24:52.055Z</time></trkpt><trkpt lat="44.738685" lon="9.7687217"><ele>515.2</ele><time>2026-04-19T08:24:54.053Z</time></trkpt><trkpt lat="44.7387641" lon="9.768681"><ele>511.4</ele><time>2026-04-19T08:24:56.134Z</time></trkpt><trkpt lat="44.7388225" lon="9.7685836"><ele>507.6</ele><time>2026-04-19T08:24:59.123Z</time></trkpt><trkpt lat="44.7388936" lon="9.768531"><ele>503.8</ele><time>2026-04-19T08:25:01.156Z</time></trkpt><trkpt lat="44.7389913" lon="9.7684748"><ele>500.0</ele><time>2026-04-19T08:25:03.055Z</time></trkpt><trkpt lat="44.7390842" lon="9.7684351"><ele>494.99999999999994</ele><time>2026-04-19T08:25:05.054Z</time></trkpt><trkpt lat="44.7391464" lon="9.7684062"><ele>490.0</ele><time>2026-04-19T08:25:07.053Z</time></trkpt><trkpt lat="44.7391899" lon="9.7683133"><ele>485.0</ele><time>2026-04-19T08:25:10.053Z</time></trkpt><trkpt lat="44.739098" lon="9.7682535"><ele>480.0</ele><time>2026-04-19T08:25:14.063Z</time></trkpt><trkpt lat="44.7390337" lon="9.7681993"><ele>474.99999999999994</ele><time>2026-04-19T08:25:15.056Z</time></trkpt><trkpt lat="44.7389378" lon="9.768113"><ele>470.0</ele><time>2026-04-19T08:25:17.053Z</time></trkpt><trkpt lat="44.7388576" lon="9.7679756"><ele>469.99999999999994</ele><time>2026-04-19T08:25:19.055Z</time></trkpt><trkpt lat="44.7388167" lon="9.767885"><ele>470.0</ele><time>2026-04-19T08:25:20.055Z</time></trkpt><trkpt lat="44.73878" lon="9.7678033"><ele>470.0</ele><time>2026-04-19T08:25:21.055Z</time></trkpt><trkpt lat="44.7387483" lon="9.7677267"><ele>470.0</ele><time>2026-04-19T08:25:22.054Z</time></trkpt><trkpt lat="44.738685" lon="9.76759"><ele>469.99999999999994</ele><time>2026-04-19T08:25:24.054Z</time></trkpt><trkpt lat="44.73864" lon="9.7674667"><ele>470.0</ele><time>2026-04-19T08:25:26.054Z</time></trkpt><trkpt lat="44.73863" lon="9.7673483"><ele>465.16666666666663</ele><time>2026-04-19T08:25:29.054Z</time></trkpt><trkpt lat="44.73866" lon="9.7672667"><ele>460.3333333333333</ele><time>2026-04-19T08:25:31.055Z</time></trkpt><trkpt lat="44.7387333" lon="9.767265"><ele>455.5</ele><time>2026-04-19T08:25:33.054Z</time></trkpt><trkpt lat="44.738795" lon="9.767335"><ele>450.66666666666663</ele><time>2026-04-19T08:25:35.054Z</time></trkpt><trkpt lat="44.7388733" lon="9.7674083"><ele>445.8333333333333</ele><time>2026-04-19T08:25:37.054Z</time></trkpt><trkpt lat="44.73896" lon="9.7674333"><ele>441.0</ele><time>2026-04-19T08:25:39.053Z</time></trkpt><trkpt lat="44.73904" lon="9.7674417"><ele>441.0</ele><time>2026-04-19T08:25:42.053Z</time></trkpt><trkpt lat="44.7391217" lon="9.7674917"><ele>441.0</ele><time>2026-04-19T08:25:46.053Z</time></trkpt><trkpt lat="44.739205" lon="9.7675283"><ele>441.0</ele><time>2026-04-19T08:25:49.054Z</time></trkpt><trkpt lat="44.7392817" lon="9.7674967"><ele>441.0</ele><time>2026-04-19T08:25:52.054Z</time></trkpt><trkpt lat="44.7393517" lon="9.7674283"><ele>441.0</ele><time>2026-04-19T08:25:55.053Z</time></trkpt><trkpt lat="44.739365" lon="9.76734"><ele>441.0</ele><time>2026-04-19T08:25:59.054Z</time></trkpt><trkpt lat="44.7393017" lon="9.767255"><ele>441.0</ele><time>2026-04-19T08:26:03.054Z</time></trkpt><trkpt lat="44.7392683" lon="9.7671733"><ele>441.0</ele><time>2026-04-19T08:26:05.055Z</time></trkpt><trkpt lat="44.7392483" lon="9.7670767"><ele>441.0</ele><time>2026-04-19T08:26:07.055Z</time></trkpt><trkpt lat="44.7392683" lon="9.7669733"><ele>441.0</ele><time>2026-04-19T08:26:09.054Z</time></trkpt><trkpt lat="44.7392867" lon="9.7668833"><ele>441.0</ele><time>2026-04-19T08:26:11.053Z</time></trkpt><trkpt lat="44.7393367" lon="9.76676"><ele>441.0</ele><time>2026-04-19T08:26:14.054Z</time></trkpt><trkpt lat="44.739345" lon="9.7666667"><ele>441.0</ele><time>2026-04-19T08:26:16.054Z</time></trkpt><trkpt lat="44.7393333" lon="9.766575"><ele>436.6666666666667</ele><time>2026-04-19T08:26:18.053Z</time></trkpt><trkpt lat="44.7393209" lon="9.7664845"><ele>432.33333333333337</ele><time>2026-04-19T08:26:20.053Z</time></trkpt><trkpt lat="44.739341" lon="9.7663939"><ele>428.0</ele><time>2026-04-19T08:26:22.053Z</time></trkpt><trkpt lat="44.7393594" lon="9.7662918"><ele>423.6666666666667</ele><time>2026-04-19T08:26:24.054Z</time></trkpt><trkpt lat="44.7393948" lon="9.7661151"><ele>419.33333333333337</ele><time>2026-04-19T08:26:27.073Z</time></trkpt><trkpt lat="44.7394286" lon="9.7660164"><ele>415.0</ele><time>2026-04-19T08:26:28.118Z</time></trkpt><trkpt lat="44.7394548" lon="9.7659334"><ele>409.6666666666667</ele><time>2026-04-19T08:26:29.052Z</time></trkpt><trkpt lat="44.7394789" lon="9.7658469"><ele>404.33333333333337</ele><time>2026-04-19T08:26:30.055Z</time></trkpt><trkpt lat="44.7395129" lon="9.765751"><ele>399.0</ele><time>2026-04-19T08:26:31.053Z</time></trkpt><trkpt lat="44.7395798" lon="9.7656134"><ele>393.6666666666667</ele><time>2026-04-19T08:26:33.054Z</time></trkpt><trkpt lat="44.7396521" lon="9.7654987"><ele>388.33333333333337</ele><time>2026-04-19T08:26:35.052Z</time></trkpt><trkpt lat="44.739688" lon="9.7654241"><ele>383.0</ele><time>2026-04-19T08:26:36.054Z</time></trkpt><trkpt lat="44.7397283" lon="9.7653507"><ele>383.0</ele><time>2026-04-19T08:26:37.053Z</time></trkpt><trkpt lat="44.7397717" lon="9.7652785"><ele>383.0</ele><time>2026-04-19T08:26:38.054Z</time></trkpt><trkpt lat="44.7398198" lon="9.7652029"><ele>383.0</ele><time>2026-04-19T08:26:39.053Z</time></trkpt><trkpt lat="44.7398671" lon="9.7651236"><ele>383.0</ele><time>2026-04-19T08:26:40.053Z</time></trkpt><trkpt lat="44.7399059" lon="9.7650449"><ele>383.0</ele><time>2026-04-19T08:26:41.053Z</time></trkpt><trkpt lat="44.7399566" lon="9.7649084"><ele>383.0</ele><time>2026-04-19T08:26:43.053Z</time></trkpt><trkpt lat="44.7400154" lon="9.7648061"><ele>381.2</ele><time>2026-04-19T08:26:45.053Z</time></trkpt><trkpt lat="44.7400633" lon="9.7647198"><ele>379.4</ele><time>2026-04-19T08:26:48.054Z</time></trkpt><trkpt lat="44.740125" lon="9.7646567"><ele>377.59999999999997</ele><time>2026-04-19T08:26:53.052Z</time></trkpt><trkpt lat="44.7400117" lon="9.76458"><ele>375.79999999999995</ele><time>2026-04-19T08:34:50.055Z</time></trkpt><trkpt lat="44.7399267" lon="9.76452"><ele>374.0</ele><time>2026-04-19T08:35:17.054Z</time></trkpt><trkpt lat="44.73984" lon="9.764535"><ele>374.0</ele><time>2026-04-19T08:35:20.055Z</time></trkpt><trkpt lat="44.7397783" lon="9.7645767"><ele>374.0</ele><time>2026-04-19T08:35:22.054Z</time></trkpt><trkpt lat="44.7397033" lon="9.76465"><ele>374.0</ele><time>2026-04-19T08:35:24.053Z</time></trkpt><trkpt lat="44.7396167" lon="9.7647167"><ele>374.0</ele><time>2026-04-19T08:35:26.055Z</time></trkpt><trkpt lat="44.7395133" lon="9.7647867"><ele>374.0</ele><time>2026-04-19T08:35:28.054Z</time></trkpt><trkpt lat="44.739425" lon="9.7648783"><ele>377.33333333333337</ele><time>2026-04-19T08:35:30.054Z</time></trkpt><trkpt lat="44.7393483" lon="9.7649667"><ele>380.6666666666667</ele><time>2026-04-19T08:35:32.054Z</time></trkpt><trkpt lat="44.7393167" lon="9.7650883"><ele>384.0</ele><time>2026-04-19T08:35:34.053Z</time></trkpt><trkpt lat="44.73927" lon="9.7651683"><ele>387.33333333333337</ele><time>2026-04-19T08:35:36.054Z</time></trkpt><trkpt lat="44.7391983" lon="9.7651683"><ele>390.6666666666667</ele><time>2026-04-19T08:35:39.054Z</time></trkpt><trkpt lat="44.739145" lon="9.7651033"><ele>394.0</ele><time>2026-04-19T08:35:41.054Z</time></trkpt><trkpt lat="44.739105" lon="9.764985"><ele>394.0</ele><time>2026-04-19T08:35:43.053Z</time></trkpt><trkpt lat="44.7390917" lon="9.764805"><ele>394.0</ele><time>2026-04-19T08:35:45.054Z</time></trkpt><trkpt lat="44.7390617" lon="9.764655"><ele>394.0</ele><time>2026-04-19T08:35:47.054Z</time></trkpt><trkpt lat="44.7389667" lon="9.7645933"><ele>394.0</ele><time>2026-04-19T08:35:49.055Z</time></trkpt><trkpt lat="44.73888" lon="9.7645983"><ele>394.0</ele><time>2026-04-19T08:35:50.055Z</time></trkpt><trkpt lat="44.7387933" lon="9.7646067"><ele>394.00000000000006</ele><time>2026-04-19T08:35:51.054Z</time></trkpt><trkpt lat="44.738725" lon="9.7646017"><ele>394.0</ele><time>2026-04-19T08:35:52.053Z</time></trkpt><trkpt lat="44.738655" lon="9.76459"><ele>394.0</ele><time>2026-04-19T08:35:53.055Z</time></trkpt><trkpt lat="44.73858" lon="9.76459"><ele>394.0</ele><time>2026-04-19T08:35:54.056Z</time></trkpt><trkpt lat="44.7384533" lon="9.7645767"><ele>394.00000000000006</ele><time>2026-04-19T08:35:56.054Z</time></trkpt><trkpt lat="44.7383833" lon="9.7645533"><ele>394.0</ele><time>2026-04-19T08:35:57.056Z</time></trkpt><trkpt lat="44.73831" lon="9.7645283"><ele>395.50000000000006</ele><time>2026-04-19T08:35:58.055Z</time></trkpt><trkpt lat="44.7382433" lon="9.7645083"><ele>397.0</ele><time>2026-04-19T08:35:59.056Z</time></trkpt><trkpt lat="44.73818" lon="9.76447"><ele>398.5</ele><time>2026-04-19T08:36:00.054Z</time></trkpt><trkpt lat="44.7381183" lon="9.7644267"><ele>400.0</ele><time>2026-04-19T08:36:01.055Z</time></trkpt><trkpt lat="44.7380617" lon="9.76438"><ele>401.50000000000006</ele><time>2026-04-19T08:36:02.056Z</time></trkpt><trkpt lat="44.73795" lon="9.7642883"><ele>403.0</ele><time>2026-04-19T08:36:04.055Z</time></trkpt><trkpt lat="44.7378867" lon="9.764245"><ele>403.00000000000006</ele><time>2026-04-19T08:36:05.056Z</time></trkpt><trkpt lat="44.73781" lon="9.7642033"><ele>403.0</ele><time>2026-04-19T08:36:06.056Z</time></trkpt><trkpt lat="44.7377383" lon="9.7641583"><ele>403.0</ele><time>2026-04-19T08:36:07.053Z</time></trkpt><trkpt lat="44.7376633" lon="9.76412"><ele>403.0</ele><time>2026-04-19T08:36:08.055Z</time></trkpt><trkpt lat="44.7375883" lon="9.7640833"><ele>403.00000000000006</ele><time>2026-04-19T08:36:09.053Z</time></trkpt><trkpt lat="44.737515" lon="9.7640467"><ele>403.0</ele><time>2026-04-19T08:36:10.054Z</time></trkpt><trkpt lat="44.7374533" lon="9.76401"><ele>406.59999999999997</ele><time>2026-04-19T08:36:11.056Z</time></trkpt><trkpt lat="44.7373733" lon="9.7639683"><ele>410.2</ele><time>2026-04-19T08:36:13.055Z</time></trkpt><trkpt lat="44.7372833" lon="9.76391"><ele>413.8</ele><time>2026-04-19T08:36:15.055Z</time></trkpt><trkpt lat="44.73715" lon="9.7638567"><ele>417.4</ele><time>2026-04-19T08:36:17.055Z</time></trkpt><trkpt lat="44.7370783" lon="9.76383"><ele>421.0</ele><time>2026-04-19T08:36:18.054Z</time></trkpt><trkpt lat="44.73698" lon="9.7638017"><ele>421.0</ele><time>2026-04-19T08:36:20.056Z</time></trkpt><trkpt lat="44.7368933" lon="9.7638567"><ele>421.0</ele><time>2026-04-19T08:36:36.054Z</time></trkpt><trkpt lat="44.7367917" lon="9.7637767"><ele>421.0</ele><time>2026-04-19T08:36:38.054Z</time></trkpt><trkpt lat="44.7367183" lon="9.7637083"><ele>421.0</ele><time>2026-04-19T08:36:39.054Z</time></trkpt><trkpt lat="44.73662" lon="9.7636317"><ele>421.0</ele><time>2026-04-19T08:36:40.055Z</time></trkpt><trkpt lat="44.7365083" lon="9.7635533"><ele>422.0</ele><time>2026-04-19T08:36:41.053Z</time></trkpt><trkpt lat="44.7363833" lon="9.76347"><ele>423.0</ele><time>2026-04-19T08:36:42.053Z</time></trkpt><trkpt lat="44.7362533" lon="9.7633883"><ele>424.0</ele><time>2026-04-19T08:36:43.053Z</time></trkpt><trkpt lat="44.7361283" lon="9.7633"><ele>425.0</ele><time>2026-04-19T08:36:44.055Z</time></trkpt><trkpt lat="44.7360083" lon="9.7632117"><ele>426.25</ele><time>2026-04-19T08:36:45.055Z</time></trkpt><trkpt lat="44.73589" lon="9.76313"><ele>427.5</ele><time>2026-04-19T08:36:46.053Z</time></trkpt><trkpt lat="44.7357733" lon="9.76304"><ele>428.75</ele><time>2026-04-19T08:36:47.055Z</time></trkpt><trkpt lat="44.7356633" lon="9.762955"><ele>430.0</ele><time>2026-04-19T08:36:48.054Z</time></trkpt><trkpt lat="44.7355533" lon="9.7628817"><ele>430.0</ele><time>2026-04-19T08:36:49.055Z</time></trkpt><trkpt lat="44.7354517" lon="9.7628217"><ele>430.0</ele><time>2026-04-19T08:36:50.056Z</time></trkpt><trkpt lat="44.7353533" lon="9.7627733"><ele>430.0</ele><time>2026-04-19T08:36:51.054Z</time></trkpt><trkpt lat="44.7352483" lon="9.7627467"><ele>430.0</ele><time>2026-04-19T08:36:52.054Z</time></trkpt><trkpt lat="44.73515" lon="9.7627167"><ele>430.0</ele><time>2026-04-19T08:36:53.056Z</time></trkpt><trkpt lat="44.7350583" lon="9.762675"><ele>429.4</ele><time>2026-04-19T08:36:54.055Z</time></trkpt><trkpt lat="44.73497" lon="9.7626383"><ele>428.8</ele><time>2026-04-19T08:36:55.055Z</time></trkpt><trkpt lat="44.7348817" lon="9.7626083"><ele>428.20000000000005</ele><time>2026-04-19T08:36:56.055Z</time></trkpt><trkpt lat="44.7348033" lon="9.7625867"><ele>427.6</ele><time>2026-04-19T08:36:57.053Z</time></trkpt><trkpt lat="44.7346967" lon="9.7625817"><ele>427.0</ele><time>2026-04-19T08:36:59.054Z</time></trkpt><trkpt lat="44.7346017" lon="9.7626533"><ele>428.1666666666667</ele><time>2026-04-19T08:37:01.056Z</time></trkpt><trkpt lat="44.7345433" lon="9.7627033"><ele>429.33333333333337</ele><time>2026-04-19T08:37:02.054Z</time></trkpt><trkpt lat="44.7344817" lon="9.762765"><ele>430.5</ele><time>2026-04-19T08:37:03.055Z</time></trkpt><trkpt lat="44.734425" lon="9.7628283"><ele>431.66666666666663</ele><time>2026-04-19T08:37:04.055Z</time></trkpt><trkpt lat="44.7343717" lon="9.762895"><ele>432.8333333333333</ele><time>2026-04-19T08:37:05.055Z</time></trkpt><trkpt lat="44.7343233" lon="9.7629667"><ele>434.0</ele><time>2026-04-19T08:37:06.055Z</time></trkpt><trkpt lat="44.7342433" lon="9.7630867"><ele>434.4</ele><time>2026-04-19T08:37:08.057Z</time></trkpt><trkpt lat="44.7341483" lon="9.7631417"><ele>434.79999999999995</ele><time>2026-04-19T08:37:10.054Z</time></trkpt><trkpt lat="44.7340517" lon="9.7631717"><ele>435.20000000000005</ele><time>2026-04-19T08:37:12.053Z</time></trkpt><trkpt lat="44.7339783" lon="9.7632267"><ele>435.6</ele><time>2026-04-19T08:37:14.053Z</time></trkpt><trkpt lat="44.7339167" lon="9.7632817"><ele>436.0</ele><time>2026-04-19T08:37:16.054Z</time></trkpt><trkpt lat="44.73383" lon="9.7633333"><ele>436.00000000000006</ele><time>2026-04-19T08:37:19.055Z</time></trkpt><trkpt lat="44.7337333" lon="9.7634367"><ele>436.0</ele><time>2026-04-19T08:37:21.053Z</time></trkpt><trkpt lat="44.7336817" lon="9.7634983"><ele>436.0</ele><time>2026-04-19T08:37:22.053Z</time></trkpt><trkpt lat="44.733625" lon="9.7635583"><ele>436.0</ele><time>2026-04-19T08:37:23.056Z</time></trkpt><trkpt lat="44.7335567" lon="9.763635"><ele>436.00000000000006</ele><time>2026-04-19T08:37:25.055Z</time></trkpt><trkpt lat="44.7335017" lon="9.76371"><ele>436.0</ele><time>2026-04-19T08:37:28.053Z</time></trkpt><trkpt lat="44.7334283" lon="9.7637033"><ele>436.83333333333337</ele><time>2026-04-19T08:37:31.054Z</time></trkpt><trkpt lat="44.7333583" lon="9.76364"><ele>437.6666666666667</ele><time>2026-04-19T08:37:33.054Z</time></trkpt><trkpt lat="44.733315" lon="9.7635717"><ele>438.5</ele><time>2026-04-19T08:37:34.054Z</time></trkpt><trkpt lat="44.7332667" lon="9.7634933"><ele>439.33333333333337</ele><time>2026-04-19T08:37:35.054Z</time></trkpt><trkpt lat="44.7332083" lon="9.763435"><ele>440.1666666666667</ele><time>2026-04-19T08:37:36.054Z</time></trkpt><trkpt lat="44.7331283" lon="9.76339"><ele>441.0</ele><time>2026-04-19T08:37:37.055Z</time></trkpt><trkpt lat="44.7330517" lon="9.763345"><ele>441.0</ele><time>2026-04-19T08:37:38.056Z</time></trkpt><trkpt lat="44.7329867" lon="9.7633233"><ele>441.0</ele><time>2026-04-19T08:37:39.054Z</time></trkpt><trkpt lat="44.7329017" lon="9.763225"><ele>441.0</ele><time>2026-04-19T08:37:41.054Z</time></trkpt><trkpt lat="44.7328467" lon="9.7630617"><ele>441.0</ele><time>2026-04-19T08:37:43.053Z</time></trkpt><trkpt lat="44.7328017" lon="9.762975"><ele>441.0</ele><time>2026-04-19T08:37:44.055Z</time></trkpt><trkpt lat="44.7327383" lon="9.762885"><ele>443.0</ele><time>2026-04-19T08:37:45.053Z</time></trkpt><trkpt lat="44.7326533" lon="9.762805"><ele>445.0</ele><time>2026-04-19T08:37:46.053Z</time></trkpt><trkpt lat="44.7325633" lon="9.7627333"><ele>447.0</ele><time>2026-04-19T08:37:47.052Z</time></trkpt><trkpt lat="44.7324967" lon="9.7626817"><ele>449.0</ele><time>2026-04-19T08:37:48.054Z</time></trkpt><trkpt lat="44.7323983" lon="9.7626367"><ele>451.0</ele><time>2026-04-19T08:37:50.053Z</time></trkpt><trkpt lat="44.7323033" lon="9.7625183"><ele>451.00000000000006</ele><time>2026-04-19T08:37:52.054Z</time></trkpt><trkpt lat="44.7322583" lon="9.7624483"><ele>451.0</ele><time>2026-04-19T08:37:53.053Z</time></trkpt><trkpt lat="44.7321783" lon="9.7623367"><ele>451.0</ele><time>2026-04-19T08:37:55.054Z</time></trkpt><trkpt lat="44.7320817" lon="9.762255"><ele>451.0</ele><time>2026-04-19T08:37:57.054Z</time></trkpt><trkpt lat="44.7320233" lon="9.7621983"><ele>451.00000000000006</ele><time>2026-04-19T08:37:58.055Z</time></trkpt><trkpt lat="44.7319717" lon="9.76213"><ele>451.0</ele><time>2026-04-19T08:37:59.055Z</time></trkpt><trkpt lat="44.7319017" lon="9.7620133"><ele>450.25</ele><time>2026-04-19T08:38:01.055Z</time></trkpt><trkpt lat="44.7318233" lon="9.7618967"><ele>449.5</ele><time>2026-04-19T08:38:03.054Z</time></trkpt><trkpt lat="44.73172" lon="9.761815"><ele>448.75</ele><time>2026-04-19T08:38:05.055Z</time></trkpt><trkpt lat="44.7316117" lon="9.7617583"><ele>448.0</ele><time>2026-04-19T08:38:07.055Z</time></trkpt><trkpt lat="44.7314967" lon="9.76173"><ele>448.00000000000006</ele><time>2026-04-19T08:38:09.054Z</time></trkpt><trkpt lat="44.7314317" lon="9.76172"><ele>448.0</ele><time>2026-04-19T08:38:10.054Z</time></trkpt><trkpt lat="44.7313483" lon="9.7617133"><ele>448.0</ele><time>2026-04-19T08:38:11.055Z</time></trkpt><trkpt lat="44.731265" lon="9.7617283"><ele>448.0</ele><time>2026-04-19T08:38:12.055Z</time></trkpt><trkpt lat="44.731185" lon="9.7617617"><ele>448.00000000000006</ele><time>2026-04-19T08:38:13.055Z</time></trkpt><trkpt lat="44.7311083" lon="9.7617883"><ele>448.0</ele><time>2026-04-19T08:38:14.053Z</time></trkpt><trkpt lat="44.7310383" lon="9.7618133"><ele>450.2857142857143</ele><time>2026-04-19T08:38:15.056Z</time></trkpt><trkpt lat="44.730975" lon="9.761855"><ele>452.57142857142856</ele><time>2026-04-19T08:38:16.053Z</time></trkpt><trkpt lat="44.73092" lon="9.761905"><ele>454.8571428571429</ele><time>2026-04-19T08:38:17.054Z</time></trkpt><trkpt lat="44.730855" lon="9.761955"><ele>457.14285714285717</ele><time>2026-04-19T08:38:18.054Z</time></trkpt><trkpt lat="44.73078" lon="9.7620083"><ele>459.42857142857144</ele><time>2026-04-19T08:38:19.055Z</time></trkpt><trkpt lat="44.7307083" lon="9.7620633"><ele>461.7142857142858</ele><time>2026-04-19T08:38:20.055Z</time></trkpt><trkpt lat="44.7306467" lon="9.7621167"><ele>464.00000000000006</ele><time>2026-04-19T08:38:21.053Z</time></trkpt><trkpt lat="44.7305933" lon="9.7621683"><ele>465.66666666666663</ele><time>2026-04-19T08:38:22.054Z</time></trkpt><trkpt lat="44.7305333" lon="9.7622067"><ele>467.3333333333333</ele><time>2026-04-19T08:38:23.053Z</time></trkpt><trkpt lat="44.730455" lon="9.762225"><ele>469.0</ele><time>2026-04-19T08:38:24.055Z</time></trkpt><trkpt lat="44.7303567" lon="9.7622367"><ele>470.66666666666663</ele><time>2026-04-19T08:38:25.054Z</time></trkpt><trkpt lat="44.73027" lon="9.7622417"><ele>472.3333333333333</ele><time>2026-04-19T08:38:26.053Z</time></trkpt><trkpt lat="44.7301767" lon="9.7622383"><ele>474.0</ele><time>2026-04-19T08:38:28.053Z</time></trkpt><trkpt lat="44.7301167" lon="9.7621217"><ele>474.79999999999995</ele><time>2026-04-19T08:38:31.055Z</time></trkpt><trkpt lat="44.7300883" lon="9.7620317"><ele>475.59999999999997</ele><time>2026-04-19T08:38:32.054Z</time></trkpt><trkpt lat="44.7300233" lon="9.7618767"><ele>476.4</ele><time>2026-04-19T08:38:33.053Z</time></trkpt><trkpt lat="44.7299517" lon="9.7617333"><ele>477.2</ele><time>2026-04-19T08:38:34.052Z</time></trkpt><trkpt lat="44.7298967" lon="9.7616117"><ele>478.0</ele><time>2026-04-19T08:38:35.053Z</time></trkpt><trkpt lat="44.7298683" lon="9.7614917"><ele>478.0</ele><time>2026-04-19T08:38:36.055Z</time></trkpt><trkpt lat="44.7298667" lon="9.7613567"><ele>477.99999999999994</ele><time>2026-04-19T08:38:37.054Z</time></trkpt><trkpt lat="44.729895" lon="9.761225"><ele>477.99999999999994</ele><time>2026-04-19T08:38:38.053Z</time></trkpt><trkpt lat="44.72995" lon="9.7611033"><ele>478.0</ele><time>2026-04-19T08:38:39.054Z</time></trkpt><trkpt lat="44.7300267" lon="9.76102"><ele>478.0</ele><time>2026-04-19T08:38:40.053Z</time></trkpt><trkpt lat="44.7301067" lon="9.7609717"><ele>477.5</ele><time>2026-04-19T08:38:41.053Z</time></trkpt><trkpt lat="44.730205" lon="9.7609533"><ele>477.0</ele><time>2026-04-19T08:38:42.054Z</time></trkpt><trkpt lat="44.73032" lon="9.76096"><ele>476.5</ele><time>2026-04-19T08:38:43.052Z</time></trkpt><trkpt lat="44.7304567" lon="9.7609567"><ele>476.0</ele><time>2026-04-19T08:38:44.055Z</time></trkpt><trkpt lat="44.7306117" lon="9.760935"><ele>472.25</ele><time>2026-04-19T08:38:45.054Z</time></trkpt><trkpt lat="44.7307717" lon="9.7609183"><ele>468.5</ele><time>2026-04-19T08:38:46.053Z</time></trkpt><trkpt lat="44.7309233" lon="9.7609117"><ele>464.75</ele><time>2026-04-19T08:38:47.053Z</time></trkpt><trkpt lat="44.731055" lon="9.76091"><ele>461.0</ele><time>2026-04-19T08:38:48.053Z</time></trkpt><trkpt lat="44.7311767" lon="9.760875"><ele>457.25</ele><time>2026-04-19T08:38:49.055Z</time></trkpt><trkpt lat="44.7312933" lon="9.76081"><ele>453.5</ele><time>2026-04-19T08:38:50.054Z</time></trkpt><trkpt lat="44.7314017" lon="9.7607417"><ele>449.75</ele><time>2026-04-19T08:38:51.054Z</time></trkpt><trkpt lat="44.7315067" lon="9.760675"><ele>446.0</ele><time>2026-04-19T08:38:52.054Z</time></trkpt><trkpt lat="44.7316133" lon="9.7605983"><ele>446.0</ele><time>2026-04-19T08:38:53.054Z</time></trkpt><trkpt lat="44.731715" lon="9.760505"><ele>446.0</ele><time>2026-04-19T08:38:54.054Z</time></trkpt><trkpt lat="44.7318067" lon="9.7603917"><ele>446.0</ele><time>2026-04-19T08:38:55.055Z</time></trkpt><trkpt lat="44.73189" lon="9.7602633"><ele>446.0</ele><time>2026-04-19T08:38:56.054Z</time></trkpt><trkpt lat="44.7319617" lon="9.76013"><ele>442.0</ele><time>2026-04-19T08:38:57.055Z</time></trkpt><trkpt lat="44.732035" lon="9.7599983"><ele>438.0</ele><time>2026-04-19T08:38:58.055Z</time></trkpt><trkpt lat="44.7321033" lon="9.7598617"><ele>434.0</ele><time>2026-04-19T08:38:59.053Z</time></trkpt><trkpt lat="44.732155" lon="9.759715"><ele>430.0</ele><time>2026-04-19T08:39:00.053Z</time></trkpt><trkpt lat="44.7321883" lon="9.7595567"><ele>430.0</ele><time>2026-04-19T08:39:01.054Z</time></trkpt><trkpt lat="44.7322033" lon="9.7593933"><ele>430.0</ele><time>2026-04-19T08:39:02.053Z</time></trkpt><trkpt lat="44.732205" lon="9.75923"><ele>430.0</ele><time>2026-04-19T08:39:03.053Z</time></trkpt><trkpt lat="44.7322017" lon="9.7590667"><ele>430.0</ele><time>2026-04-19T08:39:04.053Z</time></trkpt><trkpt lat="44.7321967" lon="9.758905"><ele>429.5</ele><time>2026-04-19T08:39:05.054Z</time></trkpt><trkpt lat="44.7321883" lon="9.758735"><ele>429.0</ele><time>2026-04-19T08:39:06.053Z</time></trkpt><trkpt lat="44.7321783" lon="9.75856"><ele>428.5</ele><time>2026-04-19T08:39:07.053Z</time></trkpt><trkpt lat="44.73217" lon="9.758385"><ele>428.0</ele><time>2026-04-19T08:39:08.053Z</time></trkpt><trkpt lat="44.7321583" lon="9.758205"><ele>426.25</ele><time>2026-04-19T08:39:09.054Z</time></trkpt><trkpt lat="44.7321483" lon="9.7580267"><ele>424.5</ele><time>2026-04-19T08:39:10.053Z</time></trkpt><trkpt lat="44.7321333" lon="9.7578483"><ele>422.75</ele><time>2026-04-19T08:39:11.054Z</time></trkpt><trkpt lat="44.7321183" lon="9.7576733"><ele>421.0</ele><time>2026-04-19T08:39:12.055Z</time></trkpt><trkpt lat="44.7321033" lon="9.757495"><ele>419.0</ele><time>2026-04-19T08:39:13.054Z</time></trkpt><trkpt lat="44.732095" lon="9.75732"><ele>417.0</ele><time>2026-04-19T08:39:14.054Z</time></trkpt><trkpt lat="44.7320817" lon="9.7571467"><ele>415.0</ele><time>2026-04-19T08:39:15.053Z</time></trkpt><trkpt lat="44.7320617" lon="9.7569783"><ele>413.0</ele><time>2026-04-19T08:39:16.054Z</time></trkpt><trkpt lat="44.732035" lon="9.7568117"><ele>414.5</ele><time>2026-04-19T08:39:17.054Z</time></trkpt><trkpt lat="44.7319833" lon="9.7566583"><ele>416.0</ele><time>2026-04-19T08:39:18.055Z</time></trkpt><trkpt lat="44.7319067" lon="9.7565183"><ele>417.5</ele><time>2026-04-19T08:39:19.054Z</time></trkpt><trkpt lat="44.73182" lon="9.75639"><ele>419.0</ele><time>2026-04-19T08:39:20.055Z</time></trkpt><trkpt lat="44.7317317" lon="9.7562733"><ele>419.0</ele><time>2026-04-19T08:39:21.053Z</time></trkpt><trkpt lat="44.731635" lon="9.7561783"><ele>419.0</ele><time>2026-04-19T08:39:22.054Z</time></trkpt><trkpt lat="44.731525" lon="9.7561067"><ele>419.0</ele><time>2026-04-19T08:39:23.053Z</time></trkpt><trkpt lat="44.731405" lon="9.7560583"><ele>419.0</ele><time>2026-04-19T08:39:24.055Z</time></trkpt><trkpt lat="44.7312883" lon="9.756005"><ele>417.5</ele><time>2026-04-19T08:39:25.053Z</time></trkpt><trkpt lat="44.7311733" lon="9.7559233"><ele>416.0</ele><time>2026-04-19T08:39:26.054Z</time></trkpt><trkpt lat="44.7310683" lon="9.755805"><ele>414.5</ele><time>2026-04-19T08:39:27.053Z</time></trkpt><trkpt lat="44.73097" lon="9.75566"><ele>413.0</ele><time>2026-04-19T08:39:28.054Z</time></trkpt><trkpt lat="44.730875" lon="9.7555"><ele>413.0</ele><time>2026-04-19T08:39:29.053Z</time></trkpt><trkpt lat="44.730785" lon="9.7553367"><ele>413.0</ele><time>2026-04-19T08:39:30.054Z</time></trkpt><trkpt lat="44.7307" lon="9.7551883"><ele>413.0</ele><time>2026-04-19T08:39:31.054Z</time></trkpt><trkpt lat="44.730615" lon="9.7550433"><ele>413.0</ele><time>2026-04-19T08:39:32.053Z</time></trkpt><trkpt lat="44.73053" lon="9.7549083"><ele>408.75</ele><time>2026-04-19T08:39:33.053Z</time></trkpt><trkpt lat="44.7304567" lon="9.7547767"><ele>404.5</ele><time>2026-04-19T08:39:34.054Z</time></trkpt><trkpt lat="44.730385" lon="9.7546533"><ele>400.25</ele><time>2026-04-19T08:39:35.054Z</time></trkpt><trkpt lat="44.73032" lon="9.7545183"><ele>396.0</ele><time>2026-04-19T08:39:36.054Z</time></trkpt><trkpt lat="44.73026" lon="9.754375"><ele>398.0</ele><time>2026-04-19T08:39:37.053Z</time></trkpt><trkpt lat="44.7302067" lon="9.7542267"><ele>400.0</ele><time>2026-04-19T08:39:38.054Z</time></trkpt><trkpt lat="44.7301567" lon="9.7540833"><ele>402.0</ele><time>2026-04-19T08:39:39.054Z</time></trkpt><trkpt lat="44.7301083" lon="9.75396"><ele>404.0</ele><time>2026-04-19T08:39:40.054Z</time></trkpt><trkpt lat="44.730065" lon="9.753855"><ele>406.0</ele><time>2026-04-19T08:39:41.053Z</time></trkpt><trkpt lat="44.73003" lon="9.7537667"><ele>406.0</ele><time>2026-04-19T08:39:42.052Z</time></trkpt><trkpt lat="44.7299917" lon="9.7536883"><ele>406.0</ele><time>2026-04-19T08:39:43.054Z</time></trkpt><trkpt lat="44.7299317" lon="9.7535683"><ele>406.0</ele><time>2026-04-19T08:39:45.054Z</time></trkpt><trkpt lat="44.7298917" lon="9.7537"><ele>406.0</ele><time>2026-04-19T08:39:49.054Z</time></trkpt><trkpt lat="44.729855" lon="9.7538417"><ele>406.0</ele><time>2026-04-19T08:39:51.055Z</time></trkpt><trkpt lat="44.7297833" lon="9.7539233"><ele>406.00000000000006</ele><time>2026-04-19T08:39:53.053Z</time></trkpt><trkpt lat="44.7296933" lon="9.753865"><ele>406.0</ele><time>2026-04-19T08:39:55.054Z</time></trkpt><trkpt lat="44.7296483" lon="9.7537967"><ele>406.0</ele><time>2026-04-19T08:39:56.055Z</time></trkpt><trkpt lat="44.7296067" lon="9.7537167"><ele>406.0</ele><time>2026-04-19T08:39:57.054Z</time></trkpt><trkpt lat="44.7295667" lon="9.7536333"><ele>406.00000000000006</ele><time>2026-04-19T08:39:58.055Z</time></trkpt><trkpt lat="44.72947" lon="9.753555"><ele>406.0</ele><time>2026-04-19T08:40:00.054Z</time></trkpt><trkpt lat="44.7293633" lon="9.7534983"><ele>408.33333333333337</ele><time>2026-04-19T08:40:02.055Z</time></trkpt><trkpt lat="44.7293017" lon="9.7534733"><ele>410.6666666666667</ele><time>2026-04-19T08:40:03.054Z</time></trkpt><trkpt lat="44.7292233" lon="9.7534567"><ele>413.0</ele><time>2026-04-19T08:40:04.053Z</time></trkpt><trkpt lat="44.7291567" lon="9.75344"><ele>415.33333333333337</ele><time>2026-04-19T08:40:05.053Z</time></trkpt><trkpt lat="44.729065" lon="9.7534167"><ele>417.6666666666667</ele><time>2026-04-19T08:40:07.054Z</time></trkpt><trkpt lat="44.7289683" lon="9.753385"><ele>420.0</ele><time>2026-04-19T08:40:09.052Z</time></trkpt><trkpt lat="44.7288533" lon="9.7533217"><ele>420.0</ele><time>2026-04-19T08:40:11.053Z</time></trkpt><trkpt lat="44.72879" lon="9.7532583"><ele>420.0</ele><time>2026-04-19T08:40:12.055Z</time></trkpt><trkpt lat="44.7287283" lon="9.7531983"><ele>420.0</ele><time>2026-04-19T08:40:13.054Z</time></trkpt><trkpt lat="44.7286683" lon="9.7531433"><ele>420.0</ele><time>2026-04-19T08:40:14.055Z</time></trkpt><trkpt lat="44.7286167" lon="9.7530817"><ele>420.0</ele><time>2026-04-19T08:40:15.055Z</time></trkpt><trkpt lat="44.7285467" lon="9.7529467"><ele>420.0</ele><time>2026-04-19T08:40:17.054Z</time></trkpt><trkpt lat="44.7284783" lon="9.7528417"><ele>423.8</ele><time>2026-04-19T08:40:19.053Z</time></trkpt><trkpt lat="44.7283883" lon="9.7527183"><ele>427.6</ele><time>2026-04-19T08:40:21.053Z</time></trkpt><trkpt lat="44.7283367" lon="9.7526533"><ele>431.4</ele><time>2026-04-19T08:40:22.055Z</time></trkpt><trkpt lat="44.7282867" lon="9.752595"><ele>435.2</ele><time>2026-04-19T08:40:23.053Z</time></trkpt><trkpt lat="44.7281883" lon="9.75252"><ele>439.0</ele><time>2026-04-19T08:40:25.053Z</time></trkpt><trkpt lat="44.7280933" lon="9.7524883"><ele>439.0</ele><time>2026-04-19T08:40:27.054Z</time></trkpt><trkpt lat="44.7279933" lon="9.7525417"><ele>439.0</ele><time>2026-04-19T08:40:29.053Z</time></trkpt><trkpt lat="44.7279133" lon="9.7526267"><ele>439.0</ele><time>2026-04-19T08:40:31.054Z</time></trkpt><trkpt lat="44.727845" lon="9.7527017"><ele>439.0</ele><time>2026-04-19T08:40:33.053Z</time></trkpt><trkpt lat="44.7277718" lon="9.752801"><ele>439.0</ele><time>2026-04-19T08:41:08.124Z</time></trkpt><trkpt lat="44.7276467" lon="9.7529097"><ele>444.1666666666667</ele><time>2026-04-19T08:41:13.146Z</time></trkpt><trkpt lat="44.7275898" lon="9.7529617"><ele>449.33333333333337</ele><time>2026-04-19T08:41:14.054Z</time></trkpt><trkpt lat="44.7275294" lon="9.753012"><ele>454.5</ele><time>2026-04-19T08:41:15.053Z</time></trkpt><trkpt lat="44.7274339" lon="9.7530947"><ele>459.66666666666663</ele><time>2026-04-19T08:41:17.055Z</time></trkpt><trkpt lat="44.7273599" lon="9.7531535"><ele>464.8333333333333</ele><time>2026-04-19T08:41:19.054Z</time></trkpt><trkpt lat="44.7272734" lon="9.7531902"><ele>470.0</ele><time>2026-04-19T08:41:21.055Z</time></trkpt><trkpt lat="44.727185" lon="9.7532051"><ele>469.99999999999994</ele><time>2026-04-19T08:41:23.056Z</time></trkpt><trkpt lat="44.7270884" lon="9.7532188"><ele>470.0</ele><time>2026-04-19T08:41:25.054Z</time></trkpt><trkpt lat="44.7270166" lon="9.7532292"><ele>470.0</ele><time>2026-04-19T08:41:27.053Z</time></trkpt><trkpt lat="44.7269447" lon="9.7531475"><ele>470.0</ele><time>2026-04-19T08:41:30.053Z</time></trkpt><trkpt lat="44.7268936" lon="9.7530819"><ele>469.99999999999994</ele><time>2026-04-19T08:41:32.055Z</time></trkpt><trkpt lat="44.7268123" lon="9.7530886"><ele>470.0</ele><time>2026-04-19T08:41:34.054Z</time></trkpt><trkpt lat="44.7267317" lon="9.753135"><ele>472.3333333333333</ele><time>2026-04-19T08:41:36.055Z</time></trkpt><trkpt lat="44.7266883" lon="9.7532117"><ele>474.66666666666663</ele><time>2026-04-19T08:41:38.056Z</time></trkpt><trkpt lat="44.72664" lon="9.753295"><ele>477.0</ele><time>2026-04-19T08:41:52.054Z</time></trkpt><trkpt lat="44.7266283" lon="9.7533967"><ele>479.33333333333337</ele><time>2026-04-19T08:41:54.056Z</time></trkpt><trkpt lat="44.7266017" lon="9.7535367"><ele>481.6666666666667</ele><time>2026-04-19T08:41:56.054Z</time></trkpt><trkpt lat="44.7265617" lon="9.753635"><ele>484.0</ele><time>2026-04-19T08:41:58.054Z</time></trkpt><trkpt lat="44.7264775" lon="9.7537316"><ele>485.33333333333337</ele><time>2026-04-19T08:42:02.054Z</time></trkpt><trkpt lat="44.7264215" lon="9.7537919"><ele>486.6666666666667</ele><time>2026-04-19T08:42:03.054Z</time></trkpt><trkpt lat="44.7263685" lon="9.7538523"><ele>488.0</ele><time>2026-04-19T08:42:04.054Z</time></trkpt><trkpt lat="44.7262797" lon="9.7539502"><ele>489.33333333333337</ele><time>2026-04-19T08:42:06.055Z</time></trkpt><trkpt lat="44.7261898" lon="9.7540133"><ele>490.6666666666667</ele><time>2026-04-19T08:42:08.055Z</time></trkpt><trkpt lat="44.72611" lon="9.7540311"><ele>492.0</ele><time>2026-04-19T08:42:11.055Z</time></trkpt><trkpt lat="44.7260497" lon="9.7539415"><ele>492.40000000000003</ele><time>2026-04-19T08:42:24.054Z</time></trkpt><trkpt lat="44.7260249" lon="9.7538235"><ele>492.80000000000007</ele><time>2026-04-19T08:42:26.054Z</time></trkpt><trkpt lat="44.7259755" lon="9.7537135"><ele>493.2</ele><time>2026-04-19T08:42:28.054Z</time></trkpt><trkpt lat="44.7259219" lon="9.7536254"><ele>493.6</ele><time>2026-04-19T08:42:30.054Z</time></trkpt><trkpt lat="44.725859" lon="9.7535533"><ele>494.0</ele><time>2026-04-19T08:42:32.055Z</time></trkpt><trkpt lat="44.7257499" lon="9.7534822"><ele>493.99999999999994</ele><time>2026-04-19T08:42:34.054Z</time></trkpt><trkpt lat="44.7256379" lon="9.7534445"><ele>494.0</ele><time>2026-04-19T08:42:36.055Z</time></trkpt><trkpt lat="44.7255583" lon="9.753456"><ele>494.0</ele><time>2026-04-19T08:42:38.054Z</time></trkpt><trkpt lat="44.7254904" lon="9.7534467"><ele>494.0</ele><time>2026-04-19T08:42:41.055Z</time></trkpt><trkpt lat="44.7254257" lon="9.7534442"><ele>493.99999999999994</ele><time>2026-04-19T08:42:43.055Z</time></trkpt><trkpt lat="44.72535" lon="9.7534314"><ele>494.0</ele><time>2026-04-19T08:42:45.054Z</time></trkpt><trkpt lat="44.7252532" lon="9.7534267"><ele>495.49999999999994</ele><time>2026-04-19T08:42:47.054Z</time></trkpt><trkpt lat="44.7251549" lon="9.7534758"><ele>497.0</ele><time>2026-04-19T08:42:49.055Z</time></trkpt><trkpt lat="44.725095" lon="9.7535243"><ele>498.5</ele><time>2026-04-19T08:42:50.054Z</time></trkpt><trkpt lat="44.7250245" lon="9.7536019"><ele>500.0</ele><time>2026-04-19T08:42:51.054Z</time></trkpt><trkpt lat="44.7249526" lon="9.7536873"><ele>501.49999999999994</ele><time>2026-04-19T08:42:52.052Z</time></trkpt><trkpt lat="44.7248903" lon="9.7537763"><ele>503.0</ele><time>2026-04-19T08:42:53.056Z</time></trkpt><trkpt lat="44.7248397" lon="9.753862"><ele>504.49999999999994</ele><time>2026-04-19T08:42:54.054Z</time></trkpt><trkpt lat="44.7248069" lon="9.7539449"><ele>506.0</ele><time>2026-04-19T08:42:55.054Z</time></trkpt><trkpt lat="44.7247909" lon="9.7540315"><ele>507.5</ele><time>2026-04-19T08:42:56.053Z</time></trkpt><trkpt lat="44.7247487" lon="9.7541905"><ele>509.0</ele><time>2026-04-19T08:42:58.055Z</time></trkpt><trkpt lat="44.7246873" lon="9.7543324"><ele>510.49999999999994</ele><time>2026-04-19T08:43:00.055Z</time></trkpt><trkpt lat="44.724657" lon="9.7544154"><ele>512.0</ele><time>2026-04-19T08:43:01.056Z</time></trkpt><trkpt lat="44.7246363" lon="9.7545005"><ele>514.6</ele><time>2026-04-19T08:43:02.055Z</time></trkpt><trkpt lat="44.7246195" lon="9.7546327"><ele>517.2</ele><time>2026-04-19T08:43:04.054Z</time></trkpt><trkpt lat="44.7246164" lon="9.7547325"><ele>519.8</ele><time>2026-04-19T08:43:18.055Z</time></trkpt><trkpt lat="44.7246295" lon="9.7548648"><ele>522.4</ele><time>2026-04-19T08:43:20.055Z</time></trkpt><trkpt lat="44.7246089" lon="9.7550399"><ele>525.0</ele><time>2026-04-19T08:43:22.054Z</time></trkpt><trkpt lat="44.7245956" lon="9.7551452"><ele>526.1666666666666</ele><time>2026-04-19T08:43:23.055Z</time></trkpt><trkpt lat="44.7245887" lon="9.7552536"><ele>527.3333333333334</ele><time>2026-04-19T08:43:24.054Z</time></trkpt><trkpt lat="44.7245867" lon="9.7553497"><ele>528.5</ele><time>2026-04-19T08:43:25.055Z</time></trkpt><trkpt lat="44.7246142" lon="9.7554947"><ele>529.6666666666667</ele><time>2026-04-19T08:43:27.054Z</time></trkpt><trkpt lat="44.7246801" lon="9.7556187"><ele>530.8333333333334</ele><time>2026-04-19T08:43:29.055Z</time></trkpt><trkpt lat="44.7247286" lon="9.7556857"><ele>532.0</ele><time>2026-04-19T08:43:30.053Z</time></trkpt><trkpt lat="44.7247853" lon="9.7557519"><ele>532.0</ele><time>2026-04-19T08:43:31.055Z</time></trkpt><trkpt lat="44.724845" lon="9.7558151"><ele>532.0</ele><time>2026-04-19T08:43:32.055Z</time></trkpt><trkpt lat="44.7249047" lon="9.7558698"><ele>532.0</ele><time>2026-04-19T08:43:33.053Z</time></trkpt><trkpt lat="44.724959" lon="9.7559188"><ele>532.0</ele><time>2026-04-19T08:43:34.055Z</time></trkpt><trkpt lat="44.7250123" lon="9.755971"><ele>532.0</ele><time>2026-04-19T08:43:35.054Z</time></trkpt><trkpt lat="44.7250794" lon="9.7560901"><ele>532.0</ele><time>2026-04-19T08:43:37.055Z</time></trkpt><trkpt lat="44.7251074" lon="9.756228"><ele>531.8000000000001</ele><time>2026-04-19T08:43:39.054Z</time></trkpt><trkpt lat="44.7251314" lon="9.7563809"><ele>531.6</ele><time>2026-04-19T08:43:41.055Z</time></trkpt><trkpt lat="44.7251583" lon="9.7565247"><ele>531.4000000000001</ele><time>2026-04-19T08:43:43.054Z</time></trkpt><trkpt lat="44.7251874" lon="9.7566418"><ele>531.2</ele><time>2026-04-19T08:43:45.055Z</time></trkpt><trkpt lat="44.7252467" lon="9.7567667"><ele>531.0</ele><time>2026-04-19T08:43:47.055Z</time></trkpt><trkpt lat="44.7253183" lon="9.75691"><ele>531.0</ele><time>2026-04-19T08:43:49.054Z</time></trkpt><trkpt lat="44.7253733" lon="9.7570117"><ele>531.0</ele><time>2026-04-19T08:43:51.054Z</time></trkpt><trkpt lat="44.7254233" lon="9.7571267"><ele>531.0</ele><time>2026-04-19T08:43:53.054Z</time></trkpt><trkpt lat="44.725495" lon="9.7572617"><ele>531.0</ele><time>2026-04-19T08:43:55.056Z</time></trkpt><trkpt lat="44.725555" lon="9.75739"><ele>531.0</ele><time>2026-04-19T08:43:57.054Z</time></trkpt><trkpt lat="44.725615" lon="9.7575267"><ele>531.0</ele><time>2026-04-19T08:43:59.056Z</time></trkpt><trkpt lat="44.7256617" lon="9.757695"><ele>531.0</ele><time>2026-04-19T08:44:01.054Z</time></trkpt><trkpt lat="44.72569" lon="9.757785"><ele>531.0</ele><time>2026-04-19T08:44:02.055Z</time></trkpt><trkpt lat="44.725745" lon="9.7579083"><ele>531.0</ele><time>2026-04-19T08:44:04.055Z</time></trkpt><trkpt lat="44.7257883" lon="9.75802"><ele>531.0</ele><time>2026-04-19T08:44:06.056Z</time></trkpt><trkpt lat="44.7258567" lon="9.758155"><ele>531.8</ele><time>2026-04-19T08:44:08.054Z</time></trkpt><trkpt lat="44.7259333" lon="9.7582883"><ele>532.6</ele><time>2026-04-19T08:44:10.055Z</time></trkpt><trkpt lat="44.72601" lon="9.7583767"><ele>533.4</ele><time>2026-04-19T08:44:12.054Z</time></trkpt><trkpt lat="44.7261" lon="9.758445"><ele>534.2</ele><time>2026-04-19T08:44:14.055Z</time></trkpt><trkpt lat="44.72619" lon="9.7585533"><ele>535.0</ele><time>2026-04-19T08:44:16.054Z</time></trkpt><trkpt lat="44.7262833" lon="9.7586317"><ele>536.1428571428571</ele><time>2026-04-19T08:44:18.055Z</time></trkpt><trkpt lat="44.7263483" lon="9.758645"><ele>537.2857142857143</ele><time>2026-04-19T08:44:19.055Z</time></trkpt><trkpt lat="44.726415" lon="9.75866"><ele>538.4285714285714</ele><time>2026-04-19T08:44:20.055Z</time></trkpt><trkpt lat="44.7264817" lon="9.75867"><ele>539.5714285714286</ele><time>2026-04-19T08:44:21.054Z</time></trkpt><trkpt lat="44.7265433" lon="9.7586933"><ele>540.7142857142857</ele><time>2026-04-19T08:44:22.055Z</time></trkpt><trkpt lat="44.7266067" lon="9.758765"><ele>541.8571428571429</ele><time>2026-04-19T08:44:24.053Z</time></trkpt><trkpt lat="44.7266217" lon="9.7588533"><ele>543.0</ele><time>2026-04-19T08:44:27.053Z</time></trkpt><trkpt lat="44.72662" lon="9.7589833"><ele>543.0</ele><time>2026-04-19T08:44:29.054Z</time></trkpt><trkpt lat="44.7266167" lon="9.7591367"><ele>543.0</ele><time>2026-04-19T08:44:31.056Z</time></trkpt><trkpt lat="44.726625" lon="9.7592783"><ele>543.0</ele><time>2026-04-19T08:44:33.053Z</time></trkpt><trkpt lat="44.726605" lon="9.7593733"><ele>543.0</ele><time>2026-04-19T08:44:36.054Z</time></trkpt><trkpt lat="44.7265683" lon="9.7594867"><ele>543.0</ele><time>2026-04-19T08:44:42.053Z</time></trkpt><trkpt lat="44.7265533" lon="9.7596167"><ele>541.8333333333334</ele><time>2026-04-19T08:44:44.054Z</time></trkpt><trkpt lat="44.726535" lon="9.7597317"><ele>540.6666666666666</ele><time>2026-04-19T08:44:46.053Z</time></trkpt><trkpt lat="44.726515" lon="9.759845"><ele>539.5</ele><time>2026-04-19T08:44:49.054Z</time></trkpt><trkpt lat="44.7265017" lon="9.7599517"><ele>538.3333333333333</ele><time>2026-04-19T08:44:52.054Z</time></trkpt><trkpt lat="44.7264867" lon="9.76005"><ele>537.1666666666666</ele><time>2026-04-19T08:44:56.053Z</time></trkpt><trkpt lat="44.726465" lon="9.7601517"><ele>536.0</ele><time>2026-04-19T08:45:00.053Z</time></trkpt><trkpt lat="44.7264933" lon="9.7603567"><ele>535.1666666666666</ele><time>2026-04-19T08:45:14.054Z</time></trkpt><trkpt lat="44.7264733" lon="9.7604417"><ele>534.3333333333333</ele><time>2026-04-19T08:45:21.054Z</time></trkpt><trkpt lat="44.7264617" lon="9.7605667"><ele>533.5</ele><time>2026-04-19T08:45:31.053Z</time></trkpt><trkpt lat="44.7264117" lon="9.7606917"><ele>532.6666666666666</ele><time>2026-04-19T08:45:38.055Z</time></trkpt><trkpt lat="44.726375" lon="9.7607733"><ele>531.8333333333334</ele><time>2026-04-19T08:45:40.054Z</time></trkpt><trkpt lat="44.72632" lon="9.7608333"><ele>531.0</ele><time>2026-04-19T08:45:42.052Z</time></trkpt><trkpt lat="44.726235" lon="9.7608633"><ele>531.0</ele><time>2026-04-19T08:45:44.054Z</time></trkpt><trkpt lat="44.7261317" lon="9.7609517"><ele>531.0</ele><time>2026-04-19T08:45:46.054Z</time></trkpt><trkpt lat="44.72607" lon="9.76101"><ele>531.0</ele><time>2026-04-19T08:45:47.055Z</time></trkpt><trkpt lat="44.7260067" lon="9.7610533"><ele>531.0</ele><time>2026-04-19T08:45:48.055Z</time></trkpt><trkpt lat="44.7259417" lon="9.761085"><ele>531.0</ele><time>2026-04-19T08:45:49.054Z</time></trkpt><trkpt lat="44.7258483" lon="9.761115"><ele>531.0</ele><time>2026-04-19T08:45:51.055Z</time></trkpt><trkpt lat="44.725875" lon="9.7612133"><ele>531.8333333333334</ele><time>2026-04-19T08:46:03.053Z</time></trkpt><trkpt lat="44.7259033" lon="9.76131"><ele>532.6666666666666</ele><time>2026-04-19T08:46:09.055Z</time></trkpt><trkpt lat="44.7259317" lon="9.7613917"><ele>533.5</ele><time>2026-04-19T08:46:17.054Z</time></trkpt><trkpt lat="44.7260217" lon="9.76142"><ele>534.3333333333333</ele><time>2026-04-19T08:47:00.054Z</time></trkpt><trkpt lat="44.7261167" lon="9.761495"><ele>535.1666666666666</ele><time>2026-04-19T08:47:02.056Z</time></trkpt><trkpt lat="44.7261683" lon="9.7615517"><ele>536.0</ele><time>2026-04-19T08:47:03.053Z</time></trkpt><trkpt lat="44.7262183" lon="9.7616267"><ele>536.0</ele><time>2026-04-19T08:47:04.054Z</time></trkpt><trkpt lat="44.726265" lon="9.7617167"><ele>536.0</ele><time>2026-04-19T08:47:05.055Z</time></trkpt><trkpt lat="44.7263033" lon="9.761815"><ele>536.0</ele><time>2026-04-19T08:47:06.054Z</time></trkpt><trkpt lat="44.7263417" lon="9.7619083"><ele>536.0</ele><time>2026-04-19T08:47:07.055Z</time></trkpt><trkpt lat="44.7263817" lon="9.7620017"><ele>536.0</ele><time>2026-04-19T08:47:08.055Z</time></trkpt><trkpt lat="44.72642" lon="9.7620883"><ele>536.0</ele><time>2026-04-19T08:47:09.054Z</time></trkpt><trkpt lat="44.7264583" lon="9.7621767"><ele>536.0</ele><time>2026-04-19T08:47:10.053Z</time></trkpt><trkpt lat="44.726505" lon="9.76227"><ele>536.0</ele><time>2026-04-19T08:47:11.054Z</time></trkpt><trkpt lat="44.72654" lon="9.7623617"><ele>536.0</ele><time>2026-04-19T08:47:12.054Z</time></trkpt><trkpt lat="44.7265667" lon="9.7624433"><ele>536.0</ele><time>2026-04-19T08:47:13.053Z</time></trkpt><trkpt lat="44.7265983" lon="9.7626017"><ele>536.0</ele><time>2026-04-19T08:47:15.055Z</time></trkpt><trkpt lat="44.7266067" lon="9.7627467"><ele>536.0</ele><time>2026-04-19T08:47:17.055Z</time></trkpt><trkpt lat="44.726625" lon="9.7628383"><ele>535.6666666666666</ele><time>2026-04-19T08:47:19.055Z</time></trkpt><trkpt lat="44.7266817" lon="9.7628967"><ele>535.3333333333333</ele><time>2026-04-19T08:47:24.054Z</time></trkpt><trkpt lat="44.7267567" lon="9.76296"><ele>535.0</ele><time>2026-04-19T08:47:27.054Z</time></trkpt><trkpt lat="44.72682" lon="9.76302"><ele>534.6666666666666</ele><time>2026-04-19T08:47:29.053Z</time></trkpt><trkpt lat="44.7269117" lon="9.7630767"><ele>534.3333333333334</ele><time>2026-04-19T08:47:31.054Z</time></trkpt><trkpt lat="44.7269817" lon="9.7630983"><ele>534.0</ele><time>2026-04-19T08:47:32.053Z</time></trkpt><trkpt lat="44.7270683" lon="9.76312"><ele>534.0</ele><time>2026-04-19T08:47:33.053Z</time></trkpt><trkpt lat="44.72716" lon="9.7631683"><ele>534.0</ele><time>2026-04-19T08:47:34.053Z</time></trkpt><trkpt lat="44.7272433" lon="9.7632033"><ele>534.0</ele><time>2026-04-19T08:47:35.053Z</time></trkpt><trkpt lat="44.727315" lon="9.7632417"><ele>534.0</ele><time>2026-04-19T08:47:36.053Z</time></trkpt><trkpt lat="44.7273883" lon="9.7632933"><ele>534.0</ele><time>2026-04-19T08:47:37.054Z</time></trkpt><trkpt lat="44.727455" lon="9.7633567"><ele>534.0</ele><time>2026-04-19T08:47:38.055Z</time></trkpt><trkpt lat="44.7275083" lon="9.7634233"><ele>534.0000000000001</ele><time>2026-04-19T08:47:39.054Z</time></trkpt><trkpt lat="44.7275633" lon="9.7634867"><ele>534.0</ele><time>2026-04-19T08:47:40.054Z</time></trkpt><trkpt lat="44.7276133" lon="9.763565"><ele>534.0</ele><time>2026-04-19T08:47:41.053Z</time></trkpt><trkpt lat="44.72766" lon="9.7636467"><ele>534.0</ele><time>2026-04-19T08:47:42.054Z</time></trkpt><trkpt lat="44.727705" lon="9.7637367"><ele>534.0</ele><time>2026-04-19T08:47:43.056Z</time></trkpt><trkpt lat="44.7277433" lon="9.7638267"><ele>534.0000000000001</ele><time>2026-04-19T08:47:44.053Z</time></trkpt><trkpt lat="44.72778" lon="9.7639033"><ele>534.0</ele><time>2026-04-19T08:47:45.054Z</time></trkpt><trkpt lat="44.72787" lon="9.76402"><ele>533.8</ele><time>2026-04-19T08:47:47.054Z</time></trkpt><trkpt lat="44.7279667" lon="9.76413"><ele>533.5999999999999</ele><time>2026-04-19T08:47:49.055Z</time></trkpt><trkpt lat="44.7280117" lon="9.7641967"><ele>533.4</ele><time>2026-04-19T08:47:50.054Z</time></trkpt><trkpt lat="44.72807" lon="9.7643367"><ele>533.1999999999999</ele><time>2026-04-19T08:47:52.054Z</time></trkpt><trkpt lat="44.7280883" lon="9.7644767"><ele>533.0</ele><time>2026-04-19T08:47:54.055Z</time></trkpt><trkpt lat="44.7280333" lon="9.7645633"><ele>533.0</ele><time>2026-04-19T08:47:57.054Z</time></trkpt><trkpt lat="44.7279867" lon="9.76448"><ele>533.0</ele><time>2026-04-19T08:48:00.054Z</time></trkpt><trkpt lat="44.7279617" lon="9.764395"><ele>533.0</ele><time>2026-04-19T08:48:01.053Z</time></trkpt><trkpt lat="44.72792" lon="9.7643133"><ele>533.0</ele><time>2026-04-19T08:48:02.054Z</time></trkpt><trkpt lat="44.7278733" lon="9.76423"><ele>533.0</ele><time>2026-04-19T08:48:03.055Z</time></trkpt><trkpt lat="44.727815" lon="9.7641767"><ele>533.0</ele><time>2026-04-19T08:48:04.055Z</time></trkpt><trkpt lat="44.72775" lon="9.764185"><ele>533.0</ele><time>2026-04-19T08:48:05.054Z</time></trkpt><trkpt lat="44.727685" lon="9.7642217"><ele>533.0</ele><time>2026-04-19T08:48:06.054Z</time></trkpt><trkpt lat="44.7276383" lon="9.7643017"><ele>533.0</ele><time>2026-04-19T08:48:07.053Z</time></trkpt><trkpt lat="44.72762" lon="9.764405"><ele>533.0</ele><time>2026-04-19T08:48:08.053Z</time></trkpt><trkpt lat="44.727655" lon="9.7645467"><ele>533.0</ele><time>2026-04-19T08:48:09.054Z</time></trkpt><trkpt lat="44.7277033" lon="9.7646717"><ele>533.0</ele><time>2026-04-19T08:48:10.054Z</time></trkpt><trkpt lat="44.7277717" lon="9.7647867"><ele>533.0</ele><time>2026-04-19T08:48:11.052Z</time></trkpt><trkpt lat="44.7278367" lon="9.7648933"><ele>533.0</ele><time>2026-04-19T08:48:12.052Z</time></trkpt><trkpt lat="44.7279" lon="9.76499"><ele>533.0</ele><time>2026-04-19T08:48:13.055Z</time></trkpt><trkpt lat="44.7279433" lon="9.7650717"><ele>533.0</ele><time>2026-04-19T08:48:14.054Z</time></trkpt><trkpt lat="44.7279717" lon="9.765155"><ele>533.0</ele><time>2026-04-19T08:48:15.056Z</time></trkpt><trkpt lat="44.727915" lon="9.7652783"><ele>533.0</ele><time>2026-04-19T08:48:17.054Z</time></trkpt><trkpt lat="44.7278517" lon="9.7652767"><ele>535.4</ele><time>2026-04-19T08:48:18.056Z</time></trkpt><trkpt lat="44.7277733" lon="9.7652533"><ele>537.8</ele><time>2026-04-19T08:48:19.054Z</time></trkpt><trkpt lat="44.7276767" lon="9.7652367"><ele>540.2</ele><time>2026-04-19T08:48:20.054Z</time></trkpt><trkpt lat="44.7275617" lon="9.76523"><ele>542.6</ele><time>2026-04-19T08:48:21.054Z</time></trkpt><trkpt lat="44.7274483" lon="9.7652133"><ele>545.0</ele><time>2026-04-19T08:48:22.055Z</time></trkpt><trkpt lat="44.72736" lon="9.765165"><ele>545.0</ele><time>2026-04-19T08:48:23.053Z</time></trkpt><trkpt lat="44.7272967" lon="9.7650717"><ele>545.0</ele><time>2026-04-19T08:48:24.053Z</time></trkpt><trkpt lat="44.7272567" lon="9.7649417"><ele>545.0</ele><time>2026-04-19T08:48:25.054Z</time></trkpt><trkpt lat="44.7272417" lon="9.7647867"><ele>545.0</ele><time>2026-04-19T08:48:26.053Z</time></trkpt><trkpt lat="44.7272367" lon="9.764615"><ele>545.0</ele><time>2026-04-19T08:48:27.054Z</time></trkpt><trkpt lat="44.7272267" lon="9.7644567"><ele>544.0</ele><time>2026-04-19T08:48:28.054Z</time></trkpt><trkpt lat="44.7271967" lon="9.7643167"><ele>543.0</ele><time>2026-04-19T08:48:29.053Z</time></trkpt><trkpt lat="44.7271383" lon="9.7642083"><ele>542.0</ele><time>2026-04-19T08:48:30.055Z</time></trkpt><trkpt lat="44.7270617" lon="9.7641317"><ele>541.0</ele><time>2026-04-19T08:48:31.053Z</time></trkpt><trkpt lat="44.72696" lon="9.7640983"><ele>540.0</ele><time>2026-04-19T08:48:32.055Z</time></trkpt><trkpt lat="44.726845" lon="9.7640917"><ele>542.75</ele><time>2026-04-19T08:48:33.053Z</time></trkpt><trkpt lat="44.726725" lon="9.7641083"><ele>545.5</ele><time>2026-04-19T08:48:34.053Z</time></trkpt><trkpt lat="44.7266017" lon="9.764145"><ele>548.25</ele><time>2026-04-19T08:48:35.055Z</time></trkpt><trkpt lat="44.72648" lon="9.76418"><ele>551.0</ele><time>2026-04-19T08:48:36.054Z</time></trkpt><trkpt lat="44.7263583" lon="9.7641933"><ele>551.0</ele><time>2026-04-19T08:48:37.053Z</time></trkpt><trkpt lat="44.7262383" lon="9.7641783"><ele>551.0</ele><time>2026-04-19T08:48:38.055Z</time></trkpt><trkpt lat="44.7261217" lon="9.7641367"><ele>551.0</ele><time>2026-04-19T08:48:39.053Z</time></trkpt><trkpt lat="44.7260117" lon="9.764075"><ele>551.0</ele><time>2026-04-19T08:48:40.054Z</time></trkpt><trkpt lat="44.7259133" lon="9.7640083"><ele>553.5</ele><time>2026-04-19T08:48:41.054Z</time></trkpt><trkpt lat="44.7258183" lon="9.7639283"><ele>556.0</ele><time>2026-04-19T08:48:42.054Z</time></trkpt><trkpt lat="44.7257217" lon="9.76384"><ele>558.5</ele><time>2026-04-19T08:48:43.053Z</time></trkpt><trkpt lat="44.7256283" lon="9.7637517"><ele>561.0</ele><time>2026-04-19T08:48:44.056Z</time></trkpt><trkpt lat="44.72553" lon="9.7636767"><ele>561.0</ele><time>2026-04-19T08:48:45.053Z</time></trkpt><trkpt lat="44.7254233" lon="9.76362"><ele>561.0</ele><time>2026-04-19T08:48:46.053Z</time></trkpt><trkpt lat="44.72531" lon="9.7635917"><ele>561.0</ele><time>2026-04-19T08:48:47.053Z</time></trkpt><trkpt lat="44.725195" lon="9.7635733"><ele>561.0</ele><time>2026-04-19T08:48:48.054Z</time></trkpt><trkpt lat="44.7250783" lon="9.7635583"><ele>562.8</ele><time>2026-04-19T08:48:49.055Z</time></trkpt><trkpt lat="44.724965" lon="9.763545"><ele>564.6</ele><time>2026-04-19T08:48:50.055Z</time></trkpt><trkpt lat="44.7248517" lon="9.7635383"><ele>566.4</ele><time>2026-04-19T08:48:51.055Z</time></trkpt><trkpt lat="44.7247483" lon="9.76355"><ele>568.2</ele><time>2026-04-19T08:48:52.054Z</time></trkpt><trkpt lat="44.724665" lon="9.7635967"><ele>570.0</ele><time>2026-04-19T08:48:53.054Z</time></trkpt><trkpt lat="44.724605" lon="9.7636583"><ele>570.0</ele><time>2026-04-19T08:48:54.054Z</time></trkpt><trkpt lat="44.724615" lon="9.763855"><ele>570.0</ele><time>2026-04-19T08:48:56.055Z</time></trkpt><trkpt lat="44.7246667" lon="9.763965"><ele>570.0</ele><time>2026-04-19T08:48:57.054Z</time></trkpt><trkpt lat="44.7247683" lon="9.7640683"><ele>570.0</ele><time>2026-04-19T08:48:58.053Z</time></trkpt><trkpt lat="44.724885" lon="9.7641633"><ele>570.0</ele><time>2026-04-19T08:48:59.054Z</time></trkpt><trkpt lat="44.7250167" lon="9.7642433"><ele>570.0</ele><time>2026-04-19T08:49:00.054Z</time></trkpt><trkpt lat="44.7251417" lon="9.7643083"><ele>570.0</ele><time>2026-04-19T08:49:01.054Z</time></trkpt><trkpt lat="44.7252567" lon="9.7643883"><ele>570.0</ele><time>2026-04-19T08:49:02.054Z</time></trkpt><trkpt lat="44.7253583" lon="9.7645083"><ele>570.75</ele><time>2026-04-19T08:49:03.054Z</time></trkpt><trkpt lat="44.72545" lon="9.7646583"><ele>571.5</ele><time>2026-04-19T08:49:04.055Z</time></trkpt><trkpt lat="44.7255333" lon="9.76482"><ele>572.25</ele><time>2026-04-19T08:49:05.053Z</time></trkpt><trkpt lat="44.7256167" lon="9.76499"><ele>573.0</ele><time>2026-04-19T08:49:06.054Z</time></trkpt><trkpt lat="44.7256967" lon="9.7651533"><ele>571.5</ele><time>2026-04-19T08:49:07.053Z</time></trkpt><trkpt lat="44.725785" lon="9.7652967"><ele>570.0</ele><time>2026-04-19T08:49:08.054Z</time></trkpt><trkpt lat="44.7258833" lon="9.7654117"><ele>568.5</ele><time>2026-04-19T08:49:09.054Z</time></trkpt><trkpt lat="44.7259883" lon="9.7655117"><ele>567.0</ele><time>2026-04-19T08:49:10.054Z</time></trkpt><trkpt lat="44.7260983" lon="9.7655933"><ele>567.0</ele><time>2026-04-19T08:49:11.053Z</time></trkpt><trkpt lat="44.726195" lon="9.7656767"><ele>567.0</ele><time>2026-04-19T08:49:12.053Z</time></trkpt><trkpt lat="44.72627" lon="9.765775"><ele>567.0</ele><time>2026-04-19T08:49:13.053Z</time></trkpt><trkpt lat="44.7263067" lon="9.7658983"><ele>567.0</ele><time>2026-04-19T08:49:14.054Z</time></trkpt><trkpt lat="44.72632" lon="9.7660433"><ele>567.0</ele><time>2026-04-19T08:49:15.055Z</time></trkpt><trkpt lat="44.7263083" lon="9.7662"><ele>568.4</ele><time>2026-04-19T08:49:16.053Z</time></trkpt><trkpt lat="44.726305" lon="9.7663467"><ele>569.8000000000001</ele><time>2026-04-19T08:49:17.054Z</time></trkpt><trkpt lat="44.7263167" lon="9.7664867"><ele>571.2</ele><time>2026-04-19T08:49:18.053Z</time></trkpt><trkpt lat="44.7263567" lon="9.7666133"><ele>572.6</ele><time>2026-04-19T08:49:19.055Z</time></trkpt><trkpt lat="44.7264183" lon="9.7667217"><ele>574.0</ele><time>2026-04-19T08:49:20.054Z</time></trkpt><trkpt lat="44.7265067" lon="9.7668117"><ele>576.25</ele><time>2026-04-19T08:49:21.054Z</time></trkpt><trkpt lat="44.7266083" lon="9.7668783"><ele>578.5</ele><time>2026-04-19T08:49:22.055Z</time></trkpt><trkpt lat="44.7267133" lon="9.7669367"><ele>580.75</ele><time>2026-04-19T08:49:23.054Z</time></trkpt><trkpt lat="44.7268183" lon="9.7670017"><ele>583.0</ele><time>2026-04-19T08:49:24.053Z</time></trkpt><trkpt lat="44.7269217" lon="9.7670683"><ele>584.8</ele><time>2026-04-19T08:49:25.053Z</time></trkpt><trkpt lat="44.7270217" lon="9.76714"><ele>586.5999999999999</ele><time>2026-04-19T08:49:26.054Z</time></trkpt><trkpt lat="44.7271117" lon="9.7672117"><ele>588.4000000000001</ele><time>2026-04-19T08:49:27.054Z</time></trkpt><trkpt lat="44.7271767" lon="9.7672983"><ele>590.2</ele><time>2026-04-19T08:49:28.053Z</time></trkpt><trkpt lat="44.7272117" lon="9.7674083"><ele>592.0</ele><time>2026-04-19T08:49:29.054Z</time></trkpt><trkpt lat="44.7272233" lon="9.76753"><ele>592.0</ele><time>2026-04-19T08:49:30.054Z</time></trkpt><trkpt lat="44.7272233" lon="9.7676367"><ele>592.0</ele><time>2026-04-19T08:49:31.054Z</time></trkpt><trkpt lat="44.727205" lon="9.7677567"><ele>592.0</ele><time>2026-04-19T08:49:33.054Z</time></trkpt><trkpt lat="44.7271417" lon="9.7678067"><ele>592.0</ele><time>2026-04-19T08:49:36.053Z</time></trkpt><trkpt lat="44.7270333" lon="9.7678283"><ele>592.0</ele><time>2026-04-19T08:49:38.054Z</time></trkpt><trkpt lat="44.7269583" lon="9.7678417"><ele>592.0</ele><time>2026-04-19T08:49:39.054Z</time></trkpt><trkpt lat="44.7268817" lon="9.76785"><ele>589.4</ele><time>2026-04-19T08:49:40.053Z</time></trkpt><trkpt lat="44.726815" lon="9.7678717"><ele>586.8000000000001</ele><time>2026-04-19T08:49:41.053Z</time></trkpt><trkpt lat="44.7267533" lon="9.7679"><ele>584.2</ele><time>2026-04-19T08:49:42.053Z</time></trkpt><trkpt lat="44.7266617" lon="9.7679583"><ele>581.6</ele><time>2026-04-19T08:49:44.054Z</time></trkpt><trkpt lat="44.7265583" lon="9.7680333"><ele>579.0</ele><time>2026-04-19T08:49:55.054Z</time></trkpt><trkpt lat="44.7264517" lon="9.768075"><ele>579.0</ele><time>2026-04-19T08:49:57.054Z</time></trkpt><trkpt lat="44.726385" lon="9.7680967"><ele>579.0</ele><time>2026-04-19T08:49:58.055Z</time></trkpt><trkpt lat="44.7263033" lon="9.7681167"><ele>579.0</ele><time>2026-04-19T08:49:59.054Z</time></trkpt><trkpt lat="44.7262117" lon="9.7681467"><ele>579.0</ele><time>2026-04-19T08:50:00.055Z</time></trkpt><trkpt lat="44.7261117" lon="9.768185"><ele>579.0</ele><time>2026-04-19T08:50:01.054Z</time></trkpt><trkpt lat="44.7260083" lon="9.7682333"><ele>581.0</ele><time>2026-04-19T08:50:02.054Z</time></trkpt><trkpt lat="44.7259033" lon="9.7682883"><ele>583.0</ele><time>2026-04-19T08:50:03.054Z</time></trkpt><trkpt lat="44.7257983" lon="9.7683383"><ele>585.0</ele><time>2026-04-19T08:50:04.053Z</time></trkpt><trkpt lat="44.725685" lon="9.7683883"><ele>587.0</ele><time>2026-04-19T08:50:05.055Z</time></trkpt><trkpt lat="44.7255733" lon="9.7684333"><ele>587.0</ele><time>2026-04-19T08:50:06.055Z</time></trkpt><trkpt lat="44.7254617" lon="9.7684783"><ele>587.0</ele><time>2026-04-19T08:50:07.054Z</time></trkpt><trkpt lat="44.72535" lon="9.7685233"><ele>587.0</ele><time>2026-04-19T08:50:08.054Z</time></trkpt><trkpt lat="44.7252383" lon="9.7685667"><ele>587.0</ele><time>2026-04-19T08:50:09.054Z</time></trkpt><trkpt lat="44.7251267" lon="9.76861"><ele>588.75</ele><time>2026-04-19T08:50:10.054Z</time></trkpt><trkpt lat="44.7250183" lon="9.768655"><ele>590.5</ele><time>2026-04-19T08:50:11.054Z</time></trkpt><trkpt lat="44.7249083" lon="9.768705"><ele>592.25</ele><time>2026-04-19T08:50:12.054Z</time></trkpt><trkpt lat="44.7247967" lon="9.7687567"><ele>594.0</ele><time>2026-04-19T08:50:13.054Z</time></trkpt><trkpt lat="44.7246817" lon="9.7688083"><ele>594.0</ele><time>2026-04-19T08:50:14.055Z</time></trkpt><trkpt lat="44.7245633" lon="9.768855"><ele>594.0</ele><time>2026-04-19T08:50:15.055Z</time></trkpt><trkpt lat="44.7244433" lon="9.7688967"><ele>594.0</ele><time>2026-04-19T08:50:16.056Z</time></trkpt><trkpt lat="44.7243217" lon="9.7689433"><ele>594.0</ele><time>2026-04-19T08:50:17.057Z</time></trkpt><trkpt lat="44.7242067" lon="9.769005"><ele>596.5</ele><time>2026-04-19T08:50:18.055Z</time></trkpt><trkpt lat="44.7241033" lon="9.7690967"><ele>599.0</ele><time>2026-04-19T08:50:19.054Z</time></trkpt><trkpt lat="44.7240117" lon="9.7692133"><ele>601.5</ele><time>2026-04-19T08:50:20.056Z</time></trkpt><trkpt lat="44.7239167" lon="9.7693383"><ele>604.0</ele><time>2026-04-19T08:50:21.054Z</time></trkpt><trkpt lat="44.7238167" lon="9.7694667"><ele>604.5</ele><time>2026-04-19T08:50:22.053Z</time></trkpt><trkpt lat="44.72372" lon="9.769595"><ele>605.0</ele><time>2026-04-19T08:50:23.055Z</time></trkpt><trkpt lat="44.72363" lon="9.7697217"><ele>605.5</ele><time>2026-04-19T08:50:24.054Z</time></trkpt><trkpt lat="44.7235483" lon="9.7698367"><ele>606.0</ele><time>2026-04-19T08:50:25.055Z</time></trkpt><trkpt lat="44.72347" lon="9.769935"><ele>608.0</ele><time>2026-04-19T08:50:26.054Z</time></trkpt><trkpt lat="44.72341" lon="9.7700167"><ele>610.0</ele><time>2026-04-19T08:50:27.055Z</time></trkpt><trkpt lat="44.7233367" lon="9.7701183"><ele>612.0</ele><time>2026-04-19T08:50:29.055Z</time></trkpt><trkpt lat="44.7232617" lon="9.7700817"><ele>614.0</ele><time>2026-04-19T08:50:33.053Z</time></trkpt><trkpt lat="44.7232333" lon="9.7699"><ele>616.0</ele><time>2026-04-19T08:50:35.053Z</time></trkpt><trkpt lat="44.7232167" lon="9.769795"><ele>616.0</ele><time>2026-04-19T08:50:36.054Z</time></trkpt><trkpt lat="44.7231933" lon="9.7696833"><ele>616.0</ele><time>2026-04-19T08:50:37.055Z</time></trkpt><trkpt lat="44.72317" lon="9.769585"><ele>616.0</ele><time>2026-04-19T08:50:38.055Z</time></trkpt><trkpt lat="44.72312" lon="9.7694317"><ele>616.0</ele><time>2026-04-19T08:50:40.053Z</time></trkpt><trkpt lat="44.7230933" lon="9.769345"><ele>616.0</ele><time>2026-04-19T08:50:41.052Z</time></trkpt><trkpt lat="44.723065" lon="9.7692617"><ele>616.0</ele><time>2026-04-19T08:50:42.055Z</time></trkpt><trkpt lat="44.7230267" lon="9.7691367"><ele>617.2</ele><time>2026-04-19T08:50:44.054Z</time></trkpt><trkpt lat="44.723055" lon="9.7690383"><ele>618.4000000000001</ele><time>2026-04-19T08:50:46.058Z</time></trkpt><trkpt lat="44.7231" lon="9.768895"><ele>619.6</ele><time>2026-04-19T08:50:48.057Z</time></trkpt><trkpt lat="44.723125" lon="9.7687233"><ele>620.8000000000001</ele><time>2026-04-19T08:50:50.055Z</time></trkpt><trkpt lat="44.723125" lon="9.76857"><ele>622.0</ele><time>2026-04-19T08:50:52.053Z</time></trkpt><trkpt lat="44.7230783" lon="9.7684583"><ele>622.6666666666667</ele><time>2026-04-19T08:50:54.056Z</time></trkpt><trkpt lat="44.723005" lon="9.7683533"><ele>623.3333333333334</ele><time>2026-04-19T08:50:56.054Z</time></trkpt><trkpt lat="44.7229067" lon="9.768255"><ele>624.0</ele><time>2026-04-19T08:50:58.054Z</time></trkpt><trkpt lat="44.72285" lon="9.7682"><ele>624.6666666666666</ele><time>2026-04-19T08:50:59.055Z</time></trkpt><trkpt lat="44.7227933" lon="9.7681433"><ele>625.3333333333333</ele><time>2026-04-19T08:51:00.054Z</time></trkpt><trkpt lat="44.7227417" lon="9.76809"><ele>626.0</ele><time>2026-04-19T08:51:01.056Z</time></trkpt><trkpt lat="44.7226867" lon="9.7679783"><ele>627.8333333333333</ele><time>2026-04-19T08:51:03.054Z</time></trkpt><trkpt lat="44.7226283" lon="9.7678617"><ele>629.6666666666666</ele><time>2026-04-19T08:51:05.055Z</time></trkpt><trkpt lat="44.7225617" lon="9.7677767"><ele>631.5</ele><time>2026-04-19T08:51:07.057Z</time></trkpt><trkpt lat="44.7224733" lon="9.767695"><ele>633.3333333333334</ele><time>2026-04-19T08:51:09.054Z</time></trkpt><trkpt lat="44.7224167" lon="9.76765"><ele>635.1666666666667</ele><time>2026-04-19T08:51:10.055Z</time></trkpt><trkpt lat="44.7223567" lon="9.7676117"><ele>637.0</ele><time>2026-04-19T08:51:11.054Z</time></trkpt><trkpt lat="44.7222933" lon="9.7675783"><ele>638.4000000000001</ele><time>2026-04-19T08:51:12.055Z</time></trkpt><trkpt lat="44.7222" lon="9.767495"><ele>639.8000000000001</ele><time>2026-04-19T08:51:14.054Z</time></trkpt><trkpt lat="44.7221167" lon="9.76747"><ele>641.2</ele><time>2026-04-19T08:51:16.055Z</time></trkpt><trkpt lat="44.7220233" lon="9.767485"><ele>642.6</ele><time>2026-04-19T08:51:18.054Z</time></trkpt><trkpt lat="44.7219217" lon="9.7674583"><ele>644.0</ele><time>2026-04-19T08:51:20.056Z</time></trkpt><trkpt lat="44.7218567" lon="9.7674433"><ele>647.1666666666666</ele><time>2026-04-19T08:51:21.058Z</time></trkpt><trkpt lat="44.721735" lon="9.767415"><ele>650.3333333333333</ele><time>2026-04-19T08:51:23.054Z</time></trkpt><trkpt lat="44.7216683" lon="9.767395"><ele>653.5</ele><time>2026-04-19T08:51:24.055Z</time></trkpt><trkpt lat="44.7216033" lon="9.7673817"><ele>656.6666666666666</ele><time>2026-04-19T08:51:25.055Z</time></trkpt><trkpt lat="44.7215383" lon="9.7673767"><ele>659.8333333333334</ele><time>2026-04-19T08:51:26.054Z</time></trkpt><trkpt lat="44.7214717" lon="9.76738"><ele>663.0</ele><time>2026-04-19T08:51:27.054Z</time></trkpt><trkpt lat="44.721345" lon="9.7673783"><ele>663.0</ele><time>2026-04-19T08:51:29.054Z</time></trkpt><trkpt lat="44.72128" lon="9.7673783"><ele>663.0</ele><time>2026-04-19T08:51:30.054Z</time></trkpt><trkpt lat="44.7211617" lon="9.7673783"><ele>663.0</ele><time>2026-04-19T08:51:32.056Z</time></trkpt><trkpt lat="44.72104" lon="9.7673917"><ele>663.0</ele><time>2026-04-19T08:51:34.053Z</time></trkpt><trkpt lat="44.72097" lon="9.7673983"><ele>663.0</ele><time>2026-04-19T08:51:35.054Z</time></trkpt><trkpt lat="44.7209033" lon="9.7674067"><ele>663.0</ele><time>2026-04-19T08:51:36.055Z</time></trkpt><trkpt lat="44.72084" lon="9.76741"><ele>666.5</ele><time>2026-04-19T08:51:37.055Z</time></trkpt><trkpt lat="44.72072" lon="9.76743"><ele>670.0</ele><time>2026-04-19T08:51:39.054Z</time></trkpt><trkpt lat="44.7206083" lon="9.7674967"><ele>673.5</ele><time>2026-04-19T08:51:41.055Z</time></trkpt><trkpt lat="44.7205467" lon="9.7675317"><ele>677.0</ele><time>2026-04-19T08:51:42.054Z</time></trkpt><trkpt lat="44.7204867" lon="9.7675633"><ele>680.5</ele><time>2026-04-19T08:51:43.054Z</time></trkpt><trkpt lat="44.720425" lon="9.7676083"><ele>684.0</ele><time>2026-04-19T08:51:44.056Z</time></trkpt><trkpt lat="44.7203617" lon="9.7676517"><ele>684.0</ele><time>2026-04-19T08:51:45.054Z</time></trkpt><trkpt lat="44.7203033" lon="9.7676917"><ele>684.0</ele><time>2026-04-19T08:51:46.054Z</time></trkpt><trkpt lat="44.7201883" lon="9.76776"><ele>684.0</ele><time>2026-04-19T08:51:48.054Z</time></trkpt><trkpt lat="44.7200733" lon="9.7678017"><ele>684.0</ele><time>2026-04-19T08:51:50.055Z</time></trkpt><trkpt lat="44.719945" lon="9.7677933"><ele>684.0</ele><time>2026-04-19T08:51:52.056Z</time></trkpt><trkpt lat="44.7198633" lon="9.7677733"><ele>686.4285714285713</ele><time>2026-04-19T08:51:53.054Z</time></trkpt><trkpt lat="44.7197833" lon="9.7677483"><ele>688.8571428571429</ele><time>2026-04-19T08:51:54.055Z</time></trkpt><trkpt lat="44.7197183" lon="9.7677333"><ele>691.2857142857142</ele><time>2026-04-19T08:51:55.057Z</time></trkpt><trkpt lat="44.7196467" lon="9.767715"><ele>693.7142857142857</ele><time>2026-04-19T08:51:56.054Z</time></trkpt><trkpt lat="44.71958" lon="9.7677017"><ele>696.1428571428571</ele><time>2026-04-19T08:51:57.055Z</time></trkpt><trkpt lat="44.71951" lon="9.767685"><ele>698.5714285714286</ele><time>2026-04-19T08:51:58.054Z</time></trkpt><trkpt lat="44.7194483" lon="9.7676667"><ele>701.0</ele><time>2026-04-19T08:51:59.055Z</time></trkpt><trkpt lat="44.7193867" lon="9.767645"><ele>706.0</ele><time>2026-04-19T08:52:00.053Z</time></trkpt><trkpt lat="44.7192867" lon="9.7675767"><ele>711.0</ele><time>2026-04-19T08:52:02.055Z</time></trkpt><trkpt lat="44.7192067" lon="9.7674883"><ele>716.0</ele><time>2026-04-19T08:52:04.053Z</time></trkpt><trkpt lat="44.7190983" lon="9.7674533"><ele>721.0</ele><time>2026-04-19T08:52:06.054Z</time></trkpt><trkpt lat="44.7189717" lon="9.76746"><ele>721.0</ele><time>2026-04-19T08:52:08.057Z</time></trkpt><trkpt lat="44.7189083" lon="9.76748"><ele>721.0</ele><time>2026-04-19T08:52:09.054Z</time></trkpt><trkpt lat="44.71879" lon="9.767485"><ele>721.0</ele><time>2026-04-19T08:52:11.055Z</time></trkpt><trkpt lat="44.7186583" lon="9.7674667"><ele>721.0</ele><time>2026-04-19T08:52:13.054Z</time></trkpt><trkpt lat="44.71858" lon="9.76746"><ele>721.0</ele><time>2026-04-19T08:52:14.054Z</time></trkpt><trkpt lat="44.7185" lon="9.76746"><ele>722.0</ele><time>2026-04-19T08:52:15.054Z</time></trkpt><trkpt lat="44.7184217" lon="9.7674533"><ele>723.0</ele><time>2026-04-19T08:52:16.055Z</time></trkpt><trkpt lat="44.7183483" lon="9.7674583"><ele>724.0</ele><time>2026-04-19T08:52:17.053Z</time></trkpt><trkpt lat="44.7182833" lon="9.7674683"><ele>725.0</ele><time>2026-04-19T08:52:18.056Z</time></trkpt><trkpt lat="44.71821" lon="9.76748"><ele>726.0</ele><time>2026-04-19T08:52:19.056Z</time></trkpt><trkpt lat="44.71814" lon="9.7674833"><ele>727.0</ele><time>2026-04-19T08:52:20.054Z</time></trkpt><trkpt lat="44.7180683" lon="9.7674833"><ele>728.0</ele><time>2026-04-19T08:52:21.056Z</time></trkpt><trkpt lat="44.7180033" lon="9.7674767"><ele>728.0</ele><time>2026-04-19T08:52:22.056Z</time></trkpt><trkpt lat="44.7178933" lon="9.7674733"><ele>728.0</ele><time>2026-04-19T08:52:24.056Z</time></trkpt><trkpt lat="44.7177983" lon="9.7675117"><ele>728.0</ele><time>2026-04-19T08:52:26.054Z</time></trkpt><trkpt lat="44.71771" lon="9.7675133"><ele>728.0</ele><time>2026-04-19T08:52:28.054Z</time></trkpt><trkpt lat="44.7176" lon="9.7675167"><ele>728.0</ele><time>2026-04-19T08:52:30.054Z</time></trkpt><trkpt lat="44.7174867" lon="9.7675333"><ele>729.2</ele><time>2026-04-19T08:52:32.053Z</time></trkpt><trkpt lat="44.7173883" lon="9.7675783"><ele>730.4</ele><time>2026-04-19T08:52:34.054Z</time></trkpt><trkpt lat="44.7173317" lon="9.7677183"><ele>731.6</ele><time>2026-04-19T08:52:36.053Z</time></trkpt><trkpt lat="44.7172817" lon="9.76784"><ele>732.8000000000001</ele><time>2026-04-19T08:52:38.054Z</time></trkpt><trkpt lat="44.717175" lon="9.7679367"><ele>734.0</ele><time>2026-04-19T08:52:40.057Z</time></trkpt><trkpt lat="44.7171067" lon="9.7679783"><ele>734.4285714285714</ele><time>2026-04-19T08:52:41.054Z</time></trkpt><trkpt lat="44.7170283" lon="9.768015"><ele>734.8571428571429</ele><time>2026-04-19T08:52:42.055Z</time></trkpt><trkpt lat="44.716955" lon="9.7680567"><ele>735.2857142857143</ele><time>2026-04-19T08:52:43.055Z</time></trkpt><trkpt lat="44.71689" lon="9.768105"><ele>735.7142857142858</ele><time>2026-04-19T08:52:44.055Z</time></trkpt><trkpt lat="44.7168333" lon="9.768165"><ele>736.1428571428571</ele><time>2026-04-19T08:52:45.055Z</time></trkpt><trkpt lat="44.7167833" lon="9.7682367"><ele>736.5714285714287</ele><time>2026-04-19T08:52:46.055Z</time></trkpt><trkpt lat="44.7167283" lon="9.7683017"><ele>737.0</ele><time>2026-04-19T08:52:47.055Z</time></trkpt><trkpt lat="44.7166783" lon="9.7683583"><ele>740.0</ele><time>2026-04-19T08:52:48.055Z</time></trkpt><trkpt lat="44.716575" lon="9.76845"><ele>743.0</ele><time>2026-04-19T08:52:50.055Z</time></trkpt><trkpt lat="44.71647" lon="9.7684917"><ele>746.0</ele><time>2026-04-19T08:52:52.054Z</time></trkpt><trkpt lat="44.7163567" lon="9.7684883"><ele>749.0</ele><time>2026-04-19T08:52:54.055Z</time></trkpt><trkpt lat="44.7162917" lon="9.7684967"><ele>752.0</ele><time>2026-04-19T08:52:55.054Z</time></trkpt><trkpt lat="44.716225" lon="9.7685133"><ele>752.0</ele><time>2026-04-19T08:52:56.055Z</time></trkpt><trkpt lat="44.7161567" lon="9.7685333"><ele>752.0</ele><time>2026-04-19T08:52:57.055Z</time></trkpt><trkpt lat="44.7160667" lon="9.768565"><ele>752.0</ele><time>2026-04-19T08:52:59.054Z</time></trkpt><trkpt lat="44.7159883" lon="9.7685617"><ele>752.0</ele><time>2026-04-19T08:53:01.054Z</time></trkpt><trkpt lat="44.7159267" lon="9.7686283"><ele>752.0</ele><time>2026-04-19T08:53:06.055Z</time></trkpt><trkpt lat="44.7159283" lon="9.7687383"><ele>752.0</ele><time>2026-04-19T08:53:09.055Z</time></trkpt><trkpt lat="44.7159283" lon="9.7688317"><ele>754.8333333333333</ele><time>2026-04-19T08:53:11.053Z</time></trkpt><trkpt lat="44.7159117" lon="9.76897"><ele>757.6666666666666</ele><time>2026-04-19T08:53:13.055Z</time></trkpt><trkpt lat="44.7159083" lon="9.7690817"><ele>760.5</ele><time>2026-04-19T08:53:14.054Z</time></trkpt><trkpt lat="44.7159017" lon="9.7691867"><ele>763.3333333333333</ele><time>2026-04-19T08:53:15.054Z</time></trkpt><trkpt lat="44.715885" lon="9.7692767"><ele>766.1666666666666</ele><time>2026-04-19T08:53:16.054Z</time></trkpt><trkpt lat="44.7158583" lon="9.769445"><ele>769.0</ele><time>2026-04-19T08:53:18.055Z</time></trkpt><trkpt lat="44.71588" lon="9.7695767"><ele>769.0</ele><time>2026-04-19T08:53:20.054Z</time></trkpt><trkpt lat="44.7159267" lon="9.7696933"><ele>769.0</ele><time>2026-04-19T08:53:22.055Z</time></trkpt><trkpt lat="44.71599" lon="9.7698117"><ele>769.0</ele><time>2026-04-19T08:53:24.056Z</time></trkpt><trkpt lat="44.7160467" lon="9.7699033"><ele>769.0</ele><time>2026-04-19T08:53:26.053Z</time></trkpt><trkpt lat="44.71607" lon="9.7700067"><ele>769.0</ele><time>2026-04-19T08:53:28.053Z</time></trkpt><trkpt lat="44.7160833" lon="9.7701283"><ele>767.9999999999999</ele><time>2026-04-19T08:53:30.054Z</time></trkpt><trkpt lat="44.7161083" lon="9.7702783"><ele>767.0</ele><time>2026-04-19T08:53:32.053Z</time></trkpt><trkpt lat="44.716115" lon="9.7704183"><ele>766.0</ele><time>2026-04-19T08:53:34.054Z</time></trkpt><trkpt lat="44.7161083" lon="9.7705333"><ele>765.0</ele><time>2026-04-19T08:53:36.053Z</time></trkpt><trkpt lat="44.7161017" lon="9.77063"><ele>764.0</ele><time>2026-04-19T08:53:38.054Z</time></trkpt><trkpt lat="44.7160817" lon="9.770715"><ele>763.0</ele><time>2026-04-19T08:53:40.054Z</time></trkpt><trkpt lat="44.7160383" lon="9.7708117"><ele>763.0</ele><time>2026-04-19T08:53:42.053Z</time></trkpt><trkpt lat="44.7159917" lon="9.7709167"><ele>763.0</ele><time>2026-04-19T08:53:44.056Z</time></trkpt><trkpt lat="44.7159683" lon="9.7710383"><ele>763.0</ele><time>2026-04-19T08:53:46.053Z</time></trkpt><trkpt lat="44.7159783" lon="9.7711633"><ele>763.0</ele><time>2026-04-19T08:53:48.057Z</time></trkpt><trkpt lat="44.7159933" lon="9.7713033"><ele>763.0</ele><time>2026-04-19T08:53:50.055Z</time></trkpt><trkpt lat="44.71599" lon="9.771455"><ele>761.8</ele><time>2026-04-19T08:53:52.055Z</time></trkpt><trkpt lat="44.7159833" lon="9.7715617"><ele>760.5999999999999</ele><time>2026-04-19T08:53:54.054Z</time></trkpt><trkpt lat="44.7159367" lon="9.771625"><ele>759.4000000000001</ele><time>2026-04-19T08:53:56.054Z</time></trkpt><trkpt lat="44.715855" lon="9.7716867"><ele>758.2</ele><time>2026-04-19T08:53:58.053Z</time></trkpt><trkpt lat="44.7157833" lon="9.7717983"><ele>757.0</ele><time>2026-04-19T08:54:00.055Z</time></trkpt><trkpt lat="44.7157217" lon="9.771975"><ele>756.8333333333334</ele><time>2026-04-19T08:54:02.054Z</time></trkpt><trkpt lat="44.7156967" lon="9.772085"><ele>756.6666666666667</ele><time>2026-04-19T08:54:03.054Z</time></trkpt><trkpt lat="44.715685" lon="9.77218"><ele>756.5</ele><time>2026-04-19T08:54:04.055Z</time></trkpt><trkpt lat="44.7156717" lon="9.7723167"><ele>756.3333333333334</ele><time>2026-04-19T08:54:06.055Z</time></trkpt><trkpt lat="44.715635" lon="9.7724383"><ele>756.1666666666666</ele><time>2026-04-19T08:54:09.053Z</time></trkpt><trkpt lat="44.715545" lon="9.7724967"><ele>756.0</ele><time>2026-04-19T08:54:11.053Z</time></trkpt><trkpt lat="44.7154867" lon="9.7725317"><ele>756.0</ele><time>2026-04-19T08:54:12.055Z</time></trkpt><trkpt lat="44.7154283" lon="9.7725683"><ele>756.0</ele><time>2026-04-19T08:54:13.053Z</time></trkpt><trkpt lat="44.715375" lon="9.7726167"><ele>756.0</ele><time>2026-04-19T08:54:14.055Z</time></trkpt><trkpt lat="44.7152867" lon="9.7727567"><ele>756.0</ele><time>2026-04-19T08:54:16.053Z</time></trkpt><trkpt lat="44.7152417" lon="9.7728433"><ele>756.0</ele><time>2026-04-19T08:54:17.053Z</time></trkpt><trkpt lat="44.715195" lon="9.7729183"><ele>756.0</ele><time>2026-04-19T08:54:18.055Z</time></trkpt><trkpt lat="44.7151483" lon="9.7729833"><ele>759.0</ele><time>2026-04-19T08:54:19.053Z</time></trkpt><trkpt lat="44.71504" lon="9.7730617"><ele>762.0</ele><time>2026-04-19T08:54:21.054Z</time></trkpt><trkpt lat="44.7149717" lon="9.7730867"><ele>765.0</ele><time>2026-04-19T08:54:22.053Z</time></trkpt><trkpt lat="44.7149067" lon="9.773135"><ele>768.0</ele><time>2026-04-19T08:54:24.054Z</time></trkpt><trkpt lat="44.7148833" lon="9.7732417"><ele>771.0</ele><time>2026-04-19T08:54:26.053Z</time></trkpt><trkpt lat="44.71492" lon="9.7733517"><ele>774.0</ele><time>2026-04-19T08:54:29.054Z</time></trkpt><trkpt lat="44.71499" lon="9.77337"><ele>774.0</ele><time>2026-04-19T08:54:32.053Z</time></trkpt><trkpt lat="44.7150517" lon="9.773435"><ele>774.0</ele><time>2026-04-19T08:54:35.056Z</time></trkpt><trkpt lat="44.71506" lon="9.7735483"><ele>774.0</ele><time>2026-04-19T08:54:37.055Z</time></trkpt><trkpt lat="44.7150533" lon="9.77369"><ele>774.0</ele><time>2026-04-19T08:54:39.054Z</time></trkpt><trkpt lat="44.71504" lon="9.7737833"><ele>774.0</ele><time>2026-04-19T08:54:41.053Z</time></trkpt><trkpt lat="44.7150167" lon="9.7738917"><ele>774.0</ele><time>2026-04-19T08:54:43.054Z</time></trkpt><trkpt lat="44.7149883" lon="9.773975"><ele>773.6666666666666</ele><time>2026-04-19T08:54:44.054Z</time></trkpt><trkpt lat="44.7149583" lon="9.77407"><ele>773.3333333333333</ele><time>2026-04-19T08:54:45.053Z</time></trkpt><trkpt lat="44.71493" lon="9.7741733"><ele>773.0</ele><time>2026-04-19T08:54:46.054Z</time></trkpt><trkpt lat="44.7149067" lon="9.7742767"><ele>772.6666666666666</ele><time>2026-04-19T08:54:47.055Z</time></trkpt><trkpt lat="44.7148867" lon="9.7743717"><ele>772.3333333333333</ele><time>2026-04-19T08:54:48.054Z</time></trkpt><trkpt lat="44.71487" lon="9.774525"><ele>772.0</ele><time>2026-04-19T08:54:50.054Z</time></trkpt><trkpt lat="44.71487" lon="9.77462"><ele>771.9999999999999</ele><time>2026-04-19T08:54:51.055Z</time></trkpt><trkpt lat="44.7148733" lon="9.7747233"><ele>772.0</ele><time>2026-04-19T08:54:52.055Z</time></trkpt><trkpt lat="44.7148883" lon="9.7748233"><ele>772.0</ele><time>2026-04-19T08:54:53.053Z</time></trkpt><trkpt lat="44.7149133" lon="9.7749267"><ele>772.0</ele><time>2026-04-19T08:54:54.056Z</time></trkpt><trkpt lat="44.7149617" lon="9.7750967"><ele>771.9999999999999</ele><time>2026-04-19T08:54:56.054Z</time></trkpt><trkpt lat="44.7149917" lon="9.7751883"><ele>772.0</ele><time>2026-04-19T08:54:57.053Z</time></trkpt><trkpt lat="44.7150167" lon="9.77527"><ele>772.0</ele><time>2026-04-19T08:54:58.053Z</time></trkpt><trkpt lat="44.71505" lon="9.7754183"><ele>772.0</ele><time>2026-04-19T08:55:00.053Z</time></trkpt><trkpt lat="44.7150933" lon="9.7755817"><ele>772.0</ele><time>2026-04-19T08:55:02.055Z</time></trkpt><trkpt lat="44.7151333" lon="9.7757217"><ele>772.0</ele><time>2026-04-19T08:55:04.054Z</time></trkpt><trkpt lat="44.715185" lon="9.7758617"><ele>771.9999999999999</ele><time>2026-04-19T08:55:06.056Z</time></trkpt><trkpt lat="44.7152167" lon="9.7759467"><ele>772.0</ele><time>2026-04-19T08:55:07.054Z</time></trkpt><trkpt lat="44.7152367" lon="9.7760417"><ele>772.0</ele><time>2026-04-19T08:55:08.054Z</time></trkpt><trkpt lat="44.7152567" lon="9.77622"><ele>772.0</ele><time>2026-04-19T08:55:10.055Z</time></trkpt><trkpt lat="44.7152683" lon="9.7763267"><ele>771.9999999999999</ele><time>2026-04-19T08:55:11.055Z</time></trkpt><trkpt lat="44.7152667" lon="9.77643"><ele>772.0</ele><time>2026-04-19T08:55:12.056Z</time></trkpt><trkpt lat="44.7152733" lon="9.7765533"><ele>770.3333333333333</ele><time>2026-04-19T08:55:13.056Z</time></trkpt><trkpt lat="44.71528" lon="9.7766717"><ele>768.6666666666666</ele><time>2026-04-19T08:55:14.053Z</time></trkpt><trkpt lat="44.71529" lon="9.7767867"><ele>767.0</ele><time>2026-04-19T08:55:15.053Z</time></trkpt><trkpt lat="44.7153083" lon="9.7768733"><ele>765.3333333333333</ele><time>2026-04-19T08:55:16.054Z</time></trkpt><trkpt lat="44.7153317" lon="9.7769633"><ele>763.6666666666666</ele><time>2026-04-19T08:55:17.055Z</time></trkpt><trkpt lat="44.7153617" lon="9.7770667"><ele>762.0</ele><time>2026-04-19T08:55:18.054Z</time></trkpt><trkpt lat="44.7153883" lon="9.77717"><ele>762.0</ele><time>2026-04-19T08:55:19.054Z</time></trkpt><trkpt lat="44.7154233" lon="9.7772667"><ele>762.0</ele><time>2026-04-19T08:55:20.054Z</time></trkpt><trkpt lat="44.7154533" lon="9.7773483"><ele>762.0</ele><time>2026-04-19T08:55:21.053Z</time></trkpt><trkpt lat="44.71551" lon="9.7774617"><ele>762.0</ele><time>2026-04-19T08:55:23.055Z</time></trkpt><trkpt lat="44.7155367" lon="9.77756"><ele>762.0</ele><time>2026-04-19T08:55:25.053Z</time></trkpt><trkpt lat="44.7155617" lon="9.7776967"><ele>762.0</ele><time>2026-04-19T08:55:27.053Z</time></trkpt><trkpt lat="44.7155717" lon="9.77779"><ele>762.5</ele><time>2026-04-19T08:55:28.055Z</time></trkpt><trkpt lat="44.7155867" lon="9.77789"><ele>763.0</ele><time>2026-04-19T08:55:29.054Z</time></trkpt><trkpt lat="44.7156083" lon="9.7780017"><ele>763.5</ele><time>2026-04-19T08:55:30.055Z</time></trkpt><trkpt lat="44.7156317" lon="9.7781183"><ele>764.0</ele><time>2026-04-19T08:55:31.053Z</time></trkpt><trkpt lat="44.7156483" lon="9.77822"><ele>764.5</ele><time>2026-04-19T08:55:32.057Z</time></trkpt><trkpt lat="44.715655" lon="9.77838"><ele>765.0</ele><time>2026-04-19T08:55:34.053Z</time></trkpt><trkpt lat="44.7155967" lon="9.7785"><ele>765.1666666666666</ele><time>2026-04-19T08:55:36.054Z</time></trkpt><trkpt lat="44.7155367" lon="9.7785517"><ele>765.3333333333334</ele><time>2026-04-19T08:55:37.053Z</time></trkpt><trkpt lat="44.715445" lon="9.77867"><ele>765.5</ele><time>2026-04-19T08:55:39.053Z</time></trkpt><trkpt lat="44.7154017" lon="9.7787517"><ele>765.6666666666667</ele><time>2026-04-19T08:55:40.053Z</time></trkpt><trkpt lat="44.7153633" lon="9.7788317"><ele>765.8333333333334</ele><time>2026-04-19T08:55:41.054Z</time></trkpt><trkpt lat="44.7153383" lon="9.7789367"><ele>766.0</ele><time>2026-04-19T08:55:42.055Z</time></trkpt><trkpt lat="44.7153133" lon="9.7790483"><ele>766.0</ele><time>2026-04-19T08:55:43.054Z</time></trkpt><trkpt lat="44.7153" lon="9.779145"><ele>766.0</ele><time>2026-04-19T08:55:44.053Z</time></trkpt><trkpt lat="44.71529" lon="9.7792433"><ele>766.0</ele><time>2026-04-19T08:55:45.054Z</time></trkpt><trkpt lat="44.7152817" lon="9.779335"><ele>766.0</ele><time>2026-04-19T08:55:46.054Z</time></trkpt><trkpt lat="44.71528" lon="9.7795017"><ele>766.0</ele><time>2026-04-19T08:55:48.054Z</time></trkpt><trkpt lat="44.71529" lon="9.779675"><ele>766.0</ele><time>2026-04-19T08:55:50.055Z</time></trkpt><trkpt lat="44.7153083" lon="9.7797933"><ele>768.0</ele><time>2026-04-19T08:55:51.054Z</time></trkpt><trkpt lat="44.7153317" lon="9.779935"><ele>770.0</ele><time>2026-04-19T08:55:52.055Z</time></trkpt><trkpt lat="44.715365" lon="9.7800667"><ele>772.0</ele><time>2026-04-19T08:55:53.055Z</time></trkpt><trkpt lat="44.7154017" lon="9.7801783"><ele>774.0</ele><time>2026-04-19T08:55:54.054Z</time></trkpt><trkpt lat="44.7154433" lon="9.780295"><ele>776.0</ele><time>2026-04-19T08:55:55.054Z</time></trkpt><trkpt lat="44.7154883" lon="9.7804"><ele>777.8333333333334</ele><time>2026-04-19T08:55:56.055Z</time></trkpt><trkpt lat="44.7155317" lon="9.7805017"><ele>779.6666666666667</ele><time>2026-04-19T08:55:57.054Z</time></trkpt><trkpt lat="44.7155683" lon="9.7805883"><ele>781.5</ele><time>2026-04-19T08:55:58.053Z</time></trkpt><trkpt lat="44.7156117" lon="9.78066"><ele>783.3333333333333</ele><time>2026-04-19T08:55:59.053Z</time></trkpt><trkpt lat="44.7156717" lon="9.7807283"><ele>785.1666666666666</ele><time>2026-04-19T08:56:00.055Z</time></trkpt><trkpt lat="44.715735" lon="9.7807983"><ele>787.0</ele><time>2026-04-19T08:56:01.057Z</time></trkpt><trkpt lat="44.7157883" lon="9.780865"><ele>787.0</ele><time>2026-04-19T08:56:02.057Z</time></trkpt><trkpt lat="44.7158333" lon="9.7809883"><ele>787.0</ele><time>2026-04-19T08:56:04.054Z</time></trkpt><trkpt lat="44.7158117" lon="9.7811133"><ele>787.0</ele><time>2026-04-19T08:56:06.054Z</time></trkpt><trkpt lat="44.7157567" lon="9.781245"><ele>787.0</ele><time>2026-04-19T08:56:08.056Z</time></trkpt><trkpt lat="44.7157017" lon="9.7813"><ele>787.0</ele><time>2026-04-19T08:56:09.053Z</time></trkpt><trkpt lat="44.7156517" lon="9.781435"><ele>788.8333333333333</ele><time>2026-04-19T08:56:11.055Z</time></trkpt><trkpt lat="44.7156433" lon="9.7815317"><ele>790.6666666666666</ele><time>2026-04-19T08:56:13.054Z</time></trkpt><trkpt lat="44.7156233" lon="9.781625"><ele>792.5</ele><time>2026-04-19T08:56:15.054Z</time></trkpt><trkpt lat="44.7155583" lon="9.7817517"><ele>794.3333333333333</ele><time>2026-04-19T08:56:17.053Z</time></trkpt><trkpt lat="44.71555" lon="9.78188"><ele>796.1666666666666</ele><time>2026-04-19T08:56:19.054Z</time></trkpt><trkpt lat="44.7156383" lon="9.7819433"><ele>798.0</ele><time>2026-04-19T08:56:21.054Z</time></trkpt><trkpt lat="44.715715" lon="9.781925"><ele>800.8333333333334</ele><time>2026-04-19T08:56:22.054Z</time></trkpt><trkpt lat="44.71581" lon="9.78197"><ele>803.6666666666667</ele><time>2026-04-19T08:56:24.055Z</time></trkpt><trkpt lat="44.7158483" lon="9.7820733"><ele>806.5</ele><time>2026-04-19T08:56:26.054Z</time></trkpt><trkpt lat="44.715835" lon="9.7821617"><ele>809.3333333333334</ele><time>2026-04-19T08:56:30.055Z</time></trkpt><trkpt lat="44.7159333" lon="9.782205"><ele>812.1666666666667</ele><time>2026-04-19T08:56:33.055Z</time></trkpt><trkpt lat="44.7159967" lon="9.7821983"><ele>815.0</ele><time>2026-04-19T08:56:34.055Z</time></trkpt><trkpt lat="44.7160617" lon="9.7822017"><ele>813.2</ele><time>2026-04-19T08:56:35.055Z</time></trkpt><trkpt lat="44.7161783" lon="9.7822917"><ele>811.4</ele><time>2026-04-19T08:56:37.055Z</time></trkpt><trkpt lat="44.7162333" lon="9.78236"><ele>809.5999999999999</ele><time>2026-04-19T08:56:38.054Z</time></trkpt><trkpt lat="44.7162917" lon="9.78244"><ele>807.8</ele><time>2026-04-19T08:56:39.054Z</time></trkpt><trkpt lat="44.7163533" lon="9.7825433"><ele>806.0</ele><time>2026-04-19T08:56:40.053Z</time></trkpt><trkpt lat="44.7164083" lon="9.7826483"><ele>808.5999999999999</ele><time>2026-04-19T08:56:41.055Z</time></trkpt><trkpt lat="44.7164483" lon="9.7827717"><ele>811.2</ele><time>2026-04-19T08:56:42.054Z</time></trkpt><trkpt lat="44.7164817" lon="9.7828783"><ele>813.8</ele><time>2026-04-19T08:56:43.053Z</time></trkpt><trkpt lat="44.7165067" lon="9.7829983"><ele>816.4000000000001</ele><time>2026-04-19T08:56:44.054Z</time></trkpt><trkpt lat="44.7165333" lon="9.78312"><ele>819.0</ele><time>2026-04-19T08:56:45.054Z</time></trkpt><trkpt lat="44.7165633" lon="9.7832567"><ele>819.0</ele><time>2026-04-19T08:56:46.053Z</time></trkpt><trkpt lat="44.716595" lon="9.7833667"><ele>819.0</ele><time>2026-04-19T08:56:47.055Z</time></trkpt><trkpt lat="44.7166317" lon="9.7834617"><ele>819.0</ele><time>2026-04-19T08:56:48.053Z</time></trkpt><trkpt lat="44.716685" lon="9.78354"><ele>819.0</ele><time>2026-04-19T08:56:49.054Z</time></trkpt><trkpt lat="44.716745" lon="9.7836167"><ele>819.0</ele><time>2026-04-19T08:56:50.053Z</time></trkpt><trkpt lat="44.716815" lon="9.7836733"><ele>819.0</ele><time>2026-04-19T08:56:51.055Z</time></trkpt><trkpt lat="44.7168967" lon="9.7836667"><ele>821.1666666666666</ele><time>2026-04-19T08:56:52.053Z</time></trkpt><trkpt lat="44.7169867" lon="9.7836383"><ele>823.3333333333333</ele><time>2026-04-19T08:56:53.054Z</time></trkpt><trkpt lat="44.7170883" lon="9.7836033"><ele>825.5</ele><time>2026-04-19T08:56:54.054Z</time></trkpt><trkpt lat="44.7171817" lon="9.7835717"><ele>827.6666666666666</ele><time>2026-04-19T08:56:55.053Z</time></trkpt><trkpt lat="44.7172517" lon="9.7835417"><ele>829.8333333333333</ele><time>2026-04-19T08:56:56.055Z</time></trkpt><trkpt lat="44.7172183" lon="9.783635"><ele>832.0</ele><time>2026-04-19T08:57:10.053Z</time></trkpt><trkpt lat="44.7171383" lon="9.7837"><ele>832.0</ele><time>2026-04-19T08:57:12.054Z</time></trkpt><trkpt lat="44.717075" lon="9.783755"><ele>832.0</ele><time>2026-04-19T08:57:13.054Z</time></trkpt><trkpt lat="44.7169817" lon="9.7838483"><ele>832.0</ele><time>2026-04-19T08:57:14.053Z</time></trkpt><trkpt lat="44.7169067" lon="9.783925"><ele>832.0</ele><time>2026-04-19T08:57:15.054Z</time></trkpt><trkpt lat="44.71683" lon="9.78397"><ele>832.0</ele><time>2026-04-19T08:57:16.054Z</time></trkpt><trkpt lat="44.7167483" lon="9.78401"><ele>832.4999999999999</ele><time>2026-04-19T08:57:17.054Z</time></trkpt><trkpt lat="44.71667" lon="9.7840333"><ele>833.0</ele><time>2026-04-19T08:57:18.055Z</time></trkpt><trkpt lat="44.7165833" lon="9.7840633"><ele>833.5</ele><time>2026-04-19T08:57:19.055Z</time></trkpt><trkpt lat="44.7164717" lon="9.784045"><ele>834.0</ele><time>2026-04-19T08:57:20.054Z</time></trkpt><trkpt lat="44.7163883" lon="9.78406"><ele>834.4999999999999</ele><time>2026-04-19T08:57:21.054Z</time></trkpt><trkpt lat="44.7163083" lon="9.7840683"><ele>835.0</ele><time>2026-04-19T08:57:22.054Z</time></trkpt><trkpt lat="44.71623" lon="9.78409"><ele>834.9999999999999</ele><time>2026-04-19T08:57:23.054Z</time></trkpt><trkpt lat="44.7161583" lon="9.7841267"><ele>835.0</ele><time>2026-04-19T08:57:24.054Z</time></trkpt><trkpt lat="44.7160967" lon="9.784175"><ele>835.0</ele><time>2026-04-19T08:57:25.053Z</time></trkpt><trkpt lat="44.7160367" lon="9.7842267"><ele>835.0</ele><time>2026-04-19T08:57:28.054Z</time></trkpt><trkpt lat="44.71613" lon="9.7842933"><ele>834.9999999999999</ele><time>2026-04-19T08:57:36.054Z</time></trkpt><trkpt lat="44.7161733" lon="9.7844183"><ele>835.0</ele><time>2026-04-19T08:57:39.054Z</time></trkpt><trkpt lat="44.7161967" lon="9.7845233"><ele>840.2</ele><time>2026-04-19T08:57:41.054Z</time></trkpt><trkpt lat="44.7162083" lon="9.7846667"><ele>845.4</ele><time>2026-04-19T08:58:14.054Z</time></trkpt><trkpt lat="44.7162017" lon="9.78477"><ele>850.5999999999999</ele><time>2026-04-19T08:58:16.053Z</time></trkpt><trkpt lat="44.7161867" lon="9.784895"><ele>855.8</ele><time>2026-04-19T08:58:18.055Z</time></trkpt><trkpt lat="44.7161433" lon="9.7850483"><ele>861.0</ele><time>2026-04-19T08:58:20.054Z</time></trkpt><trkpt lat="44.71608" lon="9.78517"><ele>861.0</ele><time>2026-04-19T08:58:22.055Z</time></trkpt><trkpt lat="44.7160533" lon="9.7852633"><ele>861.0</ele><time>2026-04-19T08:58:24.057Z</time></trkpt><trkpt lat="44.7160567" lon="9.78536"><ele>861.0</ele><time>2026-04-19T08:58:26.055Z</time></trkpt><trkpt lat="44.71611" lon="9.7854717"><ele>861.0</ele><time>2026-04-19T08:58:28.054Z</time></trkpt><trkpt lat="44.7161783" lon="9.7855267"><ele>861.0</ele><time>2026-04-19T08:58:30.055Z</time></trkpt><trkpt lat="44.716265" lon="9.78557"><ele>861.0</ele><time>2026-04-19T08:58:32.055Z</time></trkpt><trkpt lat="44.716335" lon="9.785605"><ele>865.6666666666666</ele><time>2026-04-19T08:58:34.054Z</time></trkpt><trkpt lat="44.7164483" lon="9.785645"><ele>870.3333333333333</ele><time>2026-04-19T09:00:52.054Z</time></trkpt><trkpt lat="44.7165067" lon="9.7856867"><ele>875.0</ele><time>2026-04-19T09:00:54.055Z</time></trkpt><trkpt lat="44.7166017" lon="9.7857317"><ele>879.6666666666666</ele><time>2026-04-19T09:00:56.055Z</time></trkpt><trkpt lat="44.7166683" lon="9.7857333"><ele>884.3333333333333</ele><time>2026-04-19T09:00:58.053Z</time></trkpt><trkpt lat="44.7167083" lon="9.7858083"><ele>889.0</ele><time>2026-04-19T09:01:01.054Z</time></trkpt><trkpt lat="44.716725" lon="9.7859117"><ele>892.1666666666666</ele><time>2026-04-19T09:01:03.055Z</time></trkpt><trkpt lat="44.7167133" lon="9.786025"><ele>895.3333333333333</ele><time>2026-04-19T09:01:06.054Z</time></trkpt><trkpt lat="44.716675" lon="9.7861117"><ele>898.5</ele><time>2026-04-19T09:01:09.055Z</time></trkpt><trkpt lat="44.7166017" lon="9.7861433"><ele>901.6666666666667</ele><time>2026-04-19T09:01:11.055Z</time></trkpt><trkpt lat="44.7165367" lon="9.7861383"><ele>904.8333333333334</ele><time>2026-04-19T09:01:12.055Z</time></trkpt><trkpt lat="44.7164517" lon="9.786205"><ele>908.0</ele><time>2026-04-19T09:01:14.054Z</time></trkpt><trkpt lat="44.7163967" lon="9.7863083"><ele>908.0</ele><time>2026-04-19T09:01:16.054Z</time></trkpt><trkpt lat="44.7163167" lon="9.7864333"><ele>908.0</ele><time>2026-04-19T09:01:18.055Z</time></trkpt><trkpt lat="44.7162517" lon="9.786565"><ele>908.0</ele><time>2026-04-19T09:01:20.054Z</time></trkpt><trkpt lat="44.7162033" lon="9.786705"><ele>908.0</ele><time>2026-04-19T09:01:22.054Z</time></trkpt><trkpt lat="44.716175" lon="9.7868333"><ele>908.0</ele><time>2026-04-19T09:01:24.054Z</time></trkpt><trkpt lat="44.7161633" lon="9.7869467"><ele>906.8333333333334</ele><time>2026-04-19T09:01:26.055Z</time></trkpt><trkpt lat="44.7161933" lon="9.7870267"><ele>905.6666666666667</ele><time>2026-04-19T09:01:31.055Z</time></trkpt><trkpt lat="44.7161517" lon="9.7871183"><ele>904.5</ele><time>2026-04-19T09:01:34.054Z</time></trkpt><trkpt lat="44.7160683" lon="9.787185"><ele>903.3333333333333</ele><time>2026-04-19T09:01:36.055Z</time></trkpt><trkpt lat="44.7159533" lon="9.7872317"><ele>902.1666666666666</ele><time>2026-04-19T09:01:38.055Z</time></trkpt><trkpt lat="44.7158917" lon="9.78726"><ele>901.0</ele><time>2026-04-19T09:01:39.054Z</time></trkpt><trkpt lat="44.71578" lon="9.78731"><ele>897.6666666666666</ele><time>2026-04-19T09:01:41.054Z</time></trkpt><trkpt lat="44.7157067" lon="9.7873617"><ele>894.3333333333333</ele><time>2026-04-19T09:01:43.054Z</time></trkpt><trkpt lat="44.71573" lon="9.787455"><ele>891.0</ele><time>2026-04-19T09:01:47.053Z</time></trkpt><trkpt lat="44.7157867" lon="9.787515"><ele>887.6666666666667</ele><time>2026-04-19T09:01:49.052Z</time></trkpt><trkpt lat="44.71587" lon="9.7875817"><ele>884.3333333333334</ele><time>2026-04-19T09:01:51.053Z</time></trkpt><trkpt lat="44.7159367" lon="9.787715"><ele>881.0</ele><time>2026-04-19T09:01:53.053Z</time></trkpt><trkpt lat="44.7160083" lon="9.7878183"><ele>880.1999999999999</ele><time>2026-04-19T09:01:55.055Z</time></trkpt><trkpt lat="44.7160733" lon="9.7879067"><ele>879.3999999999999</ele><time>2026-04-19T09:01:57.054Z</time></trkpt><trkpt lat="44.71613" lon="9.788"><ele>878.6</ele><time>2026-04-19T09:01:59.054Z</time></trkpt><trkpt lat="44.7161617" lon="9.7881417"><ele>877.8</ele><time>2026-04-19T09:02:01.054Z</time></trkpt><trkpt lat="44.7161683" lon="9.7883133"><ele>877.0</ele><time>2026-04-19T09:02:03.054Z</time></trkpt><trkpt lat="44.71616" lon="9.7884067"><ele>877.0000000000001</ele><time>2026-04-19T09:02:04.055Z</time></trkpt><trkpt lat="44.7161517" lon="9.788505"><ele>877.0</ele><time>2026-04-19T09:02:05.055Z</time></trkpt><trkpt lat="44.716145" lon="9.7886083"><ele>877.0</ele><time>2026-04-19T09:02:06.054Z</time></trkpt><trkpt lat="44.7161217" lon="9.788755"><ele>877.0</ele><time>2026-04-19T09:02:08.055Z</time></trkpt><trkpt lat="44.7161" lon="9.78884"><ele>877.0</ele><time>2026-04-19T09:02:10.053Z</time></trkpt><trkpt lat="44.7161433" lon="9.788915"><ele>877.0000000000001</ele><time>2026-04-19T09:02:16.053Z</time></trkpt><trkpt lat="44.7162067" lon="9.7889117"><ele>877.0</ele><time>2026-04-19T09:02:17.052Z</time></trkpt><trkpt lat="44.7162867" lon="9.7889033"><ele>873.6666666666666</ele><time>2026-04-19T09:02:18.053Z</time></trkpt><trkpt lat="44.7163767" lon="9.7888967"><ele>870.3333333333333</ele><time>2026-04-19T09:02:19.054Z</time></trkpt><trkpt lat="44.716465" lon="9.7888917"><ele>867.0</ele><time>2026-04-19T09:02:20.055Z</time></trkpt><trkpt lat="44.7165483" lon="9.7888933"><ele>863.6666666666667</ele><time>2026-04-19T09:02:21.054Z</time></trkpt><trkpt lat="44.7166267" lon="9.7889"><ele>860.3333333333334</ele><time>2026-04-19T09:02:22.054Z</time></trkpt><trkpt lat="44.7166983" lon="9.7889083"><ele>857.0</ele><time>2026-04-19T09:02:23.052Z</time></trkpt><trkpt lat="44.7168033" lon="9.7889467"><ele>857.0000000000001</ele><time>2026-04-19T09:02:25.055Z</time></trkpt><trkpt lat="44.716875" lon="9.7889933"><ele>857.0</ele><time>2026-04-19T09:02:27.053Z</time></trkpt><trkpt lat="44.7169267" lon="9.789105"><ele>857.0</ele><time>2026-04-19T09:02:30.053Z</time></trkpt><trkpt lat="44.7169267" lon="9.7892617"><ele>857.0</ele><time>2026-04-19T09:02:32.054Z</time></trkpt><trkpt lat="44.7169283" lon="9.789355"><ele>857.0000000000001</ele><time>2026-04-19T09:02:33.055Z</time></trkpt><trkpt lat="44.7169283" lon="9.789455"><ele>857.0</ele><time>2026-04-19T09:02:34.055Z</time></trkpt><trkpt lat="44.7169317" lon="9.7895583"><ele>855.6666666666667</ele><time>2026-04-19T09:02:35.053Z</time></trkpt><trkpt lat="44.7169433" lon="9.789655"><ele>854.3333333333334</ele><time>2026-04-19T09:02:36.054Z</time></trkpt><trkpt lat="44.7169617" lon="9.78974"><ele>853.0</ele><time>2026-04-19T09:02:37.054Z</time></trkpt><trkpt lat="44.71706" lon="9.78982"><ele>851.6666666666667</ele><time>2026-04-19T09:02:39.053Z</time></trkpt><trkpt lat="44.7171533" lon="9.7898567"><ele>850.3333333333334</ele><time>2026-04-19T09:02:41.054Z</time></trkpt><trkpt lat="44.71724" lon="9.789875"><ele>849.0</ele><time>2026-04-19T09:02:43.052Z</time></trkpt><trkpt lat="44.71736" lon="9.7899283"><ele>849.0</ele><time>2026-04-19T09:02:45.054Z</time></trkpt><trkpt lat="44.7174417" lon="9.7899633"><ele>849.0</ele><time>2026-04-19T09:02:46.055Z</time></trkpt><trkpt lat="44.71754" lon="9.79"><ele>849.0</ele><time>2026-04-19T09:02:47.054Z</time></trkpt><trkpt lat="44.7176383" lon="9.7900367"><ele>849.0</ele><time>2026-04-19T09:02:48.053Z</time></trkpt><trkpt lat="44.7177383" lon="9.7900817"><ele>849.0</ele><time>2026-04-19T09:02:49.053Z</time></trkpt><trkpt lat="44.717835" lon="9.7901167"><ele>850.2</ele><time>2026-04-19T09:02:50.054Z</time></trkpt><trkpt lat="44.7179283" lon="9.79015"><ele>851.4000000000001</ele><time>2026-04-19T09:02:51.053Z</time></trkpt><trkpt lat="44.718015" lon="9.7901933"><ele>852.6</ele><time>2026-04-19T09:02:52.054Z</time></trkpt><trkpt lat="44.718095" lon="9.7902417"><ele>853.8</ele><time>2026-04-19T09:02:53.053Z</time></trkpt><trkpt lat="44.718165" lon="9.7902917"><ele>855.0</ele><time>2026-04-19T09:02:54.054Z</time></trkpt><trkpt lat="44.7182383" lon="9.79039"><ele>855.0</ele><time>2026-04-19T09:02:56.055Z</time></trkpt><trkpt lat="44.7182067" lon="9.7905267"><ele>855.0</ele><time>2026-04-19T09:02:58.054Z</time></trkpt><trkpt lat="44.7181717" lon="9.790605"><ele>855.0</ele><time>2026-04-19T09:02:59.054Z</time></trkpt><trkpt lat="44.7181283" lon="9.790685"><ele>855.0</ele><time>2026-04-19T09:03:00.054Z</time></trkpt><trkpt lat="44.718085" lon="9.7907683"><ele>855.0</ele><time>2026-04-19T09:03:01.053Z</time></trkpt><trkpt lat="44.7180417" lon="9.7908617"><ele>855.0</ele><time>2026-04-19T09:03:02.055Z</time></trkpt><trkpt lat="44.7179983" lon="9.7909583"><ele>854.0</ele><time>2026-04-19T09:03:03.054Z</time></trkpt><trkpt lat="44.7179483" lon="9.791055"><ele>853.0</ele><time>2026-04-19T09:03:04.055Z</time></trkpt><trkpt lat="44.7178983" lon="9.791155"><ele>852.0</ele><time>2026-04-19T09:03:05.053Z</time></trkpt><trkpt lat="44.7178483" lon="9.7912617"><ele>851.0</ele><time>2026-04-19T09:03:06.054Z</time></trkpt><trkpt lat="44.7178017" lon="9.791355"><ele>850.0</ele><time>2026-04-19T09:03:07.054Z</time></trkpt><trkpt lat="44.7177633" lon="9.7914317"><ele>849.0</ele><time>2026-04-19T09:03:08.054Z</time></trkpt><trkpt lat="44.717705" lon="9.7915383"><ele>848.3333333333334</ele><time>2026-04-19T09:03:10.054Z</time></trkpt><trkpt lat="44.7176567" lon="9.7916283"><ele>847.6666666666667</ele><time>2026-04-19T09:03:13.055Z</time></trkpt><trkpt lat="44.7176733" lon="9.7917383"><ele>847.0</ele><time>2026-04-19T09:03:17.054Z</time></trkpt><trkpt lat="44.7176917" lon="9.791835"><ele>846.3333333333334</ele><time>2026-04-19T09:03:21.054Z</time></trkpt><trkpt lat="44.7177767" lon="9.79189"><ele>845.6666666666667</ele><time>2026-04-19T09:10:01.055Z</time></trkpt><trkpt lat="44.7178583" lon="9.7919317"><ele>845.0</ele><time>2026-04-19T09:10:07.055Z</time></trkpt><trkpt lat="44.7179267" lon="9.7920133"><ele>845.0000000000001</ele><time>2026-04-19T09:10:09.053Z</time></trkpt><trkpt lat="44.7180067" lon="9.7921517"><ele>845.0</ele><time>2026-04-19T09:10:11.054Z</time></trkpt><trkpt lat="44.7180467" lon="9.7922267"><ele>845.0</ele><time>2026-04-19T09:10:12.054Z</time></trkpt><trkpt lat="44.7180817" lon="9.7923067"><ele>845.0</ele><time>2026-04-19T09:10:13.053Z</time></trkpt><trkpt lat="44.7181217" lon="9.79238"><ele>845.0000000000001</ele><time>2026-04-19T09:10:14.053Z</time></trkpt><trkpt lat="44.7181633" lon="9.7924533"><ele>845.0</ele><time>2026-04-19T09:10:15.055Z</time></trkpt><trkpt lat="44.7182167" lon="9.792515"><ele>844.9999999999999</ele><time>2026-04-19T09:10:16.054Z</time></trkpt><trkpt lat="44.7182733" lon="9.79257"><ele>845.0</ele><time>2026-04-19T09:10:17.054Z</time></trkpt><trkpt lat="44.7183317" lon="9.7926183"><ele>845.0</ele><time>2026-04-19T09:10:18.055Z</time></trkpt><trkpt lat="44.7183933" lon="9.79267"><ele>845.0</ele><time>2026-04-19T09:10:19.054Z</time></trkpt><trkpt lat="44.7184533" lon="9.7927267"><ele>845.0</ele><time>2026-04-19T09:10:20.054Z</time></trkpt><trkpt lat="44.7185133" lon="9.79278"><ele>844.9999999999999</ele><time>2026-04-19T09:10:21.054Z</time></trkpt><trkpt lat="44.7185733" lon="9.792835"><ele>845.0</ele><time>2026-04-19T09:10:22.052Z</time></trkpt><trkpt lat="44.718625" lon="9.7928967"><ele>847.0000000000001</ele><time>2026-04-19T09:10:23.055Z</time></trkpt><trkpt lat="44.7186733" lon="9.792955"><ele>849.0</ele><time>2026-04-19T09:10:24.054Z</time></trkpt><trkpt lat="44.718725" lon="9.7930067"><ele>851.0</ele><time>2026-04-19T09:10:25.054Z</time></trkpt><trkpt lat="44.7188167" lon="9.7931317"><ele>853.0</ele><time>2026-04-19T09:10:27.053Z</time></trkpt><trkpt lat="44.7188617" lon="9.793205"><ele>855.0000000000001</ele><time>2026-04-19T09:10:28.055Z</time></trkpt><trkpt lat="44.7189" lon="9.79329"><ele>857.0</ele><time>2026-04-19T09:10:29.053Z</time></trkpt><trkpt lat="44.718935" lon="9.7933833"><ele>857.0000000000001</ele><time>2026-04-19T09:10:30.054Z</time></trkpt><trkpt lat="44.7189717" lon="9.7934767"><ele>857.0</ele><time>2026-04-19T09:10:31.053Z</time></trkpt><trkpt lat="44.7189967" lon="9.79358"><ele>857.0</ele><time>2026-04-19T09:10:32.053Z</time></trkpt><trkpt lat="44.7190267" lon="9.793685"><ele>857.0</ele><time>2026-04-19T09:10:33.053Z</time></trkpt><trkpt lat="44.7190567" lon="9.7937933"><ele>857.0000000000001</ele><time>2026-04-19T09:10:34.055Z</time></trkpt><trkpt lat="44.7190783" lon="9.7939067"><ele>857.0</ele><time>2026-04-19T09:10:35.054Z</time></trkpt><trkpt lat="44.7190983" lon="9.7939917"><ele>855.5000000000001</ele><time>2026-04-19T09:10:36.054Z</time></trkpt><trkpt lat="44.7191117" lon="9.7941083"><ele>854.0</ele><time>2026-04-19T09:10:38.053Z</time></trkpt><trkpt lat="44.7190533" lon="9.7942117"><ele>852.5</ele><time>2026-04-19T09:10:42.055Z</time></trkpt><trkpt lat="44.718925" lon="9.7942483"><ele>851.0</ele><time>2026-04-19T09:10:44.053Z</time></trkpt><trkpt lat="44.7188633" lon="9.7942733"><ele>849.5000000000001</ele><time>2026-04-19T09:10:45.054Z</time></trkpt><trkpt lat="44.7188017" lon="9.7943"><ele>848.0</ele><time>2026-04-19T09:10:46.055Z</time></trkpt><trkpt lat="44.718705" lon="9.79437"><ele>846.8333333333334</ele><time>2026-04-19T09:10:48.054Z</time></trkpt><trkpt lat="44.71866" lon="9.7944883"><ele>845.6666666666667</ele><time>2026-04-19T09:10:50.053Z</time></trkpt><trkpt lat="44.718665" lon="9.7945783"><ele>844.5</ele><time>2026-04-19T09:10:51.053Z</time></trkpt><trkpt lat="44.718685" lon="9.794695"><ele>843.3333333333333</ele><time>2026-04-19T09:10:52.053Z</time></trkpt><trkpt lat="44.7187017" lon="9.79482"><ele>842.1666666666666</ele><time>2026-04-19T09:10:53.055Z</time></trkpt><trkpt lat="44.718715" lon="9.7949483"><ele>841.0</ele><time>2026-04-19T09:10:54.054Z</time></trkpt><trkpt lat="44.7187267" lon="9.7950767"><ele>839.6666666666666</ele><time>2026-04-19T09:10:55.053Z</time></trkpt><trkpt lat="44.7187333" lon="9.7952"><ele>838.3333333333333</ele><time>2026-04-19T09:10:56.054Z</time></trkpt><trkpt lat="44.7187367" lon="9.7953083"><ele>837.0</ele><time>2026-04-19T09:10:57.054Z</time></trkpt><trkpt lat="44.718735" lon="9.7954117"><ele>835.6666666666667</ele><time>2026-04-19T09:10:58.053Z</time></trkpt><trkpt lat="44.7187217" lon="9.7955067"><ele>834.3333333333334</ele><time>2026-04-19T09:10:59.054Z</time></trkpt><trkpt lat="44.7186983" lon="9.795595"><ele>833.0</ele><time>2026-04-19T09:11:00.055Z</time></trkpt><trkpt lat="44.7186367" lon="9.7957433"><ele>833.0000000000001</ele><time>2026-04-19T09:11:02.054Z</time></trkpt><trkpt lat="44.71859" lon="9.7958067"><ele>833.0</ele><time>2026-04-19T09:11:03.053Z</time></trkpt><trkpt lat="44.718545" lon="9.7958717"><ele>833.0</ele><time>2026-04-19T09:11:04.054Z</time></trkpt><trkpt lat="44.7184717" lon="9.7959967"><ele>833.0</ele><time>2026-04-19T09:11:06.056Z</time></trkpt><trkpt lat="44.7184067" lon="9.79611"><ele>833.0000000000001</ele><time>2026-04-19T09:11:08.056Z</time></trkpt><trkpt lat="44.7183533" lon="9.79621"><ele>833.0</ele><time>2026-04-19T09:11:10.053Z</time></trkpt><trkpt lat="44.71833" lon="9.796315"><ele>829.8</ele><time>2026-04-19T09:11:12.055Z</time></trkpt><trkpt lat="44.7183533" lon="9.79643"><ele>826.5999999999999</ele><time>2026-04-19T09:11:14.054Z</time></trkpt><trkpt lat="44.7183983" lon="9.7965433"><ele>823.4000000000001</ele><time>2026-04-19T09:11:16.053Z</time></trkpt><trkpt lat="44.71846" lon="9.796635"><ele>820.2</ele><time>2026-04-19T09:11:18.054Z</time></trkpt><trkpt lat="44.7185533" lon="9.796715"><ele>817.0</ele><time>2026-04-19T09:11:20.054Z</time></trkpt><trkpt lat="44.718645" lon="9.7967917"><ele>810.2</ele><time>2026-04-19T09:11:22.057Z</time></trkpt><trkpt lat="44.718745" lon="9.7968967"><ele>803.4000000000001</ele><time>2026-04-19T09:11:24.055Z</time></trkpt><trkpt lat="44.7187933" lon="9.79697"><ele>796.5999999999999</ele><time>2026-04-19T09:11:25.054Z</time></trkpt><trkpt lat="44.7188417" lon="9.7970317"><ele>789.8</ele><time>2026-04-19T09:11:26.056Z</time></trkpt><trkpt lat="44.7189367" lon="9.797135"><ele>783.0</ele><time>2026-04-19T09:11:28.053Z</time></trkpt><trkpt lat="44.7190133" lon="9.797235"><ele>783.0</ele><time>2026-04-19T09:11:30.054Z</time></trkpt><trkpt lat="44.7190583" lon="9.7973667"><ele>783.0</ele><time>2026-04-19T09:11:32.055Z</time></trkpt><trkpt lat="44.7190667" lon="9.7975283"><ele>783.0</ele><time>2026-04-19T09:11:34.053Z</time></trkpt><trkpt lat="44.7190767" lon="9.7976167"><ele>783.0</ele><time>2026-04-19T09:11:35.054Z</time></trkpt><trkpt lat="44.7190983" lon="9.7977033"><ele>783.0</ele><time>2026-04-19T09:11:36.057Z</time></trkpt><trkpt lat="44.71914" lon="9.79783"><ele>783.0</ele><time>2026-04-19T09:11:38.054Z</time></trkpt><trkpt lat="44.7192217" lon="9.797915"><ele>782.2</ele><time>2026-04-19T09:12:05.053Z</time></trkpt><trkpt lat="44.7193033" lon="9.7978783"><ele>781.4</ele><time>2026-04-19T09:12:07.054Z</time></trkpt><trkpt lat="44.7194217" lon="9.7978567"><ele>780.6</ele><time>2026-04-19T09:12:09.054Z</time></trkpt><trkpt lat="44.719495" lon="9.7978783"><ele>779.8000000000001</ele><time>2026-04-19T09:12:10.053Z</time></trkpt><trkpt lat="44.71956" lon="9.7979"><ele>779.0</ele><time>2026-04-19T09:12:11.053Z</time></trkpt><trkpt lat="44.71967" lon="9.7979133"><ele>779.0000000000001</ele><time>2026-04-19T09:12:13.053Z</time></trkpt><trkpt lat="44.7197517" lon="9.7978217"><ele>779.0</ele><time>2026-04-19T09:12:15.052Z</time></trkpt><trkpt lat="44.7198533" lon="9.7977683"><ele>779.0</ele><time>2026-04-19T09:12:17.054Z</time></trkpt><trkpt lat="44.71992" lon="9.7977633"><ele>779.0</ele><time>2026-04-19T09:12:18.054Z</time></trkpt><trkpt lat="44.7199917" lon="9.7977667"><ele>779.0000000000001</ele><time>2026-04-19T09:12:19.053Z</time></trkpt><trkpt lat="44.7200633" lon="9.7977683"><ele>779.0</ele><time>2026-04-19T09:12:20.055Z</time></trkpt><trkpt lat="44.7201367" lon="9.7977733"><ele>783.2</ele><time>2026-04-19T09:12:21.055Z</time></trkpt><trkpt lat="44.7202467" lon="9.79778"><ele>787.4000000000001</ele><time>2026-04-19T09:12:23.054Z</time></trkpt><trkpt lat="44.7203367" lon="9.79783"><ele>791.6</ele><time>2026-04-19T09:12:25.053Z</time></trkpt><trkpt lat="44.720445" lon="9.7978967"><ele>795.8</ele><time>2026-04-19T09:12:27.054Z</time></trkpt><trkpt lat="44.7205183" lon="9.7979317"><ele>800.0</ele><time>2026-04-19T09:12:28.052Z</time></trkpt><trkpt lat="44.7206017" lon="9.7979683"><ele>800.0</ele><time>2026-04-19T09:12:29.054Z</time></trkpt><trkpt lat="44.7206867" lon="9.798015"><ele>800.0</ele><time>2026-04-19T09:12:30.052Z</time></trkpt><trkpt lat="44.7207717" lon="9.7980633"><ele>800.0</ele><time>2026-04-19T09:12:31.052Z</time></trkpt><trkpt lat="44.7208533" lon="9.798125"><ele>800.0</ele><time>2026-04-19T09:12:32.054Z</time></trkpt><trkpt lat="44.72093" lon="9.798185"><ele>800.0</ele><time>2026-04-19T09:12:33.053Z</time></trkpt><trkpt lat="44.721005" lon="9.7982517"><ele>799.5000000000001</ele><time>2026-04-19T09:12:34.053Z</time></trkpt><trkpt lat="44.72108" lon="9.7983183"><ele>799.0</ele><time>2026-04-19T09:12:35.053Z</time></trkpt><trkpt lat="44.7211567" lon="9.7983717"><ele>798.5</ele><time>2026-04-19T09:12:36.053Z</time></trkpt><trkpt lat="44.7212283" lon="9.7984233"><ele>798.0</ele><time>2026-04-19T09:12:37.055Z</time></trkpt><trkpt lat="44.72131" lon="9.798465"><ele>797.5000000000001</ele><time>2026-04-19T09:12:38.055Z</time></trkpt><trkpt lat="44.7213867" lon="9.7985083"><ele>797.0</ele><time>2026-04-19T09:12:39.054Z</time></trkpt><trkpt lat="44.7214533" lon="9.7985633"><ele>797.0000000000001</ele><time>2026-04-19T09:12:40.054Z</time></trkpt><trkpt lat="44.721515" lon="9.7986017"><ele>797.0</ele><time>2026-04-19T09:12:41.053Z</time></trkpt><trkpt lat="44.7215867" lon="9.7986283"><ele>797.0</ele><time>2026-04-19T09:12:42.054Z</time></trkpt><trkpt lat="44.72167" lon="9.79864"><ele>797.0</ele><time>2026-04-19T09:12:43.053Z</time></trkpt><trkpt lat="44.721755" lon="9.7986417"><ele>797.0000000000001</ele><time>2026-04-19T09:12:44.054Z</time></trkpt><trkpt lat="44.7218283" lon="9.798625"><ele>797.0</ele><time>2026-04-19T09:12:45.052Z</time></trkpt><trkpt lat="44.7219267" lon="9.7985717"><ele>799.8</ele><time>2026-04-19T09:12:47.053Z</time></trkpt><trkpt lat="44.7220317" lon="9.79848"><ele>802.6</ele><time>2026-04-19T09:12:49.053Z</time></trkpt><trkpt lat="44.7220867" lon="9.798435"><ele>805.4</ele><time>2026-04-19T09:12:50.054Z</time></trkpt><trkpt lat="44.7221783" lon="9.7983483"><ele>808.1999999999999</ele><time>2026-04-19T09:12:52.053Z</time></trkpt><trkpt lat="44.7222833" lon="9.7983033"><ele>811.0</ele><time>2026-04-19T09:12:54.054Z</time></trkpt><trkpt lat="44.72238" lon="9.7982817"><ele>811.0</ele><time>2026-04-19T09:12:56.055Z</time></trkpt><trkpt lat="44.7224567" lon="9.7982633"><ele>811.0</ele><time>2026-04-19T09:12:58.052Z</time></trkpt><trkpt lat="44.7225283" lon="9.79823"><ele>811.0</ele><time>2026-04-19T09:13:00.054Z</time></trkpt><trkpt lat="44.7226267" lon="9.79822"><ele>811.0</ele><time>2026-04-19T09:13:03.053Z</time></trkpt><trkpt lat="44.722695" lon="9.7982933"><ele>811.0</ele><time>2026-04-19T09:13:05.055Z</time></trkpt><trkpt lat="44.72276" lon="9.7984267"><ele>810.4999999999999</ele><time>2026-04-19T09:13:07.054Z</time></trkpt><trkpt lat="44.722805" lon="9.7985"><ele>810.0</ele><time>2026-04-19T09:13:08.053Z</time></trkpt><trkpt lat="44.7228417" lon="9.7985833"><ele>809.5</ele><time>2026-04-19T09:13:09.053Z</time></trkpt><trkpt lat="44.722905" lon="9.798685"><ele>809.0</ele><time>2026-04-19T09:13:11.054Z</time></trkpt><trkpt lat="44.723005" lon="9.7986783"><ele>808.4999999999999</ele><time>2026-04-19T09:13:14.054Z</time></trkpt><trkpt lat="44.7230933" lon="9.7987183"><ele>808.0</ele><time>2026-04-19T09:13:16.053Z</time></trkpt><trkpt lat="44.7231817" lon="9.7987517"><ele>807.9999999999999</ele><time>2026-04-19T09:13:18.054Z</time></trkpt><trkpt lat="44.72325" lon="9.7988117"><ele>808.0</ele><time>2026-04-19T09:13:20.053Z</time></trkpt><trkpt lat="44.72325" lon="9.7989617"><ele>808.0</ele><time>2026-04-19T09:13:22.054Z</time></trkpt><trkpt lat="44.72323" lon="9.7990633"><ele>808.0</ele><time>2026-04-19T09:13:23.053Z</time></trkpt><trkpt lat="44.7232467" lon="9.7992217"><ele>807.9999999999999</ele><time>2026-04-19T09:13:24.054Z</time></trkpt><trkpt lat="44.7232483" lon="9.799315"><ele>808.0</ele><time>2026-04-19T09:13:25.053Z</time></trkpt><trkpt lat="44.7232183" lon="9.7994083"><ele>805.4</ele><time>2026-04-19T09:13:27.053Z</time></trkpt><trkpt lat="44.723135" lon="9.7994983"><ele>802.8</ele><time>2026-04-19T09:13:29.054Z</time></trkpt><trkpt lat="44.723075" lon="9.7995383"><ele>800.2</ele><time>2026-04-19T09:13:30.054Z</time></trkpt><trkpt lat="44.7229817" lon="9.799635"><ele>797.6</ele><time>2026-04-19T09:13:32.053Z</time></trkpt><trkpt lat="44.7229133" lon="9.79974"><ele>795.0</ele><time>2026-04-19T09:13:34.054Z</time></trkpt><trkpt lat="44.7229" lon="9.7998667"><ele>795.0</ele><time>2026-04-19T09:13:36.054Z</time></trkpt><trkpt lat="44.72292" lon="9.799975"><ele>795.0</ele><time>2026-04-19T09:13:38.054Z</time></trkpt><trkpt lat="44.7229133" lon="9.80011"><ele>795.0</ele><time>2026-04-19T09:13:40.053Z</time></trkpt><trkpt lat="44.7228733" lon="9.8002717"><ele>795.0</ele><time>2026-04-19T09:13:42.054Z</time></trkpt><trkpt lat="44.7228483" lon="9.80037"><ele>795.0</ele><time>2026-04-19T09:13:43.053Z</time></trkpt><trkpt lat="44.72282" lon="9.8004633"><ele>795.0</ele><time>2026-04-19T09:13:44.053Z</time></trkpt><trkpt lat="44.7227833" lon="9.8005533"><ele>793.1666666666666</ele><time>2026-04-19T09:13:45.054Z</time></trkpt><trkpt lat="44.72275" lon="9.8006367"><ele>791.3333333333333</ele><time>2026-04-19T09:13:46.053Z</time></trkpt><trkpt lat="44.722715" lon="9.8007117"><ele>789.5</ele><time>2026-04-19T09:13:47.054Z</time></trkpt><trkpt lat="44.722665" lon="9.80077"><ele>787.6666666666666</ele><time>2026-04-19T09:13:48.055Z</time></trkpt><trkpt lat="44.7225783" lon="9.8008783"><ele>785.8333333333333</ele><time>2026-04-19T09:13:50.055Z</time></trkpt><trkpt lat="44.722505" lon="9.80101"><ele>784.0</ele><time>2026-04-19T09:13:52.053Z</time></trkpt><trkpt lat="44.7224733" lon="9.8011"><ele>781.4999999999999</ele><time>2026-04-19T09:13:53.055Z</time></trkpt><trkpt lat="44.72245" lon="9.801185"><ele>779.0</ele><time>2026-04-19T09:13:54.053Z</time></trkpt><trkpt lat="44.7224517" lon="9.8012783"><ele>776.5</ele><time>2026-04-19T09:13:55.053Z</time></trkpt><trkpt lat="44.7224633" lon="9.8014267"><ele>774.0</ele><time>2026-04-19T09:13:57.055Z</time></trkpt><trkpt lat="44.7224817" lon="9.801555"><ele>771.4999999999999</ele><time>2026-04-19T09:13:59.054Z</time></trkpt><trkpt lat="44.7225367" lon="9.80167"><ele>769.0</ele><time>2026-04-19T09:14:01.053Z</time></trkpt><trkpt lat="44.7226117" lon="9.8017283"><ele>769.0</ele><time>2026-04-19T09:14:03.053Z</time></trkpt><trkpt lat="44.722665" lon="9.8018217"><ele>769.0</ele><time>2026-04-19T09:14:05.054Z</time></trkpt><trkpt lat="44.722705" lon="9.8019817"><ele>769.0</ele><time>2026-04-19T09:14:07.054Z</time></trkpt><trkpt lat="44.7227383" lon="9.80212"><ele>769.0</ele><time>2026-04-19T09:14:09.054Z</time></trkpt><trkpt lat="44.7227917" lon="9.8022717"><ele>769.0</ele><time>2026-04-19T09:14:11.054Z</time></trkpt><trkpt lat="44.722845" lon="9.8023467"><ele>768.6</ele><time>2026-04-19T09:14:12.055Z</time></trkpt><trkpt lat="44.7229067" lon="9.8024433"><ele>768.2</ele><time>2026-04-19T09:14:13.053Z</time></trkpt><trkpt lat="44.7229767" lon="9.8025317"><ele>767.8000000000001</ele><time>2026-04-19T09:14:14.057Z</time></trkpt><trkpt lat="44.7230767" lon="9.802635"><ele>767.4000000000001</ele><time>2026-04-19T09:14:15.054Z</time></trkpt><trkpt lat="44.7231633" lon="9.80272"><ele>767.0</ele><time>2026-04-19T09:14:16.053Z</time></trkpt><trkpt lat="44.723245" lon="9.80278"><ele>766.3333333333333</ele><time>2026-04-19T09:14:17.052Z</time></trkpt><trkpt lat="44.7233067" lon="9.8028167"><ele>765.6666666666666</ele><time>2026-04-19T09:14:18.054Z</time></trkpt><trkpt lat="44.7233917" lon="9.8028117"><ele>765.0</ele><time>2026-04-19T09:14:20.053Z</time></trkpt><trkpt lat="44.72347" lon="9.802825"><ele>764.3333333333334</ele><time>2026-04-19T09:14:22.052Z</time></trkpt><trkpt lat="44.7235567" lon="9.8028783"><ele>763.6666666666667</ele><time>2026-04-19T09:14:24.053Z</time></trkpt><trkpt lat="44.72364" lon="9.8029767"><ele>763.0</ele><time>2026-04-19T09:14:26.054Z</time></trkpt><trkpt lat="44.723715" lon="9.8030817"><ele>763.0</ele><time>2026-04-19T09:14:28.054Z</time></trkpt><trkpt lat="44.723785" lon="9.8031933"><ele>763.0</ele><time>2026-04-19T09:14:30.052Z</time></trkpt><trkpt lat="44.7238467" lon="9.803305"><ele>763.0</ele><time>2026-04-19T09:14:32.053Z</time></trkpt><trkpt lat="44.7238883" lon="9.8034133"><ele>763.0</ele><time>2026-04-19T09:14:34.053Z</time></trkpt><trkpt lat="44.7239333" lon="9.80348"><ele>763.0</ele><time>2026-04-19T09:14:36.053Z</time></trkpt><trkpt lat="44.7240133" lon="9.8035383"><ele>763.0</ele><time>2026-04-19T09:14:39.053Z</time></trkpt><trkpt lat="44.7240967" lon="9.8034817"><ele>763.0</ele><time>2026-04-19T09:14:41.054Z</time></trkpt><trkpt lat="44.72419" lon="9.80342"><ele>763.0</ele><time>2026-04-19T09:14:43.052Z</time></trkpt><trkpt lat="44.7242833" lon="9.8033717"><ele>763.0</ele><time>2026-04-19T09:14:45.052Z</time></trkpt><trkpt lat="44.7243683" lon="9.8032867"><ele>763.0</ele><time>2026-04-19T09:14:47.051Z</time></trkpt><trkpt lat="44.7244267" lon="9.80318"><ele>763.0</ele><time>2026-04-19T09:14:49.053Z</time></trkpt><trkpt lat="44.7245283" lon="9.8031017"><ele>762.0</ele><time>2026-04-19T09:14:51.054Z</time></trkpt><trkpt lat="44.724585" lon="9.80305"><ele>761.0</ele><time>2026-04-19T09:14:52.053Z</time></trkpt><trkpt lat="44.72465" lon="9.8029867"><ele>760.0</ele><time>2026-04-19T09:14:53.054Z</time></trkpt><trkpt lat="44.724715" lon="9.8029333"><ele>759.0</ele><time>2026-04-19T09:14:54.055Z</time></trkpt><trkpt lat="44.72478" lon="9.80288"><ele>758.0</ele><time>2026-04-19T09:14:55.056Z</time></trkpt><trkpt lat="44.7248467" lon="9.8028133"><ele>757.0</ele><time>2026-04-19T09:14:56.055Z</time></trkpt><trkpt lat="44.724905" lon="9.802745"><ele>759.8</ele><time>2026-04-19T09:14:57.056Z</time></trkpt><trkpt lat="44.7249633" lon="9.8026183"><ele>762.6</ele><time>2026-04-19T09:14:59.056Z</time></trkpt><trkpt lat="44.7249767" lon="9.8024733"><ele>765.4</ele><time>2026-04-19T09:15:01.055Z</time></trkpt><trkpt lat="44.7250133" lon="9.8023283"><ele>768.1999999999999</ele><time>2026-04-19T09:15:03.055Z</time></trkpt><trkpt lat="44.7250583" lon="9.8021783"><ele>771.0</ele><time>2026-04-19T09:15:05.058Z</time></trkpt><trkpt lat="44.725115" lon="9.8021067"><ele>774.25</ele><time>2026-04-19T09:15:07.057Z</time></trkpt><trkpt lat="44.7252533" lon="9.802175"><ele>777.5</ele><time>2026-04-19T09:15:09.055Z</time></trkpt><trkpt lat="44.7253467" lon="9.8022167"><ele>780.75</ele><time>2026-04-19T09:15:11.055Z</time></trkpt><trkpt lat="44.72549" lon="9.8022483"><ele>784.0</ele><time>2026-04-19T09:15:22.055Z</time></trkpt><trkpt lat="44.7255983" lon="9.8022917"><ele>784.0</ele><time>2026-04-19T09:15:24.056Z</time></trkpt><trkpt lat="44.725705" lon="9.80236"><ele>784.0</ele><time>2026-04-19T09:15:26.055Z</time></trkpt><trkpt lat="44.7257683" lon="9.8024483"><ele>784.0</ele><time>2026-04-19T09:15:27.056Z</time></trkpt><trkpt lat="44.725855" lon="9.8024933"><ele>784.0</ele><time>2026-04-19T09:15:28.055Z</time></trkpt><trkpt lat="44.725945" lon="9.802555"><ele>784.0</ele><time>2026-04-19T09:15:29.055Z</time></trkpt><trkpt lat="44.726025" lon="9.8025833"><ele>784.4000000000001</ele><time>2026-04-19T09:15:30.053Z</time></trkpt><trkpt lat="44.726115" lon="9.8026117"><ele>784.8</ele><time>2026-04-19T09:15:31.055Z</time></trkpt><trkpt lat="44.726215" lon="9.8026333"><ele>785.2</ele><time>2026-04-19T09:15:32.055Z</time></trkpt><trkpt lat="44.7263033" lon="9.80267"><ele>785.5999999999999</ele><time>2026-04-19T09:15:33.054Z</time></trkpt><trkpt lat="44.7264" lon="9.802695"><ele>786.0</ele><time>2026-04-19T09:15:34.055Z</time></trkpt><trkpt lat="44.7264983" lon="9.8027217"><ele>786.0</ele><time>2026-04-19T09:15:35.053Z</time></trkpt><trkpt lat="44.72659" lon="9.8027317"><ele>786.0</ele><time>2026-04-19T09:15:36.055Z</time></trkpt><trkpt lat="44.7266833" lon="9.8027417"><ele>786.0</ele><time>2026-04-19T09:15:37.056Z</time></trkpt><trkpt lat="44.7267733" lon="9.802765"><ele>786.0</ele><time>2026-04-19T09:15:38.053Z</time></trkpt><trkpt lat="44.7268517" lon="9.8027783"><ele>786.0</ele><time>2026-04-19T09:15:39.053Z</time></trkpt><trkpt lat="44.72694" lon="9.8028033"><ele>786.0</ele><time>2026-04-19T09:15:40.054Z</time></trkpt><trkpt lat="44.7270283" lon="9.80282"><ele>787.8333333333334</ele><time>2026-04-19T09:15:41.053Z</time></trkpt><trkpt lat="44.72712" lon="9.8028233"><ele>789.6666666666667</ele><time>2026-04-19T09:15:42.055Z</time></trkpt><trkpt lat="44.7272067" lon="9.8028283"><ele>791.5</ele><time>2026-04-19T09:15:43.056Z</time></trkpt><trkpt lat="44.727295" lon="9.802845"><ele>793.3333333333334</ele><time>2026-04-19T09:15:44.056Z</time></trkpt><trkpt lat="44.7273817" lon="9.80285"><ele>795.1666666666667</ele><time>2026-04-19T09:15:45.054Z</time></trkpt><trkpt lat="44.7274717" lon="9.80286"><ele>797.0</ele><time>2026-04-19T09:15:46.054Z</time></trkpt><trkpt lat="44.7275383" lon="9.8028667"><ele>797.0000000000001</ele><time>2026-04-19T09:15:47.055Z</time></trkpt><trkpt lat="44.72762" lon="9.802875"><ele>797.0</ele><time>2026-04-19T09:15:48.055Z</time></trkpt><trkpt lat="44.7276983" lon="9.8028767"><ele>797.0</ele><time>2026-04-19T09:15:49.056Z</time></trkpt><trkpt lat="44.72778" lon="9.802895"><ele>797.0</ele><time>2026-04-19T09:15:50.056Z</time></trkpt><trkpt lat="44.7278617" lon="9.80291"><ele>797.0000000000001</ele><time>2026-04-19T09:15:51.055Z</time></trkpt><trkpt lat="44.7279417" lon="9.8029217"><ele>797.0</ele><time>2026-04-19T09:15:52.056Z</time></trkpt><trkpt lat="44.7280283" lon="9.8029117"><ele>798.6666666666667</ele><time>2026-04-19T09:15:53.055Z</time></trkpt><trkpt lat="44.7281117" lon="9.80289"><ele>800.3333333333334</ele><time>2026-04-19T09:15:54.057Z</time></trkpt><trkpt lat="44.7281883" lon="9.802865"><ele>802.0</ele><time>2026-04-19T09:15:55.055Z</time></trkpt><trkpt lat="44.7282617" lon="9.80284"><ele>803.6666666666667</ele><time>2026-04-19T09:15:56.057Z</time></trkpt><trkpt lat="44.7283267" lon="9.8028217"><ele>805.3333333333334</ele><time>2026-04-19T09:15:57.057Z</time></trkpt><trkpt lat="44.7284233" lon="9.8028367"><ele>807.0</ele><time>2026-04-19T09:15:59.054Z</time></trkpt><trkpt lat="44.728495" lon="9.802835"><ele>808.5</ele><time>2026-04-19T09:16:02.056Z</time></trkpt><trkpt lat="44.7285717" lon="9.80285"><ele>810.0</ele><time>2026-04-19T09:16:10.055Z</time></trkpt><trkpt lat="44.728655" lon="9.80287"><ele>811.5</ele><time>2026-04-19T09:16:13.055Z</time></trkpt><trkpt lat="44.728775" lon="9.802865"><ele>813.0</ele><time>2026-04-19T09:16:15.055Z</time></trkpt><trkpt lat="44.7288417" lon="9.8028417"><ele>814.5</ele><time>2026-04-19T09:16:16.055Z</time></trkpt><trkpt lat="44.7289017" lon="9.8028083"><ele>816.0</ele><time>2026-04-19T09:16:17.055Z</time></trkpt><trkpt lat="44.7289717" lon="9.80276"><ele>816.0</ele><time>2026-04-19T09:16:18.054Z</time></trkpt><trkpt lat="44.7290417" lon="9.8027167"><ele>816.0</ele><time>2026-04-19T09:16:19.054Z</time></trkpt><trkpt lat="44.7291017" lon="9.8026717"><ele>816.0</ele><time>2026-04-19T09:16:20.055Z</time></trkpt><trkpt lat="44.7291767" lon="9.80263"><ele>816.0</ele><time>2026-04-19T09:16:22.056Z</time></trkpt><trkpt lat="44.7292483" lon="9.8026833"><ele>816.0</ele><time>2026-04-19T09:16:24.056Z</time></trkpt><trkpt lat="44.7292867" lon="9.8027783"><ele>816.0</ele><time>2026-04-19T09:16:25.054Z</time></trkpt><trkpt lat="44.729315" lon="9.8028633"><ele>816.0</ele><time>2026-04-19T09:16:26.055Z</time></trkpt><trkpt lat="44.72935" lon="9.802975"><ele>816.0</ele><time>2026-04-19T09:16:27.055Z</time></trkpt><trkpt lat="44.7293817" lon="9.8030767"><ele>816.0</ele><time>2026-04-19T09:16:28.054Z</time></trkpt><trkpt lat="44.7294183" lon="9.8031667"><ele>816.0</ele><time>2026-04-19T09:16:29.055Z</time></trkpt><trkpt lat="44.7294567" lon="9.8032483"><ele>816.0</ele><time>2026-04-19T09:16:30.056Z</time></trkpt><trkpt lat="44.7295183" lon="9.8033267"><ele>816.0</ele><time>2026-04-19T09:16:31.053Z</time></trkpt><trkpt lat="44.7296" lon="9.803395"><ele>816.1666666666666</ele><time>2026-04-19T09:16:32.056Z</time></trkpt><trkpt lat="44.7296733" lon="9.8034567"><ele>816.3333333333333</ele><time>2026-04-19T09:16:33.054Z</time></trkpt><trkpt lat="44.7297733" lon="9.8035167"><ele>816.5</ele><time>2026-04-19T09:16:35.055Z</time></trkpt><trkpt lat="44.7298483" lon="9.8035567"><ele>816.6666666666666</ele><time>2026-04-19T09:16:37.054Z</time></trkpt><trkpt lat="44.7298983" lon="9.8036233"><ele>816.8333333333333</ele><time>2026-04-19T09:16:39.056Z</time></trkpt><trkpt lat="44.7299583" lon="9.8036717"><ele>817.0</ele><time>2026-04-19T09:16:41.056Z</time></trkpt><trkpt lat="44.730025" lon="9.8036617"><ele>816.9999999999999</ele><time>2026-04-19T09:16:43.054Z</time></trkpt><trkpt lat="44.73011" lon="9.8035533"><ele>817.0</ele><time>2026-04-19T09:16:45.053Z</time></trkpt><trkpt lat="44.7301567" lon="9.8034917"><ele>817.0</ele><time>2026-04-19T09:16:46.054Z</time></trkpt><trkpt lat="44.7302083" lon="9.8034333"><ele>817.0</ele><time>2026-04-19T09:16:47.055Z</time></trkpt><trkpt lat="44.73028" lon="9.8033767"><ele>816.9999999999999</ele><time>2026-04-19T09:16:48.055Z</time></trkpt><trkpt lat="44.730345" lon="9.803325"><ele>817.0</ele><time>2026-04-19T09:16:49.054Z</time></trkpt><trkpt lat="44.7304183" lon="9.8032867"><ele>817.6</ele><time>2026-04-19T09:16:50.056Z</time></trkpt><trkpt lat="44.7304983" lon="9.803255"><ele>818.2</ele><time>2026-04-19T09:16:51.055Z</time></trkpt><trkpt lat="44.7305883" lon="9.8032517"><ele>818.8</ele><time>2026-04-19T09:16:52.056Z</time></trkpt><trkpt lat="44.7306833" lon="9.8032783"><ele>819.4</ele><time>2026-04-19T09:16:53.054Z</time></trkpt><trkpt lat="44.7307817" lon="9.803305"><ele>820.0</ele><time>2026-04-19T09:16:54.056Z</time></trkpt><trkpt lat="44.7308683" lon="9.8033383"><ele>819.9999999999999</ele><time>2026-04-19T09:16:55.056Z</time></trkpt><trkpt lat="44.730945" lon="9.803375"><ele>820.0</ele><time>2026-04-19T09:16:56.055Z</time></trkpt><trkpt lat="44.73101" lon="9.8033983"><ele>820.0</ele><time>2026-04-19T09:16:57.054Z</time></trkpt><trkpt lat="44.7311267" lon="9.8034283"><ele>820.0</ele><time>2026-04-19T09:16:59.056Z</time></trkpt><trkpt lat="44.731215" lon="9.8034633"><ele>819.9999999999999</ele><time>2026-04-19T09:17:01.053Z</time></trkpt><trkpt lat="44.7312833" lon="9.8034983"><ele>820.0</ele><time>2026-04-19T09:17:03.053Z</time></trkpt><trkpt lat="44.731375" lon="9.8035617"><ele>820.4</ele><time>2026-04-19T09:17:05.054Z</time></trkpt><trkpt lat="44.7314483" lon="9.80371"><ele>820.8</ele><time>2026-04-19T09:17:07.053Z</time></trkpt><trkpt lat="44.7314633" lon="9.8038333"><ele>821.2</ele><time>2026-04-19T09:17:08.054Z</time></trkpt><trkpt lat="44.7314733" lon="9.8039733"><ele>821.6</ele><time>2026-04-19T09:17:09.055Z</time></trkpt><trkpt lat="44.7314817" lon="9.8041133"><ele>822.0</ele><time>2026-04-19T09:17:10.053Z</time></trkpt><trkpt lat="44.7315017" lon="9.8042317"><ele>822.0</ele><time>2026-04-19T09:17:11.053Z</time></trkpt><trkpt lat="44.73153" lon="9.8043267"><ele>822.0</ele><time>2026-04-19T09:17:12.053Z</time></trkpt><trkpt lat="44.7315467" lon="9.804465"><ele>822.0</ele><time>2026-04-19T09:17:14.055Z</time></trkpt><trkpt lat="44.7315667" lon="9.8045917"><ele>822.0</ele><time>2026-04-19T09:17:17.053Z</time></trkpt><trkpt lat="44.731605" lon="9.804695"><ele>822.0</ele><time>2026-04-19T09:17:19.055Z</time></trkpt><trkpt lat="44.7316067" lon="9.8047917"><ele>822.0</ele><time>2026-04-19T09:17:21.056Z</time></trkpt><trkpt lat="44.731575" lon="9.8048933"><ele>823.3333333333334</ele><time>2026-04-19T09:17:29.053Z</time></trkpt><trkpt lat="44.7315733" lon="9.804985"><ele>824.6666666666667</ele><time>2026-04-19T09:17:31.053Z</time></trkpt><trkpt lat="44.7315867" lon="9.8051433"><ele>826.0</ele><time>2026-04-19T09:17:33.055Z</time></trkpt><trkpt lat="44.7315967" lon="9.80526"><ele>827.3333333333334</ele><time>2026-04-19T09:17:34.054Z</time></trkpt><trkpt lat="44.7315983" lon="9.80538"><ele>828.6666666666667</ele><time>2026-04-19T09:17:35.055Z</time></trkpt><trkpt lat="44.7316033" lon="9.8054933"><ele>830.0</ele><time>2026-04-19T09:17:36.054Z</time></trkpt><trkpt lat="44.7316083" lon="9.8056"><ele>830.1666666666667</ele><time>2026-04-19T09:17:37.056Z</time></trkpt><trkpt lat="44.7316183" lon="9.8056917"><ele>830.3333333333334</ele><time>2026-04-19T09:17:38.056Z</time></trkpt><trkpt lat="44.73164" lon="9.80578"><ele>830.5</ele><time>2026-04-19T09:17:39.055Z</time></trkpt><trkpt lat="44.731665" lon="9.8058633"><ele>830.6666666666667</ele><time>2026-04-19T09:17:40.052Z</time></trkpt><trkpt lat="44.7317233" lon="9.80601"><ele>830.8333333333334</ele><time>2026-04-19T09:17:42.055Z</time></trkpt><trkpt lat="44.7318067" lon="9.806095"><ele>831.0</ele><time>2026-04-19T09:17:44.054Z</time></trkpt><trkpt lat="44.73193" lon="9.80616"><ele>830.0</ele><time>2026-04-19T09:17:46.052Z</time></trkpt><trkpt lat="44.7315667" lon="9.8045917"><ele>830.0000000000001</ele><time>2026-04-19T09:17:17.053Z</time></trkpt><trkpt lat="44.731605" lon="9.804695"><ele>830.0</ele><time>2026-04-19T09:17:19.055Z</time></trkpt><trkpt lat="44.7316067" lon="9.8047917"><ele>830.0</ele><time>2026-04-19T09:17:21.056Z</time></trkpt><trkpt lat="44.731575" lon="9.8048933"><ele>830.0</ele><time>2026-04-19T09:17:29.053Z</time></trkpt><trkpt lat="44.7315733" lon="9.804985"><ele>830.0000000000001</ele><time>2026-04-19T09:17:31.053Z</time></trkpt><trkpt lat="44.7315867" lon="9.8051433"><ele>830.0</ele><time>2026-04-19T09:17:33.055Z</time></trkpt><trkpt lat="44.7315967" lon="9.80526"><ele>830.1428571428571</ele><time>2026-04-19T09:17:34.054Z</time></trkpt><trkpt lat="44.7315983" lon="9.80538"><ele>830.2857142857143</ele><time>2026-04-19T09:17:35.055Z</time></trkpt><trkpt lat="44.7316033" lon="9.8054933"><ele>830.4285714285713</ele><time>2026-04-19T09:17:36.054Z</time></trkpt><trkpt lat="44.7316083" lon="9.8056"><ele>830.5714285714286</ele><time>2026-04-19T09:17:37.056Z</time></trkpt><trkpt lat="44.7316183" lon="9.8056917"><ele>830.7142857142857</ele><time>2026-04-19T09:17:38.056Z</time></trkpt><trkpt lat="44.73164" lon="9.80578"><ele>830.8571428571428</ele><time>2026-04-19T09:17:39.055Z</time></trkpt><trkpt lat="44.731665" lon="9.8058633"><ele>831.0</ele><time>2026-04-19T09:17:40.052Z</time></trkpt><trkpt lat="44.7317233" lon="9.80601"><ele>830.4</ele><time>2026-04-19T09:17:42.055Z</time></trkpt><trkpt lat="44.7318067" lon="9.806095"><ele>829.8</ele><time>2026-04-19T09:17:44.054Z</time></trkpt><trkpt lat="44.73193" lon="9.80616"><ele>829.1999999999999</ele><time>2026-04-19T09:17:46.052Z</time></trkpt><trkpt lat="44.731995" lon="9.8061983"><ele>828.5999999999999</ele><time>2026-04-19T09:17:47.055Z</time></trkpt><trkpt lat="44.7320617" lon="9.8062517"><ele>828.0</ele><time>2026-04-19T09:17:48.055Z</time></trkpt><trkpt lat="44.7321233" lon="9.806305"><ele>831.5999999999999</ele><time>2026-04-19T09:17:49.055Z</time></trkpt><trkpt lat="44.7321833" lon="9.8063567"><ele>835.1999999999999</ele><time>2026-04-19T09:17:50.055Z</time></trkpt><trkpt lat="44.732285" lon="9.8064267"><ele>838.8</ele><time>2026-04-19T09:17:52.055Z</time></trkpt><trkpt lat="44.73238" lon="9.8064417"><ele>842.4</ele><time>2026-04-19T09:17:54.056Z</time></trkpt><trkpt lat="44.7324783" lon="9.8063967"><ele>846.0</ele><time>2026-04-19T09:17:56.056Z</time></trkpt><trkpt lat="44.7325767" lon="9.8063567"><ele>846.0</ele><time>2026-04-19T09:17:58.054Z</time></trkpt><trkpt lat="44.7326733" lon="9.806325"><ele>846.0</ele><time>2026-04-19T09:18:00.055Z</time></trkpt><trkpt lat="44.73277" lon="9.8062917"><ele>846.0</ele><time>2026-04-19T09:18:02.055Z</time></trkpt><trkpt lat="44.73287" lon="9.8062717"><ele>846.0</ele><time>2026-04-19T09:18:04.055Z</time></trkpt><trkpt lat="44.732935" lon="9.8062633"><ele>846.0</ele><time>2026-04-19T09:18:05.057Z</time></trkpt><trkpt lat="44.7330017" lon="9.80626"><ele>846.0</ele><time>2026-04-19T09:18:06.056Z</time></trkpt><trkpt lat="44.733115" lon="9.8062833"><ele>848.0</ele><time>2026-04-19T09:18:08.056Z</time></trkpt><trkpt lat="44.7332167" lon="9.8063567"><ele>850.0</ele><time>2026-04-19T09:18:10.056Z</time></trkpt><trkpt lat="44.73328" lon="9.8064033"><ele>852.0</ele><time>2026-04-19T09:18:11.056Z</time></trkpt><trkpt lat="44.733345" lon="9.8064417"><ele>854.0</ele><time>2026-04-19T09:18:12.054Z</time></trkpt><trkpt lat="44.7334117" lon="9.80647"><ele>856.0</ele><time>2026-04-19T09:18:13.055Z</time></trkpt><trkpt lat="44.73348" lon="9.806495"><ele>858.0</ele><time>2026-04-19T09:18:14.054Z</time></trkpt><trkpt lat="44.7335933" lon="9.806535"><ele>858.5999999999999</ele><time>2026-04-19T09:18:16.054Z</time></trkpt><trkpt lat="44.7337" lon="9.806515"><ele>859.1999999999999</ele><time>2026-04-19T09:18:18.053Z</time></trkpt><trkpt lat="44.7338017" lon="9.8064033"><ele>859.8</ele><time>2026-04-19T09:18:20.054Z</time></trkpt><trkpt lat="44.733875" lon="9.8063333"><ele>860.4</ele><time>2026-04-19T09:18:22.053Z</time></trkpt><trkpt lat="44.73396" lon="9.8063867"><ele>861.0</ele><time>2026-04-19T09:18:24.055Z</time></trkpt><trkpt lat="44.734015" lon="9.806455"><ele>861.0</ele><time>2026-04-19T09:18:25.055Z</time></trkpt><trkpt lat="44.7340867" lon="9.80653"><ele>860.9999999999999</ele><time>2026-04-19T09:18:26.056Z</time></trkpt><trkpt lat="44.7341733" lon="9.8066"><ele>860.9999999999999</ele><time>2026-04-19T09:18:27.056Z</time></trkpt><trkpt lat="44.7342783" lon="9.80666"><ele>861.0</ele><time>2026-04-19T09:18:28.054Z</time></trkpt><trkpt lat="44.73439" lon="9.80671"><ele>861.0</ele><time>2026-04-19T09:18:29.055Z</time></trkpt><trkpt lat="44.7345033" lon="9.8067483"><ele>860.5999999999999</ele><time>2026-04-19T09:18:30.054Z</time></trkpt><trkpt lat="44.734615" lon="9.8067817"><ele>860.1999999999999</ele><time>2026-04-19T09:18:31.055Z</time></trkpt><trkpt lat="44.734725" lon="9.80681"><ele>859.8000000000001</ele><time>2026-04-19T09:18:32.057Z</time></trkpt><trkpt lat="44.734825" lon="9.80683"><ele>859.4000000000001</ele><time>2026-04-19T09:18:33.056Z</time></trkpt><trkpt lat="44.7349233" lon="9.8068467"><ele>859.0</ele><time>2026-04-19T09:18:34.054Z</time></trkpt><trkpt lat="44.735015" lon="9.8068617"><ele>858.8000000000001</ele><time>2026-04-19T09:18:35.054Z</time></trkpt><trkpt lat="44.7350983" lon="9.8068683"><ele>858.6000000000001</ele><time>2026-04-19T09:18:36.056Z</time></trkpt><trkpt lat="44.7351683" lon="9.80688"><ele>858.4</ele><time>2026-04-19T09:18:37.054Z</time></trkpt><trkpt lat="44.735255" lon="9.8069267"><ele>858.2</ele><time>2026-04-19T09:18:39.056Z</time></trkpt><trkpt lat="44.7352583" lon="9.8070267"><ele>858.0</ele><time>2026-04-19T09:18:41.054Z</time></trkpt><trkpt lat="44.73519" lon="9.8071933"><ele>858.0</ele><time>2026-04-19T09:18:43.055Z</time></trkpt><trkpt lat="44.735135" lon="9.807295"><ele>858.0</ele><time>2026-04-19T09:18:44.054Z</time></trkpt><trkpt lat="44.735085" lon="9.807385"><ele>858.0</ele><time>2026-04-19T09:18:45.054Z</time></trkpt><trkpt lat="44.7350517" lon="9.8074683"><ele>858.0</ele><time>2026-04-19T09:18:46.055Z</time></trkpt><trkpt lat="44.73506" lon="9.8076117"><ele>858.0</ele><time>2026-04-19T09:18:48.055Z</time></trkpt><trkpt lat="44.7350833" lon="9.8077"><ele>858.0</ele><time>2026-04-19T09:18:49.053Z</time></trkpt><trkpt lat="44.7351067" lon="9.80781"><ele>859.5999999999999</ele><time>2026-04-19T09:18:50.054Z</time></trkpt><trkpt lat="44.735125" lon="9.8079217"><ele>861.1999999999999</ele><time>2026-04-19T09:18:51.056Z</time></trkpt><trkpt lat="44.7351267" lon="9.8080567"><ele>862.8</ele><time>2026-04-19T09:18:52.054Z</time></trkpt><trkpt lat="44.7351283" lon="9.8081983"><ele>864.4</ele><time>2026-04-19T09:18:53.054Z</time></trkpt><trkpt lat="44.73513" lon="9.8083333"><ele>866.0</ele><time>2026-04-19T09:18:54.054Z</time></trkpt><trkpt lat="44.7351383" lon="9.8084483"><ele>866.8</ele><time>2026-04-19T09:18:55.055Z</time></trkpt><trkpt lat="44.735155" lon="9.808565"><ele>867.5999999999999</ele><time>2026-04-19T09:18:56.057Z</time></trkpt><trkpt lat="44.7351917" lon="9.8086883"><ele>868.4</ele><time>2026-04-19T09:18:57.055Z</time></trkpt><trkpt lat="44.7352267" lon="9.8088133"><ele>869.2</ele><time>2026-04-19T09:18:58.055Z</time></trkpt><trkpt lat="44.7352933" lon="9.8088933"><ele>870.0</ele><time>2026-04-19T09:18:59.056Z</time></trkpt><trkpt lat="44.7353667" lon="9.8089833"><ele>870.0</ele><time>2026-04-19T09:19:00.057Z</time></trkpt><trkpt lat="44.7354517" lon="9.8090533"><ele>870.0</ele><time>2026-04-19T09:19:01.055Z</time></trkpt><trkpt lat="44.735525" lon="9.8091317"><ele>870.0</ele><time>2026-04-19T09:19:02.056Z</time></trkpt><trkpt lat="44.7355983" lon="9.8092"><ele>870.0</ele><time>2026-04-19T09:19:03.055Z</time></trkpt><trkpt lat="44.7356467" lon="9.8092767"><ele>870.0</ele><time>2026-04-19T09:19:04.054Z</time></trkpt><trkpt lat="44.735695" lon="9.8094083"><ele>870.0</ele><time>2026-04-19T09:19:06.056Z</time></trkpt><trkpt lat="44.7357217" lon="9.80951"><ele>870.0</ele><time>2026-04-19T09:19:09.055Z</time></trkpt><trkpt lat="44.7358167" lon="9.8095433"><ele>870.0</ele><time>2026-04-19T09:19:11.053Z</time></trkpt><trkpt lat="44.7358967" lon="9.8096133"><ele>870.0</ele><time>2026-04-19T09:19:13.054Z</time></trkpt><trkpt lat="44.735975" lon="9.8096767"><ele>870.0</ele><time>2026-04-19T09:19:15.054Z</time></trkpt><trkpt lat="44.736015" lon="9.8097767"><ele>870.0</ele><time>2026-04-19T09:19:17.056Z</time></trkpt><trkpt lat="44.7360183" lon="9.809945"><ele>870.0</ele><time>2026-04-19T09:19:19.054Z</time></trkpt><trkpt lat="44.7360133" lon="9.8100433"><ele>870.0</ele><time>2026-04-19T09:19:20.056Z</time></trkpt><trkpt lat="44.736025" lon="9.8101467"><ele>870.0</ele><time>2026-04-19T09:19:21.053Z</time></trkpt><trkpt lat="44.73603" lon="9.810265"><ele>870.0</ele><time>2026-04-19T09:19:22.053Z</time></trkpt><trkpt lat="44.7360333" lon="9.8103883"><ele>870.0</ele><time>2026-04-19T09:19:23.053Z</time></trkpt><trkpt lat="44.7360383" lon="9.8105083"><ele>870.0</ele><time>2026-04-19T09:19:24.054Z</time></trkpt><trkpt lat="44.7360383" lon="9.8106317"><ele>869.1666666666666</ele><time>2026-04-19T09:19:25.054Z</time></trkpt><trkpt lat="44.7360383" lon="9.810745"><ele>868.3333333333333</ele><time>2026-04-19T09:19:26.054Z</time></trkpt><trkpt lat="44.7360183" lon="9.8108483"><ele>867.5</ele><time>2026-04-19T09:19:27.053Z</time></trkpt><trkpt lat="44.7359917" lon="9.8109467"><ele>866.6666666666666</ele><time>2026-04-19T09:19:28.055Z</time></trkpt><trkpt lat="44.7359667" lon="9.8110517"><ele>865.8333333333333</ele><time>2026-04-19T09:19:29.053Z</time></trkpt><trkpt lat="44.7359267" lon="9.811155"><ele>865.0</ele><time>2026-04-19T09:19:30.054Z</time></trkpt><trkpt lat="44.7358967" lon="9.8112583"><ele>864.4285714285714</ele><time>2026-04-19T09:19:31.054Z</time></trkpt><trkpt lat="44.735885" lon="9.8113517"><ele>863.8571428571429</ele><time>2026-04-19T09:19:32.055Z</time></trkpt><trkpt lat="44.7358717" lon="9.811455"><ele>863.2857142857142</ele><time>2026-04-19T09:19:33.052Z</time></trkpt><trkpt lat="44.73586" lon="9.8115633"><ele>862.7142857142858</ele><time>2026-04-19T09:19:34.054Z</time></trkpt><trkpt lat="44.735845" lon="9.8116683"><ele>862.1428571428571</ele><time>2026-04-19T09:19:35.055Z</time></trkpt><trkpt lat="44.7358117" lon="9.8117717"><ele>861.5714285714286</ele><time>2026-04-19T09:19:36.055Z</time></trkpt><trkpt lat="44.735785" lon="9.811865"><ele>861.0</ele><time>2026-04-19T09:19:37.053Z</time></trkpt><trkpt lat="44.7357533" lon="9.8119583"><ele>857.8333333333334</ele><time>2026-04-19T09:19:38.055Z</time></trkpt><trkpt lat="44.7357067" lon="9.812055"><ele>854.6666666666667</ele><time>2026-04-19T09:19:39.052Z</time></trkpt><trkpt lat="44.735665" lon="9.8121367"><ele>851.5</ele><time>2026-04-19T09:19:40.053Z</time></trkpt><trkpt lat="44.7356233" lon="9.8122117"><ele>848.3333333333334</ele><time>2026-04-19T09:19:41.053Z</time></trkpt><trkpt lat="44.7355383" lon="9.812315"><ele>845.1666666666667</ele><time>2026-04-19T09:19:43.053Z</time></trkpt><trkpt lat="44.7354683" lon="9.8123333"><ele>842.0</ele><time>2026-04-19T09:19:44.054Z</time></trkpt><trkpt lat="44.7353933" lon="9.81235"><ele>842.0000000000001</ele><time>2026-04-19T09:19:45.053Z</time></trkpt><trkpt lat="44.73532" lon="9.8123767"><ele>842.0</ele><time>2026-04-19T09:19:46.053Z</time></trkpt><trkpt lat="44.7352533" lon="9.8123917"><ele>842.0</ele><time>2026-04-19T09:19:47.053Z</time></trkpt><trkpt lat="44.7351883" lon="9.8123933"><ele>842.0</ele><time>2026-04-19T09:19:48.053Z</time></trkpt><trkpt lat="44.7350767" lon="9.8124317"><ele>842.0000000000001</ele><time>2026-04-19T09:19:50.054Z</time></trkpt><trkpt lat="44.7350017" lon="9.8125567"><ele>842.0</ele><time>2026-04-19T09:19:52.052Z</time></trkpt><trkpt lat="44.7349567" lon="9.812625"><ele>838.0000000000001</ele><time>2026-04-19T09:19:53.052Z</time></trkpt><trkpt lat="44.7349033" lon="9.81269"><ele>834.0</ele><time>2026-04-19T09:19:54.053Z</time></trkpt><trkpt lat="44.7348367" lon="9.81276"><ele>830.0</ele><time>2026-04-19T09:19:55.053Z</time></trkpt><trkpt lat="44.73476" lon="9.81284"><ele>826.0</ele><time>2026-04-19T09:19:56.055Z</time></trkpt><trkpt lat="44.7346983" lon="9.812915"><ele>822.0000000000001</ele><time>2026-04-19T09:19:57.055Z</time></trkpt><trkpt lat="44.734645" lon="9.8129767"><ele>818.0</ele><time>2026-04-19T09:19:58.055Z</time></trkpt><trkpt lat="44.734595" lon="9.8130367"><ele>818.0000000000001</ele><time>2026-04-19T09:19:59.055Z</time></trkpt><trkpt lat="44.734545" lon="9.8130967"><ele>818.0</ele><time>2026-04-19T09:20:00.055Z</time></trkpt><trkpt lat="44.73448" lon="9.81315"><ele>818.0</ele><time>2026-04-19T09:20:01.056Z</time></trkpt><trkpt lat="44.734405" lon="9.813205"><ele>818.0</ele><time>2026-04-19T09:20:02.056Z</time></trkpt><trkpt lat="44.7343267" lon="9.8132783"><ele>818.0000000000001</ele><time>2026-04-19T09:20:03.055Z</time></trkpt><trkpt lat="44.7342617" lon="9.8133533"><ele>818.0</ele><time>2026-04-19T09:20:04.054Z</time></trkpt><trkpt lat="44.73419" lon="9.8134583"><ele>815.5000000000001</ele><time>2026-04-19T09:20:05.055Z</time></trkpt><trkpt lat="44.7341233" lon="9.8135617"><ele>813.0</ele><time>2026-04-19T09:20:06.054Z</time></trkpt><trkpt lat="44.73407" lon="9.8136667"><ele>810.5</ele><time>2026-04-19T09:20:07.053Z</time></trkpt><trkpt lat="44.73402" lon="9.8137583"><ele>808.0</ele><time>2026-04-19T09:20:08.054Z</time></trkpt><trkpt lat="44.73396" lon="9.813835"><ele>805.5000000000001</ele><time>2026-04-19T09:20:09.053Z</time></trkpt><trkpt lat="44.7338967" lon="9.8139167"><ele>803.0</ele><time>2026-04-19T09:20:10.055Z</time></trkpt><trkpt lat="44.7338317" lon="9.8139883"><ele>803.0000000000001</ele><time>2026-04-19T09:20:11.054Z</time></trkpt><trkpt lat="44.733765" lon="9.81405"><ele>803.0</ele><time>2026-04-19T09:20:12.053Z</time></trkpt><trkpt lat="44.7337117" lon="9.8141133"><ele>803.0</ele><time>2026-04-19T09:20:13.054Z</time></trkpt><trkpt lat="44.733655" lon="9.8141733"><ele>803.0</ele><time>2026-04-19T09:20:14.054Z</time></trkpt><trkpt lat="44.7335967" lon="9.8142367"><ele>803.0000000000001</ele><time>2026-04-19T09:20:15.052Z</time></trkpt><trkpt lat="44.7335417" lon="9.8142933"><ele>803.0</ele><time>2026-04-19T09:20:16.052Z</time></trkpt><trkpt lat="44.7334483" lon="9.8143917"><ele>801.1666666666667</ele><time>2026-04-19T09:20:18.054Z</time></trkpt><trkpt lat="44.73337" lon="9.8145017"><ele>799.3333333333334</ele><time>2026-04-19T09:20:20.053Z</time></trkpt><trkpt lat="44.7333017" lon="9.814615"><ele>797.5</ele><time>2026-04-19T09:20:22.052Z</time></trkpt><trkpt lat="44.7333367" lon="9.8147133"><ele>795.6666666666667</ele><time>2026-04-19T09:20:26.054Z</time></trkpt><trkpt lat="44.7333983" lon="9.8147517"><ele>793.8333333333334</ele><time>2026-04-19T09:20:28.053Z</time></trkpt><trkpt lat="44.7334583" lon="9.8148"><ele>792.0</ele><time>2026-04-19T09:20:30.054Z</time></trkpt><trkpt lat="44.7335183" lon="9.8148967"><ele>792.0</ele><time>2026-04-19T09:20:32.054Z</time></trkpt><trkpt lat="44.7335617" lon="9.81501"><ele>792.0</ele><time>2026-04-19T09:20:34.053Z</time></trkpt><trkpt lat="44.7335533" lon="9.8151017"><ele>792.0</ele><time>2026-04-19T09:20:36.053Z</time></trkpt><trkpt lat="44.7334967" lon="9.815155"><ele>792.0</ele><time>2026-04-19T09:20:38.053Z</time></trkpt><trkpt lat="44.7334233" lon="9.81517"><ele>792.0</ele><time>2026-04-19T09:20:40.053Z</time></trkpt><trkpt lat="44.7333617" lon="9.815205"><ele>792.0</ele><time>2026-04-19T09:20:43.053Z</time></trkpt><trkpt lat="44.7333967" lon="9.815295"><ele>792.0</ele><time>2026-04-19T09:20:48.052Z</time></trkpt><trkpt lat="44.733485" lon="9.815395"><ele>787.8</ele><time>2026-04-19T09:20:56.053Z</time></trkpt><trkpt lat="44.7335383" lon="9.815465"><ele>783.6</ele><time>2026-04-19T09:20:58.052Z</time></trkpt><trkpt lat="44.733605" lon="9.8155983"><ele>779.4</ele><time>2026-04-19T09:21:00.054Z</time></trkpt><trkpt lat="44.7336467" lon="9.8157233"><ele>775.1999999999999</ele><time>2026-04-19T09:21:01.053Z</time></trkpt><trkpt lat="44.7336883" lon="9.8158267"><ele>771.0</ele><time>2026-04-19T09:21:02.054Z</time></trkpt><trkpt lat="44.733725" lon="9.8159383"><ele>767.6666666666666</ele><time>2026-04-19T09:21:03.053Z</time></trkpt><trkpt lat="44.733755" lon="9.8160517"><ele>764.3333333333334</ele><time>2026-04-19T09:21:04.053Z</time></trkpt><trkpt lat="44.7337833" lon="9.8161667"><ele>761.0</ele><time>2026-04-19T09:21:05.053Z</time></trkpt><trkpt lat="44.733815" lon="9.816275"><ele>757.6666666666667</ele><time>2026-04-19T09:21:06.054Z</time></trkpt><trkpt lat="44.7338483" lon="9.8163783"><ele>754.3333333333334</ele><time>2026-04-19T09:21:07.053Z</time></trkpt><trkpt lat="44.733875" lon="9.8164767"><ele>751.0</ele><time>2026-04-19T09:21:08.057Z</time></trkpt><trkpt lat="44.7339" lon="9.816575"><ele>751.0</ele><time>2026-04-19T09:21:09.053Z</time></trkpt><trkpt lat="44.7339167" lon="9.8166817"><ele>751.0</ele><time>2026-04-19T09:21:10.055Z</time></trkpt><trkpt lat="44.7339267" lon="9.8167967"><ele>751.0</ele><time>2026-04-19T09:21:11.054Z</time></trkpt><trkpt lat="44.7339367" lon="9.81691"><ele>751.0</ele><time>2026-04-19T09:21:12.053Z</time></trkpt><trkpt lat="44.7339517" lon="9.817025"><ele>751.0</ele><time>2026-04-19T09:21:13.053Z</time></trkpt><trkpt lat="44.733975" lon="9.8171283"><ele>751.0</ele><time>2026-04-19T09:21:14.054Z</time></trkpt><trkpt lat="44.734005" lon="9.81722"><ele>749.8333333333334</ele><time>2026-04-19T09:21:15.054Z</time></trkpt><trkpt lat="44.734045" lon="9.817295"><ele>748.6666666666667</ele><time>2026-04-19T09:21:16.052Z</time></trkpt><trkpt lat="44.7340967" lon="9.8173533"><ele>747.5</ele><time>2026-04-19T09:21:17.053Z</time></trkpt><trkpt lat="44.7341833" lon="9.8174667"><ele>746.3333333333334</ele><time>2026-04-19T09:21:19.054Z</time></trkpt><trkpt lat="44.7342133" lon="9.8175533"><ele>745.1666666666666</ele><time>2026-04-19T09:21:20.054Z</time></trkpt><trkpt lat="44.7342317" lon="9.817645"><ele>744.0</ele><time>2026-04-19T09:21:21.053Z</time></trkpt><trkpt lat="44.7342333" lon="9.8178067"><ele>742.3333333333334</ele><time>2026-04-19T09:21:23.053Z</time></trkpt><trkpt lat="44.73423" lon="9.8179783"><ele>740.6666666666666</ele><time>2026-04-19T09:21:25.055Z</time></trkpt><trkpt lat="44.73424" lon="9.8180667"><ele>739.0</ele><time>2026-04-19T09:21:26.054Z</time></trkpt><trkpt lat="44.7342583" lon="9.818155"><ele>737.3333333333333</ele><time>2026-04-19T09:21:27.054Z</time></trkpt><trkpt lat="44.7342767" lon="9.81824"><ele>735.6666666666666</ele><time>2026-04-19T09:21:28.053Z</time></trkpt><trkpt lat="44.73429" lon="9.8183317"><ele>734.0</ele><time>2026-04-19T09:21:29.057Z</time></trkpt><trkpt lat="44.7342983" lon="9.8184317"><ele>732.3333333333333</ele><time>2026-04-19T09:21:30.054Z</time></trkpt><trkpt lat="44.7342917" lon="9.818545"><ele>730.6666666666666</ele><time>2026-04-19T09:21:31.053Z</time></trkpt><trkpt lat="44.7342767" lon="9.818655"><ele>729.0</ele><time>2026-04-19T09:21:32.056Z</time></trkpt><trkpt lat="44.734255" lon="9.8187567"><ele>727.3333333333334</ele><time>2026-04-19T09:21:33.053Z</time></trkpt><trkpt lat="44.7342333" lon="9.8188433"><ele>725.6666666666667</ele><time>2026-04-19T09:21:34.056Z</time></trkpt><trkpt lat="44.7341983" lon="9.8189767"><ele>724.0</ele><time>2026-04-19T09:21:36.054Z</time></trkpt><trkpt lat="44.7341983" lon="9.8191"><ele>724.0</ele><time>2026-04-19T09:21:38.053Z</time></trkpt><trkpt lat="44.7342083" lon="9.819245"><ele>724.0</ele><time>2026-04-19T09:21:40.054Z</time></trkpt><trkpt lat="44.73422" lon="9.8194033"><ele>724.0</ele><time>2026-04-19T09:21:42.054Z</time></trkpt><trkpt lat="44.7342467" lon="9.8195533"><ele>724.0</ele><time>2026-04-19T09:21:44.056Z</time></trkpt><trkpt lat="44.7342517" lon="9.81973"><ele>722.3333333333334</ele><time>2026-04-19T09:21:46.053Z</time></trkpt><trkpt lat="44.7342467" lon="9.8198283"><ele>720.6666666666667</ele><time>2026-04-19T09:21:47.052Z</time></trkpt><trkpt lat="44.734235" lon="9.81993"><ele>719.0</ele><time>2026-04-19T09:21:48.053Z</time></trkpt><trkpt lat="44.734225" lon="9.8200333"><ele>717.3333333333334</ele><time>2026-04-19T09:21:49.053Z</time></trkpt><trkpt lat="44.73421" lon="9.8201467"><ele>715.6666666666666</ele><time>2026-04-19T09:21:50.054Z</time></trkpt><trkpt lat="44.734195" lon="9.8202617"><ele>714.0</ele><time>2026-04-19T09:21:51.054Z</time></trkpt><trkpt lat="44.7341833" lon="9.8203783"><ele>711.8333333333334</ele><time>2026-04-19T09:21:52.053Z</time></trkpt><trkpt lat="44.734165" lon="9.82049"><ele>709.6666666666666</ele><time>2026-04-19T09:21:53.054Z</time></trkpt><trkpt lat="44.7341433" lon="9.8205933"><ele>707.5</ele><time>2026-04-19T09:21:54.053Z</time></trkpt><trkpt lat="44.7341167" lon="9.820685"><ele>705.3333333333333</ele><time>2026-04-19T09:21:55.054Z</time></trkpt><trkpt lat="44.7340867" lon="9.8207667"><ele>703.1666666666666</ele><time>2026-04-19T09:21:56.054Z</time></trkpt><trkpt lat="44.7340583" lon="9.8209167"><ele>701.0</ele><time>2026-04-19T09:21:58.054Z</time></trkpt><trkpt lat="44.7340667" lon="9.8210833"><ele>699.6666666666666</ele><time>2026-04-19T09:22:00.054Z</time></trkpt><trkpt lat="44.7340783" lon="9.82122"><ele>698.3333333333333</ele><time>2026-04-19T09:22:02.054Z</time></trkpt><trkpt lat="44.7340817" lon="9.8213217"><ele>697.0</ele><time>2026-04-19T09:22:04.054Z</time></trkpt><trkpt lat="44.734075" lon="9.8214233"><ele>695.6666666666666</ele><time>2026-04-19T09:22:07.053Z</time></trkpt><trkpt lat="44.7340867" lon="9.8215217"><ele>694.3333333333334</ele><time>2026-04-19T09:22:09.056Z</time></trkpt><trkpt lat="44.73412" lon="9.82163"><ele>693.0</ele><time>2026-04-19T09:22:11.054Z</time></trkpt><trkpt lat="44.734145" lon="9.8217867"><ele>692.5</ele><time>2026-04-19T09:22:13.057Z</time></trkpt><trkpt lat="44.73415" lon="9.82189"><ele>692.0</ele><time>2026-04-19T09:22:14.053Z</time></trkpt><trkpt lat="44.7341483" lon="9.8220067"><ele>691.5</ele><time>2026-04-19T09:22:15.053Z</time></trkpt><trkpt lat="44.7341333" lon="9.82212"><ele>691.0</ele><time>2026-04-19T09:22:16.052Z</time></trkpt><trkpt lat="44.734115" lon="9.8222283"><ele>690.5</ele><time>2026-04-19T09:22:17.055Z</time></trkpt><trkpt lat="44.7340983" lon="9.822335"><ele>690.0</ele><time>2026-04-19T09:22:18.054Z</time></trkpt><trkpt lat="44.7340733" lon="9.82243"><ele>690.0</ele><time>2026-04-19T09:22:19.053Z</time></trkpt><trkpt lat="44.7340333" lon="9.8225083"><ele>690.0</ele><time>2026-04-19T09:22:20.054Z</time></trkpt><trkpt lat="44.7339867" lon="9.8225833"><ele>690.0</ele><time>2026-04-19T09:22:21.054Z</time></trkpt><trkpt lat="44.7339233" lon="9.8226617"><ele>690.0</ele><time>2026-04-19T09:22:22.054Z</time></trkpt><trkpt lat="44.7338667" lon="9.8227483"><ele>690.0</ele><time>2026-04-19T09:22:23.053Z</time></trkpt><trkpt lat="44.73382" lon="9.8228383"><ele>690.0</ele><time>2026-04-19T09:22:24.055Z</time></trkpt><trkpt lat="44.7337767" lon="9.8229283"><ele>687.6</ele><time>2026-04-19T09:22:25.054Z</time></trkpt><trkpt lat="44.7337367" lon="9.8230033"><ele>685.2</ele><time>2026-04-19T09:22:26.053Z</time></trkpt><trkpt lat="44.73366" lon="9.8231317"><ele>682.8</ele><time>2026-04-19T09:22:28.053Z</time></trkpt><trkpt lat="44.7335983" lon="9.8232667"><ele>680.4</ele><time>2026-04-19T09:22:30.053Z</time></trkpt><trkpt lat="44.7335433" lon="9.823425"><ele>678.0</ele><time>2026-04-19T09:22:32.055Z</time></trkpt><trkpt lat="44.7334833" lon="9.823555"><ele>675.8571428571428</ele><time>2026-04-19T09:22:34.054Z</time></trkpt><trkpt lat="44.733415" lon="9.8236517"><ele>673.7142857142858</ele><time>2026-04-19T09:22:36.053Z</time></trkpt><trkpt lat="44.7333683" lon="9.823715"><ele>671.5714285714286</ele><time>2026-04-19T09:22:37.053Z</time></trkpt><trkpt lat="44.7333183" lon="9.823775"><ele>669.4285714285713</ele><time>2026-04-19T09:22:38.054Z</time></trkpt><trkpt lat="44.7332667" lon="9.8238367"><ele>667.2857142857142</ele><time>2026-04-19T09:22:39.053Z</time></trkpt><trkpt lat="44.733225" lon="9.8239067"><ele>665.1428571428571</ele><time>2026-04-19T09:22:40.054Z</time></trkpt><trkpt lat="44.7331933" lon="9.8239867"><ele>663.0</ele><time>2026-04-19T09:22:41.053Z</time></trkpt><trkpt lat="44.73317" lon="9.8240833"><ele>662.9999999999999</ele><time>2026-04-19T09:22:42.054Z</time></trkpt><trkpt lat="44.73315" lon="9.8241733"><ele>663.0</ele><time>2026-04-19T09:22:43.054Z</time></trkpt><trkpt lat="44.7331217" lon="9.8242533"><ele>663.0</ele><time>2026-04-19T09:22:44.056Z</time></trkpt><trkpt lat="44.7330867" lon="9.82434"><ele>663.0</ele><time>2026-04-19T09:22:45.053Z</time></trkpt><trkpt lat="44.7330517" lon="9.8244217"><ele>663.0</ele><time>2026-04-19T09:22:46.053Z</time></trkpt><trkpt lat="44.733025" lon="9.824505"><ele>662.9999999999999</ele><time>2026-04-19T09:22:47.052Z</time></trkpt><trkpt lat="44.73301" lon="9.8245917"><ele>663.0</ele><time>2026-04-19T09:22:48.053Z</time></trkpt><trkpt lat="44.7330067" lon="9.82475"><ele>660.2</ele><time>2026-04-19T09:22:50.053Z</time></trkpt><trkpt lat="44.733015" lon="9.8248417"><ele>657.4</ele><time>2026-04-19T09:22:52.053Z</time></trkpt><trkpt lat="44.7329183" lon="9.824735"><ele>654.6</ele><time>2026-04-19T09:22:56.052Z</time></trkpt><trkpt lat="44.732875" lon="9.8246133"><ele>651.8000000000001</ele><time>2026-04-19T09:22:57.056Z</time></trkpt><trkpt lat="44.7328367" lon="9.8244783"><ele>649.0</ele><time>2026-04-19T09:22:58.054Z</time></trkpt><trkpt lat="44.732805" lon="9.8243383"><ele>648.8333333333334</ele><time>2026-04-19T09:22:59.053Z</time></trkpt><trkpt lat="44.732775" lon="9.8242017"><ele>648.6666666666667</ele><time>2026-04-19T09:23:00.056Z</time></trkpt><trkpt lat="44.732745" lon="9.82408"><ele>648.5</ele><time>2026-04-19T09:23:01.053Z</time></trkpt><trkpt lat="44.73271" lon="9.8239783"><ele>648.3333333333334</ele><time>2026-04-19T09:23:02.053Z</time></trkpt><trkpt lat="44.7326583" lon="9.823905"><ele>648.1666666666666</ele><time>2026-04-19T09:23:03.054Z</time></trkpt><trkpt lat="44.7325917" lon="9.8238933"><ele>648.0</ele><time>2026-04-19T09:23:04.055Z</time></trkpt><trkpt lat="44.7325333" lon="9.823935"><ele>648.0</ele><time>2026-04-19T09:23:05.053Z</time></trkpt><trkpt lat="44.7324917" lon="9.8240183"><ele>648.0</ele><time>2026-04-19T09:23:06.053Z</time></trkpt><trkpt lat="44.7324767" lon="9.8241383"><ele>648.0</ele><time>2026-04-19T09:23:07.053Z</time></trkpt><trkpt lat="44.7324983" lon="9.8242883"><ele>648.0</ele><time>2026-04-19T09:23:08.054Z</time></trkpt><trkpt lat="44.7325283" lon="9.8244317"><ele>648.0</ele><time>2026-04-19T09:23:09.053Z</time></trkpt><trkpt lat="44.7325567" lon="9.8245683"><ele>645.8</ele><time>2026-04-19T09:23:10.053Z</time></trkpt><trkpt lat="44.7325867" lon="9.8247"><ele>643.5999999999999</ele><time>2026-04-19T09:23:11.054Z</time></trkpt><trkpt lat="44.732615" lon="9.824825"><ele>641.4000000000001</ele><time>2026-04-19T09:23:12.053Z</time></trkpt><trkpt lat="44.7326383" lon="9.8249483"><ele>639.2</ele><time>2026-04-19T09:23:13.052Z</time></trkpt><trkpt lat="44.73266" lon="9.82507"><ele>637.0</ele><time>2026-04-19T09:23:14.055Z</time></trkpt><trkpt lat="44.73268" lon="9.8251867"><ele>635.5</ele><time>2026-04-19T09:23:15.051Z</time></trkpt><trkpt lat="44.7326867" lon="9.8252883"><ele>634.0</ele><time>2026-04-19T09:23:16.052Z</time></trkpt><trkpt lat="44.7326767" lon="9.8253867"><ele>632.5</ele><time>2026-04-19T09:23:17.054Z</time></trkpt><trkpt lat="44.7326567" lon="9.8254883"><ele>631.0</ele><time>2026-04-19T09:23:18.053Z</time></trkpt><trkpt lat="44.7326317" lon="9.8255967"><ele>629.5</ele><time>2026-04-19T09:23:19.053Z</time></trkpt><trkpt lat="44.7326133" lon="9.8257083"><ele>628.0</ele><time>2026-04-19T09:23:20.053Z</time></trkpt><trkpt lat="44.73261" lon="9.825825"><ele>628.0</ele><time>2026-04-19T09:23:21.053Z</time></trkpt><trkpt lat="44.7326283" lon="9.8259467"><ele>628.0</ele><time>2026-04-19T09:23:22.053Z</time></trkpt><trkpt lat="44.73266" lon="9.826065"><ele>628.0</ele><time>2026-04-19T09:23:23.053Z</time></trkpt><trkpt lat="44.7326867" lon="9.826175"><ele>628.0</ele><time>2026-04-19T09:23:24.053Z</time></trkpt><trkpt lat="44.7327017" lon="9.8262833"><ele>628.0</ele><time>2026-04-19T09:23:25.053Z</time></trkpt><trkpt lat="44.7327067" lon="9.8263933"><ele>628.0</ele><time>2026-04-19T09:23:26.053Z</time></trkpt><trkpt lat="44.7326933" lon="9.826495"><ele>626.6666666666667</ele><time>2026-04-19T09:23:27.054Z</time></trkpt><trkpt lat="44.7326733" lon="9.826595"><ele>625.3333333333334</ele><time>2026-04-19T09:23:28.053Z</time></trkpt><trkpt lat="44.7326467" lon="9.8267"><ele>624.0</ele><time>2026-04-19T09:23:29.054Z</time></trkpt><trkpt lat="44.7326183" lon="9.826795"><ele>622.6666666666666</ele><time>2026-04-19T09:23:30.054Z</time></trkpt><trkpt lat="44.7325733" lon="9.8269383"><ele>621.3333333333333</ele><time>2026-04-19T09:23:32.053Z</time></trkpt><trkpt lat="44.7325183" lon="9.8270017"><ele>620.0</ele><time>2026-04-19T09:23:35.054Z</time></trkpt><trkpt lat="44.732525" lon="9.82712"><ele>619.5714285714286</ele><time>2026-04-19T09:23:52.054Z</time></trkpt><trkpt lat="44.7325033" lon="9.82721"><ele>619.1428571428571</ele><time>2026-04-19T09:23:55.054Z</time></trkpt><trkpt lat="44.7324383" lon="9.82727"><ele>618.7142857142858</ele><time>2026-04-19T09:23:58.052Z</time></trkpt><trkpt lat="44.7323767" lon="9.8273217"><ele>618.2857142857142</ele><time>2026-04-19T09:24:00.056Z</time></trkpt><trkpt lat="44.7323167" lon="9.8273817"><ele>617.8571428571428</ele><time>2026-04-19T09:24:02.055Z</time></trkpt><trkpt lat="44.7322633" lon="9.8274533"><ele>617.4285714285714</ele><time>2026-04-19T09:24:05.056Z</time></trkpt><trkpt lat="44.73221" lon="9.82754"><ele>617.0</ele><time>2026-04-19T09:24:09.053Z</time></trkpt><trkpt lat="44.7321817" lon="9.827645"><ele>617.0</ele><time>2026-04-19T09:24:13.055Z</time></trkpt><trkpt lat="44.7321433" lon="9.8277517"><ele>617.0</ele><time>2026-04-19T09:24:16.055Z</time></trkpt><trkpt lat="44.7321133" lon="9.8278433"><ele>617.0</ele><time>2026-04-19T09:24:18.055Z</time></trkpt><trkpt lat="44.7320683" lon="9.8279383"><ele>617.0</ele><time>2026-04-19T09:24:22.056Z</time></trkpt><trkpt lat="44.7321133" lon="9.8278217"><ele>617.0</ele><time>2026-04-19T09:24:33.053Z</time></trkpt><trkpt lat="44.7321417" lon="9.8277133"><ele>617.0</ele><time>2026-04-19T09:24:35.053Z</time></trkpt><trkpt lat="44.732175" lon="9.82762"><ele>617.0</ele><time>2026-04-19T09:24:37.053Z</time></trkpt><trkpt lat="44.7322133" lon="9.8275217"><ele>617.0</ele><time>2026-04-19T09:24:39.054Z</time></trkpt><trkpt lat="44.7322833" lon="9.8274517"><ele>617.0</ele><time>2026-04-19T09:24:41.053Z</time></trkpt><trkpt lat="44.7323467" lon="9.827355"><ele>617.0</ele><time>2026-04-19T09:24:43.054Z</time></trkpt><trkpt lat="44.7324117" lon="9.827285"><ele>617.0</ele><time>2026-04-19T09:24:45.054Z</time></trkpt><trkpt lat="44.732485" lon="9.8272417"><ele>617.0</ele><time>2026-04-19T09:24:48.055Z</time></trkpt><trkpt lat="44.732525" lon="9.8271017"><ele>617.0</ele><time>2026-04-19T09:24:51.055Z</time></trkpt><trkpt lat="44.732525" lon="9.8269983"><ele>617.0</ele><time>2026-04-19T09:24:54.054Z</time></trkpt><trkpt lat="44.7324467" lon="9.8269583"><ele>617.0</ele><time>2026-04-19T09:24:59.057Z</time></trkpt><trkpt lat="44.7323583" lon="9.8268817"><ele>617.0</ele><time>2026-04-19T09:25:01.055Z</time></trkpt><trkpt lat="44.7323017" lon="9.8268183"><ele>617.0</ele><time>2026-04-19T09:25:02.057Z</time></trkpt><trkpt lat="44.73224" lon="9.826755"><ele>617.0</ele><time>2026-04-19T09:25:03.057Z</time></trkpt><trkpt lat="44.7321783" lon="9.8267067"><ele>617.5</ele><time>2026-04-19T09:25:04.055Z</time></trkpt><trkpt lat="44.732115" lon="9.8266633"><ele>618.0</ele><time>2026-04-19T09:25:05.056Z</time></trkpt><trkpt lat="44.7320417" lon="9.8266283"><ele>618.5</ele><time>2026-04-19T09:25:06.055Z</time></trkpt><trkpt lat="44.7319733" lon="9.826595"><ele>619.0</ele><time>2026-04-19T09:25:07.055Z</time></trkpt><trkpt lat="44.7319133" lon="9.82656"><ele>619.5</ele><time>2026-04-19T09:25:08.057Z</time></trkpt><trkpt lat="44.7318133" lon="9.826445"><ele>620.0</ele><time>2026-04-19T09:25:10.055Z</time></trkpt><trkpt lat="44.73177" lon="9.826345"><ele>617.8333333333333</ele><time>2026-04-19T09:25:11.057Z</time></trkpt><trkpt lat="44.73173" lon="9.8262483"><ele>615.6666666666666</ele><time>2026-04-19T09:25:12.055Z</time></trkpt><trkpt lat="44.7316917" lon="9.8261683"><ele>613.5</ele><time>2026-04-19T09:25:13.055Z</time></trkpt><trkpt lat="44.73159" lon="9.82609"><ele>611.3333333333334</ele><time>2026-04-19T09:25:15.053Z</time></trkpt><trkpt lat="44.7315217" lon="9.826075"><ele>609.1666666666667</ele><time>2026-04-19T09:25:16.052Z</time></trkpt><trkpt lat="44.7314367" lon="9.82606"><ele>607.0</ele><time>2026-04-19T09:25:17.055Z</time></trkpt><trkpt lat="44.7313517" lon="9.826035"><ele>607.0</ele><time>2026-04-19T09:25:18.054Z</time></trkpt><trkpt lat="44.731275" lon="9.82599"><ele>607.0</ele><time>2026-04-19T09:25:19.056Z</time></trkpt><trkpt lat="44.7312083" lon="9.825935"><ele>607.0</ele><time>2026-04-19T09:25:20.055Z</time></trkpt><trkpt lat="44.7311517" lon="9.8258667"><ele>607.0</ele><time>2026-04-19T09:25:21.054Z</time></trkpt><trkpt lat="44.7310983" lon="9.8257817"><ele>607.0</ele><time>2026-04-19T09:25:22.056Z</time></trkpt><trkpt lat="44.7310467" lon="9.8256867"><ele>607.0</ele><time>2026-04-19T09:25:23.055Z</time></trkpt><trkpt lat="44.731" lon="9.8256117"><ele>605.1666666666667</ele><time>2026-04-19T09:25:24.055Z</time></trkpt><trkpt lat="44.7309" lon="9.8254983"><ele>603.3333333333334</ele><time>2026-04-19T09:25:26.055Z</time></trkpt><trkpt lat="44.73083" lon="9.825455"><ele>601.5</ele><time>2026-04-19T09:25:27.056Z</time></trkpt><trkpt lat="44.7307533" lon="9.8254183"><ele>599.6666666666666</ele><time>2026-04-19T09:25:28.053Z</time></trkpt><trkpt lat="44.7306767" lon="9.8253783"><ele>597.8333333333333</ele><time>2026-04-19T09:25:29.056Z</time></trkpt><trkpt lat="44.7306033" lon="9.825335"><ele>596.0</ele><time>2026-04-19T09:25:30.056Z</time></trkpt><trkpt lat="44.7305383" lon="9.8252917"><ele>596.0</ele><time>2026-04-19T09:25:31.055Z</time></trkpt><trkpt lat="44.7304767" lon="9.82524"><ele>596.0</ele><time>2026-04-19T09:25:32.055Z</time></trkpt><trkpt lat="44.730425" lon="9.82517"><ele>596.0</ele><time>2026-04-19T09:25:33.056Z</time></trkpt><trkpt lat="44.7303833" lon="9.8250917"><ele>596.0</ele><time>2026-04-19T09:25:34.057Z</time></trkpt><trkpt lat="44.7303083" lon="9.8249767"><ele>596.0</ele><time>2026-04-19T09:25:36.053Z</time></trkpt><trkpt lat="44.730225" lon="9.8249417"><ele>596.0</ele><time>2026-04-19T09:25:38.055Z</time></trkpt><trkpt lat="44.73009" lon="9.824985"><ele>596.4</ele><time>2026-04-19T09:25:40.055Z</time></trkpt><trkpt lat="44.7300167" lon="9.8250283"><ele>596.8</ele><time>2026-04-19T09:25:41.057Z</time></trkpt><trkpt lat="44.72995" lon="9.8250783"><ele>597.1999999999999</ele><time>2026-04-19T09:25:42.054Z</time></trkpt><trkpt lat="44.72987" lon="9.825205"><ele>597.6</ele><time>2026-04-19T09:25:44.055Z</time></trkpt><trkpt lat="44.7298167" lon="9.8253567"><ele>598.0</ele><time>2026-04-19T09:25:46.054Z</time></trkpt><trkpt lat="44.7297767" lon="9.8254283"><ele>598.0</ele><time>2026-04-19T09:25:47.053Z</time></trkpt><trkpt lat="44.7297283" lon="9.8255083"><ele>598.0</ele><time>2026-04-19T09:25:48.055Z</time></trkpt><trkpt lat="44.729685" lon="9.825585"><ele>598.0</ele><time>2026-04-19T09:25:49.052Z</time></trkpt><trkpt lat="44.72964" lon="9.8256767"><ele>598.0</ele><time>2026-04-19T09:25:50.053Z</time></trkpt><trkpt lat="44.72959" lon="9.8257617"><ele>598.0</ele><time>2026-04-19T09:25:51.054Z</time></trkpt><trkpt lat="44.7295467" lon="9.8258333"><ele>598.0</ele><time>2026-04-19T09:25:52.053Z</time></trkpt><trkpt lat="44.7294683" lon="9.82593"><ele>597.6</ele><time>2026-04-19T09:25:54.054Z</time></trkpt><trkpt lat="44.7294083" lon="9.8260467"><ele>597.1999999999999</ele><time>2026-04-19T09:25:56.055Z</time></trkpt><trkpt lat="44.72935" lon="9.826205"><ele>596.8</ele><time>2026-04-19T09:25:58.055Z</time></trkpt><trkpt lat="44.72932" lon="9.8263633"><ele>596.4</ele><time>2026-04-19T09:26:00.055Z</time></trkpt><trkpt lat="44.7293317" lon="9.82647"><ele>596.0</ele><time>2026-04-19T09:26:01.055Z</time></trkpt><trkpt lat="44.7293417" lon="9.8265833"><ele>596.0</ele><time>2026-04-19T09:26:02.055Z</time></trkpt><trkpt lat="44.7293783" lon="9.8266817"><ele>596.0</ele><time>2026-04-19T09:26:03.056Z</time></trkpt><trkpt lat="44.7293933" lon="9.82678"><ele>596.0</ele><time>2026-04-19T09:26:04.053Z</time></trkpt><trkpt lat="44.7293967" lon="9.8268883"><ele>596.0</ele><time>2026-04-19T09:26:05.055Z</time></trkpt><trkpt lat="44.7294033" lon="9.8270067"><ele>596.0</ele><time>2026-04-19T09:26:06.055Z</time></trkpt><trkpt lat="44.7294067" lon="9.8271183"><ele>596.0</ele><time>2026-04-19T09:26:07.055Z</time></trkpt><trkpt lat="44.72942" lon="9.8272133"><ele>595.4</ele><time>2026-04-19T09:26:08.054Z</time></trkpt><trkpt lat="44.7294383" lon="9.827355"><ele>594.8</ele><time>2026-04-19T09:26:10.054Z</time></trkpt><trkpt lat="44.729395" lon="9.8274717"><ele>594.1999999999999</ele><time>2026-04-19T09:26:12.056Z</time></trkpt><trkpt lat="44.7293083" lon="9.8275667"><ele>593.6</ele><time>2026-04-19T09:26:14.055Z</time></trkpt><trkpt lat="44.729215" lon="9.8276433"><ele>593.0</ele><time>2026-04-19T09:26:16.054Z</time></trkpt><trkpt lat="44.729165" lon="9.8277033"><ele>596.6666666666666</ele><time>2026-04-19T09:26:17.054Z</time></trkpt><trkpt lat="44.7291183" lon="9.8277867"><ele>600.3333333333333</ele><time>2026-04-19T09:26:18.055Z</time></trkpt><trkpt lat="44.729075" lon="9.8278617"><ele>604.0</ele><time>2026-04-19T09:26:19.055Z</time></trkpt><trkpt lat="44.729055" lon="9.82796"><ele>607.6666666666666</ele><time>2026-04-19T09:26:21.053Z</time></trkpt><trkpt lat="44.7290533" lon="9.8280617"><ele>611.3333333333334</ele><time>2026-04-19T09:26:23.054Z</time></trkpt><trkpt lat="44.7290533" lon="9.82819"><ele>615.0</ele><time>2026-04-19T09:26:25.055Z</time></trkpt><trkpt lat="44.72906" lon="9.828335"><ele>616.1666666666666</ele><time>2026-04-19T09:26:27.055Z</time></trkpt><trkpt lat="44.7290483" lon="9.828515"><ele>617.3333333333334</ele><time>2026-04-19T09:26:29.055Z</time></trkpt><trkpt lat="44.7290467" lon="9.8286217"><ele>618.5</ele><time>2026-04-19T09:26:30.055Z</time></trkpt><trkpt lat="44.7290567" lon="9.8287217"><ele>619.6666666666667</ele><time>2026-04-19T09:26:31.054Z</time></trkpt><trkpt lat="44.7290733" lon="9.828825"><ele>620.8333333333334</ele><time>2026-04-19T09:26:32.056Z</time></trkpt><trkpt lat="44.7290733" lon="9.828925"><ele>622.0</ele><time>2026-04-19T09:26:33.053Z</time></trkpt><trkpt lat="44.7290633" lon="9.8290417"><ele>622.0</ele><time>2026-04-19T09:26:34.053Z</time></trkpt><trkpt lat="44.7290483" lon="9.8291617"><ele>622.0</ele><time>2026-04-19T09:26:35.055Z</time></trkpt><trkpt lat="44.7290167" lon="9.8292917"><ele>622.0</ele><time>2026-04-19T09:26:36.053Z</time></trkpt><trkpt lat="44.7289833" lon="9.8294167"><ele>622.0</ele><time>2026-04-19T09:26:37.055Z</time></trkpt><trkpt lat="44.7289467" lon="9.829515"><ele>622.0</ele><time>2026-04-19T09:26:38.055Z</time></trkpt><trkpt lat="44.7289067" lon="9.82959"><ele>622.0</ele><time>2026-04-19T09:26:39.055Z</time></trkpt><trkpt lat="44.7288567" lon="9.8296983"><ele>623.0</ele><time>2026-04-19T09:26:41.055Z</time></trkpt><trkpt lat="44.728855" lon="9.8298117"><ele>624.0</ele><time>2026-04-19T09:26:44.053Z</time></trkpt><trkpt lat="44.728865" lon="9.8299317"><ele>625.0</ele><time>2026-04-19T09:26:46.053Z</time></trkpt><trkpt lat="44.728875" lon="9.83011"><ele>626.0</ele><time>2026-04-19T09:26:48.055Z</time></trkpt><trkpt lat="44.7288817" lon="9.8302383"><ele>627.0</ele><time>2026-04-19T09:26:49.056Z</time></trkpt><trkpt lat="44.7288817" lon="9.83037"><ele>627.4</ele><time>2026-04-19T09:26:50.055Z</time></trkpt><trkpt lat="44.7288867" lon="9.8304867"><ele>627.8000000000001</ele><time>2026-04-19T09:26:51.054Z</time></trkpt><trkpt lat="44.7288783" lon="9.8306183"><ele>628.2</ele><time>2026-04-19T09:26:52.054Z</time></trkpt><trkpt lat="44.7288667" lon="9.8307533"><ele>628.6</ele><time>2026-04-19T09:26:53.054Z</time></trkpt><trkpt lat="44.7288467" lon="9.830865"><ele>629.0</ele><time>2026-04-19T09:26:54.054Z</time></trkpt><trkpt lat="44.7287983" lon="9.831"><ele>629.0</ele><time>2026-04-19T09:26:56.053Z</time></trkpt><trkpt lat="44.72874" lon="9.83105"><ele>629.0</ele><time>2026-04-19T09:26:58.053Z</time></trkpt><trkpt lat="44.7286333" lon="9.831095"><ele>629.0</ele><time>2026-04-19T09:27:00.055Z</time></trkpt><trkpt lat="44.7285367" lon="9.8311667"><ele>629.0</ele><time>2026-04-19T09:27:02.054Z</time></trkpt><trkpt lat="44.728475" lon="9.83128"><ele>629.0</ele><time>2026-04-19T09:27:04.054Z</time></trkpt><trkpt lat="44.728425" lon="9.831395"><ele>633.2</ele><time>2026-04-19T09:27:06.055Z</time></trkpt><trkpt lat="44.72834" lon="9.8315067"><ele>637.4</ele><time>2026-04-19T09:27:08.056Z</time></trkpt><trkpt lat="44.7283" lon="9.8315767"><ele>641.6</ele><time>2026-04-19T09:27:09.056Z</time></trkpt><trkpt lat="44.7282533" lon="9.8317183"><ele>645.8</ele><time>2026-04-19T09:27:11.055Z</time></trkpt><trkpt lat="44.7282233" lon="9.8318833"><ele>650.0</ele><time>2026-04-19T09:27:13.056Z</time></trkpt><trkpt lat="44.7281933" lon="9.8319717"><ele>650.0</ele><time>2026-04-19T09:27:14.055Z</time></trkpt><trkpt lat="44.7281267" lon="9.8321367"><ele>650.0</ele><time>2026-04-19T09:27:16.055Z</time></trkpt><trkpt lat="44.7280767" lon="9.8322033"><ele>650.0</ele><time>2026-04-19T09:27:17.053Z</time></trkpt><trkpt lat="44.7280117" lon="9.832345"><ele>650.0</ele><time>2026-04-19T09:27:19.054Z</time></trkpt><trkpt lat="44.7279967" lon="9.8324817"><ele>650.0</ele><time>2026-04-19T09:27:21.055Z</time></trkpt><trkpt lat="44.7279833" lon="9.83266"><ele>648.8</ele><time>2026-04-19T09:27:23.055Z</time></trkpt><trkpt lat="44.72796" lon="9.8327817"><ele>647.6</ele><time>2026-04-19T09:27:24.055Z</time></trkpt><trkpt lat="44.727925" lon="9.8329083"><ele>646.4000000000001</ele><time>2026-04-19T09:27:25.056Z</time></trkpt><trkpt lat="44.7278733" lon="9.8330483"><ele>645.2</ele><time>2026-04-19T09:27:26.056Z</time></trkpt><trkpt lat="44.727815" lon="9.83318"><ele>644.0</ele><time>2026-04-19T09:27:27.053Z</time></trkpt><trkpt lat="44.7277633" lon="9.8332917"><ele>646.1666666666666</ele><time>2026-04-19T09:27:28.057Z</time></trkpt><trkpt lat="44.7277167" lon="9.8333883"><ele>648.3333333333333</ele><time>2026-04-19T09:27:29.055Z</time></trkpt><trkpt lat="44.7276767" lon="9.8334617"><ele>650.5</ele><time>2026-04-19T09:27:30.057Z</time></trkpt><trkpt lat="44.727615" lon="9.8335833"><ele>652.6666666666666</ele><time>2026-04-19T09:27:32.057Z</time></trkpt><trkpt lat="44.7275917" lon="9.833695"><ele>654.8333333333334</ele><time>2026-04-19T09:27:34.055Z</time></trkpt><trkpt lat="44.7276267" lon="9.8337833"><ele>657.0</ele><time>2026-04-19T09:27:36.057Z</time></trkpt><trkpt lat="44.7276733" lon="9.8338533"><ele>657.0</ele><time>2026-04-19T09:27:37.054Z</time></trkpt><trkpt lat="44.7277233" lon="9.8339417"><ele>657.0</ele><time>2026-04-19T09:27:38.054Z</time></trkpt><trkpt lat="44.7277717" lon="9.834035"><ele>657.0</ele><time>2026-04-19T09:27:39.055Z</time></trkpt><trkpt lat="44.7278017" lon="9.8341167"><ele>657.0</ele><time>2026-04-19T09:27:40.055Z</time></trkpt><trkpt lat="44.72785" lon="9.83426"><ele>657.0</ele><time>2026-04-19T09:27:42.054Z</time></trkpt><trkpt lat="44.7278633" lon="9.8343617"><ele>657.0</ele><time>2026-04-19T09:27:44.055Z</time></trkpt><trkpt lat="44.7278117" lon="9.834515"><ele>655.2</ele><time>2026-04-19T09:28:40.056Z</time></trkpt><trkpt lat="44.727805" lon="9.834635"><ele>653.4000000000001</ele><time>2026-04-19T09:28:41.055Z</time></trkpt><trkpt lat="44.7278" lon="9.8347983"><ele>651.5999999999999</ele><time>2026-04-19T09:28:42.055Z</time></trkpt><trkpt lat="44.7277933" lon="9.83494"><ele>649.8</ele><time>2026-04-19T09:28:43.055Z</time></trkpt><trkpt lat="44.7277833" lon="9.8350817"><ele>648.0</ele><time>2026-04-19T09:28:44.053Z</time></trkpt><trkpt lat="44.727775" lon="9.8352033"><ele>648.0</ele><time>2026-04-19T09:28:45.055Z</time></trkpt><trkpt lat="44.7277567" lon="9.835305"><ele>648.0</ele><time>2026-04-19T09:28:46.055Z</time></trkpt><trkpt lat="44.72773" lon="9.8354017"><ele>648.0</ele><time>2026-04-19T09:28:47.055Z</time></trkpt><trkpt lat="44.727695" lon="9.83549"><ele>648.0</ele><time>2026-04-19T09:28:48.056Z</time></trkpt><trkpt lat="44.72765" lon="9.83558"><ele>648.0</ele><time>2026-04-19T09:28:49.055Z</time></trkpt><trkpt lat="44.7275983" lon="9.8356783"><ele>648.0</ele><time>2026-04-19T09:28:50.053Z</time></trkpt><trkpt lat="44.7275433" lon="9.8357767"><ele>650.1666666666666</ele><time>2026-04-19T09:28:51.055Z</time></trkpt><trkpt lat="44.7274983" lon="9.8358717"><ele>652.3333333333334</ele><time>2026-04-19T09:28:52.056Z</time></trkpt><trkpt lat="44.727465" lon="9.8359617"><ele>654.5</ele><time>2026-04-19T09:28:53.055Z</time></trkpt><trkpt lat="44.72745" lon="9.8360883"><ele>656.6666666666667</ele><time>2026-04-19T09:28:55.056Z</time></trkpt><trkpt lat="44.72754" lon="9.836155"><ele>658.8333333333334</ele><time>2026-04-19T09:28:59.053Z</time></trkpt><trkpt lat="44.7276367" lon="9.8362"><ele>661.0</ele><time>2026-04-19T09:29:01.053Z</time></trkpt><trkpt lat="44.7276733" lon="9.8362733"><ele>661.8333333333334</ele><time>2026-04-19T09:29:02.054Z</time></trkpt><trkpt lat="44.7277033" lon="9.8363733"><ele>662.6666666666667</ele><time>2026-04-19T09:29:03.057Z</time></trkpt><trkpt lat="44.72772" lon="9.8364917"><ele>663.5</ele><time>2026-04-19T09:29:04.055Z</time></trkpt><trkpt lat="44.7277317" lon="9.836615"><ele>664.3333333333334</ele><time>2026-04-19T09:29:05.053Z</time></trkpt><trkpt lat="44.7277367" lon="9.8367433"><ele>665.1666666666666</ele><time>2026-04-19T09:29:06.054Z</time></trkpt><trkpt lat="44.7277433" lon="9.8368683"><ele>666.0</ele><time>2026-04-19T09:29:07.054Z</time></trkpt><trkpt lat="44.727765" lon="9.8369867"><ele>662.1999999999999</ele><time>2026-04-19T09:29:08.055Z</time></trkpt><trkpt lat="44.7278017" lon="9.837105"><ele>658.4</ele><time>2026-04-19T09:29:09.055Z</time></trkpt><trkpt lat="44.72785" lon="9.8372267"><ele>654.6</ele><time>2026-04-19T09:29:10.054Z</time></trkpt><trkpt lat="44.7279067" lon="9.837345"><ele>650.8</ele><time>2026-04-19T09:29:11.054Z</time></trkpt><trkpt lat="44.72797" lon="9.8374733"><ele>647.0</ele><time>2026-04-19T09:29:12.053Z</time></trkpt><trkpt lat="44.7280317" lon="9.83761"><ele>648.5</ele><time>2026-04-19T09:29:13.055Z</time></trkpt><trkpt lat="44.72809" lon="9.8377567"><ele>650.0</ele><time>2026-04-19T09:29:14.055Z</time></trkpt><trkpt lat="44.7281467" lon="9.8379133"><ele>651.5</ele><time>2026-04-19T09:29:15.053Z</time></trkpt><trkpt lat="44.728215" lon="9.83807"><ele>653.0</ele><time>2026-04-19T09:29:16.053Z</time></trkpt><trkpt lat="44.7282867" lon="9.8382233"><ele>653.0</ele><time>2026-04-19T09:29:17.054Z</time></trkpt><trkpt lat="44.728365" lon="9.83837"><ele>653.0</ele><time>2026-04-19T09:29:18.056Z</time></trkpt><trkpt lat="44.7284433" lon="9.83851"><ele>653.0</ele><time>2026-04-19T09:29:19.054Z</time></trkpt><trkpt lat="44.72853" lon="9.8386367"><ele>653.0</ele><time>2026-04-19T09:29:20.055Z</time></trkpt><trkpt lat="44.7286267" lon="9.8387383"><ele>650.4</ele><time>2026-04-19T09:29:21.053Z</time></trkpt><trkpt lat="44.7287233" lon="9.83883"><ele>647.8</ele><time>2026-04-19T09:29:22.054Z</time></trkpt><trkpt lat="44.7288183" lon="9.8389083"><ele>645.2</ele><time>2026-04-19T09:29:23.055Z</time></trkpt><trkpt lat="44.72891" lon="9.8389883"><ele>642.6</ele><time>2026-04-19T09:29:24.054Z</time></trkpt><trkpt lat="44.72899" lon="9.8390583"><ele>640.0</ele><time>2026-04-19T09:29:25.054Z</time></trkpt><trkpt lat="44.72906" lon="9.83915"><ele>640.0</ele><time>2026-04-19T09:29:26.054Z</time></trkpt><trkpt lat="44.7291167" lon="9.839245"><ele>640.0</ele><time>2026-04-19T09:29:27.054Z</time></trkpt><trkpt lat="44.7291583" lon="9.839335"><ele>640.0</ele><time>2026-04-19T09:29:28.055Z</time></trkpt><trkpt lat="44.729205" lon="9.839445"><ele>640.0</ele><time>2026-04-19T09:29:30.054Z</time></trkpt><trkpt lat="44.7292" lon="9.8395483"><ele>640.0</ele><time>2026-04-19T09:29:32.054Z</time></trkpt><trkpt lat="44.7291483" lon="9.8396933"><ele>640.0</ele><time>2026-04-19T09:29:34.054Z</time></trkpt><trkpt lat="44.7291433" lon="9.8398133"><ele>639.1666666666667</ele><time>2026-04-19T09:29:36.055Z</time></trkpt><trkpt lat="44.7292283" lon="9.8399117"><ele>638.3333333333334</ele><time>2026-04-19T09:29:38.055Z</time></trkpt><trkpt lat="44.7293083" lon="9.839975"><ele>637.5</ele><time>2026-04-19T09:29:39.056Z</time></trkpt><trkpt lat="44.7293717" lon="9.8400433"><ele>636.6666666666666</ele><time>2026-04-19T09:29:40.055Z</time></trkpt><trkpt lat="44.7294267" lon="9.84011"><ele>635.8333333333333</ele><time>2026-04-19T09:29:41.055Z</time></trkpt><trkpt lat="44.7294733" lon="9.8401817"><ele>635.0</ele><time>2026-04-19T09:29:42.055Z</time></trkpt><trkpt lat="44.7295083" lon="9.8402567"><ele>637.0</ele><time>2026-04-19T09:29:43.055Z</time></trkpt><trkpt lat="44.72954" lon="9.8403367"><ele>639.0</ele><time>2026-04-19T09:29:44.055Z</time></trkpt><trkpt lat="44.7295717" lon="9.8404267"><ele>641.0</ele><time>2026-04-19T09:29:45.053Z</time></trkpt><trkpt lat="44.7296133" lon="9.8405217"><ele>643.0</ele><time>2026-04-19T09:29:46.056Z</time></trkpt><trkpt lat="44.7296617" lon="9.8406233"><ele>645.0</ele><time>2026-04-19T09:29:47.056Z</time></trkpt><trkpt lat="44.7297167" lon="9.8407067"><ele>647.0</ele><time>2026-04-19T09:29:48.055Z</time></trkpt><trkpt lat="44.7297583" lon="9.84079"><ele>647.0</ele><time>2026-04-19T09:29:49.055Z</time></trkpt><trkpt lat="44.729785" lon="9.8408733"><ele>647.0</ele><time>2026-04-19T09:29:50.053Z</time></trkpt><trkpt lat="44.7298267" lon="9.8410333"><ele>647.0</ele><time>2026-04-19T09:29:52.055Z</time></trkpt><trkpt lat="44.7298167" lon="9.8412017"><ele>647.0</ele><time>2026-04-19T09:29:54.055Z</time></trkpt><trkpt lat="44.7298083" lon="9.8412933"><ele>647.0</ele><time>2026-04-19T09:29:55.054Z</time></trkpt><trkpt lat="44.7297867" lon="9.8413817"><ele>647.0</ele><time>2026-04-19T09:29:56.054Z</time></trkpt><trkpt lat="44.7297817" lon="9.84151"><ele>648.3333333333333</ele><time>2026-04-19T09:29:58.053Z</time></trkpt><trkpt lat="44.7297033" lon="9.8415867"><ele>649.6666666666666</ele><time>2026-04-19T09:30:25.055Z</time></trkpt><trkpt lat="44.7296" lon="9.8415917"><ele>651.0</ele><time>2026-04-19T09:30:28.055Z</time></trkpt><trkpt lat="44.72953" lon="9.8415733"><ele>652.3333333333334</ele><time>2026-04-19T09:30:29.055Z</time></trkpt><trkpt lat="44.729455" lon="9.8415467"><ele>653.6666666666667</ele><time>2026-04-19T09:30:30.054Z</time></trkpt><trkpt lat="44.7293767" lon="9.8415267"><ele>655.0</ele><time>2026-04-19T09:30:31.056Z</time></trkpt><trkpt lat="44.7292983" lon="9.841525"><ele>659.2</ele><time>2026-04-19T09:30:32.056Z</time></trkpt><trkpt lat="44.7292183" lon="9.841555"><ele>663.4</ele><time>2026-04-19T09:30:33.054Z</time></trkpt><trkpt lat="44.729125" lon="9.841645"><ele>667.5999999999999</ele><time>2026-04-19T09:30:34.055Z</time></trkpt><trkpt lat="44.7290367" lon="9.8417667"><ele>671.8</ele><time>2026-04-19T09:30:35.055Z</time></trkpt><trkpt lat="44.7289483" lon="9.8418917"><ele>676.0</ele><time>2026-04-19T09:30:36.055Z</time></trkpt><trkpt lat="44.7288667" lon="9.842"><ele>676.8333333333334</ele><time>2026-04-19T09:30:37.055Z</time></trkpt><trkpt lat="44.7288017" lon="9.8420833"><ele>677.6666666666667</ele><time>2026-04-19T09:30:38.055Z</time></trkpt><trkpt lat="44.728755" lon="9.842155"><ele>678.5</ele><time>2026-04-19T09:30:39.055Z</time></trkpt><trkpt lat="44.728665" lon="9.8422883"><ele>679.3333333333334</ele><time>2026-04-19T09:30:41.056Z</time></trkpt><trkpt lat="44.7286117" lon="9.84236"><ele>680.1666666666666</ele><time>2026-04-19T09:30:42.055Z</time></trkpt><trkpt lat="44.7285583" lon="9.84242"><ele>681.0</ele><time>2026-04-19T09:30:43.055Z</time></trkpt><trkpt lat="44.72847" lon="9.8424867"><ele>683.5999999999999</ele><time>2026-04-19T09:30:45.054Z</time></trkpt><trkpt lat="44.728395" lon="9.8425533"><ele>686.2</ele><time>2026-04-19T09:30:47.051Z</time></trkpt><trkpt lat="44.72832" lon="9.842665"><ele>688.8</ele><time>2026-04-19T09:30:49.053Z</time></trkpt><trkpt lat="44.7282567" lon="9.8427767"><ele>691.4000000000001</ele><time>2026-04-19T09:30:51.054Z</time></trkpt><trkpt lat="44.7281933" lon="9.842885"><ele>694.0</ele><time>2026-04-19T09:30:53.056Z</time></trkpt><trkpt lat="44.7281183" lon="9.8429483"><ele>695.1428571428572</ele><time>2026-04-19T09:30:55.054Z</time></trkpt><trkpt lat="44.72805" lon="9.8430167"><ele>696.2857142857142</ele><time>2026-04-19T09:30:57.054Z</time></trkpt><trkpt lat="44.72801" lon="9.84314"><ele>697.4285714285714</ele><time>2026-04-19T09:30:59.053Z</time></trkpt><trkpt lat="44.7279767" lon="9.8432217"><ele>698.5714285714287</ele><time>2026-04-19T09:31:00.053Z</time></trkpt><trkpt lat="44.7279433" lon="9.8433"><ele>699.7142857142858</ele><time>2026-04-19T09:31:01.054Z</time></trkpt><trkpt lat="44.7279133" lon="9.8433783"><ele>700.8571428571429</ele><time>2026-04-19T09:31:02.054Z</time></trkpt><trkpt lat="44.72788" lon="9.84347"><ele>702.0</ele><time>2026-04-19T09:31:03.054Z</time></trkpt><trkpt lat="44.7278517" lon="9.8435617"><ele>702.5</ele><time>2026-04-19T09:31:04.056Z</time></trkpt><trkpt lat="44.7278217" lon="9.8436533"><ele>703.0</ele><time>2026-04-19T09:31:05.054Z</time></trkpt><trkpt lat="44.7277867" lon="9.84373"><ele>703.5</ele><time>2026-04-19T09:31:06.056Z</time></trkpt><trkpt lat="44.727745" lon="9.8437967"><ele>704.0</ele><time>2026-04-19T09:31:07.055Z</time></trkpt><trkpt lat="44.7276617" lon="9.8438817"><ele>704.5</ele><time>2026-04-19T09:31:09.055Z</time></trkpt><trkpt lat="44.72758" lon="9.8439"><ele>705.0</ele><time>2026-04-19T09:31:11.054Z</time></trkpt><trkpt lat="44.72751" lon="9.8438883"><ele>706.8</ele><time>2026-04-19T09:31:13.054Z</time></trkpt><trkpt lat="44.72742" lon="9.843905"><ele>708.6</ele><time>2026-04-19T09:31:15.053Z</time></trkpt><trkpt lat="44.727335" lon="9.8439283"><ele>710.4000000000001</ele><time>2026-04-19T09:31:17.054Z</time></trkpt><trkpt lat="44.7272433" lon="9.8439633"><ele>712.2</ele><time>2026-04-19T09:31:19.053Z</time></trkpt><trkpt lat="44.7271567" lon="9.844005"><ele>714.0</ele><time>2026-04-19T09:31:21.053Z</time></trkpt><trkpt lat="44.727055" lon="9.8440317"><ele>714.0</ele><time>2026-04-19T09:31:23.053Z</time></trkpt><trkpt lat="44.7269933" lon="9.844055"><ele>714.0</ele><time>2026-04-19T09:31:24.053Z</time></trkpt><trkpt lat="44.726895" lon="9.8441083"><ele>714.0</ele><time>2026-04-19T09:31:26.055Z</time></trkpt><trkpt lat="44.7267783" lon="9.844175"><ele>714.0</ele><time>2026-04-19T09:31:28.056Z</time></trkpt><trkpt lat="44.72671" lon="9.8442"><ele>714.0</ele><time>2026-04-19T09:31:29.055Z</time></trkpt><trkpt lat="44.7266367" lon="9.8442167"><ele>714.0</ele><time>2026-04-19T09:31:30.055Z</time></trkpt><trkpt lat="44.7265533" lon="9.8442317"><ele>715.8333333333334</ele><time>2026-04-19T09:31:31.056Z</time></trkpt><trkpt lat="44.7264733" lon="9.8442533"><ele>717.6666666666666</ele><time>2026-04-19T09:31:32.055Z</time></trkpt><trkpt lat="44.7263983" lon="9.844275"><ele>719.5</ele><time>2026-04-19T09:31:33.055Z</time></trkpt><trkpt lat="44.7262933" lon="9.84431"><ele>721.3333333333333</ele><time>2026-04-19T09:31:35.055Z</time></trkpt><trkpt lat="44.726285" lon="9.8444083"><ele>723.1666666666666</ele><time>2026-04-19T09:31:37.056Z</time></trkpt><trkpt lat="44.726275" lon="9.8445067"><ele>725.0</ele><time>2026-04-19T09:31:39.053Z</time></trkpt><trkpt lat="44.7262333" lon="9.8446183"><ele>725.0</ele><time>2026-04-19T09:31:42.053Z</time></trkpt><trkpt lat="44.726195" lon="9.8447017"><ele>725.0</ele><time>2026-04-19T09:31:46.053Z</time></trkpt><trkpt lat="44.7261867" lon="9.84484"><ele>725.0</ele><time>2026-04-19T09:33:42.054Z</time></trkpt><trkpt lat="44.7261817" lon="9.844955"><ele>725.0</ele><time>2026-04-19T09:33:44.056Z</time></trkpt><trkpt lat="44.7261717" lon="9.845085"><ele>725.0</ele><time>2026-04-19T09:33:46.054Z</time></trkpt><trkpt lat="44.7261733" lon="9.8452467"><ele>724.3333333333333</ele><time>2026-04-19T09:33:48.055Z</time></trkpt><trkpt lat="44.7261783" lon="9.8453483"><ele>723.6666666666666</ele><time>2026-04-19T09:33:49.054Z</time></trkpt><trkpt lat="44.7261867" lon="9.8454633"><ele>723.0</ele><time>2026-04-19T09:33:50.054Z</time></trkpt><trkpt lat="44.7261883" lon="9.8455967"><ele>722.3333333333334</ele><time>2026-04-19T09:33:51.056Z</time></trkpt><trkpt lat="44.726195" lon="9.845725"><ele>721.6666666666667</ele><time>2026-04-19T09:33:52.055Z</time></trkpt><trkpt lat="44.7262017" lon="9.8458483"><ele>721.0</ele><time>2026-04-19T09:33:53.054Z</time></trkpt><trkpt lat="44.7262033" lon="9.84596"><ele>720.4</ele><time>2026-04-19T09:33:54.054Z</time></trkpt><trkpt lat="44.726185" lon="9.8460783"><ele>719.8</ele><time>2026-04-19T09:33:56.054Z</time></trkpt><trkpt lat="44.72613" lon="9.8461867"><ele>719.1999999999999</ele><time>2026-04-19T09:33:58.056Z</time></trkpt><trkpt lat="44.72611" lon="9.84629"><ele>718.5999999999999</ele><time>2026-04-19T09:33:59.054Z</time></trkpt><trkpt lat="44.726105" lon="9.8464383"><ele>718.0</ele><time>2026-04-19T09:34:00.054Z</time></trkpt><trkpt lat="44.7260917" lon="9.8465883"><ele>718.0</ele><time>2026-04-19T09:34:01.056Z</time></trkpt><trkpt lat="44.726065" lon="9.8467333"><ele>718.0</ele><time>2026-04-19T09:34:02.054Z</time></trkpt><trkpt lat="44.72603" lon="9.84688"><ele>718.0</ele><time>2026-04-19T09:34:03.056Z</time></trkpt><trkpt lat="44.7259833" lon="9.84705"><ele>718.0</ele><time>2026-04-19T09:34:04.054Z</time></trkpt><trkpt lat="44.7259383" lon="9.84722"><ele>719.75</ele><time>2026-04-19T09:34:05.054Z</time></trkpt><trkpt lat="44.725895" lon="9.8473733"><ele>721.5</ele><time>2026-04-19T09:34:06.054Z</time></trkpt><trkpt lat="44.7258533" lon="9.8475267"><ele>723.25</ele><time>2026-04-19T09:34:07.056Z</time></trkpt><trkpt lat="44.7258083" lon="9.8476967"><ele>725.0</ele><time>2026-04-19T09:34:08.056Z</time></trkpt><trkpt lat="44.7257667" lon="9.8478717"><ele>726.25</ele><time>2026-04-19T09:34:09.055Z</time></trkpt><trkpt lat="44.7257217" lon="9.84805"><ele>727.5</ele><time>2026-04-19T09:34:10.054Z</time></trkpt><trkpt lat="44.7256817" lon="9.84823"><ele>728.75</ele><time>2026-04-19T09:34:11.054Z</time></trkpt><trkpt lat="44.7256483" lon="9.84842"><ele>730.0</ele><time>2026-04-19T09:34:12.055Z</time></trkpt><trkpt lat="44.7256267" lon="9.8486133"><ele>730.75</ele><time>2026-04-19T09:34:13.055Z</time></trkpt><trkpt lat="44.7256067" lon="9.8488067"><ele>731.5</ele><time>2026-04-19T09:34:14.054Z</time></trkpt><trkpt lat="44.7255883" lon="9.849"><ele>732.25</ele><time>2026-04-19T09:34:15.053Z</time></trkpt><trkpt lat="44.72557" lon="9.8491767"><ele>733.0</ele><time>2026-04-19T09:34:16.054Z</time></trkpt><trkpt lat="44.725555" lon="9.84932"><ele>733.8333333333334</ele><time>2026-04-19T09:34:17.055Z</time></trkpt><trkpt lat="44.725545" lon="9.8494283"><ele>734.6666666666667</ele><time>2026-04-19T09:34:18.054Z</time></trkpt><trkpt lat="44.725535" lon="9.8495167"><ele>735.5</ele><time>2026-04-19T09:34:19.056Z</time></trkpt><trkpt lat="44.725525" lon="9.8496317"><ele>736.3333333333334</ele><time>2026-04-19T09:34:21.055Z</time></trkpt><trkpt lat="44.725565" lon="9.8494983"><ele>737.1666666666666</ele><time>2026-04-19T09:34:25.054Z</time></trkpt><trkpt lat="44.72557" lon="9.849405"><ele>738.0</ele><time>2026-04-19T09:34:26.054Z</time></trkpt><trkpt lat="44.7255817" lon="9.8493133"><ele>738.0</ele><time>2026-04-19T09:34:27.056Z</time></trkpt><trkpt lat="44.7255933" lon="9.8491833"><ele>738.0</ele><time>2026-04-19T09:34:29.056Z</time></trkpt><trkpt lat="44.7256033" lon="9.849325"><ele>738.0</ele><time>2026-04-19T09:34:39.055Z</time></trkpt><trkpt lat="44.7256383" lon="9.849405"><ele>738.0</ele><time>2026-04-19T09:34:40.054Z</time></trkpt><trkpt lat="44.725665" lon="9.8494967"><ele>738.0</ele><time>2026-04-19T09:34:41.054Z</time></trkpt><trkpt lat="44.7256817" lon="9.8496167"><ele>738.0</ele><time>2026-04-19T09:34:42.055Z</time></trkpt><trkpt lat="44.72569" lon="9.8497717"><ele>738.0</ele><time>2026-04-19T09:34:43.056Z</time></trkpt><trkpt lat="44.7257117" lon="9.849935"><ele>738.0</ele><time>2026-04-19T09:34:44.054Z</time></trkpt><trkpt lat="44.725735" lon="9.8500933"><ele>738.0</ele><time>2026-04-19T09:34:45.054Z</time></trkpt><trkpt lat="44.7257517" lon="9.85023"><ele>738.0</ele><time>2026-04-19T09:34:46.053Z</time></trkpt><trkpt lat="44.7257733" lon="9.8503533"><ele>738.0</ele><time>2026-04-19T09:34:47.054Z</time></trkpt><trkpt lat="44.725805" lon="9.85047"><ele>739.3333333333334</ele><time>2026-04-19T09:34:48.054Z</time></trkpt><trkpt lat="44.7258433" lon="9.8505833"><ele>740.6666666666666</ele><time>2026-04-19T09:34:49.054Z</time></trkpt><trkpt lat="44.72588" lon="9.8506917"><ele>742.0</ele><time>2026-04-19T09:34:50.055Z</time></trkpt><trkpt lat="44.7259217" lon="9.8507967"><ele>743.3333333333333</ele><time>2026-04-19T09:34:51.053Z</time></trkpt><trkpt lat="44.72596" lon="9.85089"><ele>744.6666666666666</ele><time>2026-04-19T09:34:52.053Z</time></trkpt><trkpt lat="44.7259967" lon="9.8509817"><ele>746.0</ele><time>2026-04-19T09:34:53.055Z</time></trkpt><trkpt lat="44.72604" lon="9.8510633"><ele>746.5999999999999</ele><time>2026-04-19T09:34:54.054Z</time></trkpt><trkpt lat="44.7260883" lon="9.8511467"><ele>747.2</ele><time>2026-04-19T09:34:55.055Z</time></trkpt><trkpt lat="44.7261483" lon="9.851255"><ele>747.8</ele><time>2026-04-19T09:34:56.053Z</time></trkpt><trkpt lat="44.726215" lon="9.8513733"><ele>748.4000000000001</ele><time>2026-04-19T09:34:57.055Z</time></trkpt><trkpt lat="44.7262867" lon="9.851475"><ele>749.0</ele><time>2026-04-19T09:34:58.055Z</time></trkpt><trkpt lat="44.7263567" lon="9.8515633"><ele>749.0</ele><time>2026-04-19T09:34:59.054Z</time></trkpt><trkpt lat="44.72642" lon="9.8516367"><ele>749.0</ele><time>2026-04-19T09:35:00.054Z</time></trkpt><trkpt lat="44.7264767" lon="9.85172"><ele>749.0</ele><time>2026-04-19T09:35:01.056Z</time></trkpt><trkpt lat="44.72652" lon="9.8518117"><ele>749.0</ele><time>2026-04-19T09:35:02.055Z</time></trkpt><trkpt lat="44.7265633" lon="9.8519167"><ele>749.0</ele><time>2026-04-19T09:35:03.054Z</time></trkpt><trkpt lat="44.7266083" lon="9.8520417"><ele>749.0</ele><time>2026-04-19T09:35:04.055Z</time></trkpt><trkpt lat="44.7266583" lon="9.852175"><ele>750.2</ele><time>2026-04-19T09:35:05.055Z</time></trkpt><trkpt lat="44.7267017" lon="9.8523117"><ele>751.4000000000001</ele><time>2026-04-19T09:35:06.055Z</time></trkpt><trkpt lat="44.7267483" lon="9.8524517"><ele>752.6</ele><time>2026-04-19T09:35:07.055Z</time></trkpt><trkpt lat="44.7267833" lon="9.85259"><ele>753.8</ele><time>2026-04-19T09:35:08.056Z</time></trkpt><trkpt lat="44.7268083" lon="9.85273"><ele>755.0</ele><time>2026-04-19T09:35:09.055Z</time></trkpt><trkpt lat="44.7268217" lon="9.8528633"><ele>755.1666666666666</ele><time>2026-04-19T09:35:10.055Z</time></trkpt><trkpt lat="44.7268217" lon="9.8529933"><ele>755.3333333333333</ele><time>2026-04-19T09:35:11.056Z</time></trkpt><trkpt lat="44.7268083" lon="9.8531167"><ele>755.5</ele><time>2026-04-19T09:35:12.054Z</time></trkpt><trkpt lat="44.726795" lon="9.853245"><ele>755.6666666666666</ele><time>2026-04-19T09:35:13.056Z</time></trkpt><trkpt lat="44.7267917" lon="9.85336"><ele>755.8333333333334</ele><time>2026-04-19T09:35:14.054Z</time></trkpt><trkpt lat="44.7267783" lon="9.85346"><ele>756.0</ele><time>2026-04-19T09:35:15.054Z</time></trkpt><trkpt lat="44.726765" lon="9.8535583"><ele>756.0</ele><time>2026-04-19T09:35:16.056Z</time></trkpt><trkpt lat="44.726755" lon="9.8536467"><ele>756.0</ele><time>2026-04-19T09:35:17.055Z</time></trkpt><trkpt lat="44.7267517" lon="9.85377"><ele>756.0</ele><time>2026-04-19T09:35:19.054Z</time></trkpt><trkpt lat="44.7267883" lon="9.853865"><ele>756.0</ele><time>2026-04-19T09:35:21.055Z</time></trkpt><trkpt lat="44.7268767" lon="9.8540333"><ele>756.0</ele><time>2026-04-19T09:35:23.056Z</time></trkpt><trkpt lat="44.7269367" lon="9.8541217"><ele>756.0</ele><time>2026-04-19T09:35:24.054Z</time></trkpt><trkpt lat="44.7270317" lon="9.8542383"><ele>756.0</ele><time>2026-04-19T09:35:25.055Z</time></trkpt><trkpt lat="44.7271233" lon="9.8543417"><ele>756.0</ele><time>2026-04-19T09:35:26.053Z</time></trkpt><trkpt lat="44.7272067" lon="9.8544033"><ele>756.0</ele><time>2026-04-19T09:35:27.053Z</time></trkpt><trkpt lat="44.7272983" lon="9.85445"><ele>756.0</ele><time>2026-04-19T09:35:28.054Z</time></trkpt><trkpt lat="44.7274083" lon="9.8545033"><ele>756.0</ele><time>2026-04-19T09:35:29.055Z</time></trkpt><trkpt lat="44.72754" lon="9.85456"><ele>756.0</ele><time>2026-04-19T09:35:30.055Z</time></trkpt><trkpt lat="44.7276917" lon="9.85463"><ele>756.0</ele><time>2026-04-19T09:35:31.055Z</time></trkpt><trkpt lat="44.72784" lon="9.8546967"><ele>756.75</ele><time>2026-04-19T09:35:32.055Z</time></trkpt><trkpt lat="44.72797" lon="9.8547367"><ele>757.5</ele><time>2026-04-19T09:35:33.053Z</time></trkpt><trkpt lat="44.7280917" lon="9.854755"><ele>758.25</ele><time>2026-04-19T09:35:34.054Z</time></trkpt><trkpt lat="44.7282217" lon="9.8547567"><ele>759.0</ele><time>2026-04-19T09:35:35.056Z</time></trkpt><trkpt lat="44.7283367" lon="9.8547317"><ele>759.0</ele><time>2026-04-19T09:35:36.055Z</time></trkpt><trkpt lat="44.7284467" lon="9.854715"><ele>759.0</ele><time>2026-04-19T09:35:37.056Z</time></trkpt><trkpt lat="44.72855" lon="9.854715"><ele>759.0</ele><time>2026-04-19T09:35:38.056Z</time></trkpt><trkpt lat="44.7286467" lon="9.8547167"><ele>759.0</ele><time>2026-04-19T09:35:39.056Z</time></trkpt><trkpt lat="44.7287383" lon="9.85471"><ele>759.0</ele><time>2026-04-19T09:35:40.055Z</time></trkpt><trkpt lat="44.7288217" lon="9.854695"><ele>759.6666666666666</ele><time>2026-04-19T09:35:41.055Z</time></trkpt><trkpt lat="44.728895" lon="9.85468"><ele>760.3333333333334</ele><time>2026-04-19T09:35:42.055Z</time></trkpt><trkpt lat="44.7289683" lon="9.8547033"><ele>761.0</ele><time>2026-04-19T09:35:43.055Z</time></trkpt><trkpt lat="44.7290433" lon="9.85473"><ele>761.6666666666667</ele><time>2026-04-19T09:35:44.053Z</time></trkpt><trkpt lat="44.7291367" lon="9.85475"><ele>762.3333333333334</ele><time>2026-04-19T09:35:45.052Z</time></trkpt><trkpt lat="44.72923" lon="9.8547517"><ele>763.0</ele><time>2026-04-19T09:35:46.054Z</time></trkpt><trkpt lat="44.729315" lon="9.8547433"><ele>762.0</ele><time>2026-04-19T09:35:47.054Z</time></trkpt><trkpt lat="44.7293967" lon="9.85474"><ele>761.0</ele><time>2026-04-19T09:35:48.054Z</time></trkpt><trkpt lat="44.729465" lon="9.8547517"><ele>760.0</ele><time>2026-04-19T09:35:49.053Z</time></trkpt><trkpt lat="44.72953" lon="9.8547833"><ele>759.0</ele><time>2026-04-19T09:35:50.056Z</time></trkpt><trkpt lat="44.7295833" lon="9.8548383"><ele>758.0</ele><time>2026-04-19T09:35:51.054Z</time></trkpt><trkpt lat="44.72965" lon="9.854905"><ele>757.0</ele><time>2026-04-19T09:35:52.054Z</time></trkpt><trkpt lat="44.7297167" lon="9.8549917"><ele>757.0</ele><time>2026-04-19T09:35:53.055Z</time></trkpt><trkpt lat="44.7297683" lon="9.85507"><ele>757.0</ele><time>2026-04-19T09:35:54.054Z</time></trkpt><trkpt lat="44.729815" lon="9.8551367"><ele>757.0</ele><time>2026-04-19T09:35:55.054Z</time></trkpt><trkpt lat="44.7298733" lon="9.8552017"><ele>757.0</ele><time>2026-04-19T09:35:56.055Z</time></trkpt><trkpt lat="44.7299233" lon="9.8552683"><ele>757.0</ele><time>2026-04-19T09:35:57.055Z</time></trkpt><trkpt lat="44.7299667" lon="9.8553433"><ele>757.0</ele><time>2026-04-19T09:35:58.053Z</time></trkpt><trkpt lat="44.7300217" lon="9.8554167"><ele>757.0</ele><time>2026-04-19T09:35:59.053Z</time></trkpt><trkpt lat="44.730135" lon="9.8555267"><ele>755.2</ele><time>2026-04-19T09:36:01.054Z</time></trkpt><trkpt lat="44.730205" lon="9.8556133"><ele>753.4000000000001</ele><time>2026-04-19T09:36:02.054Z</time></trkpt><trkpt lat="44.7302767" lon="9.855705"><ele>751.5999999999999</ele><time>2026-04-19T09:36:03.054Z</time></trkpt><trkpt lat="44.7303367" lon="9.8558067"><ele>749.8</ele><time>2026-04-19T09:36:04.053Z</time></trkpt><trkpt lat="44.7303883" lon="9.8559133"><ele>748.0</ele><time>2026-04-19T09:36:05.056Z</time></trkpt><trkpt lat="44.7304383" lon="9.8560267"><ele>746.2</ele><time>2026-04-19T09:36:06.055Z</time></trkpt><trkpt lat="44.7304833" lon="9.8561517"><ele>744.4</ele><time>2026-04-19T09:36:07.056Z</time></trkpt><trkpt lat="44.730535" lon="9.8562667"><ele>742.6</ele><time>2026-04-19T09:36:08.055Z</time></trkpt><trkpt lat="44.7306" lon="9.8563833"><ele>740.8000000000001</ele><time>2026-04-19T09:36:09.056Z</time></trkpt><trkpt lat="44.73067" lon="9.856485"><ele>739.0</ele><time>2026-04-19T09:36:10.055Z</time></trkpt><trkpt lat="44.73074" lon="9.8565833"><ele>739.0</ele><time>2026-04-19T09:36:11.056Z</time></trkpt><trkpt lat="44.7308033" lon="9.856675"><ele>739.0</ele><time>2026-04-19T09:36:12.056Z</time></trkpt><trkpt lat="44.7308617" lon="9.85675"><ele>739.0</ele><time>2026-04-19T09:36:13.057Z</time></trkpt><trkpt lat="44.7309367" lon="9.8568483"><ele>739.0</ele><time>2026-04-19T09:36:15.056Z</time></trkpt><trkpt lat="44.73102" lon="9.8569917"><ele>739.0</ele><time>2026-04-19T09:36:17.054Z</time></trkpt><trkpt lat="44.7310717" lon="9.8570767"><ele>736.8571428571429</ele><time>2026-04-19T09:36:18.056Z</time></trkpt><trkpt lat="44.7311183" lon="9.8571567"><ele>734.7142857142858</ele><time>2026-04-19T09:36:19.055Z</time></trkpt><trkpt lat="44.7311633" lon="9.8572317"><ele>732.5714285714286</ele><time>2026-04-19T09:36:20.054Z</time></trkpt><trkpt lat="44.7312117" lon="9.857305"><ele>730.4285714285714</ele><time>2026-04-19T09:36:21.053Z</time></trkpt><trkpt lat="44.73125" lon="9.8573783"><ele>728.2857142857142</ele><time>2026-04-19T09:36:22.055Z</time></trkpt><trkpt lat="44.7312933" lon="9.8574433"><ele>726.1428571428571</ele><time>2026-04-19T09:36:23.056Z</time></trkpt><trkpt lat="44.7313283" lon="9.8575267"><ele>724.0</ele><time>2026-04-19T09:36:26.055Z</time></trkpt><trkpt lat="44.7313783" lon="9.8576633"><ele>723.6666666666667</ele><time>2026-04-19T09:36:28.055Z</time></trkpt><trkpt lat="44.731425" lon="9.8578067"><ele>723.3333333333334</ele><time>2026-04-19T09:36:30.055Z</time></trkpt><trkpt lat="44.73146" lon="9.8579033"><ele>723.0</ele><time>2026-04-19T09:36:31.055Z</time></trkpt><trkpt lat="44.7314983" lon="9.857975"><ele>722.6666666666666</ele><time>2026-04-19T09:36:32.054Z</time></trkpt><trkpt lat="44.7315467" lon="9.8580383"><ele>722.3333333333333</ele><time>2026-04-19T09:36:33.054Z</time></trkpt><trkpt lat="44.7315933" lon="9.8581083"><ele>722.0</ele><time>2026-04-19T09:36:34.056Z</time></trkpt><trkpt lat="44.73165" lon="9.8581933"><ele>722.0</ele><time>2026-04-19T09:36:35.053Z</time></trkpt><trkpt lat="44.7317067" lon="9.8582867"><ele>722.0</ele><time>2026-04-19T09:36:36.053Z</time></trkpt><trkpt lat="44.731755" lon="9.8583767"><ele>722.0</ele><time>2026-04-19T09:36:37.053Z</time></trkpt><trkpt lat="44.7317983" lon="9.8584417"><ele>722.0</ele><time>2026-04-19T09:36:38.053Z</time></trkpt><trkpt lat="44.7318733" lon="9.858525"><ele>722.0</ele><time>2026-04-19T09:36:40.052Z</time></trkpt><trkpt lat="44.73193" lon="9.8585717"><ele>722.0</ele><time>2026-04-19T09:36:42.054Z</time></trkpt><trkpt lat="44.7319933" lon="9.85862"><ele>720.5</ele><time>2026-04-19T09:36:45.053Z</time></trkpt><trkpt lat="44.73204" lon="9.858695"><ele>719.0</ele><time>2026-04-19T09:36:48.053Z</time></trkpt><trkpt lat="44.732085" lon="9.8587783"><ele>717.5</ele><time>2026-04-19T09:36:50.054Z</time></trkpt><trkpt lat="44.7321383" lon="9.8588867"><ele>716.0</ele><time>2026-04-19T09:36:52.055Z</time></trkpt><trkpt lat="44.7321933" lon="9.8589933"><ele>714.5</ele><time>2026-04-19T09:36:54.053Z</time></trkpt><trkpt lat="44.73225" lon="9.8590567"><ele>713.0</ele><time>2026-04-19T09:36:56.054Z</time></trkpt><trkpt lat="44.7323233" lon="9.8591217"><ele>713.0</ele><time>2026-04-19T09:36:58.054Z</time></trkpt><trkpt lat="44.73239" lon="9.8591767"><ele>713.0</ele><time>2026-04-19T09:37:00.054Z</time></trkpt><trkpt lat="44.7324667" lon="9.8592233"><ele>713.0</ele><time>2026-04-19T09:37:02.056Z</time></trkpt><trkpt lat="44.732555" lon="9.85927"><ele>713.0</ele><time>2026-04-19T09:37:04.053Z</time></trkpt><trkpt lat="44.7326367" lon="9.8592967"><ele>713.0</ele><time>2026-04-19T09:37:06.056Z</time></trkpt><trkpt lat="44.7327133" lon="9.8592833"><ele>713.0</ele><time>2026-04-19T09:37:08.054Z</time></trkpt><trkpt lat="44.7328083" lon="9.8593317"><ele>711.5999999999999</ele><time>2026-04-19T09:37:16.053Z</time></trkpt><trkpt lat="44.7328883" lon="9.859405"><ele>710.1999999999999</ele><time>2026-04-19T09:37:19.055Z</time></trkpt><trkpt lat="44.73298" lon="9.8594667"><ele>708.8</ele><time>2026-04-19T09:37:21.055Z</time></trkpt><trkpt lat="44.7330933" lon="9.8595467"><ele>707.4</ele><time>2026-04-19T09:37:23.056Z</time></trkpt><trkpt lat="44.7331833" lon="9.8596017"><ele>706.0</ele><time>2026-04-19T09:37:25.055Z</time></trkpt><trkpt lat="44.73322" lon="9.8596883"><ele>706.0</ele><time>2026-04-19T09:37:28.054Z</time></trkpt><trkpt lat="44.733265" lon="9.859765"><ele>706.0</ele><time>2026-04-19T09:37:30.055Z</time></trkpt><trkpt lat="44.7333567" lon="9.85979"><ele>706.0</ele><time>2026-04-19T09:37:32.057Z</time></trkpt><trkpt lat="44.7334583" lon="9.859815"><ele>706.0</ele><time>2026-04-19T09:37:34.055Z</time></trkpt><trkpt lat="44.7335467" lon="9.8598333"><ele>706.0</ele><time>2026-04-19T09:37:36.055Z</time></trkpt><trkpt lat="44.7336483" lon="9.8598567"><ele>704.1999999999999</ele><time>2026-04-19T09:37:38.056Z</time></trkpt><trkpt lat="44.7337533" lon="9.85988"><ele>702.4</ele><time>2026-04-19T09:37:40.056Z</time></trkpt><trkpt lat="44.7338517" lon="9.8598933"><ele>700.6</ele><time>2026-04-19T09:37:42.055Z</time></trkpt><trkpt lat="44.7339567" lon="9.8598933"><ele>698.8</ele><time>2026-04-19T09:37:44.056Z</time></trkpt><trkpt lat="44.7340583" lon="9.8599083"><ele>697.0</ele><time>2026-04-19T09:37:46.055Z</time></trkpt><trkpt lat="44.7341667" lon="9.8599367"><ele>697.0</ele><time>2026-04-19T09:37:48.053Z</time></trkpt><trkpt lat="44.7342767" lon="9.8599483"><ele>697.0</ele><time>2026-04-19T09:37:50.056Z</time></trkpt><trkpt lat="44.734395" lon="9.859965"><ele>697.0</ele><time>2026-04-19T09:37:52.053Z</time></trkpt><trkpt lat="44.7344583" lon="9.85997"><ele>697.0</ele><time>2026-04-19T09:37:53.054Z</time></trkpt><trkpt lat="44.7345233" lon="9.85998"><ele>697.0</ele><time>2026-04-19T09:37:54.055Z</time></trkpt><trkpt lat="44.734595" lon="9.859995"><ele>697.0</ele><time>2026-04-19T09:37:55.055Z</time></trkpt><trkpt lat="44.7346583" lon="9.8599983"><ele>696.5</ele><time>2026-04-19T09:37:56.055Z</time></trkpt><trkpt lat="44.734725" lon="9.86"><ele>696.0</ele><time>2026-04-19T09:37:57.053Z</time></trkpt><trkpt lat="44.7348017" lon="9.8600017"><ele>695.5</ele><time>2026-04-19T09:37:58.054Z</time></trkpt><trkpt lat="44.7348817" lon="9.86"><ele>695.0</ele><time>2026-04-19T09:37:59.055Z</time></trkpt><trkpt lat="44.7349483" lon="9.8599983"><ele>694.5</ele><time>2026-04-19T09:38:00.055Z</time></trkpt><trkpt lat="44.7350633" lon="9.859995"><ele>694.0</ele><time>2026-04-19T09:38:02.055Z</time></trkpt><trkpt lat="44.7351333" lon="9.859955"><ele>694.0</ele><time>2026-04-19T09:38:03.055Z</time></trkpt><trkpt lat="44.7352" lon="9.8598967"><ele>694.0</ele><time>2026-04-19T09:38:04.054Z</time></trkpt><trkpt lat="44.7352683" lon="9.85984"><ele>694.0</ele><time>2026-04-19T09:38:05.054Z</time></trkpt><trkpt lat="44.735325" lon="9.8597983"><ele>694.0</ele><time>2026-04-19T09:38:06.056Z</time></trkpt><trkpt lat="44.7353933" lon="9.8597683"><ele>694.0</ele><time>2026-04-19T09:38:07.054Z</time></trkpt><trkpt lat="44.7354733" lon="9.85976"><ele>694.0</ele><time>2026-04-19T09:38:08.056Z</time></trkpt><trkpt lat="44.7355567" lon="9.8597467"><ele>692.6666666666667</ele><time>2026-04-19T09:38:09.056Z</time></trkpt><trkpt lat="44.7356317" lon="9.85973"><ele>691.3333333333334</ele><time>2026-04-19T09:38:10.054Z</time></trkpt><trkpt lat="44.7357" lon="9.8597167"><ele>690.0</ele><time>2026-04-19T09:38:11.056Z</time></trkpt><trkpt lat="44.7358067" lon="9.8597217"><ele>688.6666666666666</ele><time>2026-04-19T09:38:13.056Z</time></trkpt><trkpt lat="44.7358717" lon="9.8597417"><ele>687.3333333333333</ele><time>2026-04-19T09:38:14.056Z</time></trkpt><trkpt lat="44.7359433" lon="9.8597567"><ele>686.0</ele><time>2026-04-19T09:38:15.055Z</time></trkpt><trkpt lat="44.736015" lon="9.859775"><ele>684.1666666666666</ele><time>2026-04-19T09:38:16.054Z</time></trkpt><trkpt lat="44.736085" lon="9.8598017"><ele>682.3333333333333</ele><time>2026-04-19T09:38:17.053Z</time></trkpt><trkpt lat="44.7361567" lon="9.8598333"><ele>680.5</ele><time>2026-04-19T09:38:18.054Z</time></trkpt><trkpt lat="44.7362333" lon="9.85987"><ele>678.6666666666666</ele><time>2026-04-19T09:38:19.056Z</time></trkpt><trkpt lat="44.7363" lon="9.8599083"><ele>676.8333333333334</ele><time>2026-04-19T09:38:20.054Z</time></trkpt><trkpt lat="44.736375" lon="9.8599767"><ele>675.0</ele><time>2026-04-19T09:38:22.054Z</time></trkpt><trkpt lat="44.7364783" lon="9.85999"><ele>675.0</ele><time>2026-04-19T09:38:24.053Z</time></trkpt><trkpt lat="44.736565" lon="9.8599833"><ele>675.0</ele><time>2026-04-19T09:38:25.056Z</time></trkpt><trkpt lat="44.7366633" lon="9.8599883"><ele>675.0</ele><time>2026-04-19T09:38:26.054Z</time></trkpt><trkpt lat="44.7367667" lon="9.8600033"><ele>675.0</ele><time>2026-04-19T09:38:27.055Z</time></trkpt><trkpt lat="44.736875" lon="9.860025"><ele>675.0</ele><time>2026-04-19T09:38:28.056Z</time></trkpt><trkpt lat="44.73699" lon="9.8600517"><ele>673.25</ele><time>2026-04-19T09:38:29.054Z</time></trkpt><trkpt lat="44.7371083" lon="9.8600817"><ele>671.5</ele><time>2026-04-19T09:38:30.054Z</time></trkpt><trkpt lat="44.7372333" lon="9.8601117"><ele>669.75</ele><time>2026-04-19T09:38:31.055Z</time></trkpt><trkpt lat="44.73736" lon="9.8601367"><ele>668.0</ele><time>2026-04-19T09:38:32.054Z</time></trkpt><trkpt lat="44.7374883" lon="9.8601583"><ele>668.25</ele><time>2026-04-19T09:38:33.053Z</time></trkpt><trkpt lat="44.737615" lon="9.8601767"><ele>668.5</ele><time>2026-04-19T09:38:34.054Z</time></trkpt><trkpt lat="44.7377417" lon="9.8601983"><ele>668.75</ele><time>2026-04-19T09:38:35.055Z</time></trkpt><trkpt lat="44.7378667" lon="9.8602217"><ele>669.0</ele><time>2026-04-19T09:38:36.055Z</time></trkpt><trkpt lat="44.73799" lon="9.8602533"><ele>669.0</ele><time>2026-04-19T09:38:37.055Z</time></trkpt><trkpt lat="44.7381117" lon="9.8603017"><ele>669.0</ele><time>2026-04-19T09:38:38.053Z</time></trkpt><trkpt lat="44.73823" lon="9.8603783"><ele>669.0</ele><time>2026-04-19T09:38:39.052Z</time></trkpt><trkpt lat="44.738345" lon="9.860465"><ele>669.0</ele><time>2026-04-19T09:38:40.053Z</time></trkpt><trkpt lat="44.738465" lon="9.8605417"><ele>668.0</ele><time>2026-04-19T09:38:41.053Z</time></trkpt><trkpt lat="44.73859" lon="9.8606033"><ele>667.0</ele><time>2026-04-19T09:38:42.054Z</time></trkpt><trkpt lat="44.73872" lon="9.8606517"><ele>666.0</ele><time>2026-04-19T09:38:43.056Z</time></trkpt><trkpt lat="44.7388483" lon="9.8606917"><ele>665.0</ele><time>2026-04-19T09:38:44.055Z</time></trkpt><trkpt lat="44.738975" lon="9.8607267"><ele>665.0</ele><time>2026-04-19T09:38:45.055Z</time></trkpt><trkpt lat="44.7391083" lon="9.8607617"><ele>665.0</ele><time>2026-04-19T09:38:46.052Z</time></trkpt><trkpt lat="44.7392417" lon="9.8607933"><ele>665.0</ele><time>2026-04-19T09:38:47.054Z</time></trkpt><trkpt lat="44.7393733" lon="9.860825"><ele>665.0</ele><time>2026-04-19T09:38:48.055Z</time></trkpt><trkpt lat="44.7395033" lon="9.8608583"><ele>664.5</ele><time>2026-04-19T09:38:49.054Z</time></trkpt><trkpt lat="44.7396317" lon="9.8608933"><ele>664.0</ele><time>2026-04-19T09:38:50.053Z</time></trkpt><trkpt lat="44.7397583" lon="9.8609333"><ele>663.5</ele><time>2026-04-19T09:38:51.055Z</time></trkpt><trkpt lat="44.739885" lon="9.8609817"><ele>663.0</ele><time>2026-04-19T09:38:52.052Z</time></trkpt><trkpt lat="44.74001" lon="9.8610317"><ele>662.0</ele><time>2026-04-19T09:38:53.052Z</time></trkpt><trkpt lat="44.7401333" lon="9.8610783"><ele>661.0</ele><time>2026-04-19T09:38:54.053Z</time></trkpt><trkpt lat="44.7402533" lon="9.8611183"><ele>660.0</ele><time>2026-04-19T09:38:55.055Z</time></trkpt><trkpt lat="44.7403717" lon="9.8611567"><ele>659.0</ele><time>2026-04-19T09:38:56.055Z</time></trkpt><trkpt lat="44.7404833" lon="9.8611917"><ele>661.8000000000001</ele><time>2026-04-19T09:38:57.054Z</time></trkpt><trkpt lat="44.7405917" lon="9.8612233"><ele>664.6</ele><time>2026-04-19T09:38:58.054Z</time></trkpt><trkpt lat="44.7406917" lon="9.861255"><ele>667.4</ele><time>2026-04-19T09:38:59.056Z</time></trkpt><trkpt lat="44.740785" lon="9.86129"><ele>670.2</ele><time>2026-04-19T09:39:00.055Z</time></trkpt><trkpt lat="44.7408733" lon="9.86134"><ele>673.0</ele><time>2026-04-19T09:39:01.056Z</time></trkpt><trkpt lat="44.740955" lon="9.8614083"><ele>673.0</ele><time>2026-04-19T09:39:02.056Z</time></trkpt><trkpt lat="44.74102" lon="9.8614833"><ele>673.0</ele><time>2026-04-19T09:39:03.055Z</time></trkpt><trkpt lat="44.7411" lon="9.8615717"><ele>673.0</ele><time>2026-04-19T09:39:05.052Z</time></trkpt><trkpt lat="44.7411017" lon="9.86147"><ele>673.0</ele><time>2026-04-19T09:39:08.055Z</time></trkpt><trkpt lat="44.7411017" lon="9.86138"><ele>673.0</ele><time>2026-04-19T09:39:10.055Z</time></trkpt><trkpt lat="44.741155" lon="9.8612233"><ele>673.0</ele><time>2026-04-19T09:39:12.053Z</time></trkpt><trkpt lat="44.7411983" lon="9.8611133"><ele>674.1666666666667</ele><time>2026-04-19T09:39:13.052Z</time></trkpt><trkpt lat="44.7412333" lon="9.8610067"><ele>675.3333333333334</ele><time>2026-04-19T09:39:14.053Z</time></trkpt><trkpt lat="44.7412683" lon="9.8609017"><ele>676.5</ele><time>2026-04-19T09:39:15.053Z</time></trkpt><trkpt lat="44.7413167" lon="9.860805"><ele>677.6666666666666</ele><time>2026-04-19T09:39:16.052Z</time></trkpt><trkpt lat="44.7413667" lon="9.8607183"><ele>678.8333333333333</ele><time>2026-04-19T09:39:17.053Z</time></trkpt><trkpt lat="44.7414117" lon="9.8606333"><ele>680.0</ele><time>2026-04-19T09:39:18.053Z</time></trkpt><trkpt lat="44.74145" lon="9.860545"><ele>680.0</ele><time>2026-04-19T09:39:19.055Z</time></trkpt><trkpt lat="44.7414917" lon="9.8604633"><ele>680.0</ele><time>2026-04-19T09:39:20.053Z</time></trkpt><trkpt lat="44.741545" lon="9.8604"><ele>680.0</ele><time>2026-04-19T09:39:21.053Z</time></trkpt><trkpt lat="44.741605" lon="9.8603517"><ele>680.0</ele><time>2026-04-19T09:39:22.055Z</time></trkpt><trkpt lat="44.7416733" lon="9.8603117"><ele>680.0</ele><time>2026-04-19T09:39:23.054Z</time></trkpt><trkpt lat="44.7417383" lon="9.8602833"><ele>680.0</ele><time>2026-04-19T09:39:24.055Z</time></trkpt><trkpt lat="44.7418467" lon="9.8602817"><ele>681.1666666666666</ele><time>2026-04-19T09:39:26.055Z</time></trkpt><trkpt lat="44.7419183" lon="9.8603"><ele>682.3333333333333</ele><time>2026-04-19T09:39:27.054Z</time></trkpt><trkpt lat="44.7420267" lon="9.8603083"><ele>683.5</ele><time>2026-04-19T09:39:29.054Z</time></trkpt><trkpt lat="44.7420967" lon="9.8602917"><ele>684.6666666666666</ele><time>2026-04-19T09:39:30.054Z</time></trkpt><trkpt lat="44.7421667" lon="9.8602583"><ele>685.8333333333334</ele><time>2026-04-19T09:39:31.054Z</time></trkpt><trkpt lat="44.7422367" lon="9.86022"><ele>687.0</ele><time>2026-04-19T09:39:32.054Z</time></trkpt><trkpt lat="44.7423017" lon="9.8601783"><ele>683.0</ele><time>2026-04-19T09:39:33.054Z</time></trkpt><trkpt lat="44.7423933" lon="9.860075"><ele>679.0</ele><time>2026-04-19T09:39:35.055Z</time></trkpt><trkpt lat="44.7424383" lon="9.8600033"><ele>675.0</ele><time>2026-04-19T09:39:36.054Z</time></trkpt><trkpt lat="44.742475" lon="9.8599217"><ele>671.0</ele><time>2026-04-19T09:39:37.053Z</time></trkpt><trkpt lat="44.742495" lon="9.8598317"><ele>667.0</ele><time>2026-04-19T09:39:38.053Z</time></trkpt><trkpt lat="44.7425417" lon="9.8597233"><ele>663.0</ele><time>2026-04-19T09:39:39.053Z</time></trkpt><trkpt lat="44.742595" lon="9.8596083"><ele>663.0</ele><time>2026-04-19T09:39:40.054Z</time></trkpt><trkpt lat="44.74267" lon="9.859495"><ele>663.0</ele><time>2026-04-19T09:39:41.052Z</time></trkpt><trkpt lat="44.7427233" lon="9.859425"><ele>663.0</ele><time>2026-04-19T09:39:42.053Z</time></trkpt><trkpt lat="44.7428067" lon="9.8593533"><ele>663.0</ele><time>2026-04-19T09:39:43.053Z</time></trkpt><trkpt lat="44.742885" lon="9.8592767"><ele>663.0</ele><time>2026-04-19T09:39:44.053Z</time></trkpt><trkpt lat="44.742945" lon="9.8591983"><ele>661.6666666666666</ele><time>2026-04-19T09:39:45.053Z</time></trkpt><trkpt lat="44.743" lon="9.8591417"><ele>660.3333333333334</ele><time>2026-04-19T09:39:46.053Z</time></trkpt><trkpt lat="44.7430667" lon="9.8591083"><ele>659.0</ele><time>2026-04-19T09:39:47.055Z</time></trkpt><trkpt lat="44.7431317" lon="9.8590817"><ele>657.6666666666667</ele><time>2026-04-19T09:39:48.055Z</time></trkpt><trkpt lat="44.7432583" lon="9.8590617"><ele>656.3333333333334</ele><time>2026-04-19T09:39:50.055Z</time></trkpt><trkpt lat="44.7433333" lon="9.859055"><ele>655.0</ele><time>2026-04-19T09:39:51.055Z</time></trkpt><trkpt lat="44.7434083" lon="9.8590517"><ele>655.0</ele><time>2026-04-19T09:39:52.055Z</time></trkpt><trkpt lat="44.743515" lon="9.8590383"><ele>655.0</ele><time>2026-04-19T09:39:53.055Z</time></trkpt><trkpt lat="44.7436033" lon="9.85902"><ele>655.0</ele><time>2026-04-19T09:39:54.055Z</time></trkpt><trkpt lat="44.7436983" lon="9.8589833"><ele>655.0</ele><time>2026-04-19T09:39:55.054Z</time></trkpt><trkpt lat="44.7437933" lon="9.8589567"><ele>655.0</ele><time>2026-04-19T09:39:56.056Z</time></trkpt><trkpt lat="44.74387" lon="9.8589417"><ele>655.4285714285714</ele><time>2026-04-19T09:39:57.055Z</time></trkpt><trkpt lat="44.7439433" lon="9.85893"><ele>655.8571428571429</ele><time>2026-04-19T09:39:58.054Z</time></trkpt><trkpt lat="44.7440233" lon="9.85893"><ele>656.2857142857142</ele><time>2026-04-19T09:39:59.052Z</time></trkpt><trkpt lat="44.7441067" lon="9.858915"><ele>656.7142857142858</ele><time>2026-04-19T09:40:00.055Z</time></trkpt><trkpt lat="44.7441867" lon="9.8589133"><ele>657.1428571428571</ele><time>2026-04-19T09:40:01.054Z</time></trkpt><trkpt lat="44.74425" lon="9.8589217"><ele>657.5714285714286</ele><time>2026-04-19T09:40:02.054Z</time></trkpt><trkpt lat="44.7443133" lon="9.85894"><ele>658.0</ele><time>2026-04-19T09:40:03.055Z</time></trkpt><trkpt lat="44.7444283" lon="9.8589717"><ele>656.8</ele><time>2026-04-19T09:40:05.054Z</time></trkpt><trkpt lat="44.74455" lon="9.8590217"><ele>655.5999999999999</ele><time>2026-04-19T09:40:07.055Z</time></trkpt><trkpt lat="44.7446217" lon="9.859035"><ele>654.4000000000001</ele><time>2026-04-19T09:40:08.055Z</time></trkpt><trkpt lat="44.7446883" lon="9.8590517"><ele>653.2</ele><time>2026-04-19T09:40:10.054Z</time></trkpt><trkpt lat="44.744775" lon="9.8590283"><ele>652.0</ele><time>2026-04-19T09:40:11.055Z</time></trkpt><trkpt lat="44.74491" lon="9.858985"><ele>652.0</ele><time>2026-04-19T09:40:13.053Z</time></trkpt><trkpt lat="44.74503" lon="9.8589483"><ele>652.0</ele><time>2026-04-19T09:40:15.053Z</time></trkpt><trkpt lat="44.7451483" lon="9.858945"><ele>652.0</ele><time>2026-04-19T09:40:17.053Z</time></trkpt><trkpt lat="44.7452433" lon="9.8589883"><ele>652.0</ele><time>2026-04-19T09:40:19.055Z</time></trkpt><trkpt lat="44.7453233" lon="9.8590717"><ele>652.0</ele><time>2026-04-19T09:40:21.055Z</time></trkpt><trkpt lat="44.745405" lon="9.859175"><ele>651.8333333333334</ele><time>2026-04-19T09:40:23.055Z</time></trkpt><trkpt lat="44.74547" lon="9.85922"><ele>651.6666666666667</ele><time>2026-04-19T09:40:25.054Z</time></trkpt><trkpt lat="44.7455167" lon="9.85929"><ele>651.5</ele><time>2026-04-19T09:40:27.055Z</time></trkpt><trkpt lat="44.7455867" lon="9.85938"><ele>651.3333333333334</ele><time>2026-04-19T09:40:29.056Z</time></trkpt><trkpt lat="44.745675" lon="9.8594667"><ele>651.1666666666666</ele><time>2026-04-19T09:40:31.055Z</time></trkpt><trkpt lat="44.745745" lon="9.8595267"><ele>651.0</ele><time>2026-04-19T09:40:33.054Z</time></trkpt><trkpt lat="44.7458533" lon="9.8595267"><ele>651.0</ele><time>2026-04-19T09:40:35.056Z</time></trkpt><trkpt lat="44.7459267" lon="9.8595133"><ele>651.0</ele><time>2026-04-19T09:40:36.054Z</time></trkpt><trkpt lat="44.746055" lon="9.85947"><ele>651.0</ele><time>2026-04-19T09:40:38.054Z</time></trkpt><trkpt lat="44.7461233" lon="9.8594483"><ele>651.0</ele><time>2026-04-19T09:40:39.055Z</time></trkpt><trkpt lat="44.7461883" lon="9.8593883"><ele>651.0</ele><time>2026-04-19T09:40:40.054Z</time></trkpt><trkpt lat="44.7462617" lon="9.8593167"><ele>651.0</ele><time>2026-04-19T09:40:41.054Z</time></trkpt><trkpt lat="44.7463467" lon="9.8592583"><ele>647.3333333333334</ele><time>2026-04-19T09:40:42.054Z</time></trkpt><trkpt lat="44.74642" lon="9.859235"><ele>643.6666666666666</ele><time>2026-04-19T09:40:43.053Z</time></trkpt><trkpt lat="44.7465017" lon="9.8592117"><ele>640.0</ele><time>2026-04-19T09:40:44.054Z</time></trkpt><trkpt lat="44.74658" lon="9.85918"><ele>636.3333333333333</ele><time>2026-04-19T09:40:45.052Z</time></trkpt><trkpt lat="44.7466783" lon="9.8591233"><ele>632.6666666666666</ele><time>2026-04-19T09:40:46.051Z</time></trkpt><trkpt lat="44.746765" lon="9.8590733"><ele>629.0</ele><time>2026-04-19T09:40:47.053Z</time></trkpt><trkpt lat="44.7468533" lon="9.8590067"><ele>630.5</ele><time>2026-04-19T09:40:48.054Z</time></trkpt><trkpt lat="44.7469267" lon="9.8589417"><ele>632.0</ele><time>2026-04-19T09:40:49.054Z</time></trkpt><trkpt lat="44.7469967" lon="9.8588967"><ele>633.5</ele><time>2026-04-19T09:40:50.056Z</time></trkpt><trkpt lat="44.74712" lon="9.8588817"><ele>635.0</ele><time>2026-04-19T09:40:52.054Z</time></trkpt><trkpt lat="44.7471833" lon="9.8588967"><ele>636.5</ele><time>2026-04-19T09:40:53.056Z</time></trkpt><trkpt lat="44.7472483" lon="9.85894"><ele>638.0</ele><time>2026-04-19T09:40:54.055Z</time></trkpt><trkpt lat="44.7473033" lon="9.8589967"><ele>638.0</ele><time>2026-04-19T09:40:55.054Z</time></trkpt><trkpt lat="44.7473867" lon="9.8591017"><ele>638.0</ele><time>2026-04-19T09:40:57.055Z</time></trkpt><trkpt lat="44.7474483" lon="9.8592167"><ele>638.0</ele><time>2026-04-19T09:40:59.053Z</time></trkpt><trkpt lat="44.74752" lon="9.8593567"><ele>638.0</ele><time>2026-04-19T09:41:01.052Z</time></trkpt><trkpt lat="44.7475667" lon="9.8594533"><ele>638.0</ele><time>2026-04-19T09:41:02.054Z</time></trkpt><trkpt lat="44.7476133" lon="9.859555"><ele>638.4285714285714</ele><time>2026-04-19T09:41:03.054Z</time></trkpt><trkpt lat="44.7476533" lon="9.8596467"><ele>638.8571428571428</ele><time>2026-04-19T09:41:04.052Z</time></trkpt><trkpt lat="44.7476917" lon="9.8597433"><ele>639.2857142857142</ele><time>2026-04-19T09:41:05.055Z</time></trkpt><trkpt lat="44.7477317" lon="9.8598317"><ele>639.7142857142858</ele><time>2026-04-19T09:41:06.054Z</time></trkpt><trkpt lat="44.747765" lon="9.85992"><ele>640.1428571428571</ele><time>2026-04-19T09:41:07.054Z</time></trkpt><trkpt lat="44.7477917" lon="9.8600083"><ele>640.5714285714286</ele><time>2026-04-19T09:41:08.052Z</time></trkpt><trkpt lat="44.74782" lon="9.860105"><ele>641.0</ele><time>2026-04-19T09:41:09.052Z</time></trkpt><trkpt lat="44.7478467" lon="9.8601983"><ele>641.0</ele><time>2026-04-19T09:41:10.054Z</time></trkpt><trkpt lat="44.7478667" lon="9.8602917"><ele>641.0</ele><time>2026-04-19T09:41:11.054Z</time></trkpt><trkpt lat="44.7478667" lon="9.8603867"><ele>641.0</ele><time>2026-04-19T09:41:12.056Z</time></trkpt><trkpt lat="44.7478783" lon="9.8605"><ele>641.0</ele><time>2026-04-19T09:41:13.055Z</time></trkpt><trkpt lat="44.7478667" lon="9.8606333"><ele>641.0</ele><time>2026-04-19T09:41:14.054Z</time></trkpt><trkpt lat="44.7478567" lon="9.8607467"><ele>641.0</ele><time>2026-04-19T09:41:15.054Z</time></trkpt><trkpt lat="44.7478433" lon="9.860865"><ele>642.0</ele><time>2026-04-19T09:41:16.055Z</time></trkpt><trkpt lat="44.7478383" lon="9.8609933"><ele>643.0</ele><time>2026-04-19T09:41:17.056Z</time></trkpt><trkpt lat="44.7478367" lon="9.8611033"><ele>644.0</ele><time>2026-04-19T09:41:18.054Z</time></trkpt><trkpt lat="44.747825" lon="9.8612283"><ele>645.0</ele><time>2026-04-19T09:41:19.055Z</time></trkpt><trkpt lat="44.7478183" lon="9.861355"><ele>646.0</ele><time>2026-04-19T09:41:20.054Z</time></trkpt><trkpt lat="44.7478083" lon="9.8615117"><ele>646.0000000000001</ele><time>2026-04-19T09:41:21.053Z</time></trkpt><trkpt lat="44.74782" lon="9.86161"><ele>646.0</ele><time>2026-04-19T09:41:22.054Z</time></trkpt><trkpt lat="44.7478317" lon="9.8617"><ele>646.0</ele><time>2026-04-19T09:41:23.054Z</time></trkpt><trkpt lat="44.7478333" lon="9.8618017"><ele>646.0</ele><time>2026-04-19T09:41:24.054Z</time></trkpt><trkpt lat="44.747835" lon="9.8619083"><ele>646.0</ele><time>2026-04-19T09:41:25.053Z</time></trkpt><trkpt lat="44.7478433" lon="9.8620183"><ele>646.0000000000001</ele><time>2026-04-19T09:41:26.053Z</time></trkpt><trkpt lat="44.7478467" lon="9.86212"><ele>646.0</ele><time>2026-04-19T09:41:27.054Z</time></trkpt><trkpt lat="44.7478417" lon="9.8622333"><ele>646.3333333333334</ele><time>2026-04-19T09:41:28.053Z</time></trkpt><trkpt lat="44.74783" lon="9.8623367"><ele>646.6666666666667</ele><time>2026-04-19T09:41:29.053Z</time></trkpt><trkpt lat="44.7478133" lon="9.86244"><ele>647.0</ele><time>2026-04-19T09:41:30.054Z</time></trkpt><trkpt lat="44.7477967" lon="9.8625367"><ele>647.3333333333334</ele><time>2026-04-19T09:41:31.053Z</time></trkpt><trkpt lat="44.7477783" lon="9.8626233"><ele>647.6666666666666</ele><time>2026-04-19T09:41:32.053Z</time></trkpt><trkpt lat="44.7477267" lon="9.8627617"><ele>648.0</ele><time>2026-04-19T09:41:34.055Z</time></trkpt><trkpt lat="44.7476783" lon="9.8628683"><ele>652.0</ele><time>2026-04-19T09:41:36.053Z</time></trkpt><trkpt lat="44.7476283" lon="9.8629467"><ele>656.0</ele><time>2026-04-19T09:41:38.054Z</time></trkpt><trkpt lat="44.74757" lon="9.8630717"><ele>660.0</ele><time>2026-04-19T09:41:40.054Z</time></trkpt><trkpt lat="44.7475283" lon="9.8631583"><ele>664.0</ele><time>2026-04-19T09:41:42.054Z</time></trkpt><trkpt lat="44.7474933" lon="9.8632567"><ele>668.0</ele><time>2026-04-19T09:41:46.052Z</time></trkpt><trkpt lat="44.74749" lon="9.863355"><ele>672.0</ele><time>2026-04-19T09:41:48.053Z</time></trkpt><trkpt lat="44.74747" lon="9.8634817"><ele>672.0</ele><time>2026-04-19T09:41:50.054Z</time></trkpt><trkpt lat="44.74745" lon="9.863605"><ele>672.0</ele><time>2026-04-19T09:41:51.054Z</time></trkpt><trkpt lat="44.7474317" lon="9.8637083"><ele>672.0</ele><time>2026-04-19T09:41:52.055Z</time></trkpt><trkpt lat="44.7474117" lon="9.8637933"><ele>672.0</ele><time>2026-04-19T09:41:53.055Z</time></trkpt><trkpt lat="44.7473683" lon="9.86392"><ele>672.0</ele><time>2026-04-19T09:41:55.055Z</time></trkpt><trkpt lat="44.7473667" lon="9.864035"><ele>672.0</ele><time>2026-04-19T09:41:57.055Z</time></trkpt><trkpt lat="44.7474283" lon="9.864105"><ele>672.0</ele><time>2026-04-19T09:41:58.053Z</time></trkpt><trkpt lat="44.7475167" lon="9.8641883"><ele>672.0</ele><time>2026-04-19T09:41:59.052Z</time></trkpt><trkpt lat="44.7476" lon="9.864275"><ele>672.0</ele><time>2026-04-19T09:42:00.053Z</time></trkpt><trkpt lat="44.7476667" lon="9.8643467"><ele>672.0</ele><time>2026-04-19T09:42:01.057Z</time></trkpt><trkpt lat="44.7477333" lon="9.864425"><ele>672.0</ele><time>2026-04-19T09:42:02.055Z</time></trkpt><trkpt lat="44.747785" lon="9.8644983"><ele>669.6666666666666</ele><time>2026-04-19T09:42:03.053Z</time></trkpt><trkpt lat="44.7478383" lon="9.8645883"><ele>667.3333333333334</ele><time>2026-04-19T09:42:04.051Z</time></trkpt><trkpt lat="44.7478883" lon="9.8646683"><ele>665.0</ele><time>2026-04-19T09:42:05.052Z</time></trkpt><trkpt lat="44.7479317" lon="9.8647433"><ele>662.6666666666667</ele><time>2026-04-19T09:42:06.053Z</time></trkpt><trkpt lat="44.7479783" lon="9.8648433"><ele>660.3333333333334</ele><time>2026-04-19T09:42:07.053Z</time></trkpt><trkpt lat="44.7480133" lon="9.86495"><ele>658.0</ele><time>2026-04-19T09:42:08.053Z</time></trkpt><trkpt lat="44.748045" lon="9.865065"><ele>658.3333333333334</ele><time>2026-04-19T09:42:09.052Z</time></trkpt><trkpt lat="44.74806" lon="9.8651817"><ele>658.6666666666667</ele><time>2026-04-19T09:42:10.052Z</time></trkpt><trkpt lat="44.7480467" lon="9.8653017"><ele>659.0</ele><time>2026-04-19T09:42:11.053Z</time></trkpt><trkpt lat="44.7480083" lon="9.8654133"><ele>659.3333333333334</ele><time>2026-04-19T09:42:12.055Z</time></trkpt><trkpt lat="44.7479783" lon="9.865505"><ele>659.6666666666666</ele><time>2026-04-19T09:42:13.054Z</time></trkpt><trkpt lat="44.747945" lon="9.8655933"><ele>660.0</ele><time>2026-04-19T09:42:14.054Z</time></trkpt><trkpt lat="44.7479317" lon="9.8656817"><ele>660.0</ele><time>2026-04-19T09:42:15.056Z</time></trkpt><trkpt lat="44.7478933" lon="9.86577"><ele>660.0</ele><time>2026-04-19T09:42:16.056Z</time></trkpt><trkpt lat="44.7478717" lon="9.8658533"><ele>660.0</ele><time>2026-04-19T09:42:17.054Z</time></trkpt><trkpt lat="44.74787" lon="9.8659617"><ele>660.0</ele><time>2026-04-19T09:42:18.056Z</time></trkpt><trkpt lat="44.7478733" lon="9.8660917"><ele>660.0</ele><time>2026-04-19T09:42:19.053Z</time></trkpt><trkpt lat="44.7478983" lon="9.8662"><ele>660.0</ele><time>2026-04-19T09:42:20.054Z</time></trkpt><trkpt lat="44.7479117" lon="9.86632"><ele>659.8333333333334</ele><time>2026-04-19T09:42:21.054Z</time></trkpt><trkpt lat="44.747915" lon="9.8664567"><ele>659.6666666666666</ele><time>2026-04-19T09:42:22.054Z</time></trkpt><trkpt lat="44.74792" lon="9.8665767"><ele>659.5</ele><time>2026-04-19T09:42:23.056Z</time></trkpt><trkpt lat="44.7479283" lon="9.8666983"><ele>659.3333333333333</ele><time>2026-04-19T09:42:24.055Z</time></trkpt><trkpt lat="44.747945" lon="9.8668133"><ele>659.1666666666666</ele><time>2026-04-19T09:42:25.056Z</time></trkpt><trkpt lat="44.74796" lon="9.866915"><ele>659.0</ele><time>2026-04-19T09:42:26.055Z</time></trkpt><trkpt lat="44.7479733" lon="9.867015"><ele>658.8333333333333</ele><time>2026-04-19T09:42:27.054Z</time></trkpt><trkpt lat="44.7479833" lon="9.8671117"><ele>658.6666666666666</ele><time>2026-04-19T09:42:28.054Z</time></trkpt><trkpt lat="44.747995" lon="9.86729"><ele>658.5</ele><time>2026-04-19T09:42:30.055Z</time></trkpt><trkpt lat="44.748005" lon="9.8674017"><ele>658.3333333333334</ele><time>2026-04-19T09:42:31.055Z</time></trkpt><trkpt lat="44.7480217" lon="9.867495"><ele>658.1666666666667</ele><time>2026-04-19T09:42:32.055Z</time></trkpt><trkpt lat="44.74805" lon="9.8676333"><ele>658.0</ele><time>2026-04-19T09:42:34.054Z</time></trkpt><trkpt lat="44.7481233" lon="9.8677817"><ele>659.1666666666667</ele><time>2026-04-19T09:42:36.054Z</time></trkpt><trkpt lat="44.7481733" lon="9.8679233"><ele>660.3333333333334</ele><time>2026-04-19T09:42:38.054Z</time></trkpt><trkpt lat="44.7482233" lon="9.8680133"><ele>661.5</ele><time>2026-04-19T09:42:39.053Z</time></trkpt><trkpt lat="44.748295" lon="9.8681117"><ele>662.6666666666666</ele><time>2026-04-19T09:42:40.053Z</time></trkpt><trkpt lat="44.7483333" lon="9.86819"><ele>663.8333333333333</ele><time>2026-04-19T09:42:41.053Z</time></trkpt><trkpt lat="44.7483667" lon="9.8682933"><ele>665.0</ele><time>2026-04-19T09:42:42.054Z</time></trkpt><trkpt lat="44.748395" lon="9.8683867"><ele>664.6666666666666</ele><time>2026-04-19T09:42:43.054Z</time></trkpt><trkpt lat="44.7484283" lon="9.86848"><ele>664.3333333333333</ele><time>2026-04-19T09:42:44.053Z</time></trkpt><trkpt lat="44.7484567" lon="9.8685867"><ele>664.0</ele><time>2026-04-19T09:42:45.054Z</time></trkpt><trkpt lat="44.7484883" lon="9.8686933"><ele>663.6666666666666</ele><time>2026-04-19T09:42:46.053Z</time></trkpt><trkpt lat="44.74852" lon="9.8688133"><ele>663.3333333333334</ele><time>2026-04-19T09:42:47.053Z</time></trkpt><trkpt lat="44.7485483" lon="9.8689183"><ele>663.0</ele><time>2026-04-19T09:42:48.054Z</time></trkpt><trkpt lat="44.7485767" lon="9.8690517"><ele>655.5</ele><time>2026-04-19T09:42:49.053Z</time></trkpt><trkpt lat="44.7486117" lon="9.8691683"><ele>648.0</ele><time>2026-04-19T09:42:50.053Z</time></trkpt><trkpt lat="44.7486017" lon="9.8693767"><ele>640.5</ele><time>2026-04-19T09:42:51.053Z</time></trkpt><trkpt lat="44.74862" lon="9.869535"><ele>633.0</ele><time>2026-04-19T09:42:52.052Z</time></trkpt><trkpt lat="44.7486367" lon="9.8696883"><ele>633.0</ele><time>2026-04-19T09:42:53.054Z</time></trkpt><trkpt lat="44.7486417" lon="9.8698283"><ele>633.0</ele><time>2026-04-19T09:42:54.053Z</time></trkpt><trkpt lat="44.7486583" lon="9.869975"><ele>633.0</ele><time>2026-04-19T09:42:55.053Z</time></trkpt><trkpt lat="44.7486633" lon="9.870115"><ele>633.0</ele><time>2026-04-19T09:42:56.055Z</time></trkpt><trkpt lat="44.7486683" lon="9.8702233"><ele>633.0</ele><time>2026-04-19T09:42:57.052Z</time></trkpt><trkpt lat="44.7486767" lon="9.8703267"><ele>633.0</ele><time>2026-04-19T09:42:58.052Z</time></trkpt><trkpt lat="44.7486917" lon="9.8704317"><ele>633.0</ele><time>2026-04-19T09:42:59.052Z</time></trkpt><trkpt lat="44.74871" lon="9.8705417"><ele>633.0</ele><time>2026-04-19T09:43:00.053Z</time></trkpt><trkpt lat="44.7487317" lon="9.8706267"><ele>633.0</ele><time>2026-04-19T09:43:01.054Z</time></trkpt><trkpt lat="44.7487533" lon="9.8707333"><ele>633.0</ele><time>2026-04-19T09:43:02.054Z</time></trkpt><trkpt lat="44.7487683" lon="9.8709033"><ele>633.0</ele><time>2026-04-19T09:43:04.053Z</time></trkpt><trkpt lat="44.7487717" lon="9.871005"><ele>631.6</ele><time>2026-04-19T09:43:05.054Z</time></trkpt><trkpt lat="44.7488" lon="9.8711133"><ele>630.1999999999999</ele><time>2026-04-19T09:43:06.053Z</time></trkpt><trkpt lat="44.74884" lon="9.8712217"><ele>628.8</ele><time>2026-04-19T09:43:07.054Z</time></trkpt><trkpt lat="44.7488833" lon="9.87134"><ele>627.4</ele><time>2026-04-19T09:43:08.053Z</time></trkpt><trkpt lat="44.7489267" lon="9.8714517"><ele>626.0</ele><time>2026-04-19T09:43:09.053Z</time></trkpt><trkpt lat="44.7489783" lon="9.8715667"><ele>626.0</ele><time>2026-04-19T09:43:10.052Z</time></trkpt><trkpt lat="44.7490333" lon="9.8716783"><ele>626.0</ele><time>2026-04-19T09:43:11.051Z</time></trkpt><trkpt lat="44.7490917" lon="9.871775"><ele>626.0</ele><time>2026-04-19T09:43:12.054Z</time></trkpt><trkpt lat="44.74915" lon="9.8718883"><ele>626.0</ele><time>2026-04-19T09:43:13.052Z</time></trkpt><trkpt lat="44.7491967" lon="9.8720267"><ele>626.0</ele><time>2026-04-19T09:43:14.053Z</time></trkpt><trkpt lat="44.7492267" lon="9.8721767"><ele>624.75</ele><time>2026-04-19T09:43:15.054Z</time></trkpt><trkpt lat="44.7492467" lon="9.8723317"><ele>623.5</ele><time>2026-04-19T09:43:16.052Z</time></trkpt><trkpt lat="44.7492583" lon="9.8725"><ele>622.25</ele><time>2026-04-19T09:43:17.054Z</time></trkpt><trkpt lat="44.749265" lon="9.872695"><ele>621.0</ele><time>2026-04-19T09:43:18.052Z</time></trkpt><trkpt lat="44.7492733" lon="9.872875"><ele>620.8</ele><time>2026-04-19T09:43:19.054Z</time></trkpt><trkpt lat="44.7492817" lon="9.87302"><ele>620.6</ele><time>2026-04-19T09:43:20.053Z</time></trkpt><trkpt lat="44.7492833" lon="9.8731483"><ele>620.4</ele><time>2026-04-19T09:43:21.053Z</time></trkpt><trkpt lat="44.7492783" lon="9.8732717"><ele>620.2</ele><time>2026-04-19T09:43:22.052Z</time></trkpt><trkpt lat="44.749285" lon="9.8734"><ele>620.0</ele><time>2026-04-19T09:43:23.052Z</time></trkpt><trkpt lat="44.7492983" lon="9.8735283"><ele>619.2</ele><time>2026-04-19T09:43:24.053Z</time></trkpt><trkpt lat="44.74931" lon="9.8736633"><ele>618.4</ele><time>2026-04-19T09:43:25.056Z</time></trkpt><trkpt lat="44.74931" lon="9.8738"><ele>617.6</ele><time>2026-04-19T09:43:26.054Z</time></trkpt><trkpt lat="44.7492983" lon="9.873925"><ele>616.8</ele><time>2026-04-19T09:43:27.054Z</time></trkpt><trkpt lat="44.7492733" lon="9.87404"><ele>616.0</ele><time>2026-04-19T09:43:28.055Z</time></trkpt><trkpt lat="44.7492317" lon="9.8741433"><ele>616.0</ele><time>2026-04-19T09:43:29.055Z</time></trkpt><trkpt lat="44.7491833" lon="9.8742383"><ele>616.0</ele><time>2026-04-19T09:43:30.054Z</time></trkpt><trkpt lat="44.7491317" lon="9.87433"><ele>616.0</ele><time>2026-04-19T09:43:31.055Z</time></trkpt><trkpt lat="44.7490717" lon="9.8744083"><ele>616.0</ele><time>2026-04-19T09:43:32.056Z</time></trkpt><trkpt lat="44.7490083" lon="9.87448"><ele>616.0</ele><time>2026-04-19T09:43:33.056Z</time></trkpt><trkpt lat="44.7489467" lon="9.8745483"><ele>616.0</ele><time>2026-04-19T09:43:34.055Z</time></trkpt><trkpt lat="44.7488767" lon="9.8746167"><ele>614.4</ele><time>2026-04-19T09:43:35.056Z</time></trkpt><trkpt lat="44.7488017" lon="9.87469"><ele>612.8</ele><time>2026-04-19T09:43:36.054Z</time></trkpt><trkpt lat="44.74872" lon="9.8747617"><ele>611.1999999999999</ele><time>2026-04-19T09:43:37.054Z</time></trkpt><trkpt lat="44.7486317" lon="9.8748267"><ele>609.6</ele><time>2026-04-19T09:43:38.055Z</time></trkpt><trkpt lat="44.7485383" lon="9.874875"><ele>608.0</ele><time>2026-04-19T09:43:39.056Z</time></trkpt><trkpt lat="44.74844" lon="9.8749117"><ele>606.4</ele><time>2026-04-19T09:43:40.054Z</time></trkpt><trkpt lat="44.7483367" lon="9.8749533"><ele>604.8</ele><time>2026-04-19T09:43:41.054Z</time></trkpt><trkpt lat="44.748235" lon="9.87501"><ele>603.2</ele><time>2026-04-19T09:43:42.055Z</time></trkpt><trkpt lat="44.748135" lon="9.8750817"><ele>601.6</ele><time>2026-04-19T09:43:43.054Z</time></trkpt><trkpt lat="44.74805" lon="9.87516"><ele>600.0</ele><time>2026-04-19T09:43:44.054Z</time></trkpt><trkpt lat="44.74798" lon="9.8752383"><ele>598.9999999999999</ele><time>2026-04-19T09:43:45.054Z</time></trkpt><trkpt lat="44.74792" lon="9.87532"><ele>598.0</ele><time>2026-04-19T09:43:46.053Z</time></trkpt><trkpt lat="44.7478717" lon="9.8754033"><ele>597.0</ele><time>2026-04-19T09:43:47.052Z</time></trkpt><trkpt lat="44.7478333" lon="9.875485"><ele>596.0</ele><time>2026-04-19T09:43:48.053Z</time></trkpt><trkpt lat="44.7477983" lon="9.87556"><ele>595.0</ele><time>2026-04-19T09:43:49.053Z</time></trkpt><trkpt lat="44.7477367" lon="9.8756267"><ele>593.9999999999999</ele><time>2026-04-19T09:43:51.053Z</time></trkpt><trkpt lat="44.74768" lon="9.8755667"><ele>593.0</ele><time>2026-04-19T09:43:53.052Z</time></trkpt><trkpt lat="44.7476283" lon="9.87538"><ele>590.4</ele><time>2026-04-19T09:43:55.055Z</time></trkpt><trkpt lat="44.7475983" lon="9.8752167"><ele>587.8</ele><time>2026-04-19T09:43:56.054Z</time></trkpt><trkpt lat="44.747565" lon="9.8750917"><ele>585.2</ele><time>2026-04-19T09:43:57.053Z</time></trkpt><trkpt lat="44.7475183" lon="9.87497"><ele>582.6</ele><time>2026-04-19T09:43:58.054Z</time></trkpt><trkpt lat="44.74745" lon="9.8748633"><ele>580.0</ele><time>2026-04-19T09:43:59.053Z</time></trkpt><trkpt lat="44.7473517" lon="9.874775"><ele>580.0</ele><time>2026-04-19T09:44:00.053Z</time></trkpt><trkpt lat="44.7472417" lon="9.874725"><ele>580.0</ele><time>2026-04-19T09:44:01.054Z</time></trkpt><trkpt lat="44.74713" lon="9.874715"><ele>580.0</ele><time>2026-04-19T09:44:02.054Z</time></trkpt><trkpt lat="44.747015" lon="9.8747417"><ele>580.0</ele><time>2026-04-19T09:44:03.053Z</time></trkpt><trkpt lat="44.7469" lon="9.8747867"><ele>576.5</ele><time>2026-04-19T09:44:04.054Z</time></trkpt><trkpt lat="44.7467683" lon="9.8748383"><ele>573.0</ele><time>2026-04-19T09:44:05.053Z</time></trkpt><trkpt lat="44.7466333" lon="9.8749"><ele>569.5</ele><time>2026-04-19T09:44:06.053Z</time></trkpt><trkpt lat="44.7465067" lon="9.8749767"><ele>566.0</ele><time>2026-04-19T09:44:07.054Z</time></trkpt><trkpt lat="44.7463883" lon="9.87505"><ele>566.0</ele><time>2026-04-19T09:44:08.055Z</time></trkpt><trkpt lat="44.7462717" lon="9.8750983"><ele>566.0</ele><time>2026-04-19T09:44:09.053Z</time></trkpt><trkpt lat="44.7461567" lon="9.8751083"><ele>566.0</ele><time>2026-04-19T09:44:10.053Z</time></trkpt><trkpt lat="44.7460383" lon="9.8751"><ele>566.0</ele><time>2026-04-19T09:44:11.053Z</time></trkpt><trkpt lat="44.7459167" lon="9.875085"><ele>566.0</ele><time>2026-04-19T09:44:12.054Z</time></trkpt><trkpt lat="44.7458033" lon="9.8750667"><ele>566.0</ele><time>2026-04-19T09:44:13.053Z</time></trkpt><trkpt lat="44.745715" lon="9.8750517"><ele>566.0</ele><time>2026-04-19T09:44:14.053Z</time></trkpt><trkpt lat="44.745645" lon="9.875035"><ele>566.0</ele><time>2026-04-19T09:44:15.053Z</time></trkpt><trkpt lat="44.7455267" lon="9.8749883"><ele>566.0</ele><time>2026-04-19T09:44:17.054Z</time></trkpt><trkpt lat="44.7454567" lon="9.874955"><ele>566.0</ele><time>2026-04-19T09:44:18.053Z</time></trkpt><trkpt lat="44.74538" lon="9.8749167"><ele>566.0</ele><time>2026-04-19T09:44:19.052Z</time></trkpt><trkpt lat="44.7452967" lon="9.87488"><ele>566.0</ele><time>2026-04-19T09:44:20.054Z</time></trkpt><trkpt lat="44.7452067" lon="9.874855"><ele>566.0</ele><time>2026-04-19T09:44:21.054Z</time></trkpt><trkpt lat="44.74511" lon="9.8748417"><ele>566.0</ele><time>2026-04-19T09:44:22.052Z</time></trkpt><trkpt lat="44.7450017" lon="9.8748383"><ele>566.2</ele><time>2026-04-19T09:44:23.051Z</time></trkpt><trkpt lat="44.7448933" lon="9.8748267"><ele>566.4000000000001</ele><time>2026-04-19T09:44:24.053Z</time></trkpt><trkpt lat="44.744785" lon="9.8748183"><ele>566.6</ele><time>2026-04-19T09:44:25.053Z</time></trkpt><trkpt lat="44.7446733" lon="9.874815"><ele>566.8000000000001</ele><time>2026-04-19T09:44:26.053Z</time></trkpt><trkpt lat="44.7445633" lon="9.874815"><ele>567.0</ele><time>2026-04-19T09:44:27.053Z</time></trkpt><trkpt lat="44.7444567" lon="9.8748217"><ele>565.3333333333334</ele><time>2026-04-19T09:44:28.053Z</time></trkpt><trkpt lat="44.7443533" lon="9.8748383"><ele>563.6666666666666</ele><time>2026-04-19T09:44:29.054Z</time></trkpt><trkpt lat="44.7442667" lon="9.8748633"><ele>562.0</ele><time>2026-04-19T09:44:30.054Z</time></trkpt><trkpt lat="44.7441983" lon="9.8748833"><ele>560.3333333333333</ele><time>2026-04-19T09:44:31.054Z</time></trkpt><trkpt lat="44.74408" lon="9.8749"><ele>558.6666666666666</ele><time>2026-04-19T09:44:33.054Z</time></trkpt><trkpt lat="44.7440183" lon="9.8748767"><ele>557.0</ele><time>2026-04-19T09:44:34.054Z</time></trkpt><trkpt lat="44.743955" lon="9.8748267"><ele>557.0</ele><time>2026-04-19T09:44:35.055Z</time></trkpt><trkpt lat="44.743875" lon="9.8747333"><ele>557.0</ele><time>2026-04-19T09:44:36.054Z</time></trkpt><trkpt lat="44.743785" lon="9.8746333"><ele>557.0</ele><time>2026-04-19T09:44:37.053Z</time></trkpt><trkpt lat="44.743695" lon="9.8745617"><ele>557.0</ele><time>2026-04-19T09:44:38.054Z</time></trkpt><trkpt lat="44.7436167" lon="9.8745283"><ele>557.0</ele><time>2026-04-19T09:44:39.054Z</time></trkpt><trkpt lat="44.7435467" lon="9.8745333"><ele>557.0</ele><time>2026-04-19T09:44:40.054Z</time></trkpt><trkpt lat="44.74349" lon="9.874595"><ele>557.0</ele><time>2026-04-19T09:44:41.055Z</time></trkpt><trkpt lat="44.7434283" lon="9.874665"><ele>557.0</ele><time>2026-04-19T09:44:42.054Z</time></trkpt><trkpt lat="44.743365" lon="9.874715"><ele>557.0</ele><time>2026-04-19T09:44:43.053Z</time></trkpt><trkpt lat="44.7433033" lon="9.8747367"><ele>557.0</ele><time>2026-04-19T09:44:44.054Z</time></trkpt><trkpt lat="44.74324" lon="9.8747333"><ele>557.0</ele><time>2026-04-19T09:44:45.053Z</time></trkpt><trkpt lat="44.7431783" lon="9.874715"><ele>557.0</ele><time>2026-04-19T09:44:46.053Z</time></trkpt><trkpt lat="44.7431083" lon="9.8747067"><ele>557.0</ele><time>2026-04-19T09:44:47.054Z</time></trkpt><trkpt lat="44.7430433" lon="9.8747033"><ele>557.0</ele><time>2026-04-19T09:44:48.055Z</time></trkpt><trkpt lat="44.742965" lon="9.874705"><ele>557.0</ele><time>2026-04-19T09:44:49.053Z</time></trkpt><trkpt lat="44.742885" lon="9.8747117"><ele>557.0</ele><time>2026-04-19T09:44:50.054Z</time></trkpt><trkpt lat="44.7428" lon="9.8747267"><ele>557.0</ele><time>2026-04-19T09:44:51.052Z</time></trkpt><trkpt lat="44.7427067" lon="9.87475"><ele>557.0</ele><time>2026-04-19T09:44:52.053Z</time></trkpt><trkpt lat="44.7426133" lon="9.8747783"><ele>556.8333333333333</ele><time>2026-04-19T09:44:53.054Z</time></trkpt><trkpt lat="44.7425267" lon="9.87481"><ele>556.6666666666666</ele><time>2026-04-19T09:44:54.055Z</time></trkpt><trkpt lat="44.7424533" lon="9.8748433"><ele>556.5</ele><time>2026-04-19T09:44:55.054Z</time></trkpt><trkpt lat="44.742395" lon="9.874895"><ele>556.3333333333334</ele><time>2026-04-19T09:44:56.054Z</time></trkpt><trkpt lat="44.74235" lon="9.874975"><ele>556.1666666666667</ele><time>2026-04-19T09:44:57.055Z</time></trkpt><trkpt lat="44.7423233" lon="9.87508"><ele>556.0</ele><time>2026-04-19T09:44:58.053Z</time></trkpt><trkpt lat="44.742305" lon="9.8752067"><ele>554.0</ele><time>2026-04-19T09:44:59.054Z</time></trkpt><trkpt lat="44.7422767" lon="9.8753533"><ele>552.0</ele><time>2026-04-19T09:45:00.054Z</time></trkpt><trkpt lat="44.7422317" lon="9.8755283"><ele>550.0</ele><time>2026-04-19T09:45:01.054Z</time></trkpt><trkpt lat="44.7421933" lon="9.8757"><ele>548.0</ele><time>2026-04-19T09:45:02.056Z</time></trkpt><trkpt lat="44.7421533" lon="9.8758817"><ele>544.75</ele><time>2026-04-19T09:45:03.055Z</time></trkpt><trkpt lat="44.7421133" lon="9.87608"><ele>541.5</ele><time>2026-04-19T09:45:04.056Z</time></trkpt><trkpt lat="44.7420783" lon="9.87627"><ele>538.25</ele><time>2026-04-19T09:45:05.054Z</time></trkpt><trkpt lat="44.742035" lon="9.8764717"><ele>535.0</ele><time>2026-04-19T09:45:06.055Z</time></trkpt><trkpt lat="44.742" lon="9.87666"><ele>532.0</ele><time>2026-04-19T09:45:07.054Z</time></trkpt><trkpt lat="44.74197" lon="9.8768367"><ele>529.0</ele><time>2026-04-19T09:45:08.054Z</time></trkpt><trkpt lat="44.7419467" lon="9.877005"><ele>526.0</ele><time>2026-04-19T09:45:09.054Z</time></trkpt><trkpt lat="44.7419217" lon="9.8771783"><ele>523.0</ele><time>2026-04-19T09:45:10.054Z</time></trkpt><trkpt lat="44.7419017" lon="9.8773533"><ele>523.0</ele><time>2026-04-19T09:45:11.054Z</time></trkpt><trkpt lat="44.74189" lon="9.877525"><ele>523.0</ele><time>2026-04-19T09:45:12.053Z</time></trkpt><trkpt lat="44.7418817" lon="9.87768"><ele>523.0</ele><time>2026-04-19T09:45:13.054Z</time></trkpt><trkpt lat="44.7418667" lon="9.8778133"><ele>523.0</ele><time>2026-04-19T09:45:14.054Z</time></trkpt><trkpt lat="44.7418483" lon="9.87792"><ele>523.0</ele><time>2026-04-19T09:45:15.053Z</time></trkpt><trkpt lat="44.7417967" lon="9.8780417"><ele>524.6</ele><time>2026-04-19T09:45:17.052Z</time></trkpt><trkpt lat="44.7417167" lon="9.8780183"><ele>526.1999999999999</ele><time>2026-04-19T09:45:19.053Z</time></trkpt><trkpt lat="44.7416933" lon="9.8779083"><ele>527.8</ele><time>2026-04-19T09:45:20.053Z</time></trkpt><trkpt lat="44.7416667" lon="9.877765"><ele>529.4</ele><time>2026-04-19T09:45:21.054Z</time></trkpt><trkpt lat="44.7416267" lon="9.87757"><ele>531.0</ele><time>2026-04-19T09:45:22.054Z</time></trkpt><trkpt lat="44.7415833" lon="9.8773833"><ele>532.2</ele><time>2026-04-19T09:45:23.055Z</time></trkpt><trkpt lat="44.7415367" lon="9.87721"><ele>533.4000000000001</ele><time>2026-04-19T09:45:24.055Z</time></trkpt><trkpt lat="44.741495" lon="9.877055"><ele>534.6</ele><time>2026-04-19T09:45:25.054Z</time></trkpt><trkpt lat="44.741455" lon="9.8769283"><ele>535.8000000000001</ele><time>2026-04-19T09:45:26.053Z</time></trkpt><trkpt lat="44.7414117" lon="9.8768217"><ele>537.0</ele><time>2026-04-19T09:45:27.053Z</time></trkpt><trkpt lat="44.74136" lon="9.876745"><ele>537.0</ele><time>2026-04-19T09:45:28.056Z</time></trkpt><trkpt lat="44.7412817" lon="9.8767483"><ele>537.0</ele><time>2026-04-19T09:45:29.054Z</time></trkpt><trkpt lat="44.7411967" lon="9.8767817"><ele>537.0</ele><time>2026-04-19T09:45:30.055Z</time></trkpt><trkpt lat="44.7411" lon="9.8768667"><ele>537.0</ele><time>2026-04-19T09:45:31.054Z</time></trkpt><trkpt lat="44.7410067" lon="9.87697"><ele>537.0</ele><time>2026-04-19T09:45:32.054Z</time></trkpt><trkpt lat="44.7409133" lon="9.8770883"><ele>533.25</ele><time>2026-04-19T09:45:33.054Z</time></trkpt><trkpt lat="44.7408267" lon="9.8772117"><ele>529.5</ele><time>2026-04-19T09:45:34.053Z</time></trkpt><trkpt lat="44.740745" lon="9.877335"><ele>525.75</ele><time>2026-04-19T09:45:35.057Z</time></trkpt><trkpt lat="44.740665" lon="9.877485"><ele>522.0</ele><time>2026-04-19T09:45:36.055Z</time></trkpt><trkpt lat="44.7405883" lon="9.8776417"><ele>519.5</ele><time>2026-04-19T09:45:37.055Z</time></trkpt><trkpt lat="44.7405167" lon="9.8777817"><ele>517.0</ele><time>2026-04-19T09:45:38.054Z</time></trkpt><trkpt lat="44.7404383" lon="9.8779033"><ele>514.5</ele><time>2026-04-19T09:45:39.054Z</time></trkpt><trkpt lat="44.7403517" lon="9.8780067"><ele>512.0</ele><time>2026-04-19T09:45:40.054Z</time></trkpt><trkpt lat="44.740255" lon="9.8780817"><ele>509.0</ele><time>2026-04-19T09:45:41.054Z</time></trkpt><trkpt lat="44.7401533" lon="9.87812"><ele>506.00000000000006</ele><time>2026-04-19T09:45:42.054Z</time></trkpt><trkpt lat="44.7400533" lon="9.8781317"><ele>503.00000000000006</ele><time>2026-04-19T09:45:43.055Z</time></trkpt><trkpt lat="44.7399633" lon="9.87814"><ele>500.0</ele><time>2026-04-19T09:45:44.056Z</time></trkpt><trkpt lat="44.7398833" lon="9.87817"><ele>497.0</ele><time>2026-04-19T09:45:45.053Z</time></trkpt><trkpt lat="44.739815" lon="9.878225"><ele>496.99999999999994</ele><time>2026-04-19T09:45:46.053Z</time></trkpt><trkpt lat="44.7397683" lon="9.8783"><ele>497.0</ele><time>2026-04-19T09:45:47.055Z</time></trkpt><trkpt lat="44.73974" lon="9.8783817"><ele>497.0</ele><time>2026-04-19T09:45:48.056Z</time></trkpt><trkpt lat="44.73973" lon="9.878545"><ele>497.0</ele><time>2026-04-19T09:45:50.054Z</time></trkpt><trkpt lat="44.73975" lon="9.87863"><ele>496.99999999999994</ele><time>2026-04-19T09:45:51.056Z</time></trkpt><trkpt lat="44.739785" lon="9.87874"><ele>497.0</ele><time>2026-04-19T09:45:52.055Z</time></trkpt><trkpt lat="44.7398217" lon="9.8788583"><ele>494.40000000000003</ele><time>2026-04-19T09:45:53.054Z</time></trkpt><trkpt lat="44.7398533" lon="9.87899"><ele>491.80000000000007</ele><time>2026-04-19T09:45:54.055Z</time></trkpt><trkpt lat="44.73989" lon="9.879125"><ele>489.2</ele><time>2026-04-19T09:45:55.054Z</time></trkpt><trkpt lat="44.73992" lon="9.879255"><ele>486.6</ele><time>2026-04-19T09:45:56.054Z</time></trkpt><trkpt lat="44.7399417" lon="9.8793683"><ele>484.0</ele><time>2026-04-19T09:45:57.054Z</time></trkpt><trkpt lat="44.739945" lon="9.8794717"><ele>482.50000000000006</ele><time>2026-04-19T09:45:58.054Z</time></trkpt><trkpt lat="44.7399317" lon="9.8795633"><ele>481.0</ele><time>2026-04-19T09:45:59.055Z</time></trkpt><trkpt lat="44.7398917" lon="9.8796567"><ele>479.5</ele><time>2026-04-19T09:46:00.054Z</time></trkpt><trkpt lat="44.7398433" lon="9.8797667"><ele>478.0</ele><time>2026-04-19T09:46:01.054Z</time></trkpt><trkpt lat="44.739795" lon="9.8798833"><ele>476.50000000000006</ele><time>2026-04-19T09:46:02.056Z</time></trkpt><trkpt lat="44.7397517" lon="9.879995"><ele>475.0</ele><time>2026-04-19T09:46:03.054Z</time></trkpt><trkpt lat="44.7397133" lon="9.8800983"><ele>473.2</ele><time>2026-04-19T09:46:04.054Z</time></trkpt><trkpt lat="44.73969" lon="9.880195"><ele>471.4</ele><time>2026-04-19T09:46:05.054Z</time></trkpt><trkpt lat="44.7397233" lon="9.880335"><ele>469.6</ele><time>2026-04-19T09:46:07.056Z</time></trkpt><trkpt lat="44.7397933" lon="9.8804367"><ele>467.8</ele><time>2026-04-19T09:46:09.055Z</time></trkpt><trkpt lat="44.7397333" lon="9.880545"><ele>466.0</ele><time>2026-04-19T09:46:12.054Z</time></trkpt><trkpt lat="44.7396567" lon="9.8805667"><ele>466.0</ele><time>2026-04-19T09:46:13.055Z</time></trkpt><trkpt lat="44.7395733" lon="9.8805683"><ele>466.0</ele><time>2026-04-19T09:46:14.053Z</time></trkpt><trkpt lat="44.739495" lon="9.88054"><ele>466.0</ele><time>2026-04-19T09:46:15.055Z</time></trkpt><trkpt lat="44.739425" lon="9.8804733"><ele>466.0</ele><time>2026-04-19T09:46:16.054Z</time></trkpt><trkpt lat="44.739375" lon="9.8803633"><ele>466.0</ele><time>2026-04-19T09:46:17.054Z</time></trkpt><trkpt lat="44.73933" lon="9.8802233"><ele>463.6</ele><time>2026-04-19T09:46:18.055Z</time></trkpt><trkpt lat="44.7392883" lon="9.8800767"><ele>461.20000000000005</ele><time>2026-04-19T09:46:19.054Z</time></trkpt><trkpt lat="44.7392417" lon="9.8799433"><ele>458.79999999999995</ele><time>2026-04-19T09:46:20.055Z</time></trkpt><trkpt lat="44.7391817" lon="9.8798217"><ele>456.4</ele><time>2026-04-19T09:46:21.055Z</time></trkpt><trkpt lat="44.7391217" lon="9.8797133"><ele>454.0</ele><time>2026-04-19T09:46:22.055Z</time></trkpt><trkpt lat="44.7390717" lon="9.879615"><ele>454.00000000000006</ele><time>2026-04-19T09:46:23.054Z</time></trkpt><trkpt lat="44.7390433" lon="9.8795233"><ele>454.0</ele><time>2026-04-19T09:46:24.054Z</time></trkpt><trkpt lat="44.7390133" lon="9.8794133"><ele>454.0</ele><time>2026-04-19T09:46:25.054Z</time></trkpt><trkpt lat="44.7389767" lon="9.8792933"><ele>454.0</ele><time>2026-04-19T09:46:26.053Z</time></trkpt><trkpt lat="44.7389333" lon="9.8791783"><ele>454.00000000000006</ele><time>2026-04-19T09:46:27.054Z</time></trkpt><trkpt lat="44.7388883" lon="9.8790583"><ele>454.0</ele><time>2026-04-19T09:46:28.054Z</time></trkpt><trkpt lat="44.7388433" lon="9.878945"><ele>455.33333333333337</ele><time>2026-04-19T09:46:29.054Z</time></trkpt><trkpt lat="44.738795" lon="9.87885"><ele>456.6666666666667</ele><time>2026-04-19T09:46:30.054Z</time></trkpt><trkpt lat="44.7387083" lon="9.8788117"><ele>458.0</ele><time>2026-04-19T09:46:32.054Z</time></trkpt><trkpt lat="44.7386183" lon="9.87888"><ele>459.33333333333337</ele><time>2026-04-19T09:46:34.054Z</time></trkpt><trkpt lat="44.738585" lon="9.8789617"><ele>460.6666666666667</ele><time>2026-04-19T09:46:35.054Z</time></trkpt><trkpt lat="44.7385417" lon="9.879065"><ele>462.0</ele><time>2026-04-19T09:46:36.053Z</time></trkpt><trkpt lat="44.7384867" lon="9.879165"><ele>457.0</ele><time>2026-04-19T09:46:37.054Z</time></trkpt><trkpt lat="44.7384067" lon="9.8792633"><ele>452.0</ele><time>2026-04-19T09:46:38.054Z</time></trkpt><trkpt lat="44.738285" lon="9.879375"><ele>447.0</ele><time>2026-04-19T09:46:39.055Z</time></trkpt><trkpt lat="44.738145" lon="9.8794867"><ele>442.0</ele><time>2026-04-19T09:46:40.055Z</time></trkpt><trkpt lat="44.73799" lon="9.8796083"><ele>440.0</ele><time>2026-04-19T09:46:41.054Z</time></trkpt><trkpt lat="44.7378317" lon="9.8797383"><ele>438.0</ele><time>2026-04-19T09:46:42.054Z</time></trkpt><trkpt lat="44.737675" lon="9.879875"><ele>436.0</ele><time>2026-04-19T09:46:43.055Z</time></trkpt><trkpt lat="44.7375217" lon="9.8800083"><ele>431.33333333333337</ele><time>2026-04-19T09:46:44.055Z</time></trkpt><trkpt lat="44.7373717" lon="9.880135"><ele>426.66666666666663</ele><time>2026-04-19T09:46:45.055Z</time></trkpt><trkpt lat="44.7372283" lon="9.8802667"><ele>422.0</ele><time>2026-04-19T09:46:46.053Z</time></trkpt><trkpt lat="44.7370867" lon="9.8804217"><ele>422.0</ele><time>2026-04-19T09:46:47.055Z</time></trkpt><trkpt lat="44.7369517" lon="9.8805917"><ele>422.0</ele><time>2026-04-19T09:46:48.055Z</time></trkpt><trkpt lat="44.73682" lon="9.88077"><ele>422.0</ele><time>2026-04-19T09:46:49.055Z</time></trkpt><trkpt lat="44.7367" lon="9.8809467"><ele>419.25</ele><time>2026-04-19T09:46:50.055Z</time></trkpt><trkpt lat="44.736595" lon="9.88112"><ele>416.5</ele><time>2026-04-19T09:46:51.056Z</time></trkpt><trkpt lat="44.7365" lon="9.8812817"><ele>413.75</ele><time>2026-04-19T09:46:52.054Z</time></trkpt><trkpt lat="44.73642" lon="9.881425"><ele>411.0</ele><time>2026-04-19T09:46:53.054Z</time></trkpt><trkpt lat="44.7363533" lon="9.8815467"><ele>411.0</ele><time>2026-04-19T09:46:54.054Z</time></trkpt><trkpt lat="44.736295" lon="9.88164"><ele>411.0</ele><time>2026-04-19T09:46:55.054Z</time></trkpt><trkpt lat="44.7362417" lon="9.8816983"><ele>411.0</ele><time>2026-04-19T09:46:56.055Z</time></trkpt><trkpt lat="44.7361583" lon="9.8817433"><ele>411.0</ele><time>2026-04-19T09:46:58.054Z</time></trkpt><trkpt lat="44.73608" lon="9.8817117"><ele>411.0</ele><time>2026-04-19T09:47:01.054Z</time></trkpt><trkpt lat="44.7359817" lon="9.8816917"><ele>411.0</ele><time>2026-04-19T09:47:03.054Z</time></trkpt><trkpt lat="44.735915" lon="9.8816867"><ele>410.5</ele><time>2026-04-19T09:47:04.054Z</time></trkpt><trkpt lat="44.7358433" lon="9.8816817"><ele>410.0</ele><time>2026-04-19T09:47:05.054Z</time></trkpt><trkpt lat="44.7357517" lon="9.88167"><ele>409.5</ele><time>2026-04-19T09:47:07.055Z</time></trkpt><trkpt lat="44.73568" lon="9.8816417"><ele>409.0</ele><time>2026-04-19T09:47:09.055Z</time></trkpt><trkpt lat="44.735615" lon="9.881615"><ele>408.5</ele><time>2026-04-19T09:47:11.054Z</time></trkpt><trkpt lat="44.7355333" lon="9.8816217"><ele>408.0</ele><time>2026-04-19T09:47:13.054Z</time></trkpt><trkpt lat="44.7354317" lon="9.8816783"><ele>408.0</ele><time>2026-04-19T09:47:15.054Z</time></trkpt><trkpt lat="44.735325" lon="9.8816733"><ele>408.0</ele><time>2026-04-19T09:47:17.055Z</time></trkpt><trkpt lat="44.7352583" lon="9.88162"><ele>408.0</ele><time>2026-04-19T09:47:19.054Z</time></trkpt><trkpt lat="44.7351333" lon="9.88156"><ele>408.0</ele><time>2026-04-19T09:47:21.055Z</time></trkpt><trkpt lat="44.7350383" lon="9.881545"><ele>408.0</ele><time>2026-04-19T09:47:22.053Z</time></trkpt><trkpt lat="44.73495" lon="9.88154"><ele>409.0</ele><time>2026-04-19T09:47:23.054Z</time></trkpt><trkpt lat="44.7348667" lon="9.8815383"><ele>410.0</ele><time>2026-04-19T09:47:24.055Z</time></trkpt><trkpt lat="44.734795" lon="9.8815383"><ele>411.0</ele><time>2026-04-19T09:47:25.055Z</time></trkpt><trkpt lat="44.734735" lon="9.8815683"><ele>412.0</ele><time>2026-04-19T09:47:26.055Z</time></trkpt><trkpt lat="44.734665" lon="9.8817183"><ele>413.0</ele><time>2026-04-19T09:47:28.055Z</time></trkpt><trkpt lat="44.7346183" lon="9.8818183"><ele>414.0</ele><time>2026-04-19T09:47:29.054Z</time></trkpt><trkpt lat="44.7345633" lon="9.88194"><ele>415.3333333333333</ele><time>2026-04-19T09:47:30.054Z</time></trkpt><trkpt lat="44.734525" lon="9.8820583"><ele>416.66666666666663</ele><time>2026-04-19T09:47:31.054Z</time></trkpt><trkpt lat="44.7344917" lon="9.8821633"><ele>418.0</ele><time>2026-04-19T09:47:32.053Z</time></trkpt><trkpt lat="44.7344583" lon="9.8822417"><ele>419.3333333333333</ele><time>2026-04-19T09:47:33.053Z</time></trkpt><trkpt lat="44.7343667" lon="9.8822817"><ele>420.66666666666663</ele><time>2026-04-19T09:47:35.053Z</time></trkpt><trkpt lat="44.7342833" lon="9.8822017"><ele>422.0</ele><time>2026-04-19T09:47:37.054Z</time></trkpt><trkpt lat="44.7342933" lon="9.8821"><ele>422.8333333333333</ele><time>2026-04-19T09:47:39.055Z</time></trkpt><trkpt lat="44.7343033" lon="9.8819983"><ele>423.66666666666663</ele><time>2026-04-19T09:47:41.054Z</time></trkpt><trkpt lat="44.7342617" lon="9.8819117"><ele>424.5</ele><time>2026-04-19T09:47:43.054Z</time></trkpt><trkpt lat="44.7341867" lon="9.8818783"><ele>425.33333333333337</ele><time>2026-04-19T09:47:45.053Z</time></trkpt><trkpt lat="44.7340717" lon="9.881895"><ele>426.1666666666667</ele><time>2026-04-19T09:47:47.054Z</time></trkpt><trkpt lat="44.73399" lon="9.8819333"><ele>427.0</ele><time>2026-04-19T09:47:48.054Z</time></trkpt><trkpt lat="44.73391" lon="9.881995"><ele>427.0</ele><time>2026-04-19T09:47:49.054Z</time></trkpt><trkpt lat="44.7338467" lon="9.88206"><ele>427.0</ele><time>2026-04-19T09:47:50.054Z</time></trkpt><trkpt lat="44.733785" lon="9.8821083"><ele>427.0</ele><time>2026-04-19T09:47:51.054Z</time></trkpt><trkpt lat="44.7337183" lon="9.88213"><ele>427.0</ele><time>2026-04-19T09:47:52.055Z</time></trkpt><trkpt lat="44.7336517" lon="9.8821383"><ele>427.0</ele><time>2026-04-19T09:47:53.054Z</time></trkpt><trkpt lat="44.733585" lon="9.8821333"><ele>427.0</ele><time>2026-04-19T09:47:54.054Z</time></trkpt><trkpt lat="44.7335183" lon="9.8821083"><ele>427.0</ele><time>2026-04-19T09:47:55.053Z</time></trkpt><trkpt lat="44.7334167" lon="9.8820683"><ele>428.1666666666667</ele><time>2026-04-19T09:47:57.053Z</time></trkpt><trkpt lat="44.7333617" lon="9.8820233"><ele>429.33333333333337</ele><time>2026-04-19T09:48:01.053Z</time></trkpt><trkpt lat="44.733255" lon="9.8820717"><ele>430.5</ele><time>2026-04-19T09:48:04.055Z</time></trkpt><trkpt lat="44.7331917" lon="9.88211"><ele>431.66666666666663</ele><time>2026-04-19T09:48:05.056Z</time></trkpt><trkpt lat="44.7331167" lon="9.882165"><ele>432.8333333333333</ele><time>2026-04-19T09:48:06.056Z</time></trkpt><trkpt lat="44.7330417" lon="9.882225"><ele>434.0</ele><time>2026-04-19T09:48:07.055Z</time></trkpt><trkpt lat="44.73298" lon="9.8822967"><ele>434.0</ele><time>2026-04-19T09:48:08.055Z</time></trkpt><trkpt lat="44.732935" lon="9.882385"><ele>434.0</ele><time>2026-04-19T09:48:09.055Z</time></trkpt><trkpt lat="44.7329083" lon="9.8824783"><ele>434.0</ele><time>2026-04-19T09:48:10.057Z</time></trkpt><trkpt lat="44.7328967" lon="9.8825733"><ele>434.0</ele><time>2026-04-19T09:48:11.055Z</time></trkpt><trkpt lat="44.7328917" lon="9.8826633"><ele>434.0</ele><time>2026-04-19T09:48:12.055Z</time></trkpt><trkpt lat="44.7328883" lon="9.8827583"><ele>434.0</ele><time>2026-04-19T09:48:13.056Z</time></trkpt><trkpt lat="44.7328867" lon="9.8828633"><ele>434.0</ele><time>2026-04-19T09:48:14.056Z</time></trkpt><trkpt lat="44.732885" lon="9.882975"><ele>435.99999999999994</ele><time>2026-04-19T09:48:15.053Z</time></trkpt><trkpt lat="44.732885" lon="9.8830783"><ele>438.0</ele><time>2026-04-19T09:48:16.053Z</time></trkpt><trkpt lat="44.732895" lon="9.8831817"><ele>440.0</ele><time>2026-04-19T09:48:17.054Z</time></trkpt><trkpt lat="44.7329183" lon="9.88329"><ele>442.0</ele><time>2026-04-19T09:48:18.056Z</time></trkpt><trkpt lat="44.7329533" lon="9.8833967"><ele>443.99999999999994</ele><time>2026-04-19T09:48:19.054Z</time></trkpt><trkpt lat="44.7329933" lon="9.8834967"><ele>446.0</ele><time>2026-04-19T09:48:20.057Z</time></trkpt><trkpt lat="44.73302" lon="9.8835783"><ele>448.6</ele><time>2026-04-19T09:48:21.056Z</time></trkpt><trkpt lat="44.73301" lon="9.8837033"><ele>451.20000000000005</ele><time>2026-04-19T09:48:23.055Z</time></trkpt><trkpt lat="44.7329267" lon="9.8837717"><ele>453.79999999999995</ele><time>2026-04-19T09:48:25.052Z</time></trkpt><trkpt lat="44.7328617" lon="9.8837867"><ele>456.4</ele><time>2026-04-19T09:48:26.052Z</time></trkpt><trkpt lat="44.7327617" lon="9.8838683"><ele>459.0</ele><time>2026-04-19T09:48:28.053Z</time></trkpt><trkpt lat="44.73269" lon="9.8840283"><ele>459.0</ele><time>2026-04-19T09:48:30.056Z</time></trkpt><trkpt lat="44.732675" lon="9.8841367"><ele>459.0</ele><time>2026-04-19T09:48:31.056Z</time></trkpt><trkpt lat="44.73266" lon="9.884245"><ele>459.0</ele><time>2026-04-19T09:48:32.053Z</time></trkpt><trkpt lat="44.7326483" lon="9.8843367"><ele>459.0</ele><time>2026-04-19T09:48:33.053Z</time></trkpt><trkpt lat="44.73264" lon="9.8845067"><ele>459.0</ele><time>2026-04-19T09:48:35.053Z</time></trkpt><trkpt lat="44.7326483" lon="9.8846033"><ele>459.0</ele><time>2026-04-19T09:48:36.055Z</time></trkpt><trkpt lat="44.7326583" lon="9.8847017"><ele>461.0</ele><time>2026-04-19T09:48:37.055Z</time></trkpt><trkpt lat="44.73267" lon="9.884815"><ele>463.0</ele><time>2026-04-19T09:48:38.055Z</time></trkpt><trkpt lat="44.7326833" lon="9.8849217"><ele>465.0</ele><time>2026-04-19T09:48:39.053Z</time></trkpt><trkpt lat="44.7327033" lon="9.8850367"><ele>467.0</ele><time>2026-04-19T09:48:40.053Z</time></trkpt><trkpt lat="44.7327283" lon="9.8851483"><ele>469.0</ele><time>2026-04-19T09:48:41.054Z</time></trkpt><trkpt lat="44.732755" lon="9.885285"><ele>471.0</ele><time>2026-04-19T09:48:42.054Z</time></trkpt><trkpt lat="44.7327883" lon="9.8854167"><ele>473.5</ele><time>2026-04-19T09:48:43.056Z</time></trkpt><trkpt lat="44.732805" lon="9.8855617"><ele>476.0</ele><time>2026-04-19T09:48:44.055Z</time></trkpt><trkpt lat="44.7328217" lon="9.88569"><ele>478.5</ele><time>2026-04-19T09:48:45.053Z</time></trkpt><trkpt lat="44.7328317" lon="9.88581"><ele>481.0</ele><time>2026-04-19T09:48:46.054Z</time></trkpt><trkpt lat="44.7328467" lon="9.8859267"><ele>483.5</ele><time>2026-04-19T09:48:47.056Z</time></trkpt><trkpt lat="44.7328617" lon="9.88604"><ele>486.0</ele><time>2026-04-19T09:48:48.053Z</time></trkpt><trkpt lat="44.7328817" lon="9.886145"><ele>487.0</ele><time>2026-04-19T09:48:49.053Z</time></trkpt><trkpt lat="44.7329017" lon="9.8862367"><ele>488.0</ele><time>2026-04-19T09:48:50.054Z</time></trkpt><trkpt lat="44.7329367" lon="9.8863133"><ele>489.0</ele><time>2026-04-19T09:48:51.054Z</time></trkpt><trkpt lat="44.7329767" lon="9.88639"><ele>490.0</ele><time>2026-04-19T09:48:52.054Z</time></trkpt><trkpt lat="44.7330267" lon="9.886475"><ele>491.0</ele><time>2026-04-19T09:48:53.054Z</time></trkpt><trkpt lat="44.73309" lon="9.8865633"><ele>492.0</ele><time>2026-04-19T09:48:54.055Z</time></trkpt><trkpt lat="44.7331617" lon="9.88665"><ele>492.0</ele><time>2026-04-19T09:48:55.053Z</time></trkpt><trkpt lat="44.7332217" lon="9.8867283"><ele>492.0</ele><time>2026-04-19T09:48:56.055Z</time></trkpt><trkpt lat="44.73328" lon="9.8868033"><ele>492.0</ele><time>2026-04-19T09:48:57.053Z</time></trkpt><trkpt lat="44.7333383" lon="9.8869133"><ele>492.0</ele><time>2026-04-19T09:48:59.054Z</time></trkpt><trkpt lat="44.7333717" lon="9.8870617"><ele>492.0</ele><time>2026-04-19T09:49:01.053Z</time></trkpt><trkpt lat="44.733385" lon="9.8871517"><ele>492.0</ele><time>2026-04-19T09:49:02.054Z</time></trkpt><trkpt lat="44.7333933" lon="9.887245"><ele>492.1666666666667</ele><time>2026-04-19T09:49:03.054Z</time></trkpt><trkpt lat="44.733405" lon="9.88735"><ele>492.33333333333337</ele><time>2026-04-19T09:49:04.054Z</time></trkpt><trkpt lat="44.7334233" lon="9.8874667"><ele>492.5</ele><time>2026-04-19T09:49:05.052Z</time></trkpt><trkpt lat="44.7334417" lon="9.8875883"><ele>492.6666666666667</ele><time>2026-04-19T09:49:06.054Z</time></trkpt><trkpt lat="44.7334583" lon="9.88771"><ele>492.83333333333337</ele><time>2026-04-19T09:49:07.053Z</time></trkpt><trkpt lat="44.7334783" lon="9.8878233"><ele>493.0</ele><time>2026-04-19T09:49:08.055Z</time></trkpt><trkpt lat="44.7335033" lon="9.8879267"><ele>493.2</ele><time>2026-04-19T09:49:09.053Z</time></trkpt><trkpt lat="44.7335283" lon="9.8880167"><ele>493.4</ele><time>2026-04-19T09:49:10.053Z</time></trkpt><trkpt lat="44.73355" lon="9.8881467"><ele>493.59999999999997</ele><time>2026-04-19T09:49:12.053Z</time></trkpt><trkpt lat="44.7334867" lon="9.8882517"><ele>493.79999999999995</ele><time>2026-04-19T09:49:15.053Z</time></trkpt><trkpt lat="44.7333683" lon="9.8883317"><ele>494.0</ele><time>2026-04-19T09:49:17.055Z</time></trkpt><trkpt lat="44.7332983" lon="9.8883783"><ele>493.99999999999994</ele><time>2026-04-19T09:49:18.056Z</time></trkpt><trkpt lat="44.7332267" lon="9.8884333"><ele>494.0</ele><time>2026-04-19T09:49:19.055Z</time></trkpt><trkpt lat="44.7331517" lon="9.888495"><ele>494.0</ele><time>2026-04-19T09:49:20.057Z</time></trkpt><trkpt lat="44.733075" lon="9.88856"><ele>494.0</ele><time>2026-04-19T09:49:21.056Z</time></trkpt><trkpt lat="44.7330033" lon="9.8886283"><ele>493.99999999999994</ele><time>2026-04-19T09:49:22.056Z</time></trkpt><trkpt lat="44.7329367" lon="9.8886983"><ele>494.0</ele><time>2026-04-19T09:49:23.055Z</time></trkpt><trkpt lat="44.73287" lon="9.888765"><ele>493.99999999999994</ele><time>2026-04-19T09:49:24.055Z</time></trkpt><trkpt lat="44.7328033" lon="9.8888317"><ele>494.0</ele><time>2026-04-19T09:49:25.055Z</time></trkpt><trkpt lat="44.732735" lon="9.888895"><ele>494.0</ele><time>2026-04-19T09:49:26.055Z</time></trkpt><trkpt lat="44.7326633" lon="9.8889417"><ele>494.0</ele><time>2026-04-19T09:49:27.055Z</time></trkpt><trkpt lat="44.732585" lon="9.8889617"><ele>493.99999999999994</ele><time>2026-04-19T09:49:28.055Z</time></trkpt><trkpt lat="44.7325067" lon="9.8889617"><ele>494.0</ele><time>2026-04-19T09:49:29.054Z</time></trkpt><trkpt lat="44.7324283" lon="9.8889533"><ele>494.66666666666663</ele><time>2026-04-19T09:49:30.053Z</time></trkpt><trkpt lat="44.7323483" lon="9.8889417"><ele>495.3333333333333</ele><time>2026-04-19T09:49:31.054Z</time></trkpt><trkpt lat="44.7322667" lon="9.8889267"><ele>496.0</ele><time>2026-04-19T09:49:32.055Z</time></trkpt><trkpt lat="44.7321833" lon="9.88891"><ele>496.66666666666663</ele><time>2026-04-19T09:49:33.055Z</time></trkpt><trkpt lat="44.7320983" lon="9.88889"><ele>497.3333333333333</ele><time>2026-04-19T09:49:34.055Z</time></trkpt><trkpt lat="44.7320133" lon="9.8888667"><ele>498.0</ele><time>2026-04-19T09:49:35.054Z</time></trkpt><trkpt lat="44.7319283" lon="9.8888383"><ele>498.8333333333333</ele><time>2026-04-19T09:49:36.056Z</time></trkpt><trkpt lat="44.7318483" lon="9.888805"><ele>499.66666666666663</ele><time>2026-04-19T09:49:37.056Z</time></trkpt><trkpt lat="44.7317667" lon="9.88876"><ele>500.5</ele><time>2026-04-19T09:49:38.055Z</time></trkpt><trkpt lat="44.7316917" lon="9.8887017"><ele>501.3333333333333</ele><time>2026-04-19T09:49:39.055Z</time></trkpt><trkpt lat="44.7316183" lon="9.8886367"><ele>502.16666666666663</ele><time>2026-04-19T09:49:40.054Z</time></trkpt><trkpt lat="44.7315417" lon="9.8885817"><ele>503.0</ele><time>2026-04-19T09:49:41.055Z</time></trkpt><trkpt lat="44.7314633" lon="9.8885283"><ele>502.99999999999994</ele><time>2026-04-19T09:49:42.055Z</time></trkpt><trkpt lat="44.7314017" lon="9.8884733"><ele>503.0</ele><time>2026-04-19T09:49:43.056Z</time></trkpt><trkpt lat="44.73134" lon="9.8883933"><ele>503.0</ele><time>2026-04-19T09:49:44.055Z</time></trkpt><trkpt lat="44.73129" lon="9.8883017"><ele>503.0</ele><time>2026-04-19T09:49:45.053Z</time></trkpt><trkpt lat="44.7312467" lon="9.8881933"><ele>502.99999999999994</ele><time>2026-04-19T09:49:46.053Z</time></trkpt><trkpt lat="44.7312117" lon="9.8880833"><ele>503.0</ele><time>2026-04-19T09:49:47.056Z</time></trkpt><trkpt lat="44.7311733" lon="9.8879817"><ele>502.5714285714286</ele><time>2026-04-19T09:49:48.057Z</time></trkpt><trkpt lat="44.7311433" lon="9.887895"><ele>502.1428571428572</ele><time>2026-04-19T09:49:49.056Z</time></trkpt><trkpt lat="44.7310967" lon="9.8877933"><ele>501.7142857142857</ele><time>2026-04-19T09:49:51.056Z</time></trkpt><trkpt lat="44.7311333" lon="9.8876833"><ele>501.28571428571433</ele><time>2026-04-19T09:49:55.056Z</time></trkpt><trkpt lat="44.7311867" lon="9.8876083"><ele>500.8571428571429</ele><time>2026-04-19T09:49:57.054Z</time></trkpt><trkpt lat="44.7312167" lon="9.887525"><ele>500.42857142857144</ele><time>2026-04-19T09:49:59.054Z</time></trkpt><trkpt lat="44.7312233" lon="9.887435"><ele>500.0</ele><time>2026-04-19T09:50:01.055Z</time></trkpt><trkpt lat="44.731225" lon="9.8873367"><ele>500.0</ele><time>2026-04-19T09:50:03.055Z</time></trkpt><trkpt lat="44.7312133" lon="9.88724"><ele>500.0</ele><time>2026-04-19T09:50:06.054Z</time></trkpt><trkpt lat="44.7311867" lon="9.8871583"><ele>500.0</ele><time>2026-04-19T09:50:10.053Z</time></trkpt></trkseg><trkseg><trkpt lat="44.7311759" lon="9.8871837"><ele>500.0</ele><time>2026-04-19T10:25:09.092Z</time></trkpt><trkpt lat="44.7312103" lon="9.8872688"><ele>500.0</ele><time>2026-04-19T10:29:32.096Z</time></trkpt><trkpt lat="44.7312004" lon="9.8873604"><ele>500.0</ele><time>2026-04-19T10:29:35.087Z</time></trkpt><trkpt lat="44.7311666" lon="9.8874429"><ele>500.0</ele><time>2026-04-19T10:29:37.119Z</time></trkpt><trkpt lat="44.7311374" lon="9.8875311"><ele>500.0</ele><time>2026-04-19T10:29:39.124Z</time></trkpt><trkpt lat="44.7311077" lon="9.8876165"><ele>500.0</ele><time>2026-04-19T10:29:41.066Z</time></trkpt><trkpt lat="44.7310702" lon="9.8877116"><ele>500.0</ele><time>2026-04-19T10:29:44.056Z</time></trkpt><trkpt lat="44.7310436" lon="9.8878092"><ele>501.99999999999994</ele><time>2026-04-19T10:29:48.122Z</time></trkpt><trkpt lat="44.7310039" lon="9.8878985"><ele>504.0</ele><time>2026-04-19T10:29:49.055Z</time></trkpt><trkpt lat="44.730977" lon="9.8879931"><ele>506.0</ele><time>2026-04-19T10:29:50.055Z</time></trkpt><trkpt lat="44.7309667" lon="9.8881006"><ele>508.0</ele><time>2026-04-19T10:29:51.054Z</time></trkpt><trkpt lat="44.7309679" lon="9.8882252"><ele>509.99999999999994</ele><time>2026-04-19T10:29:52.055Z</time></trkpt><trkpt lat="44.7309785" lon="9.8883589"><ele>512.0</ele><time>2026-04-19T10:29:53.055Z</time></trkpt><trkpt lat="44.7309968" lon="9.8884982"><ele>513.4</ele><time>2026-04-19T10:29:54.056Z</time></trkpt><trkpt lat="44.7310237" lon="9.8886418"><ele>514.8000000000001</ele><time>2026-04-19T10:29:55.055Z</time></trkpt><trkpt lat="44.7310613" lon="9.8887883"><ele>516.2</ele><time>2026-04-19T10:29:56.054Z</time></trkpt><trkpt lat="44.7311026" lon="9.8889352"><ele>517.6</ele><time>2026-04-19T10:29:57.055Z</time></trkpt><trkpt lat="44.7311478" lon="9.8890803"><ele>519.0</ele><time>2026-04-19T10:29:58.055Z</time></trkpt><trkpt lat="44.7311952" lon="9.8892256"><ele>518.25</ele><time>2026-04-19T10:29:59.054Z</time></trkpt><trkpt lat="44.7312469" lon="9.8893687"><ele>517.5</ele><time>2026-04-19T10:30:00.055Z</time></trkpt><trkpt lat="44.731302" lon="9.889511"><ele>516.75</ele><time>2026-04-19T10:30:01.055Z</time></trkpt><trkpt lat="44.7313617" lon="9.889649"><ele>516.0</ele><time>2026-04-19T10:30:02.056Z</time></trkpt><trkpt lat="44.7314267" lon="9.8897783"><ele>516.0</ele><time>2026-04-19T10:30:03.056Z</time></trkpt><trkpt lat="44.731495" lon="9.889895"><ele>516.0</ele><time>2026-04-19T10:30:04.055Z</time></trkpt><trkpt lat="44.7315617" lon="9.8900133"><ele>516.0</ele><time>2026-04-19T10:30:05.055Z</time></trkpt><trkpt lat="44.7316117" lon="9.8901433"><ele>516.0</ele><time>2026-04-19T10:30:06.055Z</time></trkpt><trkpt lat="44.7316517" lon="9.89028"><ele>516.0</ele><time>2026-04-19T10:30:07.056Z</time></trkpt><trkpt lat="44.7316933" lon="9.89042"><ele>516.4</ele><time>2026-04-19T10:30:08.054Z</time></trkpt><trkpt lat="44.7317417" lon="9.8905617"><ele>516.8</ele><time>2026-04-19T10:30:09.054Z</time></trkpt><trkpt lat="44.7317883" lon="9.890705"><ele>517.1999999999999</ele><time>2026-04-19T10:30:10.055Z</time></trkpt><trkpt lat="44.7318367" lon="9.89084"><ele>517.6</ele><time>2026-04-19T10:30:11.055Z</time></trkpt><trkpt lat="44.7318717" lon="9.8909583"><ele>518.0</ele><time>2026-04-19T10:30:12.053Z</time></trkpt><trkpt lat="44.7318983" lon="9.8910583"><ele>518.0</ele><time>2026-04-19T10:30:13.054Z</time></trkpt><trkpt lat="44.7319183" lon="9.8911583"><ele>518.0</ele><time>2026-04-19T10:30:14.057Z</time></trkpt><trkpt lat="44.7319267" lon="9.8912633"><ele>518.0</ele><time>2026-04-19T10:30:15.055Z</time></trkpt><trkpt lat="44.7319317" lon="9.8913733"><ele>518.0</ele><time>2026-04-19T10:30:16.054Z</time></trkpt><trkpt lat="44.7319267" lon="9.891495"><ele>518.0</ele><time>2026-04-19T10:30:17.055Z</time></trkpt><trkpt lat="44.7319317" lon="9.891625"><ele>518.0</ele><time>2026-04-19T10:30:18.055Z</time></trkpt><trkpt lat="44.7319433" lon="9.8917717"><ele>519.75</ele><time>2026-04-19T10:30:19.056Z</time></trkpt><trkpt lat="44.731965" lon="9.891925"><ele>521.5</ele><time>2026-04-19T10:30:20.056Z</time></trkpt><trkpt lat="44.7319917" lon="9.8920833"><ele>523.25</ele><time>2026-04-19T10:30:21.055Z</time></trkpt><trkpt lat="44.7320233" lon="9.8922367"><ele>525.0</ele><time>2026-04-19T10:30:22.056Z</time></trkpt><trkpt lat="44.73206" lon="9.8923917"><ele>525.0</ele><time>2026-04-19T10:30:23.055Z</time></trkpt><trkpt lat="44.7321033" lon="9.8925417"><ele>525.0</ele><time>2026-04-19T10:30:24.056Z</time></trkpt><trkpt lat="44.73215" lon="9.892695"><ele>525.0</ele><time>2026-04-19T10:30:25.056Z</time></trkpt><trkpt lat="44.7321967" lon="9.892855"><ele>525.0</ele><time>2026-04-19T10:30:26.055Z</time></trkpt><trkpt lat="44.7322467" lon="9.8930117"><ele>527.0</ele><time>2026-04-19T10:30:27.056Z</time></trkpt><trkpt lat="44.732305" lon="9.8931617"><ele>529.0</ele><time>2026-04-19T10:30:28.055Z</time></trkpt><trkpt lat="44.7323667" lon="9.8933033"><ele>531.0</ele><time>2026-04-19T10:30:29.055Z</time></trkpt><trkpt lat="44.7324333" lon="9.893445"><ele>533.0</ele><time>2026-04-19T10:30:30.056Z</time></trkpt><trkpt lat="44.7325017" lon="9.89359"><ele>533.25</ele><time>2026-04-19T10:30:31.056Z</time></trkpt><trkpt lat="44.73257" lon="9.8937417"><ele>533.5</ele><time>2026-04-19T10:30:32.056Z</time></trkpt><trkpt lat="44.7326383" lon="9.89389"><ele>533.75</ele><time>2026-04-19T10:30:33.056Z</time></trkpt><trkpt lat="44.73271" lon="9.894035"><ele>534.0</ele><time>2026-04-19T10:30:34.055Z</time></trkpt><trkpt lat="44.7327817" lon="9.8941783"><ele>537.0</ele><time>2026-04-19T10:30:35.056Z</time></trkpt><trkpt lat="44.7328483" lon="9.8943283"><ele>540.0</ele><time>2026-04-19T10:30:36.055Z</time></trkpt><trkpt lat="44.7329117" lon="9.8944833"><ele>543.0</ele><time>2026-04-19T10:30:37.056Z</time></trkpt><trkpt lat="44.732965" lon="9.8946417"><ele>546.0</ele><time>2026-04-19T10:30:38.056Z</time></trkpt><trkpt lat="44.7330167" lon="9.894805"><ele>546.0</ele><time>2026-04-19T10:30:39.055Z</time></trkpt><trkpt lat="44.7330767" lon="9.8949633"><ele>546.0</ele><time>2026-04-19T10:30:40.055Z</time></trkpt><trkpt lat="44.7331433" lon="9.8951283"><ele>546.0</ele><time>2026-04-19T10:30:41.054Z</time></trkpt><trkpt lat="44.7332117" lon="9.895295"><ele>546.0</ele><time>2026-04-19T10:30:42.053Z</time></trkpt><trkpt lat="44.7332817" lon="9.89547"><ele>548.5</ele><time>2026-04-19T10:30:43.053Z</time></trkpt><trkpt lat="44.73335" lon="9.895635"><ele>551.0</ele><time>2026-04-19T10:30:44.055Z</time></trkpt><trkpt lat="44.7334117" lon="9.8957883"><ele>553.5</ele><time>2026-04-19T10:30:45.054Z</time></trkpt><trkpt lat="44.73346" lon="9.8959283"><ele>556.0</ele><time>2026-04-19T10:30:46.053Z</time></trkpt><trkpt lat="44.7334817" lon="9.8960583"><ele>556.8333333333334</ele><time>2026-04-19T10:30:47.054Z</time></trkpt><trkpt lat="44.733485" lon="9.8961867"><ele>557.6666666666667</ele><time>2026-04-19T10:30:48.053Z</time></trkpt><trkpt lat="44.733465" lon="9.89631"><ele>558.5</ele><time>2026-04-19T10:30:49.052Z</time></trkpt><trkpt lat="44.733435" lon="9.8964183"><ele>559.3333333333334</ele><time>2026-04-19T10:30:50.054Z</time></trkpt><trkpt lat="44.7334083" lon="9.8965067"><ele>560.1666666666666</ele><time>2026-04-19T10:30:51.054Z</time></trkpt><trkpt lat="44.7333283" lon="9.896625"><ele>561.0</ele><time>2026-04-19T10:30:53.054Z</time></trkpt><trkpt lat="44.7332567" lon="9.8966633"><ele>561.0</ele><time>2026-04-19T10:30:54.056Z</time></trkpt><trkpt lat="44.733165" lon="9.896695"><ele>561.0</ele><time>2026-04-19T10:30:55.056Z</time></trkpt><trkpt lat="44.7330617" lon="9.8967183"><ele>561.0</ele><time>2026-04-19T10:30:56.054Z</time></trkpt><trkpt lat="44.7329467" lon="9.8967317"><ele>561.0</ele><time>2026-04-19T10:30:57.056Z</time></trkpt><trkpt lat="44.7328283" lon="9.8967333"><ele>561.0</ele><time>2026-04-19T10:30:58.054Z</time></trkpt><trkpt lat="44.7327017" lon="9.896705"><ele>562.5</ele><time>2026-04-19T10:30:59.055Z</time></trkpt><trkpt lat="44.7325783" lon="9.89664"><ele>564.0</ele><time>2026-04-19T10:31:00.054Z</time></trkpt><trkpt lat="44.732465" lon="9.8965417"><ele>565.5</ele><time>2026-04-19T10:31:01.053Z</time></trkpt><trkpt lat="44.7323567" lon="9.8964333"><ele>567.0</ele><time>2026-04-19T10:31:02.056Z</time></trkpt><trkpt lat="44.73225" lon="9.8963333"><ele>567.0</ele><time>2026-04-19T10:31:03.056Z</time></trkpt><trkpt lat="44.732145" lon="9.89626"><ele>567.0</ele><time>2026-04-19T10:31:04.054Z</time></trkpt><trkpt lat="44.7320333" lon="9.8962267"><ele>567.0</ele><time>2026-04-19T10:31:05.054Z</time></trkpt><trkpt lat="44.731915" lon="9.8962333"><ele>567.0</ele><time>2026-04-19T10:31:06.056Z</time></trkpt><trkpt lat="44.7318017" lon="9.8962683"><ele>568.2</ele><time>2026-04-19T10:31:07.055Z</time></trkpt><trkpt lat="44.7317" lon="9.8963133"><ele>569.4000000000001</ele><time>2026-04-19T10:31:08.056Z</time></trkpt><trkpt lat="44.7316133" lon="9.8963567"><ele>570.5999999999999</ele><time>2026-04-19T10:31:09.055Z</time></trkpt><trkpt lat="44.7315433" lon="9.89639"><ele>571.8</ele><time>2026-04-19T10:31:10.055Z</time></trkpt><trkpt lat="44.7314517" lon="9.8963833"><ele>573.0</ele><time>2026-04-19T10:31:12.055Z</time></trkpt><trkpt lat="44.731375" lon="9.8963167"><ele>573.0</ele><time>2026-04-19T10:31:14.056Z</time></trkpt><trkpt lat="44.731315" lon="9.896215"><ele>573.0</ele><time>2026-04-19T10:31:16.055Z</time></trkpt><trkpt lat="44.73127" lon="9.89604"><ele>573.0</ele><time>2026-04-19T10:31:18.054Z</time></trkpt><trkpt lat="44.731245" lon="9.89593"><ele>573.0</ele><time>2026-04-19T10:31:19.055Z</time></trkpt><trkpt lat="44.7312233" lon="9.8958267"><ele>573.0</ele><time>2026-04-19T10:31:20.055Z</time></trkpt><trkpt lat="44.7312017" lon="9.89572"><ele>572.8333333333334</ele><time>2026-04-19T10:31:21.055Z</time></trkpt><trkpt lat="44.7311883" lon="9.8956033"><ele>572.6666666666666</ele><time>2026-04-19T10:31:22.055Z</time></trkpt><trkpt lat="44.731175" lon="9.89548"><ele>572.5</ele><time>2026-04-19T10:31:23.055Z</time></trkpt><trkpt lat="44.7311733" lon="9.8953583"><ele>572.3333333333333</ele><time>2026-04-19T10:31:24.056Z</time></trkpt><trkpt lat="44.7311617" lon="9.895255"><ele>572.1666666666666</ele><time>2026-04-19T10:31:25.056Z</time></trkpt><trkpt lat="44.7311567" lon="9.8951467"><ele>572.0</ele><time>2026-04-19T10:31:26.055Z</time></trkpt><trkpt lat="44.7311367" lon="9.8949933"><ele>571.5</ele><time>2026-04-19T10:31:28.055Z</time></trkpt><trkpt lat="44.731075" lon="9.8949067"><ele>571.0</ele><time>2026-04-19T10:31:31.055Z</time></trkpt><trkpt lat="44.73102" lon="9.8949833"><ele>570.5</ele><time>2026-04-19T10:31:34.055Z</time></trkpt><trkpt lat="44.73095" lon="9.8951167"><ele>570.0</ele><time>2026-04-19T10:31:36.055Z</time></trkpt><trkpt lat="44.7309" lon="9.8952117"><ele>569.5</ele><time>2026-04-19T10:31:37.056Z</time></trkpt><trkpt lat="44.7308583" lon="9.8952883"><ele>569.0</ele><time>2026-04-19T10:31:38.056Z</time></trkpt><trkpt lat="44.7308133" lon="9.895355"><ele>573.5</ele><time>2026-04-19T10:31:39.054Z</time></trkpt><trkpt lat="44.7307683" lon="9.8954183"><ele>578.0</ele><time>2026-04-19T10:31:40.055Z</time></trkpt><trkpt lat="44.7307133" lon="9.8955867"><ele>582.5</ele><time>2026-04-19T10:31:42.055Z</time></trkpt><trkpt lat="44.7306867" lon="9.8956717"><ele>587.0</ele><time>2026-04-19T10:31:43.055Z</time></trkpt><trkpt lat="44.7306733" lon="9.8957867"><ele>591.5</ele><time>2026-04-19T10:31:44.057Z</time></trkpt><trkpt lat="44.7306567" lon="9.8958917"><ele>596.0</ele><time>2026-04-19T10:31:45.055Z</time></trkpt><trkpt lat="44.7306267" lon="9.89605"><ele>596.0</ele><time>2026-04-19T10:31:47.058Z</time></trkpt><trkpt lat="44.730615" lon="9.8962733"><ele>596.0</ele><time>2026-04-19T10:31:49.057Z</time></trkpt><trkpt lat="44.7306183" lon="9.8963917"><ele>596.0</ele><time>2026-04-19T10:31:50.056Z</time></trkpt><trkpt lat="44.7306067" lon="9.8964933"><ele>596.0</ele><time>2026-04-19T10:31:51.056Z</time></trkpt><trkpt lat="44.73059" lon="9.8966667"><ele>596.0</ele><time>2026-04-19T10:31:53.056Z</time></trkpt><trkpt lat="44.7305717" lon="9.896755"><ele>596.0</ele><time>2026-04-19T10:31:54.055Z</time></trkpt><trkpt lat="44.730625" lon="9.896945"><ele>596.0</ele><time>2026-04-19T10:31:56.055Z</time></trkpt><trkpt lat="44.7306083" lon="9.8970417"><ele>596.0</ele><time>2026-04-19T10:31:57.054Z</time></trkpt><trkpt lat="44.7305883" lon="9.8972317"><ele>596.0</ele><time>2026-04-19T10:31:59.054Z</time></trkpt><trkpt lat="44.73056" lon="9.89732"><ele>596.0</ele><time>2026-04-19T10:32:00.055Z</time></trkpt><trkpt lat="44.7304833" lon="9.8974467"><ele>596.0</ele><time>2026-04-19T10:32:02.055Z</time></trkpt><trkpt lat="44.7304217" lon="9.8975083"><ele>596.0</ele><time>2026-04-19T10:32:03.056Z</time></trkpt><trkpt lat="44.7303083" lon="9.8975967"><ele>596.0</ele><time>2026-04-19T10:32:05.056Z</time></trkpt><trkpt lat="44.7302467" lon="9.8976233"><ele>596.0</ele><time>2026-04-19T10:32:06.054Z</time></trkpt><trkpt lat="44.7301733" lon="9.8976633"><ele>596.0</ele><time>2026-04-19T10:32:07.055Z</time></trkpt><trkpt lat="44.7300783" lon="9.89769"><ele>596.0</ele><time>2026-04-19T10:32:08.054Z</time></trkpt><trkpt lat="44.7299867" lon="9.8977133"><ele>601.0</ele><time>2026-04-19T10:32:09.054Z</time></trkpt><trkpt lat="44.7298867" lon="9.8977333"><ele>606.0</ele><time>2026-04-19T10:32:10.055Z</time></trkpt><trkpt lat="44.7297983" lon="9.897755"><ele>611.0</ele><time>2026-04-19T10:32:11.055Z</time></trkpt><trkpt lat="44.7297067" lon="9.897785"><ele>616.0</ele><time>2026-04-19T10:32:12.056Z</time></trkpt><trkpt lat="44.7296133" lon="9.8978583"><ele>621.0</ele><time>2026-04-19T10:32:13.053Z</time></trkpt><trkpt lat="44.729485" lon="9.897905"><ele>621.0</ele><time>2026-04-19T10:32:15.056Z</time></trkpt><trkpt lat="44.7294167" lon="9.8979217"><ele>621.0</ele><time>2026-04-19T10:32:16.055Z</time></trkpt><trkpt lat="44.729315" lon="9.897935"><ele>621.0</ele><time>2026-04-19T10:32:17.056Z</time></trkpt><trkpt lat="44.7292417" lon="9.897925"><ele>621.0</ele><time>2026-04-19T10:32:18.054Z</time></trkpt><trkpt lat="44.7291567" lon="9.8979233"><ele>621.0</ele><time>2026-04-19T10:32:19.056Z</time></trkpt><trkpt lat="44.7290367" lon="9.8979333"><ele>626.8</ele><time>2026-04-19T10:32:21.055Z</time></trkpt><trkpt lat="44.72892" lon="9.897965"><ele>632.6</ele><time>2026-04-19T10:32:22.056Z</time></trkpt><trkpt lat="44.7288167" lon="9.8979917"><ele>638.4</ele><time>2026-04-19T10:32:23.055Z</time></trkpt><trkpt lat="44.72875" lon="9.8980033"><ele>644.2</ele><time>2026-04-19T10:32:24.055Z</time></trkpt><trkpt lat="44.72866" lon="9.898045"><ele>650.0</ele><time>2026-04-19T10:32:26.055Z</time></trkpt><trkpt lat="44.7286" lon="9.8981583"><ele>650.6</ele><time>2026-04-19T10:32:28.055Z</time></trkpt><trkpt lat="44.7285283" lon="9.8983017"><ele>651.2</ele><time>2026-04-19T10:32:30.055Z</time></trkpt><trkpt lat="44.728465" lon="9.8984267"><ele>651.8</ele><time>2026-04-19T10:32:32.055Z</time></trkpt><trkpt lat="44.7284467" lon="9.8985217"><ele>652.4</ele><time>2026-04-19T10:32:34.055Z</time></trkpt><trkpt lat="44.7285067" lon="9.898605"><ele>653.0</ele><time>2026-04-19T10:32:36.054Z</time></trkpt><trkpt lat="44.72858" lon="9.898725"><ele>653.0</ele><time>2026-04-19T10:32:38.056Z</time></trkpt><trkpt lat="44.728635" lon="9.8988817"><ele>653.0</ele><time>2026-04-19T10:32:40.053Z</time></trkpt><trkpt lat="44.728655" lon="9.8990383"><ele>653.0</ele><time>2026-04-19T10:32:42.052Z</time></trkpt><trkpt lat="44.7286783" lon="9.8991717"><ele>653.0</ele><time>2026-04-19T10:32:44.055Z</time></trkpt><trkpt lat="44.7287167" lon="9.89932"><ele>653.0</ele><time>2026-04-19T10:32:46.054Z</time></trkpt><trkpt lat="44.7287583" lon="9.8994767"><ele>654.0</ele><time>2026-04-19T10:32:48.055Z</time></trkpt><trkpt lat="44.7287567" lon="9.8996333"><ele>655.0</ele><time>2026-04-19T10:32:50.055Z</time></trkpt><trkpt lat="44.72872" lon="9.899755"><ele>656.0</ele><time>2026-04-19T10:32:52.054Z</time></trkpt><trkpt lat="44.7286633" lon="9.8998933"><ele>657.0</ele><time>2026-04-19T10:32:54.055Z</time></trkpt><trkpt lat="44.7286083" lon="9.9000383"><ele>658.0</ele><time>2026-04-19T10:32:56.055Z</time></trkpt><trkpt lat="44.72854" lon="9.900155"><ele>668.8</ele><time>2026-04-19T10:32:58.056Z</time></trkpt><trkpt lat="44.728475" lon="9.9002883"><ele>679.5999999999999</ele><time>2026-04-19T10:33:00.055Z</time></trkpt><trkpt lat="44.728445" lon="9.90042"><ele>690.4000000000001</ele><time>2026-04-19T10:33:02.054Z</time></trkpt><trkpt lat="44.7284167" lon="9.9005"><ele>701.2</ele><time>2026-04-19T10:33:03.055Z</time></trkpt><trkpt lat="44.7283867" lon="9.900605"><ele>712.0</ele><time>2026-04-19T10:33:04.056Z</time></trkpt><trkpt lat="44.7283983" lon="9.90076"><ele>712.0</ele><time>2026-04-19T10:33:06.056Z</time></trkpt><trkpt lat="44.72839" lon="9.9008833"><ele>712.0</ele><time>2026-04-19T10:33:09.055Z</time></trkpt><trkpt lat="44.72843" lon="9.9009933"><ele>712.0</ele><time>2026-04-19T10:33:11.056Z</time></trkpt><trkpt lat="44.7284383" lon="9.9011233"><ele>712.0</ele><time>2026-04-19T10:33:13.055Z</time></trkpt><trkpt lat="44.7284417" lon="9.9012433"><ele>712.0</ele><time>2026-04-19T10:33:15.054Z</time></trkpt><trkpt lat="44.72851" lon="9.9013183"><ele>712.0</ele><time>2026-04-19T10:33:17.054Z</time></trkpt><trkpt lat="44.7285883" lon="9.9013783"><ele>706.2</ele><time>2026-04-19T10:33:19.054Z</time></trkpt><trkpt lat="44.7286583" lon="9.901445"><ele>700.4000000000001</ele><time>2026-04-19T10:33:21.056Z</time></trkpt><trkpt lat="44.72873" lon="9.9015517"><ele>694.5999999999999</ele><time>2026-04-19T10:33:23.055Z</time></trkpt><trkpt lat="44.7287833" lon="9.9016783"><ele>688.8</ele><time>2026-04-19T10:33:25.056Z</time></trkpt><trkpt lat="44.7288103" lon="9.9017839"><ele>683.0</ele><time>2026-04-19T10:33:27.055Z</time></trkpt><trkpt lat="44.7288126" lon="9.9019097"><ele>683.0</ele><time>2026-04-19T10:33:29.056Z</time></trkpt><trkpt lat="44.7288161" lon="9.9020986"><ele>683.0</ele><time>2026-04-19T10:33:31.054Z</time></trkpt><trkpt lat="44.7288021" lon="9.9022141"><ele>683.0</ele><time>2026-04-19T10:33:32.056Z</time></trkpt><trkpt lat="44.7287531" lon="9.9024414"><ele>683.0</ele><time>2026-04-19T10:33:35.06Z</time></trkpt><trkpt lat="44.7287361" lon="9.9025783"><ele>683.5</ele><time>2026-04-19T10:33:36.137Z</time></trkpt><trkpt lat="44.7287322" lon="9.9026939"><ele>684.0</ele><time>2026-04-19T10:33:37.095Z</time></trkpt><trkpt lat="44.7287417" lon="9.9028125"><ele>684.5</ele><time>2026-04-19T10:33:38.071Z</time></trkpt><trkpt lat="44.7287444" lon="9.9029223"><ele>685.0</ele><time>2026-04-19T10:33:39.127Z</time></trkpt><trkpt lat="44.7287385" lon="9.9030181"><ele>685.5</ele><time>2026-04-19T10:33:40.153Z</time></trkpt><trkpt lat="44.7287177" lon="9.9031761"><ele>686.0</ele><time>2026-04-19T10:33:42.115Z</time></trkpt><trkpt lat="44.7286897" lon="9.9033"><ele>686.5999999999999</ele><time>2026-04-19T10:33:44.055Z</time></trkpt><trkpt lat="44.7285827" lon="9.9034155"><ele>687.2</ele><time>2026-04-19T10:33:46.056Z</time></trkpt><trkpt lat="44.7284738" lon="9.9034945"><ele>687.8</ele><time>2026-04-19T10:33:48.056Z</time></trkpt><trkpt lat="44.7284103" lon="9.9034879"><ele>688.4000000000001</ele><time>2026-04-19T10:33:50.056Z</time></trkpt><trkpt lat="44.7283679" lon="9.90338"><ele>689.0</ele><time>2026-04-19T10:33:53.056Z</time></trkpt><trkpt lat="44.7282926" lon="9.9032812"><ele>698.8000000000001</ele><time>2026-04-19T10:33:56.056Z</time></trkpt><trkpt lat="44.7282209" lon="9.90317"><ele>708.6</ele><time>2026-04-19T10:33:58.055Z</time></trkpt><trkpt lat="44.7281618" lon="9.9030561"><ele>718.4</ele><time>2026-04-19T10:34:00.056Z</time></trkpt><trkpt lat="44.7281011" lon="9.9029409"><ele>728.2</ele><time>2026-04-19T10:34:02.055Z</time></trkpt><trkpt lat="44.7280495" lon="9.9028211"><ele>738.0</ele><time>2026-04-19T10:34:04.055Z</time></trkpt><trkpt lat="44.7279802" lon="9.9027513"><ele>738.0</ele><time>2026-04-19T10:34:06.055Z</time></trkpt><trkpt lat="44.7278998" lon="9.9027289"><ele>738.0</ele><time>2026-04-19T10:34:08.058Z</time></trkpt><trkpt lat="44.7278172" lon="9.9027103"><ele>738.0</ele><time>2026-04-19T10:34:10.055Z</time></trkpt><trkpt lat="44.7277161" lon="9.9026867"><ele>738.0</ele><time>2026-04-19T10:34:12.055Z</time></trkpt><trkpt lat="44.7276283" lon="9.9026745"><ele>738.0</ele><time>2026-04-19T10:34:14.057Z</time></trkpt><trkpt lat="44.7275341" lon="9.9026572"><ele>741.2</ele><time>2026-04-19T10:34:16.055Z</time></trkpt><trkpt lat="44.7274718" lon="9.9026399"><ele>744.4</ele><time>2026-04-19T10:34:17.056Z</time></trkpt><trkpt lat="44.7273572" lon="9.9026193"><ele>747.6</ele><time>2026-04-19T10:34:19.055Z</time></trkpt><trkpt lat="44.7272365" lon="9.9026152"><ele>750.8000000000001</ele><time>2026-04-19T10:34:21.055Z</time></trkpt><trkpt lat="44.7271415" lon="9.9026103"><ele>754.0</ele><time>2026-04-19T10:34:23.055Z</time></trkpt><trkpt lat="44.7270513" lon="9.9026005"><ele>756.5</ele><time>2026-04-19T10:34:25.056Z</time></trkpt><trkpt lat="44.72692" lon="9.9025757"><ele>759.0</ele><time>2026-04-19T10:34:27.054Z</time></trkpt><trkpt lat="44.7268512" lon="9.9025609"><ele>761.5</ele><time>2026-04-19T10:34:28.056Z</time></trkpt><trkpt lat="44.7267859" lon="9.9025513"><ele>764.0</ele><time>2026-04-19T10:34:29.055Z</time></trkpt><trkpt lat="44.7266967" lon="9.9025376"><ele>766.4999999999999</ele><time>2026-04-19T10:34:31.054Z</time></trkpt><trkpt lat="44.7266193" lon="9.9025272"><ele>769.0</ele><time>2026-04-19T10:34:33.055Z</time></trkpt><trkpt lat="44.726556" lon="9.9025544"><ele>768.1666666666666</ele><time>2026-04-19T10:34:37.055Z</time></trkpt><trkpt lat="44.7264535" lon="9.9025903"><ele>767.3333333333333</ele><time>2026-04-19T10:34:42.055Z</time></trkpt><trkpt lat="44.7263916" lon="9.9026211"><ele>766.5</ele><time>2026-04-19T10:34:44.055Z</time></trkpt><trkpt lat="44.7263057" lon="9.9026316"><ele>765.6666666666666</ele><time>2026-04-19T10:34:47.055Z</time></trkpt><trkpt lat="44.7262347" lon="9.9026336"><ele>764.8333333333333</ele><time>2026-04-19T10:34:49.055Z</time></trkpt><trkpt lat="44.7261447" lon="9.902638"><ele>764.0</ele><time>2026-04-19T10:34:51.055Z</time></trkpt><trkpt lat="44.726052" lon="9.9026314"><ele>768.3333333333333</ele><time>2026-04-19T10:34:53.055Z</time></trkpt><trkpt lat="44.7259614" lon="9.9026592"><ele>772.6666666666666</ele><time>2026-04-19T10:34:55.054Z</time></trkpt><trkpt lat="44.7259036" lon="9.9026962"><ele>777.0</ele><time>2026-04-19T10:34:56.055Z</time></trkpt><trkpt lat="44.7258456" lon="9.9027416"><ele>781.3333333333333</ele><time>2026-04-19T10:34:57.056Z</time></trkpt><trkpt lat="44.7257888" lon="9.9027881"><ele>785.6666666666666</ele><time>2026-04-19T10:34:58.056Z</time></trkpt><trkpt lat="44.7256874" lon="9.9028587"><ele>790.0</ele><time>2026-04-19T10:35:00.057Z</time></trkpt><trkpt lat="44.7256015" lon="9.9029299"><ele>789.9999999999999</ele><time>2026-04-19T10:35:02.055Z</time></trkpt><trkpt lat="44.7255156" lon="9.9030129"><ele>790.0</ele><time>2026-04-19T10:35:04.055Z</time></trkpt><trkpt lat="44.7254442" lon="9.9030475"><ele>790.0</ele><time>2026-04-19T10:35:05.056Z</time></trkpt><trkpt lat="44.7253709" lon="9.9030847"><ele>790.0</ele><time>2026-04-19T10:35:07.055Z</time></trkpt><trkpt lat="44.7252842" lon="9.9031045"><ele>789.9999999999999</ele><time>2026-04-19T10:35:14.055Z</time></trkpt><trkpt lat="44.7252099" lon="9.9031459"><ele>790.0</ele><time>2026-04-19T10:35:17.066Z</time></trkpt><trkpt lat="44.7251476" lon="9.9031662"><ele>793.4</ele><time>2026-04-19T10:35:20.055Z</time></trkpt><trkpt lat="44.7250726" lon="9.9032139"><ele>796.8</ele><time>2026-04-19T10:35:24.12Z</time></trkpt><trkpt lat="44.7249964" lon="9.9032647"><ele>800.2</ele><time>2026-04-19T10:35:27.147Z</time></trkpt><trkpt lat="44.7249051" lon="9.9033189"><ele>803.6</ele><time>2026-04-19T10:35:29.055Z</time></trkpt><trkpt lat="44.7247916" lon="9.90339"><ele>807.0</ele><time>2026-04-19T10:35:31.054Z</time></trkpt><trkpt lat="44.7247333" lon="9.9034244"><ele>807.0</ele><time>2026-04-19T10:35:32.054Z</time></trkpt><trkpt lat="44.7246682" lon="9.9034428"><ele>807.0</ele><time>2026-04-19T10:35:33.056Z</time></trkpt><trkpt lat="44.7245967" lon="9.903455"><ele>807.0</ele><time>2026-04-19T10:35:34.055Z</time></trkpt><trkpt lat="44.7244967" lon="9.9035033"><ele>807.0</ele><time>2026-04-19T10:35:36.055Z</time></trkpt><trkpt lat="44.7243967" lon="9.9035933"><ele>807.0</ele><time>2026-04-19T10:35:38.057Z</time></trkpt><trkpt lat="44.7243167" lon="9.9037133"><ele>811.8</ele><time>2026-04-19T10:35:40.056Z</time></trkpt><trkpt lat="44.7242483" lon="9.9038433"><ele>816.6</ele><time>2026-04-19T10:35:42.055Z</time></trkpt><trkpt lat="44.724185" lon="9.9039517"><ele>821.4</ele><time>2026-04-19T10:35:44.056Z</time></trkpt><trkpt lat="44.72412" lon="9.9039583"><ele>826.1999999999999</ele><time>2026-04-19T10:35:48.056Z</time></trkpt><trkpt lat="44.7241117" lon="9.9038483"><ele>831.0</ele><time>2026-04-19T10:35:50.055Z</time></trkpt><trkpt lat="44.7241133" lon="9.903675"><ele>830.9999999999999</ele><time>2026-04-19T10:35:52.055Z</time></trkpt><trkpt lat="44.7241067" lon="9.9035833"><ele>831.0</ele><time>2026-04-19T10:35:53.055Z</time></trkpt><trkpt lat="44.724095" lon="9.90349"><ele>831.0</ele><time>2026-04-19T10:35:54.054Z</time></trkpt><trkpt lat="44.724075" lon="9.9033983"><ele>831.0</ele><time>2026-04-19T10:35:55.055Z</time></trkpt><trkpt lat="44.724045" lon="9.90331"><ele>831.0</ele><time>2026-04-19T10:35:56.056Z</time></trkpt><trkpt lat="44.7240083" lon="9.903225"><ele>830.9999999999999</ele><time>2026-04-19T10:35:57.055Z</time></trkpt><trkpt lat="44.7239667" lon="9.9031433"><ele>831.0</ele><time>2026-04-19T10:35:58.055Z</time></trkpt><trkpt lat="44.72392" lon="9.903065"><ele>832.1666666666666</ele><time>2026-04-19T10:35:59.054Z</time></trkpt><trkpt lat="44.723865" lon="9.90299"><ele>833.3333333333333</ele><time>2026-04-19T10:36:00.055Z</time></trkpt><trkpt lat="44.7238033" lon="9.9029233"><ele>834.5</ele><time>2026-04-19T10:36:01.056Z</time></trkpt><trkpt lat="44.72374" lon="9.9028517"><ele>835.6666666666666</ele><time>2026-04-19T10:36:02.056Z</time></trkpt><trkpt lat="44.7236717" lon="9.9027717"><ele>836.8333333333333</ele><time>2026-04-19T10:36:03.055Z</time></trkpt><trkpt lat="44.7236" lon="9.9026967"><ele>838.0</ele><time>2026-04-19T10:36:04.056Z</time></trkpt><trkpt lat="44.7235267" lon="9.9026217"><ele>839.4</ele><time>2026-04-19T10:36:05.055Z</time></trkpt><trkpt lat="44.723455" lon="9.9025317"><ele>840.8</ele><time>2026-04-19T10:36:06.055Z</time></trkpt><trkpt lat="44.7233933" lon="9.902425"><ele>842.2</ele><time>2026-04-19T10:36:07.056Z</time></trkpt><trkpt lat="44.72333" lon="9.9023167"><ele>843.6</ele><time>2026-04-19T10:36:08.055Z</time></trkpt><trkpt lat="44.723275" lon="9.902215"><ele>845.0</ele><time>2026-04-19T10:36:09.055Z</time></trkpt><trkpt lat="44.7232267" lon="9.902115"><ele>845.0000000000001</ele><time>2026-04-19T10:36:10.055Z</time></trkpt><trkpt lat="44.723195" lon="9.9020217"><ele>845.0</ele><time>2026-04-19T10:36:11.055Z</time></trkpt><trkpt lat="44.723165" lon="9.9019417"><ele>845.0</ele><time>2026-04-19T10:36:12.055Z</time></trkpt><trkpt lat="44.72315" lon="9.9018083"><ele>845.0</ele><time>2026-04-19T10:36:14.055Z</time></trkpt><trkpt lat="44.723185" lon="9.9016567"><ele>845.0000000000001</ele><time>2026-04-19T10:36:16.054Z</time></trkpt><trkpt lat="44.7232033" lon="9.9015633"><ele>845.0</ele><time>2026-04-19T10:36:17.054Z</time></trkpt><trkpt lat="44.7232217" lon="9.901455"><ele>847.5000000000001</ele><time>2026-04-19T10:36:18.055Z</time></trkpt><trkpt lat="44.7232367" lon="9.9013417"><ele>850.0</ele><time>2026-04-19T10:36:19.054Z</time></trkpt><trkpt lat="44.7232583" lon="9.901225"><ele>852.5</ele><time>2026-04-19T10:36:20.054Z</time></trkpt><trkpt lat="44.7232683" lon="9.9011117"><ele>855.0</ele><time>2026-04-19T10:36:21.055Z</time></trkpt><trkpt lat="44.7232783" lon="9.9009983"><ele>857.5000000000001</ele><time>2026-04-19T10:36:22.054Z</time></trkpt><trkpt lat="44.723275" lon="9.90089"><ele>860.0</ele><time>2026-04-19T10:36:23.055Z</time></trkpt><trkpt lat="44.723265" lon="9.9007883"><ele>860.8571428571428</ele><time>2026-04-19T10:36:24.055Z</time></trkpt><trkpt lat="44.723245" lon="9.90069"><ele>861.7142857142858</ele><time>2026-04-19T10:36:25.056Z</time></trkpt><trkpt lat="44.7232167" lon="9.9005933"><ele>862.5714285714286</ele><time>2026-04-19T10:36:26.054Z</time></trkpt><trkpt lat="44.723185" lon="9.9005067"><ele>863.4285714285713</ele><time>2026-04-19T10:36:27.055Z</time></trkpt><trkpt lat="44.7231433" lon="9.9004317"><ele>864.2857142857142</ele><time>2026-04-19T10:36:28.054Z</time></trkpt><trkpt lat="44.7230933" lon="9.9003617"><ele>865.1428571428571</ele><time>2026-04-19T10:36:29.055Z</time></trkpt><trkpt lat="44.7230383" lon="9.9002867"><ele>866.0</ele><time>2026-04-19T10:36:30.055Z</time></trkpt><trkpt lat="44.7229717" lon="9.9002117"><ele>866.0000000000001</ele><time>2026-04-19T10:36:31.054Z</time></trkpt><trkpt lat="44.7229067" lon="9.9001367"><ele>866.0</ele><time>2026-04-19T10:36:32.055Z</time></trkpt><trkpt lat="44.7228367" lon="9.90007"><ele>866.0</ele><time>2026-04-19T10:36:33.054Z</time></trkpt><trkpt lat="44.72277" lon="9.9000083"><ele>866.0</ele><time>2026-04-19T10:36:34.054Z</time></trkpt><trkpt lat="44.722705" lon="9.899955"><ele>866.0000000000001</ele><time>2026-04-19T10:36:35.054Z</time></trkpt><trkpt lat="44.72265" lon="9.8998917"><ele>866.0</ele><time>2026-04-19T10:36:36.054Z</time></trkpt><trkpt lat="44.72256" lon="9.8997733"><ele>865.3333333333334</ele><time>2026-04-19T10:36:38.054Z</time></trkpt><trkpt lat="44.7225183" lon="9.8996867"><ele>864.6666666666667</ele><time>2026-04-19T10:36:39.055Z</time></trkpt><trkpt lat="44.7224667" lon="9.8995983"><ele>864.0</ele><time>2026-04-19T10:36:40.055Z</time></trkpt><trkpt lat="44.7223967" lon="9.8995083"><ele>863.3333333333333</ele><time>2026-04-19T10:36:41.054Z</time></trkpt><trkpt lat="44.7223267" lon="9.8994233"><ele>862.6666666666666</ele><time>2026-04-19T10:36:42.054Z</time></trkpt><trkpt lat="44.7222633" lon="9.89932"><ele>862.0</ele><time>2026-04-19T10:36:43.055Z</time></trkpt><trkpt lat="44.7221983" lon="9.899215"><ele>865.0</ele><time>2026-04-19T10:36:44.057Z</time></trkpt><trkpt lat="44.722135" lon="9.89912"><ele>868.0</ele><time>2026-04-19T10:36:45.055Z</time></trkpt><trkpt lat="44.7220767" lon="9.8990183"><ele>871.0</ele><time>2026-04-19T10:36:46.054Z</time></trkpt><trkpt lat="44.72202" lon="9.8989217"><ele>874.0</ele><time>2026-04-19T10:36:47.054Z</time></trkpt><trkpt lat="44.721965" lon="9.89882"><ele>877.0</ele><time>2026-04-19T10:36:48.055Z</time></trkpt><trkpt lat="44.7219067" lon="9.8987317"><ele>876.6666666666666</ele><time>2026-04-19T10:36:49.054Z</time></trkpt><trkpt lat="44.721845" lon="9.89867"><ele>876.3333333333333</ele><time>2026-04-19T10:36:50.055Z</time></trkpt><trkpt lat="44.7217883" lon="9.8986167"><ele>876.0</ele><time>2026-04-19T10:36:51.054Z</time></trkpt><trkpt lat="44.7217133" lon="9.8985767"><ele>875.6666666666667</ele><time>2026-04-19T10:36:53.053Z</time></trkpt><trkpt lat="44.7216367" lon="9.8986433"><ele>875.3333333333334</ele><time>2026-04-19T10:36:56.054Z</time></trkpt><trkpt lat="44.7215683" lon="9.898655"><ele>875.0</ele><time>2026-04-19T10:36:58.053Z</time></trkpt><trkpt lat="44.7215117" lon="9.8985317"><ele>875.0</ele><time>2026-04-19T10:37:02.054Z</time></trkpt><trkpt lat="44.7214605" lon="9.8984748"><ele>875.0</ele><time>2026-04-19T10:37:05.106Z</time></trkpt><trkpt lat="44.7214048" lon="9.8984114"><ele>875.0</ele><time>2026-04-19T10:37:06.176Z</time></trkpt><trkpt lat="44.7213447" lon="9.8982557"><ele>875.0</ele><time>2026-04-19T10:37:07.14Z</time></trkpt><trkpt lat="44.7212845" lon="9.8981745"><ele>875.0</ele><time>2026-04-19T10:37:08.096Z</time></trkpt><trkpt lat="44.7211834" lon="9.898093"><ele>876.6</ele><time>2026-04-19T10:37:10.053Z</time></trkpt><trkpt lat="44.7211307" lon="9.8980343"><ele>878.2</ele><time>2026-04-19T10:37:11.086Z</time></trkpt><trkpt lat="44.7210934" lon="9.8979607"><ele>879.8</ele><time>2026-04-19T10:37:12.074Z</time></trkpt><trkpt lat="44.721012" lon="9.8978496"><ele>881.4</ele><time>2026-04-19T10:37:14.071Z</time></trkpt><trkpt lat="44.7209183" lon="9.8978001"><ele>883.0</ele><time>2026-04-19T10:37:16.109Z</time></trkpt><trkpt lat="44.7208164" lon="9.8977223"><ele>888.25</ele><time>2026-04-19T10:37:18.141Z</time></trkpt><trkpt lat="44.7207233" lon="9.8976418"><ele>893.5</ele><time>2026-04-19T10:37:20.054Z</time></trkpt><trkpt lat="44.7206635" lon="9.8976125"><ele>898.75</ele><time>2026-04-19T10:37:21.131Z</time></trkpt><trkpt lat="44.7204971" lon="9.8975591"><ele>904.0</ele><time>2026-04-19T10:37:23.054Z</time></trkpt><trkpt lat="44.7203985" lon="9.8975025"><ele>904.0</ele><time>2026-04-19T10:37:24.056Z</time></trkpt><trkpt lat="44.7203164" lon="9.8974413"><ele>904.0000000000001</ele><time>2026-04-19T10:37:25.055Z</time></trkpt><trkpt lat="44.7202434" lon="9.8973801"><ele>904.0000000000001</ele><time>2026-04-19T10:37:26.054Z</time></trkpt><trkpt lat="44.720163" lon="9.89735"><ele>904.0</ele><time>2026-04-19T10:37:27.055Z</time></trkpt><trkpt lat="44.7200964" lon="9.897338"><ele>904.0</ele><time>2026-04-19T10:37:28.056Z</time></trkpt><trkpt lat="44.7199601" lon="9.8973566"><ele>908.8000000000001</ele><time>2026-04-19T10:37:30.056Z</time></trkpt><trkpt lat="44.7198424" lon="9.8973952"><ele>913.6000000000001</ele><time>2026-04-19T10:37:32.054Z</time></trkpt><trkpt lat="44.7197787" lon="9.8974108"><ele>918.4</ele><time>2026-04-19T10:37:33.055Z</time></trkpt><trkpt lat="44.7196863" lon="9.8974171"><ele>923.2</ele><time>2026-04-19T10:37:34.055Z</time></trkpt><trkpt lat="44.7195833" lon="9.8974183"><ele>928.0</ele><time>2026-04-19T10:37:35.054Z</time></trkpt><trkpt lat="44.7194867" lon="9.8974167"><ele>928.0000000000001</ele><time>2026-04-19T10:37:36.054Z</time></trkpt><trkpt lat="44.719405" lon="9.8973933"><ele>928.0</ele><time>2026-04-19T10:37:37.054Z</time></trkpt><trkpt lat="44.71933" lon="9.8973667"><ele>928.0000000000001</ele><time>2026-04-19T10:37:38.054Z</time></trkpt><trkpt lat="44.71926" lon="9.89734"><ele>928.0000000000001</ele><time>2026-04-19T10:37:39.055Z</time></trkpt><trkpt lat="44.719185" lon="9.8973017"><ele>928.0</ele><time>2026-04-19T10:37:40.054Z</time></trkpt><trkpt lat="44.7191217" lon="9.8972983"><ele>928.0000000000001</ele><time>2026-04-19T10:37:41.055Z</time></trkpt><trkpt lat="44.7190567" lon="9.8973083"><ele>928.0000000000001</ele><time>2026-04-19T10:37:42.054Z</time></trkpt><trkpt lat="44.7189917" lon="9.8973217"><ele>929.9999999999999</ele><time>2026-04-19T10:37:43.055Z</time></trkpt><trkpt lat="44.7189217" lon="9.8973433"><ele>932.0</ele><time>2026-04-19T10:37:44.056Z</time></trkpt><trkpt lat="44.718855" lon="9.89736"><ele>934.0</ele><time>2026-04-19T10:37:45.055Z</time></trkpt><trkpt lat="44.7187917" lon="9.8973683"><ele>936.0</ele><time>2026-04-19T10:37:46.055Z</time></trkpt><trkpt lat="44.7186983" lon="9.8973833"><ele>937.9999999999999</ele><time>2026-04-19T10:37:48.055Z</time></trkpt><trkpt lat="44.7186333" lon="9.897425"><ele>940.0</ele><time>2026-04-19T10:37:50.056Z</time></trkpt><trkpt lat="44.718535" lon="9.8974667"><ele>940.0</ele><time>2026-04-19T10:37:52.055Z</time></trkpt><trkpt lat="44.7184367" lon="9.8975067"><ele>940.0</ele><time>2026-04-19T10:37:54.057Z</time></trkpt><trkpt lat="44.7183783" lon="9.8975433"><ele>940.0</ele><time>2026-04-19T10:37:55.056Z</time></trkpt><trkpt lat="44.7182967" lon="9.8976533"><ele>940.0</ele><time>2026-04-19T10:37:57.056Z</time></trkpt><trkpt lat="44.7182083" lon="9.897725"><ele>940.0</ele><time>2026-04-19T10:37:59.054Z</time></trkpt><trkpt lat="44.7181367" lon="9.8978317"><ele>938.4999999999999</ele><time>2026-04-19T10:38:02.055Z</time></trkpt><trkpt lat="44.718105" lon="9.8979717"><ele>937.0</ele><time>2026-04-19T10:38:04.056Z</time></trkpt><trkpt lat="44.7180817" lon="9.89808"><ele>935.5</ele><time>2026-04-19T10:38:06.055Z</time></trkpt><trkpt lat="44.7180717" lon="9.8981867"><ele>934.0</ele><time>2026-04-19T10:38:08.056Z</time></trkpt><trkpt lat="44.7180633" lon="9.8982783"><ele>932.4999999999999</ele><time>2026-04-19T10:38:09.055Z</time></trkpt><trkpt lat="44.7180283" lon="9.8983667"><ele>931.0</ele><time>2026-04-19T10:38:10.055Z</time></trkpt><trkpt lat="44.71799" lon="9.89844"><ele>928.6666666666666</ele><time>2026-04-19T10:38:11.055Z</time></trkpt><trkpt lat="44.717925" lon="9.8985083"><ele>926.3333333333333</ele><time>2026-04-19T10:38:12.056Z</time></trkpt><trkpt lat="44.71786" lon="9.8985733"><ele>924.0</ele><time>2026-04-19T10:38:13.056Z</time></trkpt><trkpt lat="44.7178083" lon="9.8986267"><ele>921.6666666666667</ele><time>2026-04-19T10:38:14.055Z</time></trkpt><trkpt lat="44.717745" lon="9.8987317"><ele>919.3333333333334</ele><time>2026-04-19T10:38:16.054Z</time></trkpt><trkpt lat="44.7177167" lon="9.89883"><ele>917.0</ele><time>2026-04-19T10:38:18.056Z</time></trkpt><trkpt lat="44.7176983" lon="9.898955"><ele>916.0</ele><time>2026-04-19T10:38:20.057Z</time></trkpt><trkpt lat="44.7176867" lon="9.8990633"><ele>915.0</ele><time>2026-04-19T10:38:22.055Z</time></trkpt><trkpt lat="44.717635" lon="9.8991383"><ele>914.0</ele><time>2026-04-19T10:38:26.056Z</time></trkpt><trkpt lat="44.717545" lon="9.8992333"><ele>913.0</ele><time>2026-04-19T10:38:29.056Z</time></trkpt><trkpt lat="44.717435" lon="9.899485"><ele>911.5999999999999</ele><time>2026-04-19T10:38:31.055Z</time></trkpt><trkpt lat="44.7173733" lon="9.8995367"><ele>910.1999999999999</ele><time>2026-04-19T10:38:32.056Z</time></trkpt><trkpt lat="44.7172933" lon="9.8995967"><ele>908.8</ele><time>2026-04-19T10:38:33.056Z</time></trkpt><trkpt lat="44.7172217" lon="9.8996467"><ele>907.4</ele><time>2026-04-19T10:38:34.057Z</time></trkpt><trkpt lat="44.7171217" lon="9.8997117"><ele>906.0</ele><time>2026-04-19T10:38:35.055Z</time></trkpt><trkpt lat="44.7170283" lon="9.8997817"><ele>906.0</ele><time>2026-04-19T10:38:36.056Z</time></trkpt><trkpt lat="44.7169467" lon="9.89986"><ele>905.9999999999999</ele><time>2026-04-19T10:38:37.058Z</time></trkpt><trkpt lat="44.716855" lon="9.8999467"><ele>905.9999999999999</ele><time>2026-04-19T10:38:38.056Z</time></trkpt><trkpt lat="44.7167633" lon="9.900045"><ele>906.0</ele><time>2026-04-19T10:38:39.057Z</time></trkpt><trkpt lat="44.7166933" lon="9.9001583"><ele>906.0</ele><time>2026-04-19T10:38:40.056Z</time></trkpt><trkpt lat="44.7166017" lon="9.90028"><ele>906.5999999999999</ele><time>2026-04-19T10:38:41.054Z</time></trkpt><trkpt lat="44.7165283" lon="9.9003883"><ele>907.1999999999999</ele><time>2026-04-19T10:38:42.055Z</time></trkpt><trkpt lat="44.7164633" lon="9.900495"><ele>907.8000000000001</ele><time>2026-04-19T10:38:43.056Z</time></trkpt><trkpt lat="44.7163967" lon="9.900595"><ele>908.4000000000001</ele><time>2026-04-19T10:38:44.056Z</time></trkpt><trkpt lat="44.71633" lon="9.9006917"><ele>909.0</ele><time>2026-04-19T10:38:45.056Z</time></trkpt><trkpt lat="44.71624" lon="9.9007717"><ele>909.0</ele><time>2026-04-19T10:38:46.056Z</time></trkpt><trkpt lat="44.7161783" lon="9.9008583"><ele>909.0</ele><time>2026-04-19T10:38:47.056Z</time></trkpt><trkpt lat="44.7161283" lon="9.9009333"><ele>909.0</ele><time>2026-04-19T10:38:48.056Z</time></trkpt><trkpt lat="44.7161" lon="9.9010483"><ele>909.0</ele><time>2026-04-19T10:38:50.056Z</time></trkpt><trkpt lat="44.716005" lon="9.901165"><ele>909.0</ele><time>2026-04-19T10:38:52.056Z</time></trkpt><trkpt lat="44.715945" lon="9.9012083"><ele>909.0</ele><time>2026-04-19T10:38:53.056Z</time></trkpt><trkpt lat="44.71589" lon="9.9012633"><ele>906.5</ele><time>2026-04-19T10:38:54.055Z</time></trkpt><trkpt lat="44.7158317" lon="9.90132"><ele>904.0</ele><time>2026-04-19T10:38:55.056Z</time></trkpt><trkpt lat="44.7157833" lon="9.9013767"><ele>901.5</ele><time>2026-04-19T10:38:56.055Z</time></trkpt><trkpt lat="44.7156683" lon="9.9014417"><ele>899.0</ele><time>2026-04-19T10:38:58.055Z</time></trkpt><trkpt lat="44.7155683" lon="9.9014933"><ele>896.5</ele><time>2026-04-19T10:39:00.056Z</time></trkpt><trkpt lat="44.715505" lon="9.901515"><ele>894.0</ele><time>2026-04-19T10:39:01.056Z</time></trkpt><trkpt lat="44.7154267" lon="9.9015633"><ele>894.0</ele><time>2026-04-19T10:39:03.055Z</time></trkpt><trkpt lat="44.7153667" lon="9.901605"><ele>894.0</ele><time>2026-04-19T10:39:05.055Z</time></trkpt><trkpt lat="44.7153033" lon="9.90155"><ele>894.0</ele><time>2026-04-19T10:39:08.057Z</time></trkpt><trkpt lat="44.7153067" lon="9.9014383"><ele>894.0</ele><time>2026-04-19T10:39:10.053Z</time></trkpt><trkpt lat="44.715335" lon="9.901285"><ele>894.0</ele><time>2026-04-19T10:39:12.055Z</time></trkpt><trkpt lat="44.715365" lon="9.9011867"><ele>894.0</ele><time>2026-04-19T10:39:13.054Z</time></trkpt><trkpt lat="44.715375" lon="9.9010967"><ele>893.9999999999999</ele><time>2026-04-19T10:39:14.055Z</time></trkpt><trkpt lat="44.715385" lon="9.9009967"><ele>894.0</ele><time>2026-04-19T10:39:15.055Z</time></trkpt><trkpt lat="44.7153967" lon="9.9008833"><ele>894.0</ele><time>2026-04-19T10:39:16.055Z</time></trkpt><trkpt lat="44.7153867" lon="9.9007867"><ele>894.0</ele><time>2026-04-19T10:39:17.056Z</time></trkpt><trkpt lat="44.7153617" lon="9.900705"><ele>894.0</ele><time>2026-04-19T10:39:18.057Z</time></trkpt><trkpt lat="44.7153533" lon="9.9006033"><ele>893.9999999999999</ele><time>2026-04-19T10:39:19.055Z</time></trkpt><trkpt lat="44.7153483" lon="9.9004967"><ele>894.0</ele><time>2026-04-19T10:39:20.056Z</time></trkpt><trkpt lat="44.715335" lon="9.9004"><ele>894.3333333333334</ele><time>2026-04-19T10:39:21.054Z</time></trkpt><trkpt lat="44.7153283" lon="9.9003083"><ele>894.6666666666667</ele><time>2026-04-19T10:39:22.055Z</time></trkpt><trkpt lat="44.715325" lon="9.9002133"><ele>895.0</ele><time>2026-04-19T10:39:23.054Z</time></trkpt><trkpt lat="44.71532" lon="9.9001167"><ele>895.3333333333334</ele><time>2026-04-19T10:39:24.056Z</time></trkpt><trkpt lat="44.7152783" lon="9.9000083"><ele>895.6666666666667</ele><time>2026-04-19T10:39:25.055Z</time></trkpt><trkpt lat="44.71525" lon="9.8998967"><ele>896.0</ele><time>2026-04-19T10:39:26.056Z</time></trkpt><trkpt lat="44.7152133" lon="9.8997783"><ele>891.6666666666667</ele><time>2026-04-19T10:39:27.057Z</time></trkpt><trkpt lat="44.71518" lon="9.8996783"><ele>887.3333333333334</ele><time>2026-04-19T10:39:28.055Z</time></trkpt><trkpt lat="44.7151217" lon="9.8995433"><ele>883.0</ele><time>2026-04-19T10:39:30.055Z</time></trkpt><trkpt lat="44.7150867" lon="9.8994633"><ele>878.6666666666667</ele><time>2026-04-19T10:39:32.056Z</time></trkpt><trkpt lat="44.7150317" lon="9.8993433"><ele>874.3333333333334</ele><time>2026-04-19T10:39:35.056Z</time></trkpt><trkpt lat="44.71497" lon="9.8992983"><ele>870.0</ele><time>2026-04-19T10:39:36.056Z</time></trkpt><trkpt lat="44.7149017" lon="9.899275"><ele>870.0</ele><time>2026-04-19T10:39:37.056Z</time></trkpt><trkpt lat="44.714785" lon="9.899235"><ele>870.0</ele><time>2026-04-19T10:39:39.055Z</time></trkpt><trkpt lat="44.7147217" lon="9.8992183"><ele>870.0</ele><time>2026-04-19T10:39:40.056Z</time></trkpt><trkpt lat="44.7146467" lon="9.89921"><ele>870.0</ele><time>2026-04-19T10:39:41.056Z</time></trkpt><trkpt lat="44.7145817" lon="9.89921"><ele>870.0</ele><time>2026-04-19T10:39:42.056Z</time></trkpt><trkpt lat="44.714505" lon="9.8992233"><ele>870.0</ele><time>2026-04-19T10:39:43.055Z</time></trkpt><trkpt lat="44.7144267" lon="9.8992417"><ele>867.8333333333334</ele><time>2026-04-19T10:39:44.055Z</time></trkpt><trkpt lat="44.7143183" lon="9.8992783"><ele>865.6666666666667</ele><time>2026-04-19T10:39:45.055Z</time></trkpt><trkpt lat="44.7142283" lon="9.8993117"><ele>863.5</ele><time>2026-04-19T10:39:46.056Z</time></trkpt><trkpt lat="44.714165" lon="9.8993367"><ele>861.3333333333334</ele><time>2026-04-19T10:39:47.055Z</time></trkpt><trkpt lat="44.7140933" lon="9.8993533"><ele>859.1666666666667</ele><time>2026-04-19T10:39:48.054Z</time></trkpt><trkpt lat="44.71403" lon="9.89936"><ele>857.0</ele><time>2026-04-19T10:39:49.056Z</time></trkpt><trkpt lat="44.7139233" lon="9.8993517"><ele>857.0</ele><time>2026-04-19T10:39:51.056Z</time></trkpt><trkpt lat="44.7138317" lon="9.89935"><ele>857.0</ele><time>2026-04-19T10:39:53.055Z</time></trkpt><trkpt lat="44.7137433" lon="9.899355"><ele>857.0</ele><time>2026-04-19T10:39:55.056Z</time></trkpt><trkpt lat="44.713635" lon="9.899405"><ele>857.0</ele><time>2026-04-19T10:39:57.055Z</time></trkpt><trkpt lat="44.7135633" lon="9.899435"><ele>857.0</ele><time>2026-04-19T10:39:58.056Z</time></trkpt><trkpt lat="44.7134767" lon="9.8994717"><ele>855.8333333333334</ele><time>2026-04-19T10:39:59.055Z</time></trkpt><trkpt lat="44.7134083" lon="9.8995067"><ele>854.6666666666667</ele><time>2026-04-19T10:40:00.054Z</time></trkpt><trkpt lat="44.7133417" lon="9.89954"><ele>853.5</ele><time>2026-04-19T10:40:01.056Z</time></trkpt><trkpt lat="44.713275" lon="9.8995717"><ele>852.3333333333333</ele><time>2026-04-19T10:40:02.055Z</time></trkpt><trkpt lat="44.71321" lon="9.89961"><ele>851.1666666666666</ele><time>2026-04-19T10:40:03.056Z</time></trkpt><trkpt lat="44.713105" lon="9.8996883"><ele>850.0</ele><time>2026-04-19T10:40:05.054Z</time></trkpt><trkpt lat="44.7130067" lon="9.8997417"><ele>850.0</ele><time>2026-04-19T10:40:07.055Z</time></trkpt><trkpt lat="44.71291" lon="9.8997517"><ele>850.0</ele><time>2026-04-19T10:40:09.056Z</time></trkpt><trkpt lat="44.7128317" lon="9.8997833"><ele>850.0</ele><time>2026-04-19T10:40:12.056Z</time></trkpt><trkpt lat="44.7127617" lon="9.8998283"><ele>850.0</ele><time>2026-04-19T10:40:14.056Z</time></trkpt><trkpt lat="44.7126633" lon="9.8998667"><ele>850.0</ele><time>2026-04-19T10:40:16.056Z</time></trkpt><trkpt lat="44.7125267" lon="9.8999217"><ele>848.8333333333333</ele><time>2026-04-19T10:40:18.055Z</time></trkpt><trkpt lat="44.712455" lon="9.89995"><ele>847.6666666666666</ele><time>2026-04-19T10:40:19.054Z</time></trkpt><trkpt lat="44.7123783" lon="9.8999817"><ele>846.5</ele><time>2026-04-19T10:40:20.056Z</time></trkpt><trkpt lat="44.7123067" lon="9.9000167"><ele>845.3333333333333</ele><time>2026-04-19T10:40:21.054Z</time></trkpt><trkpt lat="44.7122483" lon="9.9000533"><ele>844.1666666666666</ele><time>2026-04-19T10:40:22.054Z</time></trkpt><trkpt lat="44.7121867" lon="9.900105"><ele>843.0</ele><time>2026-04-19T10:40:23.055Z</time></trkpt><trkpt lat="44.7121083" lon="9.9001617"><ele>841.6666666666666</ele><time>2026-04-19T10:40:24.055Z</time></trkpt><trkpt lat="44.7120183" lon="9.9002267"><ele>840.3333333333333</ele><time>2026-04-19T10:40:25.054Z</time></trkpt><trkpt lat="44.7119317" lon="9.90028"><ele>839.0</ele><time>2026-04-19T10:40:26.054Z</time></trkpt><trkpt lat="44.7118533" lon="9.90033"><ele>837.6666666666666</ele><time>2026-04-19T10:40:27.055Z</time></trkpt><trkpt lat="44.71178" lon="9.900385"><ele>836.3333333333333</ele><time>2026-04-19T10:40:28.054Z</time></trkpt><trkpt lat="44.711715" lon="9.9004283"><ele>835.0</ele><time>2026-04-19T10:40:29.054Z</time></trkpt><trkpt lat="44.7116533" lon="9.9004683"><ele>834.9999999999999</ele><time>2026-04-19T10:40:30.055Z</time></trkpt><trkpt lat="44.711555" lon="9.90052"><ele>835.0</ele><time>2026-04-19T10:40:32.055Z</time></trkpt><trkpt lat="44.7114967" lon="9.90056"><ele>835.0</ele><time>2026-04-19T10:40:33.055Z</time></trkpt><trkpt lat="44.7114383" lon="9.9006067"><ele>835.0</ele><time>2026-04-19T10:40:34.054Z</time></trkpt><trkpt lat="44.7113667" lon="9.9006517"><ele>834.9999999999999</ele><time>2026-04-19T10:40:35.056Z</time></trkpt><trkpt lat="44.7112917" lon="9.9007017"><ele>835.0</ele><time>2026-04-19T10:40:36.056Z</time></trkpt><trkpt lat="44.7112217" lon="9.9007517"><ele>835.0</ele><time>2026-04-19T10:40:37.055Z</time></trkpt><trkpt lat="44.7111467" lon="9.9007983"><ele>835.0</ele><time>2026-04-19T10:40:38.055Z</time></trkpt><trkpt lat="44.71108" lon="9.900835"><ele>835.0</ele><time>2026-04-19T10:40:39.054Z</time></trkpt><trkpt lat="44.710975" lon="9.9009067"><ele>835.0</ele><time>2026-04-19T10:40:41.054Z</time></trkpt><trkpt lat="44.710875" lon="9.9009733"><ele>835.0</ele><time>2026-04-19T10:40:43.055Z</time></trkpt><trkpt lat="44.7107817" lon="9.90101"><ele>835.4999999999999</ele><time>2026-04-19T10:40:45.054Z</time></trkpt><trkpt lat="44.71072" lon="9.9010533"><ele>836.0</ele><time>2026-04-19T10:40:46.054Z</time></trkpt><trkpt lat="44.7106667" lon="9.900985"><ele>836.5</ele><time>2026-04-19T10:40:49.054Z</time></trkpt><trkpt lat="44.7106117" lon="9.9008533"><ele>837.0</ele><time>2026-04-19T10:40:51.055Z</time></trkpt><trkpt lat="44.7105317" lon="9.9007367"><ele>837.4999999999999</ele><time>2026-04-19T10:40:53.055Z</time></trkpt><trkpt lat="44.7104767" lon="9.9006767"><ele>838.0</ele><time>2026-04-19T10:40:54.056Z</time></trkpt><trkpt lat="44.71042" lon="9.900625"><ele>837.9999999999999</ele><time>2026-04-19T10:40:55.054Z</time></trkpt><trkpt lat="44.71033" lon="9.9005533"><ele>838.0</ele><time>2026-04-19T10:40:57.054Z</time></trkpt><trkpt lat="44.710295" lon="9.9004733"><ele>838.0</ele><time>2026-04-19T10:40:59.053Z</time></trkpt><trkpt lat="44.7102717" lon="9.9003633"><ele>838.0</ele><time>2026-04-19T10:41:02.054Z</time></trkpt><trkpt lat="44.71021" lon="9.900295"><ele>837.9999999999999</ele><time>2026-04-19T10:41:05.054Z</time></trkpt><trkpt lat="44.71016" lon="9.9001883"><ele>838.0</ele><time>2026-04-19T10:41:07.054Z</time></trkpt><trkpt lat="44.710125" lon="9.9000367"><ele>838.8333333333333</ele><time>2026-04-19T10:41:09.055Z</time></trkpt><trkpt lat="44.71011" lon="9.899925"><ele>839.6666666666666</ele><time>2026-04-19T10:41:10.054Z</time></trkpt><trkpt lat="44.7100933" lon="9.899825"><ele>840.5</ele><time>2026-04-19T10:41:11.054Z</time></trkpt><trkpt lat="44.7100883" lon="9.8997183"><ele>841.3333333333333</ele><time>2026-04-19T10:41:12.056Z</time></trkpt><trkpt lat="44.710085" lon="9.8996233"><ele>842.1666666666666</ele><time>2026-04-19T10:41:13.054Z</time></trkpt><trkpt lat="44.7101167" lon="9.8994617"><ele>843.0</ele><time>2026-04-19T10:41:15.055Z</time></trkpt><trkpt lat="44.7101483" lon="9.8993817"><ele>839.5999999999999</ele><time>2026-04-19T10:41:16.053Z</time></trkpt><trkpt lat="44.71021" lon="9.8992183"><ele>836.1999999999999</ele><time>2026-04-19T10:41:18.055Z</time></trkpt><trkpt lat="44.7102367" lon="9.899125"><ele>832.8</ele><time>2026-04-19T10:41:19.055Z</time></trkpt><trkpt lat="44.71027" lon="9.8989683"><ele>829.4</ele><time>2026-04-19T10:41:21.054Z</time></trkpt><trkpt lat="44.7103183" lon="9.8988117"><ele>826.0</ele><time>2026-04-19T10:41:23.053Z</time></trkpt><trkpt lat="44.7103883" lon="9.8986433"><ele>825.6666666666666</ele><time>2026-04-19T10:41:25.054Z</time></trkpt><trkpt lat="44.7104333" lon="9.8985733"><ele>825.3333333333333</ele><time>2026-04-19T10:41:26.055Z</time></trkpt><trkpt lat="44.7105067" lon="9.898475"><ele>825.0</ele><time>2026-04-19T10:41:27.054Z</time></trkpt><trkpt lat="44.71057" lon="9.898395"><ele>824.6666666666667</ele><time>2026-04-19T10:41:28.055Z</time></trkpt><trkpt lat="44.71062" lon="9.898305"><ele>824.3333333333334</ele><time>2026-04-19T10:41:29.054Z</time></trkpt><trkpt lat="44.71066" lon="9.89821"><ele>824.0</ele><time>2026-04-19T10:41:30.054Z</time></trkpt><trkpt lat="44.7107017" lon="9.8981267"><ele>819.6</ele><time>2026-04-19T10:41:31.054Z</time></trkpt><trkpt lat="44.7107517" lon="9.89804"><ele>815.2</ele><time>2026-04-19T10:41:32.055Z</time></trkpt><trkpt lat="44.7108017" lon="9.8979333"><ele>810.8000000000001</ele><time>2026-04-19T10:41:34.054Z</time></trkpt><trkpt lat="44.7108583" lon="9.8978433"><ele>806.4000000000001</ele><time>2026-04-19T10:41:36.054Z</time></trkpt><trkpt lat="44.7109667" lon="9.8977717"><ele>802.0</ele><time>2026-04-19T10:41:38.056Z</time></trkpt><trkpt lat="44.711045" lon="9.897775"><ele>798.8</ele><time>2026-04-19T10:41:39.054Z</time></trkpt><trkpt lat="44.711115" lon="9.8977967"><ele>795.6</ele><time>2026-04-19T10:41:40.056Z</time></trkpt><trkpt lat="44.7112067" lon="9.89783"><ele>792.4</ele><time>2026-04-19T10:41:42.055Z</time></trkpt><trkpt lat="44.711295" lon="9.8978883"><ele>789.1999999999999</ele><time>2026-04-19T10:41:44.057Z</time></trkpt><trkpt lat="44.7113917" lon="9.8979067"><ele>786.0</ele><time>2026-04-19T10:41:46.056Z</time></trkpt><trkpt lat="44.7115117" lon="9.89792"><ele>786.0</ele><time>2026-04-19T10:41:48.056Z</time></trkpt><trkpt lat="44.7116117" lon="9.8979633"><ele>786.0</ele><time>2026-04-19T10:41:50.055Z</time></trkpt><trkpt lat="44.711675" lon="9.8979983"><ele>786.0</ele><time>2026-04-19T10:41:51.054Z</time></trkpt><trkpt lat="44.7117717" lon="9.8980283"><ele>786.0</ele><time>2026-04-19T10:41:53.054Z</time></trkpt><trkpt lat="44.7118583" lon="9.8980367"><ele>786.0</ele><time>2026-04-19T10:41:55.055Z</time></trkpt><trkpt lat="44.711905" lon="9.89795"><ele>786.0</ele><time>2026-04-19T10:41:57.054Z</time></trkpt><trkpt lat="44.7119" lon="9.8978267"><ele>786.0</ele><time>2026-04-19T10:41:59.056Z</time></trkpt><trkpt lat="44.7119033" lon="9.89771"><ele>786.0</ele><time>2026-04-19T10:42:01.055Z</time></trkpt><trkpt lat="44.7119367" lon="9.897615"><ele>786.0</ele><time>2026-04-19T10:42:03.056Z</time></trkpt><trkpt lat="44.7120067" lon="9.8975167"><ele>786.0</ele><time>2026-04-19T10:42:05.056Z</time></trkpt><trkpt lat="44.7120967" lon="9.8973583"><ele>786.0</ele><time>2026-04-19T10:42:07.056Z</time></trkpt><trkpt lat="44.712135" lon="9.8972767"><ele>779.8333333333334</ele><time>2026-04-19T10:42:08.057Z</time></trkpt><trkpt lat="44.7121667" lon="9.8971783"><ele>773.6666666666666</ele><time>2026-04-19T10:42:09.055Z</time></trkpt><trkpt lat="44.7121983" lon="9.897075"><ele>767.5</ele><time>2026-04-19T10:42:10.056Z</time></trkpt><trkpt lat="44.7122117" lon="9.8969767"><ele>761.3333333333333</ele><time>2026-04-19T10:42:11.056Z</time></trkpt><trkpt lat="44.71219" lon="9.89686"><ele>755.1666666666666</ele><time>2026-04-19T10:42:12.056Z</time></trkpt><trkpt lat="44.7121833" lon="9.8967583"><ele>749.0</ele><time>2026-04-19T10:42:13.056Z</time></trkpt><trkpt lat="44.7121733" lon="9.89666"><ele>745.0</ele><time>2026-04-19T10:42:14.056Z</time></trkpt><trkpt lat="44.71216" lon="9.89649"><ele>741.0</ele><time>2026-04-19T10:42:16.054Z</time></trkpt><trkpt lat="44.7121567" lon="9.8963933"><ele>737.0</ele><time>2026-04-19T10:42:17.056Z</time></trkpt><trkpt lat="44.7121533" lon="9.8962883"><ele>733.0</ele><time>2026-04-19T10:42:18.056Z</time></trkpt><trkpt lat="44.7121533" lon="9.8961883"><ele>729.0</ele><time>2026-04-19T10:42:19.055Z</time></trkpt><trkpt lat="44.7121567" lon="9.896085"><ele>725.0</ele><time>2026-04-19T10:42:20.056Z</time></trkpt><trkpt lat="44.7121883" lon="9.8959767"><ele>722.5</ele><time>2026-04-19T10:42:21.055Z</time></trkpt><trkpt lat="44.7122283" lon="9.8958183"><ele>720.0</ele><time>2026-04-19T10:42:23.057Z</time></trkpt><trkpt lat="44.7122467" lon="9.8957333"><ele>717.5</ele><time>2026-04-19T10:42:24.054Z</time></trkpt><trkpt lat="44.71228" lon="9.8956267"><ele>715.0</ele><time>2026-04-19T10:42:25.055Z</time></trkpt><trkpt lat="44.7123167" lon="9.8955483"><ele>712.5</ele><time>2026-04-19T10:42:26.055Z</time></trkpt><trkpt lat="44.712355" lon="9.895405"><ele>710.0</ele><time>2026-04-19T10:42:28.056Z</time></trkpt><trkpt lat="44.7123867" lon="9.895255"><ele>710.0</ele><time>2026-04-19T10:42:30.057Z</time></trkpt><trkpt lat="44.7124183" lon="9.8951117"><ele>710.0</ele><time>2026-04-19T10:42:32.054Z</time></trkpt><trkpt lat="44.712415" lon="9.895015"><ele>710.0</ele><time>2026-04-19T10:42:34.055Z</time></trkpt><trkpt lat="44.712385" lon="9.8949167"><ele>710.0</ele><time>2026-04-19T10:42:37.057Z</time></trkpt><trkpt lat="44.7123383" lon="9.8947833"><ele>710.0</ele><time>2026-04-19T10:42:58.053Z</time></trkpt><trkpt lat="44.7123917" lon="9.8946783"><ele>710.0</ele><time>2026-04-19T10:43:00.055Z</time></trkpt><trkpt lat="44.7124633" lon="9.8945433"><ele>706.6</ele><time>2026-04-19T10:43:02.056Z</time></trkpt><trkpt lat="44.7125383" lon="9.8944283"><ele>703.2</ele><time>2026-04-19T10:43:04.055Z</time></trkpt><trkpt lat="44.712635" lon="9.8943533"><ele>699.8</ele><time>2026-04-19T10:43:06.054Z</time></trkpt><trkpt lat="44.7127133" lon="9.8943583"><ele>696.4</ele><time>2026-04-19T10:43:08.055Z</time></trkpt><trkpt lat="44.7127933" lon="9.8944533"><ele>693.0</ele><time>2026-04-19T10:43:10.055Z</time></trkpt><trkpt lat="44.712855" lon="9.8945567"><ele>691.3333333333334</ele><time>2026-04-19T10:43:12.055Z</time></trkpt><trkpt lat="44.7129233" lon="9.8945683"><ele>689.6666666666666</ele><time>2026-04-19T10:43:15.054Z</time></trkpt><trkpt lat="44.7129517" lon="9.8944067"><ele>688.0</ele><time>2026-04-19T10:43:17.054Z</time></trkpt><trkpt lat="44.7129467" lon="9.894315"><ele>686.3333333333333</ele><time>2026-04-19T10:43:18.053Z</time></trkpt><trkpt lat="44.7129283" lon="9.8942117"><ele>684.6666666666666</ele><time>2026-04-19T10:43:19.055Z</time></trkpt><trkpt lat="44.71288" lon="9.8941167"><ele>683.0</ele><time>2026-04-19T10:43:20.055Z</time></trkpt><trkpt lat="44.712815" lon="9.8940583"><ele>680.5999999999999</ele><time>2026-04-19T10:43:21.055Z</time></trkpt><trkpt lat="44.7127383" lon="9.8940217"><ele>678.1999999999999</ele><time>2026-04-19T10:43:22.055Z</time></trkpt><trkpt lat="44.7126383" lon="9.8939933"><ele>675.8</ele><time>2026-04-19T10:43:23.055Z</time></trkpt><trkpt lat="44.712525" lon="9.8939883"><ele>673.4</ele><time>2026-04-19T10:43:24.054Z</time></trkpt><trkpt lat="44.7124217" lon="9.894"><ele>671.0</ele><time>2026-04-19T10:43:25.056Z</time></trkpt><trkpt lat="44.7122983" lon="9.89404"><ele>671.0</ele><time>2026-04-19T10:43:26.056Z</time></trkpt><trkpt lat="44.7121767" lon="9.894075"><ele>671.0</ele><time>2026-04-19T10:43:27.054Z</time></trkpt><trkpt lat="44.712065" lon="9.894105"><ele>671.0</ele><time>2026-04-19T10:43:28.056Z</time></trkpt><trkpt lat="44.711935" lon="9.8941517"><ele>671.0</ele><time>2026-04-19T10:43:29.055Z</time></trkpt><trkpt lat="44.7118217" lon="9.89421"><ele>674.5</ele><time>2026-04-19T10:43:30.056Z</time></trkpt><trkpt lat="44.7117233" lon="9.8942817"><ele>678.0</ele><time>2026-04-19T10:43:31.054Z</time></trkpt><trkpt lat="44.71162" lon="9.894365"><ele>681.5</ele><time>2026-04-19T10:43:32.055Z</time></trkpt><trkpt lat="44.7115233" lon="9.8944767"><ele>685.0</ele><time>2026-04-19T10:43:33.053Z</time></trkpt><trkpt lat="44.7114567" lon="9.8945767"><ele>685.0</ele><time>2026-04-19T10:43:34.057Z</time></trkpt><trkpt lat="44.7114083" lon="9.8946633"><ele>685.0</ele><time>2026-04-19T10:43:35.056Z</time></trkpt><trkpt lat="44.7113333" lon="9.8947317"><ele>685.0</ele><time>2026-04-19T10:43:37.054Z</time></trkpt><trkpt lat="44.7112083" lon="9.8946667"><ele>685.0</ele><time>2026-04-19T10:43:39.055Z</time></trkpt><trkpt lat="44.7111317" lon="9.894585"><ele>685.0</ele><time>2026-04-19T10:43:40.055Z</time></trkpt><trkpt lat="44.7110483" lon="9.8945183"><ele>683.0</ele><time>2026-04-19T10:43:41.056Z</time></trkpt><trkpt lat="44.710955" lon="9.8944667"><ele>681.0</ele><time>2026-04-19T10:43:42.056Z</time></trkpt><trkpt lat="44.710855" lon="9.8944317"><ele>679.0</ele><time>2026-04-19T10:43:43.055Z</time></trkpt><trkpt lat="44.7107583" lon="9.8944083"><ele>677.0</ele><time>2026-04-19T10:43:44.054Z</time></trkpt><trkpt lat="44.7106633" lon="9.89441"><ele>675.0</ele><time>2026-04-19T10:43:45.056Z</time></trkpt><trkpt lat="44.7105683" lon="9.8944367"><ele>675.0</ele><time>2026-04-19T10:43:46.056Z</time></trkpt><trkpt lat="44.7104767" lon="9.8945017"><ele>675.0</ele><time>2026-04-19T10:43:47.054Z</time></trkpt><trkpt lat="44.71039" lon="9.89458"><ele>675.0</ele><time>2026-04-19T10:43:48.055Z</time></trkpt><trkpt lat="44.7103017" lon="9.8946567"><ele>675.0</ele><time>2026-04-19T10:43:49.056Z</time></trkpt><trkpt lat="44.7102083" lon="9.894715"><ele>675.0</ele><time>2026-04-19T10:43:50.056Z</time></trkpt><trkpt lat="44.7101067" lon="9.894755"><ele>677.4</ele><time>2026-04-19T10:43:51.055Z</time></trkpt><trkpt lat="44.710005" lon="9.8947867"><ele>679.8</ele><time>2026-04-19T10:43:52.053Z</time></trkpt><trkpt lat="44.7099017" lon="9.89484"><ele>682.2</ele><time>2026-04-19T10:43:53.057Z</time></trkpt><trkpt lat="44.7098083" lon="9.8949183"><ele>684.6</ele><time>2026-04-19T10:43:54.056Z</time></trkpt><trkpt lat="44.7097217" lon="9.8950183"><ele>687.0</ele><time>2026-04-19T10:43:55.056Z</time></trkpt><trkpt lat="44.709645" lon="9.8951167"><ele>687.0</ele><time>2026-04-19T10:43:56.058Z</time></trkpt><trkpt lat="44.7095717" lon="9.895215"><ele>687.0</ele><time>2026-04-19T10:43:57.055Z</time></trkpt><trkpt lat="44.7095" lon="9.8952967"><ele>687.0</ele><time>2026-04-19T10:43:58.055Z</time></trkpt><trkpt lat="44.709435" lon="9.8953583"><ele>687.0</ele><time>2026-04-19T10:43:59.057Z</time></trkpt><trkpt lat="44.7093633" lon="9.895395"><ele>687.0</ele><time>2026-04-19T10:44:00.055Z</time></trkpt><trkpt lat="44.7092917" lon="9.8954167"><ele>687.0</ele><time>2026-04-19T10:44:01.056Z</time></trkpt><trkpt lat="44.7092017" lon="9.8953867"><ele>681.4000000000001</ele><time>2026-04-19T10:44:02.056Z</time></trkpt><trkpt lat="44.7091117" lon="9.8953383"><ele>675.8000000000001</ele><time>2026-04-19T10:44:03.055Z</time></trkpt><trkpt lat="44.709025" lon="9.895265"><ele>670.2</ele><time>2026-04-19T10:44:04.054Z</time></trkpt><trkpt lat="44.7089367" lon="9.8952133"><ele>664.6</ele><time>2026-04-19T10:44:05.055Z</time></trkpt><trkpt lat="44.708845" lon="9.8951833"><ele>659.0</ele><time>2026-04-19T10:44:06.056Z</time></trkpt><trkpt lat="44.708745" lon="9.8951733"><ele>659.0</ele><time>2026-04-19T10:44:07.054Z</time></trkpt><trkpt lat="44.70864" lon="9.8951717"><ele>659.0</ele><time>2026-04-19T10:44:08.056Z</time></trkpt><trkpt lat="44.7085317" lon="9.895175"><ele>659.0</ele><time>2026-04-19T10:44:09.056Z</time></trkpt><trkpt lat="44.7084333" lon="9.8951817"><ele>659.0</ele><time>2026-04-19T10:44:10.055Z</time></trkpt><trkpt lat="44.708345" lon="9.8952033"><ele>659.0</ele><time>2026-04-19T10:44:11.055Z</time></trkpt><trkpt lat="44.70825" lon="9.8952417"><ele>658.1666666666666</ele><time>2026-04-19T10:44:12.056Z</time></trkpt><trkpt lat="44.7081583" lon="9.89529"><ele>657.3333333333333</ele><time>2026-04-19T10:44:13.055Z</time></trkpt><trkpt lat="44.70807" lon="9.8953333"><ele>656.5</ele><time>2026-04-19T10:44:14.054Z</time></trkpt><trkpt lat="44.7079883" lon="9.8953633"><ele>655.6666666666666</ele><time>2026-04-19T10:44:15.054Z</time></trkpt><trkpt lat="44.7079117" lon="9.8953733"><ele>654.8333333333334</ele><time>2026-04-19T10:44:16.055Z</time></trkpt><trkpt lat="44.7078283" lon="9.8953717"><ele>654.0</ele><time>2026-04-19T10:44:17.056Z</time></trkpt><trkpt lat="44.7077367" lon="9.8953433"><ele>652.0</ele><time>2026-04-19T10:44:18.056Z</time></trkpt><trkpt lat="44.7076417" lon="9.8953117"><ele>650.0</ele><time>2026-04-19T10:44:19.056Z</time></trkpt><trkpt lat="44.7075417" lon="9.8952817"><ele>648.0</ele><time>2026-04-19T10:44:20.056Z</time></trkpt><trkpt lat="44.707435" lon="9.8952667"><ele>646.0</ele><time>2026-04-19T10:44:21.056Z</time></trkpt><trkpt lat="44.7073283" lon="9.8952583"><ele>644.0</ele><time>2026-04-19T10:44:22.055Z</time></trkpt><trkpt lat="44.70722" lon="9.8952533"><ele>644.0</ele><time>2026-04-19T10:44:23.055Z</time></trkpt><trkpt lat="44.707105" lon="9.8952483"><ele>644.0</ele><time>2026-04-19T10:44:24.057Z</time></trkpt><trkpt lat="44.706985" lon="9.8952467"><ele>644.0</ele><time>2026-04-19T10:44:25.056Z</time></trkpt><trkpt lat="44.7068683" lon="9.89524"><ele>644.0</ele><time>2026-04-19T10:44:26.056Z</time></trkpt><trkpt lat="44.7067367" lon="9.8952333"><ele>643.4000000000001</ele><time>2026-04-19T10:44:27.055Z</time></trkpt><trkpt lat="44.70663" lon="9.8952267"><ele>642.8</ele><time>2026-04-19T10:44:28.055Z</time></trkpt><trkpt lat="44.7065267" lon="9.8952183"><ele>642.2</ele><time>2026-04-19T10:44:29.056Z</time></trkpt><trkpt lat="44.7064233" lon="9.8952033"><ele>641.5999999999999</ele><time>2026-04-19T10:44:30.055Z</time></trkpt><trkpt lat="44.706325" lon="9.8951717"><ele>641.0</ele><time>2026-04-19T10:44:31.056Z</time></trkpt><trkpt lat="44.7062267" lon="9.8951317"><ele>634.8</ele><time>2026-04-19T10:44:32.056Z</time></trkpt><trkpt lat="44.706125" lon="9.8950867"><ele>628.5999999999999</ele><time>2026-04-19T10:44:33.055Z</time></trkpt><trkpt lat="44.7060233" lon="9.8950433"><ele>622.4</ele><time>2026-04-19T10:44:34.053Z</time></trkpt><trkpt lat="44.7059233" lon="9.895"><ele>616.2</ele><time>2026-04-19T10:44:35.055Z</time></trkpt><trkpt lat="44.7058183" lon="9.89495"><ele>610.0</ele><time>2026-04-19T10:44:36.054Z</time></trkpt><trkpt lat="44.705715" lon="9.8948883"><ele>610.0</ele><time>2026-04-19T10:44:37.058Z</time></trkpt><trkpt lat="44.7056167" lon="9.8948183"><ele>610.0</ele><time>2026-04-19T10:44:38.056Z</time></trkpt><trkpt lat="44.7055283" lon="9.8947517"><ele>610.0</ele><time>2026-04-19T10:44:39.055Z</time></trkpt><trkpt lat="44.705445" lon="9.8946933"><ele>610.0</ele><time>2026-04-19T10:44:40.056Z</time></trkpt><trkpt lat="44.7053683" lon="9.89464"><ele>610.0</ele><time>2026-04-19T10:44:41.054Z</time></trkpt><trkpt lat="44.7052967" lon="9.8945833"><ele>610.0</ele><time>2026-04-19T10:44:42.057Z</time></trkpt><trkpt lat="44.705225" lon="9.8944817"><ele>610.0</ele><time>2026-04-19T10:44:44.056Z</time></trkpt><trkpt lat="44.7052517" lon="9.89433"><ele>610.0</ele><time>2026-04-19T10:44:46.054Z</time></trkpt><trkpt lat="44.7053033" lon="9.8942567"><ele>610.0</ele><time>2026-04-19T10:44:47.056Z</time></trkpt><trkpt lat="44.7053667" lon="9.8941917"><ele>610.0</ele><time>2026-04-19T10:44:48.056Z</time></trkpt><trkpt lat="44.7054517" lon="9.8941467"><ele>605.2</ele><time>2026-04-19T10:44:49.056Z</time></trkpt><trkpt lat="44.70555" lon="9.8941233"><ele>600.4</ele><time>2026-04-19T10:44:50.055Z</time></trkpt><trkpt lat="44.7056283" lon="9.8940967"><ele>595.6</ele><time>2026-04-19T10:44:51.056Z</time></trkpt><trkpt lat="44.7057267" lon="9.8940217"><ele>590.8</ele><time>2026-04-19T10:44:53.056Z</time></trkpt><trkpt lat="44.705745" lon="9.893885"><ele>586.0</ele><time>2026-04-19T10:44:55.054Z</time></trkpt><trkpt lat="44.7057017" lon="9.8937917"><ele>586.0</ele><time>2026-04-19T10:44:57.054Z</time></trkpt><trkpt lat="44.7055817" lon="9.8938183"><ele>586.0</ele><time>2026-04-19T10:44:59.055Z</time></trkpt><trkpt lat="44.7055067" lon="9.8938433"><ele>586.0</ele><time>2026-04-19T10:45:00.055Z</time></trkpt><trkpt lat="44.70544" lon="9.893845"><ele>586.0</ele><time>2026-04-19T10:45:01.056Z</time></trkpt><trkpt lat="44.7053383" lon="9.8938467"><ele>586.0</ele><time>2026-04-19T10:45:02.057Z</time></trkpt><trkpt lat="44.70519" lon="9.8938283"><ele>586.5</ele><time>2026-04-19T10:45:03.055Z</time></trkpt><trkpt lat="44.705055" lon="9.8937767"><ele>587.0</ele><time>2026-04-19T10:45:04.056Z</time></trkpt><trkpt lat="44.704925" lon="9.8937267"><ele>587.5</ele><time>2026-04-19T10:45:05.056Z</time></trkpt><trkpt lat="44.7048167" lon="9.893695"><ele>588.0</ele><time>2026-04-19T10:45:06.056Z</time></trkpt><trkpt lat="44.7047017" lon="9.8936967"><ele>588.0</ele><time>2026-04-19T10:45:07.056Z</time></trkpt><trkpt lat="44.7045917" lon="9.8937233"><ele>588.0</ele><time>2026-04-19T10:45:08.056Z</time></trkpt><trkpt lat="44.704495" lon="9.8937683"><ele>588.0</ele><time>2026-04-19T10:45:09.056Z</time></trkpt><trkpt lat="44.7044067" lon="9.8938283"><ele>588.0</ele><time>2026-04-19T10:45:10.055Z</time></trkpt><trkpt lat="44.7043033" lon="9.8938967"><ele>588.0</ele><time>2026-04-19T10:45:11.056Z</time></trkpt><trkpt lat="44.70421" lon="9.8939317"><ele>586.6</ele><time>2026-04-19T10:45:12.054Z</time></trkpt><trkpt lat="44.7041167" lon="9.8939567"><ele>585.1999999999999</ele><time>2026-04-19T10:45:13.055Z</time></trkpt><trkpt lat="44.7040233" lon="9.893975"><ele>583.8</ele><time>2026-04-19T10:45:14.056Z</time></trkpt><trkpt lat="44.7039383" lon="9.8939833"><ele>582.4</ele><time>2026-04-19T10:45:15.056Z</time></trkpt><trkpt lat="44.7038467" lon="9.8939917"><ele>581.0</ele><time>2026-04-19T10:45:16.056Z</time></trkpt><trkpt lat="44.7037617" lon="9.894"><ele>581.0</ele><time>2026-04-19T10:45:17.056Z</time></trkpt><trkpt lat="44.7036867" lon="9.894"><ele>581.0</ele><time>2026-04-19T10:45:18.056Z</time></trkpt><trkpt lat="44.7035983" lon="9.8939867"><ele>581.0</ele><time>2026-04-19T10:45:20.057Z</time></trkpt><trkpt lat="44.7035867" lon="9.89389"><ele>581.0</ele><time>2026-04-19T10:45:23.055Z</time></trkpt><trkpt lat="44.7036717" lon="9.89373"><ele>581.0</ele><time>2026-04-19T10:45:25.055Z</time></trkpt><trkpt lat="44.7037767" lon="9.8936167"><ele>581.0</ele><time>2026-04-19T10:45:26.054Z</time></trkpt><trkpt lat="44.70391" lon="9.8935"><ele>581.0</ele><time>2026-04-19T10:45:27.054Z</time></trkpt><trkpt lat="44.7040133" lon="9.8934067"><ele>581.0</ele><time>2026-04-19T10:45:28.053Z</time></trkpt><trkpt lat="44.704085" lon="9.893325"><ele>581.0</ele><time>2026-04-19T10:45:29.054Z</time></trkpt><trkpt lat="44.7041433" lon="9.89323"><ele>577.7142857142857</ele><time>2026-04-19T10:45:30.054Z</time></trkpt><trkpt lat="44.70417" lon="9.8931483"><ele>574.4285714285714</ele><time>2026-04-19T10:45:31.057Z</time></trkpt><trkpt lat="44.7041833" lon="9.8930583"><ele>571.1428571428571</ele><time>2026-04-19T10:45:32.057Z</time></trkpt><trkpt lat="44.7041533" lon="9.8929783"><ele>567.8571428571429</ele><time>2026-04-19T10:45:33.058Z</time></trkpt><trkpt lat="44.7041017" lon="9.8929117"><ele>564.5714285714286</ele><time>2026-04-19T10:45:34.056Z</time></trkpt><trkpt lat="44.70403" lon="9.8928517"><ele>561.2857142857142</ele><time>2026-04-19T10:45:35.056Z</time></trkpt><trkpt lat="44.703935" lon="9.8928017"><ele>558.0</ele><time>2026-04-19T10:45:36.057Z</time></trkpt><trkpt lat="44.7037983" lon="9.8927683"><ele>558.0</ele><time>2026-04-19T10:45:37.058Z</time></trkpt><trkpt lat="44.703675" lon="9.8927333"><ele>558.0</ele><time>2026-04-19T10:45:38.056Z</time></trkpt><trkpt lat="44.70357" lon="9.8926833"><ele>558.0</ele><time>2026-04-19T10:45:39.055Z</time></trkpt><trkpt lat="44.70346" lon="9.8926167"><ele>558.0</ele><time>2026-04-19T10:45:40.056Z</time></trkpt><trkpt lat="44.703365" lon="9.8925333"><ele>552.8</ele><time>2026-04-19T10:45:41.056Z</time></trkpt><trkpt lat="44.7032767" lon="9.8924433"><ele>547.5999999999999</ele><time>2026-04-19T10:45:42.057Z</time></trkpt><trkpt lat="44.7032017" lon="9.892345"><ele>542.4000000000001</ele><time>2026-04-19T10:45:43.056Z</time></trkpt><trkpt lat="44.7031383" lon="9.89224"><ele>537.2</ele><time>2026-04-19T10:45:44.056Z</time></trkpt><trkpt lat="44.703095" lon="9.8921317"><ele>532.0</ele><time>2026-04-19T10:45:45.054Z</time></trkpt><trkpt lat="44.7030567" lon="9.8920283"><ele>532.0</ele><time>2026-04-19T10:45:46.054Z</time></trkpt><trkpt lat="44.7030217" lon="9.8919333"><ele>532.0</ele><time>2026-04-19T10:45:47.055Z</time></trkpt><trkpt lat="44.70297" lon="9.8918667"><ele>532.0</ele><time>2026-04-19T10:45:48.056Z</time></trkpt><trkpt lat="44.7029017" lon="9.89182"><ele>532.0</ele><time>2026-04-19T10:45:49.056Z</time></trkpt><trkpt lat="44.7028383" lon="9.8917733"><ele>532.0</ele><time>2026-04-19T10:45:50.056Z</time></trkpt><trkpt lat="44.7027767" lon="9.8917067"><ele>532.0</ele><time>2026-04-19T10:45:51.055Z</time></trkpt><trkpt lat="44.7027233" lon="9.89161"><ele>530.2</ele><time>2026-04-19T10:45:52.056Z</time></trkpt><trkpt lat="44.7026817" lon="9.89149"><ele>528.4000000000001</ele><time>2026-04-19T10:45:53.056Z</time></trkpt><trkpt lat="44.7026483" lon="9.89136"><ele>526.5999999999999</ele><time>2026-04-19T10:45:54.056Z</time></trkpt><trkpt lat="44.70261" lon="9.8912233"><ele>524.8</ele><time>2026-04-19T10:45:55.055Z</time></trkpt><trkpt lat="44.7025733" lon="9.8910833"><ele>523.0</ele><time>2026-04-19T10:45:56.054Z</time></trkpt><trkpt lat="44.7025383" lon="9.8909467"><ele>520.6</ele><time>2026-04-19T10:45:57.055Z</time></trkpt><trkpt lat="44.7025067" lon="9.8908083"><ele>518.1999999999999</ele><time>2026-04-19T10:45:58.055Z</time></trkpt><trkpt lat="44.7024717" lon="9.89068"><ele>515.8</ele><time>2026-04-19T10:45:59.056Z</time></trkpt><trkpt lat="44.7024367" lon="9.8905617"><ele>513.4</ele><time>2026-04-19T10:46:00.054Z</time></trkpt><trkpt lat="44.702405" lon="9.8904483"><ele>511.0</ele><time>2026-04-19T10:46:01.053Z</time></trkpt><trkpt lat="44.702375" lon="9.8903283"><ele>511.00000000000006</ele><time>2026-04-19T10:46:02.057Z</time></trkpt><trkpt lat="44.7023433" lon="9.8902133"><ele>511.0</ele><time>2026-04-19T10:46:03.055Z</time></trkpt><trkpt lat="44.702315" lon="9.890105"><ele>511.0</ele><time>2026-04-19T10:46:04.055Z</time></trkpt><trkpt lat="44.7022833" lon="9.89001"><ele>511.0</ele><time>2026-04-19T10:46:05.054Z</time></trkpt><trkpt lat="44.70222" lon="9.8898817"><ele>511.00000000000006</ele><time>2026-04-19T10:46:07.056Z</time></trkpt><trkpt lat="44.7021417" lon="9.88986"><ele>511.0</ele><time>2026-04-19T10:46:09.056Z</time></trkpt><trkpt lat="44.7020483" lon="9.8899383"><ele>509.7142857142857</ele><time>2026-04-19T10:46:11.056Z</time></trkpt><trkpt lat="44.7019917" lon="9.8899933"><ele>508.42857142857144</ele><time>2026-04-19T10:46:12.057Z</time></trkpt><trkpt lat="44.70194" lon="9.8900533"><ele>507.1428571428571</ele><time>2026-04-19T10:46:13.056Z</time></trkpt><trkpt lat="44.7018883" lon="9.890105"><ele>505.85714285714283</ele><time>2026-04-19T10:46:14.054Z</time></trkpt><trkpt lat="44.7018083" lon="9.8901233"><ele>504.57142857142856</ele><time>2026-04-19T10:46:17.056Z</time></trkpt><trkpt lat="44.701775" lon="9.8899917"><ele>503.2857142857142</ele><time>2026-04-19T10:46:19.055Z</time></trkpt><trkpt lat="44.701765" lon="9.8899033"><ele>501.99999999999994</ele><time>2026-04-19T10:46:20.055Z</time></trkpt><trkpt lat="44.701745" lon="9.8897267"><ele>500.6666666666667</ele><time>2026-04-19T10:46:22.056Z</time></trkpt><trkpt lat="44.7017483" lon="9.8896333"><ele>499.33333333333337</ele><time>2026-04-19T10:46:23.056Z</time></trkpt><trkpt lat="44.7017533" lon="9.889545"><ele>498.0</ele><time>2026-04-19T10:46:24.056Z</time></trkpt><trkpt lat="44.7017583" lon="9.889455"><ele>496.66666666666663</ele><time>2026-04-19T10:46:25.057Z</time></trkpt><trkpt lat="44.7017417" lon="9.889275"><ele>495.3333333333333</ele><time>2026-04-19T10:46:27.055Z</time></trkpt><trkpt lat="44.7017217" lon="9.889185"><ele>494.0</ele><time>2026-04-19T10:46:28.055Z</time></trkpt><trkpt lat="44.7017017" lon="9.8891"><ele>491.6</ele><time>2026-04-19T10:46:29.055Z</time></trkpt><trkpt lat="44.7016767" lon="9.8890133"><ele>489.2</ele><time>2026-04-19T10:46:30.056Z</time></trkpt><trkpt lat="44.70165" lon="9.8889283"><ele>486.80000000000007</ele><time>2026-04-19T10:46:31.057Z</time></trkpt><trkpt lat="44.70159" lon="9.8887833"><ele>484.40000000000003</ele><time>2026-04-19T10:46:33.056Z</time></trkpt><trkpt lat="44.7015317" lon="9.888645"><ele>482.0</ele><time>2026-04-19T10:46:35.057Z</time></trkpt><trkpt lat="44.7014783" lon="9.8885033"><ele>478.25</ele><time>2026-04-19T10:46:37.054Z</time></trkpt><trkpt lat="44.70142" lon="9.888355"><ele>474.5</ele><time>2026-04-19T10:46:39.056Z</time></trkpt><trkpt lat="44.7013533" lon="9.8882133"><ele>470.75</ele><time>2026-04-19T10:46:41.054Z</time></trkpt><trkpt lat="44.701285" lon="9.8880767"><ele>467.0</ele><time>2026-04-19T10:46:43.054Z</time></trkpt><trkpt lat="44.7012117" lon="9.8879383"><ele>466.99999999999994</ele><time>2026-04-19T10:46:45.055Z</time></trkpt><trkpt lat="44.7011667" lon="9.88786"><ele>467.0</ele><time>2026-04-19T10:46:46.055Z</time></trkpt><trkpt lat="44.7011183" lon="9.8877733"><ele>467.0</ele><time>2026-04-19T10:46:47.056Z</time></trkpt><trkpt lat="44.7010667" lon="9.8876917"><ele>467.0</ele><time>2026-04-19T10:46:48.055Z</time></trkpt><trkpt lat="44.7010167" lon="9.8876183"><ele>466.99999999999994</ele><time>2026-04-19T10:46:49.056Z</time></trkpt><trkpt lat="44.7009317" lon="9.8874917"><ele>467.0</ele><time>2026-04-19T10:46:51.056Z</time></trkpt><trkpt lat="44.700865" lon="9.8873683"><ele>462.75</ele><time>2026-04-19T10:46:53.056Z</time></trkpt><trkpt lat="44.7008383" lon="9.88722"><ele>458.5</ele><time>2026-04-19T10:46:55.055Z</time></trkpt><trkpt lat="44.700845" lon="9.8870417"><ele>454.25</ele><time>2026-04-19T10:46:57.056Z</time></trkpt><trkpt lat="44.70085" lon="9.886865"><ele>450.0</ele><time>2026-04-19T10:46:59.057Z</time></trkpt><trkpt lat="44.700845" lon="9.88669"><ele>448.1666666666667</ele><time>2026-04-19T10:47:01.055Z</time></trkpt><trkpt lat="44.700825" lon="9.8865967"><ele>446.33333333333337</ele><time>2026-04-19T10:47:02.055Z</time></trkpt><trkpt lat="44.7007967" lon="9.8864917"><ele>444.5</ele><time>2026-04-19T10:47:03.054Z</time></trkpt><trkpt lat="44.7007683" lon="9.8863817"><ele>442.6666666666667</ele><time>2026-04-19T10:47:04.054Z</time></trkpt><trkpt lat="44.70074" lon="9.8862683"><ele>440.83333333333337</ele><time>2026-04-19T10:47:05.055Z</time></trkpt><trkpt lat="44.7007167" lon="9.8861583"><ele>439.0</ele><time>2026-04-19T10:47:06.054Z</time></trkpt><trkpt lat="44.7006867" lon="9.8860633"><ele>439.0</ele><time>2026-04-19T10:47:07.055Z</time></trkpt><trkpt lat="44.7006583" lon="9.8859783"><ele>439.0</ele><time>2026-04-19T10:47:08.056Z</time></trkpt><trkpt lat="44.7006283" lon="9.8858917"><ele>439.0</ele><time>2026-04-19T10:47:09.055Z</time></trkpt><trkpt lat="44.700595" lon="9.88581"><ele>439.0</ele><time>2026-04-19T10:47:10.055Z</time></trkpt><trkpt lat="44.7005567" lon="9.8857283"><ele>439.0</ele><time>2026-04-19T10:47:11.057Z</time></trkpt><trkpt lat="44.70051" lon="9.88565"><ele>439.0</ele><time>2026-04-19T10:47:12.057Z</time></trkpt><trkpt lat="44.700465" lon="9.8855833"><ele>439.0</ele><time>2026-04-19T10:47:13.057Z</time></trkpt><trkpt lat="44.7004217" lon="9.8855117"><ele>437.50000000000006</ele><time>2026-04-19T10:47:14.056Z</time></trkpt><trkpt lat="44.7003867" lon="9.8854317"><ele>436.0</ele><time>2026-04-19T10:47:15.056Z</time></trkpt><trkpt lat="44.7003217" lon="9.8852933"><ele>434.5</ele><time>2026-04-19T10:47:17.056Z</time></trkpt><trkpt lat="44.7002533" lon="9.8852117"><ele>433.0</ele><time>2026-04-19T10:47:19.056Z</time></trkpt><trkpt lat="44.7001917" lon="9.8851767"><ele>431.50000000000006</ele><time>2026-04-19T10:47:21.055Z</time></trkpt><trkpt lat="44.7001483" lon="9.8851117"><ele>430.0</ele><time>2026-04-19T10:47:23.054Z</time></trkpt><trkpt lat="44.700115" lon="9.8849817"><ele>426.8</ele><time>2026-04-19T10:47:25.056Z</time></trkpt><trkpt lat="44.7000967" lon="9.8848317"><ele>423.6</ele><time>2026-04-19T10:47:27.055Z</time></trkpt><trkpt lat="44.70012" lon="9.8846833"><ele>420.4</ele><time>2026-04-19T10:47:29.056Z</time></trkpt><trkpt lat="44.7001533" lon="9.8845767"><ele>417.2</ele><time>2026-04-19T10:47:31.055Z</time></trkpt><trkpt lat="44.7001533" lon="9.8844633"><ele>414.0</ele><time>2026-04-19T10:47:33.054Z</time></trkpt><trkpt lat="44.7001133" lon="9.884325"><ele>412.00000000000006</ele><time>2026-04-19T10:47:35.056Z</time></trkpt><trkpt lat="44.7000817" lon="9.88423"><ele>410.0</ele><time>2026-04-19T10:47:36.056Z</time></trkpt><trkpt lat="44.7000567" lon="9.8841417"><ele>408.0</ele><time>2026-04-19T10:47:37.055Z</time></trkpt><trkpt lat="44.7000317" lon="9.88406"><ele>406.0</ele><time>2026-04-19T10:47:38.055Z</time></trkpt><trkpt lat="44.7000083" lon="9.88396"><ele>404.0</ele><time>2026-04-19T10:47:39.056Z</time></trkpt><trkpt lat="44.69999" lon="9.8838433"><ele>402.00000000000006</ele><time>2026-04-19T10:47:40.057Z</time></trkpt><trkpt lat="44.6999783" lon="9.8837417"><ele>400.0</ele><time>2026-04-19T10:47:41.056Z</time></trkpt><trkpt lat="44.6999733" lon="9.8836283"><ele>400.00000000000006</ele><time>2026-04-19T10:47:42.057Z</time></trkpt><trkpt lat="44.6999767" lon="9.8835067"><ele>400.0</ele><time>2026-04-19T10:47:43.056Z</time></trkpt><trkpt lat="44.69998" lon="9.8834"><ele>400.0</ele><time>2026-04-19T10:47:44.054Z</time></trkpt><trkpt lat="44.6999817" lon="9.8832867"><ele>400.0</ele><time>2026-04-19T10:47:45.056Z</time></trkpt><trkpt lat="44.6999783" lon="9.883195"><ele>400.00000000000006</ele><time>2026-04-19T10:47:46.055Z</time></trkpt><trkpt lat="44.6999383" lon="9.8830533"><ele>400.0</ele><time>2026-04-19T10:47:48.056Z</time></trkpt><trkpt lat="44.699875" lon="9.8829133"><ele>397.8571428571429</ele><time>2026-04-19T10:47:50.056Z</time></trkpt><trkpt lat="44.699835" lon="9.8828417"><ele>395.7142857142857</ele><time>2026-04-19T10:47:51.057Z</time></trkpt><trkpt lat="44.6998" lon="9.8827583"><ele>393.57142857142856</ele><time>2026-04-19T10:47:52.057Z</time></trkpt><trkpt lat="44.69977" lon="9.88265"><ele>391.42857142857144</ele><time>2026-04-19T10:47:53.054Z</time></trkpt><trkpt lat="44.699735" lon="9.88254"><ele>389.2857142857143</ele><time>2026-04-19T10:47:54.056Z</time></trkpt><trkpt lat="44.699705" lon="9.8824383"><ele>387.14285714285717</ele><time>2026-04-19T10:47:55.055Z</time></trkpt><trkpt lat="44.6996817" lon="9.8823467"><ele>385.0</ele><time>2026-04-19T10:47:56.056Z</time></trkpt><trkpt lat="44.6996683" lon="9.8822533"><ele>383.0</ele><time>2026-04-19T10:47:57.057Z</time></trkpt><trkpt lat="44.69966" lon="9.8821583"><ele>381.0</ele><time>2026-04-19T10:47:58.056Z</time></trkpt><trkpt lat="44.6996583" lon="9.8820683"><ele>379.0</ele><time>2026-04-19T10:47:59.056Z</time></trkpt><trkpt lat="44.69966" lon="9.8819783"><ele>377.0</ele><time>2026-04-19T10:48:00.056Z</time></trkpt><trkpt lat="44.6996667" lon="9.8818867"><ele>375.0</ele><time>2026-04-19T10:48:01.056Z</time></trkpt><trkpt lat="44.6996733" lon="9.88179"><ele>373.0</ele><time>2026-04-19T10:48:02.057Z</time></trkpt><trkpt lat="44.699675" lon="9.881695"><ele>371.0</ele><time>2026-04-19T10:48:03.055Z</time></trkpt><trkpt lat="44.6996767" lon="9.8815317"><ele>368.6</ele><time>2026-04-19T10:48:05.055Z</time></trkpt><trkpt lat="44.699685" lon="9.88142"><ele>366.20000000000005</ele><time>2026-04-19T10:48:07.055Z</time></trkpt><trkpt lat="44.6997083" lon="9.8813233"><ele>363.79999999999995</ele><time>2026-04-19T10:48:09.056Z</time></trkpt><trkpt lat="44.6997233" lon="9.8812083"><ele>361.4</ele><time>2026-04-19T10:48:11.054Z</time></trkpt><trkpt lat="44.69975" lon="9.8810633"><ele>359.0</ele><time>2026-04-19T10:48:13.056Z</time></trkpt><trkpt lat="44.699745" lon="9.8809083"><ele>358.0</ele><time>2026-04-19T10:48:15.055Z</time></trkpt><trkpt lat="44.6997233" lon="9.8808233"><ele>357.0</ele><time>2026-04-19T10:48:16.055Z</time></trkpt><trkpt lat="44.6996933" lon="9.880725"><ele>356.0</ele><time>2026-04-19T10:48:17.057Z</time></trkpt><trkpt lat="44.6996617" lon="9.88063"><ele>355.0</ele><time>2026-04-19T10:48:18.055Z</time></trkpt><trkpt lat="44.699635" lon="9.880535"><ele>354.0</ele><time>2026-04-19T10:48:19.056Z</time></trkpt><trkpt lat="44.69962" lon="9.8804383"><ele>353.0</ele><time>2026-04-19T10:48:20.056Z</time></trkpt><trkpt lat="44.6996117" lon="9.8803367"><ele>352.0</ele><time>2026-04-19T10:48:21.054Z</time></trkpt><trkpt lat="44.69961" lon="9.8802367"><ele>352.0</ele><time>2026-04-19T10:48:22.053Z</time></trkpt><trkpt lat="44.6996133" lon="9.8801433"><ele>352.0</ele><time>2026-04-19T10:48:23.056Z</time></trkpt><trkpt lat="44.699625" lon="9.88005"><ele>352.0</ele><time>2026-04-19T10:48:24.056Z</time></trkpt><trkpt lat="44.6996517" lon="9.8799533"><ele>352.0</ele><time>2026-04-19T10:48:25.054Z</time></trkpt><trkpt lat="44.699675" lon="9.8798567"><ele>352.0</ele><time>2026-04-19T10:48:26.055Z</time></trkpt><trkpt lat="44.6997067" lon="9.8797783"><ele>352.0</ele><time>2026-04-19T10:48:27.056Z</time></trkpt><trkpt lat="44.6997433" lon="9.8797"><ele>352.0</ele><time>2026-04-19T10:48:28.055Z</time></trkpt><trkpt lat="44.6997883" lon="9.8796133"><ele>349.8333333333333</ele><time>2026-04-19T10:48:29.056Z</time></trkpt><trkpt lat="44.6998317" lon="9.8795317"><ele>347.66666666666663</ele><time>2026-04-19T10:48:30.055Z</time></trkpt><trkpt lat="44.699865" lon="9.8794383"><ele>345.5</ele><time>2026-04-19T10:48:31.054Z</time></trkpt><trkpt lat="44.6998767" lon="9.879335"><ele>343.3333333333333</ele><time>2026-04-19T10:48:32.057Z</time></trkpt><trkpt lat="44.6998717" lon="9.8792217"><ele>341.1666666666667</ele><time>2026-04-19T10:48:33.054Z</time></trkpt><trkpt lat="44.69986" lon="9.8791117"><ele>339.0</ele><time>2026-04-19T10:48:34.055Z</time></trkpt><trkpt lat="44.6998433" lon="9.878995"><ele>337.0</ele><time>2026-04-19T10:48:35.055Z</time></trkpt><trkpt lat="44.6998233" lon="9.878885"><ele>335.0</ele><time>2026-04-19T10:48:36.056Z</time></trkpt><trkpt lat="44.699815" lon="9.87877"><ele>333.0</ele><time>2026-04-19T10:48:37.054Z</time></trkpt><trkpt lat="44.69981" lon="9.8786483"><ele>331.0</ele><time>2026-04-19T10:48:38.056Z</time></trkpt><trkpt lat="44.6998033" lon="9.87854"><ele>329.0</ele><time>2026-04-19T10:48:39.055Z</time></trkpt><trkpt lat="44.6997983" lon="9.878425"><ele>327.0</ele><time>2026-04-19T10:48:40.055Z</time></trkpt><trkpt lat="44.699795" lon="9.878305"><ele>325.1666666666667</ele><time>2026-04-19T10:48:41.054Z</time></trkpt><trkpt lat="44.6997683" lon="9.8781967"><ele>323.3333333333333</ele><time>2026-04-19T10:48:42.054Z</time></trkpt><trkpt lat="44.6997283" lon="9.8780933"><ele>321.5</ele><time>2026-04-19T10:48:43.054Z</time></trkpt><trkpt lat="44.6996833" lon="9.87798"><ele>319.66666666666663</ele><time>2026-04-19T10:48:44.056Z</time></trkpt><trkpt lat="44.6996383" lon="9.8778733"><ele>317.8333333333333</ele><time>2026-04-19T10:48:45.055Z</time></trkpt><trkpt lat="44.6996033" lon="9.8777667"><ele>316.0</ele><time>2026-04-19T10:48:46.054Z</time></trkpt><trkpt lat="44.6995767" lon="9.877665"><ele>314.0</ele><time>2026-04-19T10:48:47.056Z</time></trkpt><trkpt lat="44.6995617" lon="9.87757"><ele>312.0</ele><time>2026-04-19T10:48:48.055Z</time></trkpt><trkpt lat="44.699575" lon="9.8774"><ele>310.0</ele><time>2026-04-19T10:48:50.056Z</time></trkpt><trkpt lat="44.6996033" lon="9.877265"><ele>308.0</ele><time>2026-04-19T10:48:52.056Z</time></trkpt><trkpt lat="44.6996217" lon="9.8771783"><ele>306.0</ele><time>2026-04-19T10:48:54.056Z</time></trkpt><trkpt lat="44.6996333" lon="9.8770567"><ele>304.0</ele><time>2026-04-19T10:48:57.053Z</time></trkpt><trkpt lat="44.6997" lon="9.876925"><ele>304.0</ele><time>2026-04-19T10:48:59.054Z</time></trkpt><trkpt lat="44.699755" lon="9.8768417"><ele>304.0</ele><time>2026-04-19T10:49:00.053Z</time></trkpt><trkpt lat="44.6998317" lon="9.8767233"><ele>304.0</ele><time>2026-04-19T10:49:01.054Z</time></trkpt><trkpt lat="44.6999183" lon="9.8765883"><ele>304.0</ele><time>2026-04-19T10:49:02.054Z</time></trkpt><trkpt lat="44.70001" lon="9.876445"><ele>303.5</ele><time>2026-04-19T10:49:03.053Z</time></trkpt><trkpt lat="44.7001067" lon="9.8762983"><ele>303.0</ele><time>2026-04-19T10:49:04.054Z</time></trkpt><trkpt lat="44.7002017" lon="9.876145"><ele>302.5</ele><time>2026-04-19T10:49:05.054Z</time></trkpt><trkpt lat="44.7002983" lon="9.8759883"><ele>302.0</ele><time>2026-04-19T10:49:06.054Z</time></trkpt><trkpt lat="44.700385" lon="9.87584"><ele>302.0</ele><time>2026-04-19T10:49:07.056Z</time></trkpt><trkpt lat="44.70047" lon="9.8757"><ele>302.0</ele><time>2026-04-19T10:49:08.055Z</time></trkpt><trkpt lat="44.7005467" lon="9.87557"><ele>302.0</ele><time>2026-04-19T10:49:09.055Z</time></trkpt><trkpt lat="44.70062" lon="9.875445"><ele>302.0</ele><time>2026-04-19T10:49:10.055Z</time></trkpt><trkpt lat="44.7006883" lon="9.8753317"><ele>302.0</ele><time>2026-04-19T10:49:11.054Z</time></trkpt><trkpt lat="44.7007533" lon="9.8752167"><ele>302.0</ele><time>2026-04-19T10:49:12.053Z</time></trkpt><trkpt lat="44.7008133" lon="9.87511"><ele>302.0</ele><time>2026-04-19T10:49:13.055Z</time></trkpt><trkpt lat="44.7008617" lon="9.8750167"><ele>302.0</ele><time>2026-04-19T10:49:14.056Z</time></trkpt><trkpt lat="44.7009017" lon="9.874945"><ele>302.0</ele><time>2026-04-19T10:49:15.056Z</time></trkpt><trkpt lat="44.7009933" lon="9.8748967"><ele>302.0</ele><time>2026-04-19T10:49:17.055Z</time></trkpt><trkpt lat="44.70111" lon="9.8749733"><ele>303.0</ele><time>2026-04-19T10:49:19.056Z</time></trkpt><trkpt lat="44.7011933" lon="9.8750167"><ele>304.0</ele><time>2026-04-19T10:49:20.056Z</time></trkpt><trkpt lat="44.701285" lon="9.875045"><ele>305.0</ele><time>2026-04-19T10:49:21.055Z</time></trkpt><trkpt lat="44.7013733" lon="9.8750567"><ele>306.0</ele><time>2026-04-19T10:49:22.057Z</time></trkpt><trkpt lat="44.7014683" lon="9.8750567"><ele>307.0</ele><time>2026-04-19T10:49:23.055Z</time></trkpt><trkpt lat="44.70155" lon="9.8750417"><ele>308.0</ele><time>2026-04-19T10:49:24.055Z</time></trkpt><trkpt lat="44.701635" lon="9.8750433"><ele>308.0</ele><time>2026-04-19T10:49:25.054Z</time></trkpt><trkpt lat="44.70171" lon="9.875065"><ele>308.0</ele><time>2026-04-19T10:49:26.058Z</time></trkpt><trkpt lat="44.7017933" lon="9.8751"><ele>308.0</ele><time>2026-04-19T10:49:27.054Z</time></trkpt><trkpt lat="44.7018683" lon="9.87513"><ele>308.0</ele><time>2026-04-19T10:49:28.055Z</time></trkpt><trkpt lat="44.7019467" lon="9.8751583"><ele>308.0</ele><time>2026-04-19T10:49:29.055Z</time></trkpt><trkpt lat="44.7020217" lon="9.8751483"><ele>308.0</ele><time>2026-04-19T10:49:30.055Z</time></trkpt><trkpt lat="44.7020917" lon="9.87511"><ele>309.1666666666667</ele><time>2026-04-19T10:49:31.055Z</time></trkpt><trkpt lat="44.7021467" lon="9.8750633"><ele>310.33333333333337</ele><time>2026-04-19T10:49:32.055Z</time></trkpt><trkpt lat="44.7022" lon="9.8750133"><ele>311.5</ele><time>2026-04-19T10:49:33.054Z</time></trkpt><trkpt lat="44.70226" lon="9.8749717"><ele>312.6666666666667</ele><time>2026-04-19T10:49:34.056Z</time></trkpt><trkpt lat="44.7023683" lon="9.874915"><ele>313.8333333333333</ele><time>2026-04-19T10:49:36.055Z</time></trkpt><trkpt lat="44.702475" lon="9.874915"><ele>315.0</ele><time>2026-04-19T10:49:38.056Z</time></trkpt><trkpt lat="44.70257" lon="9.8749633"><ele>315.0</ele><time>2026-04-19T10:49:40.053Z</time></trkpt><trkpt lat="44.7026633" lon="9.874965"><ele>315.0</ele><time>2026-04-19T10:49:42.056Z</time></trkpt><trkpt lat="44.702785" lon="9.8749033"><ele>315.0</ele><time>2026-04-19T10:49:44.055Z</time></trkpt><trkpt lat="44.7028617" lon="9.8748633"><ele>315.0</ele><time>2026-04-19T10:49:45.054Z</time></trkpt><trkpt lat="44.7029483" lon="9.8748183"><ele>315.0</ele><time>2026-04-19T10:49:46.055Z</time></trkpt><trkpt lat="44.7030483" lon="9.87479"><ele>317.0</ele><time>2026-04-19T10:49:47.055Z</time></trkpt><trkpt lat="44.70315" lon="9.874775"><ele>319.0</ele><time>2026-04-19T10:49:48.057Z</time></trkpt><trkpt lat="44.7032467" lon="9.874765"><ele>321.0</ele><time>2026-04-19T10:49:49.054Z</time></trkpt><trkpt lat="44.7033417" lon="9.87476"><ele>323.0</ele><time>2026-04-19T10:49:50.055Z</time></trkpt><trkpt lat="44.7034233" lon="9.8747717"><ele>325.0</ele><time>2026-04-19T10:49:51.054Z</time></trkpt><trkpt lat="44.7034983" lon="9.8748067"><ele>325.0</ele><time>2026-04-19T10:49:52.054Z</time></trkpt><trkpt lat="44.7035717" lon="9.8748683"><ele>325.0</ele><time>2026-04-19T10:49:53.054Z</time></trkpt><trkpt lat="44.7036383" lon="9.8749483"><ele>325.0</ele><time>2026-04-19T10:49:54.055Z</time></trkpt><trkpt lat="44.7037017" lon="9.8750267"><ele>325.0</ele><time>2026-04-19T10:49:55.053Z</time></trkpt><trkpt lat="44.7037633" lon="9.8750917"><ele>325.0</ele><time>2026-04-19T10:49:56.054Z</time></trkpt><trkpt lat="44.7038283" lon="9.8751633"><ele>325.0</ele><time>2026-04-19T10:49:57.055Z</time></trkpt><trkpt lat="44.70389" lon="9.8752383"><ele>328.0</ele><time>2026-04-19T10:49:58.056Z</time></trkpt><trkpt lat="44.7039417" lon="9.8753133"><ele>331.0</ele><time>2026-04-19T10:49:59.054Z</time></trkpt><trkpt lat="44.7039883" lon="9.87538"><ele>334.0</ele><time>2026-04-19T10:50:00.055Z</time></trkpt><trkpt lat="44.704075" lon="9.8754883"><ele>337.0</ele><time>2026-04-19T10:50:02.056Z</time></trkpt><trkpt lat="44.704185" lon="9.8755483"><ele>340.0</ele><time>2026-04-19T10:50:04.055Z</time></trkpt><trkpt lat="44.704255" lon="9.87557"><ele>343.0</ele><time>2026-04-19T10:50:05.056Z</time></trkpt><trkpt lat="44.7043183" lon="9.875585"><ele>343.0</ele><time>2026-04-19T10:50:06.057Z</time></trkpt><trkpt lat="44.7043833" lon="9.8755883"><ele>343.0</ele><time>2026-04-19T10:50:07.055Z</time></trkpt><trkpt lat="44.70447" lon="9.8756117"><ele>343.0</ele><time>2026-04-19T10:50:09.055Z</time></trkpt><trkpt lat="44.704535" lon="9.875665"><ele>343.0</ele><time>2026-04-19T10:50:11.056Z</time></trkpt><trkpt lat="44.7045817" lon="9.875755"><ele>343.0</ele><time>2026-04-19T10:50:13.055Z</time></trkpt><trkpt lat="44.7046217" lon="9.8758417"><ele>343.0</ele><time>2026-04-19T10:50:14.057Z</time></trkpt><trkpt lat="44.7046717" lon="9.875935"><ele>347.16666666666663</ele><time>2026-04-19T10:50:15.055Z</time></trkpt><trkpt lat="44.70476" lon="9.8760333"><ele>351.3333333333333</ele><time>2026-04-19T10:50:17.056Z</time></trkpt><trkpt lat="44.70483" lon="9.8760617"><ele>355.5</ele><time>2026-04-19T10:50:18.055Z</time></trkpt><trkpt lat="44.7049167" lon="9.8760767"><ele>359.6666666666667</ele><time>2026-04-19T10:50:19.056Z</time></trkpt><trkpt lat="44.7050033" lon="9.8761133"><ele>363.83333333333337</ele><time>2026-04-19T10:50:20.054Z</time></trkpt><trkpt lat="44.7050883" lon="9.87613"><ele>368.0</ele><time>2026-04-19T10:50:21.055Z</time></trkpt><trkpt lat="44.705165" lon="9.8761633"><ele>368.0</ele><time>2026-04-19T10:50:22.054Z</time></trkpt><trkpt lat="44.7052367" lon="9.8762083"><ele>368.0</ele><time>2026-04-19T10:50:23.055Z</time></trkpt><trkpt lat="44.7053467" lon="9.8762933"><ele>368.0</ele><time>2026-04-19T10:50:25.055Z</time></trkpt><trkpt lat="44.70542" lon="9.8762933"><ele>368.0</ele><time>2026-04-19T10:50:27.055Z</time></trkpt><trkpt lat="44.705495" lon="9.876275"><ele>368.0</ele><time>2026-04-19T10:50:29.057Z</time></trkpt><trkpt lat="44.705565" lon="9.876215"><ele>368.0</ele><time>2026-04-19T10:50:31.054Z</time></trkpt><trkpt lat="44.7055917" lon="9.8760667"><ele>367.2</ele><time>2026-04-19T10:50:33.056Z</time></trkpt><trkpt lat="44.70565" lon="9.8759617"><ele>366.4</ele><time>2026-04-19T10:50:35.055Z</time></trkpt><trkpt lat="44.7056817" lon="9.8758633"><ele>365.59999999999997</ele><time>2026-04-19T10:50:37.054Z</time></trkpt><trkpt lat="44.7057617" lon="9.875755"><ele>364.79999999999995</ele><time>2026-04-19T10:50:39.055Z</time></trkpt><trkpt lat="44.70586" lon="9.8757133"><ele>364.0</ele><time>2026-04-19T10:50:41.054Z</time></trkpt><trkpt lat="44.7059733" lon="9.8756867"><ele>366.5</ele><time>2026-04-19T10:50:43.055Z</time></trkpt><trkpt lat="44.7060783" lon="9.8756433"><ele>369.0</ele><time>2026-04-19T10:50:45.055Z</time></trkpt><trkpt lat="44.70614" lon="9.87561"><ele>371.5</ele><time>2026-04-19T10:50:46.055Z</time></trkpt><trkpt lat="44.7061983" lon="9.8755717"><ele>374.0</ele><time>2026-04-19T10:50:47.054Z</time></trkpt><trkpt lat="44.7063217" lon="9.8755"><ele>376.5</ele><time>2026-04-19T10:50:49.054Z</time></trkpt><trkpt lat="44.7063883" lon="9.8754733"><ele>379.0</ele><time>2026-04-19T10:50:50.054Z</time></trkpt><trkpt lat="44.70646" lon="9.8754467"><ele>379.0</ele><time>2026-04-19T10:50:51.056Z</time></trkpt><trkpt lat="44.7065233" lon="9.875415"><ele>379.0</ele><time>2026-04-19T10:50:52.055Z</time></trkpt><trkpt lat="44.7065833" lon="9.875385"><ele>379.0</ele><time>2026-04-19T10:50:53.055Z</time></trkpt><trkpt lat="44.7066817" lon="9.87534"><ele>379.0</ele><time>2026-04-19T10:50:55.056Z</time></trkpt><trkpt lat="44.7067167" lon="9.875255"><ele>379.0</ele><time>2026-04-19T10:50:58.057Z</time></trkpt><trkpt lat="44.7066817" lon="9.8751517"><ele>379.0</ele><time>2026-04-19T10:51:01.056Z</time></trkpt><trkpt lat="44.7067533" lon="9.8750483"><ele>379.0</ele><time>2026-04-19T10:51:04.055Z</time></trkpt><trkpt lat="44.70687" lon="9.875"><ele>379.0</ele><time>2026-04-19T10:51:06.057Z</time></trkpt><trkpt lat="44.7069883" lon="9.8750067"><ele>379.0</ele><time>2026-04-19T10:51:08.054Z</time></trkpt><trkpt lat="44.7070917" lon="9.87504"><ele>379.0</ele><time>2026-04-19T10:51:10.056Z</time></trkpt><trkpt lat="44.7071717" lon="9.875125"><ele>379.0</ele><time>2026-04-19T10:51:12.055Z</time></trkpt><trkpt lat="44.7072333" lon="9.8752817"><ele>379.0</ele><time>2026-04-19T10:51:14.055Z</time></trkpt><trkpt lat="44.7072717" lon="9.8753583"><ele>379.0</ele><time>2026-04-19T10:51:15.057Z</time></trkpt><trkpt lat="44.7073317" lon="9.8753967"><ele>379.0</ele><time>2026-04-19T10:51:17.055Z</time></trkpt><trkpt lat="44.7073883" lon="9.8753533"><ele>379.0</ele><time>2026-04-19T10:51:19.054Z</time></trkpt><trkpt lat="44.7074733" lon="9.875305"><ele>379.0</ele><time>2026-04-19T10:51:22.054Z</time></trkpt><trkpt lat="44.7075633" lon="9.8751717"><ele>379.0</ele><time>2026-04-19T10:51:44.054Z</time></trkpt><trkpt lat="44.7075883" lon="9.87507"><ele>379.0</ele><time>2026-04-19T10:51:46.054Z</time></trkpt><trkpt lat="44.70768" lon="9.8749583"><ele>379.0</ele><time>2026-04-19T10:52:01.057Z</time></trkpt><trkpt lat="44.70775" lon="9.8748933"><ele>379.0</ele><time>2026-04-19T10:52:03.055Z</time></trkpt><trkpt lat="44.70786" lon="9.8748533"><ele>379.0</ele><time>2026-04-19T10:52:05.055Z</time></trkpt><trkpt lat="44.7079233" lon="9.87484"><ele>379.0</ele><time>2026-04-19T10:52:06.055Z</time></trkpt><trkpt lat="44.7079933" lon="9.8748283"><ele>380.5</ele><time>2026-04-19T10:52:07.057Z</time></trkpt><trkpt lat="44.7080617" lon="9.8748283"><ele>382.0</ele><time>2026-04-19T10:52:08.056Z</time></trkpt><trkpt lat="44.70814" lon="9.8748267"><ele>383.5</ele><time>2026-04-19T10:52:09.054Z</time></trkpt><trkpt lat="44.7082067" lon="9.8748233"><ele>385.0</ele><time>2026-04-19T10:52:10.054Z</time></trkpt><trkpt lat="44.7082767" lon="9.8748067"><ele>386.50000000000006</ele><time>2026-04-19T10:52:11.055Z</time></trkpt><trkpt lat="44.7083417" lon="9.8747983"><ele>388.0</ele><time>2026-04-19T10:52:12.056Z</time></trkpt><trkpt lat="44.7084583" lon="9.8747833"><ele>388.0</ele><time>2026-04-19T10:52:14.057Z</time></trkpt><trkpt lat="44.7085717" lon="9.8747617"><ele>388.0</ele><time>2026-04-19T10:52:16.055Z</time></trkpt><trkpt lat="44.70864" lon="9.874755"><ele>388.0</ele><time>2026-04-19T10:52:17.056Z</time></trkpt><trkpt lat="44.7087533" lon="9.8747333"><ele>388.0</ele><time>2026-04-19T10:52:19.055Z</time></trkpt><trkpt lat="44.7088467" lon="9.874735"><ele>388.0</ele><time>2026-04-19T10:52:21.056Z</time></trkpt><trkpt lat="44.70893" lon="9.8747283"><ele>389.79999999999995</ele><time>2026-04-19T10:52:23.055Z</time></trkpt><trkpt lat="44.7089992" lon="9.87474"><ele>391.6</ele><time>2026-04-19T10:52:29.13Z</time></trkpt><trkpt lat="44.7091212" lon="9.8748254"><ele>393.4</ele><time>2026-04-19T10:52:45.054Z</time></trkpt><trkpt lat="44.709215" lon="9.8747617"><ele>395.20000000000005</ele><time>2026-04-19T10:53:49.053Z</time></trkpt><trkpt lat="44.7092387" lon="9.8746329"><ele>397.0</ele><time>2026-04-19T10:54:05.041Z</time></trkpt><trkpt lat="44.7092604" lon="9.8745226"><ele>397.00000000000006</ele><time>2026-04-19T10:54:07.062Z</time></trkpt><trkpt lat="44.7092809" lon="9.8744341"><ele>397.0</ele><time>2026-04-19T10:54:10.052Z</time></trkpt><trkpt lat="44.7093183" lon="9.8743217"><ele>397.0</ele><time>2026-04-19T10:54:59.053Z</time></trkpt><trkpt lat="44.7093633" lon="9.8742217"><ele>397.0</ele><time>2026-04-19T10:55:03.053Z</time></trkpt><trkpt lat="44.7093769" lon="9.8740957"><ele>397.00000000000006</ele><time>2026-04-19T10:55:08.054Z</time></trkpt><trkpt lat="44.7094139" lon="9.8740186"><ele>397.0</ele><time>2026-04-19T10:55:11.153Z</time></trkpt><trkpt lat="44.7095078" lon="9.8739242"><ele>399.83333333333337</ele><time>2026-04-19T10:55:13.038Z</time></trkpt><trkpt lat="44.7095577" lon="9.8738323"><ele>402.6666666666667</ele><time>2026-04-19T10:55:15.1Z</time></trkpt><trkpt lat="44.7095894" lon="9.8737535"><ele>405.5</ele><time>2026-04-19T10:55:17.132Z</time></trkpt><trkpt lat="44.7096246" lon="9.8736733"><ele>408.33333333333337</ele><time>2026-04-19T10:55:21.077Z</time></trkpt><trkpt lat="44.7096633" lon="9.8735505"><ele>411.1666666666667</ele><time>2026-04-19T10:55:49.102Z</time></trkpt><trkpt lat="44.7097014" lon="9.8733773"><ele>414.0</ele><time>2026-04-19T10:55:52.457Z</time></trkpt><trkpt lat="44.7097352" lon="9.8733014"><ele>414.00000000000006</ele><time>2026-04-19T10:55:55.156Z</time></trkpt><trkpt lat="44.7097932" lon="9.8733371"><ele>414.0</ele><time>2026-04-19T10:56:44.139Z</time></trkpt><trkpt lat="44.7098318" lon="9.8734083"><ele>414.0</ele><time>2026-04-19T10:56:46.095Z</time></trkpt><trkpt lat="44.7098672" lon="9.8734821"><ele>414.0</ele><time>2026-04-19T10:56:49.085Z</time></trkpt><trkpt lat="44.7099276" lon="9.8735518"><ele>414.0</ele><time>2026-04-19T10:56:53.151Z</time></trkpt><trkpt lat="44.7099891" lon="9.8736755"><ele>414.00000000000006</ele><time>2026-04-19T10:56:55.982Z</time></trkpt><trkpt lat="44.7100463" lon="9.8737412"><ele>414.0</ele><time>2026-04-19T10:56:57.054Z</time></trkpt><trkpt lat="44.7101047" lon="9.8738148"><ele>414.0</ele><time>2026-04-19T10:56:59.055Z</time></trkpt><trkpt lat="44.7101833" lon="9.8739156"><ele>414.0</ele><time>2026-04-19T10:57:01.054Z</time></trkpt><trkpt lat="44.7102419" lon="9.8739503"><ele>414.0</ele><time>2026-04-19T10:57:03.056Z</time></trkpt><trkpt lat="44.710309" lon="9.8739423"><ele>414.0</ele><time>2026-04-19T10:57:06.056Z</time></trkpt><trkpt lat="44.7103732" lon="9.8739729"><ele>414.0</ele><time>2026-04-19T10:57:08.055Z</time></trkpt><trkpt lat="44.7104474" lon="9.8740103"><ele>414.0</ele><time>2026-04-19T10:57:10.055Z</time></trkpt><trkpt lat="44.7105445" lon="9.8740461"><ele>417.79999999999995</ele><time>2026-04-19T10:57:12.054Z</time></trkpt><trkpt lat="44.7106378" lon="9.8740174"><ele>421.59999999999997</ele><time>2026-04-19T10:57:14.055Z</time></trkpt><trkpt lat="44.7107393" lon="9.873939"><ele>425.4</ele><time>2026-04-19T10:57:16.054Z</time></trkpt><trkpt lat="44.7107989" lon="9.8738944"><ele>429.2</ele><time>2026-04-19T10:57:18.054Z</time></trkpt><trkpt lat="44.7108631" lon="9.8739589"><ele>433.0</ele><time>2026-04-19T10:57:35.056Z</time></trkpt><trkpt lat="44.7109538" lon="9.8739896"><ele>433.00000000000006</ele><time>2026-04-19T10:57:37.053Z</time></trkpt><trkpt lat="44.7110493" lon="9.8740295"><ele>433.0</ele><time>2026-04-19T10:57:39.056Z</time></trkpt><trkpt lat="44.711149" lon="9.8740502"><ele>433.0</ele><time>2026-04-19T10:57:41.055Z</time></trkpt><trkpt lat="44.7112221" lon="9.8740373"><ele>433.0</ele><time>2026-04-19T10:57:43.054Z</time></trkpt><trkpt lat="44.7112794" lon="9.8740863"><ele>433.00000000000006</ele><time>2026-04-19T10:57:51.054Z</time></trkpt><trkpt lat="44.7113491" lon="9.8741268"><ele>433.0</ele><time>2026-04-19T10:58:03.054Z</time></trkpt><trkpt lat="44.711417" lon="9.8741505"><ele>437.1666666666667</ele><time>2026-04-19T10:58:06.056Z</time></trkpt><trkpt lat="44.7114917" lon="9.874155"><ele>441.33333333333337</ele><time>2026-04-19T10:58:09.055Z</time></trkpt><trkpt lat="44.711575" lon="9.8741467"><ele>445.5</ele><time>2026-04-19T10:58:11.054Z</time></trkpt><trkpt lat="44.711655" lon="9.8741567"><ele>449.66666666666663</ele><time>2026-04-19T10:58:13.054Z</time></trkpt><trkpt lat="44.7117233" lon="9.874185"><ele>453.8333333333333</ele><time>2026-04-19T10:58:15.054Z</time></trkpt><trkpt lat="44.7117917" lon="9.8742017"><ele>458.0</ele><time>2026-04-19T10:58:17.054Z</time></trkpt><trkpt lat="44.711885" lon="9.8742283"><ele>461.2857142857143</ele><time>2026-04-19T10:58:20.056Z</time></trkpt><trkpt lat="44.7119483" lon="9.8742267"><ele>464.57142857142856</ele><time>2026-04-19T10:58:22.054Z</time></trkpt><trkpt lat="44.7120283" lon="9.8742033"><ele>467.85714285714283</ele><time>2026-04-19T10:58:25.054Z</time></trkpt><trkpt lat="44.7121083" lon="9.8742117"><ele>471.1428571428571</ele><time>2026-04-19T10:58:27.054Z</time></trkpt><trkpt lat="44.7121791" lon="9.8741991"><ele>474.42857142857144</ele><time>2026-04-19T10:58:28.971Z</time></trkpt><trkpt lat="44.7122341" lon="9.8741461"><ele>477.71428571428567</ele><time>2026-04-19T10:58:31.082Z</time></trkpt><trkpt lat="44.7122919" lon="9.8741095"><ele>480.99999999999994</ele><time>2026-04-19T10:58:33.172Z</time></trkpt><trkpt lat="44.7123249" lon="9.8740054"><ele>480.99999999999994</ele><time>2026-04-19T10:58:36.104Z</time></trkpt><trkpt lat="44.71235" lon="9.8739199"><ele>481.0</ele><time>2026-04-19T10:58:38.136Z</time></trkpt><trkpt lat="44.7122736" lon="9.8738786"><ele>480.99999999999994</ele><time>2026-04-19T10:58:39.093Z</time></trkpt><trkpt lat="44.7122587" lon="9.8737925"><ele>480.99999999999994</ele><time>2026-04-19T10:58:40.054Z</time></trkpt><trkpt lat="44.7122497" lon="9.8736875"><ele>481.0</ele><time>2026-04-19T10:58:42.082Z</time></trkpt><trkpt lat="44.7122465" lon="9.8735884"><ele>480.99999999999994</ele><time>2026-04-19T10:58:44.116Z</time></trkpt><trkpt lat="44.7122418" lon="9.8734732"><ele>480.99999999999994</ele><time>2026-04-19T10:58:46.054Z</time></trkpt><trkpt lat="44.7122234" lon="9.8733387"><ele>480.8</ele><time>2026-04-19T10:58:49.137Z</time></trkpt><trkpt lat="44.7121918" lon="9.8732247"><ele>480.6</ele><time>2026-04-19T10:58:51.054Z</time></trkpt><trkpt lat="44.7121262" lon="9.8731292"><ele>480.4</ele><time>2026-04-19T10:58:53.084Z</time></trkpt><trkpt lat="44.7120157" lon="9.8730481"><ele>480.2</ele><time>2026-04-19T10:58:55.054Z</time></trkpt><trkpt lat="44.7119167" lon="9.8729953"><ele>480.0</ele><time>2026-04-19T10:58:57.055Z</time></trkpt><trkpt lat="44.7118857" lon="9.8728857"><ele>480.0</ele><time>2026-04-19T10:59:00.054Z</time></trkpt><trkpt lat="44.7119537" lon="9.8727768"><ele>480.0</ele><time>2026-04-19T10:59:02.055Z</time></trkpt><trkpt lat="44.7119859" lon="9.8726328"><ele>480.0</ele><time>2026-04-19T10:59:04.053Z</time></trkpt><trkpt lat="44.711955" lon="9.8724983"><ele>480.0</ele><time>2026-04-19T10:59:06.054Z</time></trkpt><trkpt lat="44.7119233" lon="9.8723417"><ele>480.0</ele><time>2026-04-19T10:59:08.057Z</time></trkpt><trkpt lat="44.711905" lon="9.8721783"><ele>478.2</ele><time>2026-04-19T10:59:10.054Z</time></trkpt><trkpt lat="44.7118817" lon="9.8720333"><ele>476.4</ele><time>2026-04-19T10:59:12.054Z</time></trkpt><trkpt lat="44.7118383" lon="9.871925"><ele>474.6</ele><time>2026-04-19T10:59:14.055Z</time></trkpt><trkpt lat="44.711785" lon="9.8718283"><ele>472.8</ele><time>2026-04-19T10:59:16.053Z</time></trkpt><trkpt lat="44.7117433" lon="9.8717183"><ele>471.0</ele><time>2026-04-19T10:59:18.055Z</time></trkpt><trkpt lat="44.7117367" lon="9.8715983"><ele>470.8</ele><time>2026-04-19T10:59:20.055Z</time></trkpt><trkpt lat="44.711785" lon="9.871495"><ele>470.6</ele><time>2026-04-19T10:59:22.055Z</time></trkpt><trkpt lat="44.7118567" lon="9.871395"><ele>470.4</ele><time>2026-04-19T10:59:24.054Z</time></trkpt><trkpt lat="44.7118817" lon="9.8712883"><ele>470.2</ele><time>2026-04-19T10:59:26.056Z</time></trkpt><trkpt lat="44.71185" lon="9.8711767"><ele>470.0</ele><time>2026-04-19T10:59:28.054Z</time></trkpt><trkpt lat="44.7117883" lon="9.871045"><ele>470.99999999999994</ele><time>2026-04-19T10:59:30.054Z</time></trkpt><trkpt lat="44.7117583" lon="9.8709"><ele>472.0</ele><time>2026-04-19T10:59:32.055Z</time></trkpt><trkpt lat="44.7117683" lon="9.8707917"><ele>473.0</ele><time>2026-04-19T10:59:34.054Z</time></trkpt><trkpt lat="44.71179" lon="9.8706733"><ele>474.0</ele><time>2026-04-19T10:59:36.054Z</time></trkpt><trkpt lat="44.7117633" lon="9.8705733"><ele>474.99999999999994</ele><time>2026-04-19T10:59:38.053Z</time></trkpt><trkpt lat="44.7116833" lon="9.870545"><ele>476.0</ele><time>2026-04-19T10:59:40.053Z</time></trkpt><trkpt lat="44.711575" lon="9.8705467"><ele>475.99999999999994</ele><time>2026-04-19T10:59:42.054Z</time></trkpt><trkpt lat="44.7115017" lon="9.8705483"><ele>476.0</ele><time>2026-04-19T10:59:43.053Z</time></trkpt><trkpt lat="44.7114283" lon="9.8705483"><ele>476.0</ele><time>2026-04-19T10:59:44.055Z</time></trkpt><trkpt lat="44.7113117" lon="9.870495"><ele>476.0</ele><time>2026-04-19T10:59:46.055Z</time></trkpt><trkpt lat="44.7112417" lon="9.870415"><ele>475.99999999999994</ele><time>2026-04-19T10:59:48.054Z</time></trkpt><trkpt lat="44.7111683" lon="9.870465"><ele>476.0</ele><time>2026-04-19T10:59:52.055Z</time></trkpt><trkpt lat="44.7110783" lon="9.8705967"><ele>475.66666666666663</ele><time>2026-04-19T10:59:54.054Z</time></trkpt><trkpt lat="44.7109633" lon="9.8706767"><ele>475.3333333333333</ele><time>2026-04-19T10:59:56.056Z</time></trkpt><trkpt lat="44.7108983" lon="9.8706967"><ele>475.0</ele><time>2026-04-19T10:59:57.054Z</time></trkpt><trkpt lat="44.7108233" lon="9.87071"><ele>474.66666666666663</ele><time>2026-04-19T10:59:58.054Z</time></trkpt><trkpt lat="44.7107483" lon="9.8707033"><ele>474.3333333333333</ele><time>2026-04-19T10:59:59.057Z</time></trkpt><trkpt lat="44.710675" lon="9.8706933"><ele>474.0</ele><time>2026-04-19T11:00:00.055Z</time></trkpt><trkpt lat="44.7106033" lon="9.8706817"><ele>474.0</ele><time>2026-04-19T11:00:01.054Z</time></trkpt><trkpt lat="44.7105333" lon="9.8706667"><ele>474.0</ele><time>2026-04-19T11:00:02.054Z</time></trkpt><trkpt lat="44.71047" lon="9.87065"><ele>474.0</ele><time>2026-04-19T11:00:03.054Z</time></trkpt><trkpt lat="44.7104067" lon="9.8706433"><ele>474.0</ele><time>2026-04-19T11:00:04.054Z</time></trkpt><trkpt lat="44.7103433" lon="9.8706333"><ele>474.0</ele><time>2026-04-19T11:00:05.054Z</time></trkpt><trkpt lat="44.7102783" lon="9.8706283"><ele>474.0</ele><time>2026-04-19T11:00:06.054Z</time></trkpt><trkpt lat="44.710155" lon="9.87061"><ele>472.4</ele><time>2026-04-19T11:00:08.054Z</time></trkpt><trkpt lat="44.7100383" lon="9.8706"><ele>470.79999999999995</ele><time>2026-04-19T11:00:10.053Z</time></trkpt><trkpt lat="44.7099083" lon="9.8706067"><ele>469.20000000000005</ele><time>2026-04-19T11:00:12.055Z</time></trkpt><trkpt lat="44.70984" lon="9.8706033"><ele>467.6</ele><time>2026-04-19T11:00:13.053Z</time></trkpt><trkpt lat="44.7097667" lon="9.87061"><ele>466.0</ele><time>2026-04-19T11:00:14.057Z</time></trkpt><trkpt lat="44.7096983" lon="9.8706117"><ele>466.0</ele><time>2026-04-19T11:00:15.054Z</time></trkpt><trkpt lat="44.709635" lon="9.8706167"><ele>466.0</ele><time>2026-04-19T11:00:16.056Z</time></trkpt><trkpt lat="44.7095133" lon="9.870615"><ele>466.0</ele><time>2026-04-19T11:00:18.055Z</time></trkpt><trkpt lat="44.7094017" lon="9.8705917"><ele>466.0</ele><time>2026-04-19T11:00:20.057Z</time></trkpt><trkpt lat="44.7092983" lon="9.8705467"><ele>466.0</ele><time>2026-04-19T11:00:22.055Z</time></trkpt><trkpt lat="44.7091783" lon="9.8705067"><ele>463.33333333333337</ele><time>2026-04-19T11:00:24.056Z</time></trkpt><trkpt lat="44.7090817" lon="9.87047"><ele>460.6666666666667</ele><time>2026-04-19T11:00:26.054Z</time></trkpt><trkpt lat="44.709" lon="9.8704483"><ele>458.0</ele><time>2026-04-19T11:00:28.055Z</time></trkpt><trkpt lat="44.7089367" lon="9.8703917"><ele>455.33333333333337</ele><time>2026-04-19T11:00:31.052Z</time></trkpt><trkpt lat="44.70894" lon="9.870295"><ele>452.6666666666667</ele><time>2026-04-19T11:00:34.053Z</time></trkpt><trkpt lat="44.7089933" lon="9.8701567"><ele>450.0</ele><time>2026-04-19T11:00:36.054Z</time></trkpt><trkpt lat="44.7090267" lon="9.8700767"><ele>449.3333333333333</ele><time>2026-04-19T11:00:37.054Z</time></trkpt><trkpt lat="44.7090617" lon="9.8699867"><ele>448.66666666666663</ele><time>2026-04-19T11:00:38.054Z</time></trkpt><trkpt lat="44.7091017" lon="9.8698917"><ele>448.0</ele><time>2026-04-19T11:00:39.055Z</time></trkpt><trkpt lat="44.7091467" lon="9.8697933"><ele>447.3333333333333</ele><time>2026-04-19T11:00:40.053Z</time></trkpt><trkpt lat="44.709185" lon="9.869685"><ele>446.66666666666663</ele><time>2026-04-19T11:00:41.054Z</time></trkpt><trkpt lat="44.70922" lon="9.8695783"><ele>446.0</ele><time>2026-04-19T11:00:42.053Z</time></trkpt><trkpt lat="44.7092517" lon="9.8694717"><ele>445.99999999999994</ele><time>2026-04-19T11:00:43.054Z</time></trkpt><trkpt lat="44.7092717" lon="9.8693583"><ele>446.0</ele><time>2026-04-19T11:00:44.056Z</time></trkpt><trkpt lat="44.70928" lon="9.8692433"><ele>446.0</ele><time>2026-04-19T11:00:45.055Z</time></trkpt><trkpt lat="44.70928" lon="9.8691117"><ele>446.0</ele><time>2026-04-19T11:00:46.054Z</time></trkpt><trkpt lat="44.7092783" lon="9.8689817"><ele>445.99999999999994</ele><time>2026-04-19T11:00:47.053Z</time></trkpt><trkpt lat="44.7092683" lon="9.868855"><ele>446.0</ele><time>2026-04-19T11:00:48.054Z</time></trkpt><trkpt lat="44.7092417" lon="9.86874"><ele>445.6</ele><time>2026-04-19T11:00:49.054Z</time></trkpt><trkpt lat="44.7091967" lon="9.8686317"><ele>445.20000000000005</ele><time>2026-04-19T11:00:50.055Z</time></trkpt><trkpt lat="44.7091367" lon="9.8685183"><ele>444.79999999999995</ele><time>2026-04-19T11:00:51.055Z</time></trkpt><trkpt lat="44.7090667" lon="9.8684117"><ele>444.4</ele><time>2026-04-19T11:00:52.054Z</time></trkpt><trkpt lat="44.709" lon="9.868315"><ele>444.0</ele><time>2026-04-19T11:00:53.054Z</time></trkpt><trkpt lat="44.7089417" lon="9.8682183"><ele>444.0</ele><time>2026-04-19T11:00:54.054Z</time></trkpt><trkpt lat="44.7088983" lon="9.86812"><ele>444.0</ele><time>2026-04-19T11:00:55.054Z</time></trkpt><trkpt lat="44.7088667" lon="9.8680267"><ele>444.0</ele><time>2026-04-19T11:00:56.055Z</time></trkpt><trkpt lat="44.7088417" lon="9.8679283"><ele>444.0</ele><time>2026-04-19T11:00:57.053Z</time></trkpt><trkpt lat="44.70882" lon="9.8678233"><ele>444.0</ele><time>2026-04-19T11:00:58.054Z</time></trkpt><trkpt lat="44.7087967" lon="9.8677067"><ele>444.0</ele><time>2026-04-19T11:00:59.055Z</time></trkpt><trkpt lat="44.7087733" lon="9.867585"><ele>445.0</ele><time>2026-04-19T11:01:00.055Z</time></trkpt><trkpt lat="44.7087483" lon="9.8674767"><ele>446.0</ele><time>2026-04-19T11:01:01.054Z</time></trkpt><trkpt lat="44.708725" lon="9.867375"><ele>447.0</ele><time>2026-04-19T11:01:02.055Z</time></trkpt><trkpt lat="44.7086733" lon="9.867235"><ele>448.0</ele><time>2026-04-19T11:01:04.054Z</time></trkpt><trkpt lat="44.708555" lon="9.8671683"><ele>449.0</ele><time>2026-04-19T11:01:06.054Z</time></trkpt><trkpt lat="44.7084833" lon="9.86713"><ele>446.2</ele><time>2026-04-19T11:01:07.055Z</time></trkpt><trkpt lat="44.7083983" lon="9.8670383"><ele>443.4</ele><time>2026-04-19T11:01:08.054Z</time></trkpt><trkpt lat="44.708315" lon="9.866935"><ele>440.6</ele><time>2026-04-19T11:01:09.054Z</time></trkpt><trkpt lat="44.70823" lon="9.8668367"><ele>437.8</ele><time>2026-04-19T11:01:10.054Z</time></trkpt><trkpt lat="44.7081367" lon="9.8667483"><ele>435.0</ele><time>2026-04-19T11:01:11.053Z</time></trkpt><trkpt lat="44.70804" lon="9.8666667"><ele>435.0</ele><time>2026-04-19T11:01:12.054Z</time></trkpt><trkpt lat="44.707945" lon="9.8665867"><ele>435.0</ele><time>2026-04-19T11:01:13.054Z</time></trkpt><trkpt lat="44.7078517" lon="9.8665067"><ele>435.0</ele><time>2026-04-19T11:01:14.053Z</time></trkpt><trkpt lat="44.7077633" lon="9.8664283"><ele>435.0</ele><time>2026-04-19T11:01:15.054Z</time></trkpt><trkpt lat="44.7076833" lon="9.8663383"><ele>435.0</ele><time>2026-04-19T11:01:16.053Z</time></trkpt><trkpt lat="44.7076183" lon="9.8662283"><ele>431.0</ele><time>2026-04-19T11:01:17.055Z</time></trkpt><trkpt lat="44.7075833" lon="9.8660967"><ele>427.0</ele><time>2026-04-19T11:01:18.054Z</time></trkpt><trkpt lat="44.7075817" lon="9.8659517"><ele>423.0</ele><time>2026-04-19T11:01:19.056Z</time></trkpt><trkpt lat="44.707605" lon="9.865785"><ele>419.0</ele><time>2026-04-19T11:01:20.056Z</time></trkpt><trkpt lat="44.707635" lon="9.8656117"><ele>419.0</ele><time>2026-04-19T11:01:21.055Z</time></trkpt><trkpt lat="44.707665" lon="9.8654417"><ele>419.0</ele><time>2026-04-19T11:01:22.054Z</time></trkpt><trkpt lat="44.7076967" lon="9.8652717"><ele>419.0</ele><time>2026-04-19T11:01:23.054Z</time></trkpt><trkpt lat="44.70773" lon="9.86511"><ele>419.0</ele><time>2026-04-19T11:01:24.054Z</time></trkpt><trkpt lat="44.707765" lon="9.8649567"><ele>419.4</ele><time>2026-04-19T11:01:25.054Z</time></trkpt><trkpt lat="44.7077967" lon="9.86482"><ele>419.79999999999995</ele><time>2026-04-19T11:01:26.056Z</time></trkpt><trkpt lat="44.7078317" lon="9.8646883"><ele>420.20000000000005</ele><time>2026-04-19T11:01:27.055Z</time></trkpt><trkpt lat="44.7078833" lon="9.8645633"><ele>420.6</ele><time>2026-04-19T11:01:28.054Z</time></trkpt><trkpt lat="44.7079517" lon="9.8644233"><ele>421.0</ele><time>2026-04-19T11:01:29.055Z</time></trkpt><trkpt lat="44.708015" lon="9.86427"><ele>421.0</ele><time>2026-04-19T11:01:30.055Z</time></trkpt><trkpt lat="44.7080667" lon="9.864085"><ele>421.0</ele><time>2026-04-19T11:01:31.054Z</time></trkpt><trkpt lat="44.7081117" lon="9.86389"><ele>421.0</ele><time>2026-04-19T11:01:32.054Z</time></trkpt><trkpt lat="44.7081517" lon="9.8637233"><ele>421.0</ele><time>2026-04-19T11:01:33.055Z</time></trkpt><trkpt lat="44.7081967" lon="9.8635817"><ele>421.0</ele><time>2026-04-19T11:01:34.054Z</time></trkpt><trkpt lat="44.7082533" lon="9.86345"><ele>421.0</ele><time>2026-04-19T11:01:35.054Z</time></trkpt><trkpt lat="44.7083067" lon="9.8633233"><ele>421.0</ele><time>2026-04-19T11:01:36.056Z</time></trkpt><trkpt lat="44.7083383" lon="9.8632017"><ele>421.0</ele><time>2026-04-19T11:01:37.053Z</time></trkpt><trkpt lat="44.7083417" lon="9.8630683"><ele>421.0</ele><time>2026-04-19T11:01:38.055Z</time></trkpt><trkpt lat="44.7083167" lon="9.862925"><ele>421.0</ele><time>2026-04-19T11:01:39.054Z</time></trkpt><trkpt lat="44.70827" lon="9.8627667"><ele>421.0</ele><time>2026-04-19T11:01:40.054Z</time></trkpt><trkpt lat="44.7082083" lon="9.86261"><ele>421.0</ele><time>2026-04-19T11:01:41.054Z</time></trkpt><trkpt lat="44.70815" lon="9.8624783"><ele>421.0</ele><time>2026-04-19T11:01:42.054Z</time></trkpt><trkpt lat="44.708105" lon="9.8623833"><ele>421.0</ele><time>2026-04-19T11:01:43.055Z</time></trkpt><trkpt lat="44.70807" lon="9.8622983"><ele>422.00000000000006</ele><time>2026-04-19T11:01:44.054Z</time></trkpt><trkpt lat="44.708055" lon="9.86221"><ele>423.0</ele><time>2026-04-19T11:01:45.055Z</time></trkpt><trkpt lat="44.7080467" lon="9.862115"><ele>424.0</ele><time>2026-04-19T11:01:46.056Z</time></trkpt><trkpt lat="44.7080483" lon="9.8619667"><ele>425.0</ele><time>2026-04-19T11:01:48.055Z</time></trkpt><trkpt lat="44.708055" lon="9.8618767"><ele>426.0</ele><time>2026-04-19T11:01:50.053Z</time></trkpt><trkpt lat="44.7081067" lon="9.8617933"><ele>427.00000000000006</ele><time>2026-04-19T11:01:52.054Z</time></trkpt><trkpt lat="44.7081617" lon="9.86175"><ele>428.0</ele><time>2026-04-19T11:01:53.054Z</time></trkpt><trkpt lat="44.7082717" lon="9.8617017"><ele>428.2</ele><time>2026-04-19T11:01:55.053Z</time></trkpt><trkpt lat="44.70835" lon="9.86164"><ele>428.4</ele><time>2026-04-19T11:01:57.055Z</time></trkpt><trkpt lat="44.7084267" lon="9.8615483"><ele>428.59999999999997</ele><time>2026-04-19T11:01:59.054Z</time></trkpt><trkpt lat="44.7085" lon="9.8614133"><ele>428.79999999999995</ele><time>2026-04-19T11:02:01.054Z</time></trkpt><trkpt lat="44.7085233" lon="9.8613183"><ele>429.0</ele><time>2026-04-19T11:02:02.054Z</time></trkpt><trkpt lat="44.7085433" lon="9.861225"><ele>429.0</ele><time>2026-04-19T11:02:03.055Z</time></trkpt><trkpt lat="44.708575" lon="9.86106"><ele>429.0</ele><time>2026-04-19T11:02:05.054Z</time></trkpt><trkpt lat="44.70859" lon="9.8609733"><ele>429.0</ele><time>2026-04-19T11:02:06.055Z</time></trkpt><trkpt lat="44.7085917" lon="9.8608183"><ele>429.0</ele><time>2026-04-19T11:02:08.054Z</time></trkpt><trkpt lat="44.708575" lon="9.8606783"><ele>429.0</ele><time>2026-04-19T11:02:10.054Z</time></trkpt><trkpt lat="44.7085683" lon="9.8605683"><ele>430.4</ele><time>2026-04-19T11:02:12.053Z</time></trkpt><trkpt lat="44.7086" lon="9.8604667"><ele>431.79999999999995</ele><time>2026-04-19T11:02:15.055Z</time></trkpt><trkpt lat="44.7086483" lon="9.860395"><ele>433.20000000000005</ele><time>2026-04-19T11:02:17.054Z</time></trkpt><trkpt lat="44.7086683" lon="9.8602717"><ele>434.6</ele><time>2026-04-19T11:02:19.054Z</time></trkpt><trkpt lat="44.708665" lon="9.8601067"><ele>436.0</ele><time>2026-04-19T11:02:21.054Z</time></trkpt><trkpt lat="44.7086533" lon="9.8599533"><ele>436.0</ele><time>2026-04-19T11:02:23.054Z</time></trkpt><trkpt lat="44.70864" lon="9.8598383"><ele>436.0</ele><time>2026-04-19T11:02:25.054Z</time></trkpt><trkpt lat="44.7086467" lon="9.859715"><ele>436.0</ele><time>2026-04-19T11:02:27.055Z</time></trkpt><trkpt lat="44.7086817" lon="9.85959"><ele>436.0</ele><time>2026-04-19T11:02:29.055Z</time></trkpt><trkpt lat="44.70869" lon="9.8594317"><ele>436.0</ele><time>2026-04-19T11:02:31.054Z</time></trkpt><trkpt lat="44.708715" lon="9.8592533"><ele>436.33333333333337</ele><time>2026-04-19T11:02:33.056Z</time></trkpt><trkpt lat="44.7087267" lon="9.85916"><ele>436.6666666666667</ele><time>2026-04-19T11:02:34.054Z</time></trkpt><trkpt lat="44.708735" lon="9.8589867"><ele>437.0</ele><time>2026-04-19T11:02:36.053Z</time></trkpt><trkpt lat="44.7087333" lon="9.8588883"><ele>437.33333333333337</ele><time>2026-04-19T11:02:38.055Z</time></trkpt><trkpt lat="44.7087117" lon="9.8587917"><ele>437.6666666666667</ele><time>2026-04-19T11:02:43.054Z</time></trkpt><trkpt lat="44.708655" lon="9.8587367"><ele>438.0</ele><time>2026-04-19T11:02:58.054Z</time></trkpt><trkpt lat="44.7085933" lon="9.8586767"><ele>433.79999999999995</ele><time>2026-04-19T11:03:01.054Z</time></trkpt><trkpt lat="44.708535" lon="9.8584767"><ele>429.59999999999997</ele><time>2026-04-19T11:03:29.054Z</time></trkpt><trkpt lat="44.7085217" lon="9.8583667"><ele>425.4</ele><time>2026-04-19T11:03:31.054Z</time></trkpt><trkpt lat="44.7084967" lon="9.858235"><ele>421.20000000000005</ele><time>2026-04-19T11:03:33.055Z</time></trkpt><trkpt lat="44.7084517" lon="9.858085"><ele>417.0</ele><time>2026-04-19T11:03:35.055Z</time></trkpt><trkpt lat="44.7084" lon="9.857955"><ele>417.0</ele><time>2026-04-19T11:03:37.054Z</time></trkpt><trkpt lat="44.7083567" lon="9.8578349"><ele>417.0</ele><time>2026-04-19T11:03:39.054Z</time></trkpt><trkpt lat="44.7082883" lon="9.8577092"><ele>417.0</ele><time>2026-04-19T11:03:41.053Z</time></trkpt><trkpt lat="44.7082363" lon="9.8575763"><ele>417.0</ele><time>2026-04-19T11:03:43.055Z</time></trkpt><trkpt lat="44.7081895" lon="9.8574356"><ele>417.0</ele><time>2026-04-19T11:03:45.054Z</time></trkpt><trkpt lat="44.7081575" lon="9.8573051"><ele>418.8</ele><time>2026-04-19T11:03:47.055Z</time></trkpt><trkpt lat="44.7081026" lon="9.8572038"><ele>420.6</ele><time>2026-04-19T11:03:49.055Z</time></trkpt><trkpt lat="44.708065" lon="9.8570983"><ele>422.40000000000003</ele><time>2026-04-19T11:03:51.053Z</time></trkpt><trkpt lat="44.7080383" lon="9.8569867"><ele>424.20000000000005</ele><time>2026-04-19T11:03:53.055Z</time></trkpt><trkpt lat="44.7080433" lon="9.8568583"><ele>426.0</ele><time>2026-04-19T11:03:55.054Z</time></trkpt><trkpt lat="44.7080783" lon="9.8566967"><ele>426.0</ele><time>2026-04-19T11:03:57.054Z</time></trkpt><trkpt lat="44.708095" lon="9.8565367"><ele>426.0</ele><time>2026-04-19T11:03:59.055Z</time></trkpt><trkpt lat="44.7081033" lon="9.8563633"><ele>426.0</ele><time>2026-04-19T11:04:01.054Z</time></trkpt><trkpt lat="44.70809" lon="9.8561933"><ele>426.0</ele><time>2026-04-19T11:04:03.053Z</time></trkpt><trkpt lat="44.7080767" lon="9.8561"><ele>426.0</ele><time>2026-04-19T11:04:04.054Z</time></trkpt><trkpt lat="44.7080733" lon="9.8559433"><ele>426.0</ele><time>2026-04-19T11:04:06.054Z</time></trkpt><trkpt lat="44.70811" lon="9.8558067"><ele>426.0</ele><time>2026-04-19T11:04:08.055Z</time></trkpt><trkpt lat="44.7081767" lon="9.8556917"><ele>426.0</ele><time>2026-04-19T11:04:10.053Z</time></trkpt><trkpt lat="44.70824" lon="9.8555667"><ele>426.0</ele><time>2026-04-19T11:04:12.053Z</time></trkpt><trkpt lat="44.708295" lon="9.8554633"><ele>426.0</ele><time>2026-04-19T11:04:14.054Z</time></trkpt><trkpt lat="44.7083233" lon="9.855375"><ele>426.0</ele><time>2026-04-19T11:04:16.054Z</time></trkpt><trkpt lat="44.7083183" lon="9.85527"><ele>426.0</ele><time>2026-04-19T11:04:18.054Z</time></trkpt><trkpt lat="44.7083283" lon="9.855165"><ele>426.0</ele><time>2026-04-19T11:04:20.054Z</time></trkpt><trkpt lat="44.7083583" lon="9.855065"><ele>426.0</ele><time>2026-04-19T11:04:22.054Z</time></trkpt><trkpt lat="44.7084017" lon="9.8549683"><ele>426.0</ele><time>2026-04-19T11:04:25.054Z</time></trkpt><trkpt lat="44.7084667" lon="9.8548933"><ele>426.0</ele><time>2026-04-19T11:04:28.054Z</time></trkpt><trkpt lat="44.708515" lon="9.8548167"><ele>426.6666666666667</ele><time>2026-04-19T11:04:30.053Z</time></trkpt><trkpt lat="44.7085583" lon="9.85472"><ele>427.33333333333337</ele><time>2026-04-19T11:04:32.053Z</time></trkpt><trkpt lat="44.70862" lon="9.8545983"><ele>428.0</ele><time>2026-04-19T11:04:34.054Z</time></trkpt><trkpt lat="44.70866" lon="9.8545267"><ele>428.6666666666667</ele><time>2026-04-19T11:04:35.055Z</time></trkpt><trkpt lat="44.7087" lon="9.854455"><ele>429.33333333333337</ele><time>2026-04-19T11:04:36.055Z</time></trkpt><trkpt lat="44.7087583" lon="9.8543683"><ele>430.0</ele><time>2026-04-19T11:04:38.055Z</time></trkpt><trkpt lat="44.7086567" lon="9.85436"><ele>430.00000000000006</ele><time>2026-04-19T11:05:00.054Z</time></trkpt><trkpt lat="44.7085867" lon="9.8543717"><ele>430.0</ele><time>2026-04-19T11:05:03.054Z</time></trkpt><trkpt lat="44.70852" lon="9.8543567"><ele>430.0</ele><time>2026-04-19T11:05:06.054Z</time></trkpt><trkpt lat="44.7084467" lon="9.8543283"><ele>430.0</ele><time>2026-04-19T11:05:09.053Z</time></trkpt><trkpt lat="44.7083817" lon="9.8542633"><ele>430.00000000000006</ele><time>2026-04-19T11:05:12.053Z</time></trkpt><trkpt lat="44.7083317" lon="9.8542083"><ele>430.0</ele><time>2026-04-19T11:05:14.055Z</time></trkpt><trkpt lat="44.7082467" lon="9.8541517"><ele>425.00000000000006</ele><time>2026-04-19T11:05:16.053Z</time></trkpt><trkpt lat="44.708155" lon="9.85411"><ele>420.0</ele><time>2026-04-19T11:05:18.054Z</time></trkpt><trkpt lat="44.708085" lon="9.8540817"><ele>415.0</ele><time>2026-04-19T11:05:20.056Z</time></trkpt><trkpt lat="44.7080083" lon="9.8540333"><ele>410.0</ele><time>2026-04-19T11:05:23.054Z</time></trkpt><trkpt lat="44.70793" lon="9.8539767"><ele>405.00000000000006</ele><time>2026-04-19T11:05:26.054Z</time></trkpt><trkpt lat="44.7078433" lon="9.8539667"><ele>400.0</ele><time>2026-04-19T11:05:28.054Z</time></trkpt><trkpt lat="44.70776" lon="9.8539717"><ele>396.83333333333337</ele><time>2026-04-19T11:05:30.054Z</time></trkpt><trkpt lat="44.70769" lon="9.85396"><ele>393.6666666666667</ele><time>2026-04-19T11:05:32.054Z</time></trkpt><trkpt lat="44.70762" lon="9.8539483"><ele>390.5</ele><time>2026-04-19T11:05:34.07Z</time></trkpt><trkpt lat="44.7075383" lon="9.8539333"><ele>387.33333333333337</ele><time>2026-04-19T11:05:37.053Z</time></trkpt><trkpt lat="44.70748" lon="9.853885"><ele>384.1666666666667</ele><time>2026-04-19T11:05:40.054Z</time></trkpt><trkpt lat="44.7073733" lon="9.8538417"><ele>381.0</ele><time>2026-04-19T11:07:16.054Z</time></trkpt><trkpt lat="44.70731" lon="9.8537833"><ele>381.0</ele><time>2026-04-19T11:07:19.054Z</time></trkpt><trkpt lat="44.70725" lon="9.8537417"><ele>381.0</ele><time>2026-04-19T11:07:22.054Z</time></trkpt><trkpt lat="44.707155" lon="9.853665"><ele>381.0</ele><time>2026-04-19T11:07:31.053Z</time></trkpt><trkpt lat="44.7070683" lon="9.853595"><ele>381.0</ele><time>2026-04-19T11:07:39.054Z</time></trkpt><trkpt lat="44.7070117" lon="9.853545"><ele>381.0</ele><time>2026-04-19T11:07:42.053Z</time></trkpt><trkpt lat="44.7069533" lon="9.8534933"><ele>381.0</ele><time>2026-04-19T11:07:45.053Z</time></trkpt><trkpt lat="44.7068817" lon="9.8534167"><ele>376.8333333333333</ele><time>2026-04-19T11:08:17.054Z</time></trkpt><trkpt lat="44.7068283" lon="9.8533633"><ele>372.6666666666667</ele><time>2026-04-19T11:08:19.054Z</time></trkpt><trkpt lat="44.7067733" lon="9.85332"><ele>368.5</ele><time>2026-04-19T11:08:21.053Z</time></trkpt><trkpt lat="44.7066833" lon="9.8532733"><ele>364.33333333333337</ele><time>2026-04-19T11:08:24.053Z</time></trkpt><trkpt lat="44.7066083" lon="9.853255"><ele>360.1666666666667</ele><time>2026-04-19T11:08:26.053Z</time></trkpt><trkpt lat="44.7065167" lon="9.853245"><ele>356.0</ele><time>2026-04-19T11:08:28.053Z</time></trkpt><trkpt lat="44.7064217" lon="9.85324"><ele>356.0</ele><time>2026-04-19T11:08:30.054Z</time></trkpt><trkpt lat="44.7063317" lon="9.85323"><ele>356.0</ele><time>2026-04-19T11:08:32.054Z</time></trkpt><trkpt lat="44.706245" lon="9.8532167"><ele>356.0</ele><time>2026-04-19T11:08:34.053Z</time></trkpt><trkpt lat="44.7061833" lon="9.8531717"><ele>356.0</ele><time>2026-04-19T11:08:36.054Z</time></trkpt><trkpt lat="44.7061167" lon="9.8530967"><ele>356.0</ele><time>2026-04-19T11:08:38.053Z</time></trkpt><trkpt lat="44.70606" lon="9.85303"><ele>356.0</ele><time>2026-04-19T11:08:40.054Z</time></trkpt><trkpt lat="44.7060133" lon="9.8529433"><ele>356.0</ele><time>2026-04-19T11:08:43.054Z</time></trkpt><trkpt lat="44.705965" lon="9.8528717"><ele>356.0</ele><time>2026-04-19T11:08:46.053Z</time></trkpt><trkpt lat="44.70599" lon="9.8527867"><ele>356.0</ele><time>2026-04-19T11:09:22.053Z</time></trkpt><trkpt lat="44.70604" lon="9.85273"><ele>356.0</ele><time>2026-04-19T11:09:23.053Z</time></trkpt><trkpt lat="44.70611" lon="9.852665"><ele>356.0</ele><time>2026-04-19T11:09:24.054Z</time></trkpt><trkpt lat="44.7061983" lon="9.8525817"><ele>356.0</ele><time>2026-04-19T11:09:25.053Z</time></trkpt><trkpt lat="44.7062933" lon="9.85247"><ele>355.0</ele><time>2026-04-19T11:09:26.055Z</time></trkpt><trkpt lat="44.7063783" lon="9.852345"><ele>354.0</ele><time>2026-04-19T11:09:27.054Z</time></trkpt><trkpt lat="44.70645" lon="9.8521983"><ele>353.0</ele><time>2026-04-19T11:09:28.054Z</time></trkpt><trkpt lat="44.7065083" lon="9.8520283"><ele>352.0</ele><time>2026-04-19T11:09:29.053Z</time></trkpt><trkpt lat="44.7065417" lon="9.8518433"><ele>350.75</ele><time>2026-04-19T11:09:30.053Z</time></trkpt><trkpt lat="44.706545" lon="9.85165"><ele>349.5</ele><time>2026-04-19T11:09:31.053Z</time></trkpt><trkpt lat="44.7065283" lon="9.8514483"><ele>348.25</ele><time>2026-04-19T11:09:32.054Z</time></trkpt><trkpt lat="44.706505" lon="9.8512467"><ele>347.0</ele><time>2026-04-19T11:09:33.055Z</time></trkpt><trkpt lat="44.7064783" lon="9.851045"><ele>347.75</ele><time>2026-04-19T11:09:34.054Z</time></trkpt><trkpt lat="44.7064517" lon="9.8508483"><ele>348.5</ele><time>2026-04-19T11:09:35.054Z</time></trkpt><trkpt lat="44.7064267" lon="9.8506567"><ele>349.25</ele><time>2026-04-19T11:09:36.055Z</time></trkpt><trkpt lat="44.7064083" lon="9.85047"><ele>350.0</ele><time>2026-04-19T11:09:37.055Z</time></trkpt><trkpt lat="44.706405" lon="9.8502817"><ele>350.0</ele><time>2026-04-19T11:09:38.055Z</time></trkpt><trkpt lat="44.70642" lon="9.8500917"><ele>350.0</ele><time>2026-04-19T11:09:39.055Z</time></trkpt><trkpt lat="44.7064483" lon="9.8499017"><ele>350.0</ele><time>2026-04-19T11:09:40.054Z</time></trkpt><trkpt lat="44.70649" lon="9.8497183"><ele>350.0</ele><time>2026-04-19T11:09:41.054Z</time></trkpt><trkpt lat="44.70655" lon="9.84955"><ele>350.0</ele><time>2026-04-19T11:09:42.053Z</time></trkpt><trkpt lat="44.7066267" lon="9.8493867"><ele>350.0</ele><time>2026-04-19T11:09:43.052Z</time></trkpt><trkpt lat="44.706715" lon="9.84923"><ele>350.0</ele><time>2026-04-19T11:09:44.054Z</time></trkpt><trkpt lat="44.70681" lon="9.8490633"><ele>350.0</ele><time>2026-04-19T11:09:45.054Z</time></trkpt><trkpt lat="44.706905" lon="9.848875"><ele>352.6666666666667</ele><time>2026-04-19T11:09:46.053Z</time></trkpt><trkpt lat="44.7069867" lon="9.8486933"><ele>355.3333333333333</ele><time>2026-04-19T11:09:47.054Z</time></trkpt><trkpt lat="44.7070533" lon="9.8485"><ele>358.0</ele><time>2026-04-19T11:09:48.054Z</time></trkpt><trkpt lat="44.7071117" lon="9.8483"><ele>358.0</ele><time>2026-04-19T11:09:49.055Z</time></trkpt><trkpt lat="44.7071667" lon="9.84809"><ele>358.0</ele><time>2026-04-19T11:09:50.053Z</time></trkpt><trkpt lat="44.7072183" lon="9.84788"><ele>358.0</ele><time>2026-04-19T11:09:51.053Z</time></trkpt><trkpt lat="44.70728" lon="9.8476733"><ele>357.5</ele><time>2026-04-19T11:09:52.054Z</time></trkpt><trkpt lat="44.707345" lon="9.84748"><ele>357.0</ele><time>2026-04-19T11:09:53.055Z</time></trkpt><trkpt lat="44.7074017" lon="9.8472883"><ele>356.5</ele><time>2026-04-19T11:09:54.054Z</time></trkpt><trkpt lat="44.707435" lon="9.8471"><ele>356.0</ele><time>2026-04-19T11:09:55.055Z</time></trkpt><trkpt lat="44.707435" lon="9.84691"><ele>355.5</ele><time>2026-04-19T11:09:56.055Z</time></trkpt><trkpt lat="44.7073933" lon="9.8467317"><ele>355.0</ele><time>2026-04-19T11:09:57.054Z</time></trkpt><trkpt lat="44.7073233" lon="9.8465683"><ele>354.5</ele><time>2026-04-19T11:09:58.054Z</time></trkpt><trkpt lat="44.7072517" lon="9.8464"><ele>354.0</ele><time>2026-04-19T11:09:59.054Z</time></trkpt><trkpt lat="44.70719" lon="9.84622"><ele>354.0</ele><time>2026-04-19T11:10:00.053Z</time></trkpt><trkpt lat="44.7071467" lon="9.84603"><ele>354.0</ele><time>2026-04-19T11:10:01.054Z</time></trkpt><trkpt lat="44.7071283" lon="9.8458317"><ele>354.0</ele><time>2026-04-19T11:10:02.054Z</time></trkpt><trkpt lat="44.7071317" lon="9.8456317"><ele>354.0</ele><time>2026-04-19T11:10:03.054Z</time></trkpt><trkpt lat="44.7071517" lon="9.8454217"><ele>355.6666666666667</ele><time>2026-04-19T11:10:04.053Z</time></trkpt><trkpt lat="44.707195" lon="9.8452167"><ele>357.33333333333337</ele><time>2026-04-19T11:10:05.055Z</time></trkpt><trkpt lat="44.7072517" lon="9.8450167"><ele>359.0</ele><time>2026-04-19T11:10:06.053Z</time></trkpt><trkpt lat="44.70731" lon="9.844815"><ele>359.0</ele><time>2026-04-19T11:10:07.054Z</time></trkpt><trkpt lat="44.70737" lon="9.8446133"><ele>359.0</ele><time>2026-04-19T11:10:08.054Z</time></trkpt><trkpt lat="44.70743" lon="9.8444117"><ele>359.0</ele><time>2026-04-19T11:10:09.053Z</time></trkpt><trkpt lat="44.70749" lon="9.8442133"><ele>357.0</ele><time>2026-04-19T11:10:10.053Z</time></trkpt><trkpt lat="44.7075467" lon="9.8440117"><ele>355.0</ele><time>2026-04-19T11:10:11.054Z</time></trkpt><trkpt lat="44.707605" lon="9.8438083"><ele>353.0</ele><time>2026-04-19T11:10:12.054Z</time></trkpt><trkpt lat="44.7076633" lon="9.8436083"><ele>353.0</ele><time>2026-04-19T11:10:13.052Z</time></trkpt><trkpt lat="44.7077267" lon="9.8434133"><ele>353.0</ele><time>2026-04-19T11:10:14.054Z</time></trkpt><trkpt lat="44.7077917" lon="9.8432183"><ele>353.0</ele><time>2026-04-19T11:10:15.054Z</time></trkpt><trkpt lat="44.707855" lon="9.8430217"><ele>356.6666666666667</ele><time>2026-04-19T11:10:16.055Z</time></trkpt><trkpt lat="44.707915" lon="9.8428267"><ele>360.3333333333333</ele><time>2026-04-19T11:10:17.055Z</time></trkpt><trkpt lat="44.70797" lon="9.8426317"><ele>364.0</ele><time>2026-04-19T11:10:18.054Z</time></trkpt><trkpt lat="44.7080233" lon="9.8424317"><ele>364.0</ele><time>2026-04-19T11:10:19.053Z</time></trkpt><trkpt lat="44.7080733" lon="9.842235"><ele>364.0</ele><time>2026-04-19T11:10:20.054Z</time></trkpt><trkpt lat="44.7081233" lon="9.842035"><ele>364.0</ele><time>2026-04-19T11:10:21.053Z</time></trkpt><trkpt lat="44.708175" lon="9.8418383"><ele>364.0</ele><time>2026-04-19T11:10:22.054Z</time></trkpt><trkpt lat="44.7082233" lon="9.841645"><ele>363.25</ele><time>2026-04-19T11:10:23.053Z</time></trkpt><trkpt lat="44.7082717" lon="9.8414517"><ele>362.5</ele><time>2026-04-19T11:10:24.053Z</time></trkpt><trkpt lat="44.7083217" lon="9.841265"><ele>361.75</ele><time>2026-04-19T11:10:25.053Z</time></trkpt><trkpt lat="44.708365" lon="9.841075"><ele>361.0</ele><time>2026-04-19T11:10:26.055Z</time></trkpt><trkpt lat="44.7083883" lon="9.8408933"><ele>361.0</ele><time>2026-04-19T11:10:27.053Z</time></trkpt><trkpt lat="44.7083867" lon="9.8406933"><ele>361.0</ele><time>2026-04-19T11:10:28.053Z</time></trkpt><trkpt lat="44.708365" lon="9.8405"><ele>361.0</ele><time>2026-04-19T11:10:29.054Z</time></trkpt><trkpt lat="44.7083383" lon="9.8403"><ele>361.0</ele><time>2026-04-19T11:10:30.054Z</time></trkpt><trkpt lat="44.7083" lon="9.8401067"><ele>361.25</ele><time>2026-04-19T11:10:31.054Z</time></trkpt><trkpt lat="44.7082667" lon="9.839915"><ele>361.5</ele><time>2026-04-19T11:10:32.054Z</time></trkpt><trkpt lat="44.7082333" lon="9.8397183"><ele>361.75</ele><time>2026-04-19T11:10:33.054Z</time></trkpt><trkpt lat="44.70822" lon="9.8395267"><ele>362.0</ele><time>2026-04-19T11:10:34.055Z</time></trkpt><trkpt lat="44.70824" lon="9.8393317"><ele>362.0</ele><time>2026-04-19T11:10:35.056Z</time></trkpt><trkpt lat="44.7082933" lon="9.8391433"><ele>362.0</ele><time>2026-04-19T11:10:36.055Z</time></trkpt><trkpt lat="44.70836" lon="9.8389683"><ele>362.0</ele><time>2026-04-19T11:10:37.053Z</time></trkpt><trkpt lat="44.7084317" lon="9.8388033"><ele>362.0</ele><time>2026-04-19T11:10:38.055Z</time></trkpt><trkpt lat="44.7084967" lon="9.8386283"><ele>361.75</ele><time>2026-04-19T11:10:39.056Z</time></trkpt><trkpt lat="44.70855" lon="9.8384467"><ele>361.5</ele><time>2026-04-19T11:10:40.056Z</time></trkpt><trkpt lat="44.7085917" lon="9.8382567"><ele>361.25</ele><time>2026-04-19T11:10:41.055Z</time></trkpt><trkpt lat="44.7086317" lon="9.8380667"><ele>361.0</ele><time>2026-04-19T11:10:42.053Z</time></trkpt><trkpt lat="44.70868" lon="9.837875"><ele>363.75</ele><time>2026-04-19T11:10:43.053Z</time></trkpt><trkpt lat="44.708735" lon="9.83769"><ele>366.5</ele><time>2026-04-19T11:10:44.053Z</time></trkpt><trkpt lat="44.7087933" lon="9.8375133"><ele>369.25</ele><time>2026-04-19T11:10:45.054Z</time></trkpt><trkpt lat="44.7088517" lon="9.837335"><ele>372.0</ele><time>2026-04-19T11:10:46.053Z</time></trkpt><trkpt lat="44.7088883" lon="9.83716"><ele>372.0</ele><time>2026-04-19T11:10:47.056Z</time></trkpt><trkpt lat="44.70889" lon="9.836985"><ele>372.0</ele><time>2026-04-19T11:10:48.054Z</time></trkpt><trkpt lat="44.70885" lon="9.8368233"><ele>372.0</ele><time>2026-04-19T11:10:49.053Z</time></trkpt><trkpt lat="44.708785" lon="9.8366633"><ele>372.0</ele><time>2026-04-19T11:10:50.054Z</time></trkpt><trkpt lat="44.7087133" lon="9.8365"><ele>372.0</ele><time>2026-04-19T11:10:51.055Z</time></trkpt><trkpt lat="44.7086567" lon="9.83632"><ele>372.0</ele><time>2026-04-19T11:10:52.054Z</time></trkpt><trkpt lat="44.7086183" lon="9.83613"><ele>372.0</ele><time>2026-04-19T11:10:53.055Z</time></trkpt><trkpt lat="44.7085983" lon="9.8359267"><ele>372.0</ele><time>2026-04-19T11:10:54.054Z</time></trkpt><trkpt lat="44.7085967" lon="9.83572"><ele>374.25</ele><time>2026-04-19T11:10:55.053Z</time></trkpt><trkpt lat="44.7086033" lon="9.8355117"><ele>376.5</ele><time>2026-04-19T11:10:56.053Z</time></trkpt><trkpt lat="44.7086133" lon="9.8353067"><ele>378.75</ele><time>2026-04-19T11:10:57.055Z</time></trkpt><trkpt lat="44.7086233" lon="9.8350917"><ele>381.0</ele><time>2026-04-19T11:10:58.054Z</time></trkpt><trkpt lat="44.7086333" lon="9.8348783"><ele>381.5</ele><time>2026-04-19T11:10:59.053Z</time></trkpt><trkpt lat="44.708635" lon="9.8346683"><ele>382.0</ele><time>2026-04-19T11:11:00.053Z</time></trkpt><trkpt lat="44.7086333" lon="9.8344617"><ele>382.5</ele><time>2026-04-19T11:11:01.055Z</time></trkpt><trkpt lat="44.70863" lon="9.834255"><ele>383.0</ele><time>2026-04-19T11:11:02.053Z</time></trkpt><trkpt lat="44.7086233" lon="9.83407"><ele>383.1666666666667</ele><time>2026-04-19T11:11:03.052Z</time></trkpt><trkpt lat="44.7086133" lon="9.8339383"><ele>383.33333333333337</ele><time>2026-04-19T11:11:04.053Z</time></trkpt><trkpt lat="44.7086" lon="9.83385"><ele>383.5</ele><time>2026-04-19T11:11:05.053Z</time></trkpt><trkpt lat="44.7085" lon="9.8338667"><ele>383.6666666666667</ele><time>2026-04-19T11:11:09.053Z</time></trkpt><trkpt lat="44.7084333" lon="9.8338883"><ele>383.8333333333333</ele><time>2026-04-19T11:11:11.054Z</time></trkpt><trkpt lat="44.7083467" lon="9.8338933"><ele>384.0</ele><time>2026-04-19T11:11:13.056Z</time></trkpt><trkpt lat="44.70828" lon="9.833845"><ele>382.1666666666667</ele><time>2026-04-19T11:11:15.054Z</time></trkpt><trkpt lat="44.7082117" lon="9.8337883"><ele>380.3333333333333</ele><time>2026-04-19T11:11:17.054Z</time></trkpt><trkpt lat="44.7081417" lon="9.8337233"><ele>378.5</ele><time>2026-04-19T11:11:20.055Z</time></trkpt><trkpt lat="44.7080867" lon="9.8336333"><ele>376.66666666666663</ele><time>2026-04-19T11:11:24.054Z</time></trkpt><trkpt lat="44.7080383" lon="9.833575"><ele>374.8333333333333</ele><time>2026-04-19T11:11:26.053Z</time></trkpt><trkpt lat="44.70797" lon="9.833515"><ele>373.0</ele><time>2026-04-19T11:11:28.054Z</time></trkpt><trkpt lat="44.70789" lon="9.8334483"><ele>373.0</ele><time>2026-04-19T11:11:30.055Z</time></trkpt><trkpt lat="44.7078317" lon="9.83341"><ele>373.0</ele><time>2026-04-19T11:11:31.053Z</time></trkpt><trkpt lat="44.7077583" lon="9.8333683"><ele>373.0</ele><time>2026-04-19T11:11:32.054Z</time></trkpt><trkpt lat="44.7076767" lon="9.8333167"><ele>373.0</ele><time>2026-04-19T11:11:33.053Z</time></trkpt><trkpt lat="44.7076017" lon="9.83326"><ele>373.0</ele><time>2026-04-19T11:11:34.054Z</time></trkpt><trkpt lat="44.7075267" lon="9.8331933"><ele>373.0</ele><time>2026-04-19T11:11:35.053Z</time></trkpt><trkpt lat="44.7074633" lon="9.8331233"><ele>373.0</ele><time>2026-04-19T11:11:36.054Z</time></trkpt><trkpt lat="44.707405" lon="9.833055"><ele>373.0</ele><time>2026-04-19T11:11:37.054Z</time></trkpt><trkpt lat="44.7073517" lon="9.8329917"><ele>373.0</ele><time>2026-04-19T11:11:38.054Z</time></trkpt><trkpt lat="44.707295" lon="9.8329367"><ele>373.0</ele><time>2026-04-19T11:11:39.054Z</time></trkpt><trkpt lat="44.7072083" lon="9.8328667"><ele>373.0</ele><time>2026-04-19T11:11:41.054Z</time></trkpt><trkpt lat="44.70718" lon="9.8327783"><ele>373.0</ele><time>2026-04-19T11:11:43.054Z</time></trkpt><trkpt lat="44.70722" lon="9.8326217"><ele>373.0</ele><time>2026-04-19T11:11:45.053Z</time></trkpt><trkpt lat="44.7072433" lon="9.8325067"><ele>373.0</ele><time>2026-04-19T11:11:46.055Z</time></trkpt><trkpt lat="44.707265" lon="9.8323717"><ele>373.0</ele><time>2026-04-19T11:11:47.053Z</time></trkpt><trkpt lat="44.7072783" lon="9.8322217"><ele>373.0</ele><time>2026-04-19T11:11:48.054Z</time></trkpt><trkpt lat="44.707285" lon="9.8320733"><ele>373.0</ele><time>2026-04-19T11:11:49.053Z</time></trkpt><trkpt lat="44.7072833" lon="9.8319217"><ele>373.59999999999997</ele><time>2026-04-19T11:11:50.054Z</time></trkpt><trkpt lat="44.7072833" lon="9.8317683"><ele>374.2</ele><time>2026-04-19T11:11:51.053Z</time></trkpt><trkpt lat="44.7072817" lon="9.83162"><ele>374.8</ele><time>2026-04-19T11:11:52.053Z</time></trkpt><trkpt lat="44.7072817" lon="9.8314683"><ele>375.4</ele><time>2026-04-19T11:11:53.054Z</time></trkpt><trkpt lat="44.707285" lon="9.83133"><ele>376.0</ele><time>2026-04-19T11:11:54.055Z</time></trkpt><trkpt lat="44.7072933" lon="9.8311867"><ele>376.0</ele><time>2026-04-19T11:11:55.053Z</time></trkpt><trkpt lat="44.7073133" lon="9.8310433"><ele>376.0</ele><time>2026-04-19T11:11:56.053Z</time></trkpt><trkpt lat="44.707335" lon="9.8309033"><ele>376.0</ele><time>2026-04-19T11:11:57.055Z</time></trkpt><trkpt lat="44.707345" lon="9.8307767"><ele>376.0</ele><time>2026-04-19T11:11:58.054Z</time></trkpt><trkpt lat="44.7073383" lon="9.8306617"><ele>376.0</ele><time>2026-04-19T11:11:59.053Z</time></trkpt><trkpt lat="44.7073233" lon="9.8305583"><ele>376.16666666666663</ele><time>2026-04-19T11:12:00.054Z</time></trkpt><trkpt lat="44.70731" lon="9.830455"><ele>376.3333333333333</ele><time>2026-04-19T11:12:01.054Z</time></trkpt><trkpt lat="44.7073" lon="9.8303583"><ele>376.5</ele><time>2026-04-19T11:12:02.054Z</time></trkpt><trkpt lat="44.7072867" lon="9.8302483"><ele>376.6666666666667</ele><time>2026-04-19T11:12:03.054Z</time></trkpt><trkpt lat="44.7072783" lon="9.8301417"><ele>376.83333333333337</ele><time>2026-04-19T11:12:04.053Z</time></trkpt><trkpt lat="44.7072767" lon="9.8300283"><ele>377.0</ele><time>2026-04-19T11:12:05.053Z</time></trkpt><trkpt lat="44.7072783" lon="9.8299083"><ele>377.33333333333337</ele><time>2026-04-19T11:12:06.055Z</time></trkpt><trkpt lat="44.7072883" lon="9.8297933"><ele>377.6666666666667</ele><time>2026-04-19T11:12:07.055Z</time></trkpt><trkpt lat="44.7072967" lon="9.8296783"><ele>378.0</ele><time>2026-04-19T11:12:08.054Z</time></trkpt><trkpt lat="44.7073017" lon="9.8295667"><ele>378.3333333333333</ele><time>2026-04-19T11:12:09.053Z</time></trkpt><trkpt lat="44.7073" lon="9.8294567"><ele>378.66666666666663</ele><time>2026-04-19T11:12:10.054Z</time></trkpt><trkpt lat="44.70729" lon="9.8293483"><ele>379.0</ele><time>2026-04-19T11:12:11.054Z</time></trkpt><trkpt lat="44.7072767" lon="9.8292367"><ele>379.28571428571433</ele><time>2026-04-19T11:12:12.051Z</time></trkpt><trkpt lat="44.7072667" lon="9.82913"><ele>379.57142857142856</ele><time>2026-04-19T11:12:13.054Z</time></trkpt><trkpt lat="44.707255" lon="9.82903"><ele>379.8571428571429</ele><time>2026-04-19T11:12:14.054Z</time></trkpt><trkpt lat="44.70724" lon="9.8289333"><ele>380.14285714285717</ele><time>2026-04-19T11:12:15.054Z</time></trkpt><trkpt lat="44.7072217" lon="9.828835"><ele>380.42857142857144</ele><time>2026-04-19T11:12:16.054Z</time></trkpt><trkpt lat="44.70721" lon="9.828745"><ele>380.7142857142857</ele><time>2026-04-19T11:12:17.054Z</time></trkpt><trkpt lat="44.70721" lon="9.8286517"><ele>381.0</ele><time>2026-04-19T11:12:18.053Z</time></trkpt><trkpt lat="44.7072167" lon="9.8285383"><ele>381.5</ele><time>2026-04-19T11:12:19.054Z</time></trkpt><trkpt lat="44.7072217" lon="9.8284233"><ele>382.0</ele><time>2026-04-19T11:12:20.055Z</time></trkpt><trkpt lat="44.70723" lon="9.82832"><ele>382.5</ele><time>2026-04-19T11:12:21.054Z</time></trkpt><trkpt lat="44.7072383" lon="9.82823"><ele>383.0</ele><time>2026-04-19T11:12:22.055Z</time></trkpt><trkpt lat="44.7072083" lon="9.8281483"><ele>383.5</ele><time>2026-04-19T11:12:27.054Z</time></trkpt><trkpt lat="44.7071217" lon="9.828245"><ele>384.0</ele><time>2026-04-19T11:12:30.054Z</time></trkpt><trkpt lat="44.7070833" lon="9.828345"><ele>383.25</ele><time>2026-04-19T11:12:31.055Z</time></trkpt><trkpt lat="44.707065" lon="9.8284883"><ele>382.5</ele><time>2026-04-19T11:12:32.054Z</time></trkpt><trkpt lat="44.70705" lon="9.8286383"><ele>381.75</ele><time>2026-04-19T11:12:33.052Z</time></trkpt><trkpt lat="44.7070367" lon="9.8288017"><ele>381.0</ele><time>2026-04-19T11:12:34.056Z</time></trkpt><trkpt lat="44.7070017" lon="9.829015"><ele>381.0</ele><time>2026-04-19T11:12:35.053Z</time></trkpt><trkpt lat="44.7069683" lon="9.82924"><ele>381.0</ele><time>2026-04-19T11:12:36.054Z</time></trkpt><trkpt lat="44.70693" lon="9.8294667"><ele>381.0</ele><time>2026-04-19T11:12:37.053Z</time></trkpt><trkpt lat="44.7068933" lon="9.82968"><ele>383.75</ele><time>2026-04-19T11:12:38.055Z</time></trkpt><trkpt lat="44.7068567" lon="9.8298833"><ele>386.5</ele><time>2026-04-19T11:12:39.055Z</time></trkpt><trkpt lat="44.706815" lon="9.8300667"><ele>389.25</ele><time>2026-04-19T11:12:40.053Z</time></trkpt><trkpt lat="44.706765" lon="9.8302317"><ele>392.0</ele><time>2026-04-19T11:12:41.054Z</time></trkpt><trkpt lat="44.7067133" lon="9.830385"><ele>392.0</ele><time>2026-04-19T11:12:42.053Z</time></trkpt><trkpt lat="44.7066467" lon="9.83051"><ele>392.0</ele><time>2026-04-19T11:12:43.053Z</time></trkpt><trkpt lat="44.70656" lon="9.8305983"><ele>392.0</ele><time>2026-04-19T11:12:44.054Z</time></trkpt><trkpt lat="44.7064667" lon="9.83063"><ele>392.0</ele><time>2026-04-19T11:12:45.052Z</time></trkpt><trkpt lat="44.70638" lon="9.8306083"><ele>392.0</ele><time>2026-04-19T11:12:46.054Z</time></trkpt><trkpt lat="44.7062983" lon="9.8305633"><ele>391.99999999999994</ele><time>2026-04-19T11:12:47.054Z</time></trkpt><trkpt lat="44.7062483" lon="9.8305"><ele>392.0</ele><time>2026-04-19T11:12:48.053Z</time></trkpt><trkpt lat="44.7062" lon="9.83043"><ele>392.0</ele><time>2026-04-19T11:12:49.053Z</time></trkpt><trkpt lat="44.7061667" lon="9.8303483"><ele>392.0</ele><time>2026-04-19T11:12:50.054Z</time></trkpt><trkpt lat="44.7061933" lon="9.8302467"><ele>391.99999999999994</ele><time>2026-04-19T11:12:51.054Z</time></trkpt><trkpt lat="44.7062517" lon="9.830125"><ele>392.0</ele><time>2026-04-19T11:12:52.054Z</time></trkpt><trkpt lat="44.706295" lon="9.8299567"><ele>393.0</ele><time>2026-04-19T11:12:53.055Z</time></trkpt><trkpt lat="44.7063133" lon="9.8297483"><ele>394.0</ele><time>2026-04-19T11:12:54.054Z</time></trkpt><trkpt lat="44.706305" lon="9.8295567"><ele>395.0</ele><time>2026-04-19T11:12:55.054Z</time></trkpt><trkpt lat="44.7063017" lon="9.8293517"><ele>396.0</ele><time>2026-04-19T11:12:56.054Z</time></trkpt><trkpt lat="44.7063" lon="9.829145"><ele>396.75</ele><time>2026-04-19T11:12:57.054Z</time></trkpt><trkpt lat="44.7062633" lon="9.828965"><ele>397.5</ele><time>2026-04-19T11:12:58.054Z</time></trkpt><trkpt lat="44.7062033" lon="9.828795"><ele>398.25</ele><time>2026-04-19T11:12:59.053Z</time></trkpt><trkpt lat="44.7061367" lon="9.828615"><ele>399.0</ele><time>2026-04-19T11:13:00.056Z</time></trkpt><trkpt lat="44.7060833" lon="9.8284033"><ele>405.0</ele><time>2026-04-19T11:13:01.054Z</time></trkpt><trkpt lat="44.70601" lon="9.82823"><ele>411.0</ele><time>2026-04-19T11:13:02.056Z</time></trkpt><trkpt lat="44.7059483" lon="9.8280517"><ele>417.0</ele><time>2026-04-19T11:13:03.054Z</time></trkpt><trkpt lat="44.7059017" lon="9.8278767"><ele>423.0</ele><time>2026-04-19T11:13:04.054Z</time></trkpt><trkpt lat="44.705885" lon="9.827695"><ele>423.2</ele><time>2026-04-19T11:13:05.056Z</time></trkpt><trkpt lat="44.7058933" lon="9.8275267"><ele>423.4</ele><time>2026-04-19T11:13:06.054Z</time></trkpt><trkpt lat="44.7059033" lon="9.82738"><ele>423.59999999999997</ele><time>2026-04-19T11:13:07.055Z</time></trkpt><trkpt lat="44.7059067" lon="9.8272383"><ele>423.79999999999995</ele><time>2026-04-19T11:13:08.055Z</time></trkpt><trkpt lat="44.7059033" lon="9.8271117"><ele>424.0</ele><time>2026-04-19T11:13:09.054Z</time></trkpt><trkpt lat="44.7058933" lon="9.826995"><ele>424.00000000000006</ele><time>2026-04-19T11:13:10.055Z</time></trkpt><trkpt lat="44.70588" lon="9.8268933"><ele>424.0</ele><time>2026-04-19T11:13:11.054Z</time></trkpt><trkpt lat="44.7058467" lon="9.82679"><ele>424.0</ele><time>2026-04-19T11:13:13.054Z</time></trkpt><trkpt lat="44.705765" lon="9.8267667"><ele>424.0</ele><time>2026-04-19T11:13:15.055Z</time></trkpt><trkpt lat="44.7056817" lon="9.8267383"><ele>424.00000000000006</ele><time>2026-04-19T11:13:17.054Z</time></trkpt><trkpt lat="44.70561" lon="9.82672"><ele>424.0</ele><time>2026-04-19T11:13:19.055Z</time></trkpt><trkpt lat="44.7055283" lon="9.8267567"><ele>424.0</ele><time>2026-04-19T11:13:23.054Z</time></trkpt><trkpt lat="44.7054867" lon="9.8268333"><ele>424.0</ele><time>2026-04-19T11:13:25.058Z</time></trkpt><trkpt lat="44.705435" lon="9.8269567"><ele>424.0</ele><time>2026-04-19T11:13:27.055Z</time></trkpt><trkpt lat="44.7054017" lon="9.8271033"><ele>424.0</ele><time>2026-04-19T11:13:29.057Z</time></trkpt><trkpt lat="44.705375" lon="9.8272667"><ele>424.0</ele><time>2026-04-19T11:13:31.054Z</time></trkpt><trkpt lat="44.7053733" lon="9.827375"><ele>424.0</ele><time>2026-04-19T11:13:32.055Z</time></trkpt><trkpt lat="44.7053767" lon="9.8274767"><ele>424.0</ele><time>2026-04-19T11:13:33.056Z</time></trkpt><trkpt lat="44.7053933" lon="9.827605"><ele>424.0</ele><time>2026-04-19T11:13:34.054Z</time></trkpt><trkpt lat="44.7054017" lon="9.827775"><ele>424.0</ele><time>2026-04-19T11:13:36.054Z</time></trkpt><trkpt lat="44.7054067" lon="9.827895"><ele>424.0</ele><time>2026-04-19T11:13:38.055Z</time></trkpt><trkpt lat="44.705425" lon="9.8280483"><ele>424.00000000000006</ele><time>2026-04-19T11:13:40.054Z</time></trkpt><trkpt lat="44.7053933" lon="9.8281483"><ele>424.0</ele><time>2026-04-19T11:13:42.053Z</time></trkpt><trkpt lat="44.7053867" lon="9.828265"><ele>424.0</ele><time>2026-04-19T11:13:45.055Z</time></trkpt><trkpt lat="44.70538" lon="9.8283667"><ele>424.0</ele><time>2026-04-19T11:13:47.055Z</time></trkpt><trkpt lat="44.7053283" lon="9.82848"><ele>424.00000000000006</ele><time>2026-04-19T11:13:49.055Z</time></trkpt><trkpt lat="44.7052733" lon="9.828585"><ele>424.0</ele><time>2026-04-19T11:13:51.054Z</time></trkpt><trkpt lat="44.7052617" lon="9.8286833"><ele>424.00000000000006</ele><time>2026-04-19T11:13:53.054Z</time></trkpt><trkpt lat="44.7052967" lon="9.82879"><ele>424.0</ele><time>2026-04-19T11:13:56.055Z</time></trkpt><trkpt lat="44.7053617" lon="9.8288267"><ele>424.0</ele><time>2026-04-19T11:13:58.055Z</time></trkpt><trkpt lat="44.7054383" lon="9.82889"><ele>424.0</ele><time>2026-04-19T11:14:00.055Z</time></trkpt><trkpt lat="44.7054867" lon="9.8289767"><ele>424.00000000000006</ele><time>2026-04-19T11:14:02.056Z</time></trkpt><trkpt lat="44.7055" lon="9.8290633"><ele>424.0</ele><time>2026-04-19T11:14:04.055Z</time></trkpt><trkpt lat="44.7054883" lon="9.829185"><ele>422.6</ele><time>2026-04-19T11:14:06.057Z</time></trkpt><trkpt lat="44.705475" lon="9.8293233"><ele>421.2</ele><time>2026-04-19T11:14:08.056Z</time></trkpt><trkpt lat="44.705455" lon="9.82945"><ele>419.8</ele><time>2026-04-19T11:14:10.055Z</time></trkpt><trkpt lat="44.7053933" lon="9.82958"><ele>418.40000000000003</ele><time>2026-04-19T11:14:12.057Z</time></trkpt><trkpt lat="44.7053517" lon="9.8296517"><ele>417.0</ele><time>2026-04-19T11:14:13.055Z</time></trkpt><trkpt lat="44.7053" lon="9.82976"><ele>417.0</ele><time>2026-04-19T11:14:15.056Z</time></trkpt><trkpt lat="44.7052483" lon="9.8298383"><ele>417.0</ele><time>2026-04-19T11:14:19.056Z</time></trkpt><trkpt lat="44.7052933" lon="9.8299633"><ele>417.0</ele><time>2026-04-19T11:14:23.055Z</time></trkpt><trkpt lat="44.7053433" lon="9.8300783"><ele>417.0</ele><time>2026-04-19T11:14:25.057Z</time></trkpt><trkpt lat="44.7053867" lon="9.8301717"><ele>417.0</ele><time>2026-04-19T11:14:26.056Z</time></trkpt><trkpt lat="44.7054317" lon="9.8302633"><ele>417.0</ele><time>2026-04-19T11:14:28.055Z</time></trkpt><trkpt lat="44.70544" lon="9.830365"><ele>415.40000000000003</ele><time>2026-04-19T11:14:31.055Z</time></trkpt><trkpt lat="44.7053833" lon="9.83046"><ele>413.8</ele><time>2026-04-19T11:14:34.056Z</time></trkpt><trkpt lat="44.70528" lon="9.8304617"><ele>412.2</ele><time>2026-04-19T11:14:36.057Z</time></trkpt><trkpt lat="44.7051567" lon="9.8304867"><ele>410.6</ele><time>2026-04-19T11:14:38.056Z</time></trkpt><trkpt lat="44.7050883" lon="9.8305"><ele>409.0</ele><time>2026-04-19T11:14:39.056Z</time></trkpt><trkpt lat="44.7049767" lon="9.8305333"><ele>412.33333333333337</ele><time>2026-04-19T11:14:41.055Z</time></trkpt><trkpt lat="44.7049167" lon="9.8305617"><ele>415.6666666666667</ele><time>2026-04-19T11:14:42.056Z</time></trkpt><trkpt lat="44.7048517" lon="9.8306033"><ele>419.0</ele><time>2026-04-19T11:14:43.057Z</time></trkpt><trkpt lat="44.7047417" lon="9.830695"><ele>422.33333333333337</ele><time>2026-04-19T11:14:45.054Z</time></trkpt><trkpt lat="44.7046833" lon="9.8307433"><ele>425.6666666666667</ele><time>2026-04-19T11:14:46.055Z</time></trkpt><trkpt lat="44.70463" lon="9.8307933"><ele>429.0</ele><time>2026-04-19T11:14:47.055Z</time></trkpt><trkpt lat="44.704575" lon="9.8308467"><ele>429.0</ele><time>2026-04-19T11:14:48.053Z</time></trkpt><trkpt lat="44.70452" lon="9.8308983"><ele>429.0</ele><time>2026-04-19T11:14:49.055Z</time></trkpt><trkpt lat="44.704465" lon="9.8309517"><ele>429.0</ele><time>2026-04-19T11:14:50.055Z</time></trkpt><trkpt lat="44.7044067" lon="9.8310067"><ele>429.0</ele><time>2026-04-19T11:14:51.055Z</time></trkpt><trkpt lat="44.70435" lon="9.8310567"><ele>429.0</ele><time>2026-04-19T11:14:52.055Z</time></trkpt><trkpt lat="44.70429" lon="9.831095"><ele>429.0</ele><time>2026-04-19T11:14:53.055Z</time></trkpt><trkpt lat="44.7042267" lon="9.8311217"><ele>429.0</ele><time>2026-04-19T11:14:54.054Z</time></trkpt><trkpt lat="44.704155" lon="9.831145"><ele>432.3333333333333</ele><time>2026-04-19T11:14:55.055Z</time></trkpt><trkpt lat="44.7040767" lon="9.8311683"><ele>435.66666666666663</ele><time>2026-04-19T11:14:56.055Z</time></trkpt><trkpt lat="44.7039983" lon="9.8312017"><ele>439.0</ele><time>2026-04-19T11:14:57.053Z</time></trkpt><trkpt lat="44.70392" lon="9.8312483"><ele>442.3333333333333</ele><time>2026-04-19T11:14:58.054Z</time></trkpt><trkpt lat="44.7038383" lon="9.8313017"><ele>445.66666666666663</ele><time>2026-04-19T11:14:59.054Z</time></trkpt><trkpt lat="44.7037633" lon="9.8313517"><ele>449.0</ele><time>2026-04-19T11:15:00.054Z</time></trkpt><trkpt lat="44.7036983" lon="9.8313983"><ele>449.0</ele><time>2026-04-19T11:15:01.055Z</time></trkpt><trkpt lat="44.7036183" lon="9.8315017"><ele>449.0</ele><time>2026-04-19T11:15:03.054Z</time></trkpt><trkpt lat="44.7035917" lon="9.8316267"><ele>449.0</ele><time>2026-04-19T11:15:05.054Z</time></trkpt><trkpt lat="44.7036233" lon="9.8318067"><ele>449.0</ele><time>2026-04-19T11:15:07.053Z</time></trkpt><trkpt lat="44.7036483" lon="9.831905"><ele>449.0</ele><time>2026-04-19T11:15:08.055Z</time></trkpt><trkpt lat="44.7036667" lon="9.8320033"><ele>449.16666666666663</ele><time>2026-04-19T11:15:09.055Z</time></trkpt><trkpt lat="44.7036883" lon="9.8320967"><ele>449.3333333333333</ele><time>2026-04-19T11:15:10.054Z</time></trkpt><trkpt lat="44.7037267" lon="9.8322367"><ele>449.5</ele><time>2026-04-19T11:15:12.054Z</time></trkpt><trkpt lat="44.7037083" lon="9.8323683"><ele>449.66666666666663</ele><time>2026-04-19T11:15:14.055Z</time></trkpt><trkpt lat="44.7036717" lon="9.832465"><ele>449.8333333333333</ele><time>2026-04-19T11:15:15.054Z</time></trkpt><trkpt lat="44.7036267" lon="9.8325617"><ele>450.0</ele><time>2026-04-19T11:15:16.056Z</time></trkpt><trkpt lat="44.70359" lon="9.8326383"><ele>453.6</ele><time>2026-04-19T11:15:17.055Z</time></trkpt><trkpt lat="44.7035233" lon="9.8327433"><ele>457.2</ele><time>2026-04-19T11:15:19.056Z</time></trkpt><trkpt lat="44.7034617" lon="9.8326583"><ele>460.79999999999995</ele><time>2026-04-19T11:15:28.055Z</time></trkpt><trkpt lat="44.7034233" lon="9.832585"><ele>464.4</ele><time>2026-04-19T11:15:29.054Z</time></trkpt><trkpt lat="44.7033683" lon="9.8325"><ele>468.0</ele><time>2026-04-19T11:15:30.054Z</time></trkpt><trkpt lat="44.7032967" lon="9.8323567"><ele>469.25</ele><time>2026-04-19T11:15:31.054Z</time></trkpt><trkpt lat="44.7032183" lon="9.8322317"><ele>470.5</ele><time>2026-04-19T11:15:32.056Z</time></trkpt><trkpt lat="44.7031383" lon="9.8321117"><ele>471.75</ele><time>2026-04-19T11:15:33.056Z</time></trkpt><trkpt lat="44.70306" lon="9.8319933"><ele>473.0</ele><time>2026-04-19T11:15:34.054Z</time></trkpt><trkpt lat="44.7029817" lon="9.831875"><ele>472.3333333333333</ele><time>2026-04-19T11:15:35.055Z</time></trkpt><trkpt lat="44.70291" lon="9.831775"><ele>471.66666666666663</ele><time>2026-04-19T11:15:36.055Z</time></trkpt><trkpt lat="44.7028433" lon="9.831685"><ele>471.0</ele><time>2026-04-19T11:15:37.056Z</time></trkpt><trkpt lat="44.702775" lon="9.83163"><ele>470.33333333333337</ele><time>2026-04-19T11:15:38.055Z</time></trkpt><trkpt lat="44.7027017" lon="9.8316117"><ele>469.6666666666667</ele><time>2026-04-19T11:15:39.055Z</time></trkpt><trkpt lat="44.70264" lon="9.8316767"><ele>469.0</ele><time>2026-04-19T11:15:40.055Z</time></trkpt><trkpt lat="44.702585" lon="9.83176"><ele>471.2</ele><time>2026-04-19T11:15:41.055Z</time></trkpt><trkpt lat="44.7025333" lon="9.83184"><ele>473.4</ele><time>2026-04-19T11:15:42.055Z</time></trkpt><trkpt lat="44.7024817" lon="9.8318983"><ele>475.6</ele><time>2026-04-19T11:15:43.054Z</time></trkpt><trkpt lat="44.7024183" lon="9.8320317"><ele>477.8</ele><time>2026-04-19T11:15:45.054Z</time></trkpt><trkpt lat="44.702375" lon="9.8321867"><ele>480.0</ele><time>2026-04-19T11:15:47.056Z</time></trkpt><trkpt lat="44.7023167" lon="9.8323233"><ele>480.0</ele><time>2026-04-19T11:15:49.055Z</time></trkpt><trkpt lat="44.7022483" lon="9.8324567"><ele>480.0</ele><time>2026-04-19T11:15:51.054Z</time></trkpt><trkpt lat="44.7022017" lon="9.8325333"><ele>480.0</ele><time>2026-04-19T11:15:52.054Z</time></trkpt><trkpt lat="44.7021533" lon="9.8326117"><ele>480.0</ele><time>2026-04-19T11:15:53.055Z</time></trkpt><trkpt lat="44.702105" lon="9.8326817"><ele>480.0</ele><time>2026-04-19T11:15:54.056Z</time></trkpt><trkpt lat="44.7020367" lon="9.8328067"><ele>480.0</ele><time>2026-04-19T11:15:56.055Z</time></trkpt><trkpt lat="44.7019983" lon="9.8329233"><ele>479.0</ele><time>2026-04-19T11:15:58.055Z</time></trkpt><trkpt lat="44.7019667" lon="9.8330717"><ele>478.0</ele><time>2026-04-19T11:16:00.055Z</time></trkpt><trkpt lat="44.701955" lon="9.8332133"><ele>477.0</ele><time>2026-04-19T11:16:02.055Z</time></trkpt><trkpt lat="44.7019633" lon="9.833365"><ele>476.0</ele><time>2026-04-19T11:16:04.054Z</time></trkpt><trkpt lat="44.7019667" lon="9.8334567"><ele>475.0</ele><time>2026-04-19T11:16:05.055Z</time></trkpt><trkpt lat="44.7019533" lon="9.8335667"><ele>473.83333333333337</ele><time>2026-04-19T11:16:06.055Z</time></trkpt><trkpt lat="44.7019367" lon="9.8336767"><ele>472.6666666666667</ele><time>2026-04-19T11:16:07.056Z</time></trkpt><trkpt lat="44.70191" lon="9.8337983"><ele>471.5</ele><time>2026-04-19T11:16:08.055Z</time></trkpt><trkpt lat="44.701875" lon="9.833915"><ele>470.33333333333337</ele><time>2026-04-19T11:16:09.054Z</time></trkpt><trkpt lat="44.7018383" lon="9.8340233"><ele>469.1666666666667</ele><time>2026-04-19T11:16:10.054Z</time></trkpt><trkpt lat="44.7017967" lon="9.834135"><ele>468.0</ele><time>2026-04-19T11:16:11.055Z</time></trkpt><trkpt lat="44.70177" lon="9.8342467"><ele>470.3333333333333</ele><time>2026-04-19T11:16:12.054Z</time></trkpt><trkpt lat="44.7017533" lon="9.8343567"><ele>472.66666666666663</ele><time>2026-04-19T11:16:13.055Z</time></trkpt><trkpt lat="44.7017333" lon="9.8344733"><ele>475.0</ele><time>2026-04-19T11:16:14.056Z</time></trkpt><trkpt lat="44.7017083" lon="9.8345967"><ele>477.3333333333333</ele><time>2026-04-19T11:16:15.055Z</time></trkpt><trkpt lat="44.7016883" lon="9.834725"><ele>479.66666666666663</ele><time>2026-04-19T11:16:16.056Z</time></trkpt><trkpt lat="44.701675" lon="9.83484"><ele>482.0</ele><time>2026-04-19T11:16:17.054Z</time></trkpt><trkpt lat="44.70167" lon="9.8349467"><ele>481.99999999999994</ele><time>2026-04-19T11:16:18.056Z</time></trkpt><trkpt lat="44.7016617" lon="9.8350467"><ele>482.0</ele><time>2026-04-19T11:16:19.055Z</time></trkpt><trkpt lat="44.7016067" lon="9.83515"><ele>482.0</ele><time>2026-04-19T11:16:21.055Z</time></trkpt><trkpt lat="44.7015017" lon="9.83516"><ele>482.0</ele><time>2026-04-19T11:16:23.055Z</time></trkpt><trkpt lat="44.701435" lon="9.8351083"><ele>481.99999999999994</ele><time>2026-04-19T11:16:24.054Z</time></trkpt><trkpt lat="44.7013567" lon="9.835035"><ele>482.0</ele><time>2026-04-19T11:16:25.054Z</time></trkpt><trkpt lat="44.701275" lon="9.8349517"><ele>482.0</ele><time>2026-04-19T11:16:26.058Z</time></trkpt><trkpt lat="44.7012017" lon="9.8348733"><ele>482.00000000000006</ele><time>2026-04-19T11:16:27.055Z</time></trkpt><trkpt lat="44.70113" lon="9.83481"><ele>482.00000000000006</ele><time>2026-04-19T11:16:28.054Z</time></trkpt><trkpt lat="44.7010633" lon="9.8347633"><ele>482.0</ele><time>2026-04-19T11:16:29.055Z</time></trkpt><trkpt lat="44.7009567" lon="9.83475"><ele>482.0</ele><time>2026-04-19T11:16:31.054Z</time></trkpt><trkpt lat="44.700865" lon="9.8347633"><ele>484.8333333333333</ele><time>2026-04-19T11:16:32.054Z</time></trkpt><trkpt lat="44.7007733" lon="9.8348367"><ele>487.66666666666663</ele><time>2026-04-19T11:16:34.055Z</time></trkpt><trkpt lat="44.7006933" lon="9.8349083"><ele>490.5</ele><time>2026-04-19T11:16:36.054Z</time></trkpt><trkpt lat="44.7006333" lon="9.8349567"><ele>493.33333333333337</ele><time>2026-04-19T11:16:37.056Z</time></trkpt><trkpt lat="44.7005783" lon="9.8350083"><ele>496.1666666666667</ele><time>2026-04-19T11:16:38.056Z</time></trkpt><trkpt lat="44.7005217" lon="9.8350517"><ele>499.0</ele><time>2026-04-19T11:16:39.055Z</time></trkpt><trkpt lat="44.7004317" lon="9.83511"><ele>498.1666666666667</ele><time>2026-04-19T11:16:41.055Z</time></trkpt><trkpt lat="44.700375" lon="9.8351567"><ele>497.33333333333337</ele><time>2026-04-19T11:16:43.054Z</time></trkpt><trkpt lat="44.7003933" lon="9.835255"><ele>496.5</ele><time>2026-04-19T11:16:46.054Z</time></trkpt><trkpt lat="44.7003933" lon="9.8353483"><ele>495.66666666666663</ele><time>2026-04-19T11:16:48.055Z</time></trkpt><trkpt lat="44.7003933" lon="9.83547"><ele>494.8333333333333</ele><time>2026-04-19T11:16:50.054Z</time></trkpt><trkpt lat="44.7003933" lon="9.8356333"><ele>494.0</ele><time>2026-04-19T11:16:52.054Z</time></trkpt><trkpt lat="44.7003783" lon="9.8357817"><ele>494.0</ele><time>2026-04-19T11:16:54.055Z</time></trkpt><trkpt lat="44.7003233" lon="9.8359"><ele>494.0</ele><time>2026-04-19T11:16:56.054Z</time></trkpt><trkpt lat="44.7003033" lon="9.8359933"><ele>494.0</ele><time>2026-04-19T11:16:57.055Z</time></trkpt><trkpt lat="44.7002317" lon="9.836145"><ele>494.0</ele><time>2026-04-19T11:16:59.055Z</time></trkpt><trkpt lat="44.700205" lon="9.8362317"><ele>494.0</ele><time>2026-04-19T11:17:00.054Z</time></trkpt><trkpt lat="44.7001617" lon="9.8363767"><ele>495.49999999999994</ele><time>2026-04-19T11:17:02.055Z</time></trkpt><trkpt lat="44.700105" lon="9.83649"><ele>497.0</ele><time>2026-04-19T11:17:04.054Z</time></trkpt><trkpt lat="44.7000417" lon="9.8365483"><ele>498.5</ele><time>2026-04-19T11:17:08.055Z</time></trkpt><trkpt lat="44.700015" lon="9.8366383"><ele>500.0</ele><time>2026-04-19T11:17:10.055Z</time></trkpt><trkpt lat="44.699965" lon="9.83675"><ele>501.49999999999994</ele><time>2026-04-19T11:17:12.054Z</time></trkpt><trkpt lat="44.699905" lon="9.8368783"><ele>503.0</ele><time>2026-04-19T11:17:14.055Z</time></trkpt><trkpt lat="44.6998583" lon="9.8370067"><ele>502.99999999999994</ele><time>2026-04-19T11:17:16.056Z</time></trkpt><trkpt lat="44.6998383" lon="9.83712"><ele>503.0</ele><time>2026-04-19T11:17:18.055Z</time></trkpt><trkpt lat="44.699855" lon="9.837245"><ele>503.0</ele><time>2026-04-19T11:17:20.055Z</time></trkpt><trkpt lat="44.6998833" lon="9.8373683"><ele>503.0</ele><time>2026-04-19T11:17:22.056Z</time></trkpt><trkpt lat="44.69991" lon="9.8375"><ele>502.99999999999994</ele><time>2026-04-19T11:17:24.055Z</time></trkpt><trkpt lat="44.6999217" lon="9.8376"><ele>503.0</ele><time>2026-04-19T11:17:25.055Z</time></trkpt><trkpt lat="44.699925" lon="9.8376917"><ele>503.79999999999995</ele><time>2026-04-19T11:17:26.056Z</time></trkpt><trkpt lat="44.699915" lon="9.8378467"><ele>504.59999999999997</ele><time>2026-04-19T11:17:28.054Z</time></trkpt><trkpt lat="44.6999117" lon="9.838"><ele>505.40000000000003</ele><time>2026-04-19T11:17:30.055Z</time></trkpt><trkpt lat="44.699905" lon="9.83819"><ele>506.20000000000005</ele><time>2026-04-19T11:17:32.055Z</time></trkpt><trkpt lat="44.6999083" lon="9.83829"><ele>507.0</ele><time>2026-04-19T11:17:33.057Z</time></trkpt><trkpt lat="44.6999067" lon="9.8384433"><ele>507.1666666666667</ele><time>2026-04-19T11:17:34.055Z</time></trkpt><trkpt lat="44.69988" lon="9.8385333"><ele>507.33333333333337</ele><time>2026-04-19T11:17:35.055Z</time></trkpt><trkpt lat="44.6998433" lon="9.83865"><ele>507.5</ele><time>2026-04-19T11:17:36.055Z</time></trkpt><trkpt lat="44.6998183" lon="9.8387317"><ele>507.6666666666667</ele><time>2026-04-19T11:17:37.055Z</time></trkpt><trkpt lat="44.6998" lon="9.8388217"><ele>507.83333333333337</ele><time>2026-04-19T11:17:38.055Z</time></trkpt><trkpt lat="44.6997833" lon="9.83892"><ele>508.0</ele><time>2026-04-19T11:17:39.054Z</time></trkpt><trkpt lat="44.6997483" lon="9.8390883"><ele>508.0</ele><time>2026-04-19T11:17:41.055Z</time></trkpt><trkpt lat="44.6997217" lon="9.8392533"><ele>507.99999999999994</ele><time>2026-04-19T11:17:43.054Z</time></trkpt><trkpt lat="44.699685" lon="9.839435"><ele>507.99999999999994</ele><time>2026-04-19T11:17:45.055Z</time></trkpt><trkpt lat="44.6996717" lon="9.8395317"><ele>508.0</ele><time>2026-04-19T11:17:46.054Z</time></trkpt><trkpt lat="44.6996517" lon="9.839635"><ele>508.0</ele><time>2026-04-19T11:17:47.055Z</time></trkpt><trkpt lat="44.699625" lon="9.8397183"><ele>507.83333333333337</ele><time>2026-04-19T11:17:48.055Z</time></trkpt><trkpt lat="44.69961" lon="9.8398133"><ele>507.6666666666667</ele><time>2026-04-19T11:17:49.055Z</time></trkpt><trkpt lat="44.6995983" lon="9.8399133"><ele>507.5</ele><time>2026-04-19T11:17:50.055Z</time></trkpt><trkpt lat="44.6995983" lon="9.8400067"><ele>507.33333333333337</ele><time>2026-04-19T11:17:51.055Z</time></trkpt><trkpt lat="44.699605" lon="9.8400967"><ele>507.1666666666667</ele><time>2026-04-19T11:17:52.055Z</time></trkpt><trkpt lat="44.6996317" lon="9.8402567"><ele>507.0</ele><time>2026-04-19T11:17:54.053Z</time></trkpt><trkpt lat="44.699665" lon="9.840415"><ele>506.8</ele><time>2026-04-19T11:17:56.054Z</time></trkpt><trkpt lat="44.699675" lon="9.8405583"><ele>506.6</ele><time>2026-04-19T11:17:58.054Z</time></trkpt><trkpt lat="44.6996883" lon="9.8406817"><ele>506.40000000000003</ele><time>2026-04-19T11:18:00.055Z</time></trkpt><trkpt lat="44.69973" lon="9.8407767"><ele>506.20000000000005</ele><time>2026-04-19T11:18:02.057Z</time></trkpt><trkpt lat="44.6997917" lon="9.8408867"><ele>506.0</ele><time>2026-04-19T11:18:04.055Z</time></trkpt><trkpt lat="44.6998533" lon="9.841035"><ele>505.3333333333333</ele><time>2026-04-19T11:18:06.055Z</time></trkpt><trkpt lat="44.6998667" lon="9.84115"><ele>504.66666666666663</ele><time>2026-04-19T11:18:08.053Z</time></trkpt><trkpt lat="44.6998567" lon="9.84125"><ele>504.0</ele><time>2026-04-19T11:18:10.054Z</time></trkpt><trkpt lat="44.6997933" lon="9.84135"><ele>503.33333333333337</ele><time>2026-04-19T11:18:12.054Z</time></trkpt><trkpt lat="44.69971" lon="9.8413733"><ele>502.6666666666667</ele><time>2026-04-19T11:18:13.055Z</time></trkpt><trkpt lat="44.69964" lon="9.8413917"><ele>502.0</ele><time>2026-04-19T11:18:14.054Z</time></trkpt><trkpt lat="44.6995733" lon="9.8414017"><ele>502.00000000000006</ele><time>2026-04-19T11:18:15.054Z</time></trkpt><trkpt lat="44.6995" lon="9.8413967"><ele>502.0</ele><time>2026-04-19T11:18:16.054Z</time></trkpt><trkpt lat="44.699425" lon="9.8413667"><ele>502.0</ele><time>2026-04-19T11:18:17.054Z</time></trkpt><trkpt lat="44.69935" lon="9.8413133"><ele>502.0</ele><time>2026-04-19T11:18:18.054Z</time></trkpt><trkpt lat="44.6992783" lon="9.841255"><ele>502.00000000000006</ele><time>2026-04-19T11:18:19.055Z</time></trkpt><trkpt lat="44.6992117" lon="9.8412017"><ele>502.0</ele><time>2026-04-19T11:18:20.054Z</time></trkpt><trkpt lat="44.6991483" lon="9.8411333"><ele>503.00000000000006</ele><time>2026-04-19T11:18:21.055Z</time></trkpt><trkpt lat="44.699095" lon="9.8410583"><ele>504.0</ele><time>2026-04-19T11:18:22.054Z</time></trkpt><trkpt lat="44.6990333" lon="9.8409833"><ele>505.0</ele><time>2026-04-19T11:18:23.054Z</time></trkpt><trkpt lat="44.6989683" lon="9.8409"><ele>506.0</ele><time>2026-04-19T11:18:24.055Z</time></trkpt><trkpt lat="44.698895" lon="9.8408117"><ele>507.00000000000006</ele><time>2026-04-19T11:18:25.054Z</time></trkpt><trkpt lat="44.69883" lon="9.8407433"><ele>508.0</ele><time>2026-04-19T11:18:26.056Z</time></trkpt><trkpt lat="44.69877" lon="9.8406783"><ele>509.57142857142856</ele><time>2026-04-19T11:18:27.055Z</time></trkpt><trkpt lat="44.6987117" lon="9.8406183"><ele>511.1428571428571</ele><time>2026-04-19T11:18:28.055Z</time></trkpt><trkpt lat="44.698655" lon="9.8405567"><ele>512.7142857142857</ele><time>2026-04-19T11:18:29.054Z</time></trkpt><trkpt lat="44.6986017" lon="9.840495"><ele>514.2857142857142</ele><time>2026-04-19T11:18:30.054Z</time></trkpt><trkpt lat="44.6985533" lon="9.840435"><ele>515.8571428571428</ele><time>2026-04-19T11:18:31.054Z</time></trkpt><trkpt lat="44.69851" lon="9.8403667"><ele>517.4285714285714</ele><time>2026-04-19T11:18:32.054Z</time></trkpt><trkpt lat="44.6984283" lon="9.84027"><ele>519.0</ele><time>2026-04-19T11:18:34.056Z</time></trkpt><trkpt lat="44.6983333" lon="9.8402133"><ele>520.0</ele><time>2026-04-19T11:18:36.055Z</time></trkpt><trkpt lat="44.698245" lon="9.84014"><ele>521.0</ele><time>2026-04-19T11:18:38.056Z</time></trkpt><trkpt lat="44.6981433" lon="9.8400517"><ele>522.0</ele><time>2026-04-19T11:18:40.055Z</time></trkpt><trkpt lat="44.698085" lon="9.8400117"><ele>523.0</ele><time>2026-04-19T11:18:41.057Z</time></trkpt><trkpt lat="44.6980267" lon="9.8399767"><ele>524.0</ele><time>2026-04-19T11:18:42.055Z</time></trkpt><trkpt lat="44.6979367" lon="9.839905"><ele>526.4</ele><time>2026-04-19T11:18:44.058Z</time></trkpt><trkpt lat="44.6978267" lon="9.8398283"><ele>528.8</ele><time>2026-04-19T11:18:46.055Z</time></trkpt><trkpt lat="44.6977267" lon="9.8397683"><ele>531.2</ele><time>2026-04-19T11:18:48.055Z</time></trkpt><trkpt lat="44.6976567" lon="9.8397133"><ele>533.6</ele><time>2026-04-19T11:18:50.054Z</time></trkpt><trkpt lat="44.6975667" lon="9.8396483"><ele>536.0</ele><time>2026-04-19T11:18:52.053Z</time></trkpt><trkpt lat="44.6974733" lon="9.839555"><ele>537.6</ele><time>2026-04-19T11:18:54.055Z</time></trkpt><trkpt lat="44.69742" lon="9.8395017"><ele>539.2</ele><time>2026-04-19T11:18:55.055Z</time></trkpt><trkpt lat="44.6973167" lon="9.8394483"><ele>540.8</ele><time>2026-04-19T11:18:57.055Z</time></trkpt><trkpt lat="44.6972417" lon="9.8394117"><ele>542.4</ele><time>2026-04-19T11:18:59.057Z</time></trkpt><trkpt lat="44.6971367" lon="9.839425"><ele>544.0</ele><time>2026-04-19T11:19:01.053Z</time></trkpt><trkpt lat="44.6970433" lon="9.83943"><ele>544.0</ele><time>2026-04-19T11:19:04.054Z</time></trkpt><trkpt lat="44.6969667" lon="9.8393917"><ele>544.0</ele><time>2026-04-19T11:19:06.054Z</time></trkpt><trkpt lat="44.6968883" lon="9.83938"><ele>544.0</ele><time>2026-04-19T11:19:08.055Z</time></trkpt><trkpt lat="44.6968083" lon="9.8394567"><ele>544.0</ele><time>2026-04-19T11:19:11.054Z</time></trkpt><trkpt lat="44.6967583" lon="9.839535"><ele>544.0</ele><time>2026-04-19T11:19:13.055Z</time></trkpt><trkpt lat="44.696705" lon="9.8395917"><ele>544.0</ele><time>2026-04-19T11:19:15.054Z</time></trkpt><trkpt lat="44.6966317" lon="9.8396333"><ele>545.0</ele><time>2026-04-19T11:19:17.053Z</time></trkpt><trkpt lat="44.69656" lon="9.83965"><ele>546.0</ele><time>2026-04-19T11:19:19.054Z</time></trkpt><trkpt lat="44.6964933" lon="9.8396717"><ele>547.0</ele><time>2026-04-19T11:19:21.055Z</time></trkpt><trkpt lat="44.6964033" lon="9.8397017"><ele>548.0</ele><time>2026-04-19T11:19:24.053Z</time></trkpt><trkpt lat="44.69633" lon="9.8397383"><ele>549.0</ele><time>2026-04-19T11:19:26.054Z</time></trkpt><trkpt lat="44.696275" lon="9.839805"><ele>550.0</ele><time>2026-04-19T11:19:28.055Z</time></trkpt><trkpt lat="44.696235" lon="9.8399067"><ele>550.0</ele><time>2026-04-19T11:19:30.057Z</time></trkpt><trkpt lat="44.696205" lon="9.8399883"><ele>550.0</ele><time>2026-04-19T11:19:32.057Z</time></trkpt><trkpt lat="44.6961733" lon="9.8400767"><ele>550.0</ele><time>2026-04-19T11:19:34.053Z</time></trkpt><trkpt lat="44.69614" lon="9.840165"><ele>550.0</ele><time>2026-04-19T11:19:36.054Z</time></trkpt><trkpt lat="44.6960717" lon="9.84023"><ele>550.0</ele><time>2026-04-19T11:19:38.055Z</time></trkpt><trkpt lat="44.6960133" lon="9.8402783"><ele>550.0</ele><time>2026-04-19T11:19:40.054Z</time></trkpt><trkpt lat="44.6959783" lon="9.84036"><ele>550.0</ele><time>2026-04-19T11:19:43.054Z</time></trkpt><trkpt lat="44.6959567" lon="9.8404567"><ele>551.2</ele><time>2026-04-19T11:19:47.054Z</time></trkpt><trkpt lat="44.6959483" lon="9.8405717"><ele>552.4</ele><time>2026-04-19T11:19:49.055Z</time></trkpt><trkpt lat="44.6959367" lon="9.8407"><ele>553.6</ele><time>2026-04-19T11:19:51.053Z</time></trkpt><trkpt lat="44.69592" lon="9.840835"><ele>554.8</ele><time>2026-04-19T11:19:53.055Z</time></trkpt><trkpt lat="44.6958883" lon="9.84098"><ele>556.0</ele><time>2026-04-19T11:19:55.053Z</time></trkpt><trkpt lat="44.6958567" lon="9.8411"><ele>556.0</ele><time>2026-04-19T11:19:57.053Z</time></trkpt><trkpt lat="44.6958467" lon="9.8411933"><ele>556.0</ele><time>2026-04-19T11:19:59.053Z</time></trkpt><trkpt lat="44.695815" lon="9.8412817"><ele>556.0</ele><time>2026-04-19T11:20:01.054Z</time></trkpt><trkpt lat="44.6957533" lon="9.8413533"><ele>556.0</ele><time>2026-04-19T11:20:03.054Z</time></trkpt><trkpt lat="44.695685" lon="9.8413933"><ele>556.0</ele><time>2026-04-19T11:20:05.055Z</time></trkpt><trkpt lat="44.6956233" lon="9.8413683"><ele>556.0</ele><time>2026-04-19T11:20:07.054Z</time></trkpt><trkpt lat="44.6955717" lon="9.8413117"><ele>556.0</ele><time>2026-04-19T11:20:09.054Z</time></trkpt><trkpt lat="44.6955083" lon="9.8412617"><ele>556.0</ele><time>2026-04-19T11:20:11.055Z</time></trkpt><trkpt lat="44.6954383" lon="9.8412317"><ele>556.0</ele><time>2026-04-19T11:20:13.056Z</time></trkpt><trkpt lat="44.6953617" lon="9.8411717"><ele>556.0</ele><time>2026-04-19T11:20:15.054Z</time></trkpt><trkpt lat="44.695265" lon="9.8410883"><ele>556.0</ele><time>2026-04-19T11:20:17.054Z</time></trkpt><trkpt lat="44.6952083" lon="9.8410317"><ele>556.0</ele><time>2026-04-19T11:20:18.054Z</time></trkpt><trkpt lat="44.69511" lon="9.840935"><ele>561.6</ele><time>2026-04-19T11:20:20.056Z</time></trkpt><trkpt lat="44.69501" lon="9.84086"><ele>567.2</ele><time>2026-04-19T11:20:22.055Z</time></trkpt><trkpt lat="44.6948783" lon="9.8407967"><ele>572.8</ele><time>2026-04-19T11:20:24.054Z</time></trkpt><trkpt lat="44.6947667" lon="9.8407917"><ele>578.4</ele><time>2026-04-19T11:20:26.054Z</time></trkpt><trkpt lat="44.6947017" lon="9.8407717"><ele>584.0</ele><time>2026-04-19T11:20:28.056Z</time></trkpt><trkpt lat="44.69464" lon="9.8407017"><ele>584.0</ele><time>2026-04-19T11:20:30.055Z</time></trkpt><trkpt lat="44.69461" lon="9.8405867"><ele>584.0</ele><time>2026-04-19T11:20:32.055Z</time></trkpt><trkpt lat="44.69458" lon="9.8404083"><ele>584.0</ele><time>2026-04-19T11:20:34.055Z</time></trkpt><trkpt lat="44.6945617" lon="9.8402983"><ele>584.0</ele><time>2026-04-19T11:20:35.052Z</time></trkpt><trkpt lat="44.6945267" lon="9.8402083"><ele>584.0</ele><time>2026-04-19T11:20:36.054Z</time></trkpt><trkpt lat="44.69448" lon="9.8400017"><ele>586.8333333333333</ele><time>2026-04-19T11:20:37.055Z</time></trkpt><trkpt lat="44.69442" lon="9.839905"><ele>589.6666666666666</ele><time>2026-04-19T11:20:38.056Z</time></trkpt><trkpt lat="44.6943517" lon="9.83984"><ele>592.5</ele><time>2026-04-19T11:20:39.054Z</time></trkpt><trkpt lat="44.6942883" lon="9.8397883"><ele>595.3333333333334</ele><time>2026-04-19T11:20:40.054Z</time></trkpt><trkpt lat="44.69422" lon="9.8397317"><ele>598.1666666666667</ele><time>2026-04-19T11:20:41.054Z</time></trkpt><trkpt lat="44.6941617" lon="9.8396567"><ele>601.0</ele><time>2026-04-19T11:20:42.054Z</time></trkpt><trkpt lat="44.6940983" lon="9.839565"><ele>601.0</ele><time>2026-04-19T11:20:43.054Z</time></trkpt><trkpt lat="44.6940417" lon="9.8394683"><ele>601.0</ele><time>2026-04-19T11:20:44.055Z</time></trkpt><trkpt lat="44.69399" lon="9.839385"><ele>601.0</ele><time>2026-04-19T11:20:45.055Z</time></trkpt><trkpt lat="44.693945" lon="9.839305"><ele>601.0</ele><time>2026-04-19T11:20:46.055Z</time></trkpt><trkpt lat="44.6939183" lon="9.8392167"><ele>601.0</ele><time>2026-04-19T11:20:47.055Z</time></trkpt><trkpt lat="44.69391" lon="9.8391283"><ele>601.0</ele><time>2026-04-19T11:20:48.055Z</time></trkpt><trkpt lat="44.6938667" lon="9.8389333"><ele>602.8</ele><time>2026-04-19T11:20:50.054Z</time></trkpt><trkpt lat="44.693815" lon="9.838775"><ele>604.6</ele><time>2026-04-19T11:20:52.054Z</time></trkpt><trkpt lat="44.6937333" lon="9.8387067"><ele>606.4</ele><time>2026-04-19T11:20:54.055Z</time></trkpt><trkpt lat="44.69362" lon="9.8386533"><ele>608.2</ele><time>2026-04-19T11:20:56.054Z</time></trkpt><trkpt lat="44.69356" lon="9.838625"><ele>610.0</ele><time>2026-04-19T11:20:57.054Z</time></trkpt><trkpt lat="44.6934867" lon="9.8386017"><ele>612.3333333333334</ele><time>2026-04-19T11:20:58.055Z</time></trkpt><trkpt lat="44.69342" lon="9.8385967"><ele>614.6666666666667</ele><time>2026-04-19T11:20:59.054Z</time></trkpt><trkpt lat="44.6933483" lon="9.8385883"><ele>617.0</ele><time>2026-04-19T11:21:00.055Z</time></trkpt><trkpt lat="44.6932817" lon="9.8385883"><ele>619.3333333333334</ele><time>2026-04-19T11:21:01.054Z</time></trkpt><trkpt lat="44.6931967" lon="9.838595"><ele>621.6666666666666</ele><time>2026-04-19T11:21:02.056Z</time></trkpt><trkpt lat="44.6930733" lon="9.83862"><ele>624.0</ele><time>2026-04-19T11:21:04.054Z</time></trkpt><trkpt lat="44.69295" lon="9.8386367"><ele>624.0</ele><time>2026-04-19T11:21:06.055Z</time></trkpt><trkpt lat="44.6928767" lon="9.838645"><ele>624.0</ele><time>2026-04-19T11:21:07.055Z</time></trkpt><trkpt lat="44.6928117" lon="9.8386517"><ele>624.0</ele><time>2026-04-19T11:21:08.055Z</time></trkpt><trkpt lat="44.692675" lon="9.8386333"><ele>624.0</ele><time>2026-04-19T11:21:10.056Z</time></trkpt><trkpt lat="44.692585" lon="9.838605"><ele>624.0</ele><time>2026-04-19T11:21:11.054Z</time></trkpt><trkpt lat="44.692525" lon="9.8385633"><ele>624.0</ele><time>2026-04-19T11:21:12.055Z</time></trkpt><trkpt lat="44.6924617" lon="9.838535"><ele>626.4</ele><time>2026-04-19T11:21:13.054Z</time></trkpt><trkpt lat="44.6923433" lon="9.8385017"><ele>628.8</ele><time>2026-04-19T11:21:15.054Z</time></trkpt><trkpt lat="44.6922383" lon="9.838515"><ele>631.2</ele><time>2026-04-19T11:21:16.055Z</time></trkpt><trkpt lat="44.6921483" lon="9.8385367"><ele>633.6</ele><time>2026-04-19T11:21:17.054Z</time></trkpt><trkpt lat="44.6920617" lon="9.8385517"><ele>636.0</ele><time>2026-04-19T11:21:18.054Z</time></trkpt><trkpt lat="44.69196" lon="9.8385733"><ele>636.8333333333334</ele><time>2026-04-19T11:21:19.053Z</time></trkpt><trkpt lat="44.69187" lon="9.83861"><ele>637.6666666666666</ele><time>2026-04-19T11:21:20.054Z</time></trkpt><trkpt lat="44.691795" lon="9.8386583"><ele>638.5</ele><time>2026-04-19T11:21:21.053Z</time></trkpt><trkpt lat="44.69172" lon="9.8387283"><ele>639.3333333333333</ele><time>2026-04-19T11:21:22.054Z</time></trkpt><trkpt lat="44.6916667" lon="9.8387883"><ele>640.1666666666666</ele><time>2026-04-19T11:21:23.055Z</time></trkpt><trkpt lat="44.691615" lon="9.8388433"><ele>641.0</ele><time>2026-04-19T11:21:24.054Z</time></trkpt><trkpt lat="44.69152" lon="9.8389317"><ele>641.0</ele><time>2026-04-19T11:21:26.054Z</time></trkpt><trkpt lat="44.691415" lon="9.8389767"><ele>641.0</ele><time>2026-04-19T11:21:28.054Z</time></trkpt><trkpt lat="44.69132" lon="9.8390117"><ele>641.0</ele><time>2026-04-19T11:21:30.055Z</time></trkpt><trkpt lat="44.6912467" lon="9.83907"><ele>641.0</ele><time>2026-04-19T11:21:32.054Z</time></trkpt><trkpt lat="44.6911717" lon="9.8391883"><ele>641.0</ele><time>2026-04-19T11:21:34.055Z</time></trkpt><trkpt lat="44.691115" lon="9.8392867"><ele>643.0</ele><time>2026-04-19T11:21:35.055Z</time></trkpt><trkpt lat="44.6910517" lon="9.8393967"><ele>645.0</ele><time>2026-04-19T11:21:36.055Z</time></trkpt><trkpt lat="44.6909867" lon="9.8394967"><ele>647.0</ele><time>2026-04-19T11:21:37.054Z</time></trkpt><trkpt lat="44.6909183" lon="9.8395833"><ele>649.0</ele><time>2026-04-19T11:21:38.054Z</time></trkpt><trkpt lat="44.6908517" lon="9.839655"><ele>651.0</ele><time>2026-04-19T11:21:39.054Z</time></trkpt><trkpt lat="44.6907883" lon="9.8397133"><ele>653.0</ele><time>2026-04-19T11:21:40.054Z</time></trkpt><trkpt lat="44.6907233" lon="9.8397567"><ele>653.0</ele><time>2026-04-19T11:21:41.055Z</time></trkpt><trkpt lat="44.6906517" lon="9.8397783"><ele>653.0</ele><time>2026-04-19T11:21:42.054Z</time></trkpt><trkpt lat="44.69058" lon="9.8397583"><ele>653.0</ele><time>2026-04-19T11:21:43.055Z</time></trkpt><trkpt lat="44.6905067" lon="9.8397317"><ele>653.0</ele><time>2026-04-19T11:21:44.054Z</time></trkpt><trkpt lat="44.690445" lon="9.8397117"><ele>653.0</ele><time>2026-04-19T11:21:45.055Z</time></trkpt><trkpt lat="44.69033" lon="9.8396483"><ele>653.0</ele><time>2026-04-19T11:21:47.055Z</time></trkpt><trkpt lat="44.6902283" lon="9.8395417"><ele>655.0</ele><time>2026-04-19T11:21:49.056Z</time></trkpt><trkpt lat="44.6901317" lon="9.839445"><ele>657.0</ele><time>2026-04-19T11:21:51.053Z</time></trkpt><trkpt lat="44.690065" lon="9.8393517"><ele>659.0</ele><time>2026-04-19T11:21:53.055Z</time></trkpt><trkpt lat="44.6899883" lon="9.839225"><ele>661.0</ele><time>2026-04-19T11:21:55.056Z</time></trkpt><trkpt lat="44.6899367" lon="9.8391517"><ele>663.0</ele><time>2026-04-19T11:21:56.055Z</time></trkpt><trkpt lat="44.68987" lon="9.8390433"><ele>663.6666666666666</ele><time>2026-04-19T11:21:58.056Z</time></trkpt><trkpt lat="44.6898817" lon="9.8389233"><ele>664.3333333333334</ele><time>2026-04-19T11:22:00.058Z</time></trkpt><trkpt lat="44.689915" lon="9.838825"><ele>665.0</ele><time>2026-04-19T11:22:01.055Z</time></trkpt><trkpt lat="44.6899417" lon="9.8387267"><ele>665.6666666666667</ele><time>2026-04-19T11:22:02.055Z</time></trkpt><trkpt lat="44.6899617" lon="9.83862"><ele>666.3333333333334</ele><time>2026-04-19T11:22:03.054Z</time></trkpt><trkpt lat="44.6899683" lon="9.83852"><ele>667.0</ele><time>2026-04-19T11:22:04.054Z</time></trkpt><trkpt lat="44.6899183" lon="9.8384367"><ele>668.6</ele><time>2026-04-19T11:22:05.053Z</time></trkpt><trkpt lat="44.68987" lon="9.838345"><ele>670.2</ele><time>2026-04-19T11:22:06.053Z</time></trkpt><trkpt lat="44.689825" lon="9.83823"><ele>671.8</ele><time>2026-04-19T11:22:07.055Z</time></trkpt><trkpt lat="44.68978" lon="9.8380967"><ele>673.4</ele><time>2026-04-19T11:22:08.054Z</time></trkpt><trkpt lat="44.68974" lon="9.8379833"><ele>675.0</ele><time>2026-04-19T11:22:09.055Z</time></trkpt><trkpt lat="44.689705" lon="9.8378567"><ele>675.0</ele><time>2026-04-19T11:22:10.055Z</time></trkpt><trkpt lat="44.6896783" lon="9.8377233"><ele>675.0</ele><time>2026-04-19T11:22:11.054Z</time></trkpt><trkpt lat="44.6896767" lon="9.8375783"><ele>675.0</ele><time>2026-04-19T11:22:12.054Z</time></trkpt><trkpt lat="44.6896833" lon="9.83742"><ele>675.0</ele><time>2026-04-19T11:22:13.056Z</time></trkpt><trkpt lat="44.6896883" lon="9.83726"><ele>675.0</ele><time>2026-04-19T11:22:14.056Z</time></trkpt><trkpt lat="44.689695" lon="9.8371117"><ele>676.6666666666666</ele><time>2026-04-19T11:22:15.054Z</time></trkpt><trkpt lat="44.6896983" lon="9.836985"><ele>678.3333333333334</ele><time>2026-04-19T11:22:16.054Z</time></trkpt><trkpt lat="44.6897033" lon="9.8368733"><ele>680.0</ele><time>2026-04-19T11:22:17.055Z</time></trkpt><trkpt lat="44.68971" lon="9.8367783"><ele>681.6666666666667</ele><time>2026-04-19T11:22:18.054Z</time></trkpt><trkpt lat="44.6897017" lon="9.8366467"><ele>683.3333333333334</ele><time>2026-04-19T11:22:20.054Z</time></trkpt><trkpt lat="44.6896583" lon="9.83652"><ele>685.0</ele><time>2026-04-19T11:22:22.054Z</time></trkpt><trkpt lat="44.6896383" lon="9.836425"><ele>686.2</ele><time>2026-04-19T11:22:23.055Z</time></trkpt><trkpt lat="44.68962" lon="9.8363267"><ele>687.4</ele><time>2026-04-19T11:22:24.055Z</time></trkpt><trkpt lat="44.6896067" lon="9.8362"><ele>688.5999999999999</ele><time>2026-04-19T11:22:25.053Z</time></trkpt><trkpt lat="44.6896" lon="9.8360583"><ele>689.8</ele><time>2026-04-19T11:22:26.055Z</time></trkpt><trkpt lat="44.6895967" lon="9.8359167"><ele>691.0</ele><time>2026-04-19T11:22:27.054Z</time></trkpt><trkpt lat="44.689585" lon="9.8357833"><ele>691.4</ele><time>2026-04-19T11:22:28.054Z</time></trkpt><trkpt lat="44.6895767" lon="9.8356417"><ele>691.8</ele><time>2026-04-19T11:22:29.055Z</time></trkpt><trkpt lat="44.68956" lon="9.8355083"><ele>692.1999999999999</ele><time>2026-04-19T11:22:30.055Z</time></trkpt><trkpt lat="44.6895383" lon="9.8353817"><ele>692.5999999999999</ele><time>2026-04-19T11:22:31.054Z</time></trkpt><trkpt lat="44.689515" lon="9.835255"><ele>693.0</ele><time>2026-04-19T11:22:32.055Z</time></trkpt><trkpt lat="44.6894933" lon="9.8351333"><ele>693.8333333333334</ele><time>2026-04-19T11:22:33.055Z</time></trkpt><trkpt lat="44.6894683" lon="9.835025"><ele>694.6666666666666</ele><time>2026-04-19T11:22:34.054Z</time></trkpt><trkpt lat="44.68944" lon="9.83492"><ele>695.5</ele><time>2026-04-19T11:22:35.055Z</time></trkpt><trkpt lat="44.6894167" lon="9.8348283"><ele>696.3333333333333</ele><time>2026-04-19T11:22:36.055Z</time></trkpt><trkpt lat="44.689395" lon="9.834735"><ele>697.1666666666666</ele><time>2026-04-19T11:22:37.054Z</time></trkpt><trkpt lat="44.6893817" lon="9.8346383"><ele>698.0</ele><time>2026-04-19T11:22:38.056Z</time></trkpt><trkpt lat="44.68934" lon="9.8344817"><ele>699.3333333333333</ele><time>2026-04-19T11:22:40.054Z</time></trkpt><trkpt lat="44.6893017" lon="9.83439"><ele>700.6666666666666</ele><time>2026-04-19T11:22:41.054Z</time></trkpt><trkpt lat="44.689245" lon="9.8342967"><ele>702.0</ele><time>2026-04-19T11:22:42.056Z</time></trkpt><trkpt lat="44.68918" lon="9.8342017"><ele>703.3333333333334</ele><time>2026-04-19T11:22:43.055Z</time></trkpt><trkpt lat="44.68912" lon="9.8341033"><ele>704.6666666666667</ele><time>2026-04-19T11:22:44.054Z</time></trkpt><trkpt lat="44.6890467" lon="9.8340233"><ele>706.0</ele><time>2026-04-19T11:22:45.055Z</time></trkpt><trkpt lat="44.6889817" lon="9.833945"><ele>707.0</ele><time>2026-04-19T11:22:46.054Z</time></trkpt><trkpt lat="44.6889283" lon="9.8338817"><ele>708.0</ele><time>2026-04-19T11:22:47.055Z</time></trkpt><trkpt lat="44.6888583" lon="9.8337517"><ele>709.0</ele><time>2026-04-19T11:22:49.055Z</time></trkpt><trkpt lat="44.6888317" lon="9.8336667"><ele>710.0</ele><time>2026-04-19T11:22:50.054Z</time></trkpt><trkpt lat="44.68882" lon="9.8335667"><ele>711.0</ele><time>2026-04-19T11:22:51.056Z</time></trkpt><trkpt lat="44.6888167" lon="9.8334417"><ele>712.0</ele><time>2026-04-19T11:22:52.055Z</time></trkpt><trkpt lat="44.688815" lon="9.83332"><ele>712.8333333333334</ele><time>2026-04-19T11:22:53.057Z</time></trkpt><trkpt lat="44.688805" lon="9.8331983"><ele>713.6666666666667</ele><time>2026-04-19T11:22:54.055Z</time></trkpt><trkpt lat="44.6887917" lon="9.83308"><ele>714.5</ele><time>2026-04-19T11:22:55.055Z</time></trkpt><trkpt lat="44.6887783" lon="9.832965"><ele>715.3333333333334</ele><time>2026-04-19T11:22:56.055Z</time></trkpt><trkpt lat="44.688765" lon="9.832855"><ele>716.1666666666666</ele><time>2026-04-19T11:22:57.053Z</time></trkpt><trkpt lat="44.6887517" lon="9.8327533"><ele>717.0</ele><time>2026-04-19T11:22:58.055Z</time></trkpt><trkpt lat="44.6887367" lon="9.8326617"><ele>718.4000000000001</ele><time>2026-04-19T11:22:59.055Z</time></trkpt><trkpt lat="44.688725" lon="9.83252"><ele>719.8000000000001</ele><time>2026-04-19T11:23:01.055Z</time></trkpt><trkpt lat="44.6887333" lon="9.8323717"><ele>721.2</ele><time>2026-04-19T11:23:03.055Z</time></trkpt><trkpt lat="44.6887233" lon="9.8322083"><ele>722.6</ele><time>2026-04-19T11:23:05.054Z</time></trkpt><trkpt lat="44.688685" lon="9.8320667"><ele>724.0</ele><time>2026-04-19T11:23:07.053Z</time></trkpt><trkpt lat="44.6886533" lon="9.8319183"><ele>724.6</ele><time>2026-04-19T11:23:09.054Z</time></trkpt><trkpt lat="44.6886217" lon="9.8317433"><ele>725.2</ele><time>2026-04-19T11:23:11.055Z</time></trkpt><trkpt lat="44.6886067" lon="9.8316433"><ele>725.8000000000001</ele><time>2026-04-19T11:23:12.053Z</time></trkpt><trkpt lat="44.6885967" lon="9.8315383"><ele>726.4000000000001</ele><time>2026-04-19T11:23:13.055Z</time></trkpt><trkpt lat="44.6885733" lon="9.8313733"><ele>727.0</ele><time>2026-04-19T11:23:15.055Z</time></trkpt><trkpt lat="44.6885717" lon="9.8312683"><ele>727.0</ele><time>2026-04-19T11:23:16.056Z</time></trkpt><trkpt lat="44.6885767" lon="9.8311083"><ele>727.0</ele><time>2026-04-19T11:23:18.054Z</time></trkpt><trkpt lat="44.68863" lon="9.8309483"><ele>727.0</ele><time>2026-04-19T11:23:20.055Z</time></trkpt><trkpt lat="44.6886633" lon="9.8308417"><ele>727.0</ele><time>2026-04-19T11:23:21.054Z</time></trkpt><trkpt lat="44.68869" lon="9.8307417"><ele>727.0</ele><time>2026-04-19T11:23:22.054Z</time></trkpt><trkpt lat="44.6887" lon="9.8306517"><ele>729.0</ele><time>2026-04-19T11:23:23.054Z</time></trkpt><trkpt lat="44.6886983" lon="9.830545"><ele>731.0</ele><time>2026-04-19T11:23:24.054Z</time></trkpt><trkpt lat="44.68868" lon="9.83043"><ele>733.0</ele><time>2026-04-19T11:23:25.055Z</time></trkpt><trkpt lat="44.688645" lon="9.830295"><ele>735.0</ele><time>2026-04-19T11:23:26.055Z</time></trkpt><trkpt lat="44.6886083" lon="9.8301483"><ele>737.0</ele><time>2026-04-19T11:23:27.055Z</time></trkpt><trkpt lat="44.688575" lon="9.8300167"><ele>738.1666666666666</ele><time>2026-04-19T11:23:28.055Z</time></trkpt><trkpt lat="44.6885483" lon="9.8298967"><ele>739.3333333333333</ele><time>2026-04-19T11:23:29.056Z</time></trkpt><trkpt lat="44.68853" lon="9.82978"><ele>740.5</ele><time>2026-04-19T11:23:30.056Z</time></trkpt><trkpt lat="44.68851" lon="9.8296767"><ele>741.6666666666666</ele><time>2026-04-19T11:23:31.054Z</time></trkpt><trkpt lat="44.6884867" lon="9.82958"><ele>742.8333333333334</ele><time>2026-04-19T11:23:32.055Z</time></trkpt><trkpt lat="44.68846" lon="9.82946"><ele>744.0</ele><time>2026-04-19T11:23:33.054Z</time></trkpt><trkpt lat="44.6884167" lon="9.82934"><ele>745.6666666666666</ele><time>2026-04-19T11:23:35.054Z</time></trkpt><trkpt lat="44.6884433" lon="9.8292483"><ele>747.3333333333334</ele><time>2026-04-19T11:23:37.054Z</time></trkpt><trkpt lat="44.68853" lon="9.8291583"><ele>749.0</ele><time>2026-04-19T11:23:39.055Z</time></trkpt><trkpt lat="44.6885717" lon="9.82908"><ele>750.6666666666667</ele><time>2026-04-19T11:23:40.054Z</time></trkpt><trkpt lat="44.6886" lon="9.82899"><ele>752.3333333333334</ele><time>2026-04-19T11:23:41.053Z</time></trkpt><trkpt lat="44.68862" lon="9.8288817"><ele>754.0</ele><time>2026-04-19T11:23:42.054Z</time></trkpt><trkpt lat="44.6886333" lon="9.8287617"><ele>754.8333333333334</ele><time>2026-04-19T11:23:43.054Z</time></trkpt><trkpt lat="44.6886433" lon="9.8286467"><ele>755.6666666666667</ele><time>2026-04-19T11:23:44.054Z</time></trkpt><trkpt lat="44.688645" lon="9.828525"><ele>756.5</ele><time>2026-04-19T11:23:45.053Z</time></trkpt><trkpt lat="44.6886483" lon="9.8284067"><ele>757.3333333333334</ele><time>2026-04-19T11:23:46.056Z</time></trkpt><trkpt lat="44.6886533" lon="9.8282867"><ele>758.1666666666666</ele><time>2026-04-19T11:23:47.056Z</time></trkpt><trkpt lat="44.6886633" lon="9.8281733"><ele>759.0</ele><time>2026-04-19T11:23:48.054Z</time></trkpt><trkpt lat="44.688675" lon="9.8280617"><ele>760.3333333333334</ele><time>2026-04-19T11:23:49.055Z</time></trkpt><trkpt lat="44.6886767" lon="9.82795"><ele>761.6666666666666</ele><time>2026-04-19T11:23:50.055Z</time></trkpt><trkpt lat="44.6886717" lon="9.8278333"><ele>763.0</ele><time>2026-04-19T11:23:51.054Z</time></trkpt><trkpt lat="44.6886583" lon="9.827715"><ele>764.3333333333333</ele><time>2026-04-19T11:23:52.055Z</time></trkpt><trkpt lat="44.6886433" lon="9.82759"><ele>765.6666666666666</ele><time>2026-04-19T11:23:53.054Z</time></trkpt><trkpt lat="44.688625" lon="9.8274683"><ele>767.0</ele><time>2026-04-19T11:23:54.055Z</time></trkpt><trkpt lat="44.6886117" lon="9.8273567"><ele>767.1666666666666</ele><time>2026-04-19T11:23:55.054Z</time></trkpt><trkpt lat="44.6886017" lon="9.8272417"><ele>767.3333333333333</ele><time>2026-04-19T11:23:56.055Z</time></trkpt><trkpt lat="44.6886017" lon="9.8271517"><ele>767.5</ele><time>2026-04-19T11:23:57.054Z</time></trkpt><trkpt lat="44.6886283" lon="9.8270417"><ele>767.6666666666666</ele><time>2026-04-19T11:25:00.054Z</time></trkpt><trkpt lat="44.68862" lon="9.8269083"><ele>767.8333333333334</ele><time>2026-04-19T11:25:03.054Z</time></trkpt><trkpt lat="44.688615" lon="9.8267967"><ele>768.0</ele><time>2026-04-19T11:25:05.054Z</time></trkpt><trkpt lat="44.6885883" lon="9.826665"><ele>768.4</ele><time>2026-04-19T11:25:07.054Z</time></trkpt><trkpt lat="44.68856" lon="9.8265267"><ele>768.8</ele><time>2026-04-19T11:25:09.054Z</time></trkpt><trkpt lat="44.688545" lon="9.8264"><ele>769.2</ele><time>2026-04-19T11:25:11.055Z</time></trkpt><trkpt lat="44.6885267" lon="9.8262567"><ele>769.6</ele><time>2026-04-19T11:25:13.053Z</time></trkpt><trkpt lat="44.6884783" lon="9.8261517"><ele>770.0</ele><time>2026-04-19T11:25:15.055Z</time></trkpt><trkpt lat="44.6884033" lon="9.8261"><ele>770.0</ele><time>2026-04-19T11:25:18.054Z</time></trkpt><trkpt lat="44.68836" lon="9.8259883"><ele>770.0</ele><time>2026-04-19T11:25:22.054Z</time></trkpt><trkpt lat="44.6883417" lon="9.8258583"><ele>770.0</ele><time>2026-04-19T11:25:24.054Z</time></trkpt><trkpt lat="44.6882883" lon="9.8257367"><ele>770.0</ele><time>2026-04-19T11:25:26.055Z</time></trkpt><trkpt lat="44.6882267" lon="9.8255817"><ele>770.0</ele><time>2026-04-19T11:25:28.053Z</time></trkpt><trkpt lat="44.6882" lon="9.8254983"><ele>770.6</ele><time>2026-04-19T11:25:29.055Z</time></trkpt><trkpt lat="44.6881367" lon="9.8253567"><ele>771.2</ele><time>2026-04-19T11:25:31.055Z</time></trkpt><trkpt lat="44.688085" lon="9.8252417"><ele>771.8</ele><time>2026-04-19T11:25:33.054Z</time></trkpt><trkpt lat="44.688075" lon="9.8251167"><ele>772.4</ele><time>2026-04-19T11:25:36.056Z</time></trkpt><trkpt lat="44.6880733" lon="9.825025"><ele>773.0</ele><time>2026-04-19T11:25:39.054Z</time></trkpt><trkpt lat="44.6880767" lon="9.8249133"><ele>773.5999999999999</ele><time>2026-04-19T11:25:43.055Z</time></trkpt><trkpt lat="44.6881233" lon="9.8248117"><ele>774.1999999999999</ele><time>2026-04-19T11:25:46.053Z</time></trkpt><trkpt lat="44.6881117" lon="9.824675"><ele>774.8</ele><time>2026-04-19T11:25:49.054Z</time></trkpt><trkpt lat="44.6880867" lon="9.8245217"><ele>775.4</ele><time>2026-04-19T11:25:51.056Z</time></trkpt><trkpt lat="44.688075" lon="9.824425"><ele>776.0</ele><time>2026-04-19T11:25:52.054Z</time></trkpt><trkpt lat="44.6880433" lon="9.824255"><ele>776.1999999999999</ele><time>2026-04-19T11:25:54.055Z</time></trkpt><trkpt lat="44.6880483" lon="9.8240933"><ele>776.4</ele><time>2026-04-19T11:25:55.054Z</time></trkpt><trkpt lat="44.688005" lon="9.8239617"><ele>776.6</ele><time>2026-04-19T11:25:57.055Z</time></trkpt><trkpt lat="44.68792" lon="9.82389"><ele>776.8</ele><time>2026-04-19T11:25:59.053Z</time></trkpt><trkpt lat="44.6878567" lon="9.8238783"><ele>777.0</ele><time>2026-04-19T11:26:00.053Z</time></trkpt><trkpt lat="44.687745" lon="9.8238533"><ele>777.2</ele><time>2026-04-19T11:26:02.054Z</time></trkpt><trkpt lat="44.6876483" lon="9.8238033"><ele>777.4000000000001</ele><time>2026-04-19T11:26:04.053Z</time></trkpt><trkpt lat="44.687535" lon="9.8237317"><ele>777.5999999999999</ele><time>2026-04-19T11:26:06.056Z</time></trkpt><trkpt lat="44.6874733" lon="9.8236717"><ele>777.8</ele><time>2026-04-19T11:26:07.055Z</time></trkpt><trkpt lat="44.6874217" lon="9.8236017"><ele>778.0</ele><time>2026-04-19T11:26:08.055Z</time></trkpt><trkpt lat="44.687335" lon="9.8235267"><ele>777.4999999999999</ele><time>2026-04-19T11:26:09.055Z</time></trkpt><trkpt lat="44.6872833" lon="9.8234683"><ele>777.0</ele><time>2026-04-19T11:26:10.054Z</time></trkpt><trkpt lat="44.68725" lon="9.8233917"><ele>776.5</ele><time>2026-04-19T11:26:12.055Z</time></trkpt><trkpt lat="44.6871917" lon="9.8233167"><ele>776.0</ele><time>2026-04-19T11:27:33.055Z</time></trkpt><trkpt lat="44.6871733" lon="9.8231633"><ele>775.4999999999999</ele><time>2026-04-19T11:27:35.054Z</time></trkpt><trkpt lat="44.6871717" lon="9.823005"><ele>775.0</ele><time>2026-04-19T11:27:37.054Z</time></trkpt><trkpt lat="44.687175" lon="9.822835"><ele>775.0</ele><time>2026-04-19T11:27:39.054Z</time></trkpt><trkpt lat="44.6871633" lon="9.8226983"><ele>775.0</ele><time>2026-04-19T11:27:41.054Z</time></trkpt><trkpt lat="44.6871433" lon="9.82259"><ele>775.0</ele><time>2026-04-19T11:27:43.054Z</time></trkpt><trkpt lat="44.6871167" lon="9.822345"><ele>775.0</ele><time>2026-04-19T11:27:58.054Z</time></trkpt><trkpt lat="44.6871117" lon="9.822185"><ele>774.6</ele><time>2026-04-19T11:40:35.054Z</time></trkpt><trkpt lat="44.6870533" lon="9.8220033"><ele>774.2</ele><time>2026-04-19T11:40:37.053Z</time></trkpt><trkpt lat="44.6869883" lon="9.8218883"><ele>773.8</ele><time>2026-04-19T11:40:38.054Z</time></trkpt><trkpt lat="44.6869333" lon="9.8218"><ele>773.4</ele><time>2026-04-19T11:40:39.052Z</time></trkpt><trkpt lat="44.6868717" lon="9.82166"><ele>773.0</ele><time>2026-04-19T11:40:41.053Z</time></trkpt><trkpt lat="44.6868117" lon="9.82151"><ele>773.0</ele><time>2026-04-19T11:40:43.053Z</time></trkpt><trkpt lat="44.6867667" lon="9.82141"><ele>773.0</ele><time>2026-04-19T11:40:44.056Z</time></trkpt><trkpt lat="44.6867133" lon="9.8212967"><ele>773.0</ele><time>2026-04-19T11:40:45.054Z</time></trkpt><trkpt lat="44.686655" lon="9.82119"><ele>773.0</ele><time>2026-04-19T11:40:46.054Z</time></trkpt><trkpt lat="44.68659" lon="9.8210967"><ele>773.0</ele><time>2026-04-19T11:40:47.054Z</time></trkpt><trkpt lat="44.6865183" lon="9.8210067"><ele>774.0000000000001</ele><time>2026-04-19T11:40:48.054Z</time></trkpt><trkpt lat="44.6864383" lon="9.820905"><ele>775.0</ele><time>2026-04-19T11:40:49.055Z</time></trkpt><trkpt lat="44.6863667" lon="9.82081"><ele>776.0</ele><time>2026-04-19T11:40:50.056Z</time></trkpt><trkpt lat="44.6863" lon="9.8207283"><ele>777.0</ele><time>2026-04-19T11:40:51.055Z</time></trkpt><trkpt lat="44.686245" lon="9.8206583"><ele>778.0000000000001</ele><time>2026-04-19T11:40:52.055Z</time></trkpt><trkpt lat="44.6861867" lon="9.8205867"><ele>779.0</ele><time>2026-04-19T11:40:53.055Z</time></trkpt><trkpt lat="44.6861333" lon="9.8205233"><ele>778.6</ele><time>2026-04-19T11:40:54.054Z</time></trkpt><trkpt lat="44.686085" lon="9.8204567"><ele>778.2</ele><time>2026-04-19T11:40:55.054Z</time></trkpt><trkpt lat="44.6860267" lon="9.820295"><ele>777.8000000000001</ele><time>2026-04-19T11:40:57.054Z</time></trkpt><trkpt lat="44.6860033" lon="9.820205"><ele>777.4000000000001</ele><time>2026-04-19T11:40:58.053Z</time></trkpt><trkpt lat="44.6859967" lon="9.8200433"><ele>777.0</ele><time>2026-04-19T11:41:00.054Z</time></trkpt><trkpt lat="44.6860067" lon="9.8198867"><ele>779.0</ele><time>2026-04-19T11:41:02.053Z</time></trkpt><trkpt lat="44.6859733" lon="9.8197267"><ele>781.0</ele><time>2026-04-19T11:41:04.054Z</time></trkpt><trkpt lat="44.685935" lon="9.8196433"><ele>783.0</ele><time>2026-04-19T11:41:05.053Z</time></trkpt><trkpt lat="44.685895" lon="9.8195667"><ele>785.0</ele><time>2026-04-19T11:41:06.055Z</time></trkpt><trkpt lat="44.68584" lon="9.8194967"><ele>787.0</ele><time>2026-04-19T11:41:07.054Z</time></trkpt><trkpt lat="44.6857717" lon="9.8194283"><ele>789.0</ele><time>2026-04-19T11:41:08.053Z</time></trkpt><trkpt lat="44.685705" lon="9.8193583"><ele>790.1666666666666</ele><time>2026-04-19T11:41:09.054Z</time></trkpt><trkpt lat="44.6856467" lon="9.8192767"><ele>791.3333333333333</ele><time>2026-04-19T11:41:10.053Z</time></trkpt><trkpt lat="44.6855967" lon="9.819185"><ele>792.5</ele><time>2026-04-19T11:41:11.053Z</time></trkpt><trkpt lat="44.6855583" lon="9.8190733"><ele>793.6666666666666</ele><time>2026-04-19T11:41:12.053Z</time></trkpt><trkpt lat="44.6855183" lon="9.8189533"><ele>794.8333333333333</ele><time>2026-04-19T11:41:13.052Z</time></trkpt><trkpt lat="44.68547" lon="9.8188383"><ele>796.0</ele><time>2026-04-19T11:41:14.054Z</time></trkpt><trkpt lat="44.685415" lon="9.8187267"><ele>795.9999999999999</ele><time>2026-04-19T11:41:15.054Z</time></trkpt><trkpt lat="44.6853667" lon="9.8186183"><ele>796.0</ele><time>2026-04-19T11:41:16.055Z</time></trkpt><trkpt lat="44.6853217" lon="9.8185217"><ele>796.0</ele><time>2026-04-19T11:41:17.055Z</time></trkpt><trkpt lat="44.68528" lon="9.81844"><ele>796.0</ele><time>2026-04-19T11:41:18.054Z</time></trkpt><trkpt lat="44.6852383" lon="9.8183583"><ele>795.9999999999999</ele><time>2026-04-19T11:41:19.055Z</time></trkpt><trkpt lat="44.6851917" lon="9.8182817"><ele>796.0</ele><time>2026-04-19T11:41:20.054Z</time></trkpt><trkpt lat="44.68513" lon="9.8182"><ele>797.1666666666666</ele><time>2026-04-19T11:41:21.054Z</time></trkpt><trkpt lat="44.685055" lon="9.81812"><ele>798.3333333333333</ele><time>2026-04-19T11:41:22.054Z</time></trkpt><trkpt lat="44.68498" lon="9.8180467"><ele>799.5</ele><time>2026-04-19T11:41:23.054Z</time></trkpt><trkpt lat="44.68491" lon="9.8179717"><ele>800.6666666666667</ele><time>2026-04-19T11:41:24.054Z</time></trkpt><trkpt lat="44.6848483" lon="9.817885"><ele>801.8333333333334</ele><time>2026-04-19T11:41:25.053Z</time></trkpt><trkpt lat="44.6847983" lon="9.8177933"><ele>803.0</ele><time>2026-04-19T11:41:26.053Z</time></trkpt><trkpt lat="44.6847533" lon="9.817705"><ele>803.7142857142857</ele><time>2026-04-19T11:41:27.052Z</time></trkpt><trkpt lat="44.6847117" lon="9.8176133"><ele>804.4285714285714</ele><time>2026-04-19T11:41:28.053Z</time></trkpt><trkpt lat="44.68466" lon="9.8175333"><ele>805.1428571428571</ele><time>2026-04-19T11:41:29.053Z</time></trkpt><trkpt lat="44.6845983" lon="9.8174533"><ele>805.8571428571429</ele><time>2026-04-19T11:41:30.053Z</time></trkpt><trkpt lat="44.6845483" lon="9.8173783"><ele>806.5714285714286</ele><time>2026-04-19T11:41:31.054Z</time></trkpt><trkpt lat="44.6845117" lon="9.8173017"><ele>807.2857142857142</ele><time>2026-04-19T11:41:32.055Z</time></trkpt><trkpt lat="44.684465" lon="9.8172383"><ele>808.0</ele><time>2026-04-19T11:41:33.056Z</time></trkpt><trkpt lat="44.6843683" lon="9.817155"><ele>808.3333333333333</ele><time>2026-04-19T11:41:35.056Z</time></trkpt><trkpt lat="44.68431" lon="9.817105"><ele>808.6666666666666</ele><time>2026-04-19T11:41:36.055Z</time></trkpt><trkpt lat="44.6842367" lon="9.8170467"><ele>809.0</ele><time>2026-04-19T11:41:37.055Z</time></trkpt><trkpt lat="44.6841633" lon="9.8169933"><ele>809.3333333333333</ele><time>2026-04-19T11:41:38.055Z</time></trkpt><trkpt lat="44.68409" lon="9.81696"><ele>809.6666666666666</ele><time>2026-04-19T11:41:39.054Z</time></trkpt><trkpt lat="44.6840267" lon="9.8169217"><ele>810.0</ele><time>2026-04-19T11:41:40.056Z</time></trkpt><trkpt lat="44.683925" lon="9.8168317"><ele>811.8333333333334</ele><time>2026-04-19T11:41:42.055Z</time></trkpt><trkpt lat="44.6838667" lon="9.8167933"><ele>813.6666666666667</ele><time>2026-04-19T11:41:43.055Z</time></trkpt><trkpt lat="44.6837717" lon="9.8166933"><ele>815.5</ele><time>2026-04-19T11:41:45.054Z</time></trkpt><trkpt lat="44.6837167" lon="9.8166317"><ele>817.3333333333334</ele><time>2026-04-19T11:41:46.054Z</time></trkpt><trkpt lat="44.68366" lon="9.8165667"><ele>819.1666666666667</ele><time>2026-04-19T11:41:47.053Z</time></trkpt><trkpt lat="44.683605" lon="9.8165133"><ele>821.0</ele><time>2026-04-19T11:41:48.055Z</time></trkpt><trkpt lat="44.683515" lon="9.816425"><ele>821.1999999999999</ele><time>2026-04-19T11:41:50.054Z</time></trkpt><trkpt lat="44.6834567" lon="9.8163117"><ele>821.4</ele><time>2026-04-19T11:41:52.055Z</time></trkpt><trkpt lat="44.68341" lon="9.8161483"><ele>821.6</ele><time>2026-04-19T11:41:54.054Z</time></trkpt><trkpt lat="44.68337" lon="9.8160567"><ele>821.8</ele><time>2026-04-19T11:41:55.055Z</time></trkpt><trkpt lat="44.683315" lon="9.8159617"><ele>822.0</ele><time>2026-04-19T11:41:56.055Z</time></trkpt><trkpt lat="44.6832433" lon="9.8158783"><ele>822.8333333333334</ele><time>2026-04-19T11:41:57.053Z</time></trkpt><trkpt lat="44.6831833" lon="9.815785"><ele>823.6666666666667</ele><time>2026-04-19T11:41:58.054Z</time></trkpt><trkpt lat="44.6831133" lon="9.8156967"><ele>824.5</ele><time>2026-04-19T11:41:59.054Z</time></trkpt><trkpt lat="44.6830517" lon="9.8156117"><ele>825.3333333333334</ele><time>2026-04-19T11:42:00.055Z</time></trkpt><trkpt lat="44.6829883" lon="9.8155233"><ele>826.1666666666667</ele><time>2026-04-19T11:42:01.053Z</time></trkpt><trkpt lat="44.6829267" lon="9.8154467"><ele>827.0</ele><time>2026-04-19T11:42:02.054Z</time></trkpt><trkpt lat="44.68287" lon="9.8153717"><ele>827.0000000000001</ele><time>2026-04-19T11:42:03.054Z</time></trkpt><trkpt lat="44.6828117" lon="9.8152967"><ele>827.0</ele><time>2026-04-19T11:42:04.051Z</time></trkpt><trkpt lat="44.68275" lon="9.8152167"><ele>827.0</ele><time>2026-04-19T11:42:05.053Z</time></trkpt><trkpt lat="44.6826883" lon="9.8151317"><ele>827.0</ele><time>2026-04-19T11:42:06.054Z</time></trkpt><trkpt lat="44.6826283" lon="9.8150483"><ele>827.0000000000001</ele><time>2026-04-19T11:42:07.054Z</time></trkpt><trkpt lat="44.6825667" lon="9.8149667"><ele>827.0</ele><time>2026-04-19T11:42:08.054Z</time></trkpt><trkpt lat="44.68251" lon="9.814885"><ele>827.8333333333334</ele><time>2026-04-19T11:42:09.054Z</time></trkpt><trkpt lat="44.6824517" lon="9.8147983"><ele>828.6666666666667</ele><time>2026-04-19T11:42:10.053Z</time></trkpt><trkpt lat="44.682395" lon="9.8147133"><ele>829.5</ele><time>2026-04-19T11:42:11.055Z</time></trkpt><trkpt lat="44.6823417" lon="9.8146333"><ele>830.3333333333333</ele><time>2026-04-19T11:42:12.054Z</time></trkpt><trkpt lat="44.6822567" lon="9.8145267"><ele>831.1666666666666</ele><time>2026-04-19T11:42:14.055Z</time></trkpt><trkpt lat="44.6822083" lon="9.8144567"><ele>832.0</ele><time>2026-04-19T11:42:16.054Z</time></trkpt><trkpt lat="44.68221" lon="9.8143517"><ele>831.9999999999999</ele><time>2026-04-19T11:42:33.054Z</time></trkpt><trkpt lat="44.682285" lon="9.814305"><ele>832.0</ele><time>2026-04-19T11:42:38.054Z</time></trkpt><trkpt lat="44.6823883" lon="9.814305"><ele>832.0</ele><time>2026-04-19T11:42:40.054Z</time></trkpt><trkpt lat="44.6824633" lon="9.8143083"><ele>832.0</ele><time>2026-04-19T11:42:41.055Z</time></trkpt><trkpt lat="44.6825433" lon="9.8143167"><ele>831.9999999999999</ele><time>2026-04-19T11:42:42.055Z</time></trkpt><trkpt lat="44.6826167" lon="9.814325"><ele>832.0</ele><time>2026-04-19T11:42:43.055Z</time></trkpt><trkpt lat="44.6826933" lon="9.8143333"><ele>831.1666666666666</ele><time>2026-04-19T11:42:44.056Z</time></trkpt><trkpt lat="44.6827683" lon="9.8143467"><ele>830.3333333333333</ele><time>2026-04-19T11:42:45.055Z</time></trkpt><trkpt lat="44.682845" lon="9.8143617"><ele>829.5</ele><time>2026-04-19T11:42:46.055Z</time></trkpt><trkpt lat="44.6829167" lon="9.81437"><ele>828.6666666666667</ele><time>2026-04-19T11:42:47.056Z</time></trkpt><trkpt lat="44.68299" lon="9.814385"><ele>827.8333333333334</ele><time>2026-04-19T11:42:48.055Z</time></trkpt><trkpt lat="44.6830733" lon="9.8143967"><ele>827.0</ele><time>2026-04-19T11:42:49.055Z</time></trkpt><trkpt lat="44.6831583" lon="9.8144167"><ele>827.0000000000001</ele><time>2026-04-19T11:42:50.055Z</time></trkpt><trkpt lat="44.68325" lon="9.814435"><ele>827.0</ele><time>2026-04-19T11:42:51.052Z</time></trkpt><trkpt lat="44.683325" lon="9.8144583"><ele>827.0</ele><time>2026-04-19T11:42:52.054Z</time></trkpt><trkpt lat="44.6833983" lon="9.814485"><ele>827.0</ele><time>2026-04-19T11:42:53.056Z</time></trkpt><trkpt lat="44.6834767" lon="9.8145067"><ele>827.0000000000001</ele><time>2026-04-19T11:42:54.055Z</time></trkpt><trkpt lat="44.68356" lon="9.8145283"><ele>827.0</ele><time>2026-04-19T11:42:55.054Z</time></trkpt><trkpt lat="44.6836467" lon="9.8145417"><ele>824.0000000000001</ele><time>2026-04-19T11:42:56.055Z</time></trkpt><trkpt lat="44.68373" lon="9.8145617"><ele>821.0</ele><time>2026-04-19T11:42:57.055Z</time></trkpt><trkpt lat="44.683805" lon="9.8145783"><ele>818.0</ele><time>2026-04-19T11:42:58.054Z</time></trkpt><trkpt lat="44.683885" lon="9.8145933"><ele>815.0</ele><time>2026-04-19T11:42:59.054Z</time></trkpt><trkpt lat="44.6839633" lon="9.81461"><ele>812.0000000000001</ele><time>2026-04-19T11:43:00.053Z</time></trkpt><trkpt lat="44.6840283" lon="9.814615"><ele>809.0</ele><time>2026-04-19T11:43:01.053Z</time></trkpt><trkpt lat="44.6840933" lon="9.81461"><ele>809.0</ele><time>2026-04-19T11:43:02.054Z</time></trkpt><trkpt lat="44.68416" lon="9.81459"><ele>809.0</ele><time>2026-04-19T11:43:03.052Z</time></trkpt><trkpt lat="44.6842267" lon="9.81457"><ele>809.0</ele><time>2026-04-19T11:43:04.054Z</time></trkpt><trkpt lat="44.6842917" lon="9.8145567"><ele>809.0</ele><time>2026-04-19T11:43:05.053Z</time></trkpt><trkpt lat="44.68436" lon="9.814535"><ele>809.0</ele><time>2026-04-19T11:43:06.054Z</time></trkpt><trkpt lat="44.6844333" lon="9.8145083"><ele>809.0</ele><time>2026-04-19T11:43:07.054Z</time></trkpt><trkpt lat="44.684515" lon="9.8144783"><ele>809.0</ele><time>2026-04-19T11:43:08.055Z</time></trkpt><trkpt lat="44.684595" lon="9.8144583"><ele>807.5000000000001</ele><time>2026-04-19T11:43:09.053Z</time></trkpt><trkpt lat="44.6846733" lon="9.814425"><ele>806.0</ele><time>2026-04-19T11:43:10.054Z</time></trkpt><trkpt lat="44.6847433" lon="9.81438"><ele>804.5</ele><time>2026-04-19T11:43:11.054Z</time></trkpt><trkpt lat="44.6848017" lon="9.8143267"><ele>803.0</ele><time>2026-04-19T11:43:12.053Z</time></trkpt><trkpt lat="44.6848467" lon="9.8142633"><ele>801.5000000000001</ele><time>2026-04-19T11:43:13.054Z</time></trkpt><trkpt lat="44.6849067" lon="9.8141217"><ele>800.0</ele><time>2026-04-19T11:43:15.053Z</time></trkpt><trkpt lat="44.6849717" lon="9.813955"><ele>800.0000000000001</ele><time>2026-04-19T11:43:17.053Z</time></trkpt><trkpt lat="44.685005" lon="9.81386"><ele>800.0</ele><time>2026-04-19T11:43:18.053Z</time></trkpt><trkpt lat="44.6850383" lon="9.81376"><ele>800.0</ele><time>2026-04-19T11:43:19.053Z</time></trkpt><trkpt lat="44.6850767" lon="9.8136583"><ele>800.0</ele><time>2026-04-19T11:43:20.054Z</time></trkpt><trkpt lat="44.685125" lon="9.813555"><ele>800.0000000000001</ele><time>2026-04-19T11:43:21.053Z</time></trkpt><trkpt lat="44.68517" lon="9.81346"><ele>800.0</ele><time>2026-04-19T11:43:22.054Z</time></trkpt><trkpt lat="44.6852033" lon="9.8133683"><ele>799.1428571428572</ele><time>2026-04-19T11:43:23.054Z</time></trkpt><trkpt lat="44.685225" lon="9.8132833"><ele>798.2857142857143</ele><time>2026-04-19T11:43:24.054Z</time></trkpt><trkpt lat="44.6852467" lon="9.8131983"><ele>797.4285714285714</ele><time>2026-04-19T11:43:25.053Z</time></trkpt><trkpt lat="44.6852683" lon="9.8131133"><ele>796.5714285714287</ele><time>2026-04-19T11:43:26.054Z</time></trkpt><trkpt lat="44.685295" lon="9.8130267"><ele>795.7142857142857</ele><time>2026-04-19T11:43:27.054Z</time></trkpt><trkpt lat="44.6853217" lon="9.8129317"><ele>794.8571428571429</ele><time>2026-04-19T11:43:28.053Z</time></trkpt><trkpt lat="44.6853533" lon="9.8128333"><ele>794.0</ele><time>2026-04-19T11:43:29.054Z</time></trkpt><trkpt lat="44.6853933" lon="9.8127417"><ele>792.6666666666667</ele><time>2026-04-19T11:43:30.055Z</time></trkpt><trkpt lat="44.685445" lon="9.81266"><ele>791.3333333333334</ele><time>2026-04-19T11:43:31.053Z</time></trkpt><trkpt lat="44.6855067" lon="9.81259"><ele>790.0</ele><time>2026-04-19T11:43:32.054Z</time></trkpt><trkpt lat="44.6855667" lon="9.8125217"><ele>788.6666666666667</ele><time>2026-04-19T11:43:33.054Z</time></trkpt><trkpt lat="44.68562" lon="9.81245"><ele>787.3333333333334</ele><time>2026-04-19T11:43:34.053Z</time></trkpt><trkpt lat="44.6856717" lon="9.8123733"><ele>786.0</ele><time>2026-04-19T11:43:35.055Z</time></trkpt><trkpt lat="44.6857083" lon="9.8122833"><ele>784.7142857142858</ele><time>2026-04-19T11:43:36.053Z</time></trkpt><trkpt lat="44.6857433" lon="9.8121917"><ele>783.4285714285714</ele><time>2026-04-19T11:43:37.054Z</time></trkpt><trkpt lat="44.6857883" lon="9.812115"><ele>782.1428571428571</ele><time>2026-04-19T11:43:38.054Z</time></trkpt><trkpt lat="44.6858333" lon="9.8120467"><ele>780.8571428571429</ele><time>2026-04-19T11:43:39.053Z</time></trkpt><trkpt lat="44.68588" lon="9.811975"><ele>779.5714285714286</ele><time>2026-04-19T11:43:40.053Z</time></trkpt><trkpt lat="44.6859233" lon="9.8119017"><ele>778.2857142857143</ele><time>2026-04-19T11:43:41.053Z</time></trkpt><trkpt lat="44.6859667" lon="9.8118333"><ele>777.0</ele><time>2026-04-19T11:43:42.054Z</time></trkpt><trkpt lat="44.68601" lon="9.8117667"><ele>776.4285714285714</ele><time>2026-04-19T11:43:43.054Z</time></trkpt><trkpt lat="44.686065" lon="9.8117167"><ele>775.8571428571429</ele><time>2026-04-19T11:43:44.053Z</time></trkpt><trkpt lat="44.6861233" lon="9.8116817"><ele>775.2857142857142</ele><time>2026-04-19T11:43:45.052Z</time></trkpt><trkpt lat="44.6862233" lon="9.8116067"><ele>774.7142857142858</ele><time>2026-04-19T11:43:47.055Z</time></trkpt><trkpt lat="44.6862767" lon="9.8115567"><ele>774.1428571428571</ele><time>2026-04-19T11:43:48.055Z</time></trkpt><trkpt lat="44.6863333" lon="9.81151"><ele>773.5714285714286</ele><time>2026-04-19T11:43:49.057Z</time></trkpt><trkpt lat="44.6864" lon="9.811485"><ele>773.0</ele><time>2026-04-19T11:43:50.054Z</time></trkpt><trkpt lat="44.6865167" lon="9.811435"><ele>770.2</ele><time>2026-04-19T11:43:52.054Z</time></trkpt><trkpt lat="44.6866233" lon="9.8113633"><ele>767.4</ele><time>2026-04-19T11:43:54.054Z</time></trkpt><trkpt lat="44.686715" lon="9.8112967"><ele>764.6</ele><time>2026-04-19T11:43:56.056Z</time></trkpt><trkpt lat="44.6867867" lon="9.81124"><ele>761.8000000000001</ele><time>2026-04-19T11:43:58.054Z</time></trkpt><trkpt lat="44.6868533" lon="9.8112267"><ele>759.0</ele><time>2026-04-19T11:44:00.055Z</time></trkpt><trkpt lat="44.686945" lon="9.8112467"><ele>756.2</ele><time>2026-04-19T11:44:02.056Z</time></trkpt><trkpt lat="44.687025" lon="9.8112233"><ele>753.4000000000001</ele><time>2026-04-19T11:44:04.054Z</time></trkpt><trkpt lat="44.687095" lon="9.8111417"><ele>750.6</ele><time>2026-04-19T11:44:07.052Z</time></trkpt><trkpt lat="44.6871533" lon="9.81105"><ele>747.8</ele><time>2026-04-19T11:44:09.053Z</time></trkpt><trkpt lat="44.6872283" lon="9.810935"><ele>745.0</ele><time>2026-04-19T11:44:11.054Z</time></trkpt><trkpt lat="44.6873167" lon="9.8108267"><ele>744.2</ele><time>2026-04-19T11:44:13.054Z</time></trkpt><trkpt lat="44.6874017" lon="9.8107517"><ele>743.4</ele><time>2026-04-19T11:44:15.054Z</time></trkpt><trkpt lat="44.6875" lon="9.810715"><ele>742.5999999999999</ele><time>2026-04-19T11:44:17.055Z</time></trkpt><trkpt lat="44.6875867" lon="9.8107"><ele>741.8</ele><time>2026-04-19T11:44:19.055Z</time></trkpt><trkpt lat="44.6876883" lon="9.8106833"><ele>741.0</ele><time>2026-04-19T11:44:21.054Z</time></trkpt><trkpt lat="44.6878033" lon="9.8106667"><ele>738.4285714285714</ele><time>2026-04-19T11:44:23.056Z</time></trkpt><trkpt lat="44.6878733" lon="9.8106467"><ele>735.8571428571429</ele><time>2026-04-19T11:44:24.056Z</time></trkpt><trkpt lat="44.68794" lon="9.8106233"><ele>733.2857142857143</ele><time>2026-04-19T11:44:25.054Z</time></trkpt><trkpt lat="44.6880033" lon="9.8106"><ele>730.7142857142858</ele><time>2026-04-19T11:44:26.056Z</time></trkpt><trkpt lat="44.6880683" lon="9.810585"><ele>728.1428571428571</ele><time>2026-04-19T11:44:27.056Z</time></trkpt><trkpt lat="44.6881333" lon="9.8105683"><ele>725.5714285714287</ele><time>2026-04-19T11:44:28.054Z</time></trkpt><trkpt lat="44.688225" lon="9.8104783"><ele>723.0</ele><time>2026-04-19T11:44:30.055Z</time></trkpt><trkpt lat="44.68831" lon="9.8103717"><ele>723.0</ele><time>2026-04-19T11:44:32.053Z</time></trkpt><trkpt lat="44.68839" lon="9.810295"><ele>723.0</ele><time>2026-04-19T11:44:34.053Z</time></trkpt><trkpt lat="44.6884967" lon="9.8102133"><ele>723.0</ele><time>2026-04-19T11:44:36.053Z</time></trkpt><trkpt lat="44.6885567" lon="9.8101783"><ele>723.0</ele><time>2026-04-19T11:44:37.056Z</time></trkpt><trkpt lat="44.6886217" lon="9.810155"><ele>723.0</ele><time>2026-04-19T11:44:38.056Z</time></trkpt><trkpt lat="44.688695" lon="9.8101417"><ele>723.0</ele><time>2026-04-19T11:44:39.055Z</time></trkpt><trkpt lat="44.68882" lon="9.8101117"><ele>720.4</ele><time>2026-04-19T11:44:41.053Z</time></trkpt><trkpt lat="44.6889183" lon="9.8100717"><ele>717.8</ele><time>2026-04-19T11:44:43.056Z</time></trkpt><trkpt lat="44.6890067" lon="9.8100733"><ele>715.2</ele><time>2026-04-19T11:44:45.053Z</time></trkpt><trkpt lat="44.689085" lon="9.810105"><ele>712.6</ele><time>2026-04-19T11:44:47.053Z</time></trkpt><trkpt lat="44.6891617" lon="9.8100767"><ele>710.0</ele><time>2026-04-19T11:44:49.055Z</time></trkpt><trkpt lat="44.6892333" lon="9.8099683"><ele>710.0</ele><time>2026-04-19T11:44:51.053Z</time></trkpt><trkpt lat="44.6893117" lon="9.8098717"><ele>710.0</ele><time>2026-04-19T11:44:53.054Z</time></trkpt><trkpt lat="44.6894033" lon="9.8097983"><ele>710.0</ele><time>2026-04-19T11:44:55.054Z</time></trkpt><trkpt lat="44.6895133" lon="9.8097683"><ele>710.0</ele><time>2026-04-19T11:44:57.054Z</time></trkpt><trkpt lat="44.6896283" lon="9.809755"><ele>710.0</ele><time>2026-04-19T11:44:59.053Z</time></trkpt><trkpt lat="44.6897383" lon="9.8097367"><ele>707.6</ele><time>2026-04-19T11:45:01.055Z</time></trkpt><trkpt lat="44.689845" lon="9.8097367"><ele>705.2</ele><time>2026-04-19T11:45:03.053Z</time></trkpt><trkpt lat="44.6899417" lon="9.80972"><ele>702.8</ele><time>2026-04-19T11:45:05.053Z</time></trkpt><trkpt lat="44.690055" lon="9.8096717"><ele>700.4</ele><time>2026-04-19T11:45:07.054Z</time></trkpt><trkpt lat="44.6901167" lon="9.8096467"><ele>698.0</ele><time>2026-04-19T11:45:08.054Z</time></trkpt><trkpt lat="44.6901767" lon="9.8096183"><ele>694.5</ele><time>2026-04-19T11:45:09.054Z</time></trkpt><trkpt lat="44.6902817" lon="9.8095817"><ele>691.0</ele><time>2026-04-19T11:45:11.053Z</time></trkpt><trkpt lat="44.69036" lon="9.80955"><ele>687.5</ele><time>2026-04-19T11:45:13.053Z</time></trkpt><trkpt lat="44.690425" lon="9.8094967"><ele>684.0</ele><time>2026-04-19T11:45:15.054Z</time></trkpt><trkpt lat="44.6905" lon="9.8094267"><ele>680.5</ele><time>2026-04-19T11:45:17.055Z</time></trkpt><trkpt lat="44.69058" lon="9.809425"><ele>677.0</ele><time>2026-04-19T11:45:19.054Z</time></trkpt><trkpt lat="44.6906717" lon="9.809515"><ele>677.0</ele><time>2026-04-19T11:45:21.053Z</time></trkpt><trkpt lat="44.690765" lon="9.8096033"><ele>677.0</ele><time>2026-04-19T11:45:23.054Z</time></trkpt><trkpt lat="44.69086" lon="9.8096317"><ele>677.0</ele><time>2026-04-19T11:45:25.053Z</time></trkpt><trkpt lat="44.6909667" lon="9.8096317"><ele>677.0</ele><time>2026-04-19T11:45:27.054Z</time></trkpt><trkpt lat="44.6910433" lon="9.809635"><ele>677.0</ele><time>2026-04-19T11:45:28.053Z</time></trkpt><trkpt lat="44.69112" lon="9.8096283"><ele>674.6666666666666</ele><time>2026-04-19T11:45:29.055Z</time></trkpt><trkpt lat="44.69119" lon="9.8096233"><ele>672.3333333333333</ele><time>2026-04-19T11:45:30.055Z</time></trkpt><trkpt lat="44.691265" lon="9.8096333"><ele>670.0</ele><time>2026-04-19T11:45:31.054Z</time></trkpt><trkpt lat="44.69133" lon="9.8096467"><ele>667.6666666666666</ele><time>2026-04-19T11:45:32.056Z</time></trkpt><trkpt lat="44.69143" lon="9.809635"><ele>665.3333333333334</ele><time>2026-04-19T11:45:34.055Z</time></trkpt><trkpt lat="44.691505" lon="9.8095783"><ele>663.0</ele><time>2026-04-19T11:45:36.053Z</time></trkpt><trkpt lat="44.6915817" lon="9.809515"><ele>663.0</ele><time>2026-04-19T11:45:38.054Z</time></trkpt><trkpt lat="44.691685" lon="9.8094667"><ele>663.0</ele><time>2026-04-19T11:45:40.054Z</time></trkpt><trkpt lat="44.6918017" lon="9.8094517"><ele>663.0</ele><time>2026-04-19T11:45:42.055Z</time></trkpt><trkpt lat="44.691915" lon="9.80945"><ele>663.0</ele><time>2026-04-19T11:45:44.054Z</time></trkpt><trkpt lat="44.69202" lon="9.8094167"><ele>663.0</ele><time>2026-04-19T11:45:46.052Z</time></trkpt><trkpt lat="44.6921167" lon="9.8093717"><ele>659.6666666666666</ele><time>2026-04-19T11:45:48.055Z</time></trkpt><trkpt lat="44.6922033" lon="9.8092933"><ele>656.3333333333334</ele><time>2026-04-19T11:45:50.054Z</time></trkpt><trkpt lat="44.6922583" lon="9.8092183"><ele>653.0</ele><time>2026-04-19T11:45:52.053Z</time></trkpt><trkpt lat="44.69231" lon="9.8091483"><ele>649.6666666666667</ele><time>2026-04-19T11:45:54.055Z</time></trkpt><trkpt lat="44.6923833" lon="9.8090917"><ele>646.3333333333334</ele><time>2026-04-19T11:45:56.053Z</time></trkpt><trkpt lat="44.69244" lon="9.8090233"><ele>643.0</ele><time>2026-04-19T11:45:58.053Z</time></trkpt><trkpt lat="44.69249" lon="9.8089483"><ele>643.0</ele><time>2026-04-19T11:46:00.054Z</time></trkpt><trkpt lat="44.6925733" lon="9.8088883"><ele>643.0</ele><time>2026-04-19T11:46:02.055Z</time></trkpt><trkpt lat="44.6926533" lon="9.80886"><ele>643.0</ele><time>2026-04-19T11:46:04.054Z</time></trkpt><trkpt lat="44.6927433" lon="9.80886"><ele>643.0</ele><time>2026-04-19T11:46:06.055Z</time></trkpt><trkpt lat="44.69285" lon="9.8088567"><ele>643.0</ele><time>2026-04-19T11:46:08.055Z</time></trkpt><trkpt lat="44.6929533" lon="9.8088317"><ele>639.8</ele><time>2026-04-19T11:46:10.053Z</time></trkpt><trkpt lat="44.6930533" lon="9.80877"><ele>636.5999999999999</ele><time>2026-04-19T11:46:12.054Z</time></trkpt><trkpt lat="44.693125" lon="9.8086867"><ele>633.4000000000001</ele><time>2026-04-19T11:46:14.054Z</time></trkpt><trkpt lat="44.6932" lon="9.8086233"><ele>630.2</ele><time>2026-04-19T11:46:16.055Z</time></trkpt><trkpt lat="44.6932967" lon="9.8086017"><ele>627.0</ele><time>2026-04-19T11:46:18.054Z</time></trkpt><trkpt lat="44.6934017" lon="9.8085967"><ele>627.0</ele><time>2026-04-19T11:46:20.056Z</time></trkpt><trkpt lat="44.693475" lon="9.80859"><ele>627.0</ele><time>2026-04-19T11:46:22.054Z</time></trkpt><trkpt lat="44.6935383" lon="9.808565"><ele>627.0</ele><time>2026-04-19T11:46:24.053Z</time></trkpt><trkpt lat="44.693605" lon="9.808545"><ele>627.0</ele><time>2026-04-19T11:46:26.054Z</time></trkpt><trkpt lat="44.6936717" lon="9.8085217"><ele>627.0</ele><time>2026-04-19T11:46:28.055Z</time></trkpt><trkpt lat="44.6937433" lon="9.8084467"><ele>627.0</ele><time>2026-04-19T11:46:39.054Z</time></trkpt><trkpt lat="44.693815" lon="9.8083467"><ele>625.1428571428571</ele><time>2026-04-19T11:46:41.054Z</time></trkpt><trkpt lat="44.69387" lon="9.808275"><ele>623.2857142857142</ele><time>2026-04-19T11:46:42.053Z</time></trkpt><trkpt lat="44.6939167" lon="9.8081933"><ele>621.4285714285713</ele><time>2026-04-19T11:46:43.054Z</time></trkpt><trkpt lat="44.6939583" lon="9.8081117"><ele>619.5714285714286</ele><time>2026-04-19T11:46:44.054Z</time></trkpt><trkpt lat="44.6940033" lon="9.8080233"><ele>617.7142857142857</ele><time>2026-04-19T11:46:45.054Z</time></trkpt><trkpt lat="44.6940467" lon="9.80794"><ele>615.8571428571428</ele><time>2026-04-19T11:46:46.053Z</time></trkpt><trkpt lat="44.6940917" lon="9.8078583"><ele>614.0</ele><time>2026-04-19T11:46:47.054Z</time></trkpt><trkpt lat="44.6941383" lon="9.807775"><ele>613.9999999999999</ele><time>2026-04-19T11:46:48.054Z</time></trkpt><trkpt lat="44.694195" lon="9.8077033"><ele>614.0</ele><time>2026-04-19T11:46:49.055Z</time></trkpt><trkpt lat="44.69425" lon="9.8076517"><ele>614.0</ele><time>2026-04-19T11:46:50.055Z</time></trkpt><trkpt lat="44.6943133" lon="9.8076183"><ele>614.0</ele><time>2026-04-19T11:46:51.056Z</time></trkpt><trkpt lat="44.6943767" lon="9.807585"><ele>614.0</ele><time>2026-04-19T11:46:52.055Z</time></trkpt><trkpt lat="44.69444" lon="9.80755"><ele>613.9999999999999</ele><time>2026-04-19T11:46:53.054Z</time></trkpt><trkpt lat="44.6945" lon="9.8075017"><ele>614.0</ele><time>2026-04-19T11:46:54.055Z</time></trkpt><trkpt lat="44.694565" lon="9.80745"><ele>612.0</ele><time>2026-04-19T11:46:55.053Z</time></trkpt><trkpt lat="44.6946283" lon="9.8073933"><ele>610.0</ele><time>2026-04-19T11:46:56.054Z</time></trkpt><trkpt lat="44.69469" lon="9.807335"><ele>608.0</ele><time>2026-04-19T11:46:57.054Z</time></trkpt><trkpt lat="44.69474" lon="9.807275"><ele>606.0</ele><time>2026-04-19T11:46:58.054Z</time></trkpt><trkpt lat="44.6948217" lon="9.8071783"><ele>604.0</ele><time>2026-04-19T11:47:00.054Z</time></trkpt><trkpt lat="44.69484" lon="9.8070933"><ele>602.0</ele><time>2026-04-19T11:47:02.053Z</time></trkpt><trkpt lat="44.6948167" lon="9.8069883"><ele>602.0</ele><time>2026-04-19T11:47:04.054Z</time></trkpt><trkpt lat="44.6948417" lon="9.806875"><ele>602.0</ele><time>2026-04-19T11:47:07.053Z</time></trkpt><trkpt lat="44.6949083" lon="9.8068417"><ele>602.0</ele><time>2026-04-19T11:47:10.053Z</time></trkpt><trkpt lat="44.6949983" lon="9.8068083"><ele>602.0</ele><time>2026-04-19T11:47:12.054Z</time></trkpt><trkpt lat="44.6950817" lon="9.8067183"><ele>602.0</ele><time>2026-04-19T11:47:14.053Z</time></trkpt><trkpt lat="44.6951617" lon="9.8066017"><ele>602.1666666666666</ele><time>2026-04-19T11:47:16.053Z</time></trkpt><trkpt lat="44.6952083" lon="9.8065417"><ele>602.3333333333333</ele><time>2026-04-19T11:47:17.055Z</time></trkpt><trkpt lat="44.695285" lon="9.8064033"><ele>602.5</ele><time>2026-04-19T11:47:19.054Z</time></trkpt><trkpt lat="44.6953517" lon="9.8062617"><ele>602.6666666666666</ele><time>2026-04-19T11:47:21.054Z</time></trkpt><trkpt lat="44.6953917" lon="9.80619"><ele>602.8333333333334</ele><time>2026-04-19T11:47:22.054Z</time></trkpt><trkpt lat="44.6954383" lon="9.8061233"><ele>603.0</ele><time>2026-04-19T11:47:23.055Z</time></trkpt><trkpt lat="44.6954867" lon="9.8060483"><ele>602.0</ele><time>2026-04-19T11:47:24.054Z</time></trkpt><trkpt lat="44.6955283" lon="9.80596"><ele>601.0</ele><time>2026-04-19T11:47:25.056Z</time></trkpt><trkpt lat="44.6955817" lon="9.8058583"><ele>600.0</ele><time>2026-04-19T11:47:26.056Z</time></trkpt><trkpt lat="44.6956383" lon="9.80575"><ele>599.0</ele><time>2026-04-19T11:47:27.055Z</time></trkpt><trkpt lat="44.6956883" lon="9.8056283"><ele>598.0</ele><time>2026-04-19T11:47:28.055Z</time></trkpt><trkpt lat="44.6957467" lon="9.8055083"><ele>598.0</ele><time>2026-04-19T11:47:29.053Z</time></trkpt><trkpt lat="44.69582" lon="9.80539"><ele>598.0</ele><time>2026-04-19T11:47:30.056Z</time></trkpt><trkpt lat="44.6958983" lon="9.8052833"><ele>598.0</ele><time>2026-04-19T11:47:31.056Z</time></trkpt><trkpt lat="44.6959767" lon="9.8051967"><ele>598.0</ele><time>2026-04-19T11:47:32.054Z</time></trkpt><trkpt lat="44.696045" lon="9.80514"><ele>598.0</ele><time>2026-04-19T11:47:33.053Z</time></trkpt><trkpt lat="44.6961117" lon="9.80506"><ele>597.6</ele><time>2026-04-19T11:47:35.054Z</time></trkpt><trkpt lat="44.696105" lon="9.8049433"><ele>597.1999999999999</ele><time>2026-04-19T11:47:37.054Z</time></trkpt><trkpt lat="44.6960417" lon="9.804795"><ele>596.8</ele><time>2026-04-19T11:47:39.055Z</time></trkpt><trkpt lat="44.6959933" lon="9.8047017"><ele>596.4</ele><time>2026-04-19T11:47:40.055Z</time></trkpt><trkpt lat="44.6959333" lon="9.8045983"><ele>596.0</ele><time>2026-04-19T11:47:41.054Z</time></trkpt><trkpt lat="44.6958533" lon="9.8044883"><ele>597.6</ele><time>2026-04-19T11:47:42.055Z</time></trkpt><trkpt lat="44.6957617" lon="9.8043733"><ele>599.2</ele><time>2026-04-19T11:47:43.054Z</time></trkpt><trkpt lat="44.6956817" lon="9.8042783"><ele>600.8</ele><time>2026-04-19T11:47:44.054Z</time></trkpt><trkpt lat="44.6956083" lon="9.804195"><ele>602.4</ele><time>2026-04-19T11:47:45.055Z</time></trkpt><trkpt lat="44.6955417" lon="9.8041367"><ele>604.0</ele><time>2026-04-19T11:47:46.055Z</time></trkpt><trkpt lat="44.6954583" lon="9.804125"><ele>605.1666666666667</ele><time>2026-04-19T11:47:48.054Z</time></trkpt><trkpt lat="44.6954033" lon="9.8041817"><ele>606.3333333333334</ele><time>2026-04-19T11:47:49.055Z</time></trkpt><trkpt lat="44.6953433" lon="9.8042483"><ele>607.5</ele><time>2026-04-19T11:47:50.056Z</time></trkpt><trkpt lat="44.6952683" lon="9.8043183"><ele>608.6666666666666</ele><time>2026-04-19T11:47:51.054Z</time></trkpt><trkpt lat="44.6951883" lon="9.80439"><ele>609.8333333333333</ele><time>2026-04-19T11:47:52.056Z</time></trkpt><trkpt lat="44.6951183" lon="9.8044267"><ele>611.0</ele><time>2026-04-19T11:47:53.055Z</time></trkpt><trkpt lat="44.6950467" lon="9.804445"><ele>611.0</ele><time>2026-04-19T11:47:54.055Z</time></trkpt><trkpt lat="44.6949717" lon="9.8044467"><ele>611.0</ele><time>2026-04-19T11:47:55.054Z</time></trkpt><trkpt lat="44.69489" lon="9.8044317"><ele>611.0</ele><time>2026-04-19T11:47:56.053Z</time></trkpt><trkpt lat="44.6948033" lon="9.8044117"><ele>611.0</ele><time>2026-04-19T11:47:57.053Z</time></trkpt><trkpt lat="44.694705" lon="9.8043867"><ele>611.0</ele><time>2026-04-19T11:47:58.054Z</time></trkpt><trkpt lat="44.6946033" lon="9.8043717"><ele>611.0</ele><time>2026-04-19T11:47:59.054Z</time></trkpt><trkpt lat="44.6945167" lon="9.80436"><ele>611.0</ele><time>2026-04-19T11:48:00.053Z</time></trkpt><trkpt lat="44.6944383" lon="9.8043467"><ele>611.0</ele><time>2026-04-19T11:48:01.055Z</time></trkpt><trkpt lat="44.694335" lon="9.8043083"><ele>611.0</ele><time>2026-04-19T11:48:03.055Z</time></trkpt><trkpt lat="44.694245" lon="9.8042033"><ele>611.0</ele><time>2026-04-19T11:48:05.056Z</time></trkpt><trkpt lat="44.6941883" lon="9.8041333"><ele>611.0</ele><time>2026-04-19T11:48:06.054Z</time></trkpt><trkpt lat="44.6941233" lon="9.804065"><ele>614.6666666666666</ele><time>2026-04-19T11:48:07.055Z</time></trkpt><trkpt lat="44.6940467" lon="9.80399"><ele>618.3333333333333</ele><time>2026-04-19T11:48:08.053Z</time></trkpt><trkpt lat="44.6939833" lon="9.80392"><ele>622.0</ele><time>2026-04-19T11:48:09.053Z</time></trkpt><trkpt lat="44.6939217" lon="9.8038483"><ele>625.6666666666666</ele><time>2026-04-19T11:48:10.054Z</time></trkpt><trkpt lat="44.6938567" lon="9.8037733"><ele>629.3333333333334</ele><time>2026-04-19T11:48:11.053Z</time></trkpt><trkpt lat="44.6938" lon="9.8037033"><ele>633.0</ele><time>2026-04-19T11:48:12.055Z</time></trkpt><trkpt lat="44.6937467" lon="9.8036283"><ele>633.0</ele><time>2026-04-19T11:48:13.054Z</time></trkpt><trkpt lat="44.693695" lon="9.8035633"><ele>633.0</ele><time>2026-04-19T11:48:14.055Z</time></trkpt><trkpt lat="44.69364" lon="9.8035033"><ele>633.0</ele><time>2026-04-19T11:48:15.056Z</time></trkpt><trkpt lat="44.69358" lon="9.8034483"><ele>633.0</ele><time>2026-04-19T11:48:16.055Z</time></trkpt><trkpt lat="44.693515" lon="9.8033983"><ele>633.0</ele><time>2026-04-19T11:48:17.055Z</time></trkpt><trkpt lat="44.6934483" lon="9.8033417"><ele>633.0</ele><time>2026-04-19T11:48:18.055Z</time></trkpt><trkpt lat="44.6933867" lon="9.80329"><ele>633.0</ele><time>2026-04-19T11:48:19.055Z</time></trkpt><trkpt lat="44.693315" lon="9.80322"><ele>635.5</ele><time>2026-04-19T11:48:20.055Z</time></trkpt><trkpt lat="44.6932517" lon="9.803155"><ele>638.0</ele><time>2026-04-19T11:48:21.055Z</time></trkpt><trkpt lat="44.693175" lon="9.8030817"><ele>640.5</ele><time>2026-04-19T11:48:22.056Z</time></trkpt><trkpt lat="44.693105" lon="9.8030183"><ele>643.0</ele><time>2026-04-19T11:48:23.055Z</time></trkpt><trkpt lat="44.693035" lon="9.8029683"><ele>645.5</ele><time>2026-04-19T11:48:24.055Z</time></trkpt><trkpt lat="44.6929633" lon="9.8029233"><ele>648.0</ele><time>2026-04-19T11:48:25.055Z</time></trkpt><trkpt lat="44.6928833" lon="9.8028767"><ele>648.0</ele><time>2026-04-19T11:48:26.056Z</time></trkpt><trkpt lat="44.6928217" lon="9.8028417"><ele>648.0</ele><time>2026-04-19T11:48:27.055Z</time></trkpt><trkpt lat="44.6927567" lon="9.8028183"><ele>648.0</ele><time>2026-04-19T11:48:28.053Z</time></trkpt><trkpt lat="44.6926633" lon="9.802765"><ele>648.0</ele><time>2026-04-19T11:48:30.054Z</time></trkpt><trkpt lat="44.6926067" lon="9.8026917"><ele>648.0</ele><time>2026-04-19T11:48:32.056Z</time></trkpt><trkpt lat="44.692575" lon="9.80257"><ele>648.0</ele><time>2026-04-19T11:48:34.055Z</time></trkpt><trkpt lat="44.6925467" lon="9.8024817"><ele>651.1666666666666</ele><time>2026-04-19T11:48:36.055Z</time></trkpt><trkpt lat="44.692485" lon="9.8024133"><ele>654.3333333333334</ele><time>2026-04-19T11:48:38.054Z</time></trkpt><trkpt lat="44.6924083" lon="9.8023817"><ele>657.5</ele><time>2026-04-19T11:48:40.055Z</time></trkpt><trkpt lat="44.6923417" lon="9.8023167"><ele>660.6666666666667</ele><time>2026-04-19T11:48:42.053Z</time></trkpt><trkpt lat="44.6923017" lon="9.80219"><ele>663.8333333333334</ele><time>2026-04-19T11:48:44.053Z</time></trkpt><trkpt lat="44.69231" lon="9.8020383"><ele>667.0</ele><time>2026-04-19T11:48:46.056Z</time></trkpt><trkpt lat="44.6923417" lon="9.801935"><ele>670.25</ele><time>2026-04-19T11:48:47.052Z</time></trkpt><trkpt lat="44.692365" lon="9.8017833"><ele>673.5</ele><time>2026-04-19T11:48:48.053Z</time></trkpt><trkpt lat="44.6923867" lon="9.8015983"><ele>676.75</ele><time>2026-04-19T11:48:49.055Z</time></trkpt><trkpt lat="44.6924083" lon="9.8014217"><ele>680.0</ele><time>2026-04-19T11:48:50.056Z</time></trkpt><trkpt lat="44.6924183" lon="9.8012783"><ele>680.0</ele><time>2026-04-19T11:48:51.053Z</time></trkpt><trkpt lat="44.6924183" lon="9.8011467"><ele>680.0</ele><time>2026-04-19T11:48:52.053Z</time></trkpt><trkpt lat="44.6924267" lon="9.8009967"><ele>680.0</ele><time>2026-04-19T11:48:53.053Z</time></trkpt><trkpt lat="44.6924017" lon="9.8008917"><ele>680.0</ele><time>2026-04-19T11:48:54.054Z</time></trkpt><trkpt lat="44.692375" lon="9.8008083"><ele>680.0</ele><time>2026-04-19T11:48:55.054Z</time></trkpt><trkpt lat="44.69227" lon="9.800695"><ele>681.6666666666666</ele><time>2026-04-19T11:48:57.053Z</time></trkpt><trkpt lat="44.692195" lon="9.8006533"><ele>683.3333333333333</ele><time>2026-04-19T11:48:58.056Z</time></trkpt><trkpt lat="44.69213" lon="9.8006083"><ele>685.0</ele><time>2026-04-19T11:48:59.053Z</time></trkpt><trkpt lat="44.6920783" lon="9.8005333"><ele>686.6666666666666</ele><time>2026-04-19T11:49:00.055Z</time></trkpt><trkpt lat="44.6920233" lon="9.8004467"><ele>688.3333333333334</ele><time>2026-04-19T11:49:01.055Z</time></trkpt><trkpt lat="44.6919817" lon="9.8003467"><ele>690.0</ele><time>2026-04-19T11:49:02.055Z</time></trkpt><trkpt lat="44.691945" lon="9.800235"><ele>694.5</ele><time>2026-04-19T11:49:03.054Z</time></trkpt><trkpt lat="44.691915" lon="9.8001117"><ele>699.0</ele><time>2026-04-19T11:49:04.055Z</time></trkpt><trkpt lat="44.6918917" lon="9.79998"><ele>703.5</ele><time>2026-04-19T11:49:05.055Z</time></trkpt><trkpt lat="44.6918717" lon="9.799855"><ele>708.0</ele><time>2026-04-19T11:49:06.054Z</time></trkpt><trkpt lat="44.6918583" lon="9.799745"><ele>712.5</ele><time>2026-04-19T11:49:07.056Z</time></trkpt><trkpt lat="44.69183" lon="9.79964"><ele>717.0</ele><time>2026-04-19T11:49:08.055Z</time></trkpt><trkpt lat="44.69181" lon="9.7995367"><ele>717.0</ele><time>2026-04-19T11:49:09.056Z</time></trkpt><trkpt lat="44.6917967" lon="9.7994433"><ele>717.0</ele><time>2026-04-19T11:49:10.055Z</time></trkpt><trkpt lat="44.6917983" lon="9.79935"><ele>717.0</ele><time>2026-04-19T11:49:11.054Z</time></trkpt><trkpt lat="44.6918133" lon="9.799255"><ele>717.0</ele><time>2026-04-19T11:49:12.054Z</time></trkpt><trkpt lat="44.6918367" lon="9.79917"><ele>717.0</ele><time>2026-04-19T11:49:13.054Z</time></trkpt><trkpt lat="44.6918283" lon="9.799075"><ele>717.0</ele><time>2026-04-19T11:49:15.053Z</time></trkpt><trkpt lat="44.691755" lon="9.7990567"><ele>717.0</ele><time>2026-04-19T11:49:17.054Z</time></trkpt><trkpt lat="44.6916667" lon="9.7991317"><ele>717.0</ele><time>2026-04-19T11:49:19.054Z</time></trkpt><trkpt lat="44.6916133" lon="9.7992883"><ele>717.0</ele><time>2026-04-19T11:49:21.054Z</time></trkpt><trkpt lat="44.6915783" lon="9.7993767"><ele>717.0</ele><time>2026-04-19T11:49:23.055Z</time></trkpt><trkpt lat="44.69152" lon="9.7994117"><ele>717.0</ele><time>2026-04-19T11:49:25.053Z</time></trkpt><trkpt lat="44.6914383" lon="9.79943"><ele>717.0</ele><time>2026-04-19T11:49:27.053Z</time></trkpt><trkpt lat="44.69133" lon="9.7993817"><ele>717.0</ele><time>2026-04-19T11:49:30.054Z</time></trkpt><trkpt lat="44.6912367" lon="9.7993417"><ele>717.0</ele><time>2026-04-19T11:49:32.055Z</time></trkpt><trkpt lat="44.6911517" lon="9.7993283"><ele>717.0</ele><time>2026-04-19T11:49:34.053Z</time></trkpt><trkpt lat="44.6911" lon="9.7992367"><ele>717.0</ele><time>2026-04-19T11:49:37.053Z</time></trkpt><trkpt lat="44.6911183" lon="9.7990717"><ele>717.0</ele><time>2026-04-19T11:49:39.054Z</time></trkpt><trkpt lat="44.691135" lon="9.79897"><ele>717.5</ele><time>2026-04-19T11:49:40.053Z</time></trkpt><trkpt lat="44.691145" lon="9.798865"><ele>718.0</ele><time>2026-04-19T11:49:41.053Z</time></trkpt><trkpt lat="44.691145" lon="9.79877"><ele>718.5</ele><time>2026-04-19T11:49:42.053Z</time></trkpt><trkpt lat="44.6911317" lon="9.798615"><ele>719.0</ele><time>2026-04-19T11:49:44.054Z</time></trkpt><trkpt lat="44.69108" lon="9.79853"><ele>719.5</ele><time>2026-04-19T11:49:46.054Z</time></trkpt><trkpt lat="44.69102" lon="9.7984583"><ele>720.0</ele><time>2026-04-19T11:49:48.053Z</time></trkpt><trkpt lat="44.6909733" lon="9.7983867"><ele>725.4</ele><time>2026-04-19T11:49:50.054Z</time></trkpt><trkpt lat="44.6909383" lon="9.7982867"><ele>730.8</ele><time>2026-04-19T11:49:52.054Z</time></trkpt><trkpt lat="44.6909233" lon="9.7981467"><ele>736.2</ele><time>2026-04-19T11:49:54.055Z</time></trkpt><trkpt lat="44.69095" lon="9.7979717"><ele>741.6</ele><time>2026-04-19T11:49:56.055Z</time></trkpt><trkpt lat="44.6909833" lon="9.7978833"><ele>747.0</ele><time>2026-04-19T11:49:57.053Z</time></trkpt><trkpt lat="44.6910317" lon="9.79774"><ele>748.0</ele><time>2026-04-19T11:49:59.054Z</time></trkpt><trkpt lat="44.691035" lon="9.7975633"><ele>749.0</ele><time>2026-04-19T11:50:01.053Z</time></trkpt><trkpt lat="44.6910267" lon="9.7974717"><ele>750.0</ele><time>2026-04-19T11:50:02.056Z</time></trkpt><trkpt lat="44.6910183" lon="9.7973667"><ele>751.0</ele><time>2026-04-19T11:50:03.055Z</time></trkpt><trkpt lat="44.6910133" lon="9.7972667"><ele>752.0</ele><time>2026-04-19T11:50:04.055Z</time></trkpt><trkpt lat="44.6910133" lon="9.7971633"><ele>753.0</ele><time>2026-04-19T11:50:05.055Z</time></trkpt><trkpt lat="44.6910383" lon="9.7970567"><ele>753.0</ele><time>2026-04-19T11:50:06.054Z</time></trkpt><trkpt lat="44.691055" lon="9.7969567"><ele>753.0</ele><time>2026-04-19T11:50:07.055Z</time></trkpt><trkpt lat="44.6910667" lon="9.7968633"><ele>753.0</ele><time>2026-04-19T11:50:08.055Z</time></trkpt><trkpt lat="44.69107" lon="9.796695"><ele>753.0</ele><time>2026-04-19T11:50:10.055Z</time></trkpt><trkpt lat="44.691085" lon="9.7965983"><ele>753.0</ele><time>2026-04-19T11:50:11.056Z</time></trkpt><trkpt lat="44.6911117" lon="9.7964933"><ele>753.0</ele><time>2026-04-19T11:50:12.055Z</time></trkpt><trkpt lat="44.6911317" lon="9.7963983"><ele>750.8333333333334</ele><time>2026-04-19T11:50:13.056Z</time></trkpt><trkpt lat="44.6911567" lon="9.796295"><ele>748.6666666666666</ele><time>2026-04-19T11:50:14.056Z</time></trkpt><trkpt lat="44.6911833" lon="9.796195"><ele>746.5</ele><time>2026-04-19T11:50:15.053Z</time></trkpt><trkpt lat="44.69121" lon="9.7960917"><ele>744.3333333333333</ele><time>2026-04-19T11:50:16.055Z</time></trkpt><trkpt lat="44.6912517" lon="9.795985"><ele>742.1666666666666</ele><time>2026-04-19T11:50:17.056Z</time></trkpt><trkpt lat="44.6912933" lon="9.7958783"><ele>740.0</ele><time>2026-04-19T11:50:18.054Z</time></trkpt><trkpt lat="44.691315" lon="9.7957783"><ele>740.0</ele><time>2026-04-19T11:50:19.054Z</time></trkpt><trkpt lat="44.69134" lon="9.7956617"><ele>740.0</ele><time>2026-04-19T11:50:20.055Z</time></trkpt><trkpt lat="44.69137" lon="9.79556"><ele>740.0</ele><time>2026-04-19T11:50:21.054Z</time></trkpt><trkpt lat="44.6913983" lon="9.79547"><ele>740.0</ele><time>2026-04-19T11:50:22.053Z</time></trkpt><trkpt lat="44.691435" lon="9.79539"><ele>740.0</ele><time>2026-04-19T11:50:24.055Z</time></trkpt><trkpt lat="44.6914867" lon="9.7953267"><ele>740.0</ele><time>2026-04-19T11:50:29.054Z</time></trkpt><trkpt lat="44.6915583" lon="9.7952217"><ele>742.2</ele><time>2026-04-19T11:50:31.054Z</time></trkpt><trkpt lat="44.6915817" lon="9.7950817"><ele>744.4</ele><time>2026-04-19T11:50:33.055Z</time></trkpt><trkpt lat="44.6915633" lon="9.7948983"><ele>746.5999999999999</ele><time>2026-04-19T11:50:35.055Z</time></trkpt><trkpt lat="44.69155" lon="9.7947817"><ele>748.8</ele><time>2026-04-19T11:50:36.055Z</time></trkpt><trkpt lat="44.6915267" lon="9.7946433"><ele>751.0</ele><time>2026-04-19T11:50:37.055Z</time></trkpt><trkpt lat="44.6914933" lon="9.794505"><ele>751.0</ele><time>2026-04-19T11:50:38.055Z</time></trkpt><trkpt lat="44.6914633" lon="9.79437"><ele>751.0</ele><time>2026-04-19T11:50:39.055Z</time></trkpt><trkpt lat="44.69143" lon="9.7942283"><ele>751.0</ele><time>2026-04-19T11:50:40.055Z</time></trkpt><trkpt lat="44.6913983" lon="9.79409"><ele>751.0</ele><time>2026-04-19T11:50:41.054Z</time></trkpt><trkpt lat="44.691375" lon="9.7939583"><ele>751.0</ele><time>2026-04-19T11:50:42.053Z</time></trkpt><trkpt lat="44.6913583" lon="9.7938467"><ele>752.0000000000001</ele><time>2026-04-19T11:50:43.055Z</time></trkpt><trkpt lat="44.6913483" lon="9.793745"><ele>753.0</ele><time>2026-04-19T11:50:44.053Z</time></trkpt><trkpt lat="44.6913467" lon="9.79365"><ele>754.0</ele><time>2026-04-19T11:50:45.054Z</time></trkpt><trkpt lat="44.6913533" lon="9.7935467"><ele>755.0</ele><time>2026-04-19T11:50:46.053Z</time></trkpt><trkpt lat="44.6913567" lon="9.793435"><ele>756.0</ele><time>2026-04-19T11:50:47.056Z</time></trkpt><trkpt lat="44.6913483" lon="9.79332"><ele>757.0000000000001</ele><time>2026-04-19T11:50:48.053Z</time></trkpt><trkpt lat="44.6913317" lon="9.7932217"><ele>758.0</ele><time>2026-04-19T11:50:49.053Z</time></trkpt><trkpt lat="44.691265" lon="9.7930983"><ele>760.5999999999999</ele><time>2026-04-19T11:50:51.055Z</time></trkpt><trkpt lat="44.6911617" lon="9.793015"><ele>763.1999999999999</ele><time>2026-04-19T11:50:53.054Z</time></trkpt><trkpt lat="44.691095" lon="9.7928817"><ele>765.8</ele><time>2026-04-19T11:50:55.054Z</time></trkpt><trkpt lat="44.691065" lon="9.79273"><ele>768.4</ele><time>2026-04-19T11:50:57.055Z</time></trkpt><trkpt lat="44.6910133" lon="9.79263"><ele>771.0</ele><time>2026-04-19T11:50:59.054Z</time></trkpt><trkpt lat="44.6909333" lon="9.79256"><ele>776.0</ele><time>2026-04-19T11:51:01.055Z</time></trkpt><trkpt lat="44.69085" lon="9.7924867"><ele>781.0</ele><time>2026-04-19T11:51:03.054Z</time></trkpt><trkpt lat="44.6907733" lon="9.7924"><ele>786.0</ele><time>2026-04-19T11:51:05.053Z</time></trkpt><trkpt lat="44.6907117" lon="9.7922917"><ele>791.0</ele><time>2026-04-19T11:51:07.054Z</time></trkpt><trkpt lat="44.690665" lon="9.7921667"><ele>796.0</ele><time>2026-04-19T11:51:09.054Z</time></trkpt><trkpt lat="44.6906267" lon="9.79201"><ele>795.9999999999999</ele><time>2026-04-19T11:51:11.055Z</time></trkpt><trkpt lat="44.690595" lon="9.791915"><ele>796.0</ele><time>2026-04-19T11:51:12.055Z</time></trkpt><trkpt lat="44.6905567" lon="9.791815"><ele>796.0</ele><time>2026-04-19T11:51:13.055Z</time></trkpt><trkpt lat="44.6905167" lon="9.7917367"><ele>796.0</ele><time>2026-04-19T11:51:14.055Z</time></trkpt><trkpt lat="44.6904567" lon="9.7916283"><ele>795.9999999999999</ele><time>2026-04-19T11:51:16.053Z</time></trkpt><trkpt lat="44.6904133" lon="9.7915267"><ele>796.0</ele><time>2026-04-19T11:51:18.054Z</time></trkpt><trkpt lat="44.6903533" lon="9.791415"><ele>798.8</ele><time>2026-04-19T11:51:20.053Z</time></trkpt><trkpt lat="44.69027" lon="9.7912933"><ele>801.5999999999999</ele><time>2026-04-19T11:51:22.053Z</time></trkpt><trkpt lat="44.690225" lon="9.7912267"><ele>804.4</ele><time>2026-04-19T11:51:23.053Z</time></trkpt><trkpt lat="44.6901633" lon="9.7910983"><ele>807.2</ele><time>2026-04-19T11:51:25.055Z</time></trkpt><trkpt lat="44.690095" lon="9.790985"><ele>810.0</ele><time>2026-04-19T11:51:27.054Z</time></trkpt><trkpt lat="44.690005" lon="9.79096"><ele>814.8333333333334</ele><time>2026-04-19T11:51:29.054Z</time></trkpt><trkpt lat="44.689905" lon="9.7909367"><ele>819.6666666666667</ele><time>2026-04-19T11:51:31.055Z</time></trkpt><trkpt lat="44.6898217" lon="9.790875"><ele>824.5</ele><time>2026-04-19T11:51:33.054Z</time></trkpt><trkpt lat="44.6897517" lon="9.7907767"><ele>829.3333333333334</ele><time>2026-04-19T11:51:35.055Z</time></trkpt><trkpt lat="44.6897" lon="9.7907117"><ele>834.1666666666667</ele><time>2026-04-19T11:51:36.055Z</time></trkpt><trkpt lat="44.6896483" lon="9.790625"><ele>839.0</ele><time>2026-04-19T11:51:37.053Z</time></trkpt><trkpt lat="44.6896033" lon="9.7905333"><ele>839.0</ele><time>2026-04-19T11:51:38.055Z</time></trkpt><trkpt lat="44.6895633" lon="9.7904417"><ele>839.0</ele><time>2026-04-19T11:51:39.054Z</time></trkpt><trkpt lat="44.6895367" lon="9.79035"><ele>839.0</ele><time>2026-04-19T11:51:40.057Z</time></trkpt><trkpt lat="44.6895067" lon="9.7902583"><ele>839.0</ele><time>2026-04-19T11:51:41.055Z</time></trkpt><trkpt lat="44.6894783" lon="9.7901083"><ele>839.0</ele><time>2026-04-19T11:51:43.054Z</time></trkpt><trkpt lat="44.6894067" lon="9.7899633"><ele>842.0000000000001</ele><time>2026-04-19T11:51:45.053Z</time></trkpt><trkpt lat="44.689345" lon="9.7898867"><ele>845.0</ele><time>2026-04-19T11:51:46.053Z</time></trkpt><trkpt lat="44.6892717" lon="9.7898017"><ele>848.0</ele><time>2026-04-19T11:51:47.053Z</time></trkpt><trkpt lat="44.6891983" lon="9.7897183"><ele>851.0</ele><time>2026-04-19T11:51:48.055Z</time></trkpt><trkpt lat="44.6891333" lon="9.7896417"><ele>854.0000000000001</ele><time>2026-04-19T11:51:49.055Z</time></trkpt><trkpt lat="44.6890717" lon="9.7895733"><ele>857.0</ele><time>2026-04-19T11:51:50.057Z</time></trkpt><trkpt lat="44.6889817" lon="9.789465"><ele>857.0</ele><time>2026-04-19T11:51:52.054Z</time></trkpt><trkpt lat="44.688995" lon="9.78936"><ele>857.0</ele><time>2026-04-19T11:51:55.055Z</time></trkpt><trkpt lat="44.6890783" lon="9.7892117"><ele>857.0</ele><time>2026-04-19T11:51:57.054Z</time></trkpt><trkpt lat="44.6891333" lon="9.789125"><ele>857.0</ele><time>2026-04-19T11:51:58.056Z</time></trkpt><trkpt lat="44.689195" lon="9.78903"><ele>857.0</ele><time>2026-04-19T11:51:59.055Z</time></trkpt><trkpt lat="44.6892583" lon="9.78894"><ele>857.0000000000001</ele><time>2026-04-19T11:52:00.055Z</time></trkpt><trkpt lat="44.6893033" lon="9.78887"><ele>857.0</ele><time>2026-04-19T11:52:01.056Z</time></trkpt><trkpt lat="44.6893733" lon="9.788775"><ele>857.0</ele><time>2026-04-19T11:52:03.055Z</time></trkpt><trkpt lat="44.6893733" lon="9.78868"><ele>857.0</ele><time>2026-04-19T11:52:08.056Z</time></trkpt><trkpt lat="44.689335" lon="9.788565"><ele>857.0000000000001</ele><time>2026-04-19T11:52:11.055Z</time></trkpt><trkpt lat="44.689295" lon="9.7884"><ele>857.0</ele><time>2026-04-19T11:52:13.055Z</time></trkpt><trkpt lat="44.68927" lon="9.7882433"><ele>857.6666666666667</ele><time>2026-04-19T11:52:15.054Z</time></trkpt><trkpt lat="44.6892667" lon="9.7880767"><ele>858.3333333333334</ele><time>2026-04-19T11:52:17.054Z</time></trkpt><trkpt lat="44.6893017" lon="9.7879133"><ele>859.0</ele><time>2026-04-19T11:52:19.055Z</time></trkpt><trkpt lat="44.689335" lon="9.78783"><ele>859.6666666666667</ele><time>2026-04-19T11:52:20.056Z</time></trkpt><trkpt lat="44.6893683" lon="9.7877383"><ele>860.3333333333334</ele><time>2026-04-19T11:52:21.055Z</time></trkpt><trkpt lat="44.6894" lon="9.7876567"><ele>861.0</ele><time>2026-04-19T11:52:22.056Z</time></trkpt><trkpt lat="44.6894317" lon="9.78757"><ele>861.1999999999999</ele><time>2026-04-19T11:52:23.053Z</time></trkpt><trkpt lat="44.6894517" lon="9.7874833"><ele>861.3999999999999</ele><time>2026-04-19T11:52:24.056Z</time></trkpt><trkpt lat="44.6894633" lon="9.78734"><ele>861.6</ele><time>2026-04-19T11:52:26.055Z</time></trkpt><trkpt lat="44.68942" lon="9.7872033"><ele>861.8</ele><time>2026-04-19T11:52:28.055Z</time></trkpt><trkpt lat="44.6893467" lon="9.787105"><ele>862.0</ele><time>2026-04-19T11:52:30.055Z</time></trkpt><trkpt lat="44.6892917" lon="9.7870217"><ele>861.9999999999999</ele><time>2026-04-19T11:52:32.055Z</time></trkpt><trkpt lat="44.6892483" lon="9.7869383"><ele>862.0</ele><time>2026-04-19T11:52:34.054Z</time></trkpt><trkpt lat="44.6892333" lon="9.7868217"><ele>862.0</ele><time>2026-04-19T11:52:37.054Z</time></trkpt><trkpt lat="44.6892267" lon="9.7867183"><ele>862.0</ele><time>2026-04-19T11:52:39.055Z</time></trkpt><trkpt lat="44.68922" lon="9.7866233"><ele>861.9999999999999</ele><time>2026-04-19T11:52:41.053Z</time></trkpt><trkpt lat="44.6892133" lon="9.78651"><ele>862.0</ele><time>2026-04-19T11:52:44.055Z</time></trkpt><trkpt lat="44.6891883" lon="9.7863783"><ele>861.3333333333333</ele><time>2026-04-19T11:52:47.053Z</time></trkpt><trkpt lat="44.689155" lon="9.7862383"><ele>860.6666666666666</ele><time>2026-04-19T11:52:49.054Z</time></trkpt><trkpt lat="44.6891167" lon="9.7861667"><ele>860.0</ele><time>2026-04-19T11:52:50.055Z</time></trkpt><trkpt lat="44.6890633" lon="9.7860833"><ele>859.3333333333333</ele><time>2026-04-19T11:52:51.054Z</time></trkpt><trkpt lat="44.6889983" lon="9.7859783"><ele>858.6666666666666</ele><time>2026-04-19T11:52:52.054Z</time></trkpt><trkpt lat="44.688955" lon="9.7858867"><ele>858.0</ele><time>2026-04-19T11:52:53.053Z</time></trkpt><trkpt lat="44.6889017" lon="9.7857767"><ele>858.0</ele><time>2026-04-19T11:52:54.054Z</time></trkpt><trkpt lat="44.688845" lon="9.7856917"><ele>858.0</ele><time>2026-04-19T11:52:55.054Z</time></trkpt><trkpt lat="44.6887717" lon="9.7855117"><ele>858.0</ele><time>2026-04-19T11:52:57.054Z</time></trkpt><trkpt lat="44.6887233" lon="9.7853783"><ele>858.0</ele><time>2026-04-19T11:52:59.055Z</time></trkpt><trkpt lat="44.6886883" lon="9.7852467"><ele>858.0</ele><time>2026-04-19T11:53:01.054Z</time></trkpt><trkpt lat="44.6886733" lon="9.7850967"><ele>857.8</ele><time>2026-04-19T11:53:03.054Z</time></trkpt><trkpt lat="44.6886417" lon="9.7849933"><ele>857.5999999999999</ele><time>2026-04-19T11:53:05.053Z</time></trkpt><trkpt lat="44.6885983" lon="9.7848867"><ele>857.4000000000001</ele><time>2026-04-19T11:53:07.053Z</time></trkpt><trkpt lat="44.688555" lon="9.784775"><ele>857.2</ele><time>2026-04-19T11:53:09.054Z</time></trkpt><trkpt lat="44.6885433" lon="9.7846033"><ele>857.0</ele><time>2026-04-19T11:53:11.053Z</time></trkpt><trkpt lat="44.688575" lon="9.7844583"><ele>857.6</ele><time>2026-04-19T11:53:13.055Z</time></trkpt><trkpt lat="44.6886567" lon="9.7842883"><ele>858.2</ele><time>2026-04-19T11:53:15.054Z</time></trkpt><trkpt lat="44.6886983" lon="9.784205"><ele>858.8</ele><time>2026-04-19T11:53:16.053Z</time></trkpt><trkpt lat="44.6887433" lon="9.7841133"><ele>859.4</ele><time>2026-04-19T11:53:17.054Z</time></trkpt><trkpt lat="44.6887867" lon="9.78402"><ele>860.0</ele><time>2026-04-19T11:53:18.054Z</time></trkpt><trkpt lat="44.6888317" lon="9.7839283"><ele>860.0000000000001</ele><time>2026-04-19T11:53:19.054Z</time></trkpt><trkpt lat="44.6888717" lon="9.78383"><ele>860.0</ele><time>2026-04-19T11:53:20.054Z</time></trkpt><trkpt lat="44.6889167" lon="9.7837417"><ele>860.0</ele><time>2026-04-19T11:53:21.056Z</time></trkpt><trkpt lat="44.6889667" lon="9.7836633"><ele>860.0</ele><time>2026-04-19T11:53:22.055Z</time></trkpt><trkpt lat="44.6890267" lon="9.783585"><ele>860.0000000000001</ele><time>2026-04-19T11:53:23.055Z</time></trkpt><trkpt lat="44.6890867" lon="9.7835183"><ele>860.0</ele><time>2026-04-19T11:53:24.053Z</time></trkpt><trkpt lat="44.689135" lon="9.7834483"><ele>862.0</ele><time>2026-04-19T11:53:25.054Z</time></trkpt><trkpt lat="44.6892033" lon="9.783315"><ele>864.0</ele><time>2026-04-19T11:53:27.054Z</time></trkpt><trkpt lat="44.689235" lon="9.7831483"><ele>866.0</ele><time>2026-04-19T11:53:29.055Z</time></trkpt><trkpt lat="44.68926" lon="9.7829783"><ele>868.0</ele><time>2026-04-19T11:53:31.055Z</time></trkpt><trkpt lat="44.689295" lon="9.7828733"><ele>870.0</ele><time>2026-04-19T11:53:32.056Z</time></trkpt><trkpt lat="44.6893317" lon="9.7827733"><ele>870.0</ele><time>2026-04-19T11:53:33.054Z</time></trkpt><trkpt lat="44.6893583" lon="9.7826833"><ele>870.0</ele><time>2026-04-19T11:53:34.054Z</time></trkpt><trkpt lat="44.6893867" lon="9.7825817"><ele>870.0</ele><time>2026-04-19T11:53:35.055Z</time></trkpt><trkpt lat="44.6894017" lon="9.7824733"><ele>870.0</ele><time>2026-04-19T11:53:36.055Z</time></trkpt><trkpt lat="44.6894217" lon="9.7823683"><ele>870.0</ele><time>2026-04-19T11:53:37.055Z</time></trkpt><trkpt lat="44.68944" lon="9.7822733"><ele>870.0</ele><time>2026-04-19T11:53:38.054Z</time></trkpt><trkpt lat="44.6894867" lon="9.78216"><ele>867.0</ele><time>2026-04-19T11:53:40.053Z</time></trkpt><trkpt lat="44.6895733" lon="9.7820667"><ele>864.0</ele><time>2026-04-19T11:53:42.054Z</time></trkpt><trkpt lat="44.6896433" lon="9.7820217"><ele>861.0</ele><time>2026-04-19T11:53:43.054Z</time></trkpt><trkpt lat="44.6897217" lon="9.7819767"><ele>858.0</ele><time>2026-04-19T11:53:44.053Z</time></trkpt><trkpt lat="44.6898133" lon="9.7819367"><ele>855.0</ele><time>2026-04-19T11:53:45.053Z</time></trkpt><trkpt lat="44.6899067" lon="9.7819033"><ele>855.0</ele><time>2026-04-19T11:53:46.053Z</time></trkpt><trkpt lat="44.6899783" lon="9.7818817"><ele>855.0</ele><time>2026-04-19T11:53:47.054Z</time></trkpt><trkpt lat="44.69004" lon="9.7818567"><ele>855.0</ele><time>2026-04-19T11:53:48.055Z</time></trkpt><trkpt lat="44.690145" lon="9.7817983"><ele>855.0</ele><time>2026-04-19T11:53:50.054Z</time></trkpt><trkpt lat="44.6902633" lon="9.7817683"><ele>855.0</ele><time>2026-04-19T11:53:52.055Z</time></trkpt><trkpt lat="44.6903417" lon="9.781775"><ele>855.0</ele><time>2026-04-19T11:53:53.055Z</time></trkpt><trkpt lat="44.6904167" lon="9.7817967"><ele>856.3333333333334</ele><time>2026-04-19T11:53:54.055Z</time></trkpt><trkpt lat="44.690495" lon="9.781805"><ele>857.6666666666667</ele><time>2026-04-19T11:53:55.055Z</time></trkpt><trkpt lat="44.6905667" lon="9.7818083"><ele>859.0</ele><time>2026-04-19T11:53:56.055Z</time></trkpt><trkpt lat="44.6906367" lon="9.7818033"><ele>860.3333333333334</ele><time>2026-04-19T11:53:57.055Z</time></trkpt><trkpt lat="44.6907" lon="9.7817817"><ele>861.6666666666667</ele><time>2026-04-19T11:53:58.054Z</time></trkpt><trkpt lat="44.690835" lon="9.7817017"><ele>863.0</ele><time>2026-04-19T11:54:00.055Z</time></trkpt><trkpt lat="44.6909233" lon="9.7815917"><ele>863.0</ele><time>2026-04-19T11:54:02.054Z</time></trkpt><trkpt lat="44.6909433" lon="9.7815033"><ele>863.0</ele><time>2026-04-19T11:54:03.054Z</time></trkpt><trkpt lat="44.6909483" lon="9.78139"><ele>863.0</ele><time>2026-04-19T11:54:04.053Z</time></trkpt><trkpt lat="44.6909217" lon="9.7812367"><ele>863.0</ele><time>2026-04-19T11:54:05.055Z</time></trkpt><trkpt lat="44.690885" lon="9.78108"><ele>863.0</ele><time>2026-04-19T11:54:06.056Z</time></trkpt><trkpt lat="44.6908633" lon="9.7809533"><ele>863.4</ele><time>2026-04-19T11:54:07.054Z</time></trkpt><trkpt lat="44.6908467" lon="9.780825"><ele>863.8</ele><time>2026-04-19T11:54:08.054Z</time></trkpt><trkpt lat="44.6908283" lon="9.7807183"><ele>864.2</ele><time>2026-04-19T11:54:09.054Z</time></trkpt><trkpt lat="44.6908067" lon="9.7806233"><ele>864.6</ele><time>2026-04-19T11:54:10.054Z</time></trkpt><trkpt lat="44.6907767" lon="9.7804867"><ele>865.0</ele><time>2026-04-19T11:54:12.056Z</time></trkpt><trkpt lat="44.69072" lon="9.7803417"><ele>865.0</ele><time>2026-04-19T11:54:14.053Z</time></trkpt><trkpt lat="44.6906833" lon="9.780195"><ele>865.0</ele><time>2026-04-19T11:54:16.055Z</time></trkpt><trkpt lat="44.690695" lon="9.7800383"><ele>865.0</ele><time>2026-04-19T11:54:18.054Z</time></trkpt><trkpt lat="44.6907133" lon="9.7799533"><ele>865.0</ele><time>2026-04-19T11:54:20.056Z</time></trkpt><trkpt lat="44.6907283" lon="9.7798517"><ele>865.0</ele><time>2026-04-19T11:54:23.055Z</time></trkpt><trkpt lat="44.6907283" lon="9.7797217"><ele>864.3333333333333</ele><time>2026-04-19T11:54:26.054Z</time></trkpt><trkpt lat="44.6907383" lon="9.7796317"><ele>863.6666666666666</ele><time>2026-04-19T11:54:29.054Z</time></trkpt><trkpt lat="44.69073" lon="9.7795433"><ele>863.0</ele><time>2026-04-19T11:54:31.053Z</time></trkpt><trkpt lat="44.69071" lon="9.779425"><ele>862.3333333333333</ele><time>2026-04-19T11:54:33.053Z</time></trkpt><trkpt lat="44.6906917" lon="9.7792867"><ele>861.6666666666666</ele><time>2026-04-19T11:54:35.054Z</time></trkpt><trkpt lat="44.6907" lon="9.7791267"><ele>861.0</ele><time>2026-04-19T11:54:37.053Z</time></trkpt><trkpt lat="44.6907283" lon="9.7790333"><ele>860.8333333333334</ele><time>2026-04-19T11:54:38.056Z</time></trkpt><trkpt lat="44.6907467" lon="9.778945"><ele>860.6666666666667</ele><time>2026-04-19T11:54:39.055Z</time></trkpt><trkpt lat="44.69078" lon="9.7787983"><ele>860.5</ele><time>2026-04-19T11:54:41.054Z</time></trkpt><trkpt lat="44.690825" lon="9.7786817"><ele>860.3333333333334</ele><time>2026-04-19T11:54:43.056Z</time></trkpt><trkpt lat="44.6908933" lon="9.7786133"><ele>860.1666666666667</ele><time>2026-04-19T11:54:46.055Z</time></trkpt><trkpt lat="44.69097" lon="9.77866"><ele>860.0</ele><time>2026-04-19T11:54:48.055Z</time></trkpt><trkpt lat="44.6910633" lon="9.7787"><ele>858.2</ele><time>2026-04-19T11:54:50.056Z</time></trkpt><trkpt lat="44.6911867" lon="9.7786917"><ele>856.4</ele><time>2026-04-19T11:54:52.053Z</time></trkpt><trkpt lat="44.69126" lon="9.7786967"><ele>854.5999999999999</ele><time>2026-04-19T11:54:53.053Z</time></trkpt><trkpt lat="44.6913533" lon="9.7787267"><ele>852.8</ele><time>2026-04-19T11:54:54.055Z</time></trkpt><trkpt lat="44.6914433" lon="9.7787617"><ele>851.0</ele><time>2026-04-19T11:54:55.053Z</time></trkpt><trkpt lat="44.69154" lon="9.7787883"><ele>851.0</ele><time>2026-04-19T11:54:56.055Z</time></trkpt><trkpt lat="44.6916417" lon="9.7788117"><ele>851.0</ele><time>2026-04-19T11:54:57.054Z</time></trkpt><trkpt lat="44.691735" lon="9.77883"><ele>851.0</ele><time>2026-04-19T11:54:58.053Z</time></trkpt><trkpt lat="44.69183" lon="9.7788467"><ele>851.0</ele><time>2026-04-19T11:54:59.055Z</time></trkpt><trkpt lat="44.69192" lon="9.7788617"><ele>851.0</ele><time>2026-04-19T11:55:00.054Z</time></trkpt><trkpt lat="44.6919917" lon="9.7788933"><ele>851.4285714285714</ele><time>2026-04-19T11:55:01.055Z</time></trkpt><trkpt lat="44.6920633" lon="9.7789367"><ele>851.8571428571429</ele><time>2026-04-19T11:55:02.055Z</time></trkpt><trkpt lat="44.692125" lon="9.7789983"><ele>852.2857142857142</ele><time>2026-04-19T11:55:03.054Z</time></trkpt><trkpt lat="44.6921883" lon="9.7790533"><ele>852.7142857142858</ele><time>2026-04-19T11:55:04.054Z</time></trkpt><trkpt lat="44.692255" lon="9.77909"><ele>853.1428571428571</ele><time>2026-04-19T11:55:05.054Z</time></trkpt><trkpt lat="44.692325" lon="9.7791117"><ele>853.5714285714286</ele><time>2026-04-19T11:55:06.055Z</time></trkpt><trkpt lat="44.6924017" lon="9.7791183"><ele>854.0</ele><time>2026-04-19T11:55:07.054Z</time></trkpt><trkpt lat="44.6925033" lon="9.7791267"><ele>854.0</ele><time>2026-04-19T11:55:08.054Z</time></trkpt><trkpt lat="44.6926217" lon="9.7791383"><ele>854.0000000000001</ele><time>2026-04-19T11:55:09.055Z</time></trkpt><trkpt lat="44.692735" lon="9.7791567"><ele>854.0000000000001</ele><time>2026-04-19T11:55:10.054Z</time></trkpt><trkpt lat="44.6928467" lon="9.7791633"><ele>854.0</ele><time>2026-04-19T11:55:11.056Z</time></trkpt><trkpt lat="44.692945" lon="9.7791667"><ele>854.0</ele><time>2026-04-19T11:55:12.055Z</time></trkpt><trkpt lat="44.6930367" lon="9.7791733"><ele>853.1666666666667</ele><time>2026-04-19T11:55:13.054Z</time></trkpt><trkpt lat="44.693125" lon="9.7791883"><ele>852.3333333333334</ele><time>2026-04-19T11:55:14.053Z</time></trkpt><trkpt lat="44.693205" lon="9.7791967"><ele>851.5</ele><time>2026-04-19T11:55:15.055Z</time></trkpt><trkpt lat="44.69327" lon="9.7792"><ele>850.6666666666667</ele><time>2026-04-19T11:55:16.056Z</time></trkpt><trkpt lat="44.69337" lon="9.7791533"><ele>849.8333333333334</ele><time>2026-04-19T11:55:18.054Z</time></trkpt><trkpt lat="44.69341" lon="9.779065"><ele>849.0</ele><time>2026-04-19T11:55:19.056Z</time></trkpt><trkpt lat="44.69344" lon="9.7789717"><ele>849.0</ele><time>2026-04-19T11:55:20.053Z</time></trkpt><trkpt lat="44.693495" lon="9.7788483"><ele>849.0</ele><time>2026-04-19T11:55:22.054Z</time></trkpt><trkpt lat="44.693575" lon="9.778765"><ele>849.0</ele><time>2026-04-19T11:55:24.054Z</time></trkpt><trkpt lat="44.69367" lon="9.7787333"><ele>849.0</ele><time>2026-04-19T11:55:26.056Z</time></trkpt><trkpt lat="44.6937717" lon="9.7787333"><ele>849.0</ele><time>2026-04-19T11:55:28.055Z</time></trkpt><trkpt lat="44.6938417" lon="9.7787417"><ele>849.6</ele><time>2026-04-19T11:55:30.054Z</time></trkpt><trkpt lat="44.6938817" lon="9.7786333"><ele>850.2</ele><time>2026-04-19T11:55:33.052Z</time></trkpt><trkpt lat="44.69389" lon="9.77847"><ele>850.8000000000001</ele><time>2026-04-19T11:55:35.054Z</time></trkpt><trkpt lat="44.6939317" lon="9.7783133"><ele>851.4000000000001</ele><time>2026-04-19T11:55:37.055Z</time></trkpt><trkpt lat="44.69398" lon="9.77823"><ele>852.0</ele><time>2026-04-19T11:55:38.056Z</time></trkpt><trkpt lat="44.6940333" lon="9.7781633"><ele>852.0</ele><time>2026-04-19T11:55:39.052Z</time></trkpt><trkpt lat="44.6940883" lon="9.7781183"><ele>852.0</ele><time>2026-04-19T11:55:40.053Z</time></trkpt><trkpt lat="44.6942067" lon="9.77809"><ele>852.0</ele><time>2026-04-19T11:55:42.052Z</time></trkpt><trkpt lat="44.6942767" lon="9.7780933"><ele>852.0</ele><time>2026-04-19T11:55:43.055Z</time></trkpt><trkpt lat="44.6943617" lon="9.7780967"><ele>852.0</ele><time>2026-04-19T11:55:44.055Z</time></trkpt><trkpt lat="44.6944433" lon="9.7781"><ele>852.0</ele><time>2026-04-19T11:55:45.056Z</time></trkpt><trkpt lat="44.694515" lon="9.7780833"><ele>851.3333333333334</ele><time>2026-04-19T11:55:46.054Z</time></trkpt><trkpt lat="44.6945767" lon="9.7780483"><ele>850.6666666666667</ele><time>2026-04-19T11:55:47.054Z</time></trkpt><trkpt lat="44.694645" lon="9.7779817"><ele>850.0</ele><time>2026-04-19T11:55:48.053Z</time></trkpt><trkpt lat="44.6947033" lon="9.777915"><ele>849.3333333333334</ele><time>2026-04-19T11:55:49.054Z</time></trkpt><trkpt lat="44.6947683" lon="9.7778433"><ele>848.6666666666667</ele><time>2026-04-19T11:55:50.055Z</time></trkpt><trkpt lat="44.6948333" lon="9.7777783"><ele>848.0</ele><time>2026-04-19T11:55:51.054Z</time></trkpt><trkpt lat="44.6948917" lon="9.7777267"><ele>850.5999999999999</ele><time>2026-04-19T11:55:52.055Z</time></trkpt><trkpt lat="44.6949467" lon="9.7776767"><ele>853.1999999999999</ele><time>2026-04-19T11:55:53.054Z</time></trkpt><trkpt lat="44.69503" lon="9.777605"><ele>855.8</ele><time>2026-04-19T11:55:55.054Z</time></trkpt><trkpt lat="44.695115" lon="9.7775267"><ele>858.4</ele><time>2026-04-19T11:55:57.053Z</time></trkpt><trkpt lat="44.695225" lon="9.7774717"><ele>861.0</ele><time>2026-04-19T11:55:59.055Z</time></trkpt><trkpt lat="44.6953233" lon="9.77747"><ele>862.0</ele><time>2026-04-19T11:56:01.056Z</time></trkpt><trkpt lat="44.6953933" lon="9.7775433"><ele>863.0</ele><time>2026-04-19T11:56:03.055Z</time></trkpt><trkpt lat="44.6954533" lon="9.7776483"><ele>864.0</ele><time>2026-04-19T11:56:05.055Z</time></trkpt><trkpt lat="44.695495" lon="9.77772"><ele>865.0</ele><time>2026-04-19T11:56:06.054Z</time></trkpt><trkpt lat="44.69555" lon="9.7777917"><ele>866.0</ele><time>2026-04-19T11:56:07.055Z</time></trkpt><trkpt lat="44.6956067" lon="9.77784"><ele>867.0</ele><time>2026-04-19T11:56:08.055Z</time></trkpt><trkpt lat="44.6956667" lon="9.7779067"><ele>865.2857142857142</ele><time>2026-04-19T11:56:09.054Z</time></trkpt><trkpt lat="44.69573" lon="9.777955"><ele>863.5714285714287</ele><time>2026-04-19T11:56:10.055Z</time></trkpt><trkpt lat="44.69579" lon="9.7780117"><ele>861.8571428571429</ele><time>2026-04-19T11:56:11.055Z</time></trkpt><trkpt lat="44.6958467" lon="9.7780633"><ele>860.1428571428571</ele><time>2026-04-19T11:56:12.053Z</time></trkpt><trkpt lat="44.6958983" lon="9.7781183"><ele>858.4285714285713</ele><time>2026-04-19T11:56:13.055Z</time></trkpt><trkpt lat="44.6959567" lon="9.7781667"><ele>856.7142857142858</ele><time>2026-04-19T11:56:14.055Z</time></trkpt><trkpt lat="44.6960083" lon="9.778225"><ele>855.0</ele><time>2026-04-19T11:56:15.053Z</time></trkpt><trkpt lat="44.696095" lon="9.7783133"><ele>855.0</ele><time>2026-04-19T11:56:17.054Z</time></trkpt><trkpt lat="44.696165" lon="9.778385"><ele>855.0</ele><time>2026-04-19T11:56:25.053Z</time></trkpt><trkpt lat="44.6962483" lon="9.7784683"><ele>855.0</ele><time>2026-04-19T11:56:27.053Z</time></trkpt><trkpt lat="44.6963583" lon="9.7785433"><ele>855.0</ele><time>2026-04-19T11:56:29.055Z</time></trkpt><trkpt lat="44.6964533" lon="9.7786183"><ele>855.0</ele><time>2026-04-19T11:56:31.055Z</time></trkpt><trkpt lat="44.6965183" lon="9.7786517"><ele>852.0</ele><time>2026-04-19T11:56:32.055Z</time></trkpt><trkpt lat="44.696585" lon="9.7786733"><ele>849.0</ele><time>2026-04-19T11:56:33.055Z</time></trkpt><trkpt lat="44.6966583" lon="9.778685"><ele>846.0</ele><time>2026-04-19T11:56:34.055Z</time></trkpt><trkpt lat="44.6967283" lon="9.77869"><ele>843.0</ele><time>2026-04-19T11:56:35.055Z</time></trkpt><trkpt lat="44.6968" lon="9.77869"><ele>840.0</ele><time>2026-04-19T11:56:36.055Z</time></trkpt><trkpt lat="44.6968633" lon="9.778695"><ele>837.0</ele><time>2026-04-19T11:56:37.055Z</time></trkpt><trkpt lat="44.69697" lon="9.778705"><ele>837.3333333333334</ele><time>2026-04-19T11:56:39.056Z</time></trkpt><trkpt lat="44.6970783" lon="9.7786733"><ele>837.6666666666667</ele><time>2026-04-19T11:56:41.055Z</time></trkpt><trkpt lat="44.697155" lon="9.7786433"><ele>838.0</ele><time>2026-04-19T11:56:42.057Z</time></trkpt><trkpt lat="44.6972317" lon="9.7786133"><ele>838.3333333333334</ele><time>2026-04-19T11:56:43.055Z</time></trkpt><trkpt lat="44.6973083" lon="9.7785883"><ele>838.6666666666667</ele><time>2026-04-19T11:56:44.056Z</time></trkpt><trkpt lat="44.69738" lon="9.7785533"><ele>839.0</ele><time>2026-04-19T11:56:45.054Z</time></trkpt><trkpt lat="44.6974417" lon="9.7785167"><ele>839.0</ele><time>2026-04-19T11:56:46.054Z</time></trkpt><trkpt lat="44.6975" lon="9.7784767"><ele>839.0</ele><time>2026-04-19T11:56:47.056Z</time></trkpt><trkpt lat="44.697605" lon="9.7784017"><ele>839.0</ele><time>2026-04-19T11:56:49.053Z</time></trkpt><trkpt lat="44.6976617" lon="9.7783533"><ele>839.0</ele><time>2026-04-19T11:56:50.054Z</time></trkpt><trkpt lat="44.6977633" lon="9.7782833"><ele>839.0</ele><time>2026-04-19T11:56:52.055Z</time></trkpt><trkpt lat="44.6979" lon="9.778275"><ele>835.3333333333334</ele><time>2026-04-19T11:56:54.054Z</time></trkpt><trkpt lat="44.6979767" lon="9.7782733"><ele>831.6666666666667</ele><time>2026-04-19T11:56:55.055Z</time></trkpt><trkpt lat="44.6980467" lon="9.77826"><ele>828.0</ele><time>2026-04-19T11:56:56.055Z</time></trkpt><trkpt lat="44.69812" lon="9.7782317"><ele>824.3333333333333</ele><time>2026-04-19T11:56:57.055Z</time></trkpt><trkpt lat="44.69819" lon="9.778195"><ele>820.6666666666666</ele><time>2026-04-19T11:56:58.055Z</time></trkpt><trkpt lat="44.6982683" lon="9.7781483"><ele>817.0</ele><time>2026-04-19T11:56:59.056Z</time></trkpt><trkpt lat="44.6983383" lon="9.7781083"><ele>816.9999999999999</ele><time>2026-04-19T11:57:00.055Z</time></trkpt><trkpt lat="44.69841" lon="9.7780733"><ele>817.0</ele><time>2026-04-19T11:57:01.055Z</time></trkpt><trkpt lat="44.6985167" lon="9.7780117"><ele>817.0</ele><time>2026-04-19T11:57:03.055Z</time></trkpt><trkpt lat="44.6985883" lon="9.7779767"><ele>817.0</ele><time>2026-04-19T11:57:05.055Z</time></trkpt><trkpt lat="44.69866" lon="9.77796"><ele>816.9999999999999</ele><time>2026-04-19T11:57:07.054Z</time></trkpt><trkpt lat="44.6987417" lon="9.777985"><ele>817.0</ele><time>2026-04-19T11:57:09.053Z</time></trkpt><trkpt lat="44.69884" lon="9.7779967"><ele>814.9999999999999</ele><time>2026-04-19T11:57:11.055Z</time></trkpt><trkpt lat="44.6989333" lon="9.77804"><ele>813.0</ele><time>2026-04-19T11:57:13.055Z</time></trkpt><trkpt lat="44.6989867" lon="9.7781033"><ele>811.0</ele><time>2026-04-19T11:57:15.053Z</time></trkpt><trkpt lat="44.6990533" lon="9.7781983"><ele>809.0</ele><time>2026-04-19T11:57:18.054Z</time></trkpt><trkpt lat="44.6991133" lon="9.7782917"><ele>806.9999999999999</ele><time>2026-04-19T11:57:21.055Z</time></trkpt><trkpt lat="44.6991667" lon="9.7783533"><ele>805.0</ele><time>2026-04-19T11:57:24.054Z</time></trkpt><trkpt lat="44.699215" lon="9.7784233"><ele>804.9999999999999</ele><time>2026-04-19T11:57:27.053Z</time></trkpt><trkpt lat="44.6992717" lon="9.7785033"><ele>805.0</ele><time>2026-04-19T11:57:30.053Z</time></trkpt><trkpt lat="44.6993417" lon="9.7785833"><ele>805.0</ele><time>2026-04-19T11:57:32.056Z</time></trkpt><trkpt lat="44.6994033" lon="9.7786667"><ele>805.0</ele><time>2026-04-19T11:57:34.054Z</time></trkpt><trkpt lat="44.6994633" lon="9.77875"><ele>804.9999999999999</ele><time>2026-04-19T11:57:36.054Z</time></trkpt><trkpt lat="44.6994483" lon="9.778885"><ele>805.0</ele><time>2026-04-19T11:57:39.053Z</time></trkpt><trkpt lat="44.6994467" lon="9.7790117"><ele>802.4285714285714</ele><time>2026-04-19T11:57:41.053Z</time></trkpt><trkpt lat="44.6994867" lon="9.779085"><ele>799.8571428571429</ele><time>2026-04-19T11:57:43.054Z</time></trkpt><trkpt lat="44.69954" lon="9.7791533"><ele>797.2857142857142</ele><time>2026-04-19T11:57:45.054Z</time></trkpt><trkpt lat="44.699565" lon="9.7792417"><ele>794.7142857142858</ele><time>2026-04-19T11:57:47.056Z</time></trkpt><trkpt lat="44.6995733" lon="9.7793467"><ele>792.1428571428571</ele><time>2026-04-19T11:57:49.056Z</time></trkpt><trkpt lat="44.699625" lon="9.77945"><ele>789.5714285714286</ele><time>2026-04-19T11:57:51.054Z</time></trkpt><trkpt lat="44.6996767" lon="9.7795317"><ele>787.0</ele><time>2026-04-19T11:57:53.055Z</time></trkpt><trkpt lat="44.6997733" lon="9.7795633"><ele>786.9999999999999</ele><time>2026-04-19T11:57:55.054Z</time></trkpt><trkpt lat="44.699845" lon="9.779545"><ele>787.0</ele><time>2026-04-19T11:57:56.054Z</time></trkpt><trkpt lat="44.699915" lon="9.77951"><ele>787.0</ele><time>2026-04-19T11:57:57.054Z</time></trkpt><trkpt lat="44.6999783" lon="9.77946"><ele>787.0</ele><time>2026-04-19T11:57:58.053Z</time></trkpt><trkpt lat="44.7000583" lon="9.779375"><ele>786.9999999999999</ele><time>2026-04-19T11:57:59.054Z</time></trkpt><trkpt lat="44.7001083" lon="9.7793083"><ele>787.0</ele><time>2026-04-19T11:58:00.054Z</time></trkpt><trkpt lat="44.700155" lon="9.77922"><ele>786.9999999999999</ele><time>2026-04-19T11:58:01.054Z</time></trkpt><trkpt lat="44.700195" lon="9.779105"><ele>787.0</ele><time>2026-04-19T11:58:02.054Z</time></trkpt><trkpt lat="44.7002267" lon="9.77899"><ele>787.0</ele><time>2026-04-19T11:58:03.053Z</time></trkpt><trkpt lat="44.7002683" lon="9.7788933"><ele>787.0</ele><time>2026-04-19T11:58:04.054Z</time></trkpt><trkpt lat="44.7003" lon="9.7787983"><ele>786.9999999999999</ele><time>2026-04-19T11:58:05.054Z</time></trkpt><trkpt lat="44.70034" lon="9.7786467"><ele>787.0</ele><time>2026-04-19T11:58:07.054Z</time></trkpt><trkpt lat="44.7003783" lon="9.7785467"><ele>786.4999999999999</ele><time>2026-04-19T11:58:09.054Z</time></trkpt><trkpt lat="44.700435" lon="9.7785017"><ele>786.0</ele><time>2026-04-19T11:58:11.054Z</time></trkpt><trkpt lat="44.7005" lon="9.7785467"><ele>785.5</ele><time>2026-04-19T11:58:13.056Z</time></trkpt><trkpt lat="44.7005783" lon="9.778715"><ele>785.0</ele><time>2026-04-19T11:58:15.054Z</time></trkpt><trkpt lat="44.7006183" lon="9.7787967"><ele>784.4999999999999</ele><time>2026-04-19T11:58:16.054Z</time></trkpt><trkpt lat="44.7006683" lon="9.7789"><ele>784.0</ele><time>2026-04-19T11:58:17.054Z</time></trkpt><trkpt lat="44.7007117" lon="9.7789883"><ele>783.9999999999999</ele><time>2026-04-19T11:58:18.054Z</time></trkpt><trkpt lat="44.70076" lon="9.7790783"><ele>784.0</ele><time>2026-04-19T11:58:19.054Z</time></trkpt><trkpt lat="44.7008067" lon="9.7791667"><ele>784.0</ele><time>2026-04-19T11:58:20.055Z</time></trkpt><trkpt lat="44.7008683" lon="9.7792367"><ele>784.0</ele><time>2026-04-19T11:58:21.056Z</time></trkpt><trkpt lat="44.70093" lon="9.779295"><ele>783.9999999999999</ele><time>2026-04-19T11:58:22.055Z</time></trkpt><trkpt lat="44.7009967" lon="9.779385"><ele>784.0</ele><time>2026-04-19T11:58:23.053Z</time></trkpt><trkpt lat="44.7010633" lon="9.7795117"><ele>784.8333333333333</ele><time>2026-04-19T11:58:24.054Z</time></trkpt><trkpt lat="44.701125" lon="9.77963"><ele>785.6666666666666</ele><time>2026-04-19T11:58:25.054Z</time></trkpt><trkpt lat="44.7011817" lon="9.77974"><ele>786.5</ele><time>2026-04-19T11:58:26.054Z</time></trkpt><trkpt lat="44.7012467" lon="9.7798283"><ele>787.3333333333333</ele><time>2026-04-19T11:58:27.054Z</time></trkpt><trkpt lat="44.70131" lon="9.7798967"><ele>788.1666666666666</ele><time>2026-04-19T11:58:28.055Z</time></trkpt><trkpt lat="44.7013817" lon="9.7799333"><ele>789.0</ele><time>2026-04-19T11:58:29.056Z</time></trkpt><trkpt lat="44.7014667" lon="9.77995"><ele>789.0</ele><time>2026-04-19T11:58:30.053Z</time></trkpt><trkpt lat="44.7015583" lon="9.7799467"><ele>789.0</ele><time>2026-04-19T11:58:31.053Z</time></trkpt><trkpt lat="44.7016567" lon="9.7799333"><ele>789.0</ele><time>2026-04-19T11:58:32.055Z</time></trkpt><trkpt lat="44.7017467" lon="9.7799183"><ele>789.0</ele><time>2026-04-19T11:58:33.053Z</time></trkpt><trkpt lat="44.7018333" lon="9.779905"><ele>789.0</ele><time>2026-04-19T11:58:34.054Z</time></trkpt><trkpt lat="44.7019133" lon="9.7798983"><ele>789.0</ele><time>2026-04-19T11:58:35.055Z</time></trkpt><trkpt lat="44.701985" lon="9.7799067"><ele>788.8333333333334</ele><time>2026-04-19T11:58:36.053Z</time></trkpt><trkpt lat="44.702055" lon="9.779925"><ele>788.6666666666667</ele><time>2026-04-19T11:58:37.054Z</time></trkpt><trkpt lat="44.702135" lon="9.7799333"><ele>788.5</ele><time>2026-04-19T11:58:38.054Z</time></trkpt><trkpt lat="44.7022133" lon="9.7799333"><ele>788.3333333333334</ele><time>2026-04-19T11:58:39.053Z</time></trkpt><trkpt lat="44.70231" lon="9.7799383"><ele>788.1666666666667</ele><time>2026-04-19T11:58:41.053Z</time></trkpt><trkpt lat="44.702375" lon="9.77991"><ele>788.0</ele><time>2026-04-19T11:58:44.055Z</time></trkpt><trkpt lat="44.7023667" lon="9.7797583"><ele>788.0</ele><time>2026-04-19T11:58:47.054Z</time></trkpt><trkpt lat="44.7023417" lon="9.779665"><ele>788.0</ele><time>2026-04-19T11:58:48.053Z</time></trkpt><trkpt lat="44.7023233" lon="9.7795533"><ele>788.0</ele><time>2026-04-19T11:58:49.054Z</time></trkpt><trkpt lat="44.7023" lon="9.77942"><ele>788.0</ele><time>2026-04-19T11:58:50.054Z</time></trkpt><trkpt lat="44.702285" lon="9.7792733"><ele>788.0</ele><time>2026-04-19T11:58:51.054Z</time></trkpt><trkpt lat="44.7022733" lon="9.7791417"><ele>789.0</ele><time>2026-04-19T11:58:52.055Z</time></trkpt><trkpt lat="44.7022633" lon="9.779025"><ele>790.0</ele><time>2026-04-19T11:58:53.056Z</time></trkpt><trkpt lat="44.7022433" lon="9.7789317"><ele>791.0</ele><time>2026-04-19T11:58:54.053Z</time></trkpt><trkpt lat="44.7022133" lon="9.7788517"><ele>792.0</ele><time>2026-04-19T11:58:55.053Z</time></trkpt><trkpt lat="44.702165" lon="9.77879"><ele>793.0</ele><time>2026-04-19T11:58:56.055Z</time></trkpt><trkpt lat="44.7021117" lon="9.7787267"><ele>794.0</ele><time>2026-04-19T11:58:57.054Z</time></trkpt><trkpt lat="44.7020533" lon="9.7786683"><ele>795.0</ele><time>2026-04-19T11:58:58.055Z</time></trkpt><trkpt lat="44.7019917" lon="9.7786083"><ele>795.0</ele><time>2026-04-19T11:58:59.055Z</time></trkpt><trkpt lat="44.7019367" lon="9.7785283"><ele>795.0</ele><time>2026-04-19T11:59:00.056Z</time></trkpt><trkpt lat="44.7018867" lon="9.7784333"><ele>795.0</ele><time>2026-04-19T11:59:01.053Z</time></trkpt><trkpt lat="44.7018483" lon="9.7783167"><ele>795.0</ele><time>2026-04-19T11:59:02.054Z</time></trkpt><trkpt lat="44.7018017" lon="9.778195"><ele>795.0</ele><time>2026-04-19T11:59:03.055Z</time></trkpt><trkpt lat="44.70176" lon="9.7780683"><ele>797.6</ele><time>2026-04-19T11:59:04.055Z</time></trkpt><trkpt lat="44.7017067" lon="9.777945"><ele>800.2</ele><time>2026-04-19T11:59:05.054Z</time></trkpt><trkpt lat="44.7016583" lon="9.77783"><ele>802.8</ele><time>2026-04-19T11:59:06.055Z</time></trkpt><trkpt lat="44.701605" lon="9.7777233"><ele>805.4</ele><time>2026-04-19T11:59:07.055Z</time></trkpt><trkpt lat="44.7015567" lon="9.77762"><ele>808.0</ele><time>2026-04-19T11:59:08.055Z</time></trkpt><trkpt lat="44.701515" lon="9.77752"><ele>810.8333333333333</ele><time>2026-04-19T11:59:09.053Z</time></trkpt><trkpt lat="44.7014867" lon="9.7774333"><ele>813.6666666666666</ele><time>2026-04-19T11:59:10.055Z</time></trkpt><trkpt lat="44.7014933" lon="9.7773317"><ele>816.5</ele><time>2026-04-19T11:59:12.055Z</time></trkpt><trkpt lat="44.7015783" lon="9.7772583"><ele>819.3333333333333</ele><time>2026-04-19T11:59:14.055Z</time></trkpt><trkpt lat="44.7016383" lon="9.77723"><ele>822.1666666666666</ele><time>2026-04-19T11:59:15.054Z</time></trkpt><trkpt lat="44.7017617" lon="9.777165"><ele>825.0</ele><time>2026-04-19T11:59:17.056Z</time></trkpt><trkpt lat="44.7018367" lon="9.77712"><ele>825.0</ele><time>2026-04-19T11:59:18.056Z</time></trkpt><trkpt lat="44.701895" lon="9.7770783"><ele>825.0</ele><time>2026-04-19T11:59:19.054Z</time></trkpt><trkpt lat="44.702" lon="9.7769633"><ele>825.0</ele><time>2026-04-19T11:59:21.054Z</time></trkpt><trkpt lat="44.702045" lon="9.7768933"><ele>825.0</ele><time>2026-04-19T11:59:22.055Z</time></trkpt><trkpt lat="44.702075" lon="9.77681"><ele>825.0</ele><time>2026-04-19T11:59:23.054Z</time></trkpt><trkpt lat="44.702105" lon="9.7767233"><ele>825.0</ele><time>2026-04-19T11:59:24.055Z</time></trkpt><trkpt lat="44.702125" lon="9.7766267"><ele>826.8</ele><time>2026-04-19T11:59:25.055Z</time></trkpt><trkpt lat="44.7020883" lon="9.776475"><ele>828.6</ele><time>2026-04-19T11:59:26.056Z</time></trkpt><trkpt lat="44.7020533" lon="9.7763367"><ele>830.4000000000001</ele><time>2026-04-19T11:59:27.055Z</time></trkpt><trkpt lat="44.7019833" lon="9.7761783"><ele>832.2</ele><time>2026-04-19T11:59:28.055Z</time></trkpt><trkpt lat="44.70195" lon="9.7760617"><ele>834.0</ele><time>2026-04-19T11:59:29.054Z</time></trkpt><trkpt lat="44.7019017" lon="9.77594"><ele>836.3333333333334</ele><time>2026-04-19T11:59:30.055Z</time></trkpt><trkpt lat="44.70188" lon="9.775835"><ele>838.6666666666667</ele><time>2026-04-19T11:59:31.054Z</time></trkpt><trkpt lat="44.7018617" lon="9.7757267"><ele>841.0</ele><time>2026-04-19T11:59:32.056Z</time></trkpt><trkpt lat="44.7018567" lon="9.77561"><ele>843.3333333333334</ele><time>2026-04-19T11:59:33.055Z</time></trkpt><trkpt lat="44.7018517" lon="9.7754867"><ele>845.6666666666667</ele><time>2026-04-19T11:59:34.055Z</time></trkpt><trkpt lat="44.7018417" lon="9.7753783"><ele>848.0</ele><time>2026-04-19T11:59:35.055Z</time></trkpt><trkpt lat="44.7018383" lon="9.7752867"><ele>850.0</ele><time>2026-04-19T11:59:36.056Z</time></trkpt><trkpt lat="44.70183" lon="9.77518"><ele>852.0</ele><time>2026-04-19T11:59:37.055Z</time></trkpt><trkpt lat="44.701845" lon="9.7750283"><ele>854.0</ele><time>2026-04-19T11:59:39.054Z</time></trkpt><trkpt lat="44.7018617" lon="9.7748883"><ele>856.0</ele><time>2026-04-19T11:59:41.055Z</time></trkpt><trkpt lat="44.7018667" lon="9.77472"><ele>858.0</ele><time>2026-04-19T11:59:43.055Z</time></trkpt><trkpt lat="44.7018617" lon="9.77462"><ele>858.0</ele><time>2026-04-19T11:59:44.055Z</time></trkpt><trkpt lat="44.7018483" lon="9.7745217"><ele>858.0</ele><time>2026-04-19T11:59:45.056Z</time></trkpt><trkpt lat="44.7018217" lon="9.774375"><ele>858.0</ele><time>2026-04-19T11:59:47.054Z</time></trkpt><trkpt lat="44.70183" lon="9.7742683"><ele>858.0</ele><time>2026-04-19T11:59:49.056Z</time></trkpt><trkpt lat="44.7019017" lon="9.774175"><ele>858.0</ele><time>2026-04-19T11:59:51.055Z</time></trkpt><trkpt lat="44.7019667" lon="9.77413"><ele>858.0</ele><time>2026-04-19T11:59:52.056Z</time></trkpt><trkpt lat="44.70204" lon="9.7740933"><ele>858.6666666666666</ele><time>2026-04-19T11:59:53.056Z</time></trkpt><trkpt lat="44.7021167" lon="9.7740617"><ele>859.3333333333333</ele><time>2026-04-19T11:59:54.054Z</time></trkpt><trkpt lat="44.7021933" lon="9.7740467"><ele>860.0</ele><time>2026-04-19T11:59:55.053Z</time></trkpt><trkpt lat="44.7022717" lon="9.7740433"><ele>860.6666666666666</ele><time>2026-04-19T11:59:56.054Z</time></trkpt><trkpt lat="44.7023483" lon="9.7740517"><ele>861.3333333333333</ele><time>2026-04-19T11:59:57.054Z</time></trkpt><trkpt lat="44.7024217" lon="9.7740683"><ele>862.0</ele><time>2026-04-19T11:59:58.054Z</time></trkpt><trkpt lat="44.702495" lon="9.7741"><ele>862.0</ele><time>2026-04-19T11:59:59.055Z</time></trkpt><trkpt lat="44.7025617" lon="9.774145"><ele>862.0</ele><time>2026-04-19T12:00:00.054Z</time></trkpt><trkpt lat="44.70267" lon="9.7742417"><ele>862.0</ele><time>2026-04-19T12:00:02.054Z</time></trkpt><trkpt lat="44.70278" lon="9.7742517"><ele>862.0</ele><time>2026-04-19T12:00:04.055Z</time></trkpt><trkpt lat="44.702865" lon="9.7741317"><ele>862.0</ele><time>2026-04-19T12:00:06.054Z</time></trkpt><trkpt lat="44.702895" lon="9.7740433"><ele>861.1666666666666</ele><time>2026-04-19T12:00:07.054Z</time></trkpt><trkpt lat="44.7029217" lon="9.773925"><ele>860.3333333333333</ele><time>2026-04-19T12:00:08.053Z</time></trkpt><trkpt lat="44.70294" lon="9.7738067"><ele>859.5</ele><time>2026-04-19T12:00:09.054Z</time></trkpt><trkpt lat="44.70297" lon="9.7736917"><ele>858.6666666666667</ele><time>2026-04-19T12:00:10.053Z</time></trkpt><trkpt lat="44.7030067" lon="9.7735917"><ele>857.8333333333334</ele><time>2026-04-19T12:00:11.053Z</time></trkpt><trkpt lat="44.7030533" lon="9.7735117"><ele>857.0</ele><time>2026-04-19T12:00:12.054Z</time></trkpt><trkpt lat="44.703105" lon="9.7734517"><ele>857.0000000000001</ele><time>2026-04-19T12:00:13.053Z</time></trkpt><trkpt lat="44.70317" lon="9.7734033"><ele>857.0</ele><time>2026-04-19T12:00:14.053Z</time></trkpt><trkpt lat="44.7032467" lon="9.7733617"><ele>857.0</ele><time>2026-04-19T12:00:15.054Z</time></trkpt><trkpt lat="44.7033167" lon="9.7733067"><ele>857.0</ele><time>2026-04-19T12:00:16.054Z</time></trkpt><trkpt lat="44.7033867" lon="9.77322"><ele>857.0000000000001</ele><time>2026-04-19T12:00:17.054Z</time></trkpt><trkpt lat="44.703445" lon="9.7731117"><ele>857.0</ele><time>2026-04-19T12:00:18.054Z</time></trkpt><trkpt lat="44.70349" lon="9.7729917"><ele>857.0000000000001</ele><time>2026-04-19T12:00:19.056Z</time></trkpt><trkpt lat="44.703535" lon="9.77287"><ele>857.0</ele><time>2026-04-19T12:00:20.054Z</time></trkpt><trkpt lat="44.7035817" lon="9.7727683"><ele>857.0</ele><time>2026-04-19T12:00:21.054Z</time></trkpt><trkpt lat="44.7036317" lon="9.772695"><ele>857.0</ele><time>2026-04-19T12:00:22.054Z</time></trkpt><trkpt lat="44.7036883" lon="9.7726433"><ele>857.0000000000001</ele><time>2026-04-19T12:00:23.053Z</time></trkpt><trkpt lat="44.7037617" lon="9.772625"><ele>857.0</ele><time>2026-04-19T12:00:24.055Z</time></trkpt><trkpt lat="44.70386" lon="9.7726167"><ele>859.0</ele><time>2026-04-19T12:00:25.055Z</time></trkpt><trkpt lat="44.7039633" lon="9.772595"><ele>861.0</ele><time>2026-04-19T12:00:26.055Z</time></trkpt><trkpt lat="44.7040817" lon="9.7725583"><ele>863.0</ele><time>2026-04-19T12:00:27.054Z</time></trkpt><trkpt lat="44.7042017" lon="9.772525"><ele>865.0</ele><time>2026-04-19T12:00:28.054Z</time></trkpt><trkpt lat="44.704305" lon="9.772505"><ele>865.0</ele><time>2026-04-19T12:00:29.054Z</time></trkpt><trkpt lat="44.704395" lon="9.7725217"><ele>865.0</ele><time>2026-04-19T12:00:30.055Z</time></trkpt><trkpt lat="44.7044867" lon="9.7725567"><ele>865.0</ele><time>2026-04-19T12:00:31.055Z</time></trkpt><trkpt lat="44.7045733" lon="9.7725917"><ele>865.0</ele><time>2026-04-19T12:00:32.054Z</time></trkpt><trkpt lat="44.704665" lon="9.772615"><ele>865.0</ele><time>2026-04-19T12:00:33.053Z</time></trkpt><trkpt lat="44.7047467" lon="9.772645"><ele>865.1666666666666</ele><time>2026-04-19T12:00:34.054Z</time></trkpt><trkpt lat="44.7048233" lon="9.7726733"><ele>865.3333333333333</ele><time>2026-04-19T12:00:35.054Z</time></trkpt><trkpt lat="44.7049033" lon="9.7727083"><ele>865.5</ele><time>2026-04-19T12:00:36.053Z</time></trkpt><trkpt lat="44.7049867" lon="9.7727583"><ele>865.6666666666667</ele><time>2026-04-19T12:00:37.053Z</time></trkpt><trkpt lat="44.7050617" lon="9.7728067"><ele>865.8333333333334</ele><time>2026-04-19T12:00:38.056Z</time></trkpt><trkpt lat="44.70514" lon="9.7728567"><ele>866.0</ele><time>2026-04-19T12:00:39.053Z</time></trkpt><trkpt lat="44.7052017" lon="9.7729033"><ele>860.8</ele><time>2026-04-19T12:00:40.055Z</time></trkpt><trkpt lat="44.7052767" lon="9.7729367"><ele>855.5999999999999</ele><time>2026-04-19T12:00:41.054Z</time></trkpt><trkpt lat="44.7053467" lon="9.7729417"><ele>850.4</ele><time>2026-04-19T12:00:42.054Z</time></trkpt><trkpt lat="44.7054517" lon="9.7728983"><ele>845.2</ele><time>2026-04-19T12:00:44.055Z</time></trkpt><trkpt lat="44.7055767" lon="9.7728217"><ele>840.0</ele><time>2026-04-19T12:00:46.054Z</time></trkpt><trkpt lat="44.7056567" lon="9.7727733"><ele>840.0</ele><time>2026-04-19T12:00:47.054Z</time></trkpt><trkpt lat="44.7057383" lon="9.7727267"><ele>840.0</ele><time>2026-04-19T12:00:48.055Z</time></trkpt><trkpt lat="44.705825" lon="9.7726917"><ele>840.0</ele><time>2026-04-19T12:00:49.053Z</time></trkpt><trkpt lat="44.70592" lon="9.7726767"><ele>840.0</ele><time>2026-04-19T12:00:50.056Z</time></trkpt><trkpt lat="44.7060183" lon="9.7726817"><ele>840.0</ele><time>2026-04-19T12:00:51.056Z</time></trkpt><trkpt lat="44.7061067" lon="9.7726867"><ele>839.6</ele><time>2026-04-19T12:00:52.055Z</time></trkpt><trkpt lat="44.7062017" lon="9.7726817"><ele>839.2</ele><time>2026-04-19T12:00:53.054Z</time></trkpt><trkpt lat="44.7063" lon="9.7726767"><ele>838.8</ele><time>2026-04-19T12:00:54.055Z</time></trkpt><trkpt lat="44.7063867" lon="9.7726767"><ele>838.4</ele><time>2026-04-19T12:00:55.054Z</time></trkpt><trkpt lat="44.7064767" lon="9.77268"><ele>838.0</ele><time>2026-04-19T12:00:56.057Z</time></trkpt><trkpt lat="44.7065667" lon="9.77269"><ele>837.9999999999999</ele><time>2026-04-19T12:00:57.054Z</time></trkpt><trkpt lat="44.7066483" lon="9.7726917"><ele>838.0</ele><time>2026-04-19T12:00:58.055Z</time></trkpt><trkpt lat="44.706725" lon="9.7726817"><ele>838.0</ele><time>2026-04-19T12:00:59.055Z</time></trkpt><trkpt lat="44.706795" lon="9.77266"><ele>838.0</ele><time>2026-04-19T12:01:00.054Z</time></trkpt><trkpt lat="44.7068633" lon="9.7726217"><ele>837.9999999999999</ele><time>2026-04-19T12:01:01.054Z</time></trkpt><trkpt lat="44.7069417" lon="9.7725617"><ele>838.0</ele><time>2026-04-19T12:01:02.054Z</time></trkpt><trkpt lat="44.7070133" lon="9.772505"><ele>839.1666666666666</ele><time>2026-04-19T12:01:03.054Z</time></trkpt><trkpt lat="44.7070917" lon="9.7724417"><ele>840.3333333333333</ele><time>2026-04-19T12:01:04.053Z</time></trkpt><trkpt lat="44.7071683" lon="9.7724067"><ele>841.5</ele><time>2026-04-19T12:01:05.055Z</time></trkpt><trkpt lat="44.707265" lon="9.7723467"><ele>842.6666666666667</ele><time>2026-04-19T12:01:07.055Z</time></trkpt><trkpt lat="44.7073417" lon="9.7723483"><ele>843.8333333333334</ele><time>2026-04-19T12:01:09.054Z</time></trkpt><trkpt lat="44.707415" lon="9.7723867"><ele>845.0</ele><time>2026-04-19T12:01:11.054Z</time></trkpt><trkpt lat="44.7074983" lon="9.7724767"><ele>845.0000000000001</ele><time>2026-04-19T12:01:13.054Z</time></trkpt><trkpt lat="44.707555" lon="9.7725383"><ele>845.0</ele><time>2026-04-19T12:01:14.054Z</time></trkpt><trkpt lat="44.70761" lon="9.7726117"><ele>845.0</ele><time>2026-04-19T12:01:15.053Z</time></trkpt><trkpt lat="44.70768" lon="9.77267"><ele>845.0</ele><time>2026-04-19T12:01:16.055Z</time></trkpt><trkpt lat="44.7077583" lon="9.7727333"><ele>845.0000000000001</ele><time>2026-04-19T12:01:17.055Z</time></trkpt><trkpt lat="44.7078483" lon="9.7728017"><ele>845.0</ele><time>2026-04-19T12:01:18.054Z</time></trkpt><trkpt lat="44.7079267" lon="9.7728633"><ele>845.8</ele><time>2026-04-19T12:01:19.053Z</time></trkpt><trkpt lat="44.707995" lon="9.772915"><ele>846.6</ele><time>2026-04-19T12:01:20.055Z</time></trkpt><trkpt lat="44.7080817" lon="9.7730283"><ele>847.4000000000001</ele><time>2026-04-19T12:01:22.053Z</time></trkpt><trkpt lat="44.7081133" lon="9.7731167"><ele>848.2</ele><time>2026-04-19T12:01:23.053Z</time></trkpt><trkpt lat="44.7081467" lon="9.7732517"><ele>849.0</ele><time>2026-04-19T12:01:24.053Z</time></trkpt><trkpt lat="44.7081467" lon="9.7734117"><ele>848.6666666666666</ele><time>2026-04-19T12:01:25.054Z</time></trkpt><trkpt lat="44.7081567" lon="9.7735383"><ele>848.3333333333333</ele><time>2026-04-19T12:01:26.053Z</time></trkpt><trkpt lat="44.7081633" lon="9.7736567"><ele>848.0</ele><time>2026-04-19T12:01:27.053Z</time></trkpt><trkpt lat="44.70816" lon="9.7737767"><ele>847.6666666666666</ele><time>2026-04-19T12:01:28.053Z</time></trkpt><trkpt lat="44.7081617" lon="9.7738917"><ele>847.3333333333333</ele><time>2026-04-19T12:01:29.054Z</time></trkpt><trkpt lat="44.7081667" lon="9.774"><ele>847.0</ele><time>2026-04-19T12:01:30.053Z</time></trkpt><trkpt lat="44.7081817" lon="9.7741083"><ele>847.0</ele><time>2026-04-19T12:01:31.054Z</time></trkpt><trkpt lat="44.708195" lon="9.7742083"><ele>847.0</ele><time>2026-04-19T12:01:32.053Z</time></trkpt><trkpt lat="44.7082083" lon="9.7743033"><ele>847.0</ele><time>2026-04-19T12:01:33.055Z</time></trkpt><trkpt lat="44.7082267" lon="9.7743967"><ele>847.0</ele><time>2026-04-19T12:01:34.054Z</time></trkpt><trkpt lat="44.7082517" lon="9.7744883"><ele>847.0</ele><time>2026-04-19T12:01:35.054Z</time></trkpt><trkpt lat="44.70829" lon="9.77458"><ele>847.0</ele><time>2026-04-19T12:01:36.055Z</time></trkpt><trkpt lat="44.708345" lon="9.7746633"><ele>847.0</ele><time>2026-04-19T12:01:37.055Z</time></trkpt><trkpt lat="44.7084117" lon="9.7747367"><ele>846.8333333333333</ele><time>2026-04-19T12:01:38.053Z</time></trkpt><trkpt lat="44.70848" lon="9.7748017"><ele>846.6666666666666</ele><time>2026-04-19T12:01:39.055Z</time></trkpt><trkpt lat="44.7085517" lon="9.7748667"><ele>846.5</ele><time>2026-04-19T12:01:40.053Z</time></trkpt><trkpt lat="44.708625" lon="9.7749383"><ele>846.3333333333333</ele><time>2026-04-19T12:01:41.054Z</time></trkpt><trkpt lat="44.708695" lon="9.7750183"><ele>846.1666666666666</ele><time>2026-04-19T12:01:42.054Z</time></trkpt><trkpt lat="44.7087633" lon="9.7750983"><ele>846.0</ele><time>2026-04-19T12:01:43.055Z</time></trkpt><trkpt lat="44.7088367" lon="9.77517"><ele>847.5999999999999</ele><time>2026-04-19T12:01:44.054Z</time></trkpt><trkpt lat="44.70891" lon="9.7752267"><ele>849.2</ele><time>2026-04-19T12:01:45.055Z</time></trkpt><trkpt lat="44.708985" lon="9.7752567"><ele>850.8000000000001</ele><time>2026-04-19T12:01:46.053Z</time></trkpt><trkpt lat="44.709055" lon="9.77526"><ele>852.4000000000001</ele><time>2026-04-19T12:01:47.055Z</time></trkpt><trkpt lat="44.7091767" lon="9.7752317"><ele>854.0</ele><time>2026-04-19T12:01:49.054Z</time></trkpt><trkpt lat="44.7092867" lon="9.7752383"><ele>854.0</ele><time>2026-04-19T12:01:51.053Z</time></trkpt><trkpt lat="44.7093483" lon="9.7752567"><ele>854.0</ele><time>2026-04-19T12:01:52.054Z</time></trkpt><trkpt lat="44.7094133" lon="9.7752917"><ele>854.0</ele><time>2026-04-19T12:01:53.053Z</time></trkpt><trkpt lat="44.7094733" lon="9.7753383"><ele>854.0</ele><time>2026-04-19T12:01:54.054Z</time></trkpt><trkpt lat="44.7095283" lon="9.7754083"><ele>854.0</ele><time>2026-04-19T12:01:55.055Z</time></trkpt><trkpt lat="44.7095817" lon="9.7754967"><ele>854.0</ele><time>2026-04-19T12:01:56.054Z</time></trkpt><trkpt lat="44.709635" lon="9.775595"><ele>854.0</ele><time>2026-04-19T12:01:57.054Z</time></trkpt><trkpt lat="44.70969" lon="9.7756867"><ele>853.6666666666667</ele><time>2026-04-19T12:01:58.054Z</time></trkpt><trkpt lat="44.709755" lon="9.7757683"><ele>853.3333333333334</ele><time>2026-04-19T12:01:59.054Z</time></trkpt><trkpt lat="44.7098117" lon="9.77585"><ele>853.0</ele><time>2026-04-19T12:02:00.054Z</time></trkpt><trkpt lat="44.7098583" lon="9.7759367"><ele>852.6666666666667</ele><time>2026-04-19T12:02:01.053Z</time></trkpt><trkpt lat="44.7098967" lon="9.7760217"><ele>852.3333333333334</ele><time>2026-04-19T12:02:02.055Z</time></trkpt><trkpt lat="44.7099317" lon="9.776105"><ele>852.0</ele><time>2026-04-19T12:02:03.055Z</time></trkpt><trkpt lat="44.7099633" lon="9.77619"><ele>852.0</ele><time>2026-04-19T12:02:04.054Z</time></trkpt><trkpt lat="44.7099917" lon="9.7762717"><ele>852.0</ele><time>2026-04-19T12:02:05.055Z</time></trkpt><trkpt lat="44.710025" lon="9.77635"><ele>852.0</ele><time>2026-04-19T12:02:06.053Z</time></trkpt><trkpt lat="44.7101183" lon="9.7764733"><ele>852.0</ele><time>2026-04-19T12:02:08.055Z</time></trkpt><trkpt lat="44.7101833" lon="9.7765367"><ele>852.0</ele><time>2026-04-19T12:02:09.054Z</time></trkpt><trkpt lat="44.7102533" lon="9.7765983"><ele>852.0</ele><time>2026-04-19T12:02:10.054Z</time></trkpt><trkpt lat="44.7103333" lon="9.7766417"><ele>853.0</ele><time>2026-04-19T12:02:11.052Z</time></trkpt><trkpt lat="44.7104133" lon="9.7766817"><ele>854.0</ele><time>2026-04-19T12:02:12.053Z</time></trkpt><trkpt lat="44.710495" lon="9.7767117"><ele>855.0</ele><time>2026-04-19T12:02:13.053Z</time></trkpt><trkpt lat="44.7105783" lon="9.776735"><ele>856.0</ele><time>2026-04-19T12:02:14.053Z</time></trkpt><trkpt lat="44.7106583" lon="9.7767583"><ele>857.0</ele><time>2026-04-19T12:02:15.052Z</time></trkpt><trkpt lat="44.7107333" lon="9.7767683"><ele>858.0</ele><time>2026-04-19T12:02:16.053Z</time></trkpt><trkpt lat="44.7108067" lon="9.7767667"><ele>858.0</ele><time>2026-04-19T12:02:17.053Z</time></trkpt><trkpt lat="44.710875" lon="9.7767483"><ele>858.0</ele><time>2026-04-19T12:02:18.055Z</time></trkpt><trkpt lat="44.7109417" lon="9.7767133"><ele>858.0</ele><time>2026-04-19T12:02:19.053Z</time></trkpt><trkpt lat="44.7110467" lon="9.77667"><ele>858.0</ele><time>2026-04-19T12:02:21.054Z</time></trkpt><trkpt lat="44.71111" lon="9.7767733"><ele>858.0</ele><time>2026-04-19T12:02:24.055Z</time></trkpt><trkpt lat="44.71113" lon="9.7768583"><ele>858.0</ele><time>2026-04-19T12:02:25.054Z</time></trkpt><trkpt lat="44.71116" lon="9.7769567"><ele>856.5</ele><time>2026-04-19T12:02:26.054Z</time></trkpt><trkpt lat="44.711195" lon="9.7770633"><ele>855.0</ele><time>2026-04-19T12:02:27.053Z</time></trkpt><trkpt lat="44.711235" lon="9.7771517"><ele>853.5</ele><time>2026-04-19T12:02:28.054Z</time></trkpt><trkpt lat="44.7112783" lon="9.7772233"><ele>852.0</ele><time>2026-04-19T12:02:29.054Z</time></trkpt><trkpt lat="44.711325" lon="9.7772833"><ele>850.5</ele><time>2026-04-19T12:02:30.054Z</time></trkpt><trkpt lat="44.7114083" lon="9.77739"><ele>849.0</ele><time>2026-04-19T12:02:32.055Z</time></trkpt><trkpt lat="44.7114633" lon="9.7775333"><ele>847.3333333333334</ele><time>2026-04-19T12:02:34.054Z</time></trkpt><trkpt lat="44.71151" lon="9.7776883"><ele>845.6666666666667</ele><time>2026-04-19T12:02:36.054Z</time></trkpt><trkpt lat="44.7116033" lon="9.7777983"><ele>844.0</ele><time>2026-04-19T12:02:38.055Z</time></trkpt><trkpt lat="44.7116683" lon="9.77784"><ele>842.3333333333334</ele><time>2026-04-19T12:02:39.054Z</time></trkpt><trkpt lat="44.7117267" lon="9.77789"><ele>840.6666666666667</ele><time>2026-04-19T12:02:40.054Z</time></trkpt><trkpt lat="44.71177" lon="9.777955"><ele>839.0</ele><time>2026-04-19T12:02:41.056Z</time></trkpt><trkpt lat="44.7118083" lon="9.7780367"><ele>839.0000000000001</ele><time>2026-04-19T12:02:42.054Z</time></trkpt><trkpt lat="44.7118517" lon="9.7781333"><ele>839.0</ele><time>2026-04-19T12:02:43.055Z</time></trkpt><trkpt lat="44.7118967" lon="9.77824"><ele>839.0</ele><time>2026-04-19T12:02:44.055Z</time></trkpt><trkpt lat="44.7119483" lon="9.7783467"><ele>839.0</ele><time>2026-04-19T12:02:45.053Z</time></trkpt><trkpt lat="44.7120033" lon="9.7784467"><ele>839.0000000000001</ele><time>2026-04-19T12:02:46.055Z</time></trkpt><trkpt lat="44.71206" lon="9.7785283"><ele>839.0</ele><time>2026-04-19T12:02:47.053Z</time></trkpt><trkpt lat="44.7121233" lon="9.7785983"><ele>837.0000000000001</ele><time>2026-04-19T12:02:48.053Z</time></trkpt><trkpt lat="44.71219" lon="9.7786517"><ele>835.0</ele><time>2026-04-19T12:02:49.053Z</time></trkpt><trkpt lat="44.7122633" lon="9.778685"><ele>833.0</ele><time>2026-04-19T12:02:50.055Z</time></trkpt><trkpt lat="44.712345" lon="9.7787133"><ele>831.0</ele><time>2026-04-19T12:02:51.055Z</time></trkpt><trkpt lat="44.71243" lon="9.7787367"><ele>829.0000000000001</ele><time>2026-04-19T12:02:52.054Z</time></trkpt><trkpt lat="44.7125167" lon="9.7787633"><ele>827.0</ele><time>2026-04-19T12:02:53.055Z</time></trkpt><trkpt lat="44.712605" lon="9.7787933"><ele>827.0000000000001</ele><time>2026-04-19T12:02:54.054Z</time></trkpt><trkpt lat="44.7126783" lon="9.7788433"><ele>827.0</ele><time>2026-04-19T12:02:55.053Z</time></trkpt><trkpt lat="44.7127367" lon="9.778905"><ele>827.0</ele><time>2026-04-19T12:02:56.055Z</time></trkpt><trkpt lat="44.7127833" lon="9.77897"><ele>827.0</ele><time>2026-04-19T12:02:57.054Z</time></trkpt><trkpt lat="44.7128083" lon="9.7790567"><ele>827.0000000000001</ele><time>2026-04-19T12:02:58.054Z</time></trkpt><trkpt lat="44.7128233" lon="9.7791733"><ele>827.0</ele><time>2026-04-19T12:02:59.055Z</time></trkpt><trkpt lat="44.7128317" lon="9.77929"><ele>825.2857142857143</ele><time>2026-04-19T12:03:00.054Z</time></trkpt><trkpt lat="44.712845" lon="9.7794017"><ele>823.5714285714286</ele><time>2026-04-19T12:03:01.054Z</time></trkpt><trkpt lat="44.712865" lon="9.7795"><ele>821.8571428571429</ele><time>2026-04-19T12:03:02.056Z</time></trkpt><trkpt lat="44.7128833" lon="9.779585"><ele>820.1428571428571</ele><time>2026-04-19T12:03:03.056Z</time></trkpt><trkpt lat="44.7129083" lon="9.7796733"><ele>818.4285714285713</ele><time>2026-04-19T12:03:04.054Z</time></trkpt><trkpt lat="44.712945" lon="9.7797533"><ele>816.7142857142857</ele><time>2026-04-19T12:03:05.055Z</time></trkpt><trkpt lat="44.71299" lon="9.7798417"><ele>815.0</ele><time>2026-04-19T12:03:06.056Z</time></trkpt><trkpt lat="44.713045" lon="9.7799483"><ele>815.0</ele><time>2026-04-19T12:03:07.056Z</time></trkpt><trkpt lat="44.713105" lon="9.780065"><ele>815.0</ele><time>2026-04-19T12:03:08.055Z</time></trkpt><trkpt lat="44.7131617" lon="9.7801867"><ele>815.0</ele><time>2026-04-19T12:03:09.055Z</time></trkpt><trkpt lat="44.7132033" lon="9.7803267"><ele>815.0</ele><time>2026-04-19T12:03:10.056Z</time></trkpt><trkpt lat="44.7132283" lon="9.78049"><ele>815.0</ele><time>2026-04-19T12:03:11.055Z</time></trkpt><trkpt lat="44.7132533" lon="9.7806483"><ele>814.6</ele><time>2026-04-19T12:03:12.054Z</time></trkpt><trkpt lat="44.7133017" lon="9.7807883"><ele>814.2</ele><time>2026-04-19T12:03:13.054Z</time></trkpt><trkpt lat="44.7133767" lon="9.7808917"><ele>813.8</ele><time>2026-04-19T12:03:14.053Z</time></trkpt><trkpt lat="44.7134683" lon="9.7809683"><ele>813.4</ele><time>2026-04-19T12:03:15.054Z</time></trkpt><trkpt lat="44.713565" lon="9.7810267"><ele>813.0</ele><time>2026-04-19T12:03:16.053Z</time></trkpt><trkpt lat="44.7136633" lon="9.7810833"><ele>813.0</ele><time>2026-04-19T12:03:17.053Z</time></trkpt><trkpt lat="44.713755" lon="9.781145"><ele>813.0</ele><time>2026-04-19T12:03:18.053Z</time></trkpt><trkpt lat="44.7138433" lon="9.7812367"><ele>813.0</ele><time>2026-04-19T12:03:19.054Z</time></trkpt><trkpt lat="44.7139083" lon="9.78136"><ele>813.0</ele><time>2026-04-19T12:03:20.056Z</time></trkpt><trkpt lat="44.713945" lon="9.78151"><ele>813.0</ele><time>2026-04-19T12:03:21.055Z</time></trkpt><trkpt lat="44.71397" lon="9.7816717"><ele>813.0</ele><time>2026-04-19T12:03:22.054Z</time></trkpt><trkpt lat="44.713995" lon="9.78183"><ele>813.0</ele><time>2026-04-19T12:03:23.056Z</time></trkpt><trkpt lat="44.714035" lon="9.7819733"><ele>813.0</ele><time>2026-04-19T12:03:24.056Z</time></trkpt><trkpt lat="44.714105" lon="9.78208"><ele>813.0</ele><time>2026-04-19T12:03:25.055Z</time></trkpt><trkpt lat="44.7141917" lon="9.7821517"><ele>813.0</ele><time>2026-04-19T12:03:26.054Z</time></trkpt><trkpt lat="44.714285" lon="9.7822233"><ele>811.5</ele><time>2026-04-19T12:03:27.055Z</time></trkpt><trkpt lat="44.71437" lon="9.7823233"><ele>810.0</ele><time>2026-04-19T12:03:28.053Z</time></trkpt><trkpt lat="44.714445" lon="9.7824517"><ele>808.5</ele><time>2026-04-19T12:03:29.055Z</time></trkpt><trkpt lat="44.7145117" lon="9.7826017"><ele>807.0</ele><time>2026-04-19T12:03:30.053Z</time></trkpt><trkpt lat="44.7145683" lon="9.78277"><ele>809.25</ele><time>2026-04-19T12:03:31.051Z</time></trkpt><trkpt lat="44.71461" lon="9.7829483"><ele>811.5</ele><time>2026-04-19T12:03:32.053Z</time></trkpt><trkpt lat="44.7146433" lon="9.7831317"><ele>813.75</ele><time>2026-04-19T12:03:33.053Z</time></trkpt><trkpt lat="44.7146683" lon="9.78333"><ele>816.0</ele><time>2026-04-19T12:03:34.053Z</time></trkpt><trkpt lat="44.7146817" lon="9.7835267"><ele>816.0</ele><time>2026-04-19T12:03:35.053Z</time></trkpt><trkpt lat="44.7146867" lon="9.7837167"><ele>816.0</ele><time>2026-04-19T12:03:36.054Z</time></trkpt><trkpt lat="44.7146883" lon="9.7838967"><ele>816.0</ele><time>2026-04-19T12:03:37.055Z</time></trkpt><trkpt lat="44.714685" lon="9.784065"><ele>816.0</ele><time>2026-04-19T12:03:38.054Z</time></trkpt><trkpt lat="44.714685" lon="9.7842317"><ele>815.0</ele><time>2026-04-19T12:03:39.056Z</time></trkpt><trkpt lat="44.7147017" lon="9.7844"><ele>814.0</ele><time>2026-04-19T12:03:40.053Z</time></trkpt><trkpt lat="44.7147383" lon="9.784565"><ele>813.0</ele><time>2026-04-19T12:03:41.053Z</time></trkpt><trkpt lat="44.7147883" lon="9.78472"><ele>812.0</ele><time>2026-04-19T12:03:42.054Z</time></trkpt><trkpt lat="44.71484" lon="9.78486"><ele>812.0</ele><time>2026-04-19T12:03:43.053Z</time></trkpt><trkpt lat="44.714885" lon="9.785005"><ele>812.0</ele><time>2026-04-19T12:03:44.054Z</time></trkpt><trkpt lat="44.7149117" lon="9.7851533"><ele>812.0</ele><time>2026-04-19T12:03:45.054Z</time></trkpt><trkpt lat="44.714915" lon="9.7853083"><ele>812.0</ele><time>2026-04-19T12:03:46.053Z</time></trkpt><trkpt lat="44.7148933" lon="9.7854633"><ele>812.0</ele><time>2026-04-19T12:03:47.053Z</time></trkpt><trkpt lat="44.7148517" lon="9.7856167"><ele>813.75</ele><time>2026-04-19T12:03:48.055Z</time></trkpt><trkpt lat="44.7147933" lon="9.78576"><ele>815.5</ele><time>2026-04-19T12:03:49.054Z</time></trkpt><trkpt lat="44.714715" lon="9.785885"><ele>817.25</ele><time>2026-04-19T12:03:50.056Z</time></trkpt><trkpt lat="44.7146233" lon="9.7859817"><ele>819.0</ele><time>2026-04-19T12:03:51.055Z</time></trkpt><trkpt lat="44.7145367" lon="9.7860617"><ele>822.2</ele><time>2026-04-19T12:03:52.055Z</time></trkpt><trkpt lat="44.714475" lon="9.78614"><ele>825.4000000000001</ele><time>2026-04-19T12:03:53.056Z</time></trkpt><trkpt lat="44.714425" lon="9.78622"><ele>828.6</ele><time>2026-04-19T12:03:54.055Z</time></trkpt><trkpt lat="44.714385" lon="9.78631"><ele>831.8</ele><time>2026-04-19T12:03:55.054Z</time></trkpt><trkpt lat="44.7143617" lon="9.7864217"><ele>835.0</ele><time>2026-04-19T12:03:56.056Z</time></trkpt><trkpt lat="44.7143983" lon="9.7866017"><ele>835.0</ele><time>2026-04-19T12:03:57.057Z</time></trkpt><trkpt lat="44.7144267" lon="9.786785"><ele>835.0</ele><time>2026-04-19T12:03:58.056Z</time></trkpt><trkpt lat="44.714465" lon="9.7869617"><ele>835.0</ele><time>2026-04-19T12:03:59.054Z</time></trkpt><trkpt lat="44.7144933" lon="9.7871483"><ele>835.0</ele><time>2026-04-19T12:04:00.052Z</time></trkpt><trkpt lat="44.7145133" lon="9.7873367"><ele>836.0</ele><time>2026-04-19T12:04:01.052Z</time></trkpt><trkpt lat="44.71452" lon="9.787525"><ele>837.0</ele><time>2026-04-19T12:04:02.054Z</time></trkpt><trkpt lat="44.71451" lon="9.7877067"><ele>838.0</ele><time>2026-04-19T12:04:03.054Z</time></trkpt><trkpt lat="44.7144867" lon="9.7878633"><ele>839.0</ele><time>2026-04-19T12:04:04.056Z</time></trkpt><trkpt lat="44.714455" lon="9.787995"><ele>837.2</ele><time>2026-04-19T12:04:05.052Z</time></trkpt><trkpt lat="44.7144367" lon="9.7881183"><ele>835.4000000000001</ele><time>2026-04-19T12:04:06.054Z</time></trkpt><trkpt lat="44.7144417" lon="9.7882367"><ele>833.6</ele><time>2026-04-19T12:04:07.053Z</time></trkpt><trkpt lat="44.714475" lon="9.7883533"><ele>831.8</ele><time>2026-04-19T12:04:08.053Z</time></trkpt><trkpt lat="44.714535" lon="9.7884583"><ele>830.0</ele><time>2026-04-19T12:04:09.053Z</time></trkpt><trkpt lat="44.7146133" lon="9.7885533"><ele>827.8</ele><time>2026-04-19T12:04:10.053Z</time></trkpt><trkpt lat="44.7147083" lon="9.788625"><ele>825.6</ele><time>2026-04-19T12:04:11.054Z</time></trkpt><trkpt lat="44.7147967" lon="9.7886983"><ele>823.4000000000001</ele><time>2026-04-19T12:04:12.053Z</time></trkpt><trkpt lat="44.7148783" lon="9.788795"><ele>821.2</ele><time>2026-04-19T12:04:13.055Z</time></trkpt><trkpt lat="44.7149517" lon="9.7889083"><ele>819.0</ele><time>2026-04-19T12:04:14.054Z</time></trkpt><trkpt lat="44.7150033" lon="9.7890433"><ele>819.0</ele><time>2026-04-19T12:04:15.054Z</time></trkpt><trkpt lat="44.71504" lon="9.789185"><ele>819.0</ele><time>2026-04-19T12:04:16.056Z</time></trkpt><trkpt lat="44.7150617" lon="9.7893333"><ele>819.0</ele><time>2026-04-19T12:04:17.055Z</time></trkpt><trkpt lat="44.7150583" lon="9.7894983"><ele>819.0</ele><time>2026-04-19T12:04:18.055Z</time></trkpt><trkpt lat="44.7150317" lon="9.789665"><ele>819.25</ele><time>2026-04-19T12:04:19.054Z</time></trkpt><trkpt lat="44.715" lon="9.7898517"><ele>819.5</ele><time>2026-04-19T12:04:20.054Z</time></trkpt><trkpt lat="44.71495" lon="9.790045"><ele>819.75</ele><time>2026-04-19T12:04:21.056Z</time></trkpt><trkpt lat="44.7149083" lon="9.7902367"><ele>820.0</ele><time>2026-04-19T12:04:22.056Z</time></trkpt><trkpt lat="44.7148633" lon="9.79042"><ele>820.0</ele><time>2026-04-19T12:04:23.055Z</time></trkpt><trkpt lat="44.7148167" lon="9.7905867"><ele>820.0</ele><time>2026-04-19T12:04:24.056Z</time></trkpt><trkpt lat="44.7147883" lon="9.790745"><ele>820.0</ele><time>2026-04-19T12:04:25.055Z</time></trkpt><trkpt lat="44.7147883" lon="9.7909"><ele>820.0</ele><time>2026-04-19T12:04:26.055Z</time></trkpt><trkpt lat="44.71481" lon="9.7910367"><ele>817.2</ele><time>2026-04-19T12:04:27.055Z</time></trkpt><trkpt lat="44.71485" lon="9.7911567"><ele>814.4</ele><time>2026-04-19T12:04:28.054Z</time></trkpt><trkpt lat="44.7149117" lon="9.7912683"><ele>811.5999999999999</ele><time>2026-04-19T12:04:29.055Z</time></trkpt><trkpt lat="44.7149933" lon="9.7913667"><ele>808.8</ele><time>2026-04-19T12:04:30.055Z</time></trkpt><trkpt lat="44.715085" lon="9.791455"><ele>806.0</ele><time>2026-04-19T12:04:31.055Z</time></trkpt><trkpt lat="44.7151717" lon="9.791535"><ele>810.1999999999999</ele><time>2026-04-19T12:04:32.056Z</time></trkpt><trkpt lat="44.7152617" lon="9.7916083"><ele>814.4</ele><time>2026-04-19T12:04:33.056Z</time></trkpt><trkpt lat="44.7153433" lon="9.79168"><ele>818.6</ele><time>2026-04-19T12:04:34.054Z</time></trkpt><trkpt lat="44.7154283" lon="9.791735"><ele>822.8</ele><time>2026-04-19T12:04:35.054Z</time></trkpt><trkpt lat="44.71552" lon="9.7917817"><ele>827.0</ele><time>2026-04-19T12:04:36.055Z</time></trkpt><trkpt lat="44.7156233" lon="9.7918267"><ele>826.25</ele><time>2026-04-19T12:04:37.055Z</time></trkpt><trkpt lat="44.7157317" lon="9.79186"><ele>825.5</ele><time>2026-04-19T12:04:38.055Z</time></trkpt><trkpt lat="44.7158417" lon="9.7918817"><ele>824.75</ele><time>2026-04-19T12:04:39.054Z</time></trkpt><trkpt lat="44.7159533" lon="9.7919"><ele>824.0</ele><time>2026-04-19T12:04:40.053Z</time></trkpt><trkpt lat="44.71607" lon="9.791905"><ele>824.0</ele><time>2026-04-19T12:04:41.053Z</time></trkpt><trkpt lat="44.7161917" lon="9.7918967"><ele>824.0</ele><time>2026-04-19T12:04:42.053Z</time></trkpt><trkpt lat="44.7163067" lon="9.7918717"><ele>824.0</ele><time>2026-04-19T12:04:43.054Z</time></trkpt><trkpt lat="44.7164133" lon="9.79184"><ele>824.0</ele><time>2026-04-19T12:04:44.055Z</time></trkpt><trkpt lat="44.71651" lon="9.7918033"><ele>824.0</ele><time>2026-04-19T12:04:45.053Z</time></trkpt><trkpt lat="44.7165983" lon="9.7917633"><ele>825.6</ele><time>2026-04-19T12:04:46.053Z</time></trkpt><trkpt lat="44.7166817" lon="9.7917133"><ele>827.2</ele><time>2026-04-19T12:04:47.054Z</time></trkpt><trkpt lat="44.7167583" lon="9.7916583"><ele>828.8000000000001</ele><time>2026-04-19T12:04:48.054Z</time></trkpt><trkpt lat="44.7168317" lon="9.7915817"><ele>830.4000000000001</ele><time>2026-04-19T12:04:49.052Z</time></trkpt><trkpt lat="44.7168917" lon="9.79149"><ele>832.0</ele><time>2026-04-19T12:04:50.055Z</time></trkpt><trkpt lat="44.7169667" lon="9.79141"><ele>832.9999999999999</ele><time>2026-04-19T12:04:51.054Z</time></trkpt><trkpt lat="44.7170417" lon="9.791385"><ele>834.0</ele><time>2026-04-19T12:04:52.053Z</time></trkpt><trkpt lat="44.71712" lon="9.7913983"><ele>835.0</ele><time>2026-04-19T12:04:53.055Z</time></trkpt><trkpt lat="44.71721" lon="9.7914367"><ele>836.0</ele><time>2026-04-19T12:04:54.054Z</time></trkpt><trkpt lat="44.7172917" lon="9.79148"><ele>836.9999999999999</ele><time>2026-04-19T12:04:55.055Z</time></trkpt><trkpt lat="44.7173717" lon="9.7915233"><ele>838.0</ele><time>2026-04-19T12:04:56.055Z</time></trkpt><trkpt lat="44.7174433" lon="9.79156"><ele>837.9999999999999</ele><time>2026-04-19T12:04:57.055Z</time></trkpt><trkpt lat="44.7175033" lon="9.7915967"><ele>838.0</ele><time>2026-04-19T12:04:58.055Z</time></trkpt><trkpt lat="44.7175717" lon="9.791635"><ele>838.0</ele><time>2026-04-19T12:04:59.054Z</time></trkpt><trkpt lat="44.7176317" lon="9.791675"><ele>838.0</ele><time>2026-04-19T12:05:00.054Z</time></trkpt><trkpt lat="44.71773" lon="9.7917517"><ele>837.9999999999999</ele><time>2026-04-19T12:05:02.054Z</time></trkpt><trkpt lat="44.7177717" lon="9.7918433"><ele>838.0</ele><time>2026-04-19T12:05:05.053Z</time></trkpt><trkpt lat="44.7178417" lon="9.7919033"><ele>839.1666666666666</ele><time>2026-04-19T12:05:41.053Z</time></trkpt><trkpt lat="44.717915" lon="9.791995"><ele>840.3333333333333</ele><time>2026-04-19T12:05:43.055Z</time></trkpt><trkpt lat="44.7179567" lon="9.7920717"><ele>841.5</ele><time>2026-04-19T12:05:44.055Z</time></trkpt><trkpt lat="44.7180133" lon="9.792165"><ele>842.6666666666667</ele><time>2026-04-19T12:05:45.055Z</time></trkpt><trkpt lat="44.7180633" lon="9.792275"><ele>843.8333333333334</ele><time>2026-04-19T12:05:46.053Z</time></trkpt><trkpt lat="44.7181233" lon="9.792385"><ele>845.0</ele><time>2026-04-19T12:05:47.055Z</time></trkpt><trkpt lat="44.71818" lon="9.7924683"><ele>845.0000000000001</ele><time>2026-04-19T12:05:48.055Z</time></trkpt><trkpt lat="44.7182383" lon="9.7925433"><ele>845.0</ele><time>2026-04-19T12:05:49.055Z</time></trkpt><trkpt lat="44.7183033" lon="9.79261"><ele>845.0</ele><time>2026-04-19T12:05:50.055Z</time></trkpt><trkpt lat="44.71837" lon="9.7926733"><ele>845.0</ele><time>2026-04-19T12:05:51.054Z</time></trkpt><trkpt lat="44.7184383" lon="9.7927417"><ele>845.0000000000001</ele><time>2026-04-19T12:05:52.055Z</time></trkpt><trkpt lat="44.718515" lon="9.7928083"><ele>845.0</ele><time>2026-04-19T12:05:53.055Z</time></trkpt><trkpt lat="44.718585" lon="9.79288"><ele>847.4</ele><time>2026-04-19T12:05:54.056Z</time></trkpt><trkpt lat="44.718655" lon="9.7929617"><ele>849.8</ele><time>2026-04-19T12:05:55.056Z</time></trkpt><trkpt lat="44.71872" lon="9.7930467"><ele>852.2</ele><time>2026-04-19T12:05:56.056Z</time></trkpt><trkpt lat="44.71879" lon="9.7931383"><ele>854.6</ele><time>2026-04-19T12:05:57.056Z</time></trkpt><trkpt lat="44.7188583" lon="9.793245"><ele>857.0</ele><time>2026-04-19T12:05:58.055Z</time></trkpt><trkpt lat="44.7189133" lon="9.7933617"><ele>857.0</ele><time>2026-04-19T12:05:59.055Z</time></trkpt><trkpt lat="44.7189667" lon="9.7934833"><ele>857.0</ele><time>2026-04-19T12:06:00.055Z</time></trkpt><trkpt lat="44.7190117" lon="9.793615"><ele>857.0</ele><time>2026-04-19T12:06:01.056Z</time></trkpt><trkpt lat="44.7190433" lon="9.7937583"><ele>857.0</ele><time>2026-04-19T12:06:02.055Z</time></trkpt><trkpt lat="44.7190667" lon="9.7938967"><ele>857.0</ele><time>2026-04-19T12:06:03.054Z</time></trkpt><trkpt lat="44.7190883" lon="9.7940133"><ele>855.5000000000001</ele><time>2026-04-19T12:06:04.054Z</time></trkpt><trkpt lat="44.719095" lon="9.7941033"><ele>854.0</ele><time>2026-04-19T12:06:05.055Z</time></trkpt><trkpt lat="44.7190767" lon="9.7942267"><ele>852.5</ele><time>2026-04-19T12:06:07.057Z</time></trkpt><trkpt lat="44.7189533" lon="9.79429"><ele>851.0</ele><time>2026-04-19T12:06:09.055Z</time></trkpt><trkpt lat="44.718865" lon="9.7943133"><ele>849.5000000000001</ele><time>2026-04-19T12:06:10.054Z</time></trkpt><trkpt lat="44.7187967" lon="9.794355"><ele>848.0</ele><time>2026-04-19T12:06:11.055Z</time></trkpt><trkpt lat="44.7187367" lon="9.794385"><ele>846.5999999999999</ele><time>2026-04-19T12:06:12.056Z</time></trkpt><trkpt lat="44.71865" lon="9.79448"><ele>845.1999999999999</ele><time>2026-04-19T12:06:14.055Z</time></trkpt><trkpt lat="44.7186583" lon="9.794655"><ele>843.8</ele><time>2026-04-19T12:06:16.056Z</time></trkpt><trkpt lat="44.718675" lon="9.7947733"><ele>842.4</ele><time>2026-04-19T12:06:17.056Z</time></trkpt><trkpt lat="44.7186933" lon="9.79491"><ele>841.0</ele><time>2026-04-19T12:06:18.055Z</time></trkpt><trkpt lat="44.7187033" lon="9.79505"><ele>839.4</ele><time>2026-04-19T12:06:19.056Z</time></trkpt><trkpt lat="44.71871" lon="9.7951833"><ele>837.8</ele><time>2026-04-19T12:06:20.056Z</time></trkpt><trkpt lat="44.7187167" lon="9.7953117"><ele>836.1999999999999</ele><time>2026-04-19T12:06:21.053Z</time></trkpt><trkpt lat="44.7187067" lon="9.79544"><ele>834.5999999999999</ele><time>2026-04-19T12:06:22.053Z</time></trkpt><trkpt lat="44.71868" lon="9.7955617"><ele>833.0</ele><time>2026-04-19T12:06:23.055Z</time></trkpt><trkpt lat="44.7186433" lon="9.795675"><ele>833.0000000000001</ele><time>2026-04-19T12:06:24.056Z</time></trkpt><trkpt lat="44.7185917" lon="9.7957783"><ele>833.0</ele><time>2026-04-19T12:06:25.055Z</time></trkpt><trkpt lat="44.7185183" lon="9.7958833"><ele>833.0</ele><time>2026-04-19T12:06:26.055Z</time></trkpt><trkpt lat="44.7184533" lon="9.7959833"><ele>833.0</ele><time>2026-04-19T12:06:27.056Z</time></trkpt><trkpt lat="44.7183983" lon="9.7960817"><ele>833.0000000000001</ele><time>2026-04-19T12:06:28.055Z</time></trkpt><trkpt lat="44.7183583" lon="9.79616"><ele>833.0</ele><time>2026-04-19T12:06:29.056Z</time></trkpt><trkpt lat="44.7183083" lon="9.7962883"><ele>830.3333333333334</ele><time>2026-04-19T12:06:31.056Z</time></trkpt><trkpt lat="44.7183167" lon="9.7964433"><ele>827.6666666666667</ele><time>2026-04-19T12:06:33.056Z</time></trkpt><trkpt lat="44.7183817" lon="9.796585"><ele>825.0</ele><time>2026-04-19T12:06:35.055Z</time></trkpt><trkpt lat="44.71843" lon="9.7966483"><ele>822.3333333333333</ele><time>2026-04-19T12:06:36.054Z</time></trkpt><trkpt lat="44.718485" lon="9.7967117"><ele>819.6666666666666</ele><time>2026-04-19T12:06:37.052Z</time></trkpt><trkpt lat="44.7185467" lon="9.7967717"><ele>817.0</ele><time>2026-04-19T12:06:38.056Z</time></trkpt><trkpt lat="44.718605" lon="9.7968333"><ele>812.1428571428571</ele><time>2026-04-19T12:06:39.054Z</time></trkpt><trkpt lat="44.718655" lon="9.79689"><ele>807.2857142857142</ele><time>2026-04-19T12:06:40.055Z</time></trkpt><trkpt lat="44.7187" lon="9.796965"><ele>802.4285714285713</ele><time>2026-04-19T12:06:41.053Z</time></trkpt><trkpt lat="44.71875" lon="9.797035"><ele>797.5714285714286</ele><time>2026-04-19T12:06:42.053Z</time></trkpt><trkpt lat="44.7188067" lon="9.7971"><ele>792.7142857142858</ele><time>2026-04-19T12:06:43.053Z</time></trkpt><trkpt lat="44.7188667" lon="9.79716"><ele>787.8571428571428</ele><time>2026-04-19T12:06:44.053Z</time></trkpt><trkpt lat="44.7189267" lon="9.7972167"><ele>783.0</ele><time>2026-04-19T12:06:45.052Z</time></trkpt><trkpt lat="44.7189833" lon="9.7972683"><ele>783.0</ele><time>2026-04-19T12:06:46.052Z</time></trkpt><trkpt lat="44.7190417" lon="9.7974067"><ele>783.0</ele><time>2026-04-19T12:06:48.055Z</time></trkpt><trkpt lat="44.71905" lon="9.7975783"><ele>783.0</ele><time>2026-04-19T12:06:50.053Z</time></trkpt><trkpt lat="44.7190567" lon="9.797685"><ele>783.0</ele><time>2026-04-19T12:06:51.054Z</time></trkpt><trkpt lat="44.7190867" lon="9.79778"><ele>783.0</ele><time>2026-04-19T12:06:52.054Z</time></trkpt><trkpt lat="44.7191183" lon="9.7978583"><ele>782.3333333333334</ele><time>2026-04-19T12:06:53.053Z</time></trkpt><trkpt lat="44.7191917" lon="9.7979383"><ele>781.6666666666667</ele><time>2026-04-19T12:06:55.053Z</time></trkpt><trkpt lat="44.7192717" lon="9.7979483"><ele>781.0</ele><time>2026-04-19T12:06:57.055Z</time></trkpt><trkpt lat="44.7193533" lon="9.79793"><ele>780.3333333333334</ele><time>2026-04-19T12:06:59.055Z</time></trkpt><trkpt lat="44.7194583" lon="9.7979217"><ele>779.6666666666667</ele><time>2026-04-19T12:07:01.055Z</time></trkpt><trkpt lat="44.7195233" lon="9.7979383"><ele>779.0</ele><time>2026-04-19T12:07:02.054Z</time></trkpt><trkpt lat="44.7196217" lon="9.7979367"><ele>779.0</ele><time>2026-04-19T12:07:04.052Z</time></trkpt><trkpt lat="44.71971" lon="9.7978467"><ele>779.0</ele><time>2026-04-19T12:07:06.055Z</time></trkpt><trkpt lat="44.7198" lon="9.797765"><ele>779.0</ele><time>2026-04-19T12:07:08.055Z</time></trkpt><trkpt lat="44.719915" lon="9.7977483"><ele>779.0</ele><time>2026-04-19T12:07:10.054Z</time></trkpt><trkpt lat="44.7200233" lon="9.7977417"><ele>779.0</ele><time>2026-04-19T12:07:12.054Z</time></trkpt><trkpt lat="44.72009" lon="9.7977417"><ele>779.0000000000001</ele><time>2026-04-19T12:07:13.055Z</time></trkpt><trkpt lat="44.720155" lon="9.797745"><ele>779.0</ele><time>2026-04-19T12:07:14.054Z</time></trkpt><trkpt lat="44.72027" lon="9.797785"><ele>779.0</ele><time>2026-04-19T12:07:16.055Z</time></trkpt><trkpt lat="44.7203317" lon="9.7978333"><ele>779.0</ele><time>2026-04-19T12:07:17.054Z</time></trkpt><trkpt lat="44.720405" lon="9.7978883"><ele>779.0000000000001</ele><time>2026-04-19T12:07:18.055Z</time></trkpt><trkpt lat="44.7204817" lon="9.7979333"><ele>779.0</ele><time>2026-04-19T12:07:19.055Z</time></trkpt><trkpt lat="44.72056" lon="9.7979783"><ele>782.5000000000001</ele><time>2026-04-19T12:07:20.055Z</time></trkpt><trkpt lat="44.72064" lon="9.7980183"><ele>786.0</ele><time>2026-04-19T12:07:21.054Z</time></trkpt><trkpt lat="44.7207117" lon="9.7980617"><ele>789.5</ele><time>2026-04-19T12:07:22.054Z</time></trkpt><trkpt lat="44.7207867" lon="9.7981183"><ele>793.0</ele><time>2026-04-19T12:07:23.055Z</time></trkpt><trkpt lat="44.7208617" lon="9.7981683"><ele>796.5000000000001</ele><time>2026-04-19T12:07:24.054Z</time></trkpt><trkpt lat="44.7209433" lon="9.7982167"><ele>800.0</ele><time>2026-04-19T12:07:25.056Z</time></trkpt><trkpt lat="44.72103" lon="9.798265"><ele>802.8333333333334</ele><time>2026-04-19T12:07:26.056Z</time></trkpt><trkpt lat="44.7211033" lon="9.7983067"><ele>805.6666666666667</ele><time>2026-04-19T12:07:27.055Z</time></trkpt><trkpt lat="44.7211933" lon="9.7983417"><ele>808.5</ele><time>2026-04-19T12:07:28.056Z</time></trkpt><trkpt lat="44.72128" lon="9.7983717"><ele>811.3333333333333</ele><time>2026-04-19T12:07:29.055Z</time></trkpt><trkpt lat="44.7213617" lon="9.798405"><ele>814.1666666666666</ele><time>2026-04-19T12:07:30.054Z</time></trkpt><trkpt lat="44.7214417" lon="9.7984267"><ele>817.0</ele><time>2026-04-19T12:07:31.054Z</time></trkpt><trkpt lat="44.7215233" lon="9.798445"><ele>816.9999999999999</ele><time>2026-04-19T12:07:32.056Z</time></trkpt><trkpt lat="44.7216067" lon="9.7984533"><ele>817.0</ele><time>2026-04-19T12:07:33.054Z</time></trkpt><trkpt lat="44.7216867" lon="9.798445"><ele>817.0</ele><time>2026-04-19T12:07:34.055Z</time></trkpt><trkpt lat="44.7217667" lon="9.7984383"><ele>817.0</ele><time>2026-04-19T12:07:35.055Z</time></trkpt><trkpt lat="44.721855" lon="9.79842"><ele>816.9999999999999</ele><time>2026-04-19T12:07:36.056Z</time></trkpt><trkpt lat="44.7219183" lon="9.7984017"><ele>817.0</ele><time>2026-04-19T12:07:37.055Z</time></trkpt><trkpt lat="44.72202" lon="9.7983"><ele>815.9999999999999</ele><time>2026-04-19T12:07:39.056Z</time></trkpt><trkpt lat="44.722085" lon="9.7982433"><ele>815.0</ele><time>2026-04-19T12:07:40.056Z</time></trkpt><trkpt lat="44.72215" lon="9.7981833"><ele>814.0</ele><time>2026-04-19T12:07:41.056Z</time></trkpt><trkpt lat="44.7222033" lon="9.7981217"><ele>813.0</ele><time>2026-04-19T12:07:42.055Z</time></trkpt><trkpt lat="44.7223017" lon="9.79805"><ele>811.9999999999999</ele><time>2026-04-19T12:07:44.055Z</time></trkpt><trkpt lat="44.7223883" lon="9.7980167"><ele>811.0</ele><time>2026-04-19T12:07:46.054Z</time></trkpt><trkpt lat="44.7224783" lon="9.79798"><ele>811.0</ele><time>2026-04-19T12:07:49.056Z</time></trkpt><trkpt lat="44.7225483" lon="9.797955"><ele>811.0</ele><time>2026-04-19T12:07:52.055Z</time></trkpt><trkpt lat="44.7226117" lon="9.7980467"><ele>811.0</ele><time>2026-04-19T12:07:55.057Z</time></trkpt><trkpt lat="44.722645" lon="9.79815"><ele>811.0</ele><time>2026-04-19T12:07:57.055Z</time></trkpt><trkpt lat="44.7227117" lon="9.7982967"><ele>811.0</ele><time>2026-04-19T12:07:59.055Z</time></trkpt><trkpt lat="44.7227967" lon="9.79838"><ele>810.4999999999999</ele><time>2026-04-19T12:08:01.054Z</time></trkpt><trkpt lat="44.7228567" lon="9.7984317"><ele>810.0</ele><time>2026-04-19T12:08:03.055Z</time></trkpt><trkpt lat="44.7229167" lon="9.7985083"><ele>809.5</ele><time>2026-04-19T12:08:05.055Z</time></trkpt><trkpt lat="44.7230083" lon="9.7985483"><ele>809.0</ele><time>2026-04-19T12:08:08.056Z</time></trkpt><trkpt lat="44.7231083" lon="9.7986117"><ele>808.4999999999999</ele><time>2026-04-19T12:08:10.055Z</time></trkpt><trkpt lat="44.7231483" lon="9.7987083"><ele>808.0</ele><time>2026-04-19T12:08:12.055Z</time></trkpt><trkpt lat="44.723145" lon="9.7987983"><ele>808.0</ele><time>2026-04-19T12:08:13.056Z</time></trkpt><trkpt lat="44.7231217" lon="9.7989467"><ele>808.0</ele><time>2026-04-19T12:08:15.056Z</time></trkpt><trkpt lat="44.723065" lon="9.799145"><ele>808.0</ele><time>2026-04-19T12:08:17.055Z</time></trkpt><trkpt lat="44.7230233" lon="9.79925"><ele>808.0</ele><time>2026-04-19T12:08:18.057Z</time></trkpt><trkpt lat="44.72294" lon="9.7993617"><ele>805.4</ele><time>2026-04-19T12:08:20.055Z</time></trkpt><trkpt lat="44.7228567" lon="9.79945"><ele>802.8</ele><time>2026-04-19T12:08:22.055Z</time></trkpt><trkpt lat="44.7228033" lon="9.79957"><ele>800.2</ele><time>2026-04-19T12:08:24.057Z</time></trkpt><trkpt lat="44.7228033" lon="9.799725"><ele>797.6</ele><time>2026-04-19T12:08:26.055Z</time></trkpt><trkpt lat="44.72282" lon="9.7998483"><ele>795.0</ele><time>2026-04-19T12:08:28.055Z</time></trkpt><trkpt lat="44.722835" lon="9.7999783"><ele>795.0</ele><time>2026-04-19T12:08:30.056Z</time></trkpt><trkpt lat="44.7228167" lon="9.8001267"><ele>795.0</ele><time>2026-04-19T12:08:32.055Z</time></trkpt><trkpt lat="44.7227817" lon="9.8002967"><ele>795.0</ele><time>2026-04-19T12:08:34.055Z</time></trkpt><trkpt lat="44.722755" lon="9.8003883"><ele>795.0</ele><time>2026-04-19T12:08:35.055Z</time></trkpt><trkpt lat="44.7227217" lon="9.8004767"><ele>795.0</ele><time>2026-04-19T12:08:36.055Z</time></trkpt><trkpt lat="44.7226867" lon="9.8005567"><ele>795.0</ele><time>2026-04-19T12:08:37.055Z</time></trkpt><trkpt lat="44.722645" lon="9.800625"><ele>792.1666666666666</ele><time>2026-04-19T12:08:38.055Z</time></trkpt><trkpt lat="44.7225917" lon="9.800695"><ele>789.3333333333333</ele><time>2026-04-19T12:08:39.055Z</time></trkpt><trkpt lat="44.7225383" lon="9.80077"><ele>786.5</ele><time>2026-04-19T12:08:40.055Z</time></trkpt><trkpt lat="44.7224833" lon="9.800855"><ele>783.6666666666666</ele><time>2026-04-19T12:08:41.055Z</time></trkpt><trkpt lat="44.7224267" lon="9.80095"><ele>780.8333333333333</ele><time>2026-04-19T12:08:42.055Z</time></trkpt><trkpt lat="44.7223933" lon="9.8010717"><ele>778.0</ele><time>2026-04-19T12:08:43.056Z</time></trkpt><trkpt lat="44.7223717" lon="9.8012033"><ele>776.4999999999999</ele><time>2026-04-19T12:08:44.055Z</time></trkpt><trkpt lat="44.7223567" lon="9.8013067"><ele>775.0</ele><time>2026-04-19T12:08:45.055Z</time></trkpt><trkpt lat="44.7223417" lon="9.8014067"><ele>773.5</ele><time>2026-04-19T12:08:46.056Z</time></trkpt><trkpt lat="44.7223583" lon="9.801555"><ele>772.0</ele><time>2026-04-19T12:08:48.055Z</time></trkpt><trkpt lat="44.7224367" lon="9.8015967"><ele>770.4999999999999</ele><time>2026-04-19T12:08:50.055Z</time></trkpt><trkpt lat="44.722535" lon="9.8016633"><ele>769.0</ele><time>2026-04-19T12:08:52.055Z</time></trkpt><trkpt lat="44.72258" lon="9.8017433"><ele>768.6</ele><time>2026-04-19T12:08:54.055Z</time></trkpt><trkpt lat="44.7226467" lon="9.8018917"><ele>768.2</ele><time>2026-04-19T12:08:56.055Z</time></trkpt><trkpt lat="44.722685" lon="9.8020783"><ele>767.8000000000001</ele><time>2026-04-19T12:08:58.054Z</time></trkpt><trkpt lat="44.7227" lon="9.802165"><ele>767.4000000000001</ele><time>2026-04-19T12:08:59.055Z</time></trkpt><trkpt lat="44.72276" lon="9.8023"><ele>767.0</ele><time>2026-04-19T12:09:01.055Z</time></trkpt><trkpt lat="44.72281" lon="9.8023733"><ele>767.0</ele><time>2026-04-19T12:09:02.056Z</time></trkpt><trkpt lat="44.7228633" lon="9.8024483"><ele>767.0</ele><time>2026-04-19T12:09:03.056Z</time></trkpt><trkpt lat="44.722915" lon="9.8025267"><ele>767.0</ele><time>2026-04-19T12:09:04.056Z</time></trkpt><trkpt lat="44.7229783" lon="9.8025967"><ele>767.0</ele><time>2026-04-19T12:09:05.054Z</time></trkpt><trkpt lat="44.7230417" lon="9.8026483"><ele>767.0</ele><time>2026-04-19T12:09:06.055Z</time></trkpt><trkpt lat="44.7231117" lon="9.802695"><ele>767.0</ele><time>2026-04-19T12:09:07.056Z</time></trkpt><trkpt lat="44.723175" lon="9.80272"><ele>767.0</ele><time>2026-04-19T12:09:08.056Z</time></trkpt><trkpt lat="44.7232483" lon="9.8027433"><ele>766.0</ele><time>2026-04-19T12:09:09.055Z</time></trkpt><trkpt lat="44.72336" lon="9.8027967"><ele>765.0</ele><time>2026-04-19T12:09:11.056Z</time></trkpt><trkpt lat="44.7234533" lon="9.8028667"><ele>764.0</ele><time>2026-04-19T12:09:13.055Z</time></trkpt><trkpt lat="44.7235417" lon="9.8029783"><ele>763.0</ele><time>2026-04-19T12:09:15.055Z</time></trkpt><trkpt lat="44.7236317" lon="9.803095"><ele>763.0</ele><time>2026-04-19T12:09:17.055Z</time></trkpt><trkpt lat="44.7237067" lon="9.8032133"><ele>763.0</ele><time>2026-04-19T12:09:19.055Z</time></trkpt><trkpt lat="44.7237867" lon="9.8033183"><ele>763.0</ele><time>2026-04-19T12:09:21.055Z</time></trkpt><trkpt lat="44.7238533" lon="9.8033933"><ele>763.0</ele><time>2026-04-19T12:09:23.055Z</time></trkpt><trkpt lat="44.7239033" lon="9.8034867"><ele>763.0</ele><time>2026-04-19T12:09:25.055Z</time></trkpt><trkpt lat="44.72396" lon="9.8035367"><ele>763.0</ele><time>2026-04-19T12:09:28.056Z</time></trkpt><trkpt lat="44.7240367" lon="9.8034833"><ele>763.0</ele><time>2026-04-19T12:09:30.056Z</time></trkpt><trkpt lat="44.7240967" lon="9.8034433"><ele>763.0</ele><time>2026-04-19T12:09:31.055Z</time></trkpt><trkpt lat="44.7241567" lon="9.8034067"><ele>763.0</ele><time>2026-04-19T12:09:32.055Z</time></trkpt><trkpt lat="44.7242567" lon="9.8033233"><ele>763.0</ele><time>2026-04-19T12:09:34.055Z</time></trkpt><trkpt lat="44.72433" lon="9.8032083"><ele>763.0</ele><time>2026-04-19T12:09:36.055Z</time></trkpt><trkpt lat="44.7244267" lon="9.80311"><ele>762.0</ele><time>2026-04-19T12:09:38.055Z</time></trkpt><trkpt lat="44.7244817" lon="9.803065"><ele>761.0</ele><time>2026-04-19T12:09:39.055Z</time></trkpt><trkpt lat="44.7245467" lon="9.803015"><ele>760.0</ele><time>2026-04-19T12:09:40.055Z</time></trkpt><trkpt lat="44.7246033" lon="9.8029733"><ele>759.0</ele><time>2026-04-19T12:09:41.056Z</time></trkpt><trkpt lat="44.7246817" lon="9.8029317"><ele>758.0</ele><time>2026-04-19T12:09:42.056Z</time></trkpt><trkpt lat="44.7247467" lon="9.8028967"><ele>757.0</ele><time>2026-04-19T12:09:43.055Z</time></trkpt><trkpt lat="44.7248567" lon="9.80283"><ele>757.0</ele><time>2026-04-19T12:09:45.055Z</time></trkpt><trkpt lat="44.7248967" lon="9.8027267"><ele>757.0</ele><time>2026-04-19T12:09:47.055Z</time></trkpt><trkpt lat="44.7249117" lon="9.802585"><ele>757.0</ele><time>2026-04-19T12:09:49.055Z</time></trkpt><trkpt lat="44.7249417" lon="9.8024333"><ele>757.0</ele><time>2026-04-19T12:09:51.056Z</time></trkpt><trkpt lat="44.7249767" lon="9.8023267"><ele>757.0</ele><time>2026-04-19T12:09:53.055Z</time></trkpt><trkpt lat="44.7250667" lon="9.8022617"><ele>759.8</ele><time>2026-04-19T12:09:55.056Z</time></trkpt><trkpt lat="44.725215" lon="9.80225"><ele>762.6</ele><time>2026-04-19T12:09:57.055Z</time></trkpt><trkpt lat="44.7252933" lon="9.80226"><ele>765.4</ele><time>2026-04-19T12:09:58.055Z</time></trkpt><trkpt lat="44.7253917" lon="9.8022717"><ele>768.1999999999999</ele><time>2026-04-19T12:09:59.055Z</time></trkpt><trkpt lat="44.7254983" lon="9.8023033"><ele>771.0</ele><time>2026-04-19T12:10:00.055Z</time></trkpt><trkpt lat="44.725595" lon="9.8023367"><ele>773.1666666666666</ele><time>2026-04-19T12:10:01.054Z</time></trkpt><trkpt lat="44.7256717" lon="9.8023667"><ele>775.3333333333333</ele><time>2026-04-19T12:10:02.054Z</time></trkpt><trkpt lat="44.725755" lon="9.8023933"><ele>777.5</ele><time>2026-04-19T12:10:03.055Z</time></trkpt><trkpt lat="44.725835" lon="9.8024317"><ele>779.6666666666666</ele><time>2026-04-19T12:10:04.056Z</time></trkpt><trkpt lat="44.7259217" lon="9.80246"><ele>781.8333333333333</ele><time>2026-04-19T12:10:05.054Z</time></trkpt><trkpt lat="44.72601" lon="9.8024867"><ele>784.0</ele><time>2026-04-19T12:10:06.054Z</time></trkpt><trkpt lat="44.7261" lon="9.8025083"><ele>787.9999999999999</ele><time>2026-04-19T12:10:07.056Z</time></trkpt><trkpt lat="44.726175" lon="9.80252"><ele>792.0</ele><time>2026-04-19T12:10:08.056Z</time></trkpt><trkpt lat="44.72625" lon="9.80253"><ele>796.0</ele><time>2026-04-19T12:10:09.054Z</time></trkpt><trkpt lat="44.726325" lon="9.8025517"><ele>800.0</ele><time>2026-04-19T12:10:10.056Z</time></trkpt><trkpt lat="44.7263967" lon="9.8025767"><ele>803.9999999999999</ele><time>2026-04-19T12:10:11.055Z</time></trkpt><trkpt lat="44.7264733" lon="9.8025983"><ele>808.0</ele><time>2026-04-19T12:10:12.054Z</time></trkpt><trkpt lat="44.72656" lon="9.80262"><ele>807.9999999999999</ele><time>2026-04-19T12:10:13.054Z</time></trkpt><trkpt lat="44.72664" lon="9.802635"><ele>808.0</ele><time>2026-04-19T12:10:14.054Z</time></trkpt><trkpt lat="44.7267183" lon="9.8026467"><ele>808.0</ele><time>2026-04-19T12:10:15.054Z</time></trkpt><trkpt lat="44.7267867" lon="9.8026483"><ele>808.0</ele><time>2026-04-19T12:10:16.054Z</time></trkpt><trkpt lat="44.7268517" lon="9.802655"><ele>807.9999999999999</ele><time>2026-04-19T12:10:17.055Z</time></trkpt><trkpt lat="44.726925" lon="9.8026583"><ele>808.0</ele><time>2026-04-19T12:10:18.054Z</time></trkpt><trkpt lat="44.7270283" lon="9.802685"><ele>805.8</ele><time>2026-04-19T12:10:19.054Z</time></trkpt><trkpt lat="44.72713" lon="9.8027067"><ele>803.5999999999999</ele><time>2026-04-19T12:10:20.054Z</time></trkpt><trkpt lat="44.7272267" lon="9.8027233"><ele>801.4000000000001</ele><time>2026-04-19T12:10:21.054Z</time></trkpt><trkpt lat="44.7273233" lon="9.802735"><ele>799.2</ele><time>2026-04-19T12:10:22.055Z</time></trkpt><trkpt lat="44.727415" lon="9.802745"><ele>797.0</ele><time>2026-04-19T12:10:23.055Z</time></trkpt><trkpt lat="44.7274983" lon="9.8027633"><ele>797.0000000000001</ele><time>2026-04-19T12:10:24.056Z</time></trkpt><trkpt lat="44.727585" lon="9.8027833"><ele>797.0</ele><time>2026-04-19T12:10:25.055Z</time></trkpt><trkpt lat="44.7276733" lon="9.8028083"><ele>797.0</ele><time>2026-04-19T12:10:26.056Z</time></trkpt><trkpt lat="44.7277633" lon="9.8028267"><ele>797.0</ele><time>2026-04-19T12:10:27.054Z</time></trkpt><trkpt lat="44.7278533" lon="9.8028317"><ele>797.0000000000001</ele><time>2026-04-19T12:10:28.055Z</time></trkpt><trkpt lat="44.7279417" lon="9.8028317"><ele>797.0</ele><time>2026-04-19T12:10:29.055Z</time></trkpt><trkpt lat="44.72803" lon="9.802815"><ele>798.6666666666667</ele><time>2026-04-19T12:10:30.055Z</time></trkpt><trkpt lat="44.728115" lon="9.802785"><ele>800.3333333333334</ele><time>2026-04-19T12:10:31.054Z</time></trkpt><trkpt lat="44.7281883" lon="9.802765"><ele>802.0</ele><time>2026-04-19T12:10:32.055Z</time></trkpt><trkpt lat="44.7282517" lon="9.80275"><ele>803.6666666666667</ele><time>2026-04-19T12:10:33.054Z</time></trkpt><trkpt lat="44.72834" lon="9.802745"><ele>805.3333333333334</ele><time>2026-04-19T12:10:35.055Z</time></trkpt><trkpt lat="44.7284183" lon="9.80273"><ele>807.0</ele><time>2026-04-19T12:10:38.055Z</time></trkpt><trkpt lat="44.728495" lon="9.8027467"><ele>808.8</ele><time>2026-04-19T12:10:41.055Z</time></trkpt><trkpt lat="44.7285733" lon="9.8027617"><ele>810.6</ele><time>2026-04-19T12:10:43.055Z</time></trkpt><trkpt lat="44.7286683" lon="9.802745"><ele>812.4</ele><time>2026-04-19T12:10:45.055Z</time></trkpt><trkpt lat="44.7287517" lon="9.802715"><ele>814.1999999999999</ele><time>2026-04-19T12:10:47.055Z</time></trkpt><trkpt lat="44.7288517" lon="9.802635"><ele>816.0</ele><time>2026-04-19T12:10:49.056Z</time></trkpt><trkpt lat="44.7289567" lon="9.8025533"><ele>816.0</ele><time>2026-04-19T12:10:51.055Z</time></trkpt><trkpt lat="44.7290317" lon="9.802545"><ele>816.0</ele><time>2026-04-19T12:10:53.056Z</time></trkpt><trkpt lat="44.7291383" lon="9.80262"><ele>816.0</ele><time>2026-04-19T12:10:55.055Z</time></trkpt><trkpt lat="44.729205" lon="9.802705"><ele>816.0</ele><time>2026-04-19T12:10:56.056Z</time></trkpt><trkpt lat="44.7292517" lon="9.8027683"><ele>816.0</ele><time>2026-04-19T12:10:57.054Z</time></trkpt><trkpt lat="44.7293083" lon="9.80293"><ele>816.0</ele><time>2026-04-19T12:10:59.056Z</time></trkpt><trkpt lat="44.7293717" lon="9.803015"><ele>816.0</ele><time>2026-04-19T12:11:00.055Z</time></trkpt><trkpt lat="44.729465" lon="9.8031017"><ele>816.0</ele><time>2026-04-19T12:11:01.055Z</time></trkpt><trkpt lat="44.7295367" lon="9.8031967"><ele>816.0</ele><time>2026-04-19T12:11:02.055Z</time></trkpt><trkpt lat="44.729625" lon="9.8033133"><ele>816.0</ele><time>2026-04-19T12:11:03.056Z</time></trkpt><trkpt lat="44.7297017" lon="9.8033817"><ele>816.1666666666666</ele><time>2026-04-19T12:11:04.054Z</time></trkpt><trkpt lat="44.7297617" lon="9.8034167"><ele>816.3333333333333</ele><time>2026-04-19T12:11:05.055Z</time></trkpt><trkpt lat="44.7298517" lon="9.8034983"><ele>816.5</ele><time>2026-04-19T12:11:07.056Z</time></trkpt><trkpt lat="44.7298933" lon="9.8035767"><ele>816.6666666666666</ele><time>2026-04-19T12:11:09.055Z</time></trkpt><trkpt lat="44.72996" lon="9.8035967"><ele>816.8333333333333</ele><time>2026-04-19T12:11:11.056Z</time></trkpt><trkpt lat="44.7300267" lon="9.8035617"><ele>817.0</ele><time>2026-04-19T12:11:13.055Z</time></trkpt><trkpt lat="44.7301317" lon="9.8034767"><ele>817.0</ele><time>2026-04-19T12:11:15.055Z</time></trkpt><trkpt lat="44.73021" lon="9.8034367"><ele>817.0</ele><time>2026-04-19T12:11:16.055Z</time></trkpt><trkpt lat="44.7303033" lon="9.8033983"><ele>817.0</ele><time>2026-04-19T12:11:17.055Z</time></trkpt><trkpt lat="44.7303967" lon="9.803355"><ele>817.0</ele><time>2026-04-19T12:11:18.055Z</time></trkpt><trkpt lat="44.7304817" lon="9.8033217"><ele>817.0</ele><time>2026-04-19T12:11:19.055Z</time></trkpt><trkpt lat="44.73059" lon="9.80331"><ele>817.75</ele><time>2026-04-19T12:11:20.055Z</time></trkpt><trkpt lat="44.7307167" lon="9.8033217"><ele>818.5</ele><time>2026-04-19T12:11:21.055Z</time></trkpt><trkpt lat="44.730855" lon="9.8033567"><ele>819.25</ele><time>2026-04-19T12:11:22.054Z</time></trkpt><trkpt lat="44.7309783" lon="9.8033933"><ele>820.0</ele><time>2026-04-19T12:11:23.055Z</time></trkpt><trkpt lat="44.731075" lon="9.8034217"><ele>820.3333333333333</ele><time>2026-04-19T12:11:24.052Z</time></trkpt><trkpt lat="44.7311517" lon="9.80345"><ele>820.6666666666666</ele><time>2026-04-19T12:11:25.052Z</time></trkpt><trkpt lat="44.7312367" lon="9.8035017"><ele>821.0</ele><time>2026-04-19T12:11:27.052Z</time></trkpt><trkpt lat="44.73132" lon="9.8035767"><ele>821.3333333333333</ele><time>2026-04-19T12:11:30.053Z</time></trkpt><trkpt lat="44.7314117" lon="9.8036533"><ele>821.6666666666666</ele><time>2026-04-19T12:11:32.053Z</time></trkpt><trkpt lat="44.731445" lon="9.80374"><ele>822.0</ele><time>2026-04-19T12:11:33.054Z</time></trkpt><trkpt lat="44.7314683" lon="9.8038533"><ele>822.0</ele><time>2026-04-19T12:11:34.056Z</time></trkpt><trkpt lat="44.7314733" lon="9.8040183"><ele>822.0</ele><time>2026-04-19T12:11:35.055Z</time></trkpt><trkpt lat="44.7314883" lon="9.8041667"><ele>822.0</ele><time>2026-04-19T12:11:36.056Z</time></trkpt><trkpt lat="44.7315133" lon="9.804295"><ele>822.0</ele><time>2026-04-19T12:11:37.056Z</time></trkpt><trkpt lat="44.7315383" lon="9.8043983"><ele>822.0</ele><time>2026-04-19T12:11:38.055Z</time></trkpt><trkpt lat="44.7315383" lon="9.8045167"><ele>823.3333333333334</ele><time>2026-04-19T12:11:40.055Z</time></trkpt><trkpt lat="44.7315683" lon="9.80465"><ele>824.6666666666667</ele><time>2026-04-19T12:11:43.055Z</time></trkpt><trkpt lat="44.7315933" lon="9.8047383"><ele>826.0</ele><time>2026-04-19T12:11:45.053Z</time></trkpt><trkpt lat="44.7315817" lon="9.8048433"><ele>827.3333333333334</ele><time>2026-04-19T12:11:48.054Z</time></trkpt><trkpt lat="44.731555" lon="9.8049283"><ele>828.6666666666667</ele><time>2026-04-19T12:11:51.055Z</time></trkpt><trkpt lat="44.7315367" lon="9.8050567"><ele>830.0</ele><time>2026-04-19T12:11:53.055Z</time></trkpt><trkpt lat="44.7315567" lon="9.80525"><ele>830.1666666666667</ele><time>2026-04-19T12:11:55.053Z</time></trkpt><trkpt lat="44.7315683" lon="9.8053633"><ele>830.3333333333334</ele><time>2026-04-19T12:11:56.056Z</time></trkpt><trkpt lat="44.73158" lon="9.8054683"><ele>830.5</ele><time>2026-04-19T12:11:57.053Z</time></trkpt><trkpt lat="44.7315917" lon="9.8055617"><ele>830.6666666666667</ele><time>2026-04-19T12:11:58.054Z</time></trkpt><trkpt lat="44.731615" lon="9.8056567"><ele>830.8333333333334</ele><time>2026-04-19T12:11:59.055Z</time></trkpt><trkpt lat="44.7316433" lon="9.805755"><ele>831.0</ele><time>2026-04-19T12:12:00.054Z</time></trkpt><trkpt lat="44.7316933" lon="9.8059267"><ele>830.5</ele><time>2026-04-19T12:12:02.055Z</time></trkpt><trkpt lat="44.7317683" lon="9.80605"><ele>830.0</ele><time>2026-04-19T12:12:04.054Z</time></trkpt><trkpt lat="44.7318283" lon="9.8060967"><ele>829.5</ele><time>2026-04-19T12:12:05.056Z</time></trkpt><trkpt lat="44.7318967" lon="9.8061417"><ele>829.0</ele><time>2026-04-19T12:12:06.055Z</time></trkpt><trkpt lat="44.7319633" lon="9.806195"><ele>828.5</ele><time>2026-04-19T12:12:07.053Z</time></trkpt><trkpt lat="44.7320317" lon="9.8062567"><ele>828.0</ele><time>2026-04-19T12:12:08.054Z</time></trkpt><trkpt lat="44.732105" lon="9.80632"><ele>831.5999999999999</ele><time>2026-04-19T12:12:09.052Z</time></trkpt><trkpt lat="44.7321783" lon="9.8063767"><ele>835.1999999999999</ele><time>2026-04-19T12:12:10.053Z</time></trkpt><trkpt lat="44.7322467" lon="9.8064167"><ele>838.8</ele><time>2026-04-19T12:12:11.054Z</time></trkpt><trkpt lat="44.732355" lon="9.8064533"><ele>842.4</ele><time>2026-04-19T12:12:13.053Z</time></trkpt><trkpt lat="44.7324567" lon="9.80643"><ele>846.0</ele><time>2026-04-19T12:12:15.053Z</time></trkpt><trkpt lat="44.7325683" lon="9.8063917"><ele>846.0</ele><time>2026-04-19T12:12:17.055Z</time></trkpt><trkpt lat="44.73266" lon="9.8063717"><ele>846.0</ele><time>2026-04-19T12:12:19.054Z</time></trkpt><trkpt lat="44.7327233" lon="9.806305"><ele>846.0</ele><time>2026-04-19T12:12:36.054Z</time></trkpt><trkpt lat="44.732855" lon="9.806275"><ele>846.0</ele><time>2026-04-19T12:12:38.053Z</time></trkpt><trkpt lat="44.7329433" lon="9.8062767"><ele>846.0</ele><time>2026-04-19T12:12:39.053Z</time></trkpt><trkpt lat="44.7330167" lon="9.8062817"><ele>847.7142857142857</ele><time>2026-04-19T12:12:40.053Z</time></trkpt><trkpt lat="44.733085" lon="9.8062917"><ele>849.4285714285714</ele><time>2026-04-19T12:12:41.055Z</time></trkpt><trkpt lat="44.7331483" lon="9.80632"><ele>851.1428571428571</ele><time>2026-04-19T12:12:42.054Z</time></trkpt><trkpt lat="44.7332083" lon="9.80636"><ele>852.8571428571429</ele><time>2026-04-19T12:12:43.055Z</time></trkpt><trkpt lat="44.7332767" lon="9.8063983"><ele>854.5714285714287</ele><time>2026-04-19T12:12:44.056Z</time></trkpt><trkpt lat="44.73335" lon="9.80644"><ele>856.2857142857143</ele><time>2026-04-19T12:12:45.054Z</time></trkpt><trkpt lat="44.733415" lon="9.8064833"><ele>858.0</ele><time>2026-04-19T12:12:46.055Z</time></trkpt><trkpt lat="44.7335267" lon="9.8065433"><ele>858.4285714285714</ele><time>2026-04-19T12:12:48.055Z</time></trkpt><trkpt lat="44.73359" lon="9.806555"><ele>858.8571428571429</ele><time>2026-04-19T12:12:49.054Z</time></trkpt><trkpt lat="44.7336533" lon="9.806545"><ele>859.2857142857142</ele><time>2026-04-19T12:12:50.055Z</time></trkpt><trkpt lat="44.7337133" lon="9.8065133"><ele>859.7142857142858</ele><time>2026-04-19T12:12:51.055Z</time></trkpt><trkpt lat="44.73376" lon="9.80645"><ele>860.1428571428571</ele><time>2026-04-19T12:12:52.054Z</time></trkpt><trkpt lat="44.7338133" lon="9.8063833"><ele>860.5714285714286</ele><time>2026-04-19T12:12:53.056Z</time></trkpt><trkpt lat="44.73389" lon="9.8063067"><ele>861.0</ele><time>2026-04-19T12:12:55.056Z</time></trkpt><trkpt lat="44.7339517" lon="9.8063567"><ele>861.0</ele><time>2026-04-19T12:12:58.053Z</time></trkpt><trkpt lat="44.73406" lon="9.806505"><ele>861.0</ele><time>2026-04-19T12:13:00.054Z</time></trkpt><trkpt lat="44.7341567" lon="9.8065783"><ele>861.0</ele><time>2026-04-19T12:13:01.053Z</time></trkpt><trkpt lat="44.7342733" lon="9.8066417"><ele>861.0</ele><time>2026-04-19T12:13:02.053Z</time></trkpt><trkpt lat="44.7343833" lon="9.8066867"><ele>860.5</ele><time>2026-04-19T12:13:03.053Z</time></trkpt><trkpt lat="44.734495" lon="9.8067233"><ele>860.0</ele><time>2026-04-19T12:13:04.053Z</time></trkpt><trkpt lat="44.7346117" lon="9.806755"><ele>859.5</ele><time>2026-04-19T12:13:05.053Z</time></trkpt><trkpt lat="44.7347333" lon="9.8067933"><ele>859.0</ele><time>2026-04-19T12:13:06.053Z</time></trkpt><trkpt lat="44.7348583" lon="9.8068267"><ele>858.8000000000001</ele><time>2026-04-19T12:13:07.052Z</time></trkpt><trkpt lat="44.7349783" lon="9.806845"><ele>858.6000000000001</ele><time>2026-04-19T12:13:08.053Z</time></trkpt><trkpt lat="44.73508" lon="9.8068533"><ele>858.4</ele><time>2026-04-19T12:13:09.054Z</time></trkpt><trkpt lat="44.73516" lon="9.8068633"><ele>858.2</ele><time>2026-04-19T12:13:10.054Z</time></trkpt><trkpt lat="44.7352483" lon="9.8069067"><ele>858.0</ele><time>2026-04-19T12:13:12.054Z</time></trkpt><trkpt lat="44.735245" lon="9.8070283"><ele>858.0</ele><time>2026-04-19T12:13:14.053Z</time></trkpt><trkpt lat="44.7352133" lon="9.80713"><ele>858.0</ele><time>2026-04-19T12:13:15.053Z</time></trkpt><trkpt lat="44.73517" lon="9.80723"><ele>858.0</ele><time>2026-04-19T12:13:16.051Z</time></trkpt><trkpt lat="44.7351233" lon="9.8073267"><ele>858.0</ele><time>2026-04-19T12:13:17.052Z</time></trkpt><trkpt lat="44.7350867" lon="9.807405"><ele>858.0</ele><time>2026-04-19T12:13:18.054Z</time></trkpt><trkpt lat="44.735055" lon="9.8075383"><ele>858.0</ele><time>2026-04-19T12:13:20.055Z</time></trkpt><trkpt lat="44.7351267" lon="9.8076733"><ele>859.3333333333334</ele><time>2026-04-19T12:13:22.053Z</time></trkpt><trkpt lat="44.735145" lon="9.8077683"><ele>860.6666666666667</ele><time>2026-04-19T12:13:23.055Z</time></trkpt><trkpt lat="44.735165" lon="9.807875"><ele>862.0</ele><time>2026-04-19T12:13:24.055Z</time></trkpt><trkpt lat="44.73518" lon="9.807985"><ele>863.3333333333334</ele><time>2026-04-19T12:13:25.055Z</time></trkpt><trkpt lat="44.7351917" lon="9.8081133"><ele>864.6666666666667</ele><time>2026-04-19T12:13:26.055Z</time></trkpt><trkpt lat="44.7351833" lon="9.808225"><ele>866.0</ele><time>2026-04-19T12:13:27.053Z</time></trkpt><trkpt lat="44.735185" lon="9.808335"><ele>866.0000000000001</ele><time>2026-04-19T12:13:28.054Z</time></trkpt><trkpt lat="44.735195" lon="9.80844"><ele>866.0</ele><time>2026-04-19T12:13:29.055Z</time></trkpt><trkpt lat="44.73522" lon="9.8085617"><ele>866.0</ele><time>2026-04-19T12:13:30.055Z</time></trkpt><trkpt lat="44.7352517" lon="9.80868"><ele>866.0</ele><time>2026-04-19T12:13:31.054Z</time></trkpt><trkpt lat="44.7352833" lon="9.8087817"><ele>866.0000000000001</ele><time>2026-04-19T12:13:32.056Z</time></trkpt><trkpt lat="44.7353183" lon="9.80886"><ele>866.0</ele><time>2026-04-19T12:13:33.055Z</time></trkpt><trkpt lat="44.7353917" lon="9.80894"><ele>866.6666666666667</ele><time>2026-04-19T12:13:34.055Z</time></trkpt><trkpt lat="44.7354517" lon="9.8090033"><ele>867.3333333333334</ele><time>2026-04-19T12:13:35.055Z</time></trkpt><trkpt lat="44.735525" lon="9.8090683"><ele>868.0</ele><time>2026-04-19T12:13:36.057Z</time></trkpt><trkpt lat="44.7355867" lon="9.8091417"><ele>868.6666666666667</ele><time>2026-04-19T12:13:37.054Z</time></trkpt><trkpt lat="44.7356467" lon="9.8092733"><ele>869.3333333333334</ele><time>2026-04-19T12:13:39.056Z</time></trkpt><trkpt lat="44.7356817" lon="9.8093667"><ele>870.0</ele><time>2026-04-19T12:13:41.056Z</time></trkpt><trkpt lat="44.7357633" lon="9.80943"><ele>870.0</ele><time>2026-04-19T12:13:43.056Z</time></trkpt><trkpt lat="44.7358617" lon="9.8095217"><ele>870.0</ele><time>2026-04-19T12:13:45.055Z</time></trkpt><trkpt lat="44.7359217" lon="9.80962"><ele>870.0</ele><time>2026-04-19T12:13:47.056Z</time></trkpt><trkpt lat="44.7359533" lon="9.8097483"><ele>870.0</ele><time>2026-04-19T12:13:49.058Z</time></trkpt><trkpt lat="44.7359633" lon="9.80984"><ele>870.0</ele><time>2026-04-19T12:13:50.055Z</time></trkpt><trkpt lat="44.7359783" lon="9.809945"><ele>870.0</ele><time>2026-04-19T12:13:51.056Z</time></trkpt><trkpt lat="44.73599" lon="9.8100433"><ele>869.1666666666666</ele><time>2026-04-19T12:13:52.056Z</time></trkpt><trkpt lat="44.7359967" lon="9.8101617"><ele>868.3333333333333</ele><time>2026-04-19T12:13:53.056Z</time></trkpt><trkpt lat="44.73601" lon="9.810295"><ele>867.5</ele><time>2026-04-19T12:13:54.056Z</time></trkpt><trkpt lat="44.73601" lon="9.810415"><ele>866.6666666666666</ele><time>2026-04-19T12:13:55.055Z</time></trkpt><trkpt lat="44.736" lon="9.810525"><ele>865.8333333333333</ele><time>2026-04-19T12:13:56.055Z</time></trkpt><trkpt lat="44.73599" lon="9.8106467"><ele>865.0</ele><time>2026-04-19T12:13:57.056Z</time></trkpt><trkpt lat="44.7359817" lon="9.81076"><ele>864.9999999999999</ele><time>2026-04-19T12:13:58.055Z</time></trkpt><trkpt lat="44.73597" lon="9.8108667"><ele>865.0</ele><time>2026-04-19T12:13:59.055Z</time></trkpt><trkpt lat="44.7359333" lon="9.81097"><ele>865.0</ele><time>2026-04-19T12:14:00.055Z</time></trkpt><trkpt lat="44.7358983" lon="9.811095"><ele>865.0</ele><time>2026-04-19T12:14:01.055Z</time></trkpt><trkpt lat="44.7358683" lon="9.8112"><ele>864.9999999999999</ele><time>2026-04-19T12:14:02.055Z</time></trkpt><trkpt lat="44.73585" lon="9.8112933"><ele>865.0</ele><time>2026-04-19T12:14:03.055Z</time></trkpt><trkpt lat="44.7358433" lon="9.8115033"><ele>864.2</ele><time>2026-04-19T12:14:05.055Z</time></trkpt><trkpt lat="44.7358217" lon="9.8116283"><ele>863.4</ele><time>2026-04-19T12:14:06.056Z</time></trkpt><trkpt lat="44.7357883" lon="9.8117483"><ele>862.5999999999999</ele><time>2026-04-19T12:14:07.055Z</time></trkpt><trkpt lat="44.735745" lon="9.811855"><ele>861.8</ele><time>2026-04-19T12:14:08.055Z</time></trkpt><trkpt lat="44.73569" lon="9.8119883"><ele>861.0</ele><time>2026-04-19T12:14:09.055Z</time></trkpt><trkpt lat="44.7356283" lon="9.81209"><ele>857.8333333333334</ele><time>2026-04-19T12:14:10.055Z</time></trkpt><trkpt lat="44.7355817" lon="9.8121767"><ele>854.6666666666667</ele><time>2026-04-19T12:14:11.055Z</time></trkpt><trkpt lat="44.7355383" lon="9.8122533"><ele>851.5</ele><time>2026-04-19T12:14:12.055Z</time></trkpt><trkpt lat="44.7354333" lon="9.8123433"><ele>848.3333333333334</ele><time>2026-04-19T12:14:14.053Z</time></trkpt><trkpt lat="44.73535" lon="9.8123683"><ele>845.1666666666667</ele><time>2026-04-19T12:14:15.055Z</time></trkpt><trkpt lat="44.7352567" lon="9.8123817"><ele>842.0</ele><time>2026-04-19T12:14:16.054Z</time></trkpt><trkpt lat="44.7351767" lon="9.812385"><ele>841.8</ele><time>2026-04-19T12:14:17.056Z</time></trkpt><trkpt lat="44.735105" lon="9.8123967"><ele>841.6</ele><time>2026-04-19T12:14:18.053Z</time></trkpt><trkpt lat="44.7350117" lon="9.8124683"><ele>841.4</ele><time>2026-04-19T12:14:20.055Z</time></trkpt><trkpt lat="44.7349183" lon="9.81259"><ele>841.1999999999999</ele><time>2026-04-19T12:14:22.055Z</time></trkpt><trkpt lat="44.7348667" lon="9.8126533"><ele>841.0</ele><time>2026-04-19T12:14:23.055Z</time></trkpt><trkpt lat="44.7347983" lon="9.8127217"><ele>837.1666666666666</ele><time>2026-04-19T12:14:24.056Z</time></trkpt><trkpt lat="44.73474" lon="9.8127917"><ele>833.3333333333333</ele><time>2026-04-19T12:14:25.055Z</time></trkpt><trkpt lat="44.7346667" lon="9.812875"><ele>829.5</ele><time>2026-04-19T12:14:26.057Z</time></trkpt><trkpt lat="44.7346083" lon="9.812955"><ele>825.6666666666667</ele><time>2026-04-19T12:14:27.055Z</time></trkpt><trkpt lat="44.7345633" lon="9.81303"><ele>821.8333333333334</ele><time>2026-04-19T12:14:28.054Z</time></trkpt><trkpt lat="44.7345117" lon="9.8131"><ele>818.0</ele><time>2026-04-19T12:14:29.054Z</time></trkpt><trkpt lat="44.73446" lon="9.8131533"><ele>818.0000000000001</ele><time>2026-04-19T12:14:30.055Z</time></trkpt><trkpt lat="44.7344117" lon="9.8132133"><ele>818.0</ele><time>2026-04-19T12:14:31.054Z</time></trkpt><trkpt lat="44.7343517" lon="9.8132517"><ele>818.0</ele><time>2026-04-19T12:14:32.055Z</time></trkpt><trkpt lat="44.734285" lon="9.8133183"><ele>818.0</ele><time>2026-04-19T12:14:33.054Z</time></trkpt><trkpt lat="44.7342167" lon="9.8133917"><ele>818.0000000000001</ele><time>2026-04-19T12:14:34.053Z</time></trkpt><trkpt lat="44.7341467" lon="9.8134783"><ele>818.0</ele><time>2026-04-19T12:14:35.054Z</time></trkpt><trkpt lat="44.734085" lon="9.8135767"><ele>815.0</ele><time>2026-04-19T12:14:36.055Z</time></trkpt><trkpt lat="44.7340233" lon="9.8136717"><ele>812.0</ele><time>2026-04-19T12:14:37.054Z</time></trkpt><trkpt lat="44.733955" lon="9.8137683"><ele>809.0</ele><time>2026-04-19T12:14:38.055Z</time></trkpt><trkpt lat="44.73388" lon="9.8138483"><ele>806.0</ele><time>2026-04-19T12:14:39.056Z</time></trkpt><trkpt lat="44.7337967" lon="9.813925"><ele>803.0</ele><time>2026-04-19T12:14:40.054Z</time></trkpt><trkpt lat="44.733725" lon="9.8140033"><ele>803.0000000000001</ele><time>2026-04-19T12:14:41.055Z</time></trkpt><trkpt lat="44.7336517" lon="9.8140767"><ele>803.0</ele><time>2026-04-19T12:14:42.055Z</time></trkpt><trkpt lat="44.73359" lon="9.81414"><ele>803.0</ele><time>2026-04-19T12:14:43.055Z</time></trkpt><trkpt lat="44.733525" lon="9.814205"><ele>803.0</ele><time>2026-04-19T12:14:44.054Z</time></trkpt><trkpt lat="44.7334667" lon="9.8142617"><ele>803.0000000000001</ele><time>2026-04-19T12:14:45.053Z</time></trkpt><trkpt lat="44.7333883" lon="9.8143667"><ele>803.0</ele><time>2026-04-19T12:14:47.056Z</time></trkpt><trkpt lat="44.733315" lon="9.814475"><ele>801.1666666666667</ele><time>2026-04-19T12:14:49.053Z</time></trkpt><trkpt lat="44.7332833" lon="9.8146017"><ele>799.3333333333334</ele><time>2026-04-19T12:14:52.055Z</time></trkpt><trkpt lat="44.7333083" lon="9.8146983"><ele>797.5</ele><time>2026-04-19T12:14:55.056Z</time></trkpt><trkpt lat="44.7333483" lon="9.8147683"><ele>795.6666666666667</ele><time>2026-04-19T12:14:57.056Z</time></trkpt><trkpt lat="44.7333867" lon="9.8148967"><ele>793.8333333333334</ele><time>2026-04-19T12:14:59.056Z</time></trkpt><trkpt lat="44.7334117" lon="9.8150067"><ele>792.0</ele><time>2026-04-19T12:15:01.056Z</time></trkpt><trkpt lat="44.7334183" lon="9.8151233"><ele>788.5</ele><time>2026-04-19T12:15:04.054Z</time></trkpt><trkpt lat="44.7333567" lon="9.8151633"><ele>785.0</ele><time>2026-04-19T12:15:06.055Z</time></trkpt><trkpt lat="44.7333033" lon="9.8152283"><ele>781.5</ele><time>2026-04-19T12:15:09.056Z</time></trkpt><trkpt lat="44.7333667" lon="9.8152967"><ele>778.0</ele><time>2026-04-19T12:15:12.055Z</time></trkpt><trkpt lat="44.73346" lon="9.8154167"><ele>774.5</ele><time>2026-04-19T12:15:14.056Z</time></trkpt><trkpt lat="44.7335117" lon="9.8155117"><ele>771.0</ele><time>2026-04-19T12:15:15.055Z</time></trkpt><trkpt lat="44.7335667" lon="9.81562"><ele>769.4</ele><time>2026-04-19T12:15:16.056Z</time></trkpt><trkpt lat="44.733615" lon="9.8157333"><ele>767.8</ele><time>2026-04-19T12:15:17.056Z</time></trkpt><trkpt lat="44.7336583" lon="9.8158567"><ele>766.1999999999999</ele><time>2026-04-19T12:15:18.055Z</time></trkpt><trkpt lat="44.7336933" lon="9.8159917"><ele>764.5999999999999</ele><time>2026-04-19T12:15:19.055Z</time></trkpt><trkpt lat="44.733725" lon="9.816115"><ele>763.0</ele><time>2026-04-19T12:15:20.056Z</time></trkpt><trkpt lat="44.7337567" lon="9.81624"><ele>760.5999999999999</ele><time>2026-04-19T12:15:21.057Z</time></trkpt><trkpt lat="44.7337867" lon="9.8163717"><ele>758.1999999999999</ele><time>2026-04-19T12:15:22.054Z</time></trkpt><trkpt lat="44.7338117" lon="9.8164867"><ele>755.8</ele><time>2026-04-19T12:15:23.056Z</time></trkpt><trkpt lat="44.7338283" lon="9.8166083"><ele>753.4</ele><time>2026-04-19T12:15:24.055Z</time></trkpt><trkpt lat="44.73384" lon="9.81674"><ele>751.0</ele><time>2026-04-19T12:15:25.056Z</time></trkpt><trkpt lat="44.7338517" lon="9.8168617"><ele>749.8333333333334</ele><time>2026-04-19T12:15:26.055Z</time></trkpt><trkpt lat="44.733875" lon="9.8169833"><ele>748.6666666666667</ele><time>2026-04-19T12:15:27.054Z</time></trkpt><trkpt lat="44.7339017" lon="9.8170983"><ele>747.5</ele><time>2026-04-19T12:15:28.055Z</time></trkpt><trkpt lat="44.73393" lon="9.8171917"><ele>746.3333333333334</ele><time>2026-04-19T12:15:29.055Z</time></trkpt><trkpt lat="44.7339717" lon="9.8172683"><ele>745.1666666666666</ele><time>2026-04-19T12:15:30.055Z</time></trkpt><trkpt lat="44.734025" lon="9.8173283"><ele>744.0</ele><time>2026-04-19T12:15:31.054Z</time></trkpt><trkpt lat="44.73412" lon="9.817435"><ele>744.0</ele><time>2026-04-19T12:15:33.055Z</time></trkpt><trkpt lat="44.734165" lon="9.8175017"><ele>744.0</ele><time>2026-04-19T12:15:34.055Z</time></trkpt><trkpt lat="44.7341967" lon="9.8175817"><ele>744.0</ele><time>2026-04-19T12:15:35.055Z</time></trkpt><trkpt lat="44.7342083" lon="9.8177633"><ele>744.0</ele><time>2026-04-19T12:15:37.056Z</time></trkpt><trkpt lat="44.7341983" lon="9.8178533"><ele>744.0</ele><time>2026-04-19T12:15:38.057Z</time></trkpt><trkpt lat="44.7341933" lon="9.8180267"><ele>744.0</ele><time>2026-04-19T12:15:40.056Z</time></trkpt><trkpt lat="44.7342033" lon="9.818115"><ele>742.3333333333334</ele><time>2026-04-19T12:15:41.055Z</time></trkpt><trkpt lat="44.7342233" lon="9.8182033"><ele>740.6666666666666</ele><time>2026-04-19T12:15:42.055Z</time></trkpt><trkpt lat="44.734245" lon="9.8183733"><ele>739.0</ele><time>2026-04-19T12:15:44.056Z</time></trkpt><trkpt lat="44.7342383" lon="9.81847"><ele>737.3333333333333</ele><time>2026-04-19T12:15:45.053Z</time></trkpt><trkpt lat="44.7342267" lon="9.81857"><ele>735.6666666666666</ele><time>2026-04-19T12:15:46.054Z</time></trkpt><trkpt lat="44.7342133" lon="9.818665"><ele>734.0</ele><time>2026-04-19T12:15:47.053Z</time></trkpt><trkpt lat="44.734195" lon="9.818765"><ele>732.0</ele><time>2026-04-19T12:15:48.053Z</time></trkpt><trkpt lat="44.7341767" lon="9.8188617"><ele>730.0</ele><time>2026-04-19T12:15:49.056Z</time></trkpt><trkpt lat="44.7341583" lon="9.8190083"><ele>728.0</ele><time>2026-04-19T12:15:51.057Z</time></trkpt><trkpt lat="44.73416" lon="9.8191533"><ele>726.0</ele><time>2026-04-19T12:15:53.056Z</time></trkpt><trkpt lat="44.7341683" lon="9.8193267"><ele>724.0</ele><time>2026-04-19T12:15:55.055Z</time></trkpt><trkpt lat="44.73418" lon="9.8194267"><ele>722.3333333333334</ele><time>2026-04-19T12:15:56.056Z</time></trkpt><trkpt lat="44.7341883" lon="9.8195467"><ele>720.6666666666667</ele><time>2026-04-19T12:15:57.055Z</time></trkpt><trkpt lat="44.7341983" lon="9.819665"><ele>719.0</ele><time>2026-04-19T12:15:58.055Z</time></trkpt><trkpt lat="44.7342033" lon="9.8197767"><ele>717.3333333333334</ele><time>2026-04-19T12:15:59.056Z</time></trkpt><trkpt lat="44.7342033" lon="9.8199033"><ele>715.6666666666666</ele><time>2026-04-19T12:16:00.055Z</time></trkpt><trkpt lat="44.7341983" lon="9.8200233"><ele>714.0</ele><time>2026-04-19T12:16:01.056Z</time></trkpt><trkpt lat="44.7341917" lon="9.8201467"><ele>711.8333333333334</ele><time>2026-04-19T12:16:02.056Z</time></trkpt><trkpt lat="44.73418" lon="9.8202717"><ele>709.6666666666666</ele><time>2026-04-19T12:16:03.056Z</time></trkpt><trkpt lat="44.7341467" lon="9.8203883"><ele>707.5</ele><time>2026-04-19T12:16:04.054Z</time></trkpt><trkpt lat="44.7341167" lon="9.820495"><ele>705.3333333333333</ele><time>2026-04-19T12:16:05.055Z</time></trkpt><trkpt lat="44.7340717" lon="9.8206067"><ele>703.1666666666666</ele><time>2026-04-19T12:16:06.055Z</time></trkpt><trkpt lat="44.73404" lon="9.8207117"><ele>701.0</ele><time>2026-04-19T12:16:07.055Z</time></trkpt><trkpt lat="44.73402" lon="9.8208117"><ele>701.0</ele><time>2026-04-19T12:16:08.056Z</time></trkpt><trkpt lat="44.7340067" lon="9.8209133"><ele>701.0</ele><time>2026-04-19T12:16:09.056Z</time></trkpt><trkpt lat="44.734005" lon="9.821005"><ele>701.0</ele><time>2026-04-19T12:16:10.054Z</time></trkpt><trkpt lat="44.7340083" lon="9.8211133"><ele>701.0</ele><time>2026-04-19T12:16:11.055Z</time></trkpt><trkpt lat="44.7340083" lon="9.8212217"><ele>701.0</ele><time>2026-04-19T12:16:12.054Z</time></trkpt><trkpt lat="44.7340117" lon="9.8213233"><ele>701.0</ele><time>2026-04-19T12:16:13.054Z</time></trkpt><trkpt lat="44.7340217" lon="9.8214717"><ele>699.6666666666666</ele><time>2026-04-19T12:16:15.055Z</time></trkpt><trkpt lat="44.7340567" lon="9.821605"><ele>698.3333333333333</ele><time>2026-04-19T12:16:17.056Z</time></trkpt><trkpt lat="44.73409" lon="9.8217733"><ele>697.0</ele><time>2026-04-19T12:16:19.055Z</time></trkpt><trkpt lat="44.7341033" lon="9.8218683"><ele>695.6666666666666</ele><time>2026-04-19T12:16:20.054Z</time></trkpt><trkpt lat="44.734105" lon="9.821965"><ele>694.3333333333334</ele><time>2026-04-19T12:16:21.054Z</time></trkpt><trkpt lat="44.7340983" lon="9.8220667"><ele>693.0</ele><time>2026-04-19T12:16:22.054Z</time></trkpt><trkpt lat="44.7340917" lon="9.8221817"><ele>692.5</ele><time>2026-04-19T12:16:23.056Z</time></trkpt><trkpt lat="44.7340867" lon="9.82229"><ele>692.0</ele><time>2026-04-19T12:16:24.055Z</time></trkpt><trkpt lat="44.7340617" lon="9.8223967"><ele>691.5</ele><time>2026-04-19T12:16:25.055Z</time></trkpt><trkpt lat="44.734035" lon="9.8224883"><ele>691.0</ele><time>2026-04-19T12:16:26.055Z</time></trkpt><trkpt lat="44.733985" lon="9.8225633"><ele>690.5</ele><time>2026-04-19T12:16:27.053Z</time></trkpt><trkpt lat="44.7339217" lon="9.822655"><ele>690.0</ele><time>2026-04-19T12:16:28.054Z</time></trkpt><trkpt lat="44.7338667" lon="9.8227417"><ele>688.0</ele><time>2026-04-19T12:16:29.057Z</time></trkpt><trkpt lat="44.733815" lon="9.8228317"><ele>686.0</ele><time>2026-04-19T12:16:30.055Z</time></trkpt><trkpt lat="44.733775" lon="9.8229217"><ele>684.0</ele><time>2026-04-19T12:16:31.055Z</time></trkpt><trkpt lat="44.7337267" lon="9.8229983"><ele>682.0</ele><time>2026-04-19T12:16:32.054Z</time></trkpt><trkpt lat="44.7336783" lon="9.8230733"><ele>680.0</ele><time>2026-04-19T12:16:33.054Z</time></trkpt><trkpt lat="44.7336417" lon="9.82316"><ele>678.0</ele><time>2026-04-19T12:16:34.053Z</time></trkpt><trkpt lat="44.7336067" lon="9.8232667"><ele>678.0</ele><time>2026-04-19T12:16:35.054Z</time></trkpt><trkpt lat="44.7335783" lon="9.82337"><ele>678.0</ele><time>2026-04-19T12:16:36.056Z</time></trkpt><trkpt lat="44.7335467" lon="9.8234667"><ele>678.0</ele><time>2026-04-19T12:16:37.053Z</time></trkpt><trkpt lat="44.7335217" lon="9.8235483"><ele>678.0</ele><time>2026-04-19T12:16:38.056Z</time></trkpt><trkpt lat="44.7334333" lon="9.8236683"><ele>678.0</ele><time>2026-04-19T12:16:40.054Z</time></trkpt><trkpt lat="44.733335" lon="9.8237583"><ele>675.0</ele><time>2026-04-19T12:16:42.054Z</time></trkpt><trkpt lat="44.7332467" lon="9.8238483"><ele>672.0</ele><time>2026-04-19T12:16:44.055Z</time></trkpt><trkpt lat="44.7331717" lon="9.82399"><ele>669.0</ele><time>2026-04-19T12:16:46.052Z</time></trkpt><trkpt lat="44.7331533" lon="9.8240867"><ele>666.0</ele><time>2026-04-19T12:16:47.054Z</time></trkpt><trkpt lat="44.733095" lon="9.8242483"><ele>663.0</ele><time>2026-04-19T12:16:49.055Z</time></trkpt><trkpt lat="44.733055" lon="9.8243333"><ele>660.6666666666666</ele><time>2026-04-19T12:16:50.056Z</time></trkpt><trkpt lat="44.73301" lon="9.8244117"><ele>658.3333333333334</ele><time>2026-04-19T12:16:51.054Z</time></trkpt><trkpt lat="44.7329817" lon="9.8244917"><ele>656.0</ele><time>2026-04-19T12:16:52.056Z</time></trkpt><trkpt lat="44.7329467" lon="9.8246367"><ele>653.6666666666667</ele><time>2026-04-19T12:16:54.055Z</time></trkpt><trkpt lat="44.7329417" lon="9.8247467"><ele>651.3333333333334</ele><time>2026-04-19T12:16:56.055Z</time></trkpt><trkpt lat="44.7329368" lon="9.8248396"><ele>649.0</ele><time>2026-04-19T12:16:59.054Z</time></trkpt><trkpt lat="44.7328738" lon="9.8247191"><ele>649.0</ele><time>2026-04-19T12:17:01.055Z</time></trkpt><trkpt lat="44.7328316" lon="9.8246033"><ele>649.0</ele><time>2026-04-19T12:17:02.055Z</time></trkpt><trkpt lat="44.7328002" lon="9.8244533"><ele>649.0</ele><time>2026-04-19T12:17:03.055Z</time></trkpt><trkpt lat="44.7327717" lon="9.82428"><ele>649.0</ele><time>2026-04-19T12:17:04.055Z</time></trkpt><trkpt lat="44.7327467" lon="9.8241333"><ele>649.0</ele><time>2026-04-19T12:17:05.055Z</time></trkpt><trkpt lat="44.7327133" lon="9.8240133"><ele>648.8333333333334</ele><time>2026-04-19T12:17:06.055Z</time></trkpt><trkpt lat="44.7326767" lon="9.8239233"><ele>648.6666666666667</ele><time>2026-04-19T12:17:07.054Z</time></trkpt><trkpt lat="44.73261" lon="9.8238933"><ele>648.5</ele><time>2026-04-19T12:17:08.056Z</time></trkpt><trkpt lat="44.7325467" lon="9.8239367"><ele>648.3333333333334</ele><time>2026-04-19T12:17:09.054Z</time></trkpt><trkpt lat="44.732505" lon="9.8240217"><ele>648.1666666666666</ele><time>2026-04-19T12:17:10.055Z</time></trkpt><trkpt lat="44.7324883" lon="9.8241533"><ele>648.0</ele><time>2026-04-19T12:17:11.056Z</time></trkpt><trkpt lat="44.7324883" lon="9.8242983"><ele>645.25</ele><time>2026-04-19T12:17:12.056Z</time></trkpt><trkpt lat="44.7325283" lon="9.8244733"><ele>642.5</ele><time>2026-04-19T12:17:13.056Z</time></trkpt><trkpt lat="44.7325717" lon="9.8246417"><ele>639.75</ele><time>2026-04-19T12:17:14.056Z</time></trkpt><trkpt lat="44.7326033" lon="9.8248"><ele>637.0</ele><time>2026-04-19T12:17:15.053Z</time></trkpt><trkpt lat="44.7326283" lon="9.8249583"><ele>637.0</ele><time>2026-04-19T12:17:16.054Z</time></trkpt><trkpt lat="44.7326583" lon="9.8250967"><ele>637.0</ele><time>2026-04-19T12:17:17.053Z</time></trkpt><trkpt lat="44.73268" lon="9.8252167"><ele>637.0</ele><time>2026-04-19T12:17:18.055Z</time></trkpt><trkpt lat="44.7326883" lon="9.82533"><ele>637.0</ele><time>2026-04-19T12:17:19.055Z</time></trkpt><trkpt lat="44.7326867" lon="9.8254467"><ele>637.0</ele><time>2026-04-19T12:17:20.055Z</time></trkpt><trkpt lat="44.73266" lon="9.8255583"><ele>637.0</ele><time>2026-04-19T12:17:21.054Z</time></trkpt><trkpt lat="44.73263" lon="9.82567"><ele>635.5</ele><time>2026-04-19T12:17:22.056Z</time></trkpt><trkpt lat="44.732615" lon="9.8257817"><ele>634.0</ele><time>2026-04-19T12:17:23.056Z</time></trkpt><trkpt lat="44.7326083" lon="9.8258967"><ele>632.5</ele><time>2026-04-19T12:17:24.054Z</time></trkpt><trkpt lat="44.732625" lon="9.826015"><ele>631.0</ele><time>2026-04-19T12:17:25.053Z</time></trkpt><trkpt lat="44.7326517" lon="9.82613"><ele>629.5</ele><time>2026-04-19T12:17:26.057Z</time></trkpt><trkpt lat="44.73267" lon="9.8262417"><ele>628.0</ele><time>2026-04-19T12:17:27.055Z</time></trkpt><trkpt lat="44.7326817" lon="9.8263433"><ele>626.4</ele><time>2026-04-19T12:17:28.056Z</time></trkpt><trkpt lat="44.732675" lon="9.8264967"><ele>624.8</ele><time>2026-04-19T12:17:30.056Z</time></trkpt><trkpt lat="44.7326367" lon="9.8266217"><ele>623.2</ele><time>2026-04-19T12:17:32.055Z</time></trkpt><trkpt lat="44.7325983" lon="9.8267683"><ele>621.6</ele><time>2026-04-19T12:17:34.056Z</time></trkpt><trkpt lat="44.732555" lon="9.8269183"><ele>620.0</ele><time>2026-04-19T12:17:36.055Z</time></trkpt><trkpt lat="44.7324933" lon="9.826995"><ele>620.0</ele><time>2026-04-19T12:17:39.055Z</time></trkpt><trkpt lat="44.7324067" lon="9.8269533"><ele>620.0</ele><time>2026-04-19T12:17:41.057Z</time></trkpt><trkpt lat="44.7323517" lon="9.8268933"><ele>620.0</ele><time>2026-04-19T12:17:42.055Z</time></trkpt><trkpt lat="44.7322833" lon="9.8268283"><ele>620.0</ele><time>2026-04-19T12:17:43.052Z</time></trkpt><trkpt lat="44.7322033" lon="9.8267483"><ele>620.0</ele><time>2026-04-19T12:17:44.054Z</time></trkpt><trkpt lat="44.7321367" lon="9.8266983"><ele>620.0</ele><time>2026-04-19T12:17:45.052Z</time></trkpt><trkpt lat="44.73206" lon="9.8266533"><ele>620.0</ele><time>2026-04-19T12:17:46.053Z</time></trkpt><trkpt lat="44.7319867" lon="9.8266183"><ele>620.0</ele><time>2026-04-19T12:17:47.052Z</time></trkpt><trkpt lat="44.7319167" lon="9.826585"><ele>620.0</ele><time>2026-04-19T12:17:48.055Z</time></trkpt><trkpt lat="44.731855" lon="9.82654"><ele>620.0</ele><time>2026-04-19T12:17:49.055Z</time></trkpt><trkpt lat="44.731785" lon="9.8264483"><ele>620.0</ele><time>2026-04-19T12:17:50.054Z</time></trkpt><trkpt lat="44.7317283" lon="9.8263483"><ele>620.0</ele><time>2026-04-19T12:17:51.055Z</time></trkpt><trkpt lat="44.7316767" lon="9.8262467"><ele>618.6666666666666</ele><time>2026-04-19T12:17:52.055Z</time></trkpt><trkpt lat="44.731625" lon="9.8261567"><ele>617.3333333333333</ele><time>2026-04-19T12:17:53.055Z</time></trkpt><trkpt lat="44.7315633" lon="9.8260967"><ele>616.0</ele><time>2026-04-19T12:17:54.054Z</time></trkpt><trkpt lat="44.731485" lon="9.8260567"><ele>614.6666666666666</ele><time>2026-04-19T12:17:55.055Z</time></trkpt><trkpt lat="44.73139" lon="9.8260367"><ele>613.3333333333334</ele><time>2026-04-19T12:17:56.055Z</time></trkpt><trkpt lat="44.7312883" lon="9.826005"><ele>612.0</ele><time>2026-04-19T12:17:57.055Z</time></trkpt><trkpt lat="44.731205" lon="9.825955"><ele>612.0</ele><time>2026-04-19T12:17:58.055Z</time></trkpt><trkpt lat="44.7311333" lon="9.825885"><ele>612.0</ele><time>2026-04-19T12:17:59.055Z</time></trkpt><trkpt lat="44.73107" lon="9.8258017"><ele>612.0</ele><time>2026-04-19T12:18:00.055Z</time></trkpt><trkpt lat="44.731015" lon="9.8257083"><ele>612.0</ele><time>2026-04-19T12:18:01.055Z</time></trkpt><trkpt lat="44.7309617" lon="9.825615"><ele>612.0</ele><time>2026-04-19T12:18:02.055Z</time></trkpt><trkpt lat="44.73091" lon="9.825525"><ele>612.0</ele><time>2026-04-19T12:18:03.054Z</time></trkpt><trkpt lat="44.730835" lon="9.82546"><ele>609.3333333333334</ele><time>2026-04-19T12:18:04.054Z</time></trkpt><trkpt lat="44.73075" lon="9.8254133"><ele>606.6666666666666</ele><time>2026-04-19T12:18:05.055Z</time></trkpt><trkpt lat="44.7306667" lon="9.8253733"><ele>604.0</ele><time>2026-04-19T12:18:06.054Z</time></trkpt><trkpt lat="44.73059" lon="9.8253267"><ele>601.3333333333333</ele><time>2026-04-19T12:18:07.055Z</time></trkpt><trkpt lat="44.7305183" lon="9.8252733"><ele>598.6666666666666</ele><time>2026-04-19T12:18:08.055Z</time></trkpt><trkpt lat="44.730455" lon="9.825215"><ele>596.0</ele><time>2026-04-19T12:18:09.055Z</time></trkpt><trkpt lat="44.7304" lon="9.8251467"><ele>597.1666666666666</ele><time>2026-04-19T12:18:10.057Z</time></trkpt><trkpt lat="44.7303517" lon="9.82508"><ele>598.3333333333333</ele><time>2026-04-19T12:18:11.056Z</time></trkpt><trkpt lat="44.7303033" lon="9.8250183"><ele>599.5</ele><time>2026-04-19T12:18:12.055Z</time></trkpt><trkpt lat="44.7301967" lon="9.8249633"><ele>600.6666666666666</ele><time>2026-04-19T12:18:14.053Z</time></trkpt><trkpt lat="44.7300667" lon="9.82499"><ele>601.8333333333334</ele><time>2026-04-19T12:18:16.056Z</time></trkpt><trkpt lat="44.7300017" lon="9.8250317"><ele>603.0</ele><time>2026-04-19T12:18:17.054Z</time></trkpt><trkpt lat="44.7299417" lon="9.8250883"><ele>602.2857142857143</ele><time>2026-04-19T12:18:18.054Z</time></trkpt><trkpt lat="44.7298917" lon="9.825155"><ele>601.5714285714286</ele><time>2026-04-19T12:18:19.053Z</time></trkpt><trkpt lat="44.7298617" lon="9.8252383"><ele>600.8571428571429</ele><time>2026-04-19T12:18:20.054Z</time></trkpt><trkpt lat="44.7298217" lon="9.8253167"><ele>600.1428571428571</ele><time>2026-04-19T12:18:21.054Z</time></trkpt><trkpt lat="44.7297783" lon="9.8253867"><ele>599.4285714285714</ele><time>2026-04-19T12:18:22.054Z</time></trkpt><trkpt lat="44.7297317" lon="9.825455"><ele>598.7142857142857</ele><time>2026-04-19T12:18:23.053Z</time></trkpt><trkpt lat="44.7296783" lon="9.8255233"><ele>598.0</ele><time>2026-04-19T12:18:24.055Z</time></trkpt><trkpt lat="44.729605" lon="9.8256217"><ele>598.0</ele><time>2026-04-19T12:18:25.054Z</time></trkpt><trkpt lat="44.7295483" lon="9.8257017"><ele>598.0</ele><time>2026-04-19T12:18:26.053Z</time></trkpt><trkpt lat="44.7294817" lon="9.8257683"><ele>598.0</ele><time>2026-04-19T12:18:27.054Z</time></trkpt><trkpt lat="44.7294017" lon="9.825835"><ele>598.0</ele><time>2026-04-19T12:18:28.054Z</time></trkpt><trkpt lat="44.72934" lon="9.8258917"><ele>598.0</ele><time>2026-04-19T12:18:29.054Z</time></trkpt><trkpt lat="44.7292883" lon="9.825965"><ele>598.0</ele><time>2026-04-19T12:18:30.054Z</time></trkpt><trkpt lat="44.7292117" lon="9.8260867"><ele>603.6</ele><time>2026-04-19T12:18:32.054Z</time></trkpt><trkpt lat="44.7291667" lon="9.826195"><ele>609.1999999999999</ele><time>2026-04-19T12:18:34.054Z</time></trkpt><trkpt lat="44.729125" lon="9.8263467"><ele>614.8</ele><time>2026-04-19T12:18:36.054Z</time></trkpt><trkpt lat="44.7291483" lon="9.826465"><ele>620.4</ele><time>2026-04-19T12:18:37.054Z</time></trkpt><trkpt lat="44.7291717" lon="9.8265833"><ele>626.0</ele><time>2026-04-19T12:18:38.054Z</time></trkpt><trkpt lat="44.729195" lon="9.8267267"><ele>624.5</ele><time>2026-04-19T12:18:39.055Z</time></trkpt><trkpt lat="44.7292117" lon="9.82685"><ele>623.0</ele><time>2026-04-19T12:18:40.053Z</time></trkpt><trkpt lat="44.72923" lon="9.8269683"><ele>621.5</ele><time>2026-04-19T12:18:41.055Z</time></trkpt><trkpt lat="44.7292533" lon="9.8270767"><ele>620.0</ele><time>2026-04-19T12:18:42.055Z</time></trkpt><trkpt lat="44.7292733" lon="9.8271667"><ele>618.5</ele><time>2026-04-19T12:18:43.053Z</time></trkpt><trkpt lat="44.729275" lon="9.8273283"><ele>617.0</ele><time>2026-04-19T12:18:45.055Z</time></trkpt><trkpt lat="44.7292383" lon="9.8274533"><ele>617.0</ele><time>2026-04-19T12:18:47.055Z</time></trkpt><trkpt lat="44.7291633" lon="9.8275567"><ele>617.0</ele><time>2026-04-19T12:18:49.054Z</time></trkpt><trkpt lat="44.7290767" lon="9.8276533"><ele>617.0</ele><time>2026-04-19T12:18:51.054Z</time></trkpt><trkpt lat="44.7289883" lon="9.8277717"><ele>617.0</ele><time>2026-04-19T12:18:53.055Z</time></trkpt><trkpt lat="44.7289267" lon="9.82789"><ele>617.0</ele><time>2026-04-19T12:18:55.054Z</time></trkpt><trkpt lat="44.7288833" lon="9.8279733"><ele>616.7142857142858</ele><time>2026-04-19T12:18:57.055Z</time></trkpt><trkpt lat="44.7288783" lon="9.8280867"><ele>616.4285714285713</ele><time>2026-04-19T12:19:00.056Z</time></trkpt><trkpt lat="44.7288733" lon="9.8282233"><ele>616.1428571428571</ele><time>2026-04-19T12:19:02.057Z</time></trkpt><trkpt lat="44.7288617" lon="9.8283217"><ele>615.8571428571429</ele><time>2026-04-19T12:19:03.055Z</time></trkpt><trkpt lat="44.7288533" lon="9.8284117"><ele>615.5714285714287</ele><time>2026-04-19T12:19:04.057Z</time></trkpt><trkpt lat="44.728855" lon="9.8285033"><ele>615.2857142857142</ele><time>2026-04-19T12:19:05.055Z</time></trkpt><trkpt lat="44.72886" lon="9.8286"><ele>615.0</ele><time>2026-04-19T12:19:06.056Z</time></trkpt><trkpt lat="44.72887" lon="9.82871"><ele>616.4</ele><time>2026-04-19T12:19:07.057Z</time></trkpt><trkpt lat="44.72886" lon="9.8288233"><ele>617.8</ele><time>2026-04-19T12:19:08.056Z</time></trkpt><trkpt lat="44.728855" lon="9.8289517"><ele>619.2</ele><time>2026-04-19T12:19:09.057Z</time></trkpt><trkpt lat="44.7288367" lon="9.8290883"><ele>620.6</ele><time>2026-04-19T12:19:10.056Z</time></trkpt><trkpt lat="44.7288183" lon="9.8292217"><ele>622.0</ele><time>2026-04-19T12:19:11.055Z</time></trkpt><trkpt lat="44.7288" lon="9.8293483"><ele>622.8333333333334</ele><time>2026-04-19T12:19:12.056Z</time></trkpt><trkpt lat="44.728755" lon="9.8294467"><ele>623.6666666666667</ele><time>2026-04-19T12:19:13.055Z</time></trkpt><trkpt lat="44.72871" lon="9.8295217"><ele>624.5</ele><time>2026-04-19T12:19:14.056Z</time></trkpt><trkpt lat="44.7286567" lon="9.829595"><ele>625.3333333333334</ele><time>2026-04-19T12:19:17.057Z</time></trkpt><trkpt lat="44.7286533" lon="9.8296917"><ele>626.1666666666666</ele><time>2026-04-19T12:19:20.056Z</time></trkpt><trkpt lat="44.7286517" lon="9.8298283"><ele>627.0</ele><time>2026-04-19T12:19:23.056Z</time></trkpt><trkpt lat="44.7286717" lon="9.8299717"><ele>627.0</ele><time>2026-04-19T12:19:25.055Z</time></trkpt><trkpt lat="44.7286617" lon="9.830105"><ele>627.0</ele><time>2026-04-19T12:19:26.057Z</time></trkpt><trkpt lat="44.7286367" lon="9.8302383"><ele>627.0</ele><time>2026-04-19T12:19:27.056Z</time></trkpt><trkpt lat="44.7286133" lon="9.8303867"><ele>627.0</ele><time>2026-04-19T12:19:28.056Z</time></trkpt><trkpt lat="44.7285783" lon="9.83053"><ele>627.0</ele><time>2026-04-19T12:19:29.055Z</time></trkpt><trkpt lat="44.7285317" lon="9.8306617"><ele>631.1666666666666</ele><time>2026-04-19T12:19:30.055Z</time></trkpt><trkpt lat="44.72852" lon="9.830755"><ele>635.3333333333334</ele><time>2026-04-19T12:19:31.056Z</time></trkpt><trkpt lat="44.7284817" lon="9.8308517"><ele>639.5</ele><time>2026-04-19T12:19:32.057Z</time></trkpt><trkpt lat="44.7284133" lon="9.8309067"><ele>643.6666666666667</ele><time>2026-04-19T12:19:34.055Z</time></trkpt><trkpt lat="44.7283383" lon="9.8309417"><ele>647.8333333333334</ele><time>2026-04-19T12:19:36.056Z</time></trkpt><trkpt lat="44.72825" lon="9.8309917"><ele>652.0</ele><time>2026-04-19T12:19:38.056Z</time></trkpt><trkpt lat="44.728165" lon="9.831075"><ele>652.1666666666667</ele><time>2026-04-19T12:19:40.055Z</time></trkpt><trkpt lat="44.7281033" lon="9.8311817"><ele>652.3333333333334</ele><time>2026-04-19T12:19:42.055Z</time></trkpt><trkpt lat="44.728055" lon="9.83124"><ele>652.5</ele><time>2026-04-19T12:19:43.057Z</time></trkpt><trkpt lat="44.7279917" lon="9.8312917"><ele>652.6666666666666</ele><time>2026-04-19T12:19:44.056Z</time></trkpt><trkpt lat="44.7279333" lon="9.8313467"><ele>652.8333333333333</ele><time>2026-04-19T12:19:45.056Z</time></trkpt><trkpt lat="44.7278343" lon="9.8314772"><ele>653.0</ele><time>2026-04-19T12:19:47.057Z</time></trkpt><trkpt lat="44.7277872" lon="9.8315541"><ele>653.0</ele><time>2026-04-19T12:19:48.056Z</time></trkpt><trkpt lat="44.7277606" lon="9.8316469"><ele>653.0</ele><time>2026-04-19T12:19:49.056Z</time></trkpt><trkpt lat="44.727728" lon="9.8317326"><ele>653.0</ele><time>2026-04-19T12:19:50.056Z</time></trkpt><trkpt lat="44.7276966" lon="9.8318122"><ele>653.0</ele><time>2026-04-19T12:19:51.056Z</time></trkpt><trkpt lat="44.7276336" lon="9.8319578"><ele>653.0</ele><time>2026-04-19T12:19:53.055Z</time></trkpt><trkpt lat="44.7275722" lon="9.832107"><ele>653.0</ele><time>2026-04-19T12:19:55.056Z</time></trkpt><trkpt lat="44.7275468" lon="9.8321892"><ele>654.0</ele><time>2026-04-19T12:19:56.057Z</time></trkpt><trkpt lat="44.727493" lon="9.8323515"><ele>655.0</ele><time>2026-04-19T12:19:58.055Z</time></trkpt><trkpt lat="44.7274807" lon="9.8324499"><ele>656.0</ele><time>2026-04-19T12:19:59.055Z</time></trkpt><trkpt lat="44.7274784" lon="9.8325743"><ele>657.0</ele><time>2026-04-19T12:20:00.056Z</time></trkpt><trkpt lat="44.727464" lon="9.8327035"><ele>658.0</ele><time>2026-04-19T12:20:01.056Z</time></trkpt><trkpt lat="44.7274353" lon="9.8328318"><ele>658.0</ele><time>2026-04-19T12:20:02.056Z</time></trkpt><trkpt lat="44.7274032" lon="9.8329559"><ele>658.0</ele><time>2026-04-19T12:20:03.055Z</time></trkpt><trkpt lat="44.7273615" lon="9.8330675"><ele>658.0</ele><time>2026-04-19T12:20:04.056Z</time></trkpt><trkpt lat="44.7273237" lon="9.8331748"><ele>658.0</ele><time>2026-04-19T12:20:05.055Z</time></trkpt><trkpt lat="44.7273003" lon="9.8332771"><ele>658.0</ele><time>2026-04-19T12:20:06.056Z</time></trkpt><trkpt lat="44.7272722" lon="9.8334111"><ele>658.0</ele><time>2026-04-19T12:20:08.057Z</time></trkpt><trkpt lat="44.7272542" lon="9.8335294"><ele>657.8333333333334</ele><time>2026-04-19T12:20:10.056Z</time></trkpt><trkpt lat="44.7272511" lon="9.8336381"><ele>657.6666666666667</ele><time>2026-04-19T12:20:12.055Z</time></trkpt><trkpt lat="44.7273077" lon="9.8337637"><ele>657.5</ele><time>2026-04-19T12:20:14.056Z</time></trkpt><trkpt lat="44.7273525" lon="9.8338524"><ele>657.3333333333334</ele><time>2026-04-19T12:20:15.056Z</time></trkpt><trkpt lat="44.7273947" lon="9.8339322"><ele>657.1666666666666</ele><time>2026-04-19T12:20:16.055Z</time></trkpt><trkpt lat="44.7274498" lon="9.834005"><ele>657.0</ele><time>2026-04-19T12:20:17.056Z</time></trkpt><trkpt lat="44.7275108" lon="9.8341141"><ele>657.0</ele><time>2026-04-19T12:20:19.057Z</time></trkpt><trkpt lat="44.7275425" lon="9.8342499"><ele>657.0</ele><time>2026-04-19T12:20:21.055Z</time></trkpt><trkpt lat="44.7275564" lon="9.8343487"><ele>657.0</ele><time>2026-04-19T12:20:22.055Z</time></trkpt><trkpt lat="44.7275838" lon="9.8345026"><ele>657.0</ele><time>2026-04-19T12:20:23.057Z</time></trkpt><trkpt lat="44.7276052" lon="9.8346853"><ele>657.0</ele><time>2026-04-19T12:20:24.056Z</time></trkpt><trkpt lat="44.7276117" lon="9.8348403"><ele>657.0</ele><time>2026-04-19T12:20:25.057Z</time></trkpt><trkpt lat="44.7276159" lon="9.8349906"><ele>657.0</ele><time>2026-04-19T12:20:26.056Z</time></trkpt><trkpt lat="44.7276073" lon="9.8351372"><ele>657.0</ele><time>2026-04-19T12:20:27.056Z</time></trkpt><trkpt lat="44.7276217" lon="9.8352786"><ele>657.0</ele><time>2026-04-19T12:20:28.055Z</time></trkpt><trkpt lat="44.7276218" lon="9.8354024"><ele>657.0</ele><time>2026-04-19T12:20:29.056Z</time></trkpt><trkpt lat="44.7276008" lon="9.8355212"><ele>657.6666666666666</ele><time>2026-04-19T12:20:30.055Z</time></trkpt><trkpt lat="44.727563" lon="9.8356329"><ele>658.3333333333334</ele><time>2026-04-19T12:20:31.055Z</time></trkpt><trkpt lat="44.7275268" lon="9.8357425"><ele>659.0</ele><time>2026-04-19T12:20:32.057Z</time></trkpt><trkpt lat="44.7274875" lon="9.835844"><ele>659.6666666666667</ele><time>2026-04-19T12:20:33.056Z</time></trkpt><trkpt lat="44.7274556" lon="9.8359409"><ele>660.3333333333334</ele><time>2026-04-19T12:20:34.056Z</time></trkpt><trkpt lat="44.7274321" lon="9.8360294"><ele>661.0</ele><time>2026-04-19T12:20:35.056Z</time></trkpt><trkpt lat="44.7273962" lon="9.8361726"><ele>662.0</ele><time>2026-04-19T12:20:37.056Z</time></trkpt><trkpt lat="44.7274527" lon="9.8362374"><ele>663.0</ele><time>2026-04-19T12:20:39.056Z</time></trkpt><trkpt lat="44.7275706" lon="9.8363071"><ele>664.0</ele><time>2026-04-19T12:20:41.055Z</time></trkpt><trkpt lat="44.7276408" lon="9.8364491"><ele>665.0</ele><time>2026-04-19T12:20:43.056Z</time></trkpt><trkpt lat="44.727682" lon="9.8365673"><ele>666.0</ele><time>2026-04-19T12:20:44.057Z</time></trkpt><trkpt lat="44.7277102" lon="9.8367017"><ele>662.1999999999999</ele><time>2026-04-19T12:20:45.056Z</time></trkpt><trkpt lat="44.7277271" lon="9.8368371"><ele>658.4</ele><time>2026-04-19T12:20:46.057Z</time></trkpt><trkpt lat="44.7277475" lon="9.8369683"><ele>654.6</ele><time>2026-04-19T12:20:47.057Z</time></trkpt><trkpt lat="44.727777" lon="9.8371019"><ele>650.8</ele><time>2026-04-19T12:20:48.055Z</time></trkpt><trkpt lat="44.7278285" lon="9.8372398"><ele>647.0</ele><time>2026-04-19T12:20:49.056Z</time></trkpt><trkpt lat="44.7278897" lon="9.837381"><ele>647.0</ele><time>2026-04-19T12:20:50.057Z</time></trkpt><trkpt lat="44.727952" lon="9.8375394"><ele>647.0</ele><time>2026-04-19T12:20:51.056Z</time></trkpt><trkpt lat="44.728015" lon="9.837715"><ele>647.0</ele><time>2026-04-19T12:20:52.056Z</time></trkpt><trkpt lat="44.728085" lon="9.8378733"><ele>647.0</ele><time>2026-04-19T12:20:53.055Z</time></trkpt><trkpt lat="44.7281533" lon="9.8380317"><ele>648.5</ele><time>2026-04-19T12:20:54.055Z</time></trkpt><trkpt lat="44.72823" lon="9.8381817"><ele>650.0</ele><time>2026-04-19T12:20:55.057Z</time></trkpt><trkpt lat="44.7283083" lon="9.8383183"><ele>651.5</ele><time>2026-04-19T12:20:56.054Z</time></trkpt><trkpt lat="44.72839" lon="9.8384533"><ele>653.0</ele><time>2026-04-19T12:20:57.057Z</time></trkpt><trkpt lat="44.72847" lon="9.8385817"><ele>649.75</ele><time>2026-04-19T12:20:58.056Z</time></trkpt><trkpt lat="44.7285633" lon="9.8386883"><ele>646.5</ele><time>2026-04-19T12:20:59.056Z</time></trkpt><trkpt lat="44.72866" lon="9.83878"><ele>643.25</ele><time>2026-04-19T12:21:00.056Z</time></trkpt><trkpt lat="44.7287583" lon="9.8388517"><ele>640.0</ele><time>2026-04-19T12:21:01.055Z</time></trkpt><trkpt lat="44.7288517" lon="9.8389233"><ele>640.0</ele><time>2026-04-19T12:21:02.057Z</time></trkpt><trkpt lat="44.7289383" lon="9.8389983"><ele>640.0</ele><time>2026-04-19T12:21:03.055Z</time></trkpt><trkpt lat="44.7290217" lon="9.83909"><ele>640.0</ele><time>2026-04-19T12:21:04.056Z</time></trkpt><trkpt lat="44.7290767" lon="9.8391833"><ele>640.0</ele><time>2026-04-19T12:21:05.056Z</time></trkpt><trkpt lat="44.7291233" lon="9.83927"><ele>640.0</ele><time>2026-04-19T12:21:06.055Z</time></trkpt><trkpt lat="44.7291733" lon="9.8394083"><ele>642.1666666666667</ele><time>2026-04-19T12:21:08.056Z</time></trkpt><trkpt lat="44.7292" lon="9.8395283"><ele>644.3333333333334</ele><time>2026-04-19T12:21:10.056Z</time></trkpt><trkpt lat="44.7291783" lon="9.839645"><ele>646.5</ele><time>2026-04-19T12:21:12.055Z</time></trkpt><trkpt lat="44.729155" lon="9.8397333"><ele>648.6666666666666</ele><time>2026-04-19T12:21:14.054Z</time></trkpt><trkpt lat="44.7292317" lon="9.8398067"><ele>650.8333333333333</ele><time>2026-04-19T12:21:17.054Z</time></trkpt><trkpt lat="44.7292917" lon="9.839835"><ele>653.0</ele><time>2026-04-19T12:21:18.057Z</time></trkpt><trkpt lat="44.7293667" lon="9.8398833"><ele>652.1428571428572</ele><time>2026-04-19T12:21:19.054Z</time></trkpt><trkpt lat="44.7294283" lon="9.839945"><ele>651.2857142857143</ele><time>2026-04-19T12:21:20.057Z</time></trkpt><trkpt lat="44.72948" lon="9.8400117"><ele>650.4285714285714</ele><time>2026-04-19T12:21:21.056Z</time></trkpt><trkpt lat="44.7295217" lon="9.840095"><ele>649.5714285714287</ele><time>2026-04-19T12:21:22.057Z</time></trkpt><trkpt lat="44.7295583" lon="9.840175"><ele>648.7142857142858</ele><time>2026-04-19T12:21:23.057Z</time></trkpt><trkpt lat="44.7296033" lon="9.840265"><ele>647.8571428571429</ele><time>2026-04-19T12:21:24.056Z</time></trkpt><trkpt lat="44.7296483" lon="9.8403633"><ele>647.0</ele><time>2026-04-19T12:21:25.056Z</time></trkpt><trkpt lat="44.7297033" lon="9.8404617"><ele>647.0</ele><time>2026-04-19T12:21:26.056Z</time></trkpt><trkpt lat="44.729745" lon="9.8405433"><ele>647.0</ele><time>2026-04-19T12:21:27.055Z</time></trkpt><trkpt lat="44.7297767" lon="9.8406217"><ele>647.0</ele><time>2026-04-19T12:21:28.056Z</time></trkpt><trkpt lat="44.7297933" lon="9.8407133"><ele>647.0</ele><time>2026-04-19T12:21:29.056Z</time></trkpt><trkpt lat="44.7298183" lon="9.840795"><ele>647.0</ele><time>2026-04-19T12:21:30.055Z</time></trkpt><trkpt lat="44.72983" lon="9.8408933"><ele>647.0</ele><time>2026-04-19T12:21:31.057Z</time></trkpt><trkpt lat="44.729835" lon="9.841025"><ele>647.0</ele><time>2026-04-19T12:21:32.055Z</time></trkpt><trkpt lat="44.7298133" lon="9.8411667"><ele>648.3333333333333</ele><time>2026-04-19T12:21:33.056Z</time></trkpt><trkpt lat="44.7297967" lon="9.8412967"><ele>649.6666666666666</ele><time>2026-04-19T12:21:34.054Z</time></trkpt><trkpt lat="44.729785" lon="9.8414183"><ele>651.0</ele><time>2026-04-19T12:21:35.055Z</time></trkpt><trkpt lat="44.72975" lon="9.8414933"><ele>652.3333333333334</ele><time>2026-04-19T12:21:37.055Z</time></trkpt><trkpt lat="44.729675" lon="9.8415167"><ele>653.6666666666667</ele><time>2026-04-19T12:21:40.055Z</time></trkpt><trkpt lat="44.72957" lon="9.8414683"><ele>655.0</ele><time>2026-04-19T12:21:42.057Z</time></trkpt><trkpt lat="44.7294733" lon="9.8414267"><ele>658.5</ele><time>2026-04-19T12:21:44.055Z</time></trkpt><trkpt lat="44.7293783" lon="9.8414433"><ele>662.0</ele><time>2026-04-19T12:21:46.056Z</time></trkpt><trkpt lat="44.7292683" lon="9.84144"><ele>665.5</ele><time>2026-04-19T12:21:48.055Z</time></trkpt><trkpt lat="44.7292017" lon="9.8414733"><ele>669.0</ele><time>2026-04-19T12:21:50.054Z</time></trkpt><trkpt lat="44.72915" lon="9.8415533"><ele>672.5</ele><time>2026-04-19T12:22:14.054Z</time></trkpt><trkpt lat="44.7290883" lon="9.841625"><ele>676.0</ele><time>2026-04-19T12:22:15.055Z</time></trkpt><trkpt lat="44.7290067" lon="9.8417067"><ele>677.0</ele><time>2026-04-19T12:22:16.053Z</time></trkpt><trkpt lat="44.7289183" lon="9.841805"><ele>678.0</ele><time>2026-04-19T12:22:17.055Z</time></trkpt><trkpt lat="44.7288317" lon="9.8419133"><ele>679.0</ele><time>2026-04-19T12:22:18.055Z</time></trkpt><trkpt lat="44.7287667" lon="9.8420033"><ele>680.0</ele><time>2026-04-19T12:22:19.054Z</time></trkpt><trkpt lat="44.7287083" lon="9.8420783"><ele>681.0</ele><time>2026-04-19T12:22:20.054Z</time></trkpt><trkpt lat="44.7286317" lon="9.8421917"><ele>681.0</ele><time>2026-04-19T12:22:22.053Z</time></trkpt><trkpt lat="44.728565" lon="9.8422917"><ele>681.0</ele><time>2026-04-19T12:22:24.056Z</time></trkpt><trkpt lat="44.728495" lon="9.8423867"><ele>681.0</ele><time>2026-04-19T12:22:26.056Z</time></trkpt><trkpt lat="44.72842" lon="9.84246"><ele>681.0</ele><time>2026-04-19T12:22:28.056Z</time></trkpt><trkpt lat="44.7283317" lon="9.84254"><ele>681.0</ele><time>2026-04-19T12:22:30.056Z</time></trkpt><trkpt lat="44.7282483" lon="9.84265"><ele>684.5</ele><time>2026-04-19T12:22:32.055Z</time></trkpt><trkpt lat="44.7282017" lon="9.8427783"><ele>688.0</ele><time>2026-04-19T12:22:34.058Z</time></trkpt><trkpt lat="44.7281383" lon="9.842875"><ele>691.5</ele><time>2026-04-19T12:22:36.056Z</time></trkpt><trkpt lat="44.728075" lon="9.8429333"><ele>695.0</ele><time>2026-04-19T12:22:38.055Z</time></trkpt><trkpt lat="44.728005" lon="9.8430217"><ele>698.5</ele><time>2026-04-19T12:22:40.056Z</time></trkpt><trkpt lat="44.7279767" lon="9.8431017"><ele>702.0</ele><time>2026-04-19T12:22:41.056Z</time></trkpt><trkpt lat="44.727905" lon="9.8432617"><ele>702.0</ele><time>2026-04-19T12:22:43.056Z</time></trkpt><trkpt lat="44.72785" lon="9.8434417"><ele>702.0</ele><time>2026-04-19T12:22:45.056Z</time></trkpt><trkpt lat="44.7278233" lon="9.8435483"><ele>702.0</ele><time>2026-04-19T12:22:46.055Z</time></trkpt><trkpt lat="44.7278" lon="9.8436433"><ele>702.0</ele><time>2026-04-19T12:22:47.056Z</time></trkpt><trkpt lat="44.7277467" lon="9.8437917"><ele>702.0</ele><time>2026-04-19T12:22:49.055Z</time></trkpt><trkpt lat="44.7276717" lon="9.843865"><ele>704.4000000000001</ele><time>2026-04-19T12:22:51.055Z</time></trkpt><trkpt lat="44.727575" lon="9.8438767"><ele>706.8000000000001</ele><time>2026-04-19T12:22:53.056Z</time></trkpt><trkpt lat="44.72745" lon="9.8438883"><ele>709.2</ele><time>2026-04-19T12:22:55.056Z</time></trkpt><trkpt lat="44.7273333" lon="9.8438967"><ele>711.6</ele><time>2026-04-19T12:22:57.055Z</time></trkpt><trkpt lat="44.7272283" lon="9.843925"><ele>714.0</ele><time>2026-04-19T12:22:59.054Z</time></trkpt><trkpt lat="44.7271283" lon="9.843975"><ele>714.0</ele><time>2026-04-19T12:23:01.054Z</time></trkpt><trkpt lat="44.727035" lon="9.844005"><ele>714.0</ele><time>2026-04-19T12:23:03.056Z</time></trkpt><trkpt lat="44.726955" lon="9.8440417"><ele>714.0</ele><time>2026-04-19T12:23:05.055Z</time></trkpt><trkpt lat="44.72685" lon="9.844105"><ele>714.0</ele><time>2026-04-19T12:23:07.055Z</time></trkpt><trkpt lat="44.7267467" lon="9.844155"><ele>714.0</ele><time>2026-04-19T12:23:09.056Z</time></trkpt><trkpt lat="44.7266383" lon="9.8442017"><ele>715.8333333333334</ele><time>2026-04-19T12:23:11.053Z</time></trkpt><trkpt lat="44.7265167" lon="9.8442267"><ele>717.6666666666666</ele><time>2026-04-19T12:23:13.054Z</time></trkpt><trkpt lat="44.7264467" lon="9.8442333"><ele>719.5</ele><time>2026-04-19T12:23:14.054Z</time></trkpt><trkpt lat="44.7263717" lon="9.8442533"><ele>721.3333333333333</ele><time>2026-04-19T12:23:15.052Z</time></trkpt><trkpt lat="44.7263033" lon="9.8442917"><ele>723.1666666666666</ele><time>2026-04-19T12:23:16.055Z</time></trkpt><trkpt lat="44.7262467" lon="9.844355"><ele>725.0</ele><time>2026-04-19T12:23:17.057Z</time></trkpt><trkpt lat="44.7262117" lon="9.844445"><ele>725.0</ele><time>2026-04-19T12:23:18.055Z</time></trkpt><trkpt lat="44.726195" lon="9.84454"><ele>725.0</ele><time>2026-04-19T12:23:19.056Z</time></trkpt><trkpt lat="44.7261783" lon="9.8446417"><ele>725.0</ele><time>2026-04-19T12:23:20.056Z</time></trkpt><trkpt lat="44.7261583" lon="9.8447417"><ele>725.0</ele><time>2026-04-19T12:23:21.056Z</time></trkpt><trkpt lat="44.7261433" lon="9.8448417"><ele>725.0</ele><time>2026-04-19T12:23:22.056Z</time></trkpt><trkpt lat="44.7261283" lon="9.844945"><ele>725.0</ele><time>2026-04-19T12:23:23.055Z</time></trkpt><trkpt lat="44.7261167" lon="9.845045"><ele>725.0</ele><time>2026-04-19T12:23:24.057Z</time></trkpt><trkpt lat="44.726105" lon="9.8451467"><ele>724.2</ele><time>2026-04-19T12:23:25.056Z</time></trkpt><trkpt lat="44.7261067" lon="9.8452667"><ele>723.4</ele><time>2026-04-19T12:23:26.056Z</time></trkpt><trkpt lat="44.7261017" lon="9.845385"><ele>722.5999999999999</ele><time>2026-04-19T12:23:27.057Z</time></trkpt><trkpt lat="44.726095" lon="9.8455133"><ele>721.8</ele><time>2026-04-19T12:23:28.056Z</time></trkpt><trkpt lat="44.7260883" lon="9.84565"><ele>721.0</ele><time>2026-04-19T12:23:29.057Z</time></trkpt><trkpt lat="44.72609" lon="9.8457833"><ele>721.0</ele><time>2026-04-19T12:23:30.055Z</time></trkpt><trkpt lat="44.7260933" lon="9.8458817"><ele>721.0</ele><time>2026-04-19T12:23:31.056Z</time></trkpt><trkpt lat="44.7260833" lon="9.8460233"><ele>721.0</ele><time>2026-04-19T12:23:33.056Z</time></trkpt><trkpt lat="44.7260467" lon="9.8461217"><ele>721.0</ele><time>2026-04-19T12:23:36.057Z</time></trkpt><trkpt lat="44.72602" lon="9.8462517"><ele>721.0</ele><time>2026-04-19T12:23:38.056Z</time></trkpt><trkpt lat="44.7260117" lon="9.8463967"><ele>721.0</ele><time>2026-04-19T12:23:39.055Z</time></trkpt><trkpt lat="44.7259883" lon="9.846545"><ele>722.0</ele><time>2026-04-19T12:23:40.055Z</time></trkpt><trkpt lat="44.72596" lon="9.84669"><ele>723.0</ele><time>2026-04-19T12:23:41.056Z</time></trkpt><trkpt lat="44.7259233" lon="9.8468367"><ele>724.0</ele><time>2026-04-19T12:23:42.055Z</time></trkpt><trkpt lat="44.72589" lon="9.8470067"><ele>725.0</ele><time>2026-04-19T12:23:43.056Z</time></trkpt><trkpt lat="44.7258433" lon="9.8471867"><ele>725.0</ele><time>2026-04-19T12:23:44.056Z</time></trkpt><trkpt lat="44.7258" lon="9.8473717"><ele>725.0</ele><time>2026-04-19T12:23:45.054Z</time></trkpt><trkpt lat="44.7257567" lon="9.8475483"><ele>725.0</ele><time>2026-04-19T12:23:46.055Z</time></trkpt><trkpt lat="44.72572" lon="9.8477267"><ele>725.0</ele><time>2026-04-19T12:23:47.056Z</time></trkpt><trkpt lat="44.7256783" lon="9.847905"><ele>726.25</ele><time>2026-04-19T12:23:48.057Z</time></trkpt><trkpt lat="44.7256417" lon="9.8481"><ele>727.5</ele><time>2026-04-19T12:23:49.056Z</time></trkpt><trkpt lat="44.7256083" lon="9.8482983"><ele>728.75</ele><time>2026-04-19T12:23:50.056Z</time></trkpt><trkpt lat="44.725585" lon="9.8484867"><ele>730.0</ele><time>2026-04-19T12:23:51.056Z</time></trkpt><trkpt lat="44.7255667" lon="9.8486533"><ele>730.6</ele><time>2026-04-19T12:23:52.056Z</time></trkpt><trkpt lat="44.725555" lon="9.8488217"><ele>731.2</ele><time>2026-04-19T12:23:53.057Z</time></trkpt><trkpt lat="44.72555" lon="9.8489717"><ele>731.8</ele><time>2026-04-19T12:23:54.055Z</time></trkpt><trkpt lat="44.7255433" lon="9.849105"><ele>732.4</ele><time>2026-04-19T12:23:55.056Z</time></trkpt><trkpt lat="44.7255367" lon="9.8492283"><ele>733.0</ele><time>2026-04-19T12:23:56.055Z</time></trkpt><trkpt lat="44.72553" lon="9.8493583"><ele>734.0</ele><time>2026-04-19T12:23:57.056Z</time></trkpt><trkpt lat="44.725525" lon="9.849495"><ele>735.0</ele><time>2026-04-19T12:23:58.056Z</time></trkpt><trkpt lat="44.7255167" lon="9.8496383"><ele>736.0</ele><time>2026-04-19T12:23:59.056Z</time></trkpt><trkpt lat="44.725505" lon="9.8497867"><ele>737.0</ele><time>2026-04-19T12:24:00.057Z</time></trkpt><trkpt lat="44.7254917" lon="9.8499417"><ele>738.0</ele><time>2026-04-19T12:24:01.056Z</time></trkpt><trkpt lat="44.725465" lon="9.8501067"><ele>740.0</ele><time>2026-04-19T12:24:02.057Z</time></trkpt><trkpt lat="44.7254233" lon="9.85027"><ele>742.0</ele><time>2026-04-19T12:24:03.056Z</time></trkpt><trkpt lat="44.7253733" lon="9.85043"><ele>744.0</ele><time>2026-04-19T12:24:04.055Z</time></trkpt><trkpt lat="44.7253217" lon="9.8505883"><ele>746.0</ele><time>2026-04-19T12:24:05.057Z</time></trkpt><trkpt lat="44.7252617" lon="9.8507467"><ele>746.0</ele><time>2026-04-19T12:24:06.057Z</time></trkpt><trkpt lat="44.7251933" lon="9.8509117"><ele>746.0</ele><time>2026-04-19T12:24:07.056Z</time></trkpt><trkpt lat="44.7251183" lon="9.8510717"><ele>746.0</ele><time>2026-04-19T12:24:08.056Z</time></trkpt><trkpt lat="44.7250417" lon="9.85123"><ele>746.0</ele><time>2026-04-19T12:24:09.056Z</time></trkpt><trkpt lat="44.724965" lon="9.8513917"><ele>746.0</ele><time>2026-04-19T12:24:10.056Z</time></trkpt><trkpt lat="44.7248883" lon="9.85156"><ele>746.0</ele><time>2026-04-19T12:24:11.056Z</time></trkpt><trkpt lat="44.7248133" lon="9.851735"><ele>746.0</ele><time>2026-04-19T12:24:12.057Z</time></trkpt><trkpt lat="44.72474" lon="9.8519183"><ele>746.0</ele><time>2026-04-19T12:24:13.056Z</time></trkpt><trkpt lat="44.72467" lon="9.8521033"><ele>746.25</ele><time>2026-04-19T12:24:14.056Z</time></trkpt><trkpt lat="44.7246017" lon="9.8522933"><ele>746.5</ele><time>2026-04-19T12:24:15.056Z</time></trkpt><trkpt lat="44.724535" lon="9.8524833"><ele>746.75</ele><time>2026-04-19T12:24:16.056Z</time></trkpt><trkpt lat="44.72447" lon="9.852665"><ele>747.0</ele><time>2026-04-19T12:24:17.057Z</time></trkpt><trkpt lat="44.724415" lon="9.8528483"><ele>744.75</ele><time>2026-04-19T12:24:18.055Z</time></trkpt><trkpt lat="44.7243567" lon="9.8530283"><ele>742.5</ele><time>2026-04-19T12:24:19.055Z</time></trkpt><trkpt lat="44.7243" lon="9.85321"><ele>740.25</ele><time>2026-04-19T12:24:20.056Z</time></trkpt><trkpt lat="44.7242417" lon="9.8533967"><ele>738.0</ele><time>2026-04-19T12:24:21.056Z</time></trkpt><trkpt lat="44.724185" lon="9.8535867"><ele>738.0</ele><time>2026-04-19T12:24:22.055Z</time></trkpt><trkpt lat="44.72413" lon="9.85377"><ele>738.0</ele><time>2026-04-19T12:24:23.057Z</time></trkpt><trkpt lat="44.72407" lon="9.8539433"><ele>738.0</ele><time>2026-04-19T12:24:24.056Z</time></trkpt><trkpt lat="44.7240083" lon="9.854105"><ele>738.0</ele><time>2026-04-19T12:24:25.056Z</time></trkpt><trkpt lat="44.723945" lon="9.8542633"><ele>736.75</ele><time>2026-04-19T12:24:26.056Z</time></trkpt><trkpt lat="44.7238783" lon="9.8544183"><ele>735.5</ele><time>2026-04-19T12:24:27.056Z</time></trkpt><trkpt lat="44.723805" lon="9.854575"><ele>734.25</ele><time>2026-04-19T12:24:28.056Z</time></trkpt><trkpt lat="44.7237317" lon="9.8547333"><ele>733.0</ele><time>2026-04-19T12:24:29.056Z</time></trkpt><trkpt lat="44.7236467" lon="9.8548933"><ele>730.3333333333334</ele><time>2026-04-19T12:24:30.056Z</time></trkpt><trkpt lat="44.7235633" lon="9.85506"><ele>727.6666666666666</ele><time>2026-04-19T12:24:31.056Z</time></trkpt><trkpt lat="44.7234717" lon="9.855235"><ele>725.0</ele><time>2026-04-19T12:24:32.055Z</time></trkpt><trkpt lat="44.7233783" lon="9.8554117"><ele>725.0</ele><time>2026-04-19T12:24:33.056Z</time></trkpt><trkpt lat="44.7232867" lon="9.8555883"><ele>725.0</ele><time>2026-04-19T12:24:34.057Z</time></trkpt><trkpt lat="44.723195" lon="9.855765"><ele>725.0</ele><time>2026-04-19T12:24:35.055Z</time></trkpt><trkpt lat="44.7231033" lon="9.85594"><ele>722.6666666666666</ele><time>2026-04-19T12:24:36.056Z</time></trkpt><trkpt lat="44.7230167" lon="9.8561217"><ele>720.3333333333334</ele><time>2026-04-19T12:24:37.057Z</time></trkpt><trkpt lat="44.7229267" lon="9.8563033"><ele>718.0</ele><time>2026-04-19T12:24:38.056Z</time></trkpt><trkpt lat="44.7228417" lon="9.8564867"><ele>718.0</ele><time>2026-04-19T12:24:39.055Z</time></trkpt><trkpt lat="44.7227617" lon="9.8566733"><ele>718.0</ele><time>2026-04-19T12:24:40.056Z</time></trkpt><trkpt lat="44.7226883" lon="9.8568683"><ele>718.0</ele><time>2026-04-19T12:24:41.055Z</time></trkpt><trkpt lat="44.72262" lon="9.8570633"><ele>716.5</ele><time>2026-04-19T12:24:42.055Z</time></trkpt><trkpt lat="44.72256" lon="9.8572583"><ele>715.0</ele><time>2026-04-19T12:24:43.055Z</time></trkpt><trkpt lat="44.7225067" lon="9.85745"><ele>713.5</ele><time>2026-04-19T12:24:44.056Z</time></trkpt><trkpt lat="44.72246" lon="9.8576333"><ele>712.0</ele><time>2026-04-19T12:24:45.055Z</time></trkpt><trkpt lat="44.722425" lon="9.857825"><ele>711.75</ele><time>2026-04-19T12:24:46.056Z</time></trkpt><trkpt lat="44.7224083" lon="9.8580167"><ele>711.5</ele><time>2026-04-19T12:24:47.057Z</time></trkpt><trkpt lat="44.7224067" lon="9.85821"><ele>711.25</ele><time>2026-04-19T12:24:48.056Z</time></trkpt><trkpt lat="44.7224167" lon="9.858405"><ele>711.0</ele><time>2026-04-19T12:24:49.056Z</time></trkpt><trkpt lat="44.7224117" lon="9.8586033"><ele>710.0</ele><time>2026-04-19T12:24:50.056Z</time></trkpt><trkpt lat="44.72239" lon="9.8587933"><ele>709.0</ele><time>2026-04-19T12:24:51.056Z</time></trkpt><trkpt lat="44.7223367" lon="9.8589733"><ele>708.0</ele><time>2026-04-19T12:24:52.056Z</time></trkpt><trkpt lat="44.7222683" lon="9.8591533"><ele>707.0</ele><time>2026-04-19T12:24:53.056Z</time></trkpt><trkpt lat="44.7222017" lon="9.85933"><ele>704.75</ele><time>2026-04-19T12:24:54.057Z</time></trkpt><trkpt lat="44.7221367" lon="9.8595033"><ele>702.5</ele><time>2026-04-19T12:24:55.056Z</time></trkpt><trkpt lat="44.7220783" lon="9.85967"><ele>700.25</ele><time>2026-04-19T12:24:56.055Z</time></trkpt><trkpt lat="44.7220183" lon="9.8598267"><ele>698.0</ele><time>2026-04-19T12:24:57.054Z</time></trkpt><trkpt lat="44.72195" lon="9.8599667"><ele>699.25</ele><time>2026-04-19T12:24:58.055Z</time></trkpt><trkpt lat="44.72186" lon="9.8600767"><ele>700.5</ele><time>2026-04-19T12:24:59.055Z</time></trkpt><trkpt lat="44.721755" lon="9.8601533"><ele>701.75</ele><time>2026-04-19T12:25:00.055Z</time></trkpt><trkpt lat="44.721645" lon="9.8602283"><ele>703.0</ele><time>2026-04-19T12:25:01.054Z</time></trkpt><trkpt lat="44.7215283" lon="9.8603133"><ele>703.5</ele><time>2026-04-19T12:25:02.055Z</time></trkpt><trkpt lat="44.72141" lon="9.860415"><ele>704.0</ele><time>2026-04-19T12:25:03.054Z</time></trkpt><trkpt lat="44.7213" lon="9.860535"><ele>704.5</ele><time>2026-04-19T12:25:04.054Z</time></trkpt><trkpt lat="44.7212" lon="9.8606817"><ele>705.0</ele><time>2026-04-19T12:25:05.054Z</time></trkpt><trkpt lat="44.7210983" lon="9.860845"><ele>702.3333333333334</ele><time>2026-04-19T12:25:06.055Z</time></trkpt><trkpt lat="44.720995" lon="9.8610167"><ele>699.6666666666667</ele><time>2026-04-19T12:25:07.054Z</time></trkpt><trkpt lat="44.7208933" lon="9.86119"><ele>697.0</ele><time>2026-04-19T12:25:08.055Z</time></trkpt><trkpt lat="44.7207983" lon="9.8613567"><ele>697.0</ele><time>2026-04-19T12:25:09.056Z</time></trkpt><trkpt lat="44.7207083" lon="9.861515"><ele>697.0</ele><time>2026-04-19T12:25:10.054Z</time></trkpt><trkpt lat="44.7206167" lon="9.861665"><ele>697.0</ele><time>2026-04-19T12:25:11.055Z</time></trkpt><trkpt lat="44.720525" lon="9.8618117"><ele>697.0</ele><time>2026-04-19T12:25:12.053Z</time></trkpt><trkpt lat="44.7204367" lon="9.8619483"><ele>695.75</ele><time>2026-04-19T12:25:13.055Z</time></trkpt><trkpt lat="44.7203567" lon="9.8620833"><ele>694.5</ele><time>2026-04-19T12:25:14.056Z</time></trkpt><trkpt lat="44.7202733" lon="9.8622233"><ele>693.25</ele><time>2026-04-19T12:25:15.055Z</time></trkpt><trkpt lat="44.720185" lon="9.8623733"><ele>692.0</ele><time>2026-04-19T12:25:16.054Z</time></trkpt><trkpt lat="44.72009" lon="9.86253"><ele>692.0</ele><time>2026-04-19T12:25:17.056Z</time></trkpt><trkpt lat="44.7199883" lon="9.8626917"><ele>692.0</ele><time>2026-04-19T12:25:18.055Z</time></trkpt><trkpt lat="44.7198883" lon="9.8628583"><ele>692.0</ele><time>2026-04-19T12:25:19.057Z</time></trkpt><trkpt lat="44.7198067" lon="9.86303"><ele>692.0</ele><time>2026-04-19T12:25:20.056Z</time></trkpt><trkpt lat="44.71974" lon="9.8632133"><ele>692.0</ele><time>2026-04-19T12:25:21.055Z</time></trkpt><trkpt lat="44.719695" lon="9.863405"><ele>692.0</ele><time>2026-04-19T12:25:22.056Z</time></trkpt><trkpt lat="44.7196567" lon="9.86361"><ele>692.0</ele><time>2026-04-19T12:25:23.057Z</time></trkpt><trkpt lat="44.7196183" lon="9.8638167"><ele>692.3333333333333</ele><time>2026-04-19T12:25:24.056Z</time></trkpt><trkpt lat="44.7195767" lon="9.864025"><ele>692.6666666666666</ele><time>2026-04-19T12:25:25.055Z</time></trkpt><trkpt lat="44.71954" lon="9.8642367"><ele>693.0</ele><time>2026-04-19T12:25:26.057Z</time></trkpt><trkpt lat="44.7194983" lon="9.8644433"><ele>693.0</ele><time>2026-04-19T12:25:27.057Z</time></trkpt><trkpt lat="44.71946" lon="9.8646517"><ele>693.0</ele><time>2026-04-19T12:25:28.055Z</time></trkpt><trkpt lat="44.71942" lon="9.86486"><ele>693.0</ele><time>2026-04-19T12:25:29.057Z</time></trkpt><trkpt lat="44.7193817" lon="9.8650683"><ele>688.25</ele><time>2026-04-19T12:25:30.056Z</time></trkpt><trkpt lat="44.7193433" lon="9.8652783"><ele>683.5</ele><time>2026-04-19T12:25:31.053Z</time></trkpt><trkpt lat="44.71932" lon="9.865485"><ele>678.75</ele><time>2026-04-19T12:25:32.054Z</time></trkpt><trkpt lat="44.719325" lon="9.8656883"><ele>674.0</ele><time>2026-04-19T12:25:33.055Z</time></trkpt><trkpt lat="44.71936" lon="9.86588"><ele>679.5</ele><time>2026-04-19T12:25:34.056Z</time></trkpt><trkpt lat="44.7194217" lon="9.86606"><ele>685.0</ele><time>2026-04-19T12:25:35.056Z</time></trkpt><trkpt lat="44.7195" lon="9.866225"><ele>690.5</ele><time>2026-04-19T12:25:36.056Z</time></trkpt><trkpt lat="44.7195717" lon="9.8664067"><ele>696.0</ele><time>2026-04-19T12:25:37.056Z</time></trkpt><trkpt lat="44.7196133" lon="9.866615"><ele>694.6666666666666</ele><time>2026-04-19T12:25:38.057Z</time></trkpt><trkpt lat="44.7196433" lon="9.8668233"><ele>693.3333333333333</ele><time>2026-04-19T12:25:39.055Z</time></trkpt><trkpt lat="44.7196817" lon="9.8670367"><ele>692.0</ele><time>2026-04-19T12:25:40.057Z</time></trkpt><trkpt lat="44.7197217" lon="9.8672517"><ele>692.0</ele><time>2026-04-19T12:25:41.056Z</time></trkpt><trkpt lat="44.7197583" lon="9.867465"><ele>692.0</ele><time>2026-04-19T12:25:42.057Z</time></trkpt><trkpt lat="44.7197883" lon="9.86768"><ele>692.0</ele><time>2026-04-19T12:25:43.056Z</time></trkpt><trkpt lat="44.7198133" lon="9.867895"><ele>689.0</ele><time>2026-04-19T12:25:44.057Z</time></trkpt><trkpt lat="44.7198417" lon="9.868115"><ele>686.0</ele><time>2026-04-19T12:25:45.056Z</time></trkpt><trkpt lat="44.7198783" lon="9.8683317"><ele>683.0</ele><time>2026-04-19T12:25:46.055Z</time></trkpt><trkpt lat="44.7199283" lon="9.86854"><ele>680.75</ele><time>2026-04-19T12:25:47.053Z</time></trkpt><trkpt lat="44.7199983" lon="9.868735"><ele>678.5</ele><time>2026-04-19T12:25:48.054Z</time></trkpt><trkpt lat="44.720065" lon="9.8689217"><ele>676.25</ele><time>2026-04-19T12:25:49.054Z</time></trkpt><trkpt lat="44.7201167" lon="9.8691133"><ele>674.0</ele><time>2026-04-19T12:25:50.056Z</time></trkpt><trkpt lat="44.720165" lon="9.8693117"><ele>676.5</ele><time>2026-04-19T12:25:51.054Z</time></trkpt><trkpt lat="44.7202217" lon="9.869515"><ele>679.0</ele><time>2026-04-19T12:25:52.055Z</time></trkpt><trkpt lat="44.720295" lon="9.8696917"><ele>681.5</ele><time>2026-04-19T12:25:53.056Z</time></trkpt><trkpt lat="44.7203833" lon="9.869845"><ele>684.0</ele><time>2026-04-19T12:25:54.056Z</time></trkpt><trkpt lat="44.7204667" lon="9.8699867"><ele>681.75</ele><time>2026-04-19T12:25:55.056Z</time></trkpt><trkpt lat="44.7205233" lon="9.8701467"><ele>679.5</ele><time>2026-04-19T12:25:56.055Z</time></trkpt><trkpt lat="44.7205433" lon="9.87033"><ele>677.25</ele><time>2026-04-19T12:25:57.055Z</time></trkpt><trkpt lat="44.7205283" lon="9.87053"><ele>675.0</ele><time>2026-04-19T12:25:58.056Z</time></trkpt><trkpt lat="44.7204933" lon="9.870745"><ele>673.3333333333334</ele><time>2026-04-19T12:25:59.056Z</time></trkpt><trkpt lat="44.7204617" lon="9.8709683"><ele>671.6666666666667</ele><time>2026-04-19T12:26:00.056Z</time></trkpt><trkpt lat="44.7204567" lon="9.87119"><ele>670.0</ele><time>2026-04-19T12:26:01.055Z</time></trkpt><trkpt lat="44.7204667" lon="9.8714117"><ele>670.0</ele><time>2026-04-19T12:26:02.056Z</time></trkpt><trkpt lat="44.7204883" lon="9.87162"><ele>670.0</ele><time>2026-04-19T12:26:03.058Z</time></trkpt><trkpt lat="44.7205283" lon="9.87181"><ele>670.0</ele><time>2026-04-19T12:26:04.057Z</time></trkpt><trkpt lat="44.720585" lon="9.8719867"><ele>670.0</ele><time>2026-04-19T12:26:05.057Z</time></trkpt><trkpt lat="44.7206567" lon="9.8721483"><ele>668.5</ele><time>2026-04-19T12:26:06.056Z</time></trkpt><trkpt lat="44.7207283" lon="9.872305"><ele>667.0</ele><time>2026-04-19T12:26:07.055Z</time></trkpt><trkpt lat="44.7207867" lon="9.872465"><ele>665.5</ele><time>2026-04-19T12:26:08.057Z</time></trkpt><trkpt lat="44.72083" lon="9.87263"><ele>664.0</ele><time>2026-04-19T12:26:09.055Z</time></trkpt><trkpt lat="44.7208517" lon="9.8727983"><ele>663.5</ele><time>2026-04-19T12:26:10.055Z</time></trkpt><trkpt lat="44.7208567" lon="9.8729617"><ele>663.0</ele><time>2026-04-19T12:26:11.056Z</time></trkpt><trkpt lat="44.7208517" lon="9.87313"><ele>662.5</ele><time>2026-04-19T12:26:12.056Z</time></trkpt><trkpt lat="44.7208317" lon="9.8733"><ele>662.0</ele><time>2026-04-19T12:26:13.057Z</time></trkpt><trkpt lat="44.7208017" lon="9.873475"><ele>661.75</ele><time>2026-04-19T12:26:14.055Z</time></trkpt><trkpt lat="44.7207767" lon="9.8736517"><ele>661.5</ele><time>2026-04-19T12:26:15.053Z</time></trkpt><trkpt lat="44.7207417" lon="9.8738233"><ele>661.25</ele><time>2026-04-19T12:26:16.054Z</time></trkpt><trkpt lat="44.72069" lon="9.87398"><ele>661.0</ele><time>2026-04-19T12:26:17.053Z</time></trkpt><trkpt lat="44.7206133" lon="9.8741217"><ele>661.0</ele><time>2026-04-19T12:26:18.055Z</time></trkpt><trkpt lat="44.7205267" lon="9.8742417"><ele>661.0</ele><time>2026-04-19T12:26:19.053Z</time></trkpt><trkpt lat="44.7204233" lon="9.8743517"><ele>661.0</ele><time>2026-04-19T12:26:20.054Z</time></trkpt><trkpt lat="44.7203133" lon="9.874455"><ele>661.0</ele><time>2026-04-19T12:26:21.054Z</time></trkpt><trkpt lat="44.7202033" lon="9.87456"><ele>661.5</ele><time>2026-04-19T12:26:22.056Z</time></trkpt><trkpt lat="44.720095" lon="9.8746667"><ele>662.0</ele><time>2026-04-19T12:26:23.054Z</time></trkpt><trkpt lat="44.7200067" lon="9.874795"><ele>662.5</ele><time>2026-04-19T12:26:24.055Z</time></trkpt><trkpt lat="44.71995" lon="9.8749467"><ele>663.0</ele><time>2026-04-19T12:26:25.056Z</time></trkpt><trkpt lat="44.719925" lon="9.8751283"><ele>663.5</ele><time>2026-04-19T12:26:26.057Z</time></trkpt><trkpt lat="44.7199033" lon="9.875325"><ele>664.0</ele><time>2026-04-19T12:26:27.055Z</time></trkpt><trkpt lat="44.7198717" lon="9.875515"><ele>664.5</ele><time>2026-04-19T12:26:28.056Z</time></trkpt><trkpt lat="44.7198217" lon="9.875695"><ele>665.0</ele><time>2026-04-19T12:26:29.057Z</time></trkpt><trkpt lat="44.7197433" lon="9.87586"><ele>665.0</ele><time>2026-04-19T12:26:30.055Z</time></trkpt><trkpt lat="44.7196483" lon="9.876015"><ele>665.0</ele><time>2026-04-19T12:26:31.055Z</time></trkpt><trkpt lat="44.7195333" lon="9.8761567"><ele>665.0</ele><time>2026-04-19T12:26:32.057Z</time></trkpt><trkpt lat="44.7194083" lon="9.87629"><ele>665.0</ele><time>2026-04-19T12:26:33.054Z</time></trkpt><trkpt lat="44.71929" lon="9.87642"><ele>665.0</ele><time>2026-04-19T12:26:34.056Z</time></trkpt><trkpt lat="44.7191917" lon="9.87656"><ele>665.0</ele><time>2026-04-19T12:26:35.056Z</time></trkpt><trkpt lat="44.71912" lon="9.8767217"><ele>665.0</ele><time>2026-04-19T12:26:36.055Z</time></trkpt><trkpt lat="44.71907" lon="9.87691"><ele>665.0</ele><time>2026-04-19T12:26:37.055Z</time></trkpt><trkpt lat="44.7190333" lon="9.8771133"><ele>665.0</ele><time>2026-04-19T12:26:38.056Z</time></trkpt><trkpt lat="44.719" lon="9.87733"><ele>665.0</ele><time>2026-04-19T12:26:39.055Z</time></trkpt><trkpt lat="44.7189617" lon="9.87755"><ele>665.6666666666666</ele><time>2026-04-19T12:26:40.056Z</time></trkpt><trkpt lat="44.718925" lon="9.877765"><ele>666.3333333333334</ele><time>2026-04-19T12:26:41.056Z</time></trkpt><trkpt lat="44.7188883" lon="9.8779717"><ele>667.0</ele><time>2026-04-19T12:26:42.056Z</time></trkpt><trkpt lat="44.7188533" lon="9.87817"><ele>667.0</ele><time>2026-04-19T12:26:43.056Z</time></trkpt><trkpt lat="44.7188417" lon="9.8783567"><ele>667.0</ele><time>2026-04-19T12:26:44.056Z</time></trkpt><trkpt lat="44.7188617" lon="9.87852"><ele>667.0</ele><time>2026-04-19T12:26:45.055Z</time></trkpt><trkpt lat="44.718905" lon="9.878665"><ele>667.0</ele><time>2026-04-19T12:26:46.055Z</time></trkpt><trkpt lat="44.7189817" lon="9.8788083"><ele>667.0</ele><time>2026-04-19T12:26:47.055Z</time></trkpt><trkpt lat="44.719075" lon="9.87895"><ele>667.0</ele><time>2026-04-19T12:26:48.055Z</time></trkpt><trkpt lat="44.7191633" lon="9.8790983"><ele>667.0</ele><time>2026-04-19T12:26:49.054Z</time></trkpt><trkpt lat="44.71923" lon="9.879265"><ele>667.0</ele><time>2026-04-19T12:26:50.055Z</time></trkpt><trkpt lat="44.7192633" lon="9.8794383"><ele>667.25</ele><time>2026-04-19T12:26:51.053Z</time></trkpt><trkpt lat="44.7192617" lon="9.879615"><ele>667.5</ele><time>2026-04-19T12:26:52.055Z</time></trkpt><trkpt lat="44.7192467" lon="9.879795"><ele>667.75</ele><time>2026-04-19T12:26:53.054Z</time></trkpt><trkpt lat="44.7192233" lon="9.87998"><ele>668.0</ele><time>2026-04-19T12:26:54.055Z</time></trkpt><trkpt lat="44.719195" lon="9.880165"><ele>668.5</ele><time>2026-04-19T12:26:55.056Z</time></trkpt><trkpt lat="44.7191617" lon="9.880355"><ele>669.0</ele><time>2026-04-19T12:26:56.056Z</time></trkpt><trkpt lat="44.719125" lon="9.8805417"><ele>669.5</ele><time>2026-04-19T12:26:57.056Z</time></trkpt><trkpt lat="44.7190833" lon="9.8807283"><ele>670.0</ele><time>2026-04-19T12:26:58.055Z</time></trkpt><trkpt lat="44.7190383" lon="9.880915"><ele>670.0</ele><time>2026-04-19T12:26:59.054Z</time></trkpt><trkpt lat="44.7189833" lon="9.88109"><ele>670.0</ele><time>2026-04-19T12:27:00.055Z</time></trkpt><trkpt lat="44.71892" lon="9.8812583"><ele>670.0</ele><time>2026-04-19T12:27:01.055Z</time></trkpt><trkpt lat="44.7188433" lon="9.881415"><ele>670.0</ele><time>2026-04-19T12:27:02.055Z</time></trkpt><trkpt lat="44.7187583" lon="9.8815583"><ele>670.0</ele><time>2026-04-19T12:27:03.055Z</time></trkpt><trkpt lat="44.71866" lon="9.8816933"><ele>670.0</ele><time>2026-04-19T12:27:04.055Z</time></trkpt><trkpt lat="44.7185567" lon="9.8818133"><ele>670.0</ele><time>2026-04-19T12:27:05.055Z</time></trkpt><trkpt lat="44.718455" lon="9.8819317"><ele>670.0</ele><time>2026-04-19T12:27:06.056Z</time></trkpt><trkpt lat="44.71837" lon="9.8820683"><ele>672.5</ele><time>2026-04-19T12:27:07.055Z</time></trkpt><trkpt lat="44.718305" lon="9.8822217"><ele>675.0</ele><time>2026-04-19T12:27:08.056Z</time></trkpt><trkpt lat="44.7182483" lon="9.882385"><ele>677.5</ele><time>2026-04-19T12:27:09.056Z</time></trkpt><trkpt lat="44.7181983" lon="9.88255"><ele>680.0</ele><time>2026-04-19T12:27:10.055Z</time></trkpt><trkpt lat="44.71815" lon="9.88272"><ele>680.0</ele><time>2026-04-19T12:27:11.054Z</time></trkpt><trkpt lat="44.7181033" lon="9.8828933"><ele>680.0</ele><time>2026-04-19T12:27:12.057Z</time></trkpt><trkpt lat="44.7180533" lon="9.88307"><ele>680.0</ele><time>2026-04-19T12:27:13.056Z</time></trkpt><trkpt lat="44.7179983" lon="9.8832467"><ele>680.0</ele><time>2026-04-19T12:27:14.057Z</time></trkpt><trkpt lat="44.71795" lon="9.8834217"><ele>678.0</ele><time>2026-04-19T12:27:15.053Z</time></trkpt><trkpt lat="44.7179017" lon="9.8836"><ele>676.0</ele><time>2026-04-19T12:27:16.054Z</time></trkpt><trkpt lat="44.7178567" lon="9.883785"><ele>674.0</ele><time>2026-04-19T12:27:17.054Z</time></trkpt><trkpt lat="44.7178233" lon="9.8839733"><ele>672.0</ele><time>2026-04-19T12:27:18.056Z</time></trkpt><trkpt lat="44.7177983" lon="9.884175"><ele>672.0</ele><time>2026-04-19T12:27:19.056Z</time></trkpt><trkpt lat="44.7177917" lon="9.8843717"><ele>672.0</ele><time>2026-04-19T12:27:20.055Z</time></trkpt><trkpt lat="44.7178033" lon="9.88456"><ele>672.0</ele><time>2026-04-19T12:27:21.054Z</time></trkpt><trkpt lat="44.7178233" lon="9.8847633"><ele>672.0</ele><time>2026-04-19T12:27:22.055Z</time></trkpt><trkpt lat="44.7178483" lon="9.884965"><ele>670.5</ele><time>2026-04-19T12:27:23.054Z</time></trkpt><trkpt lat="44.7178667" lon="9.8851667"><ele>669.0</ele><time>2026-04-19T12:27:24.056Z</time></trkpt><trkpt lat="44.7178783" lon="9.8853567"><ele>667.5</ele><time>2026-04-19T12:27:25.055Z</time></trkpt><trkpt lat="44.7178817" lon="9.885545"><ele>666.0</ele><time>2026-04-19T12:27:26.055Z</time></trkpt><trkpt lat="44.71786" lon="9.8857317"><ele>666.0</ele><time>2026-04-19T12:27:27.055Z</time></trkpt><trkpt lat="44.71782" lon="9.8859033"><ele>666.0</ele><time>2026-04-19T12:27:28.055Z</time></trkpt><trkpt lat="44.7177767" lon="9.8860783"><ele>666.0</ele><time>2026-04-19T12:27:29.056Z</time></trkpt><trkpt lat="44.7177517" lon="9.88627"><ele>666.0</ele><time>2026-04-19T12:27:30.055Z</time></trkpt><trkpt lat="44.7177467" lon="9.8864583"><ele>665.75</ele><time>2026-04-19T12:27:31.057Z</time></trkpt><trkpt lat="44.7177567" lon="9.886635"><ele>665.5</ele><time>2026-04-19T12:27:32.055Z</time></trkpt><trkpt lat="44.7177717" lon="9.8867967"><ele>665.25</ele><time>2026-04-19T12:27:33.054Z</time></trkpt><trkpt lat="44.7177917" lon="9.886945"><ele>665.0</ele><time>2026-04-19T12:27:34.055Z</time></trkpt><trkpt lat="44.7178117" lon="9.887085"><ele>667.4</ele><time>2026-04-19T12:27:35.054Z</time></trkpt><trkpt lat="44.7178317" lon="9.8872217"><ele>669.8</ele><time>2026-04-19T12:27:36.057Z</time></trkpt><trkpt lat="44.7178533" lon="9.8873583"><ele>672.2</ele><time>2026-04-19T12:27:37.055Z</time></trkpt><trkpt lat="44.7178767" lon="9.887495"><ele>674.6</ele><time>2026-04-19T12:27:38.055Z</time></trkpt><trkpt lat="44.71791" lon="9.8876217"><ele>677.0</ele><time>2026-04-19T12:27:39.053Z</time></trkpt><trkpt lat="44.7179683" lon="9.8877183"><ele>680.4000000000001</ele><time>2026-04-19T12:27:40.054Z</time></trkpt><trkpt lat="44.7180417" lon="9.8878"><ele>683.8000000000001</ele><time>2026-04-19T12:27:41.055Z</time></trkpt><trkpt lat="44.7181517" lon="9.8878217"><ele>687.2</ele><time>2026-04-19T12:27:42.054Z</time></trkpt><trkpt lat="44.7182633" lon="9.8878317"><ele>690.6</ele><time>2026-04-19T12:27:43.054Z</time></trkpt><trkpt lat="44.7183767" lon="9.88782"><ele>694.0</ele><time>2026-04-19T12:27:44.056Z</time></trkpt><trkpt lat="44.7184833" lon="9.8878083"><ele>692.8333333333334</ele><time>2026-04-19T12:27:45.054Z</time></trkpt><trkpt lat="44.7185867" lon="9.887805"><ele>691.6666666666667</ele><time>2026-04-19T12:27:46.056Z</time></trkpt><trkpt lat="44.7186817" lon="9.8878067"><ele>690.5</ele><time>2026-04-19T12:27:47.055Z</time></trkpt><trkpt lat="44.71876" lon="9.8878067"><ele>689.3333333333334</ele><time>2026-04-19T12:27:48.055Z</time></trkpt><trkpt lat="44.7188283" lon="9.8878067"><ele>688.1666666666666</ele><time>2026-04-19T12:27:49.054Z</time></trkpt><trkpt lat="44.7189067" lon="9.887835"><ele>687.0</ele><time>2026-04-19T12:27:51.054Z</time></trkpt><trkpt lat="44.718955" lon="9.88793"><ele>687.0</ele><time>2026-04-19T12:28:03.054Z</time></trkpt><trkpt lat="44.7190333" lon="9.888025"><ele>687.0</ele><time>2026-04-19T12:28:05.053Z</time></trkpt><trkpt lat="44.719145" lon="9.8880883"><ele>687.0</ele><time>2026-04-19T12:28:07.054Z</time></trkpt><trkpt lat="44.719255" lon="9.888105"><ele>687.0</ele><time>2026-04-19T12:28:09.053Z</time></trkpt><trkpt lat="44.7193167" lon="9.888145"><ele>687.0</ele><time>2026-04-19T12:28:10.054Z</time></trkpt><trkpt lat="44.71937" lon="9.8881933"><ele>685.8571428571429</ele><time>2026-04-19T12:28:11.055Z</time></trkpt><trkpt lat="44.7194333" lon="9.8882533"><ele>684.7142857142857</ele><time>2026-04-19T12:28:12.054Z</time></trkpt><trkpt lat="44.71949" lon="9.8883167"><ele>683.5714285714286</ele><time>2026-04-19T12:28:13.054Z</time></trkpt><trkpt lat="44.7195467" lon="9.8883783"><ele>682.4285714285714</ele><time>2026-04-19T12:28:14.054Z</time></trkpt><trkpt lat="44.7196067" lon="9.8884483"><ele>681.2857142857142</ele><time>2026-04-19T12:28:15.054Z</time></trkpt><trkpt lat="44.7196717" lon="9.8885083"><ele>680.1428571428571</ele><time>2026-04-19T12:28:16.053Z</time></trkpt><trkpt lat="44.719725" lon="9.8885683"><ele>679.0</ele><time>2026-04-19T12:28:17.055Z</time></trkpt><trkpt lat="44.7197983" lon="9.8886283"><ele>683.6</ele><time>2026-04-19T12:28:19.055Z</time></trkpt><trkpt lat="44.7198667" lon="9.888675"><ele>688.2</ele><time>2026-04-19T12:28:21.055Z</time></trkpt><trkpt lat="44.7199483" lon="9.88876"><ele>692.8000000000001</ele><time>2026-04-19T12:28:23.055Z</time></trkpt><trkpt lat="44.7200433" lon="9.888865"><ele>697.4000000000001</ele><time>2026-04-19T12:28:25.054Z</time></trkpt><trkpt lat="44.7201133" lon="9.8889733"><ele>702.0</ele><time>2026-04-19T12:28:27.055Z</time></trkpt><trkpt lat="44.7201983" lon="9.8890683"><ele>700.5</ele><time>2026-04-19T12:28:29.055Z</time></trkpt><trkpt lat="44.7202817" lon="9.88917"><ele>699.0</ele><time>2026-04-19T12:28:31.055Z</time></trkpt><trkpt lat="44.7203733" lon="9.8892517"><ele>697.5</ele><time>2026-04-19T12:28:33.053Z</time></trkpt><trkpt lat="44.72044" lon="9.8893017"><ele>696.0</ele><time>2026-04-19T12:28:34.056Z</time></trkpt><trkpt lat="44.7205017" lon="9.889365"><ele>694.5</ele><time>2026-04-19T12:28:35.055Z</time></trkpt><trkpt lat="44.7205533" lon="9.8894267"><ele>693.0</ele><time>2026-04-19T12:28:36.054Z</time></trkpt><trkpt lat="44.720615" lon="9.8894783"><ele>693.0</ele><time>2026-04-19T12:28:37.055Z</time></trkpt><trkpt lat="44.720675" lon="9.889525"><ele>693.0</ele><time>2026-04-19T12:28:38.054Z</time></trkpt><trkpt lat="44.7207483" lon="9.8895967"><ele>693.0</ele><time>2026-04-19T12:28:39.055Z</time></trkpt><trkpt lat="44.72081" lon="9.8896583"><ele>693.0</ele><time>2026-04-19T12:28:40.055Z</time></trkpt><trkpt lat="44.720855" lon="9.889725"><ele>693.0</ele><time>2026-04-19T12:28:41.055Z</time></trkpt><trkpt lat="44.7208967" lon="9.8898033"><ele>693.0</ele><time>2026-04-19T12:28:42.055Z</time></trkpt><trkpt lat="44.7209383" lon="9.88996"><ele>693.0</ele><time>2026-04-19T12:28:44.054Z</time></trkpt><trkpt lat="44.720945" lon="9.890065"><ele>693.0</ele><time>2026-04-19T12:28:45.055Z</time></trkpt><trkpt lat="44.7209617" lon="9.890185"><ele>693.0</ele><time>2026-04-19T12:28:46.056Z</time></trkpt><trkpt lat="44.7209767" lon="9.8902983"><ele>693.0</ele><time>2026-04-19T12:28:47.055Z</time></trkpt><trkpt lat="44.72098" lon="9.8904183"><ele>693.0</ele><time>2026-04-19T12:28:48.055Z</time></trkpt><trkpt lat="44.7209783" lon="9.8905283"><ele>693.0</ele><time>2026-04-19T12:28:49.054Z</time></trkpt><trkpt lat="44.720985" lon="9.890635"><ele>693.6666666666666</ele><time>2026-04-19T12:28:50.055Z</time></trkpt><trkpt lat="44.7209917" lon="9.8907717"><ele>694.3333333333334</ele><time>2026-04-19T12:28:52.053Z</time></trkpt><trkpt lat="44.7210217" lon="9.89085"><ele>695.0</ele><time>2026-04-19T12:28:54.054Z</time></trkpt><trkpt lat="44.7210967" lon="9.8908867"><ele>695.6666666666667</ele><time>2026-04-19T12:28:57.053Z</time></trkpt><trkpt lat="44.72122" lon="9.8908633"><ele>696.3333333333334</ele><time>2026-04-19T12:28:59.054Z</time></trkpt><trkpt lat="44.721295" lon="9.8908517"><ele>697.0</ele><time>2026-04-19T12:29:00.055Z</time></trkpt><trkpt lat="44.7213917" lon="9.89083"><ele>695.0</ele><time>2026-04-19T12:29:01.053Z</time></trkpt><trkpt lat="44.7214833" lon="9.8908133"><ele>693.0</ele><time>2026-04-19T12:29:02.054Z</time></trkpt><trkpt lat="44.7215783" lon="9.890805"><ele>691.0</ele><time>2026-04-19T12:29:03.053Z</time></trkpt><trkpt lat="44.7217" lon="9.8907817"><ele>689.0</ele><time>2026-04-19T12:29:04.054Z</time></trkpt><trkpt lat="44.7217983" lon="9.890765"><ele>687.0</ele><time>2026-04-19T12:29:05.054Z</time></trkpt><trkpt lat="44.7218733" lon="9.8907533"><ele>689.1666666666666</ele><time>2026-04-19T12:29:06.054Z</time></trkpt><trkpt lat="44.72194" lon="9.8907383"><ele>691.3333333333334</ele><time>2026-04-19T12:29:07.054Z</time></trkpt><trkpt lat="44.7220083" lon="9.890725"><ele>693.5</ele><time>2026-04-19T12:29:08.054Z</time></trkpt><trkpt lat="44.7220733" lon="9.8907167"><ele>695.6666666666667</ele><time>2026-04-19T12:29:09.053Z</time></trkpt><trkpt lat="44.7221917" lon="9.890665"><ele>697.8333333333334</ele><time>2026-04-19T12:29:11.055Z</time></trkpt><trkpt lat="44.7222583" lon="9.8906367"><ele>700.0</ele><time>2026-04-19T12:29:12.054Z</time></trkpt><trkpt lat="44.7223267" lon="9.8905683"><ele>700.0</ele><time>2026-04-19T12:29:13.054Z</time></trkpt><trkpt lat="44.7224167" lon="9.8904833"><ele>700.0</ele><time>2026-04-19T12:29:14.054Z</time></trkpt><trkpt lat="44.7224867" lon="9.89043"><ele>700.0</ele><time>2026-04-19T12:29:15.053Z</time></trkpt><trkpt lat="44.7225567" lon="9.890385"><ele>700.0</ele><time>2026-04-19T12:29:16.053Z</time></trkpt><trkpt lat="44.7226267" lon="9.890345"><ele>700.0</ele><time>2026-04-19T12:29:17.055Z</time></trkpt><trkpt lat="44.7227367" lon="9.8902883"><ele>701.2</ele><time>2026-04-19T12:29:19.055Z</time></trkpt><trkpt lat="44.7228483" lon="9.89023"><ele>702.4</ele><time>2026-04-19T12:29:21.053Z</time></trkpt><trkpt lat="44.7229617" lon="9.89018"><ele>703.5999999999999</ele><time>2026-04-19T12:29:23.055Z</time></trkpt><trkpt lat="44.723075" lon="9.8901383"><ele>704.8</ele><time>2026-04-19T12:29:25.053Z</time></trkpt><trkpt lat="44.7231583" lon="9.8900967"><ele>706.0</ele><time>2026-04-19T12:29:27.054Z</time></trkpt><trkpt lat="44.7233217" lon="9.8901167"><ele>706.0</ele><time>2026-04-19T12:29:29.054Z</time></trkpt><trkpt lat="44.7234317" lon="9.8901"><ele>706.0</ele><time>2026-04-19T12:29:31.055Z</time></trkpt><trkpt lat="44.7235283" lon="9.8901283"><ele>706.0</ele><time>2026-04-19T12:29:33.054Z</time></trkpt><trkpt lat="44.7236183" lon="9.89018"><ele>706.0</ele><time>2026-04-19T12:29:35.053Z</time></trkpt><trkpt lat="44.7237033" lon="9.8902483"><ele>706.0</ele><time>2026-04-19T12:29:37.053Z</time></trkpt><trkpt lat="44.7238017" lon="9.8903217"><ele>701.3333333333334</ele><time>2026-04-19T12:29:39.053Z</time></trkpt><trkpt lat="44.7238517" lon="9.8903767"><ele>696.6666666666667</ele><time>2026-04-19T12:29:40.054Z</time></trkpt><trkpt lat="44.7239267" lon="9.89049"><ele>692.0</ele><time>2026-04-19T12:29:42.054Z</time></trkpt><trkpt lat="44.7239883" lon="9.8905617"><ele>687.3333333333334</ele><time>2026-04-19T12:29:43.055Z</time></trkpt><trkpt lat="44.724035" lon="9.8906317"><ele>682.6666666666666</ele><time>2026-04-19T12:29:44.054Z</time></trkpt><trkpt lat="44.7241033" lon="9.8907833"><ele>678.0</ele><time>2026-04-19T12:29:46.056Z</time></trkpt><trkpt lat="44.7241783" lon="9.8909267"><ele>677.2</ele><time>2026-04-19T12:29:48.054Z</time></trkpt><trkpt lat="44.7242083" lon="9.8910133"><ele>676.4</ele><time>2026-04-19T12:29:49.054Z</time></trkpt><trkpt lat="44.7242417" lon="9.8910917"><ele>675.6</ele><time>2026-04-19T12:29:50.056Z</time></trkpt><trkpt lat="44.7242583" lon="9.8912417"><ele>674.8000000000001</ele><time>2026-04-19T12:29:52.055Z</time></trkpt><trkpt lat="44.724245" lon="9.8913967"><ele>674.0</ele><time>2026-04-19T12:29:54.053Z</time></trkpt><trkpt lat="44.72423" lon="9.891535"><ele>674.0</ele><time>2026-04-19T12:29:56.054Z</time></trkpt><trkpt lat="44.7242117" lon="9.8916233"><ele>674.0</ele><time>2026-04-19T12:29:58.053Z</time></trkpt><trkpt lat="44.72419" lon="9.8917233"><ele>674.0</ele><time>2026-04-19T12:30:00.053Z</time></trkpt><trkpt lat="44.7241583" lon="9.8918617"><ele>674.0</ele><time>2026-04-19T12:30:02.055Z</time></trkpt><trkpt lat="44.724135" lon="9.8920033"><ele>674.0</ele><time>2026-04-19T12:30:04.054Z</time></trkpt><trkpt lat="44.7242117" lon="9.8920467"><ele>674.0</ele><time>2026-04-19T12:30:10.055Z</time></trkpt><trkpt lat="44.72431" lon="9.8919883"><ele>674.1666666666666</ele><time>2026-04-19T12:30:12.053Z</time></trkpt><trkpt lat="44.7243817" lon="9.89196"><ele>674.3333333333333</ele><time>2026-04-19T12:30:13.053Z</time></trkpt><trkpt lat="44.7244417" lon="9.89193"><ele>674.5</ele><time>2026-04-19T12:30:14.057Z</time></trkpt><trkpt lat="44.72454" lon="9.89185"><ele>674.6666666666666</ele><time>2026-04-19T12:30:16.053Z</time></trkpt><trkpt lat="44.724625" lon="9.8917967"><ele>674.8333333333334</ele><time>2026-04-19T12:30:18.055Z</time></trkpt><trkpt lat="44.7247117" lon="9.891765"><ele>675.0</ele><time>2026-04-19T12:30:20.053Z</time></trkpt><trkpt lat="44.7247917" lon="9.89178"><ele>672.3333333333334</ele><time>2026-04-19T12:30:22.053Z</time></trkpt><trkpt lat="44.724865" lon="9.891825"><ele>669.6666666666666</ele><time>2026-04-19T12:30:24.053Z</time></trkpt><trkpt lat="44.7249533" lon="9.8918233"><ele>667.0</ele><time>2026-04-19T12:30:26.053Z</time></trkpt><trkpt lat="44.7250167" lon="9.8918067"><ele>664.3333333333333</ele><time>2026-04-19T12:30:27.054Z</time></trkpt><trkpt lat="44.7250933" lon="9.8918267"><ele>661.6666666666666</ele><time>2026-04-19T12:30:30.055Z</time></trkpt><trkpt lat="44.7251583" lon="9.89182"><ele>659.0</ele><time>2026-04-19T12:30:32.054Z</time></trkpt><trkpt lat="44.725245" lon="9.891805"><ele>659.0</ele><time>2026-04-19T12:30:35.053Z</time></trkpt><trkpt lat="44.72532" lon="9.89179"><ele>659.0</ele><time>2026-04-19T12:30:38.053Z</time></trkpt><trkpt lat="44.725395" lon="9.89173"><ele>659.0</ele><time>2026-04-19T12:30:41.054Z</time></trkpt><trkpt lat="44.7254483" lon="9.8916767"><ele>659.0</ele><time>2026-04-19T12:30:43.054Z</time></trkpt><trkpt lat="44.7255583" lon="9.8916317"><ele>659.0</ele><time>2026-04-19T12:30:45.055Z</time></trkpt><trkpt lat="44.7256517" lon="9.8916183"><ele>659.0</ele><time>2026-04-19T12:30:46.055Z</time></trkpt><trkpt lat="44.725755" lon="9.8915867"><ele>653.8000000000001</ele><time>2026-04-19T12:30:47.054Z</time></trkpt><trkpt lat="44.7258567" lon="9.89155"><ele>648.6</ele><time>2026-04-19T12:30:48.055Z</time></trkpt><trkpt lat="44.7259617" lon="9.8915"><ele>643.4</ele><time>2026-04-19T12:30:49.054Z</time></trkpt><trkpt lat="44.726065" lon="9.8914417"><ele>638.2</ele><time>2026-04-19T12:30:50.055Z</time></trkpt><trkpt lat="44.726175" lon="9.8913883"><ele>633.0</ele><time>2026-04-19T12:30:51.053Z</time></trkpt><trkpt lat="44.7262933" lon="9.89133"><ele>633.0</ele><time>2026-04-19T12:30:52.054Z</time></trkpt><trkpt lat="44.7264133" lon="9.89127"><ele>633.0</ele><time>2026-04-19T12:30:53.054Z</time></trkpt><trkpt lat="44.7265333" lon="9.8912067"><ele>633.0</ele><time>2026-04-19T12:30:54.054Z</time></trkpt><trkpt lat="44.726655" lon="9.89115"><ele>633.0</ele><time>2026-04-19T12:30:55.054Z</time></trkpt><trkpt lat="44.7267733" lon="9.8911"><ele>633.0</ele><time>2026-04-19T12:30:56.054Z</time></trkpt><trkpt lat="44.7268867" lon="9.8910583"><ele>633.0</ele><time>2026-04-19T12:30:57.054Z</time></trkpt><trkpt lat="44.7269967" lon="9.89103"><ele>633.0</ele><time>2026-04-19T12:30:58.053Z</time></trkpt><trkpt lat="44.7270833" lon="9.8910317"><ele>633.0</ele><time>2026-04-19T12:30:59.054Z</time></trkpt><trkpt lat="44.7271567" lon="9.89103"><ele>633.0</ele><time>2026-04-19T12:31:00.054Z</time></trkpt><trkpt lat="44.7272317" lon="9.8910183"><ele>633.0</ele><time>2026-04-19T12:31:02.055Z</time></trkpt><trkpt lat="44.7271583" lon="9.8910183"><ele>633.0</ele><time>2026-04-19T12:31:05.055Z</time></trkpt><trkpt lat="44.727085" lon="9.8910283"><ele>633.0</ele><time>2026-04-19T12:31:07.057Z</time></trkpt><trkpt lat="44.7270217" lon="9.8910433"><ele>633.0</ele><time>2026-04-19T12:31:10.054Z</time></trkpt><trkpt lat="44.7269467" lon="9.8910133"><ele>633.0</ele><time>2026-04-19T12:31:13.056Z</time></trkpt><trkpt lat="44.72685" lon="9.890965"><ele>633.0</ele><time>2026-04-19T12:31:15.054Z</time></trkpt><trkpt lat="44.72678" lon="9.8909617"><ele>633.0</ele><time>2026-04-19T12:31:16.055Z</time></trkpt><trkpt lat="44.7267033" lon="9.8909617"><ele>633.0</ele><time>2026-04-19T12:31:17.054Z</time></trkpt><trkpt lat="44.7266267" lon="9.8909567"><ele>633.0</ele><time>2026-04-19T12:31:18.054Z</time></trkpt><trkpt lat="44.7265467" lon="9.89095"><ele>633.0</ele><time>2026-04-19T12:31:19.054Z</time></trkpt><trkpt lat="44.7264683" lon="9.8909367"><ele>633.0</ele><time>2026-04-19T12:31:20.055Z</time></trkpt><trkpt lat="44.7264" lon="9.8909017"><ele>633.0</ele><time>2026-04-19T12:31:21.054Z</time></trkpt><trkpt lat="44.7263417" lon="9.8908583"><ele>629.6666666666666</ele><time>2026-04-19T12:31:22.053Z</time></trkpt><trkpt lat="44.7262783" lon="9.8908133"><ele>626.3333333333334</ele><time>2026-04-19T12:31:23.054Z</time></trkpt><trkpt lat="44.7262117" lon="9.89077"><ele>623.0</ele><time>2026-04-19T12:31:24.054Z</time></trkpt><trkpt lat="44.7261483" lon="9.8907317"><ele>619.6666666666667</ele><time>2026-04-19T12:31:25.055Z</time></trkpt><trkpt lat="44.7260817" lon="9.8907"><ele>616.3333333333334</ele><time>2026-04-19T12:31:26.056Z</time></trkpt><trkpt lat="44.7259733" lon="9.8906283"><ele>613.0</ele><time>2026-04-19T12:31:28.054Z</time></trkpt><trkpt lat="44.725895" lon="9.89056"><ele>613.0</ele><time>2026-04-19T12:31:30.054Z</time></trkpt><trkpt lat="44.7258317" lon="9.89055"><ele>613.0</ele><time>2026-04-19T12:31:32.053Z</time></trkpt><trkpt lat="44.7257533" lon="9.8904817"><ele>613.0</ele><time>2026-04-19T12:31:35.054Z</time></trkpt><trkpt lat="44.7257183" lon="9.89039"><ele>613.0</ele><time>2026-04-19T12:31:37.054Z</time></trkpt><trkpt lat="44.725675" lon="9.89031"><ele>613.0</ele><time>2026-04-19T12:31:39.054Z</time></trkpt><trkpt lat="44.7255767" lon="9.8902867"><ele>613.0</ele><time>2026-04-19T12:31:42.054Z</time></trkpt><trkpt lat="44.7255" lon="9.89028"><ele>613.0</ele><time>2026-04-19T12:31:45.054Z</time></trkpt><trkpt lat="44.7254283" lon="9.8901683"><ele>613.0</ele><time>2026-04-19T12:31:47.053Z</time></trkpt><trkpt lat="44.7253983" lon="9.8900533"><ele>613.0</ele><time>2026-04-19T12:31:48.054Z</time></trkpt><trkpt lat="44.7253667" lon="9.88996"><ele>613.0</ele><time>2026-04-19T12:31:49.054Z</time></trkpt><trkpt lat="44.72532" lon="9.8898433"><ele>613.0</ele><time>2026-04-19T12:31:50.054Z</time></trkpt><trkpt lat="44.7253033" lon="9.8896733"><ele>613.25</ele><time>2026-04-19T12:31:51.053Z</time></trkpt><trkpt lat="44.725255" lon="9.8894867"><ele>613.5</ele><time>2026-04-19T12:31:52.053Z</time></trkpt><trkpt lat="44.7252067" lon="9.8893467"><ele>613.75</ele><time>2026-04-19T12:31:53.054Z</time></trkpt><trkpt lat="44.725165" lon="9.889195"><ele>614.0</ele><time>2026-04-19T12:31:54.054Z</time></trkpt><trkpt lat="44.7251217" lon="9.88907"><ele>614.0</ele><time>2026-04-19T12:31:55.054Z</time></trkpt><trkpt lat="44.7250883" lon="9.88896"><ele>614.0</ele><time>2026-04-19T12:31:56.054Z</time></trkpt><trkpt lat="44.72506" lon="9.88886"><ele>614.0</ele><time>2026-04-19T12:31:57.054Z</time></trkpt><trkpt lat="44.725015" lon="9.8887783"><ele>614.0</ele><time>2026-04-19T12:31:58.054Z</time></trkpt><trkpt lat="44.724915" lon="9.8887067"><ele>614.0</ele><time>2026-04-19T12:32:00.054Z</time></trkpt><trkpt lat="44.7248083" lon="9.8886483"><ele>614.0</ele><time>2026-04-19T12:32:02.055Z</time></trkpt><trkpt lat="44.7247333" lon="9.8886083"><ele>614.0</ele><time>2026-04-19T12:32:03.055Z</time></trkpt><trkpt lat="44.72463" lon="9.8885383"><ele>614.0</ele><time>2026-04-19T12:32:05.053Z</time></trkpt><trkpt lat="44.7245667" lon="9.888505"><ele>614.0</ele><time>2026-04-19T12:32:06.055Z</time></trkpt><trkpt lat="44.7245367" lon="9.888425"><ele>614.0</ele><time>2026-04-19T12:32:08.054Z</time></trkpt><trkpt lat="44.7245833" lon="9.8883367"><ele>614.0</ele><time>2026-04-19T12:32:11.055Z</time></trkpt><trkpt lat="44.7246583" lon="9.8882967"><ele>609.6</ele><time>2026-04-19T12:32:15.055Z</time></trkpt><trkpt lat="44.724725" lon="9.888275"><ele>605.2</ele><time>2026-04-19T12:32:18.054Z</time></trkpt><trkpt lat="44.7249017" lon="9.8881967"><ele>600.8000000000001</ele><time>2026-04-19T12:32:29.054Z</time></trkpt><trkpt lat="44.7249633" lon="9.8881583"><ele>596.4</ele><time>2026-04-19T12:32:31.055Z</time></trkpt><trkpt lat="44.7250367" lon="9.8881167"><ele>592.0</ele><time>2026-04-19T12:32:33.055Z</time></trkpt><trkpt lat="44.725125" lon="9.88806"><ele>592.0</ele><time>2026-04-19T12:32:35.055Z</time></trkpt><trkpt lat="44.7251783" lon="9.8880033"><ele>592.0</ele><time>2026-04-19T12:32:37.054Z</time></trkpt><trkpt lat="44.7252233" lon="9.8879217"><ele>592.0</ele><time>2026-04-19T12:32:40.054Z</time></trkpt><trkpt lat="44.7252683" lon="9.8878217"><ele>592.0</ele><time>2026-04-19T12:32:43.056Z</time></trkpt><trkpt lat="44.7252933" lon="9.8877383"><ele>592.0</ele><time>2026-04-19T12:32:45.054Z</time></trkpt><trkpt lat="44.725325" lon="9.8876583"><ele>592.0</ele><time>2026-04-19T12:32:47.053Z</time></trkpt><trkpt lat="44.7253767" lon="9.8875383"><ele>586.3333333333334</ele><time>2026-04-19T12:33:24.054Z</time></trkpt><trkpt lat="44.7254133" lon="9.8874617"><ele>580.6666666666667</ele><time>2026-04-19T12:33:31.054Z</time></trkpt><trkpt lat="44.7254533" lon="9.8873733"><ele>575.0</ele><time>2026-04-19T12:33:33.055Z</time></trkpt><trkpt lat="44.725515" lon="9.8873467"><ele>569.3333333333334</ele><time>2026-04-19T12:33:35.055Z</time></trkpt><trkpt lat="44.7255883" lon="9.887335"><ele>563.6666666666666</ele><time>2026-04-19T12:33:37.055Z</time></trkpt><trkpt lat="44.72567" lon="9.887305"><ele>558.0</ele><time>2026-04-19T12:33:39.054Z</time></trkpt><trkpt lat="44.7257667" lon="9.8872767"><ele>558.0</ele><time>2026-04-19T12:33:41.055Z</time></trkpt><trkpt lat="44.725865" lon="9.8872517"><ele>558.0</ele><time>2026-04-19T12:33:43.054Z</time></trkpt><trkpt lat="44.7259517" lon="9.887275"><ele>558.0</ele><time>2026-04-19T12:33:45.055Z</time></trkpt><trkpt lat="44.7260467" lon="9.8873617"><ele>558.0</ele><time>2026-04-19T12:33:47.053Z</time></trkpt><trkpt lat="44.726105" lon="9.8874783"><ele>558.0</ele><time>2026-04-19T12:33:49.055Z</time></trkpt><trkpt lat="44.7261417" lon="9.88761"><ele>559.1999999999999</ele><time>2026-04-19T12:33:51.053Z</time></trkpt><trkpt lat="44.72618" lon="9.887685"><ele>560.4</ele><time>2026-04-19T12:33:53.055Z</time></trkpt><trkpt lat="44.7262717" lon="9.8876517"><ele>561.5999999999999</ele><time>2026-04-19T12:33:56.054Z</time></trkpt><trkpt lat="44.72636" lon="9.88758"><ele>562.8</ele><time>2026-04-19T12:33:58.054Z</time></trkpt><trkpt lat="44.7264517" lon="9.887515"><ele>564.0</ele><time>2026-04-19T12:34:00.054Z</time></trkpt><trkpt lat="44.72654" lon="9.8874417"><ele>560.4</ele><time>2026-04-19T12:34:02.055Z</time></trkpt><trkpt lat="44.7266267" lon="9.8873733"><ele>556.8</ele><time>2026-04-19T12:34:04.054Z</time></trkpt><trkpt lat="44.726715" lon="9.8873367"><ele>553.2</ele><time>2026-04-19T12:34:06.054Z</time></trkpt><trkpt lat="44.7267983" lon="9.8873067"><ele>549.6</ele><time>2026-04-19T12:34:08.054Z</time></trkpt><trkpt lat="44.7268683" lon="9.8872967"><ele>546.0</ele><time>2026-04-19T12:34:11.053Z</time></trkpt><trkpt lat="44.7269467" lon="9.8871967"><ele>546.0</ele><time>2026-04-19T12:35:30.054Z</time></trkpt><trkpt lat="44.7270033" lon="9.887115"><ele>546.0</ele><time>2026-04-19T12:35:34.053Z</time></trkpt><trkpt lat="44.7270533" lon="9.88705"><ele>546.0</ele><time>2026-04-19T12:35:37.054Z</time></trkpt><trkpt lat="44.727125" lon="9.8869483"><ele>546.0</ele><time>2026-04-19T12:35:40.053Z</time></trkpt><trkpt lat="44.7271983" lon="9.886885"><ele>546.0</ele><time>2026-04-19T12:35:42.055Z</time></trkpt><trkpt lat="44.72729" lon="9.8868233"><ele>546.0</ele><time>2026-04-19T12:35:44.056Z</time></trkpt><trkpt lat="44.7273717" lon="9.8867483"><ele>541.0</ele><time>2026-04-19T12:35:46.054Z</time></trkpt><trkpt lat="44.7274683" lon="9.8866817"><ele>536.0</ele><time>2026-04-19T12:35:48.054Z</time></trkpt><trkpt lat="44.72755" lon="9.8866283"><ele>531.0</ele><time>2026-04-19T12:35:50.055Z</time></trkpt><trkpt lat="44.7276367" lon="9.8865583"><ele>526.0</ele><time>2026-04-19T12:35:52.053Z</time></trkpt><trkpt lat="44.7277533" lon="9.8864933"><ele>521.0</ele><time>2026-04-19T12:35:54.053Z</time></trkpt><trkpt lat="44.727815" lon="9.8864567"><ele>520.5</ele><time>2026-04-19T12:35:55.054Z</time></trkpt><trkpt lat="44.72788" lon="9.8864183"><ele>520.0</ele><time>2026-04-19T12:35:56.054Z</time></trkpt><trkpt lat="44.7279467" lon="9.8863733"><ele>519.5</ele><time>2026-04-19T12:35:57.053Z</time></trkpt><trkpt lat="44.7280067" lon="9.8863267"><ele>519.0</ele><time>2026-04-19T12:35:58.054Z</time></trkpt><trkpt lat="44.728115" lon="9.886255"><ele>518.5</ele><time>2026-04-19T12:36:00.053Z</time></trkpt><trkpt lat="44.7282017" lon="9.8862183"><ele>518.0</ele><time>2026-04-19T12:36:02.054Z</time></trkpt><trkpt lat="44.728295" lon="9.8861567"><ele>518.0</ele><time>2026-04-19T12:36:04.053Z</time></trkpt><trkpt lat="44.7283833" lon="9.8860767"><ele>518.0</ele><time>2026-04-19T12:36:06.054Z</time></trkpt><trkpt lat="44.7284417" lon="9.8860183"><ele>518.0</ele><time>2026-04-19T12:36:08.054Z</time></trkpt><trkpt lat="44.7285283" lon="9.8860267"><ele>518.0</ele><time>2026-04-19T12:36:11.053Z</time></trkpt><trkpt lat="44.7285933" lon="9.8860533"><ele>518.0</ele><time>2026-04-19T12:36:13.053Z</time></trkpt><trkpt lat="44.7286617" lon="9.8860633"><ele>518.0</ele><time>2026-04-19T12:36:16.053Z</time></trkpt><trkpt lat="44.72878" lon="9.8860933"><ele>516.6</ele><time>2026-04-19T12:36:18.054Z</time></trkpt><trkpt lat="44.7288683" lon="9.8861167"><ele>515.1999999999999</ele><time>2026-04-19T12:36:19.053Z</time></trkpt><trkpt lat="44.7289717" lon="9.8861483"><ele>513.8</ele><time>2026-04-19T12:36:20.054Z</time></trkpt><trkpt lat="44.7290833" lon="9.886185"><ele>512.4</ele><time>2026-04-19T12:36:21.055Z</time></trkpt><trkpt lat="44.729195" lon="9.8862383"><ele>511.0</ele><time>2026-04-19T12:36:22.054Z</time></trkpt><trkpt lat="44.7293033" lon="9.8862867"><ele>509.25</ele><time>2026-04-19T12:36:23.054Z</time></trkpt><trkpt lat="44.72942" lon="9.88634"><ele>507.5</ele><time>2026-04-19T12:36:24.055Z</time></trkpt><trkpt lat="44.7295383" lon="9.8863967"><ele>505.75</ele><time>2026-04-19T12:36:25.055Z</time></trkpt><trkpt lat="44.729655" lon="9.8864633"><ele>504.0</ele><time>2026-04-19T12:36:26.055Z</time></trkpt><trkpt lat="44.7297633" lon="9.886535"><ele>504.0</ele><time>2026-04-19T12:36:27.054Z</time></trkpt><trkpt lat="44.7298733" lon="9.8866033"><ele>504.0</ele><time>2026-04-19T12:36:28.053Z</time></trkpt><trkpt lat="44.729975" lon="9.8866783"><ele>504.0</ele><time>2026-04-19T12:36:29.053Z</time></trkpt><trkpt lat="44.730075" lon="9.8867633"><ele>504.0</ele><time>2026-04-19T12:36:30.054Z</time></trkpt><trkpt lat="44.7301617" lon="9.8868467"><ele>504.4</ele><time>2026-04-19T12:36:31.054Z</time></trkpt><trkpt lat="44.730235" lon="9.8869367"><ele>504.79999999999995</ele><time>2026-04-19T12:36:32.055Z</time></trkpt><trkpt lat="44.7303067" lon="9.8870267"><ele>505.20000000000005</ele><time>2026-04-19T12:36:33.054Z</time></trkpt><trkpt lat="44.730375" lon="9.8871183"><ele>505.6</ele><time>2026-04-19T12:36:34.054Z</time></trkpt><trkpt lat="44.73045" lon="9.88721"><ele>506.0</ele><time>2026-04-19T12:36:35.055Z</time></trkpt><trkpt lat="44.7305217" lon="9.88729"><ele>505.99999999999994</ele><time>2026-04-19T12:36:36.054Z</time></trkpt><trkpt lat="44.7305967" lon="9.887355"><ele>506.0</ele><time>2026-04-19T12:36:37.054Z</time></trkpt><trkpt lat="44.73067" lon="9.8874167"><ele>506.0</ele><time>2026-04-19T12:36:38.054Z</time></trkpt><trkpt lat="44.73074" lon="9.887475"><ele>506.0</ele><time>2026-04-19T12:36:39.055Z</time></trkpt><trkpt lat="44.7308033" lon="9.8875367"><ele>505.99999999999994</ele><time>2026-04-19T12:36:40.055Z</time></trkpt><trkpt lat="44.7308583" lon="9.8876"><ele>506.0</ele><time>2026-04-19T12:36:41.053Z</time></trkpt><trkpt lat="44.7309067" lon="9.88766"><ele>506.99999999999994</ele><time>2026-04-19T12:36:42.056Z</time></trkpt><trkpt lat="44.7309883" lon="9.8877367"><ele>508.0</ele><time>2026-04-19T12:36:44.055Z</time></trkpt><trkpt lat="44.7310867" lon="9.8877067"><ele>509.0</ele><time>2026-04-19T12:36:48.053Z</time></trkpt><trkpt lat="44.731135" lon="9.88762"><ele>510.0</ele><time>2026-04-19T12:36:50.054Z</time></trkpt><trkpt lat="44.73118" lon="9.8875317"><ele>510.99999999999994</ele><time>2026-04-19T12:36:52.054Z</time></trkpt><trkpt lat="44.7312133" lon="9.8874317"><ele>512.0</ele><time>2026-04-19T12:36:54.054Z</time></trkpt><trkpt lat="44.7312283" lon="9.8873383"><ele>500.0</ele><time>2026-04-19T12:36:56.054Z</time></trkpt><trkpt lat="44.7312317" lon="9.88722"><ele>500.0</ele><time>2026-04-19T12:36:59.053Z</time></trkpt><trkpt lat="44.7311716" lon="9.8871876"><ele>500.0</ele><time>2026-04-19T12:39:06.112Z</time></trkpt><trkpt lat="44.7311716" lon="9.8871876"><ele>500.0</ele><time>2026-04-19T12:39:06.112Z</time></trkpt></trkseg></trk></gpx>